<?xml version='1.0' encoding='UTF-8'?><gpx version="1.1" creator="JPX - https://github.com/jenetics/jpx" xmlns="http://www.topografix.com/GPX/1/1"><trk><trkseg><trkpt lat="45.143109263775365" lon="5.700812935785266"><ele>231.0</ele><time>2026-04-05T12:20:52.007Z</time></trkpt><trkpt lat="45.14313774267044" lon="5.700693998152441"><ele>231.0</ele><time>2026-04-05T12:20:54.006Z</time></trkpt><trkpt lat="45.14313493663639" lon="5.700570318293918"><ele>231.0</ele><time>2026-04-05T12:20:56.005Z</time></trkpt><trkpt lat="45.14316696497175" lon="5.700455205898687"><ele>231.0</ele><time>2026-04-05T12:20:58.004Z</time></trkpt><trkpt lat="45.14319547194851" lon="5.700360363877013"><ele>231.0</ele><time>2026-04-05T12:21:00.004Z</time></trkpt><trkpt lat="45.143222017789576" lon="5.700278839913303"><ele>231.0</ele><time>2026-04-05T12:21:02.003Z</time></trkpt><trkpt lat="45.14325693118568" lon="5.700199591682878"><ele>231.4</ele><time>2026-04-05T12:21:21Z</time></trkpt><trkpt lat="45.143330019923575" lon="5.700212325877381"><ele>231.8</ele><time>2026-04-05T12:21:23Z</time></trkpt><trkpt lat="45.14343188202169" lon="5.7002694371795"><ele>232.20000000000002</ele><time>2026-04-05T12:21:25Z</time></trkpt><trkpt lat="45.143525467225246" lon="5.700313097108393"><ele>232.60000000000002</ele><time>2026-04-05T12:21:26.999Z</time></trkpt><trkpt lat="45.143618908015185" lon="5.7003541993366476"><ele>233.0</ele><time>2026-04-05T12:21:28.999Z</time></trkpt><trkpt lat="45.143725203698914" lon="5.7003944256705275"><ele>233.0</ele><time>2026-04-05T12:21:30.999Z</time></trkpt><trkpt lat="45.143789678306916" lon="5.700360902201905"><ele>233.0</ele><time>2026-04-05T12:21:31.999Z</time></trkpt><trkpt lat="45.14382281597618" lon="5.700451841581422"><ele>233.0</ele><time>2026-04-05T12:21:32.999Z</time></trkpt><trkpt lat="45.14393304027679" lon="5.700499804652854"><ele>233.0</ele><time>2026-04-05T12:21:34.999Z</time></trkpt><trkpt lat="45.144058008077494" lon="5.7005441664309995"><ele>233.0</ele><time>2026-04-05T12:21:36.999Z</time></trkpt><trkpt lat="45.14415796840613" lon="5.700584200566414"><ele>233.4</ele><time>2026-04-05T12:21:38.999Z</time></trkpt><trkpt lat="45.14422080285776" lon="5.700610317653403"><ele>233.8</ele><time>2026-04-05T12:21:40.999Z</time></trkpt><trkpt lat="45.14432216025522" lon="5.700648533140908"><ele>234.2</ele><time>2026-04-05T12:21:42.999Z</time></trkpt><trkpt lat="45.14439001291634" lon="5.70067959440277"><ele>234.6</ele><time>2026-04-05T12:21:43.999Z</time></trkpt><trkpt lat="45.14448050530125" lon="5.700707536697892"><ele>235.0</ele><time>2026-04-05T12:21:44.999Z</time></trkpt><trkpt lat="45.14459601117161" lon="5.700734050228452"><ele>235.0</ele><time>2026-04-05T12:21:45.999Z</time></trkpt><trkpt lat="45.14470808901081" lon="5.700758766840538"><ele>235.0</ele><time>2026-04-05T12:21:46.999Z</time></trkpt><trkpt lat="45.14479883041946" lon="5.7007839347242175"><ele>235.0</ele><time>2026-04-05T12:21:47.999Z</time></trkpt><trkpt lat="45.144892419568954" lon="5.700802032225666"><ele>235.0</ele><time>2026-04-05T12:21:48.999Z</time></trkpt><trkpt lat="45.1449868242672" lon="5.700819588028432"><ele>235.0</ele><time>2026-04-05T12:21:49.999Z</time></trkpt><trkpt lat="45.14507503696259" lon="5.700837969651171"><ele>235.0</ele><time>2026-04-05T12:21:50.999Z</time></trkpt><trkpt lat="45.14516629552884" lon="5.700862052436971"><ele>235.0</ele><time>2026-04-05T12:21:51.999Z</time></trkpt><trkpt lat="45.14525512816567" lon="5.700894753365107"><ele>235.0</ele><time>2026-04-05T12:21:52.999Z</time></trkpt><trkpt lat="45.14534548212148" lon="5.700930962775841"><ele>235.0</ele><time>2026-04-05T12:21:53.999Z</time></trkpt><trkpt lat="45.145439391409944" lon="5.700960996137822"><ele>235.0</ele><time>2026-04-05T12:21:54.999Z</time></trkpt><trkpt lat="45.1455398203096" lon="5.700983313173431"><ele>235.0</ele><time>2026-04-05T12:21:55.999Z</time></trkpt><trkpt lat="45.145633736636455" lon="5.701013533481296"><ele>235.0</ele><time>2026-04-05T12:21:56.999Z</time></trkpt><trkpt lat="45.145727026667885" lon="5.701031555898738"><ele>235.0</ele><time>2026-04-05T12:21:57.999Z</time></trkpt><trkpt lat="45.14584296868702" lon="5.701058513196368"><ele>235.0</ele><time>2026-04-05T12:21:58.999Z</time></trkpt><trkpt lat="45.1459487723034" lon="5.701087408763314"><ele>235.0</ele><time>2026-04-05T12:21:59.999Z</time></trkpt><trkpt lat="45.14603607018692" lon="5.701128469999061"><ele>235.0</ele><time>2026-04-05T12:22:00.999Z</time></trkpt><trkpt lat="45.14614236842086" lon="5.701160104908665"><ele>235.0</ele><time>2026-04-05T12:22:01.999Z</time></trkpt><trkpt lat="45.14625424556699" lon="5.701193092477622"><ele>235.0</ele><time>2026-04-05T12:22:02.999Z</time></trkpt><trkpt lat="45.146348089324306" lon="5.701211739564797"><ele>235.0</ele><time>2026-04-05T12:22:03.999Z</time></trkpt><trkpt lat="45.14648337012401" lon="5.70124644307673"><ele>234.99999999999997</ele><time>2026-04-05T12:22:05.998Z</time></trkpt><trkpt lat="45.146552348737984" lon="5.701281523982282"><ele>235.0</ele><time>2026-04-05T12:22:09.998Z</time></trkpt><trkpt lat="45.14666343797922" lon="5.701308630682924"><ele>235.0</ele><time>2026-04-05T12:22:11.998Z</time></trkpt><trkpt lat="45.14674741697466" lon="5.701329813772418"><ele>235.0</ele><time>2026-04-05T12:22:12.998Z</time></trkpt><trkpt lat="45.14683625052846" lon="5.701345047486944"><ele>234.99999999999997</ele><time>2026-04-05T12:22:13.998Z</time></trkpt><trkpt lat="45.14691674310666" lon="5.701350215868974"><ele>235.0</ele><time>2026-04-05T12:22:14.998Z</time></trkpt><trkpt lat="45.14700378604957" lon="5.701376749654995"><ele>235.0</ele><time>2026-04-05T12:22:15.998Z</time></trkpt><trkpt lat="45.14710905391297" lon="5.701396271927018"><ele>235.0</ele><time>2026-04-05T12:22:16.998Z</time></trkpt><trkpt lat="45.1471914923206" lon="5.701435141018404"><ele>235.0</ele><time>2026-04-05T12:22:17.998Z</time></trkpt><trkpt lat="45.1472816699857" lon="5.7014379621221725"><ele>235.0</ele><time>2026-04-05T12:22:18.998Z</time></trkpt><trkpt lat="45.14737547027352" lon="5.70146715620788"><ele>235.0</ele><time>2026-04-05T12:22:19.998Z</time></trkpt><trkpt lat="45.1474548198284" lon="5.701481513241118"><ele>235.0</ele><time>2026-04-05T12:22:20.998Z</time></trkpt><trkpt lat="45.147522387054615" lon="5.701493872586565"><ele>234.99999999999997</ele><time>2026-04-05T12:22:21.998Z</time></trkpt><trkpt lat="45.14758917271665" lon="5.70150553800303"><ele>235.0</ele><time>2026-04-05T12:22:22.998Z</time></trkpt><trkpt lat="45.14766197195737" lon="5.701531324112167"><ele>235.0</ele><time>2026-04-05T12:22:23.998Z</time></trkpt><trkpt lat="45.147726076136166" lon="5.701553991473848"><ele>234.99999999999997</ele><time>2026-04-05T12:22:24.998Z</time></trkpt><trkpt lat="45.147799232109634" lon="5.701560942196439"><ele>235.0</ele><time>2026-04-05T12:22:25.998Z</time></trkpt><trkpt lat="45.14786347434422" lon="5.701559701191434"><ele>235.0</ele><time>2026-04-05T12:22:26.998Z</time></trkpt><trkpt lat="45.147972399995204" lon="5.701583471437517"><ele>234.99999999999997</ele><time>2026-04-05T12:22:28.998Z</time></trkpt><trkpt lat="45.14806471157595" lon="5.701626363111407"><ele>235.0</ele><time>2026-04-05T12:22:30.998Z</time></trkpt><trkpt lat="45.148163199148726" lon="5.701647626088031"><ele>235.0</ele><time>2026-04-05T12:22:32.996Z</time></trkpt><trkpt lat="45.148227717744774" lon="5.701645125405366"><ele>235.0</ele><time>2026-04-05T12:22:33.996Z</time></trkpt><trkpt lat="45.1483481426253" lon="5.701678733064503"><ele>234.99999999999997</ele><time>2026-04-05T12:22:35.996Z</time></trkpt><trkpt lat="45.14841036469994" lon="5.701693667425913"><ele>235.0</ele><time>2026-04-05T12:22:36.997Z</time></trkpt><trkpt lat="45.14847900840526" lon="5.701711595725907"><ele>234.49999999999997</ele><time>2026-04-05T12:22:37.997Z</time></trkpt><trkpt lat="45.148544750884085" lon="5.701730135072287"><ele>234.0</ele><time>2026-04-05T12:22:38.997Z</time></trkpt><trkpt lat="45.148607532669686" lon="5.701736729966098"><ele>233.5</ele><time>2026-04-05T12:22:39.997Z</time></trkpt><trkpt lat="45.148703882678824" lon="5.701750476461733"><ele>233.0</ele><time>2026-04-05T12:22:41.997Z</time></trkpt><trkpt lat="45.14877461640811" lon="5.7017712786815995"><ele>232.49999999999997</ele><time>2026-04-05T12:22:44.997Z</time></trkpt><trkpt lat="45.14887483576774" lon="5.701802880937944"><ele>232.0</ele><time>2026-04-05T12:22:51.998Z</time></trkpt><trkpt lat="45.14899931636453" lon="5.7018134714847255"><ele>231.8</ele><time>2026-04-05T12:22:53.998Z</time></trkpt><trkpt lat="45.149084295573104" lon="5.701859223682937"><ele>231.6</ele><time>2026-04-05T12:22:55.999Z</time></trkpt><trkpt lat="45.14913770818125" lon="5.70166466336913"><ele>231.40000000000003</ele><time>2026-04-05T12:22:56.999Z</time></trkpt><trkpt lat="45.14916700917852" lon="5.701486586588354"><ele>231.20000000000002</ele><time>2026-04-05T12:22:58.999Z</time></trkpt><trkpt lat="45.14917322297606" lon="5.7013756079902524"><ele>231.0</ele><time>2026-04-05T12:22:59.999Z</time></trkpt><trkpt lat="45.14920550878879" lon="5.701258081627544"><ele>231.0</ele><time>2026-04-05T12:23:00.999Z</time></trkpt><trkpt lat="45.1492296272016" lon="5.701137166114116"><ele>231.0</ele><time>2026-04-05T12:23:01.999Z</time></trkpt><trkpt lat="45.14925400080353" lon="5.70101447169723"><ele>231.0</ele><time>2026-04-05T12:23:02.999Z</time></trkpt><trkpt lat="45.149281764307545" lon="5.700893123307951"><ele>231.0</ele><time>2026-04-05T12:23:03.999Z</time></trkpt><trkpt lat="45.14931519133999" lon="5.700780152270249"><ele>231.0</ele><time>2026-04-05T12:23:04.999Z</time></trkpt><trkpt lat="45.149353957850835" lon="5.700665038214655"><ele>231.0</ele><time>2026-04-05T12:23:05.999Z</time></trkpt><trkpt lat="45.14939311773" lon="5.700550690102758"><ele>231.0</ele><time>2026-04-05T12:23:06.999Z</time></trkpt><trkpt lat="45.14942175714571" lon="5.700425773849002"><ele>231.00000000000003</ele><time>2026-04-05T12:23:07.999Z</time></trkpt><trkpt lat="45.14945229702157" lon="5.700310844486086"><ele>231.00000000000003</ele><time>2026-04-05T12:23:08.999Z</time></trkpt><trkpt lat="45.149498807673915" lon="5.700195947466817"><ele>231.0</ele><time>2026-04-05T12:23:09.999Z</time></trkpt><trkpt lat="45.14954615717" lon="5.700085346687313"><ele>231.0</ele><time>2026-04-05T12:23:10.999Z</time></trkpt><trkpt lat="45.14957742581714" lon="5.699971277907141"><ele>231.0</ele><time>2026-04-05T12:23:11.999Z</time></trkpt><trkpt lat="45.14961230449263" lon="5.69986313699659"><ele>231.0</ele><time>2026-04-05T12:23:12.999Z</time></trkpt><trkpt lat="45.149641559509604" lon="5.69974264997934"><ele>231.0</ele><time>2026-04-05T12:23:13.999Z</time></trkpt><trkpt lat="45.149661295940874" lon="5.699625079237465"><ele>231.0</ele><time>2026-04-05T12:23:14.999Z</time></trkpt><trkpt lat="45.14967398607006" lon="5.699521500697762"><ele>231.0</ele><time>2026-04-05T12:23:15.999Z</time></trkpt><trkpt lat="45.14968986288554" lon="5.699405394512291"><ele>231.0</ele><time>2026-04-05T12:23:17Z</time></trkpt><trkpt lat="45.14971998223048" lon="5.699122793544392"><ele>231.25</ele><time>2026-04-05T12:23:19Z</time></trkpt><trkpt lat="45.14974485894138" lon="5.698947847468906"><ele>231.5</ele><time>2026-04-05T12:23:20Z</time></trkpt><trkpt lat="45.149748199798836" lon="5.698753566963332"><ele>231.75</ele><time>2026-04-05T12:23:21Z</time></trkpt><trkpt lat="45.14977038812206" lon="5.698602069596743"><ele>232.0</ele><time>2026-04-05T12:23:22Z</time></trkpt><trkpt lat="45.14978309006714" lon="5.698466262629413"><ele>232.0</ele><time>2026-04-05T12:23:23Z</time></trkpt><trkpt lat="45.14979180206026" lon="5.698342085560776"><ele>232.0</ele><time>2026-04-05T12:23:24Z</time></trkpt><trkpt lat="45.14983910315654" lon="5.698202410871055"><ele>232.0</ele><time>2026-04-05T12:23:25Z</time></trkpt><trkpt lat="45.14987112892501" lon="5.698075784436876"><ele>232.0</ele><time>2026-04-05T12:23:26Z</time></trkpt><trkpt lat="45.14992289463888" lon="5.697962430248162"><ele>232.0</ele><time>2026-04-05T12:23:27Z</time></trkpt><trkpt lat="45.149928279556924" lon="5.697838088446201"><ele>231.75</ele><time>2026-04-05T12:23:28Z</time></trkpt><trkpt lat="45.150117138451506" lon="5.697812697947029"><ele>231.5</ele><time>2026-04-05T12:23:29Z</time></trkpt><trkpt lat="45.150215033487555" lon="5.697750116344523"><ele>231.25</ele><time>2026-04-05T12:23:30Z</time></trkpt><trkpt lat="45.150311489981256" lon="5.6976844037983625"><ele>231.0</ele><time>2026-04-05T12:23:31Z</time></trkpt><trkpt lat="45.150452483362606" lon="5.69772767152763"><ele>230.5</ele><time>2026-04-05T12:23:32Z</time></trkpt><trkpt lat="45.15058541552058" lon="5.69770201974038"><ele>230.0</ele><time>2026-04-05T12:23:33Z</time></trkpt><trkpt lat="45.150726677544164" lon="5.69769926615415"><ele>229.5</ele><time>2026-04-05T12:23:34Z</time></trkpt><trkpt lat="45.15086174675579" lon="5.697684815296681"><ele>229.0</ele><time>2026-04-05T12:23:35Z</time></trkpt><trkpt lat="45.15100453011107" lon="5.697670233933265"><ele>229.0</ele><time>2026-04-05T12:23:36Z</time></trkpt><trkpt lat="45.15114998138801" lon="5.697656621160335"><ele>229.0</ele><time>2026-04-05T12:23:37Z</time></trkpt><trkpt lat="45.15129711865274" lon="5.697645251643762"><ele>229.0</ele><time>2026-04-05T12:23:38Z</time></trkpt><trkpt lat="45.15145797026344" lon="5.697643777052151"><ele>228.66666666666666</ele><time>2026-04-05T12:23:39Z</time></trkpt><trkpt lat="45.15161221547046" lon="5.697642149533792"><ele>228.33333333333331</ele><time>2026-04-05T12:23:40Z</time></trkpt><trkpt lat="45.15176955132587" lon="5.697658885891719"><ele>228.0</ele><time>2026-04-05T12:23:41Z</time></trkpt><trkpt lat="45.1519284142565" lon="5.697689286900754"><ele>228.0</ele><time>2026-04-05T12:23:42Z</time></trkpt><trkpt lat="45.15208681665518" lon="5.697748204693649"><ele>228.0</ele><time>2026-04-05T12:23:43Z</time></trkpt><trkpt lat="45.15227519901203" lon="5.697827519092151"><ele>228.0</ele><time>2026-04-05T12:23:44Z</time></trkpt><trkpt lat="45.152479041920394" lon="5.697924108654533"><ele>229.5</ele><time>2026-04-05T12:23:45Z</time></trkpt><trkpt lat="45.152715094170645" lon="5.698031645612283"><ele>231.0</ele><time>2026-04-05T12:23:46Z</time></trkpt><trkpt lat="45.152970164152855" lon="5.6981407454329815"><ele>230.0</ele><time>2026-04-05T12:23:47Z</time></trkpt><trkpt lat="45.15323353329749" lon="5.698254125979874"><ele>229.0</ele><time>2026-04-05T12:23:48Z</time></trkpt><trkpt lat="45.15349350780487" lon="5.698364876179615"><ele>229.0</ele><time>2026-04-05T12:23:49Z</time></trkpt><trkpt lat="45.15373886447608" lon="5.698472260778109"><ele>229.0</ele><time>2026-04-05T12:23:50Z</time></trkpt><trkpt lat="45.15396889844054" lon="5.698571755455002"><ele>230.0</ele><time>2026-04-05T12:23:51Z</time></trkpt><trkpt lat="45.15419320408754" lon="5.6986734961638605"><ele>231.0</ele><time>2026-04-05T12:23:52Z</time></trkpt><trkpt lat="45.15441479206934" lon="5.698778424175294"><ele>231.0</ele><time>2026-04-05T12:23:53Z</time></trkpt><trkpt lat="45.154633862846964" lon="5.698895767748371"><ele>231.0</ele><time>2026-04-05T12:23:54Z</time></trkpt><trkpt lat="45.15485418556181" lon="5.698992129050028"><ele>228.5</ele><time>2026-04-05T12:23:55Z</time></trkpt><trkpt lat="45.1550822126066" lon="5.699090783372622"><ele>226.0</ele><time>2026-04-05T12:23:56Z</time></trkpt><trkpt lat="45.15532014670912" lon="5.699196942112945"><ele>226.0</ele><time>2026-04-05T12:23:57Z</time></trkpt><trkpt lat="45.15555283576003" lon="5.699301978775797"><ele>226.0</ele><time>2026-04-05T12:23:58Z</time></trkpt><trkpt lat="45.15577636298116" lon="5.699411721355465"><ele>227.5</ele><time>2026-04-05T12:23:59Z</time></trkpt><trkpt lat="45.15599771006626" lon="5.699529131896344"><ele>229.0</ele><time>2026-04-05T12:24:00Z</time></trkpt><trkpt lat="45.1562223524062" lon="5.699647919824827"><ele>229.0</ele><time>2026-04-05T12:24:01Z</time></trkpt><trkpt lat="45.156445322531795" lon="5.699776202201009"><ele>229.0</ele><time>2026-04-05T12:24:02Z</time></trkpt><trkpt lat="45.156660583991275" lon="5.699915349837184"><ele>228.0</ele><time>2026-04-05T12:24:03Z</time></trkpt><trkpt lat="45.15687604278872" lon="5.700058248526722"><ele>227.0</ele><time>2026-04-05T12:24:04Z</time></trkpt><trkpt lat="45.15708338578625" lon="5.70021724747323"><ele>227.5</ele><time>2026-04-05T12:24:05Z</time></trkpt><trkpt lat="45.15728741102571" lon="5.700383562283281"><ele>228.0</ele><time>2026-04-05T12:24:06Z</time></trkpt><trkpt lat="45.1574944212043" lon="5.7005478084154415"><ele>227.0</ele><time>2026-04-05T12:24:07Z</time></trkpt><trkpt lat="45.157686110218854" lon="5.700700004797025"><ele>226.0</ele><time>2026-04-05T12:24:08Z</time></trkpt><trkpt lat="45.15790929000279" lon="5.700850920847697"><ele>226.0</ele><time>2026-04-05T12:24:09Z</time></trkpt><trkpt lat="45.158110244674106" lon="5.701003201764159"><ele>226.0</ele><time>2026-04-05T12:24:10Z</time></trkpt><trkpt lat="45.15832421086375" lon="5.701150866182539"><ele>227.5</ele><time>2026-04-05T12:24:11Z</time></trkpt><trkpt lat="45.15854785093306" lon="5.701275076477949"><ele>229.0</ele><time>2026-04-05T12:24:12Z</time></trkpt><trkpt lat="45.15877321883008" lon="5.7013843519892795"><ele>229.0</ele><time>2026-04-05T12:24:13Z</time></trkpt><trkpt lat="45.15899287146869" lon="5.70147409553918"><ele>229.0</ele><time>2026-04-05T12:24:14Z</time></trkpt><trkpt lat="45.159232445408755" lon="5.701550305201504"><ele>230.0</ele><time>2026-04-05T12:24:15Z</time></trkpt><trkpt lat="45.15946128496571" lon="5.70159606181624"><ele>231.0</ele><time>2026-04-05T12:24:16Z</time></trkpt><trkpt lat="45.159688770696505" lon="5.701627507754344"><ele>227.5</ele><time>2026-04-05T12:24:17Z</time></trkpt><trkpt lat="45.15991578504196" lon="5.701637311147449"><ele>224.0</ele><time>2026-04-05T12:24:18Z</time></trkpt><trkpt lat="45.16014972818423" lon="5.701660533615848"><ele>224.0</ele><time>2026-04-05T12:24:19Z</time></trkpt><trkpt lat="45.16038246818105" lon="5.701656467975156"><ele>224.0</ele><time>2026-04-05T12:24:20Z</time></trkpt><trkpt lat="45.16062212823155" lon="5.701656580584562"><ele>223.5</ele><time>2026-04-05T12:24:21Z</time></trkpt><trkpt lat="45.16085461711519" lon="5.701655644096641"><ele>223.0</ele><time>2026-04-05T12:24:22Z</time></trkpt><trkpt lat="45.161096702364965" lon="5.701654519777439"><ele>223.0</ele><time>2026-04-05T12:24:23Z</time></trkpt><trkpt lat="45.16133383360144" lon="5.701660819843751"><ele>223.0</ele><time>2026-04-05T12:24:24Z</time></trkpt><trkpt lat="45.161570566506455" lon="5.7016658535950215"><ele>224.0</ele><time>2026-04-05T12:24:25Z</time></trkpt><trkpt lat="45.16180220787589" lon="5.701671983234623"><ele>225.0</ele><time>2026-04-05T12:24:26Z</time></trkpt><trkpt lat="45.162041423582096" lon="5.701682876096881"><ele>225.0</ele><time>2026-04-05T12:24:27Z</time></trkpt><trkpt lat="45.16227324699615" lon="5.701692504785025"><ele>225.0</ele><time>2026-04-05T12:24:28.001Z</time></trkpt><trkpt lat="45.16250389677088" lon="5.701688497365145"><ele>225.0</ele><time>2026-04-05T12:24:29.001Z</time></trkpt><trkpt lat="45.162743717079856" lon="5.701709163787601"><ele>225.0</ele><time>2026-04-05T12:24:30.001Z</time></trkpt><trkpt lat="45.16297927914625" lon="5.7017251106587405"><ele>225.5</ele><time>2026-04-05T12:24:31.001Z</time></trkpt><trkpt lat="45.16321552193133" lon="5.7017403970619345"><ele>226.0</ele><time>2026-04-05T12:24:32.001Z</time></trkpt><trkpt lat="45.16345178805982" lon="5.701749647011499"><ele>226.0</ele><time>2026-04-05T12:24:33.001Z</time></trkpt><trkpt lat="45.16369039286058" lon="5.701762801847666"><ele>226.0</ele><time>2026-04-05T12:24:34.001Z</time></trkpt><trkpt lat="45.16392208166081" lon="5.701774848518591"><ele>225.5</ele><time>2026-04-05T12:24:35.001Z</time></trkpt><trkpt lat="45.16413928169716" lon="5.701777358094827"><ele>225.0</ele><time>2026-04-05T12:24:36.001Z</time></trkpt><trkpt lat="45.16437364992653" lon="5.701794885406306"><ele>225.0</ele><time>2026-04-05T12:24:37.001Z</time></trkpt><trkpt lat="45.16460371634934" lon="5.701792834397479"><ele>225.0</ele><time>2026-04-05T12:24:38.001Z</time></trkpt><trkpt lat="45.164834654893404" lon="5.701802014806928"><ele>225.0</ele><time>2026-04-05T12:24:38.998Z</time></trkpt><trkpt lat="45.16506792436379" lon="5.701815906480688"><ele>225.0</ele><time>2026-04-05T12:24:39.998Z</time></trkpt><trkpt lat="45.16529716794051" lon="5.701824048010105"><ele>225.0</ele><time>2026-04-05T12:24:40.998Z</time></trkpt><trkpt lat="45.165531785392055" lon="5.701829911131411"><ele>225.0</ele><time>2026-04-05T12:24:41.998Z</time></trkpt><trkpt lat="45.16577851044863" lon="5.701841440102148"><ele>224.0</ele><time>2026-04-05T12:24:42.998Z</time></trkpt><trkpt lat="45.16600896067057" lon="5.70184874271063"><ele>223.0</ele><time>2026-04-05T12:24:43.998Z</time></trkpt><trkpt lat="45.16623202627488" lon="5.701847786373132"><ele>223.0</ele><time>2026-04-05T12:24:44.998Z</time></trkpt><trkpt lat="45.166468950476826" lon="5.701855578056272"><ele>223.0</ele><time>2026-04-05T12:24:45.998Z</time></trkpt><trkpt lat="45.166697625462334" lon="5.701873212101158"><ele>222.5</ele><time>2026-04-05T12:24:46.998Z</time></trkpt><trkpt lat="45.16693107518773" lon="5.701879891655533"><ele>222.0</ele><time>2026-04-05T12:24:47.998Z</time></trkpt><trkpt lat="45.16716769809771" lon="5.701881442190101"><ele>224.5</ele><time>2026-04-05T12:24:48.998Z</time></trkpt><trkpt lat="45.16740158760304" lon="5.701892181775077"><ele>227.0</ele><time>2026-04-05T12:24:49.998Z</time></trkpt><trkpt lat="45.16763609876011" lon="5.701895402534071"><ele>227.0</ele><time>2026-04-05T12:24:50.998Z</time></trkpt><trkpt lat="45.1678740487598" lon="5.701905291225223"><ele>227.0</ele><time>2026-04-05T12:24:51.998Z</time></trkpt><trkpt lat="45.168114344704435" lon="5.701870802691517"><ele>228.0</ele><time>2026-04-05T12:24:52.999Z</time></trkpt><trkpt lat="45.16834596694181" lon="5.701924284886126"><ele>229.0</ele><time>2026-04-05T12:24:53.999Z</time></trkpt><trkpt lat="45.16858141970316" lon="5.701937867933225"><ele>229.0</ele><time>2026-04-05T12:24:54.999Z</time></trkpt><trkpt lat="45.16881817758764" lon="5.701949775858966"><ele>229.0</ele><time>2026-04-05T12:24:55.999Z</time></trkpt><trkpt lat="45.16906774389118" lon="5.701955858545017"><ele>227.5</ele><time>2026-04-05T12:24:56.999Z</time></trkpt><trkpt lat="45.16930581091676" lon="5.701960542936247"><ele>226.0</ele><time>2026-04-05T12:24:57.999Z</time></trkpt><trkpt lat="45.169546879057215" lon="5.701967908634797"><ele>226.0</ele><time>2026-04-05T12:24:58.999Z</time></trkpt><trkpt lat="45.1697916225627" lon="5.701977795435926"><ele>226.0</ele><time>2026-04-05T12:24:59.999Z</time></trkpt><trkpt lat="45.170039696514934" lon="5.701996223588337"><ele>225.0</ele><time>2026-04-05T12:25:00.999Z</time></trkpt><trkpt lat="45.17028731424865" lon="5.702014054548977"><ele>224.0</ele><time>2026-04-05T12:25:01.999Z</time></trkpt><trkpt lat="45.17053878455655" lon="5.702033279662369"><ele>224.5</ele><time>2026-04-05T12:25:02.999Z</time></trkpt><trkpt lat="45.17079593110825" lon="5.702041373824738"><ele>225.0</ele><time>2026-04-05T12:25:03.999Z</time></trkpt><trkpt lat="45.17104512885098" lon="5.702061746743186"><ele>225.0</ele><time>2026-04-05T12:25:04.999Z</time></trkpt><trkpt lat="45.1712994259877" lon="5.702075366191401"><ele>225.0</ele><time>2026-04-05T12:25:05.999Z</time></trkpt><trkpt lat="45.17155135703536" lon="5.7020819716980675"><ele>224.5</ele><time>2026-04-05T12:25:06.999Z</time></trkpt><trkpt lat="45.17180509949394" lon="5.702087959233703"><ele>224.0</ele><time>2026-04-05T12:25:07.999Z</time></trkpt><trkpt lat="45.17205967851947" lon="5.70210035540261"><ele>224.0</ele><time>2026-04-05T12:25:08.999Z</time></trkpt><trkpt lat="45.17231197268824" lon="5.702111902230752"><ele>224.0</ele><time>2026-04-05T12:25:10Z</time></trkpt><trkpt lat="45.17256114436015" lon="5.702118533938319"><ele>222.5</ele><time>2026-04-05T12:25:11Z</time></trkpt><trkpt lat="45.17281163153305" lon="5.702133442571355"><ele>221.0</ele><time>2026-04-05T12:25:12Z</time></trkpt><trkpt lat="45.17305727943869" lon="5.702142094970106"><ele>221.5</ele><time>2026-04-05T12:25:13Z</time></trkpt><trkpt lat="45.17329984416158" lon="5.70215075001647"><ele>222.0</ele><time>2026-04-05T12:25:14Z</time></trkpt><trkpt lat="45.17353571039083" lon="5.70216697690988"><ele>222.0</ele><time>2026-04-05T12:25:15Z</time></trkpt><trkpt lat="45.17376963141188" lon="5.702170070129539"><ele>222.0</ele><time>2026-04-05T12:25:16Z</time></trkpt><trkpt lat="45.173986249037824" lon="5.702187510532979"><ele>222.0</ele><time>2026-04-05T12:25:17Z</time></trkpt><trkpt lat="45.17419631018903" lon="5.702196560769839"><ele>222.0</ele><time>2026-04-05T12:25:18Z</time></trkpt><trkpt lat="45.174414943877515" lon="5.702213534110693"><ele>222.0</ele><time>2026-04-05T12:25:19Z</time></trkpt><trkpt lat="45.17462696620452" lon="5.702228549055531"><ele>222.0</ele><time>2026-04-05T12:25:20Z</time></trkpt><trkpt lat="45.17483643278811" lon="5.7022351984048525"><ele>222.0</ele><time>2026-04-05T12:25:21Z</time></trkpt><trkpt lat="45.17504900550766" lon="5.702241816948526"><ele>222.0</ele><time>2026-04-05T12:25:22Z</time></trkpt><trkpt lat="45.17526620631481" lon="5.70225435684073"><ele>222.0</ele><time>2026-04-05T12:25:23Z</time></trkpt><trkpt lat="45.17547719834386" lon="5.702272979075416"><ele>222.0</ele><time>2026-04-05T12:25:24Z</time></trkpt><trkpt lat="45.17569795666366" lon="5.70229978786163"><ele>222.0</ele><time>2026-04-05T12:25:25Z</time></trkpt><trkpt lat="45.17591760203876" lon="5.702328687534063"><ele>222.0</ele><time>2026-04-05T12:25:26Z</time></trkpt><trkpt lat="45.17613729894656" lon="5.702360020249619"><ele>222.0</ele><time>2026-04-05T12:25:27Z</time></trkpt><trkpt lat="45.17635472978688" lon="5.70239243468588"><ele>222.0</ele><time>2026-04-05T12:25:28Z</time></trkpt><trkpt lat="45.17657050636211" lon="5.702413852972623"><ele>223.66666666666669</ele><time>2026-04-05T12:25:29Z</time></trkpt><trkpt lat="45.17678485820661" lon="5.702433886107415"><ele>225.33333333333334</ele><time>2026-04-05T12:25:30Z</time></trkpt><trkpt lat="45.17699907438652" lon="5.70245431470929"><ele>227.0</ele><time>2026-04-05T12:25:31Z</time></trkpt><trkpt lat="45.177220589529654" lon="5.702477626197981"><ele>226.0</ele><time>2026-04-05T12:25:32Z</time></trkpt><trkpt lat="45.177435825546944" lon="5.702501950068081"><ele>225.0</ele><time>2026-04-05T12:25:33Z</time></trkpt><trkpt lat="45.17764788676587" lon="5.702521494683091"><ele>224.0</ele><time>2026-04-05T12:25:34Z</time></trkpt><trkpt lat="45.1778659207982" lon="5.7025447567405765"><ele>224.0</ele><time>2026-04-05T12:25:35Z</time></trkpt><trkpt lat="45.178087355195295" lon="5.70256967458142"><ele>224.0</ele><time>2026-04-05T12:25:36Z</time></trkpt><trkpt lat="45.178304320915316" lon="5.702588202541225"><ele>224.0</ele><time>2026-04-05T12:25:37Z</time></trkpt><trkpt lat="45.178519449535855" lon="5.70260580387142"><ele>224.0</ele><time>2026-04-05T12:25:38Z</time></trkpt><trkpt lat="45.17875430219251" lon="5.702623740433304"><ele>224.0</ele><time>2026-04-05T12:25:39Z</time></trkpt><trkpt lat="45.17896020982277" lon="5.702653420290797"><ele>224.0</ele><time>2026-04-05T12:25:40Z</time></trkpt><trkpt lat="45.17918461314093" lon="5.702663091856451"><ele>223.33333333333334</ele><time>2026-04-05T12:25:41Z</time></trkpt><trkpt lat="45.17940689224507" lon="5.702675718948325"><ele>222.66666666666669</ele><time>2026-04-05T12:25:42Z</time></trkpt><trkpt lat="45.17962956520321" lon="5.702693258637892"><ele>222.0</ele><time>2026-04-05T12:25:43Z</time></trkpt><trkpt lat="45.17986571752214" lon="5.702698469694133"><ele>221.66666666666669</ele><time>2026-04-05T12:25:44Z</time></trkpt><trkpt lat="45.18008118775512" lon="5.702705524555284"><ele>221.33333333333334</ele><time>2026-04-05T12:25:45Z</time></trkpt><trkpt lat="45.18027637996692" lon="5.7027174585937495"><ele>221.0</ele><time>2026-04-05T12:25:46.001Z</time></trkpt><trkpt lat="45.18049861042374" lon="5.702686621840323"><ele>220.0</ele><time>2026-04-05T12:25:47.001Z</time></trkpt><trkpt lat="45.180728640280314" lon="5.702695575385431"><ele>219.0</ele><time>2026-04-05T12:25:48.001Z</time></trkpt><trkpt lat="45.18097918883582" lon="5.702707341958845"><ele>219.0</ele><time>2026-04-05T12:25:49.001Z</time></trkpt><trkpt lat="45.181183021302516" lon="5.702695857990358"><ele>219.0</ele><time>2026-04-05T12:25:50.001Z</time></trkpt><trkpt lat="45.181407687100354" lon="5.702686117360672"><ele>219.0</ele><time>2026-04-05T12:25:51.001Z</time></trkpt><trkpt lat="45.18162602600949" lon="5.702676980216761"><ele>218.0</ele><time>2026-04-05T12:25:52.001Z</time></trkpt><trkpt lat="45.18186089145651" lon="5.70267160817849"><ele>217.0</ele><time>2026-04-05T12:25:53.001Z</time></trkpt><trkpt lat="45.182095571636296" lon="5.702660178560406"><ele>217.0</ele><time>2026-04-05T12:25:54.001Z</time></trkpt><trkpt lat="45.18232580168034" lon="5.702648158220282"><ele>217.0</ele><time>2026-04-05T12:25:55.001Z</time></trkpt><trkpt lat="45.18256261441304" lon="5.702640418553147"><ele>219.5</ele><time>2026-04-05T12:25:56.001Z</time></trkpt><trkpt lat="45.18279792383814" lon="5.70262043441306"><ele>222.0</ele><time>2026-04-05T12:25:57.001Z</time></trkpt><trkpt lat="45.18303969850822" lon="5.702632191660505"><ele>221.0</ele><time>2026-04-05T12:25:58.001Z</time></trkpt><trkpt lat="45.183278468152565" lon="5.702634884225929"><ele>220.0</ele><time>2026-04-05T12:25:59.001Z</time></trkpt><trkpt lat="45.18352280186047" lon="5.7026382692691255"><ele>220.0</ele><time>2026-04-05T12:26:00.001Z</time></trkpt><trkpt lat="45.183758698237654" lon="5.702639657882877"><ele>220.0</ele><time>2026-04-05T12:26:01.001Z</time></trkpt><trkpt lat="45.18398409534566" lon="5.702648406972923"><ele>218.0</ele><time>2026-04-05T12:26:02.001Z</time></trkpt><trkpt lat="45.18421369223272" lon="5.702654638705071"><ele>216.0</ele><time>2026-04-05T12:26:03.001Z</time></trkpt><trkpt lat="45.18443620203085" lon="5.702658027073437"><ele>216.0</ele><time>2026-04-05T12:26:04.001Z</time></trkpt><trkpt lat="45.18465630228948" lon="5.702665807805698"><ele>216.0</ele><time>2026-04-05T12:26:05.001Z</time></trkpt><trkpt lat="45.184871750123186" lon="5.702673520512354"><ele>216.0</ele><time>2026-04-05T12:26:06.001Z</time></trkpt><trkpt lat="45.185089281661234" lon="5.70268340192861"><ele>216.33333333333331</ele><time>2026-04-05T12:26:07.001Z</time></trkpt><trkpt lat="45.18530662472216" lon="5.702698187709088"><ele>216.66666666666666</ele><time>2026-04-05T12:26:08.001Z</time></trkpt><trkpt lat="45.185522461684776" lon="5.702711055795568"><ele>217.0</ele><time>2026-04-05T12:26:09.001Z</time></trkpt><trkpt lat="45.18574755449797" lon="5.7026610348195845"><ele>218.33333333333331</ele><time>2026-04-05T12:26:10.001Z</time></trkpt><trkpt lat="45.185962347171575" lon="5.702680362165806"><ele>219.66666666666669</ele><time>2026-04-05T12:26:11.001Z</time></trkpt><trkpt lat="45.18618404371001" lon="5.702694486050853"><ele>221.0</ele><time>2026-04-05T12:26:12.001Z</time></trkpt><trkpt lat="45.186408981252995" lon="5.70270406899766"><ele>221.33333333333334</ele><time>2026-04-05T12:26:13.001Z</time></trkpt><trkpt lat="45.18662733292379" lon="5.702706594671783"><ele>221.66666666666669</ele><time>2026-04-05T12:26:14.001Z</time></trkpt><trkpt lat="45.18684702912925" lon="5.70271866662701"><ele>222.0</ele><time>2026-04-05T12:26:15.001Z</time></trkpt><trkpt lat="45.1870630722465" lon="5.702722491405567"><ele>222.0</ele><time>2026-04-05T12:26:16.001Z</time></trkpt><trkpt lat="45.187279518794455" lon="5.702738246438597"><ele>222.0</ele><time>2026-04-05T12:26:17.001Z</time></trkpt><trkpt lat="45.18749717240499" lon="5.702747654585519"><ele>222.0</ele><time>2026-04-05T12:26:18.001Z</time></trkpt><trkpt lat="45.18772104026014" lon="5.702752929351533"><ele>220.66666666666669</ele><time>2026-04-05T12:26:19.001Z</time></trkpt><trkpt lat="45.187939753200645" lon="5.702756262091679"><ele>219.33333333333334</ele><time>2026-04-05T12:26:20.001Z</time></trkpt><trkpt lat="45.18816426944368" lon="5.70276277608811"><ele>218.0</ele><time>2026-04-05T12:26:21.001Z</time></trkpt><trkpt lat="45.18839178192149" lon="5.702777301350527"><ele>217.0</ele><time>2026-04-05T12:26:22.001Z</time></trkpt><trkpt lat="45.18861853530266" lon="5.702775180104508"><ele>216.0</ele><time>2026-04-05T12:26:23.001Z</time></trkpt><trkpt lat="45.188842937516625" lon="5.702783839862618"><ele>215.5</ele><time>2026-04-05T12:26:24.001Z</time></trkpt><trkpt lat="45.18907565696408" lon="5.702795605537865"><ele>215.0</ele><time>2026-04-05T12:26:25.001Z</time></trkpt><trkpt lat="45.189293686080426" lon="5.702806252083762"><ele>215.0</ele><time>2026-04-05T12:26:26.001Z</time></trkpt><trkpt lat="45.18953213246433" lon="5.7027948340356405"><ele>215.0</ele><time>2026-04-05T12:26:27.001Z</time></trkpt><trkpt lat="45.189764450147905" lon="5.70283494875658"><ele>215.5</ele><time>2026-04-05T12:26:28.001Z</time></trkpt><trkpt lat="45.18999829416121" lon="5.702848860789731"><ele>216.0</ele><time>2026-04-05T12:26:29.001Z</time></trkpt><trkpt lat="45.19021368284622" lon="5.702862657661093"><ele>216.0</ele><time>2026-04-05T12:26:30.001Z</time></trkpt><trkpt lat="45.19044572399002" lon="5.702873301325589"><ele>216.0</ele><time>2026-04-05T12:26:31.001Z</time></trkpt><trkpt lat="45.19066885149036" lon="5.702896787968567"><ele>216.0</ele><time>2026-04-05T12:26:32.001Z</time></trkpt><trkpt lat="45.190899655789956" lon="5.702920198419832"><ele>216.0</ele><time>2026-04-05T12:26:33.001Z</time></trkpt><trkpt lat="45.191126426394185" lon="5.7029355486242785"><ele>216.0</ele><time>2026-04-05T12:26:34.001Z</time></trkpt><trkpt lat="45.19135329989732" lon="5.70294964880055"><ele>216.0</ele><time>2026-04-05T12:26:35.002Z</time></trkpt><trkpt lat="45.19157968727302" lon="5.7029607978751145"><ele>216.0</ele><time>2026-04-05T12:26:36.002Z</time></trkpt><trkpt lat="45.19180612748069" lon="5.702972001122263"><ele>216.0</ele><time>2026-04-05T12:26:37.002Z</time></trkpt><trkpt lat="45.19203600711653" lon="5.702989476323437"><ele>216.0</ele><time>2026-04-05T12:26:38.002Z</time></trkpt><trkpt lat="45.19226348727667" lon="5.7030031674555035"><ele>216.0</ele><time>2026-04-05T12:26:39.002Z</time></trkpt><trkpt lat="45.19248939263816" lon="5.703014015852455"><ele>215.66666666666669</ele><time>2026-04-05T12:26:40.002Z</time></trkpt><trkpt lat="45.19271781173208" lon="5.703020133530637"><ele>215.33333333333334</ele><time>2026-04-05T12:26:41.002Z</time></trkpt><trkpt lat="45.19292864108272" lon="5.703014057417869"><ele>215.0</ele><time>2026-04-05T12:26:42.002Z</time></trkpt><trkpt lat="45.19315645948591" lon="5.703017324911294"><ele>215.33333333333334</ele><time>2026-04-05T12:26:43.002Z</time></trkpt><trkpt lat="45.19337542674761" lon="5.703007685472442"><ele>215.66666666666669</ele><time>2026-04-05T12:26:44.002Z</time></trkpt><trkpt lat="45.193595360421035" lon="5.703000843023149"><ele>216.0</ele><time>2026-04-05T12:26:44.999Z</time></trkpt><trkpt lat="45.19381784179837" lon="5.702989440762779"><ele>215.66666666666669</ele><time>2026-04-05T12:26:45.999Z</time></trkpt><trkpt lat="45.19403412761919" lon="5.7029704279659486"><ele>215.33333333333334</ele><time>2026-04-05T12:26:46.999Z</time></trkpt><trkpt lat="45.19425190445459" lon="5.702944984258935"><ele>215.0</ele><time>2026-04-05T12:26:47.999Z</time></trkpt><trkpt lat="45.19447251320059" lon="5.702918570618482"><ele>215.0</ele><time>2026-04-05T12:26:48.999Z</time></trkpt><trkpt lat="45.194695032872346" lon="5.7028807190214765"><ele>215.0</ele><time>2026-04-05T12:26:49.999Z</time></trkpt><trkpt lat="45.19491675798806" lon="5.70282312502499"><ele>214.0</ele><time>2026-04-05T12:26:50.999Z</time></trkpt><trkpt lat="45.195137298195434" lon="5.702770731792217"><ele>213.0</ele><time>2026-04-05T12:26:51.999Z</time></trkpt><trkpt lat="45.19536153605996" lon="5.702704189062573"><ele>216.0</ele><time>2026-04-05T12:26:52.999Z</time></trkpt><trkpt lat="45.195812262423495" lon="5.702527512150199"><ele>216.0</ele><time>2026-04-05T12:26:54.999Z</time></trkpt><trkpt lat="45.196042834390994" lon="5.702405908972768"><ele>216.0</ele><time>2026-04-05T12:26:55.999Z</time></trkpt><trkpt lat="45.19627495112893" lon="5.702279424193609"><ele>216.0</ele><time>2026-04-05T12:26:56.999Z</time></trkpt><trkpt lat="45.196503458845065" lon="5.7021393466188615"><ele>216.0</ele><time>2026-04-05T12:26:57.999Z</time></trkpt><trkpt lat="45.1967276857492" lon="5.701991056949002"><ele>215.0</ele><time>2026-04-05T12:26:58.999Z</time></trkpt><trkpt lat="45.19694436556102" lon="5.701831635754006"><ele>214.0</ele><time>2026-04-05T12:26:59.999Z</time></trkpt><trkpt lat="45.19715601756132" lon="5.701657911367958"><ele>215.0</ele><time>2026-04-05T12:27:00.999Z</time></trkpt><trkpt lat="45.197365485099084" lon="5.701474034540046"><ele>216.0</ele><time>2026-04-05T12:27:02Z</time></trkpt><trkpt lat="45.197561113954634" lon="5.701287875708718"><ele>215.5</ele><time>2026-04-05T12:27:03Z</time></trkpt><trkpt lat="45.19777632770881" lon="5.701055216017276"><ele>215.0</ele><time>2026-04-05T12:27:04Z</time></trkpt><trkpt lat="45.1979696688659" lon="5.700815189987861"><ele>215.0</ele><time>2026-04-05T12:27:05Z</time></trkpt><trkpt lat="45.19815523399463" lon="5.700567517592046"><ele>215.0</ele><time>2026-04-05T12:27:06Z</time></trkpt><trkpt lat="45.198336951813644" lon="5.700317612016886"><ele>213.5</ele><time>2026-04-05T12:27:07Z</time></trkpt><trkpt lat="45.198516996919466" lon="5.700067768321694"><ele>212.0</ele><time>2026-04-05T12:27:08Z</time></trkpt><trkpt lat="45.19869578118044" lon="5.699810907412718"><ele>212.0</ele><time>2026-04-05T12:27:09Z</time></trkpt><trkpt lat="45.198875332759854" lon="5.699554627985324"><ele>212.0</ele><time>2026-04-05T12:27:10Z</time></trkpt><trkpt lat="45.19906740102222" lon="5.6993000824126625"><ele>214.0</ele><time>2026-04-05T12:27:11Z</time></trkpt><trkpt lat="45.19924317534655" lon="5.699040305841857"><ele>216.0</ele><time>2026-04-05T12:27:12Z</time></trkpt><trkpt lat="45.19941315048801" lon="5.698785008456286"><ele>216.0</ele><time>2026-04-05T12:27:13Z</time></trkpt><trkpt lat="45.19958961200723" lon="5.698530979524051"><ele>216.0</ele><time>2026-04-05T12:27:14Z</time></trkpt><trkpt lat="45.199765687103536" lon="5.698276196090535"><ele>215.0</ele><time>2026-04-05T12:27:15Z</time></trkpt><trkpt lat="45.199939371854484" lon="5.698033074832798"><ele>214.0</ele><time>2026-04-05T12:27:16Z</time></trkpt><trkpt lat="45.20011350801182" lon="5.697785600524162"><ele>211.0</ele><time>2026-04-05T12:27:17Z</time></trkpt><trkpt lat="45.20028766204724" lon="5.69753213559282"><ele>208.0</ele><time>2026-04-05T12:27:18Z</time></trkpt><trkpt lat="45.20045772202785" lon="5.697271522580275"><ele>208.0</ele><time>2026-04-05T12:27:19Z</time></trkpt><trkpt lat="45.20064202667414" lon="5.697026801080862"><ele>208.0</ele><time>2026-04-05T12:27:20Z</time></trkpt><trkpt lat="45.200821872441175" lon="5.696773570900682"><ele>209.5</ele><time>2026-04-05T12:27:21Z</time></trkpt><trkpt lat="45.20100720107008" lon="5.696521194527789"><ele>211.0</ele><time>2026-04-05T12:27:22Z</time></trkpt><trkpt lat="45.20119281781341" lon="5.6962732745202445"><ele>211.0</ele><time>2026-04-05T12:27:23Z</time></trkpt><trkpt lat="45.20137751047405" lon="5.696025998492884"><ele>211.0</ele><time>2026-04-05T12:27:24Z</time></trkpt><trkpt lat="45.20155152486588" lon="5.695777265836477"><ele>211.0</ele><time>2026-04-05T12:27:25Z</time></trkpt><trkpt lat="45.20172830096634" lon="5.695528083435997"><ele>211.0</ele><time>2026-04-05T12:27:26Z</time></trkpt><trkpt lat="45.20190372769637" lon="5.695281712405765"><ele>212.0</ele><time>2026-04-05T12:27:27Z</time></trkpt><trkpt lat="45.20207976438854" lon="5.69503367939721"><ele>213.0</ele><time>2026-04-05T12:27:28Z</time></trkpt><trkpt lat="45.20225582991643" lon="5.694785405069224"><ele>212.0</ele><time>2026-04-05T12:27:29Z</time></trkpt><trkpt lat="45.202430864699295" lon="5.694531881389343"><ele>211.0</ele><time>2026-04-05T12:27:30Z</time></trkpt><trkpt lat="45.20260821565456" lon="5.694274713368206"><ele>210.5</ele><time>2026-04-05T12:27:31Z</time></trkpt><trkpt lat="45.20278575034036" lon="5.694014447015144"><ele>210.0</ele><time>2026-04-05T12:27:32Z</time></trkpt><trkpt lat="45.20295190221613" lon="5.69378976412156"><ele>210.5</ele><time>2026-04-05T12:27:33Z</time></trkpt><trkpt lat="45.20312558823893" lon="5.693502145369264"><ele>211.0</ele><time>2026-04-05T12:27:34Z</time></trkpt><trkpt lat="45.20331682700494" lon="5.693239177656705"><ele>212.5</ele><time>2026-04-05T12:27:35Z</time></trkpt><trkpt lat="45.203495508806384" lon="5.6929817942974825"><ele>214.0</ele><time>2026-04-05T12:27:36.001Z</time></trkpt><trkpt lat="45.203669835008604" lon="5.692731346646877"><ele>214.5</ele><time>2026-04-05T12:27:37.001Z</time></trkpt><trkpt lat="45.20384313490878" lon="5.692478736741325"><ele>215.0</ele><time>2026-04-05T12:27:38.001Z</time></trkpt><trkpt lat="45.20401580230627" lon="5.692233067925131"><ele>213.5</ele><time>2026-04-05T12:27:39.001Z</time></trkpt><trkpt lat="45.20418926407776" lon="5.691987585842906"><ele>212.0</ele><time>2026-04-05T12:27:40.001Z</time></trkpt><trkpt lat="45.204361555355895" lon="5.691741839569969"><ele>211.5</ele><time>2026-04-05T12:27:41.001Z</time></trkpt><trkpt lat="45.204536451007826" lon="5.691497240788866"><ele>211.0</ele><time>2026-04-05T12:27:42.001Z</time></trkpt><trkpt lat="45.20470043969868" lon="5.6912536436929155"><ele>211.0</ele><time>2026-04-05T12:27:43.001Z</time></trkpt><trkpt lat="45.20486646622324" lon="5.691014237244038"><ele>211.0</ele><time>2026-04-05T12:27:44.001Z</time></trkpt><trkpt lat="45.20501879610274" lon="5.690772426845364"><ele>211.0</ele><time>2026-04-05T12:27:45.001Z</time></trkpt><trkpt lat="45.20517645712772" lon="5.6905431714890815"><ele>211.0</ele><time>2026-04-05T12:27:46.001Z</time></trkpt><trkpt lat="45.20534041149633" lon="5.69031598047491"><ele>213.0</ele><time>2026-04-05T12:27:47.001Z</time></trkpt><trkpt lat="45.205501935354526" lon="5.690085467961531"><ele>215.0</ele><time>2026-04-05T12:27:48.001Z</time></trkpt><trkpt lat="45.20566194785645" lon="5.689856431409532"><ele>212.0</ele><time>2026-04-05T12:27:49.001Z</time></trkpt><trkpt lat="45.205825244428496" lon="5.689634410072322"><ele>209.0</ele><time>2026-04-05T12:27:50.001Z</time></trkpt><trkpt lat="45.20599062477081" lon="5.689414600481432"><ele>209.0</ele><time>2026-04-05T12:27:51.001Z</time></trkpt><trkpt lat="45.20615560397728" lon="5.6891930837233575"><ele>209.0</ele><time>2026-04-05T12:27:52.001Z</time></trkpt><trkpt lat="45.206323424130545" lon="5.68897106166802"><ele>207.5</ele><time>2026-04-05T12:27:53.001Z</time></trkpt><trkpt lat="45.206496364832454" lon="5.688756749252332"><ele>206.0</ele><time>2026-04-05T12:27:54.001Z</time></trkpt><trkpt lat="45.20667410892357" lon="5.6885418186848105"><ele>205.5</ele><time>2026-04-05T12:27:55.001Z</time></trkpt><trkpt lat="45.20685876793704" lon="5.688335166423649"><ele>205.0</ele><time>2026-04-05T12:27:56.001Z</time></trkpt><trkpt lat="45.20704287704168" lon="5.688116593495947"><ele>205.0</ele><time>2026-04-05T12:27:57.001Z</time></trkpt><trkpt lat="45.20722816388984" lon="5.687920469142924"><ele>205.0</ele><time>2026-04-05T12:27:58.001Z</time></trkpt><trkpt lat="45.207427057683965" lon="5.6877366328652395"><ele>209.5</ele><time>2026-04-05T12:27:59.001Z</time></trkpt><trkpt lat="45.207629709507785" lon="5.687552082209434"><ele>214.0</ele><time>2026-04-05T12:28:00.001Z</time></trkpt><trkpt lat="45.20784037820859" lon="5.687374212564408"><ele>214.0</ele><time>2026-04-05T12:28:01.001Z</time></trkpt><trkpt lat="45.20805201834234" lon="5.687187686160122"><ele>214.0</ele><time>2026-04-05T12:28:02.001Z</time></trkpt><trkpt lat="45.208269923889766" lon="5.687020766580285"><ele>209.5</ele><time>2026-04-05T12:28:03.001Z</time></trkpt><trkpt lat="45.20848689491108" lon="5.686862475372418"><ele>205.0</ele><time>2026-04-05T12:28:04.001Z</time></trkpt><trkpt lat="45.2087103774855" lon="5.686714021501469"><ele>205.0</ele><time>2026-04-05T12:28:05.001Z</time></trkpt><trkpt lat="45.20893511166382" lon="5.686575457402701"><ele>205.0</ele><time>2026-04-05T12:28:06.001Z</time></trkpt><trkpt lat="45.20916248438632" lon="5.686446201543987"><ele>207.0</ele><time>2026-04-05T12:28:07.001Z</time></trkpt><trkpt lat="45.209391419043435" lon="5.686326010478846"><ele>209.0</ele><time>2026-04-05T12:28:08.001Z</time></trkpt><trkpt lat="45.209621726146516" lon="5.6862137532491825"><ele>209.5</ele><time>2026-04-05T12:28:09.001Z</time></trkpt><trkpt lat="45.20985405192795" lon="5.686102093858887"><ele>210.0</ele><time>2026-04-05T12:28:10.001Z</time></trkpt><trkpt lat="45.21008352796642" lon="5.685988133288697"><ele>210.0</ele><time>2026-04-05T12:28:11.001Z</time></trkpt><trkpt lat="45.21031391998692" lon="5.685873314742677"><ele>210.0</ele><time>2026-04-05T12:28:12.001Z</time></trkpt><trkpt lat="45.21054319707406" lon="5.685758882577832"><ele>209.5</ele><time>2026-04-05T12:28:13.001Z</time></trkpt><trkpt lat="45.210775832616456" lon="5.685650157318258"><ele>209.0</ele><time>2026-04-05T12:28:14.001Z</time></trkpt><trkpt lat="45.2110110100788" lon="5.685540244537416"><ele>209.0</ele><time>2026-04-05T12:28:15.001Z</time></trkpt><trkpt lat="45.21124574211542" lon="5.685432437499398"><ele>209.0</ele><time>2026-04-05T12:28:16.001Z</time></trkpt><trkpt lat="45.21147893981855" lon="5.685318894463028"><ele>210.5</ele><time>2026-04-05T12:28:17.001Z</time></trkpt><trkpt lat="45.21171412195729" lon="5.685208715791811"><ele>212.0</ele><time>2026-04-05T12:28:18.001Z</time></trkpt><trkpt lat="45.21195055839269" lon="5.68509312542571"><ele>212.0</ele><time>2026-04-05T12:28:19.002Z</time></trkpt><trkpt lat="45.21217792039789" lon="5.684961110002177"><ele>212.0</ele><time>2026-04-05T12:28:20.002Z</time></trkpt><trkpt lat="45.21240978742377" lon="5.684829190422426"><ele>210.0</ele><time>2026-04-05T12:28:21.002Z</time></trkpt><trkpt lat="45.212638914985796" lon="5.684689021760375"><ele>208.0</ele><time>2026-04-05T12:28:22.002Z</time></trkpt><trkpt lat="45.212864708456124" lon="5.684538828617525"><ele>207.5</ele><time>2026-04-05T12:28:23.002Z</time></trkpt><trkpt lat="45.21308172354612" lon="5.684369791064908"><ele>207.0</ele><time>2026-04-05T12:28:24.002Z</time></trkpt><trkpt lat="45.21329429921156" lon="5.684186151284689"><ele>209.5</ele><time>2026-04-05T12:28:25.002Z</time></trkpt><trkpt lat="45.21348697518929" lon="5.6839948221492245"><ele>212.0</ele><time>2026-04-05T12:28:26.002Z</time></trkpt><trkpt lat="45.213679309407084" lon="5.683800402240864"><ele>212.0</ele><time>2026-04-05T12:28:27.002Z</time></trkpt><trkpt lat="45.213865034983186" lon="5.683598641364172"><ele>212.0</ele><time>2026-04-05T12:28:28.002Z</time></trkpt><trkpt lat="45.21405650879694" lon="5.683362863222304"><ele>210.0</ele><time>2026-04-05T12:28:29.002Z</time></trkpt><trkpt lat="45.21423105550673" lon="5.683145784551095"><ele>208.0</ele><time>2026-04-05T12:28:30.002Z</time></trkpt><trkpt lat="45.21440070325487" lon="5.682906453985581"><ele>208.5</ele><time>2026-04-05T12:28:31.002Z</time></trkpt><trkpt lat="45.21456260829961" lon="5.682656792790076"><ele>209.0</ele><time>2026-04-05T12:28:32.002Z</time></trkpt><trkpt lat="45.21471191085471" lon="5.682393135958289"><ele>209.0</ele><time>2026-04-05T12:28:33.002Z</time></trkpt><trkpt lat="45.2148609570675" lon="5.682130342835836"><ele>209.0</ele><time>2026-04-05T12:28:34.002Z</time></trkpt><trkpt lat="45.21500908253068" lon="5.681864301134682"><ele>209.0</ele><time>2026-04-05T12:28:35.002Z</time></trkpt><trkpt lat="45.21515712244079" lon="5.681592352698706"><ele>209.0</ele><time>2026-04-05T12:28:36.002Z</time></trkpt><trkpt lat="45.21528539278308" lon="5.681335264556589"><ele>208.0</ele><time>2026-04-05T12:28:37.002Z</time></trkpt><trkpt lat="45.21543181906988" lon="5.681040297112778"><ele>207.0</ele><time>2026-04-05T12:28:38.002Z</time></trkpt><trkpt lat="45.21557178853007" lon="5.680755994055916"><ele>207.5</ele><time>2026-04-05T12:28:39.002Z</time></trkpt><trkpt lat="45.21571073390382" lon="5.680463901361765"><ele>208.0</ele><time>2026-04-05T12:28:40.002Z</time></trkpt><trkpt lat="45.21585203701546" lon="5.680171594440278"><ele>208.5</ele><time>2026-04-05T12:28:41.002Z</time></trkpt><trkpt lat="45.216000191092014" lon="5.679884120313106"><ele>209.0</ele><time>2026-04-05T12:28:42.002Z</time></trkpt><trkpt lat="45.21615147010629" lon="5.679592505794303"><ele>208.5</ele><time>2026-04-05T12:28:43.002Z</time></trkpt><trkpt lat="45.21628879249521" lon="5.679298664540119"><ele>208.0</ele><time>2026-04-05T12:28:44.002Z</time></trkpt><trkpt lat="45.21643671780902" lon="5.679005317575108"><ele>206.0</ele><time>2026-04-05T12:28:45.002Z</time></trkpt><trkpt lat="45.21658451790044" lon="5.678706612416935"><ele>204.0</ele><time>2026-04-05T12:28:46.002Z</time></trkpt><trkpt lat="45.21673441184301" lon="5.678407455040813"><ele>203.0</ele><time>2026-04-05T12:28:47.002Z</time></trkpt><trkpt lat="45.21688920118453" lon="5.678109976840323"><ele>202.0</ele><time>2026-04-05T12:28:48.002Z</time></trkpt><trkpt lat="45.21703973206704" lon="5.677811175958574"><ele>203.5</ele><time>2026-04-05T12:28:49.002Z</time></trkpt><trkpt lat="45.21719572580672" lon="5.677518445374603"><ele>205.0</ele><time>2026-04-05T12:28:50.002Z</time></trkpt><trkpt lat="45.222457044825994" lon="5.6716742659000925"><ele>205.5</ele><time>2026-04-05T12:29:15Z</time></trkpt><trkpt lat="45.222697939842476" lon="5.67149451698209"><ele>206.0</ele><time>2026-04-05T12:29:16Z</time></trkpt><trkpt lat="45.22293696153643" lon="5.671317386240119"><ele>205.5</ele><time>2026-04-05T12:29:17Z</time></trkpt><trkpt lat="45.223176171061034" lon="5.671136327579883"><ele>205.0</ele><time>2026-04-05T12:29:18Z</time></trkpt><trkpt lat="45.223413793679725" lon="5.670956175248853"><ele>204.5</ele><time>2026-04-05T12:29:19Z</time></trkpt><trkpt lat="45.22365008010991" lon="5.670777995719761"><ele>204.0</ele><time>2026-04-05T12:29:20Z</time></trkpt><trkpt lat="45.22388795039395" lon="5.670603545169307"><ele>205.5</ele><time>2026-04-05T12:29:21Z</time></trkpt><trkpt lat="45.22412835000949" lon="5.670432786251263"><ele>207.0</ele><time>2026-04-05T12:29:22Z</time></trkpt><trkpt lat="45.22436260682157" lon="5.670260114013544"><ele>207.0</ele><time>2026-04-05T12:29:23Z</time></trkpt><trkpt lat="45.2245864009164" lon="5.670084036949097"><ele>207.0</ele><time>2026-04-05T12:29:24Z</time></trkpt><trkpt lat="45.22481136362078" lon="5.669907348386486"><ele>205.0</ele><time>2026-04-05T12:29:25.001Z</time></trkpt><trkpt lat="45.225037171842935" lon="5.669729050018777"><ele>203.0</ele><time>2026-04-05T12:29:26.001Z</time></trkpt><trkpt lat="45.225267462359696" lon="5.669556085061151"><ele>203.0</ele><time>2026-04-05T12:29:27.001Z</time></trkpt><trkpt lat="45.225500307907105" lon="5.669386984900199"><ele>203.0</ele><time>2026-04-05T12:29:28.001Z</time></trkpt><trkpt lat="45.22572797461691" lon="5.669213524468711"><ele>203.5</ele><time>2026-04-05T12:29:29.001Z</time></trkpt><trkpt lat="45.225962175198156" lon="5.669042352542398"><ele>204.0</ele><time>2026-04-05T12:29:30.001Z</time></trkpt><trkpt lat="45.2264274409024" lon="5.668696387012328"><ele>202.5</ele><time>2026-04-05T12:29:32.001Z</time></trkpt><trkpt lat="45.226662094373054" lon="5.6685221002013915"><ele>201.0</ele><time>2026-04-05T12:29:33.001Z</time></trkpt><trkpt lat="45.226893692265065" lon="5.668346337047275"><ele>201.0</ele><time>2026-04-05T12:29:34.001Z</time></trkpt><trkpt lat="45.22712748624454" lon="5.668169676000572"><ele>201.0</ele><time>2026-04-05T12:29:35.001Z</time></trkpt><trkpt lat="45.227360882985245" lon="5.667991884652322"><ele>203.0</ele><time>2026-04-05T12:29:36.001Z</time></trkpt><trkpt lat="45.227594445233294" lon="5.667815579987219"><ele>205.0</ele><time>2026-04-05T12:29:37.001Z</time></trkpt><trkpt lat="45.22782381226612" lon="5.667642007105515"><ele>205.0</ele><time>2026-04-05T12:29:38.001Z</time></trkpt><trkpt lat="45.2280515850878" lon="5.667472832706919"><ele>205.0</ele><time>2026-04-05T12:29:39.001Z</time></trkpt><trkpt lat="45.22827534110686" lon="5.667295638394167"><ele>206.0</ele><time>2026-04-05T12:29:40.001Z</time></trkpt><trkpt lat="45.228504573208006" lon="5.667123587892729"><ele>207.0</ele><time>2026-04-05T12:29:41.001Z</time></trkpt><trkpt lat="45.22873837425903" lon="5.666964705495797"><ele>205.5</ele><time>2026-04-05T12:29:42.001Z</time></trkpt><trkpt lat="45.22897360424898" lon="5.666799881890107"><ele>204.0</ele><time>2026-04-05T12:29:43.001Z</time></trkpt><trkpt lat="45.22921115583854" lon="5.6666368533611715"><ele>203.0</ele><time>2026-04-05T12:29:44.001Z</time></trkpt><trkpt lat="45.22944975836421" lon="5.666471380184777"><ele>202.0</ele><time>2026-04-05T12:29:45.001Z</time></trkpt><trkpt lat="45.229687172139" lon="5.666305110337421"><ele>202.5</ele><time>2026-04-05T12:29:46.001Z</time></trkpt><trkpt lat="45.22992579628211" lon="5.666139524360959"><ele>203.0</ele><time>2026-04-05T12:29:47.001Z</time></trkpt><trkpt lat="45.23016186829192" lon="5.665974414496754"><ele>203.0</ele><time>2026-04-05T12:29:48.001Z</time></trkpt><trkpt lat="45.23040158048943" lon="5.665812293566239"><ele>203.0</ele><time>2026-04-05T12:29:49.001Z</time></trkpt><trkpt lat="45.230640485087555" lon="5.665658539404809"><ele>204.5</ele><time>2026-04-05T12:29:50.001Z</time></trkpt><trkpt lat="45.23087677514555" lon="5.665507466683086"><ele>206.0</ele><time>2026-04-05T12:29:51.001Z</time></trkpt><trkpt lat="45.231345373804984" lon="5.665204005951885"><ele>204.5</ele><time>2026-04-05T12:29:53.001Z</time></trkpt><trkpt lat="45.23157800130205" lon="5.665054651551697"><ele>203.0</ele><time>2026-04-05T12:29:54.001Z</time></trkpt><trkpt lat="45.231820657611195" lon="5.66492269038162"><ele>203.0</ele><time>2026-04-05T12:29:55.001Z</time></trkpt><trkpt lat="45.232060782294226" lon="5.664784874506344"><ele>203.0</ele><time>2026-04-05T12:29:56.001Z</time></trkpt><trkpt lat="45.23230330683155" lon="5.66464610352319"><ele>202.0</ele><time>2026-04-05T12:29:57.001Z</time></trkpt><trkpt lat="45.232542341544914" lon="5.664507886891714"><ele>201.0</ele><time>2026-04-05T12:29:58.001Z</time></trkpt><trkpt lat="45.232781616391435" lon="5.664373501295335"><ele>201.0</ele><time>2026-04-05T12:29:59.001Z</time></trkpt><trkpt lat="45.23301736979189" lon="5.664233035644958"><ele>201.0</ele><time>2026-04-05T12:30:00.001Z</time></trkpt><trkpt lat="45.23325169878239" lon="5.664095935942659"><ele>202.0</ele><time>2026-04-05T12:30:01.001Z</time></trkpt><trkpt lat="45.23349209445892" lon="5.6639672938667855"><ele>203.0</ele><time>2026-04-05T12:30:02.001Z</time></trkpt><trkpt lat="45.233734229497884" lon="5.663837516464568"><ele>201.5</ele><time>2026-04-05T12:30:03.001Z</time></trkpt><trkpt lat="45.233980290800496" lon="5.663715083096366"><ele>200.0</ele><time>2026-04-05T12:30:04.001Z</time></trkpt><trkpt lat="45.23422640769811" lon="5.663593088838653"><ele>200.0</ele><time>2026-04-05T12:30:05.001Z</time></trkpt><trkpt lat="45.23447259873241" lon="5.663471788246336"><ele>200.0</ele><time>2026-04-05T12:30:06.001Z</time></trkpt><trkpt lat="45.23472307794447" lon="5.663351250285473"><ele>198.5</ele><time>2026-04-05T12:30:07.001Z</time></trkpt><trkpt lat="45.23497421313859" lon="5.663229738380498"><ele>197.0</ele><time>2026-04-05T12:30:08.001Z</time></trkpt><trkpt lat="45.235223939050044" lon="5.663104671011295"><ele>197.0</ele><time>2026-04-05T12:30:09.001Z</time></trkpt><trkpt lat="45.235473244425165" lon="5.662977422753416"><ele>197.0</ele><time>2026-04-05T12:30:10.002Z</time></trkpt><trkpt lat="45.235721468481756" lon="5.662850168106273"><ele>198.0</ele><time>2026-04-05T12:30:11.002Z</time></trkpt><trkpt lat="45.23597188521062" lon="5.662724648394158"><ele>199.0</ele><time>2026-04-05T12:30:12.002Z</time></trkpt><trkpt lat="45.23647192170025" lon="5.662472145216101"><ele>201.0</ele><time>2026-04-05T12:30:14.002Z</time></trkpt><trkpt lat="45.236722327418484" lon="5.662343906651397"><ele>203.0</ele><time>2026-04-05T12:30:15.002Z</time></trkpt><trkpt lat="45.23697321703398" lon="5.662211585116175"><ele>203.0</ele><time>2026-04-05T12:30:16.002Z</time></trkpt><trkpt lat="45.23722398208205" lon="5.662077385713274"><ele>203.0</ele><time>2026-04-05T12:30:17.002Z</time></trkpt><trkpt lat="45.23747362572891" lon="5.661928337817035"><ele>201.0</ele><time>2026-04-05T12:30:18.002Z</time></trkpt><trkpt lat="45.23772362725018" lon="5.661789847502277"><ele>199.0</ele><time>2026-04-05T12:30:19.002Z</time></trkpt><trkpt lat="45.237971142523975" lon="5.661645178812459"><ele>198.0</ele><time>2026-04-05T12:30:20.002Z</time></trkpt><trkpt lat="45.23821102189917" lon="5.6615132013841185"><ele>197.0</ele><time>2026-04-05T12:30:21.002Z</time></trkpt><trkpt lat="45.2384588061552" lon="5.661364713782985"><ele>197.0</ele><time>2026-04-05T12:30:22.002Z</time></trkpt><trkpt lat="45.23869793632502" lon="5.661208691410344"><ele>197.0</ele><time>2026-04-05T12:30:23.002Z</time></trkpt><trkpt lat="45.23893861636065" lon="5.661055989371348"><ele>201.5</ele><time>2026-04-05T12:30:24.002Z</time></trkpt><trkpt lat="45.23918039004374" lon="5.660908048716718"><ele>206.0</ele><time>2026-04-05T12:30:25.002Z</time></trkpt><trkpt lat="45.23942144436899" lon="5.660759837892681"><ele>206.0</ele><time>2026-04-05T12:30:26.002Z</time></trkpt><trkpt lat="45.239658719498074" lon="5.660606297122344"><ele>206.0</ele><time>2026-04-05T12:30:27.002Z</time></trkpt><trkpt lat="45.23989360478797" lon="5.660453128035153"><ele>205.0</ele><time>2026-04-05T12:30:28.002Z</time></trkpt><trkpt lat="45.24013599650532" lon="5.660290408650589"><ele>204.0</ele><time>2026-04-05T12:30:29.002Z</time></trkpt><trkpt lat="45.24037469551619" lon="5.66012096739844"><ele>204.0</ele><time>2026-04-05T12:30:30.002Z</time></trkpt><trkpt lat="45.24062111413017" lon="5.659956355168624"><ele>204.0</ele><time>2026-04-05T12:30:31.002Z</time></trkpt><trkpt lat="45.24086322979992" lon="5.659786498532679"><ele>203.0</ele><time>2026-04-05T12:30:32.002Z</time></trkpt><trkpt lat="45.24110567091838" lon="5.659613826934636"><ele>202.0</ele><time>2026-04-05T12:30:33.002Z</time></trkpt><trkpt lat="45.24158500991457" lon="5.659266280747289"><ele>202.0</ele><time>2026-04-05T12:30:35.002Z</time></trkpt><trkpt lat="45.24182800140457" lon="5.6590872998952175"><ele>202.0</ele><time>2026-04-05T12:30:36.002Z</time></trkpt><trkpt lat="45.24207180600773" lon="5.658910371646474"><ele>202.0</ele><time>2026-04-05T12:30:37.002Z</time></trkpt><trkpt lat="45.24231184844777" lon="5.658734003185781"><ele>202.0</ele><time>2026-04-05T12:30:38.002Z</time></trkpt><trkpt lat="45.24255105255623" lon="5.658552563903489"><ele>201.0</ele><time>2026-04-05T12:30:39.002Z</time></trkpt><trkpt lat="45.24279135235275" lon="5.65837433164769"><ele>200.0</ele><time>2026-04-05T12:30:40.002Z</time></trkpt><trkpt lat="45.24303364452444" lon="5.6582037728954235"><ele>199.0</ele><time>2026-04-05T12:30:41.002Z</time></trkpt><trkpt lat="45.243274001477204" lon="5.658038676123904"><ele>198.0</ele><time>2026-04-05T12:30:42.002Z</time></trkpt><trkpt lat="45.24351160780906" lon="5.6578710830214485"><ele>197.0</ele><time>2026-04-05T12:30:43.002Z</time></trkpt><trkpt lat="45.243746956883776" lon="5.657700228508718"><ele>196.0</ele><time>2026-04-05T12:30:44.002Z</time></trkpt><trkpt lat="45.24398175985999" lon="5.657531981103268"><ele>198.5</ele><time>2026-04-05T12:30:45.002Z</time></trkpt><trkpt lat="45.24421367548367" lon="5.657362703975387"><ele>201.0</ele><time>2026-04-05T12:30:46.002Z</time></trkpt><trkpt lat="45.24444342771363" lon="5.6571949469096205"><ele>201.0</ele><time>2026-04-05T12:30:47.002Z</time></trkpt><trkpt lat="45.24467552884535" lon="5.657026198209678"><ele>201.0</ele><time>2026-04-05T12:30:48.002Z</time></trkpt><trkpt lat="45.24490981661968" lon="5.6568608999988275"><ele>201.0</ele><time>2026-04-05T12:30:49.002Z</time></trkpt><trkpt lat="45.245136229968814" lon="5.656694485413808"><ele>201.0</ele><time>2026-04-05T12:30:50.002Z</time></trkpt><trkpt lat="45.2453642547827" lon="5.656525906622682"><ele>201.0</ele><time>2026-04-05T12:30:51.002Z</time></trkpt><trkpt lat="45.24559198797674" lon="5.6563610166643565"><ele>201.0</ele><time>2026-04-05T12:30:52.002Z</time></trkpt><trkpt lat="45.24582001391289" lon="5.656197012096285"><ele>201.0</ele><time>2026-04-05T12:30:53.002Z</time></trkpt><trkpt lat="45.24604838536774" lon="5.656031562201847"><ele>200.0</ele><time>2026-04-05T12:30:54.003Z</time></trkpt></trkseg><trkseg><trkpt lat="45.25170467548949" lon="5.650321001044608"><ele>200.5</ele><time>2026-04-05T12:31:20.001Z</time></trkpt><trkpt lat="45.25190124607338" lon="5.650057515704099"><ele>202.0</ele><time>2026-04-05T12:31:21.001Z</time></trkpt><trkpt lat="45.252097940725086" lon="5.649795236547257"><ele>202.5</ele><time>2026-04-05T12:31:22.001Z</time></trkpt><trkpt lat="45.25229741826731" lon="5.6495323831235735"><ele>203.0</ele><time>2026-04-05T12:31:23.001Z</time></trkpt><trkpt lat="45.252496078949" lon="5.64926888849532"><ele>203.0</ele><time>2026-04-05T12:31:24.001Z</time></trkpt><trkpt lat="45.25269391683511" lon="5.649007611867523"><ele>203.0</ele><time>2026-04-05T12:31:25.001Z</time></trkpt><trkpt lat="45.2528936750857" lon="5.6487496108051705"><ele>202.5</ele><time>2026-04-05T12:31:26.001Z</time></trkpt><trkpt lat="45.25308469054034" lon="5.648489790206109"><ele>202.0</ele><time>2026-04-05T12:31:27.001Z</time></trkpt><trkpt lat="45.25326561573816" lon="5.648247382196724"><ele>202.5</ele><time>2026-04-05T12:31:28.001Z</time></trkpt><trkpt lat="45.25344213719172" lon="5.648007479642532"><ele>203.0</ele><time>2026-04-05T12:31:29.001Z</time></trkpt><trkpt lat="45.25362237280707" lon="5.647767143952591"><ele>203.0</ele><time>2026-04-05T12:31:30.001Z</time></trkpt><trkpt lat="45.253807503717745" lon="5.647528253117885"><ele>203.0</ele><time>2026-04-05T12:31:31.001Z</time></trkpt><trkpt lat="45.25399829598471" lon="5.647295400307653"><ele>202.5</ele><time>2026-04-05T12:31:32.001Z</time></trkpt><trkpt lat="45.254179548146986" lon="5.6470485623715065"><ele>202.0</ele><time>2026-04-05T12:31:33.001Z</time></trkpt><trkpt lat="45.25434666679122" lon="5.6467771475656665"><ele>202.0</ele><time>2026-04-05T12:31:34.001Z</time></trkpt><trkpt lat="45.25451683784748" lon="5.646499104295302"><ele>202.0</ele><time>2026-04-05T12:31:35.001Z</time></trkpt><trkpt lat="45.25468987857262" lon="5.646226722354711"><ele>200.5</ele><time>2026-04-05T12:31:36.001Z</time></trkpt><trkpt lat="45.25486006169929" lon="5.645950890427219"><ele>199.0</ele><time>2026-04-05T12:31:37.001Z</time></trkpt><trkpt lat="45.255026733294045" lon="5.6456675062417965"><ele>199.0</ele><time>2026-04-05T12:31:38.001Z</time></trkpt><trkpt lat="45.25520118955695" lon="5.645385705501823"><ele>199.0</ele><time>2026-04-05T12:31:39.001Z</time></trkpt><trkpt lat="45.25537790373694" lon="5.645105773755363"><ele>200.0</ele><time>2026-04-05T12:31:40.001Z</time></trkpt><trkpt lat="45.255550049613014" lon="5.6448179341752205"><ele>201.0</ele><time>2026-04-05T12:31:41.001Z</time></trkpt><trkpt lat="45.255713669025766" lon="5.644525721578006"><ele>200.5</ele><time>2026-04-05T12:31:42.001Z</time></trkpt><trkpt lat="45.255887755271544" lon="5.6442351664195884"><ele>200.0</ele><time>2026-04-05T12:31:43.001Z</time></trkpt><trkpt lat="45.256058572599265" lon="5.6439404963499165"><ele>200.0</ele><time>2026-04-05T12:31:44.001Z</time></trkpt><trkpt lat="45.25622451604295" lon="5.6436419018295"><ele>200.0</ele><time>2026-04-05T12:31:45.001Z</time></trkpt><trkpt lat="45.256392852630455" lon="5.64333357002199"><ele>199.0</ele><time>2026-04-05T12:31:46.001Z</time></trkpt><trkpt lat="45.25655327727592" lon="5.64302365984796"><ele>198.0</ele><time>2026-04-05T12:31:47.001Z</time></trkpt><trkpt lat="45.25671536051894" lon="5.642708702318583"><ele>197.5</ele><time>2026-04-05T12:31:48.001Z</time></trkpt><trkpt lat="45.25687296017288" lon="5.64239143817979"><ele>197.0</ele><time>2026-04-05T12:31:49.001Z</time></trkpt><trkpt lat="45.257038227922045" lon="5.642078874604115"><ele>196.5</ele><time>2026-04-05T12:31:50.001Z</time></trkpt><trkpt lat="45.257199266771565" lon="5.641768763152832"><ele>196.0</ele><time>2026-04-05T12:31:51.001Z</time></trkpt><trkpt lat="45.25735698487446" lon="5.641467969964437"><ele>196.0</ele><time>2026-04-05T12:31:52.001Z</time></trkpt><trkpt lat="45.25751565280765" lon="5.641173622468463"><ele>196.0</ele><time>2026-04-05T12:31:53.001Z</time></trkpt><trkpt lat="45.257678253588324" lon="5.640886062481786"><ele>197.0</ele><time>2026-04-05T12:31:54.001Z</time></trkpt><trkpt lat="45.25783904047434" lon="5.640601892147204"><ele>198.0</ele><time>2026-04-05T12:31:55.001Z</time></trkpt><trkpt lat="45.25800090474992" lon="5.640323820032005"><ele>198.5</ele><time>2026-04-05T12:31:56.001Z</time></trkpt><trkpt lat="45.25815651197578" lon="5.6400555730567765"><ele>199.0</ele><time>2026-04-05T12:31:57.001Z</time></trkpt><trkpt lat="45.25831736984042" lon="5.639774743418792"><ele>199.0</ele><time>2026-04-05T12:31:58.001Z</time></trkpt><trkpt lat="45.258479019931606" lon="5.63949626909504"><ele>199.0</ele><time>2026-04-05T12:31:59.001Z</time></trkpt><trkpt lat="45.258647154580274" lon="5.63921982418752"><ele>200.0</ele><time>2026-04-05T12:32:00.001Z</time></trkpt><trkpt lat="45.25882863954071" lon="5.638936699598198"><ele>201.0</ele><time>2026-04-05T12:32:01.001Z</time></trkpt><trkpt lat="45.25902195699572" lon="5.6386450271344275"><ele>199.0</ele><time>2026-04-05T12:32:02.001Z</time></trkpt><trkpt lat="45.25922179660423" lon="5.638351190082492"><ele>197.0</ele><time>2026-04-05T12:32:03.001Z</time></trkpt><trkpt lat="45.25942474078884" lon="5.6380595946628675"><ele>198.0</ele><time>2026-04-05T12:32:04.001Z</time></trkpt><trkpt lat="45.25963348405218" lon="5.637771500990343"><ele>199.0</ele><time>2026-04-05T12:32:05.001Z</time></trkpt><trkpt lat="45.25984873716288" lon="5.637480861298878"><ele>198.5</ele><time>2026-04-05T12:32:06.001Z</time></trkpt><trkpt lat="45.26006689706732" lon="5.637192059655085"><ele>198.0</ele><time>2026-04-05T12:32:07.001Z</time></trkpt><trkpt lat="45.26029144621993" lon="5.636904600574237"><ele>198.0</ele><time>2026-04-05T12:32:08.001Z</time></trkpt><trkpt lat="45.26052097574754" lon="5.636621183033552"><ele>198.0</ele><time>2026-04-05T12:32:09.001Z</time></trkpt><trkpt lat="45.26075172691185" lon="5.636335834288512"><ele>198.5</ele><time>2026-04-05T12:32:10.001Z</time></trkpt><trkpt lat="45.26098581030083" lon="5.636043755305319"><ele>199.0</ele><time>2026-04-05T12:32:11.001Z</time></trkpt><trkpt lat="45.261222665206574" lon="5.635752700118652"><ele>198.5</ele><time>2026-04-05T12:32:12.001Z</time></trkpt><trkpt lat="45.261460184373284" lon="5.635461401750289"><ele>198.0</ele><time>2026-04-05T12:32:13.002Z</time></trkpt><trkpt lat="45.26170016881417" lon="5.6351677114080765"><ele>198.0</ele><time>2026-04-05T12:32:14.002Z</time></trkpt><trkpt lat="45.26193773587505" lon="5.634874830964206"><ele>198.0</ele><time>2026-04-05T12:32:15.002Z</time></trkpt><trkpt lat="45.26217225997962" lon="5.634577334195959"><ele>198.0</ele><time>2026-04-05T12:32:16.002Z</time></trkpt><trkpt lat="45.26240939193253" lon="5.634286382664692"><ele>198.0</ele><time>2026-04-05T12:32:17.002Z</time></trkpt><trkpt lat="45.262642672406095" lon="5.633998669912524"><ele>198.0</ele><time>2026-04-05T12:32:18.002Z</time></trkpt><trkpt lat="45.26287876252528" lon="5.6337159816531095"><ele>198.0</ele><time>2026-04-05T12:32:19.002Z</time></trkpt><trkpt lat="45.26311363812976" lon="5.63343811017906"><ele>199.0</ele><time>2026-04-05T12:32:20.002Z</time></trkpt><trkpt lat="45.263346972757546" lon="5.633164774784709"><ele>200.0</ele><time>2026-04-05T12:32:21.002Z</time></trkpt><trkpt lat="45.26357965497327" lon="5.632890685932371"><ele>201.0</ele><time>2026-04-05T12:32:22.002Z</time></trkpt><trkpt lat="45.263810500821776" lon="5.632615904112019"><ele>202.0</ele><time>2026-04-05T12:32:23.002Z</time></trkpt><trkpt lat="45.264043460953694" lon="5.632336824740996"><ele>199.0</ele><time>2026-04-05T12:32:24.002Z</time></trkpt><trkpt lat="45.26427461032472" lon="5.632054193632548"><ele>196.0</ele><time>2026-04-05T12:32:25.002Z</time></trkpt><trkpt lat="45.264508960933576" lon="5.631777582865265"><ele>196.0</ele><time>2026-04-05T12:32:26.002Z</time></trkpt><trkpt lat="45.264748676802526" lon="5.631501660985038"><ele>196.0</ele><time>2026-04-05T12:32:27.002Z</time></trkpt><trkpt lat="45.264985822361986" lon="5.631225014537452"><ele>195.5</ele><time>2026-04-05T12:32:28.002Z</time></trkpt><trkpt lat="45.26522283932862" lon="5.6309469375547705"><ele>195.0</ele><time>2026-04-05T12:32:29.002Z</time></trkpt><trkpt lat="45.2654615318848" lon="5.630679457388824"><ele>195.0</ele><time>2026-04-05T12:32:30.002Z</time></trkpt><trkpt lat="45.26570077991678" lon="5.630419517376277"><ele>195.0</ele><time>2026-04-05T12:32:31.002Z</time></trkpt><trkpt lat="45.265938046784555" lon="5.630172472060972"><ele>195.0</ele><time>2026-04-05T12:32:32.002Z</time></trkpt><trkpt lat="45.266172070422265" lon="5.629941360688616"><ele>195.0</ele><time>2026-04-05T12:32:33.002Z</time></trkpt><trkpt lat="45.26640122378326" lon="5.629725571805064"><ele>195.5</ele><time>2026-04-05T12:32:34.002Z</time></trkpt><trkpt lat="45.26661578550198" lon="5.629522304850915"><ele>196.0</ele><time>2026-04-05T12:32:35.002Z</time></trkpt><trkpt lat="45.26683063215666" lon="5.629332613840787"><ele>197.0</ele><time>2026-04-05T12:32:36.002Z</time></trkpt><trkpt lat="45.26703842293347" lon="5.629157346552912"><ele>198.0</ele><time>2026-04-05T12:32:37.002Z</time></trkpt><trkpt lat="45.26724232512149" lon="5.62901189773183"><ele>198.33333333333331</ele><time>2026-04-05T12:32:38.002Z</time></trkpt><trkpt lat="45.267442648673274" lon="5.628885979717381"><ele>198.66666666666666</ele><time>2026-04-05T12:32:39.002Z</time></trkpt><trkpt lat="45.26764543349459" lon="5.628789477400773"><ele>199.0</ele><time>2026-04-05T12:32:40.002Z</time></trkpt><trkpt lat="45.267827649933935" lon="5.628641339004538"><ele>199.0</ele><time>2026-04-05T12:32:41.002Z</time></trkpt><trkpt lat="45.268023679144804" lon="5.628507522859487"><ele>199.0</ele><time>2026-04-05T12:32:42.002Z</time></trkpt><trkpt lat="45.268232755458925" lon="5.628370625744156"><ele>199.0</ele><time>2026-04-05T12:32:43.002Z</time></trkpt><trkpt lat="45.26844919111963" lon="5.628234703915665"><ele>198.66666666666666</ele><time>2026-04-05T12:32:44.002Z</time></trkpt><trkpt lat="45.26858493601569" lon="5.628145480943254"><ele>198.33333333333331</ele><time>2026-04-05T12:32:45.002Z</time></trkpt><trkpt lat="45.26879961407184" lon="5.628029923492842"><ele>198.0</ele><time>2026-04-05T12:32:46.002Z</time></trkpt><trkpt lat="45.269008855650746" lon="5.627912229450498"><ele>198.0</ele><time>2026-04-05T12:32:47.002Z</time></trkpt><trkpt lat="45.269222772013556" lon="5.627806451748958"><ele>198.0</ele><time>2026-04-05T12:32:48.002Z</time></trkpt><trkpt lat="45.26943142906222" lon="5.627702237977818"><ele>198.0</ele><time>2026-04-05T12:32:49.002Z</time></trkpt><trkpt lat="45.269648043513506" lon="5.627608702916951"><ele>197.66666666666669</ele><time>2026-04-05T12:32:50.002Z</time></trkpt><trkpt lat="45.2698543519789" lon="5.627500446577637"><ele>197.33333333333334</ele><time>2026-04-05T12:32:51.002Z</time></trkpt><trkpt lat="45.27007150687911" lon="5.627418078540324"><ele>197.0</ele><time>2026-04-05T12:32:52.002Z</time></trkpt><trkpt lat="45.27027334436683" lon="5.627325079583924"><ele>197.0</ele><time>2026-04-05T12:32:53.002Z</time></trkpt><trkpt lat="45.27048211319361" lon="5.627263711722453"><ele>197.0</ele><time>2026-04-05T12:32:54.002Z</time></trkpt><trkpt lat="45.27068846051062" lon="5.627201465586164"><ele>197.0</ele><time>2026-04-05T12:32:55.002Z</time></trkpt><trkpt lat="45.2708932108926" lon="5.627143289803865"><ele>197.0</ele><time>2026-04-05T12:32:56.002Z</time></trkpt><trkpt lat="45.27110481981189" lon="5.6270647861916565"><ele>197.0</ele><time>2026-04-05T12:32:57.002Z</time></trkpt><trkpt lat="45.27128816003358" lon="5.6271255906153215"><ele>197.0</ele><time>2026-04-05T12:32:58.002Z</time></trkpt><trkpt lat="45.27148530805004" lon="5.627143043915171"><ele>197.0</ele><time>2026-04-05T12:32:59.002Z</time></trkpt><trkpt lat="45.271675699844366" lon="5.627158724112392"><ele>197.0</ele><time>2026-04-05T12:33:00.003Z</time></trkpt><trkpt lat="45.271858136975" lon="5.627194689750252"><ele>197.0</ele><time>2026-04-05T12:33:01.003Z</time></trkpt><trkpt lat="45.27204163200309" lon="5.627240312404862"><ele>197.0</ele><time>2026-04-05T12:33:02.003Z</time></trkpt><trkpt lat="45.27222073617503" lon="5.627287381285139"><ele>197.0</ele><time>2026-04-05T12:33:03Z</time></trkpt><trkpt lat="45.272410405687424" lon="5.62732452345179"><ele>197.0</ele><time>2026-04-05T12:33:04Z</time></trkpt><trkpt lat="45.27260631447454" lon="5.6273593424013875"><ele>197.0</ele><time>2026-04-05T12:33:05Z</time></trkpt><trkpt lat="45.27280982377409" lon="5.627375176219682"><ele>197.0</ele><time>2026-04-05T12:33:06Z</time></trkpt><trkpt lat="45.27300902991117" lon="5.627357129895845"><ele>197.0</ele><time>2026-04-05T12:33:07Z</time></trkpt><trkpt lat="45.27320916743761" lon="5.6273203617412415"><ele>197.0</ele><time>2026-04-05T12:33:08Z</time></trkpt><trkpt lat="45.27341203227893" lon="5.62725852517001"><ele>197.0</ele><time>2026-04-05T12:33:09Z</time></trkpt><trkpt lat="45.27361402400106" lon="5.627187616390743"><ele>197.0</ele><time>2026-04-05T12:33:10Z</time></trkpt><trkpt lat="45.27381727726904" lon="5.627082848473556"><ele>196.66666666666669</ele><time>2026-04-05T12:33:11Z</time></trkpt><trkpt lat="45.27401641403647" lon="5.626963532312117"><ele>196.33333333333331</ele><time>2026-04-05T12:33:12Z</time></trkpt><trkpt lat="45.274212025143996" lon="5.62681783895372"><ele>196.0</ele><time>2026-04-05T12:33:13Z</time></trkpt><trkpt lat="45.274407952982614" lon="5.626660809000518"><ele>196.0</ele><time>2026-04-05T12:33:14Z</time></trkpt><trkpt lat="45.27459950504082" lon="5.626492683863889"><ele>196.0</ele><time>2026-04-05T12:33:15Z</time></trkpt><trkpt lat="45.274801889737205" lon="5.626334563118846"><ele>196.0</ele><time>2026-04-05T12:33:16Z</time></trkpt><trkpt lat="45.27501817933051" lon="5.626227536870857"><ele>196.0</ele><time>2026-04-05T12:33:17Z</time></trkpt><trkpt lat="45.275231406302176" lon="5.626134766604343"><ele>196.0</ele><time>2026-04-05T12:33:18Z</time></trkpt><trkpt lat="45.275437982858726" lon="5.626004031020936"><ele>196.0</ele><time>2026-04-05T12:33:19Z</time></trkpt><trkpt lat="45.27564807530568" lon="5.625981674428373"><ele>196.0</ele><time>2026-04-05T12:33:20Z</time></trkpt><trkpt lat="45.275861566573326" lon="5.625903907585209"><ele>195.66666666666666</ele><time>2026-04-05T12:33:21Z</time></trkpt><trkpt lat="45.27607941759003" lon="5.625831047616921"><ele>195.33333333333331</ele><time>2026-04-05T12:33:22Z</time></trkpt><trkpt lat="45.27629574426703" lon="5.625752082830204"><ele>195.0</ele><time>2026-04-05T12:33:23Z</time></trkpt><trkpt lat="45.276511644398724" lon="5.625675595577975"><ele>194.0</ele><time>2026-04-05T12:33:24Z</time></trkpt><trkpt lat="45.276720843668315" lon="5.625600519660119"><ele>193.0</ele><time>2026-04-05T12:33:25Z</time></trkpt><trkpt lat="45.27692332211693" lon="5.6255064208738075"><ele>192.0</ele><time>2026-04-05T12:33:26Z</time></trkpt><trkpt lat="45.27713901833787" lon="5.62544762964243"><ele>192.0</ele><time>2026-04-05T12:33:27Z</time></trkpt><trkpt lat="45.277357559168195" lon="5.625378436949773"><ele>192.0</ele><time>2026-04-05T12:33:28Z</time></trkpt><trkpt lat="45.27757055690185" lon="5.625311909738999"><ele>192.0</ele><time>2026-04-05T12:33:29Z</time></trkpt><trkpt lat="45.27779299285009" lon="5.6252332097081315"><ele>192.66666666666669</ele><time>2026-04-05T12:33:30Z</time></trkpt><trkpt lat="45.27799758721351" lon="5.625167339506623"><ele>193.33333333333334</ele><time>2026-04-05T12:33:31Z</time></trkpt><trkpt lat="45.27819265133504" lon="5.625097981011959"><ele>194.0</ele><time>2026-04-05T12:33:32Z</time></trkpt><trkpt lat="45.27837340780491" lon="5.6250273548893155"><ele>194.0</ele><time>2026-04-05T12:33:33Z</time></trkpt><trkpt lat="45.27854390902083" lon="5.624963160970129"><ele>194.0</ele><time>2026-04-05T12:33:34Z</time></trkpt><trkpt lat="45.278701423942174" lon="5.624902023916318"><ele>194.0</ele><time>2026-04-05T12:33:35Z</time></trkpt><trkpt lat="45.27884382952763" lon="5.624850927139084"><ele>193.66666666666669</ele><time>2026-04-05T12:33:36.001Z</time></trkpt><trkpt lat="45.27900373931763" lon="5.624777088953321"><ele>193.33333333333331</ele><time>2026-04-05T12:33:37.001Z</time></trkpt><trkpt lat="45.279171046784725" lon="5.624717953304183"><ele>193.0</ele><time>2026-04-05T12:33:38.001Z</time></trkpt><trkpt lat="45.27931423470174" lon="5.624681909676207"><ele>193.0</ele><time>2026-04-05T12:33:39.001Z</time></trkpt><trkpt lat="45.27943518239829" lon="5.624636545165509"><ele>193.0</ele><time>2026-04-05T12:33:40.001Z</time></trkpt><trkpt lat="45.279541529235644" lon="5.624605272052193"><ele>193.0</ele><time>2026-04-05T12:33:41.001Z</time></trkpt><trkpt lat="45.27963339432563" lon="5.624604463720714"><ele>193.0</ele><time>2026-04-05T12:33:42.001Z</time></trkpt><trkpt lat="45.27971368835145" lon="5.624634794910848"><ele>193.0</ele><time>2026-04-05T12:33:43.001Z</time></trkpt><trkpt lat="45.27980482476367" lon="5.624680012183328"><ele>192.8</ele><time>2026-04-05T12:33:44.001Z</time></trkpt><trkpt lat="45.279898235568766" lon="5.624733765392372"><ele>192.60000000000002</ele><time>2026-04-05T12:33:45.001Z</time></trkpt><trkpt lat="45.279978767295354" lon="5.624704439100355"><ele>192.39999999999998</ele><time>2026-04-05T12:33:46.001Z</time></trkpt><trkpt lat="45.28004335580779" lon="5.62462563176719"><ele>192.2</ele><time>2026-04-05T12:33:47.001Z</time></trkpt><trkpt lat="45.28010221931577" lon="5.624526942379506"><ele>192.0</ele><time>2026-04-05T12:33:48.001Z</time></trkpt><trkpt lat="45.28016636550712" lon="5.624415111046644"><ele>192.0</ele><time>2026-04-05T12:33:49.001Z</time></trkpt><trkpt lat="45.2802613565769" lon="5.624325441356759"><ele>192.0</ele><time>2026-04-05T12:33:50.001Z</time></trkpt><trkpt lat="45.28038849439681" lon="5.62429050554336"><ele>192.0</ele><time>2026-04-05T12:33:51.001Z</time></trkpt><trkpt lat="45.28052467762949" lon="5.62426780875183"><ele>192.0</ele><time>2026-04-05T12:33:52.001Z</time></trkpt><trkpt lat="45.28067340727671" lon="5.624223192185354"><ele>192.0</ele><time>2026-04-05T12:33:53.001Z</time></trkpt><trkpt lat="45.28083111422227" lon="5.624177273035974"><ele>192.0</ele><time>2026-04-05T12:33:54.001Z</time></trkpt><trkpt lat="45.28099107843626" lon="5.624125479974697"><ele>192.0</ele><time>2026-04-05T12:33:55.001Z</time></trkpt><trkpt lat="45.28116337824788" lon="5.624081551259233"><ele>192.0</ele><time>2026-04-05T12:33:56.001Z</time></trkpt><trkpt lat="45.28136425374333" lon="5.624067084860004"><ele>192.0</ele><time>2026-04-05T12:33:57.001Z</time></trkpt><trkpt lat="45.28157574036111" lon="5.624050168658101"><ele>192.0</ele><time>2026-04-05T12:33:58.001Z</time></trkpt><trkpt lat="45.281789812866585" lon="5.62404207255316"><ele>192.33333333333331</ele><time>2026-04-05T12:33:59.001Z</time></trkpt><trkpt lat="45.28200786470808" lon="5.624024023580943"><ele>192.66666666666666</ele><time>2026-04-05T12:34:00.001Z</time></trkpt><trkpt lat="45.282227772841814" lon="5.624015759277699"><ele>193.0</ele><time>2026-04-05T12:34:01.001Z</time></trkpt><trkpt lat="45.28244640903648" lon="5.6240093575390295"><ele>193.33333333333331</ele><time>2026-04-05T12:34:02.001Z</time></trkpt><trkpt lat="45.28266290137515" lon="5.6240152007454975"><ele>193.66666666666669</ele><time>2026-04-05T12:34:03.001Z</time></trkpt><trkpt lat="45.282883897762204" lon="5.624012843100382"><ele>194.0</ele><time>2026-04-05T12:34:04.001Z</time></trkpt><trkpt lat="45.283110192010874" lon="5.6240105592078065"><ele>194.33333333333334</ele><time>2026-04-05T12:34:05.001Z</time></trkpt><trkpt lat="45.283334792175125" lon="5.624009639138764"><ele>194.66666666666669</ele><time>2026-04-05T12:34:06.001Z</time></trkpt><trkpt lat="45.28351465073737" lon="5.624075302438152"><ele>195.0</ele><time>2026-04-05T12:34:07.001Z</time></trkpt><trkpt lat="45.283765802946704" lon="5.624036076149682"><ele>195.0</ele><time>2026-04-05T12:34:08.001Z</time></trkpt><trkpt lat="45.2839948945841" lon="5.624032689129674"><ele>195.0</ele><time>2026-04-05T12:34:09.001Z</time></trkpt><trkpt lat="45.28421818033879" lon="5.624039282326757"><ele>195.0</ele><time>2026-04-05T12:34:10.001Z</time></trkpt><trkpt lat="45.28443839018208" lon="5.624043734906555"><ele>195.0</ele><time>2026-04-05T12:34:11.001Z</time></trkpt><trkpt lat="45.28464922664779" lon="5.6240472465968985"><ele>195.0</ele><time>2026-04-05T12:34:12.001Z</time></trkpt><trkpt lat="45.284856929297774" lon="5.624045998874669"><ele>195.66666666666669</ele><time>2026-04-05T12:34:13.001Z</time></trkpt><trkpt lat="45.285068997314234" lon="5.6240330154051685"><ele>196.33333333333334</ele><time>2026-04-05T12:34:14.001Z</time></trkpt><trkpt lat="45.285267479120606" lon="5.6240329760040355"><ele>197.0</ele><time>2026-04-05T12:34:15.001Z</time></trkpt><trkpt lat="45.28547477073704" lon="5.624044242092258"><ele>197.0</ele><time>2026-04-05T12:34:16.001Z</time></trkpt><trkpt lat="45.285682364427664" lon="5.624049413059279"><ele>197.0</ele><time>2026-04-05T12:34:17.001Z</time></trkpt><trkpt lat="45.28589222633645" lon="5.624066336713818"><ele>197.0</ele><time>2026-04-05T12:34:18.001Z</time></trkpt><trkpt lat="45.28609270047812" lon="5.624049526829368"><ele>197.0</ele><time>2026-04-05T12:34:19.001Z</time></trkpt><trkpt lat="45.28630660350672" lon="5.6240648466637975"><ele>197.0</ele><time>2026-04-05T12:34:20.001Z</time></trkpt><trkpt lat="45.286506395884345" lon="5.624056286786735"><ele>197.0</ele><time>2026-04-05T12:34:21.001Z</time></trkpt><trkpt lat="45.286713270585025" lon="5.62405046469219"><ele>195.33333333333334</ele><time>2026-04-05T12:34:22.001Z</time></trkpt><trkpt lat="45.286909596029226" lon="5.624047243694444"><ele>193.66666666666669</ele><time>2026-04-05T12:34:23.001Z</time></trkpt><trkpt lat="45.28710940171344" lon="5.624050938646392"><ele>192.0</ele><time>2026-04-05T12:34:24.001Z</time></trkpt><trkpt lat="45.28730345872656" lon="5.624048067690485"><ele>192.0</ele><time>2026-04-05T12:34:25.002Z</time></trkpt><trkpt lat="45.28749819271183" lon="5.624047080739555"><ele>192.0</ele><time>2026-04-05T12:34:26.002Z</time></trkpt><trkpt lat="45.28769414827346" lon="5.624040052902401"><ele>192.0</ele><time>2026-04-05T12:34:27.002Z</time></trkpt><trkpt lat="45.28788832587808" lon="5.624037192254701"><ele>192.0</ele><time>2026-04-05T12:34:28.002Z</time></trkpt><trkpt lat="45.28807827969951" lon="5.62403511667914"><ele>192.0</ele><time>2026-04-05T12:34:29.002Z</time></trkpt><trkpt lat="45.28825959454836" lon="5.624031673099801"><ele>192.0</ele><time>2026-04-05T12:34:30.002Z</time></trkpt><trkpt lat="45.28842483798398" lon="5.624041059022987"><ele>191.75</ele><time>2026-04-05T12:34:31.002Z</time></trkpt><trkpt lat="45.28857790605679" lon="5.624044329582947"><ele>191.5</ele><time>2026-04-05T12:34:32.002Z</time></trkpt><trkpt lat="45.28872788566492" lon="5.6240612927116445"><ele>191.25</ele><time>2026-04-05T12:34:33.002Z</time></trkpt><trkpt lat="45.288860910357194" lon="5.624069361307307"><ele>191.0</ele><time>2026-04-05T12:34:34.002Z</time></trkpt><trkpt lat="45.28897287213314" lon="5.624083954554015"><ele>191.4</ele><time>2026-04-05T12:34:35.002Z</time></trkpt><trkpt lat="45.289082357769765" lon="5.624120206600195"><ele>191.8</ele><time>2026-04-05T12:34:36.002Z</time></trkpt><trkpt lat="45.28917470343287" lon="5.62413021593713"><ele>192.20000000000002</ele><time>2026-04-05T12:34:37.002Z</time></trkpt><trkpt lat="45.2892431471166" lon="5.624160291766084"><ele>192.60000000000002</ele><time>2026-04-05T12:34:38.002Z</time></trkpt><trkpt lat="45.289350313143835" lon="5.62430335341037"><ele>193.0</ele><time>2026-04-05T12:34:40.002Z</time></trkpt><trkpt lat="45.28938827497044" lon="5.62440369424412"><ele>192.99999999999997</ele><time>2026-04-05T12:34:41.002Z</time></trkpt><trkpt lat="45.28943598168056" lon="5.62449232725176"><ele>193.0</ele><time>2026-04-05T12:34:42.002Z</time></trkpt><trkpt lat="45.28949930818068" lon="5.624542892304211"><ele>193.0</ele><time>2026-04-05T12:34:43.002Z</time></trkpt><trkpt lat="45.28957853708042" lon="5.624537711371375"><ele>193.0</ele><time>2026-04-05T12:34:44.002Z</time></trkpt><trkpt lat="45.28966962364478" lon="5.624517358544812"><ele>192.99999999999997</ele><time>2026-04-05T12:34:45.002Z</time></trkpt><trkpt lat="45.289754927138844" lon="5.62445574316286"><ele>193.0</ele><time>2026-04-05T12:34:46.002Z</time></trkpt><trkpt lat="45.289807402397436" lon="5.624334010598013"><ele>193.25</ele><time>2026-04-05T12:34:47.002Z</time></trkpt><trkpt lat="45.28995162091037" lon="5.624352180908207"><ele>193.5</ele><time>2026-04-05T12:34:48.002Z</time></trkpt><trkpt lat="45.29008227303539" lon="5.62439791767694"><ele>193.75</ele><time>2026-04-05T12:34:49.002Z</time></trkpt><trkpt lat="45.29022504897548" lon="5.624436666165721"><ele>194.0</ele><time>2026-04-05T12:34:50.002Z</time></trkpt><trkpt lat="45.290375090214646" lon="5.6244834173916916"><ele>194.0</ele><time>2026-04-05T12:34:51.002Z</time></trkpt><trkpt lat="45.29054215795156" lon="5.624554911404591"><ele>194.0</ele><time>2026-04-05T12:34:52.002Z</time></trkpt><trkpt lat="45.290718566583145" lon="5.624644430212493"><ele>194.0</ele><time>2026-04-05T12:34:53.002Z</time></trkpt><trkpt lat="45.29090905097773" lon="5.624733545751588"><ele>194.5</ele><time>2026-04-05T12:34:54.002Z</time></trkpt><trkpt lat="45.291116953169926" lon="5.624805756210551"><ele>195.0</ele><time>2026-04-05T12:34:55.002Z</time></trkpt><trkpt lat="45.291345688856076" lon="5.624901838360966"><ele>195.0</ele><time>2026-04-05T12:34:56.002Z</time></trkpt><trkpt lat="45.29158477347657" lon="5.625019008272196"><ele>195.0</ele><time>2026-04-05T12:34:57.002Z</time></trkpt><trkpt lat="45.29184380777574" lon="5.625148768021525"><ele>195.0</ele><time>2026-04-05T12:34:58.002Z</time></trkpt><trkpt lat="45.29214445999432" lon="5.625300677751865"><ele>195.0</ele><time>2026-04-05T12:34:59.002Z</time></trkpt><trkpt lat="45.29247210117403" lon="5.625470550776304"><ele>197.5</ele><time>2026-04-05T12:35:00.002Z</time></trkpt><trkpt lat="45.29281057922068" lon="5.625640163108428"><ele>200.0</ele><time>2026-04-05T12:35:01.002Z</time></trkpt><trkpt lat="45.29311090276553" lon="5.625787421643721"><ele>202.5</ele><time>2026-04-05T12:35:02.002Z</time></trkpt><trkpt lat="45.29336673713462" lon="5.625919822314261"><ele>205.0</ele><time>2026-04-05T12:35:03.002Z</time></trkpt><trkpt lat="45.29358906139441" lon="5.626090837626108"><ele>205.5</ele><time>2026-04-05T12:35:04.002Z</time></trkpt><trkpt lat="45.29378343197154" lon="5.626273939623158"><ele>206.0</ele><time>2026-04-05T12:35:05.002Z</time></trkpt><trkpt lat="45.29397155209615" lon="5.626445528424306"><ele>206.66666666666669</ele><time>2026-04-05T12:35:06.002Z</time></trkpt><trkpt lat="45.294151362771" lon="5.626617529826502"><ele>207.33333333333331</ele><time>2026-04-05T12:35:07.002Z</time></trkpt><trkpt lat="45.2943151744887" lon="5.626785202321583"><ele>208.0</ele><time>2026-04-05T12:35:08.002Z</time></trkpt><trkpt lat="45.29445400283544" lon="5.626944983257253"><ele>208.75</ele><time>2026-04-05T12:35:09Z</time></trkpt><trkpt lat="45.294578113493145" lon="5.627098114475299"><ele>209.5</ele><time>2026-04-05T12:35:10Z</time></trkpt><trkpt lat="45.2946879088867" lon="5.627233932842406"><ele>210.25</ele><time>2026-04-05T12:35:11Z</time></trkpt><trkpt lat="45.294786935223094" lon="5.627367716290802"><ele>211.0</ele><time>2026-04-05T12:35:12Z</time></trkpt><trkpt lat="45.29487350330079" lon="5.627514718960658"><ele>211.25</ele><time>2026-04-05T12:35:13Z</time></trkpt><trkpt lat="45.294936747399625" lon="5.627692152005113"><ele>211.5</ele><time>2026-04-05T12:35:14Z</time></trkpt><trkpt lat="45.294993631594174" lon="5.627869736814147"><ele>211.75</ele><time>2026-04-05T12:35:15Z</time></trkpt><trkpt lat="45.2950295183936" lon="5.628036712241488"><ele>212.0</ele><time>2026-04-05T12:35:16Z</time></trkpt><trkpt lat="45.29508737245923" lon="5.628203439865613"><ele>212.39999999999998</ele><time>2026-04-05T12:35:17Z</time></trkpt><trkpt lat="45.2951484546812" lon="5.628359482788161"><ele>212.79999999999998</ele><time>2026-04-05T12:35:18Z</time></trkpt><trkpt lat="45.29518267491469" lon="5.628503570455667"><ele>213.2</ele><time>2026-04-05T12:35:19Z</time></trkpt><trkpt lat="45.29519741213117" lon="5.628605314884323"><ele>213.6</ele><time>2026-04-05T12:35:20Z</time></trkpt><trkpt lat="45.295145520969726" lon="5.628795430872771"><ele>214.0</ele><time>2026-04-05T12:35:21Z</time></trkpt><trkpt lat="45.29516417918812" lon="5.628931434662489"><ele>214.25</ele><time>2026-04-05T12:35:22Z</time></trkpt><trkpt lat="45.29523883274526" lon="5.629048817877569"><ele>214.5</ele><time>2026-04-05T12:35:23Z</time></trkpt><trkpt lat="45.29535541773353" lon="5.629123432915863"><ele>214.75</ele><time>2026-04-05T12:35:24Z</time></trkpt><trkpt lat="45.29548451421849" lon="5.629111473221792"><ele>215.0</ele><time>2026-04-05T12:35:25Z</time></trkpt><trkpt lat="45.29560689027839" lon="5.629070989731339"><ele>215.25</ele><time>2026-04-05T12:35:26Z</time></trkpt><trkpt lat="45.29572152653606" lon="5.628966962983978"><ele>215.5</ele><time>2026-04-05T12:35:27Z</time></trkpt><trkpt lat="45.29585672164854" lon="5.6289077357177995"><ele>215.75</ele><time>2026-04-05T12:35:28Z</time></trkpt><trkpt lat="45.29600830961705" lon="5.628955720136931"><ele>216.0</ele><time>2026-04-05T12:35:29Z</time></trkpt><trkpt lat="45.296160356361426" lon="5.6289759927738405"><ele>216.0</ele><time>2026-04-05T12:35:30Z</time></trkpt><trkpt lat="45.29630988693302" lon="5.6289585636708805"><ele>216.0</ele><time>2026-04-05T12:35:31Z</time></trkpt><trkpt lat="45.296459814720855" lon="5.6289241871402265"><ele>216.0</ele><time>2026-04-05T12:35:32Z</time></trkpt><trkpt lat="45.29660765821846" lon="5.628887163321421"><ele>216.0</ele><time>2026-04-05T12:35:33Z</time></trkpt><trkpt lat="45.29674358035263" lon="5.628786074047041"><ele>216.0</ele><time>2026-04-05T12:35:34Z</time></trkpt><trkpt lat="45.29690528787418" lon="5.628785904587426"><ele>216.0</ele><time>2026-04-05T12:35:35Z</time></trkpt><trkpt lat="45.29705783076436" lon="5.628748341574433"><ele>216.0</ele><time>2026-04-05T12:35:36Z</time></trkpt><trkpt lat="45.29720964551346" lon="5.628714189130904"><ele>216.0</ele><time>2026-04-05T12:35:37Z</time></trkpt><trkpt lat="45.2973626983532" lon="5.628676678883638"><ele>216.0</ele><time>2026-04-05T12:35:38Z</time></trkpt><trkpt lat="45.29751718409575" lon="5.628638921981375"><ele>215.0</ele><time>2026-04-05T12:35:39Z</time></trkpt><trkpt lat="45.29766886242366" lon="5.628598303512425"><ele>214.0</ele><time>2026-04-05T12:35:40Z</time></trkpt><trkpt lat="45.29781600742201" lon="5.628561789885134"><ele>213.0</ele><time>2026-04-05T12:35:41Z</time></trkpt><trkpt lat="45.29797150547046" lon="5.628535647368043"><ele>212.75</ele><time>2026-04-05T12:35:42Z</time></trkpt><trkpt lat="45.29812299480503" lon="5.628510664605422"><ele>212.5</ele><time>2026-04-05T12:35:43Z</time></trkpt><trkpt lat="45.29825396713065" lon="5.628483197859307"><ele>212.25</ele><time>2026-04-05T12:35:44Z</time></trkpt><trkpt lat="45.29837436345768" lon="5.628451257286986"><ele>212.0</ele><time>2026-04-05T12:35:45.001Z</time></trkpt><trkpt lat="45.29848663098514" lon="5.628427304821283"><ele>212.0</ele><time>2026-04-05T12:35:46.001Z</time></trkpt><trkpt lat="45.298562211097575" lon="5.628400898680664"><ele>212.0</ele><time>2026-04-05T12:35:47.001Z</time></trkpt><trkpt lat="45.298630375952946" lon="5.628384756220452"><ele>212.0</ele><time>2026-04-05T12:35:48.001Z</time></trkpt><trkpt lat="45.29869409919529" lon="5.628368120148003"><ele>212.0</ele><time>2026-04-05T12:35:50.001Z</time></trkpt><trkpt lat="45.29872226604292" lon="5.628589802616797"><ele>212.0</ele><time>2026-04-05T12:35:51.001Z</time></trkpt><trkpt lat="45.29874328285334" lon="5.628769275076018"><ele>212.50000000000003</ele><time>2026-04-05T12:35:53.001Z</time></trkpt><trkpt lat="45.298744819666034" lon="5.628863602698414"><ele>213.0</ele><time>2026-04-05T12:35:54.001Z</time></trkpt><trkpt lat="45.29874694503455" lon="5.6289683345284995"><ele>213.5</ele><time>2026-04-05T12:35:55.001Z</time></trkpt><trkpt lat="45.29875165635716" lon="5.6290790297394455"><ele>214.0</ele><time>2026-04-05T12:35:56.001Z</time></trkpt><trkpt lat="45.2987731304162" lon="5.629194904249444"><ele>214.50000000000003</ele><time>2026-04-05T12:35:57.001Z</time></trkpt><trkpt lat="45.29877247547151" lon="5.629318155376352"><ele>215.0</ele><time>2026-04-05T12:35:58.001Z</time></trkpt><trkpt lat="45.29877760465081" lon="5.629440080135967"><ele>215.8</ele><time>2026-04-05T12:35:59.001Z</time></trkpt><trkpt lat="45.298768870208306" lon="5.629573532576453"><ele>216.6</ele><time>2026-04-05T12:36:00.001Z</time></trkpt><trkpt lat="45.298763319259855" lon="5.629703119996311"><ele>217.39999999999998</ele><time>2026-04-05T12:36:01.001Z</time></trkpt><trkpt lat="45.29877080515472" lon="5.629843703028098"><ele>218.2</ele><time>2026-04-05T12:36:02.001Z</time></trkpt><trkpt lat="45.298776561928285" lon="5.629978145351079"><ele>219.0</ele><time>2026-04-05T12:36:03.001Z</time></trkpt><trkpt lat="45.298782317607554" lon="5.63010764989343"><ele>219.0</ele><time>2026-04-05T12:36:04.001Z</time></trkpt><trkpt lat="45.298777872226175" lon="5.63023959853182"><ele>218.99999999999997</ele><time>2026-04-05T12:36:05.001Z</time></trkpt><trkpt lat="45.298780214083706" lon="5.630371730449328"><ele>218.99999999999997</ele><time>2026-04-05T12:36:06.001Z</time></trkpt><trkpt lat="45.298780687098265" lon="5.630502660384893"><ele>219.0</ele><time>2026-04-05T12:36:07.001Z</time></trkpt><trkpt lat="45.298767736491925" lon="5.630631105676923"><ele>219.0</ele><time>2026-04-05T12:36:08.001Z</time></trkpt><trkpt lat="45.29877051758019" lon="5.630754710563518"><ele>219.66666666666666</ele><time>2026-04-05T12:36:09.001Z</time></trkpt><trkpt lat="45.29876550985366" lon="5.6308799149550435"><ele>220.33333333333331</ele><time>2026-04-05T12:36:10.001Z</time></trkpt><trkpt lat="45.298764193503736" lon="5.63100657019688"><ele>221.0</ele><time>2026-04-05T12:36:11.001Z</time></trkpt><trkpt lat="45.29877031638545" lon="5.631131536049069"><ele>221.66666666666666</ele><time>2026-04-05T12:36:12.001Z</time></trkpt><trkpt lat="45.298758380348815" lon="5.631250927446652"><ele>222.33333333333331</ele><time>2026-04-05T12:36:13.001Z</time></trkpt><trkpt lat="45.2987552929351" lon="5.631366390629216"><ele>223.0</ele><time>2026-04-05T12:36:14.001Z</time></trkpt><trkpt lat="45.29875246489752" lon="5.631480154937746"><ele>223.49999999999997</ele><time>2026-04-05T12:36:15.001Z</time></trkpt><trkpt lat="45.298762869129234" lon="5.63158943239833"><ele>224.0</ele><time>2026-04-05T12:36:16.001Z</time></trkpt><trkpt lat="45.298757455081265" lon="5.6316896988173095"><ele>224.5</ele><time>2026-04-05T12:36:17.001Z</time></trkpt><trkpt lat="45.29874719214957" lon="5.631797537844617"><ele>225.0</ele><time>2026-04-05T12:36:18.001Z</time></trkpt><trkpt lat="45.2987405738766" lon="5.6319680408699835"><ele>225.49999999999997</ele><time>2026-04-05T12:36:20.001Z</time></trkpt><trkpt lat="45.2987295716635" lon="5.632114504208965"><ele>226.0</ele><time>2026-04-05T12:36:22.001Z</time></trkpt><trkpt lat="45.29871651241478" lon="5.632202867845328"><ele>227.0</ele><time>2026-04-05T12:36:25.001Z</time></trkpt><trkpt lat="45.2987206852333" lon="5.632333203093731"><ele>228.00000000000003</ele><time>2026-04-05T12:36:29.001Z</time></trkpt><trkpt lat="45.29869097910869" lon="5.632450114483308"><ele>229.00000000000003</ele><time>2026-04-05T12:36:31.001Z</time></trkpt><trkpt lat="45.29862111251556" lon="5.632571755354066"><ele>230.0</ele><time>2026-04-05T12:36:33.001Z</time></trkpt><trkpt lat="45.29856440052082" lon="5.6327214734088535"><ele>231.0</ele><time>2026-04-05T12:36:35.002Z</time></trkpt><trkpt lat="45.29850562870857" lon="5.632864951651102"><ele>232.16666666666666</ele><time>2026-04-05T12:36:37.002Z</time></trkpt><trkpt lat="45.29848410614609" lon="5.633030242384853"><ele>233.33333333333331</ele><time>2026-04-05T12:36:39.002Z</time></trkpt><trkpt lat="45.298465470102244" lon="5.633125856782593"><ele>234.5</ele><time>2026-04-05T12:36:40.002Z</time></trkpt><trkpt lat="45.29844570469244" lon="5.633222092862821"><ele>235.66666666666666</ele><time>2026-04-05T12:36:41.002Z</time></trkpt><trkpt lat="45.29843221280012" lon="5.633316413475452"><ele>236.83333333333331</ele><time>2026-04-05T12:36:42.002Z</time></trkpt><trkpt lat="45.29841339888758" lon="5.633447939816356"><ele>238.0</ele><time>2026-04-05T12:36:43.002Z</time></trkpt><trkpt lat="45.298397349281586" lon="5.633560141203625"><ele>238.83333333333331</ele><time>2026-04-05T12:36:44.002Z</time></trkpt><trkpt lat="45.298382212799346" lon="5.633665958968718"><ele>239.66666666666666</ele><time>2026-04-05T12:36:45.002Z</time></trkpt><trkpt lat="45.298367216626694" lon="5.633770795868996"><ele>240.5</ele><time>2026-04-05T12:36:46.002Z</time></trkpt><trkpt lat="45.29835236027007" lon="5.633874655333918"><ele>241.33333333333331</ele><time>2026-04-05T12:36:47.002Z</time></trkpt><trkpt lat="45.29835226678647" lon="5.6339858924269475"><ele>242.16666666666666</ele><time>2026-04-05T12:36:48.002Z</time></trkpt><trkpt lat="45.2983345567517" lon="5.634092432339597"><ele>243.0</ele><time>2026-04-05T12:36:49.002Z</time></trkpt><trkpt lat="45.29831688780713" lon="5.634199554803811"><ele>243.0</ele><time>2026-04-05T12:36:50.002Z</time></trkpt><trkpt lat="45.29830294483573" lon="5.634312979388087"><ele>243.0</ele><time>2026-04-05T12:36:51.002Z</time></trkpt><trkpt lat="45.29828158234224" lon="5.634427544044442"><ele>243.0</ele><time>2026-04-05T12:36:52.002Z</time></trkpt><trkpt lat="45.29827050966911" lon="5.634543938159139"><ele>243.0</ele><time>2026-04-05T12:36:53.002Z</time></trkpt><trkpt lat="45.298253130965556" lon="5.634659663700693"><ele>243.0</ele><time>2026-04-05T12:36:54.002Z</time></trkpt><trkpt lat="45.29823115733689" lon="5.634777286133959"><ele>243.0</ele><time>2026-04-05T12:36:55.002Z</time></trkpt><trkpt lat="45.29821982928888" lon="5.634890645470759"><ele>243.8</ele><time>2026-04-05T12:36:56.002Z</time></trkpt><trkpt lat="45.298202740872306" lon="5.6349853907880965"><ele>244.60000000000002</ele><time>2026-04-05T12:36:57.002Z</time></trkpt><trkpt lat="45.29819264752418" lon="5.635078742332375"><ele>245.39999999999998</ele><time>2026-04-05T12:36:58.002Z</time></trkpt><trkpt lat="45.29816666804993" lon="5.635240209634675"><ele>246.2</ele><time>2026-04-05T12:37:00.002Z</time></trkpt><trkpt lat="45.29813685869397" lon="5.6353893604696905"><ele>247.0</ele><time>2026-04-05T12:37:02.002Z</time></trkpt><trkpt lat="45.298121771794854" lon="5.635567939109533"><ele>246.99999999999997</ele><time>2026-04-05T12:37:04.002Z</time></trkpt><trkpt lat="45.29810601420952" lon="5.635662462722967"><ele>247.0</ele><time>2026-04-05T12:37:05.002Z</time></trkpt><trkpt lat="45.29809439773809" lon="5.635755224113944"><ele>247.0</ele><time>2026-04-05T12:37:06.002Z</time></trkpt><trkpt lat="45.298078071230826" lon="5.635850781083247"><ele>247.0</ele><time>2026-04-05T12:37:07.002Z</time></trkpt><trkpt lat="45.29806637833276" lon="5.63594103294948"><ele>246.99999999999997</ele><time>2026-04-05T12:37:08.002Z</time></trkpt><trkpt lat="45.29803616949489" lon="5.636104446282574"><ele>247.0</ele><time>2026-04-05T12:37:10.002Z</time></trkpt><trkpt lat="45.29799711281909" lon="5.636212038967814"><ele>247.8</ele><time>2026-04-05T12:37:12.002Z</time></trkpt><trkpt lat="45.297952291720584" lon="5.636331387364787"><ele>248.6</ele><time>2026-04-05T12:37:15Z</time></trkpt><trkpt lat="45.297922072847854" lon="5.636440090924291"><ele>249.40000000000003</ele><time>2026-04-05T12:37:18Z</time></trkpt><trkpt lat="45.29796664210884" lon="5.636555617931483"><ele>250.20000000000002</ele><time>2026-04-05T12:37:20Z</time></trkpt><trkpt lat="45.29807392848881" lon="5.63663445466014"><ele>251.0</ele><time>2026-04-05T12:37:22Z</time></trkpt><trkpt lat="45.298131440411574" lon="5.636686462671984"><ele>251.50000000000003</ele><time>2026-04-05T12:37:23Z</time></trkpt><trkpt lat="45.29818565878878" lon="5.636750996930912"><ele>252.0</ele><time>2026-04-05T12:37:24Z</time></trkpt><trkpt lat="45.29822660050726" lon="5.636832976751835"><ele>252.5</ele><time>2026-04-05T12:37:25Z</time></trkpt><trkpt lat="45.29826574479417" lon="5.636921407329927"><ele>253.0</ele><time>2026-04-05T12:37:26Z</time></trkpt><trkpt lat="45.29830090925541" lon="5.6370174092408"><ele>253.50000000000003</ele><time>2026-04-05T12:37:27Z</time></trkpt><trkpt lat="45.29834386358726" lon="5.637115049665597"><ele>254.0</ele><time>2026-04-05T12:37:28Z</time></trkpt><trkpt lat="45.29840220342995" lon="5.637218185422846"><ele>254.39999999999998</ele><time>2026-04-05T12:37:29Z</time></trkpt><trkpt lat="45.298464064642175" lon="5.63732703819683"><ele>254.79999999999998</ele><time>2026-04-05T12:37:30Z</time></trkpt><trkpt lat="45.29852239440624" lon="5.637448545117886"><ele>255.20000000000002</ele><time>2026-04-05T12:37:31Z</time></trkpt><trkpt lat="45.298587875082916" lon="5.637578240062431"><ele>255.60000000000002</ele><time>2026-04-05T12:37:32Z</time></trkpt><trkpt lat="45.29865100050224" lon="5.637699761109191"><ele>256.0</ele><time>2026-04-05T12:37:33Z</time></trkpt><trkpt lat="45.29872286604997" lon="5.637827853638461"><ele>258.25</ele><time>2026-04-05T12:37:34Z</time></trkpt><trkpt lat="45.29881696366175" lon="5.637935045478904"><ele>260.5</ele><time>2026-04-05T12:37:35Z</time></trkpt><trkpt lat="45.298932358440915" lon="5.638016834719067"><ele>262.75</ele><time>2026-04-05T12:37:36Z</time></trkpt><trkpt lat="45.29905437642041" lon="5.638083425887313"><ele>265.0</ele><time>2026-04-05T12:37:37Z</time></trkpt><trkpt lat="45.299186222545856" lon="5.638107603763965"><ele>265.0</ele><time>2026-04-05T12:37:38Z</time></trkpt><trkpt lat="45.299314562925424" lon="5.638104466488096"><ele>265.0</ele><time>2026-04-05T12:37:39Z</time></trkpt><trkpt lat="45.29945183584309" lon="5.638112827530037"><ele>265.0</ele><time>2026-04-05T12:37:40Z</time></trkpt><trkpt lat="45.29958737007278" lon="5.638127721476132"><ele>265.0</ele><time>2026-04-05T12:37:41Z</time></trkpt><trkpt lat="45.29972082860756" lon="5.638112995845961"><ele>266.0</ele><time>2026-04-05T12:37:42Z</time></trkpt><trkpt lat="45.29981455928473" lon="5.6380777300019185"><ele>267.0</ele><time>2026-04-05T12:37:43Z</time></trkpt><trkpt lat="45.299907446716475" lon="5.638066156872056"><ele>268.0</ele><time>2026-04-05T12:37:44Z</time></trkpt><trkpt lat="45.29998481928991" lon="5.638037957126875"><ele>269.0</ele><time>2026-04-05T12:37:45Z</time></trkpt><trkpt lat="45.300066538800834" lon="5.638018650313224"><ele>270.0</ele><time>2026-04-05T12:37:46Z</time></trkpt><trkpt lat="45.30017099776133" lon="5.638006096522611"><ele>270.0</ele><time>2026-04-05T12:37:47Z</time></trkpt><trkpt lat="45.30029527914857" lon="5.63800365086114"><ele>270.0</ele><time>2026-04-05T12:37:48Z</time></trkpt><trkpt lat="45.30042189884921" lon="5.638023720778522"><ele>270.0</ele><time>2026-04-05T12:37:49Z</time></trkpt><trkpt lat="45.300543225871884" lon="5.638069160007149"><ele>270.0</ele><time>2026-04-05T12:37:50Z</time></trkpt><trkpt lat="45.300674886157935" lon="5.6381027557845504"><ele>272.6666666666667</ele><time>2026-04-05T12:37:51Z</time></trkpt><trkpt lat="45.30081522964935" lon="5.638133515745052"><ele>275.33333333333337</ele><time>2026-04-05T12:37:52Z</time></trkpt><trkpt lat="45.300990086612984" lon="5.638161116995644"><ele>278.0</ele><time>2026-04-05T12:37:53.001Z</time></trkpt><trkpt lat="45.30117659120235" lon="5.638181828105848"><ele>278.0</ele><time>2026-04-05T12:37:54.001Z</time></trkpt><trkpt lat="45.30134346741781" lon="5.638188636673601"><ele>278.0</ele><time>2026-04-05T12:37:55.001Z</time></trkpt><trkpt lat="45.30149875038535" lon="5.638217778599797"><ele>278.0</ele><time>2026-04-05T12:37:56.001Z</time></trkpt><trkpt lat="45.30165528391084" lon="5.638252118757191"><ele>280.6666666666667</ele><time>2026-04-05T12:37:57.001Z</time></trkpt><trkpt lat="45.301813256674926" lon="5.638291043557199"><ele>283.3333333333333</ele><time>2026-04-05T12:37:58.001Z</time></trkpt><trkpt lat="45.301960807555346" lon="5.638332428941687"><ele>286.0</ele><time>2026-04-05T12:37:59.001Z</time></trkpt><trkpt lat="45.30211218025438" lon="5.638383640811392"><ele>290.0</ele><time>2026-04-05T12:38:00.001Z</time></trkpt><trkpt lat="45.30226588135081" lon="5.638451521307639"><ele>294.0</ele><time>2026-04-05T12:38:01.001Z</time></trkpt><trkpt lat="45.30242030091043" lon="5.6385234327286895"><ele>298.0</ele><time>2026-04-05T12:38:02.001Z</time></trkpt><trkpt lat="45.302554422944766" lon="5.638595085151831"><ele>299.0</ele><time>2026-04-05T12:38:03.001Z</time></trkpt><trkpt lat="45.30271115511856" lon="5.638651644561959"><ele>300.0</ele><time>2026-04-05T12:38:04.001Z</time></trkpt><trkpt lat="45.30287154704792" lon="5.638715665998156"><ele>301.0</ele><time>2026-04-05T12:38:05.001Z</time></trkpt><trkpt lat="45.30303559675712" lon="5.638782508771925"><ele>301.0</ele><time>2026-04-05T12:38:06.001Z</time></trkpt><trkpt lat="45.30318897060232" lon="5.638857853879723"><ele>301.0</ele><time>2026-04-05T12:38:07.001Z</time></trkpt><trkpt lat="45.30330302179474" lon="5.638994085518378"><ele>301.0</ele><time>2026-04-05T12:38:08.001Z</time></trkpt><trkpt lat="45.30342305718135" lon="5.639118534508892"><ele>301.0</ele><time>2026-04-05T12:38:09.001Z</time></trkpt><trkpt lat="45.30352575231874" lon="5.639214686020895"><ele>301.0</ele><time>2026-04-05T12:38:10.001Z</time></trkpt><trkpt lat="45.30361179793687" lon="5.639259671217012"><ele>301.0</ele><time>2026-04-05T12:38:11.001Z</time></trkpt><trkpt lat="45.30372253842552" lon="5.639221709642847"><ele>301.0</ele><time>2026-04-05T12:38:12.001Z</time></trkpt><trkpt lat="45.30379250135248" lon="5.6391218818858775"><ele>301.0</ele><time>2026-04-05T12:38:13.001Z</time></trkpt><trkpt lat="45.303812200458815" lon="5.63898174362772"><ele>301.0</ele><time>2026-04-05T12:38:14.001Z</time></trkpt><trkpt lat="45.3037495452336" lon="5.638831931041934"><ele>301.0</ele><time>2026-04-05T12:38:15.001Z</time></trkpt><trkpt lat="45.30364770342825" lon="5.6387549501826335"><ele>301.0</ele><time>2026-04-05T12:38:16.001Z</time></trkpt><trkpt lat="45.303533653516034" lon="5.63872829687111"><ele>301.0</ele><time>2026-04-05T12:38:17.001Z</time></trkpt><trkpt lat="45.30341844018033" lon="5.638671756910009"><ele>301.0</ele><time>2026-04-05T12:38:19.001Z</time></trkpt><trkpt lat="45.30335185483635" lon="5.638645082625259"><ele>301.0</ele><time>2026-04-05T12:38:22.001Z</time></trkpt><trkpt lat="45.303270291993236" lon="5.638502425291454"><ele>301.0</ele><time>2026-04-05T12:38:24.001Z</time></trkpt><trkpt lat="45.30325451112246" lon="5.6383573084068175"><ele>301.0</ele><time>2026-04-05T12:38:25.001Z</time></trkpt><trkpt lat="45.30326835919213" lon="5.6382097056355835"><ele>301.0</ele><time>2026-04-05T12:38:26.001Z</time></trkpt><trkpt lat="45.30326234042886" lon="5.63806820954395"><ele>303.25</ele><time>2026-04-05T12:38:27.001Z</time></trkpt><trkpt lat="45.30326482426044" lon="5.637917888386897"><ele>305.5</ele><time>2026-04-05T12:38:28.001Z</time></trkpt><trkpt lat="45.30325770266957" lon="5.637754412508743"><ele>307.75</ele><time>2026-04-05T12:38:29.001Z</time></trkpt><trkpt lat="45.3032311246002" lon="5.6375656813350075"><ele>310.0</ele><time>2026-04-05T12:38:30.001Z</time></trkpt><trkpt lat="45.3031827311098" lon="5.637374323179443"><ele>311.0</ele><time>2026-04-05T12:38:31.001Z</time></trkpt><trkpt lat="45.30311527165218" lon="5.637189230659988"><ele>312.0</ele><time>2026-04-05T12:38:32.001Z</time></trkpt><trkpt lat="45.30302626883536" lon="5.637012977173358"><ele>313.0</ele><time>2026-04-05T12:38:33.001Z</time></trkpt><trkpt lat="45.30290986551257" lon="5.636850805187725"><ele>313.0</ele><time>2026-04-05T12:38:34.001Z</time></trkpt><trkpt lat="45.30283362610074" lon="5.6366645273141955"><ele>313.0</ele><time>2026-04-05T12:38:35.001Z</time></trkpt><trkpt lat="45.30282004700168" lon="5.636468292771641"><ele>313.0</ele><time>2026-04-05T12:38:36.001Z</time></trkpt><trkpt lat="45.30280209090216" lon="5.63629024039965"><ele>313.0</ele><time>2026-04-05T12:38:37.001Z</time></trkpt><trkpt lat="45.302729169056185" lon="5.63616582466319"><ele>318.3333333333333</ele><time>2026-04-05T12:38:38.001Z</time></trkpt><trkpt lat="45.30259519869084" lon="5.636090637947699"><ele>323.6666666666667</ele><time>2026-04-05T12:38:39.001Z</time></trkpt><trkpt lat="45.302403764951954" lon="5.63606907559378"><ele>329.0</ele><time>2026-04-05T12:38:40.001Z</time></trkpt><trkpt lat="45.30220646037945" lon="5.636071681757681"><ele>329.0</ele><time>2026-04-05T12:38:41.001Z</time></trkpt><trkpt lat="45.30202273535488" lon="5.635999265306924"><ele>329.0</ele><time>2026-04-05T12:38:42.001Z</time></trkpt><trkpt lat="45.301887959178224" lon="5.63587998207998"><ele>329.0</ele><time>2026-04-05T12:38:43.002Z</time></trkpt><trkpt lat="45.30175145753529" lon="5.635748255870268"><ele>329.0</ele><time>2026-04-05T12:38:44.002Z</time></trkpt><trkpt lat="45.30162180703228" lon="5.635599377333913"><ele>329.0</ele><time>2026-04-05T12:38:45.002Z</time></trkpt><trkpt lat="45.30147952218429" lon="5.635438000700585"><ele>329.0</ele><time>2026-04-05T12:38:46.002Z</time></trkpt><trkpt lat="45.30132471476127" lon="5.635324027012057"><ele>329.0</ele><time>2026-04-05T12:38:47.002Z</time></trkpt><trkpt lat="45.301150553970125" lon="5.635219556561434"><ele>329.0</ele><time>2026-04-05T12:38:48.002Z</time></trkpt><trkpt lat="45.30098407298938" lon="5.635141515761803"><ele>329.0</ele><time>2026-04-05T12:38:49.002Z</time></trkpt><trkpt lat="45.300850733389396" lon="5.63508555059974"><ele>329.0</ele><time>2026-04-05T12:38:50.002Z</time></trkpt><trkpt lat="45.30075221411518" lon="5.635025645281418"><ele>329.0</ele><time>2026-04-05T12:38:51.002Z</time></trkpt><trkpt lat="45.30069496292132" lon="5.6349543350746725"><ele>329.0</ele><time>2026-04-05T12:38:52.002Z</time></trkpt><trkpt lat="45.30070000366557" lon="5.634843959058187"><ele>329.0</ele><time>2026-04-05T12:38:53.002Z</time></trkpt><trkpt lat="45.300784204236166" lon="5.634770862136138"><ele>329.0</ele><time>2026-04-05T12:38:54.002Z</time></trkpt><trkpt lat="45.3008997334781" lon="5.634831982041658"><ele>329.0</ele><time>2026-04-05T12:38:55.002Z</time></trkpt><trkpt lat="45.30102853632946" lon="5.63493485600902"><ele>329.0</ele><time>2026-04-05T12:38:56.002Z</time></trkpt><trkpt lat="45.30121691120606" lon="5.635078518804912"><ele>329.0</ele><time>2026-04-05T12:38:57.002Z</time></trkpt><trkpt lat="45.30143743810286" lon="5.635157408115419"><ele>335.5</ele><time>2026-04-05T12:38:58.002Z</time></trkpt><trkpt lat="45.30167963003984" lon="5.635176450792194"><ele>342.0</ele><time>2026-04-05T12:38:59.002Z</time></trkpt><trkpt lat="45.301910582518786" lon="5.635198170436405"><ele>342.0</ele><time>2026-04-05T12:39:00.002Z</time></trkpt><trkpt lat="45.30211516205249" lon="5.6352609360822505"><ele>342.0</ele><time>2026-04-05T12:39:01.002Z</time></trkpt><trkpt lat="45.3023118355763" lon="5.635334845870378"><ele>342.0</ele><time>2026-04-05T12:39:02.002Z</time></trkpt><trkpt lat="45.30249874931885" lon="5.635409623572968"><ele>340.6666666666667</ele><time>2026-04-05T12:39:03.002Z</time></trkpt><trkpt lat="45.30269912317859" lon="5.635470386766375"><ele>339.33333333333337</ele><time>2026-04-05T12:39:04.002Z</time></trkpt><trkpt lat="45.30289122232383" lon="5.635438719755543"><ele>338.0</ele><time>2026-04-05T12:39:05.002Z</time></trkpt><trkpt lat="45.303071955901466" lon="5.635378195713759"><ele>342.33333333333337</ele><time>2026-04-05T12:39:06.002Z</time></trkpt><trkpt lat="45.30322771424719" lon="5.635333180624983"><ele>346.6666666666667</ele><time>2026-04-05T12:39:07.002Z</time></trkpt><trkpt lat="45.30340586814533" lon="5.63533486116373"><ele>351.0</ele><time>2026-04-05T12:39:08.002Z</time></trkpt><trkpt lat="45.303554741136125" lon="5.635337425620858"><ele>351.0</ele><time>2026-04-05T12:39:09.002Z</time></trkpt><trkpt lat="45.30369651220109" lon="5.635352767746378"><ele>351.0</ele><time>2026-04-05T12:39:10.002Z</time></trkpt><trkpt lat="45.303834551413075" lon="5.635406076854345"><ele>351.0</ele><time>2026-04-05T12:39:11.002Z</time></trkpt><trkpt lat="45.30393766387657" lon="5.635555706686839"><ele>351.0</ele><time>2026-04-05T12:39:12.002Z</time></trkpt><trkpt lat="45.30404177996248" lon="5.63569560833106"><ele>354.5</ele><time>2026-04-05T12:39:13.002Z</time></trkpt><trkpt lat="45.30414736188065" lon="5.635810326189575"><ele>358.0</ele><time>2026-04-05T12:39:14.002Z</time></trkpt><trkpt lat="45.304239645551675" lon="5.635897577456584"><ele>361.5</ele><time>2026-04-05T12:39:15.002Z</time></trkpt><trkpt lat="45.30434907492823" lon="5.6359679396173625"><ele>365.0</ele><time>2026-04-05T12:39:16.002Z</time></trkpt><trkpt lat="45.30446968565714" lon="5.636023296374521"><ele>365.0</ele><time>2026-04-05T12:39:17.002Z</time></trkpt><trkpt lat="45.30461106464488" lon="5.636018744915673"><ele>365.0</ele><time>2026-04-05T12:39:18.002Z</time></trkpt><trkpt lat="45.30477004657082" lon="5.636008228485644"><ele>365.0</ele><time>2026-04-05T12:39:19.002Z</time></trkpt><trkpt lat="45.30491712954864" lon="5.635985767958288"><ele>365.0</ele><time>2026-04-05T12:39:20.002Z</time></trkpt><trkpt lat="45.305101190416174" lon="5.635985078406463"><ele>363.33333333333337</ele><time>2026-04-05T12:39:21Z</time></trkpt><trkpt lat="45.30526307703582" lon="5.636043972689375"><ele>361.6666666666667</ele><time>2026-04-05T12:39:22Z</time></trkpt><trkpt lat="45.30539786716357" lon="5.636161646543789"><ele>360.0</ele><time>2026-04-05T12:39:23Z</time></trkpt><trkpt lat="45.305545946900544" lon="5.636253191550598"><ele>367.0</ele><time>2026-04-05T12:39:24Z</time></trkpt><trkpt lat="45.30569030778581" lon="5.636318112710126"><ele>374.0</ele><time>2026-04-05T12:39:25Z</time></trkpt><trkpt lat="45.30586517426652" lon="5.636297283147214"><ele>381.0</ele><time>2026-04-05T12:39:26Z</time></trkpt><trkpt lat="45.306038974190265" lon="5.636287447723888"><ele>381.0</ele><time>2026-04-05T12:39:27Z</time></trkpt><trkpt lat="45.306193671497596" lon="5.636302224676077"><ele>381.0</ele><time>2026-04-05T12:39:28Z</time></trkpt><trkpt lat="45.30630065189506" lon="5.636382909995989"><ele>381.0</ele><time>2026-04-05T12:39:29Z</time></trkpt><trkpt lat="45.30639445004878" lon="5.636496725451648"><ele>381.0</ele><time>2026-04-05T12:39:30Z</time></trkpt><trkpt lat="45.30641913447843" lon="5.636621517288745"><ele>380.4</ele><time>2026-04-05T12:39:31Z</time></trkpt><trkpt lat="45.306465035305635" lon="5.636768597447305"><ele>379.8</ele><time>2026-04-05T12:39:32Z</time></trkpt><trkpt lat="45.30652391090985" lon="5.636883390443439"><ele>379.2</ele><time>2026-04-05T12:39:33Z</time></trkpt><trkpt lat="45.30661799367459" lon="5.636940849225305"><ele>378.59999999999997</ele><time>2026-04-05T12:39:34Z</time></trkpt><trkpt lat="45.30671185734257" lon="5.636989858878898"><ele>378.0</ele><time>2026-04-05T12:39:35Z</time></trkpt><trkpt lat="45.30681785229294" lon="5.637059807933641"><ele>378.0</ele><time>2026-04-05T12:39:36Z</time></trkpt><trkpt lat="45.30695179644584" lon="5.637127089198862"><ele>378.0</ele><time>2026-04-05T12:39:37Z</time></trkpt><trkpt lat="45.3071123574508" lon="5.637205662700439"><ele>378.0</ele><time>2026-04-05T12:39:38Z</time></trkpt><trkpt lat="45.30728672855115" lon="5.637295139695078"><ele>384.0</ele><time>2026-04-05T12:39:39Z</time></trkpt><trkpt lat="45.30745881370825" lon="5.637381159608963"><ele>390.0</ele><time>2026-04-05T12:39:40Z</time></trkpt><trkpt lat="45.30760255699757" lon="5.637471105175066"><ele>396.0</ele><time>2026-04-05T12:39:41Z</time></trkpt><trkpt lat="45.307730890645324" lon="5.63754715750992"><ele>396.0</ele><time>2026-04-05T12:39:42Z</time></trkpt><trkpt lat="45.3078557979792" lon="5.637633046335398"><ele>396.0</ele><time>2026-04-05T12:39:43Z</time></trkpt><trkpt lat="45.3079509087624" lon="5.637790958237675"><ele>396.0</ele><time>2026-04-05T12:39:44Z</time></trkpt><trkpt lat="45.30804188525346" lon="5.63798555779234"><ele>396.0</ele><time>2026-04-05T12:39:45Z</time></trkpt><trkpt lat="45.30815386645748" lon="5.638225599421453"><ele>399.0</ele><time>2026-04-05T12:39:46Z</time></trkpt><trkpt lat="45.30830235934037" lon="5.6384342977905675"><ele>402.0</ele><time>2026-04-05T12:39:47Z</time></trkpt><trkpt lat="45.308429906145875" lon="5.6386505578396235"><ele>405.0</ele><time>2026-04-05T12:39:48Z</time></trkpt><trkpt lat="45.30856278376601" lon="5.638847982824927"><ele>405.0</ele><time>2026-04-05T12:39:49Z</time></trkpt><trkpt lat="45.308694850608305" lon="5.639042161896988"><ele>405.0</ele><time>2026-04-05T12:39:50Z</time></trkpt><trkpt lat="45.3088187961135" lon="5.63922727668435"><ele>405.0</ele><time>2026-04-05T12:39:51Z</time></trkpt><trkpt lat="45.30892632434587" lon="5.6394118211823026"><ele>409.33333333333337</ele><time>2026-04-05T12:39:52Z</time></trkpt><trkpt lat="45.309029471070836" lon="5.639588652113038"><ele>413.6666666666667</ele><time>2026-04-05T12:39:53Z</time></trkpt><trkpt lat="45.309134216373295" lon="5.639757004197329"><ele>418.0</ele><time>2026-04-05T12:39:54Z</time></trkpt><trkpt lat="45.30924470975904" lon="5.63989380338721"><ele>418.0</ele><time>2026-04-05T12:39:55Z</time></trkpt><trkpt lat="45.309362318355944" lon="5.640010919423961"><ele>418.0</ele><time>2026-04-05T12:39:56Z</time></trkpt><trkpt lat="45.30948304510239" lon="5.640105388728194"><ele>418.0</ele><time>2026-04-05T12:39:57Z</time></trkpt><trkpt lat="45.30960827723603" lon="5.640197129959202"><ele>418.0</ele><time>2026-04-05T12:39:58Z</time></trkpt><trkpt lat="45.30971231574675" lon="5.640331503511254"><ele>424.5</ele><time>2026-04-05T12:39:59Z</time></trkpt><trkpt lat="45.30976855783827" lon="5.6405221806290955"><ele>431.0</ele><time>2026-04-05T12:40:00.001Z</time></trkpt><trkpt lat="45.30982764177325" lon="5.640709918168793"><ele>437.5</ele><time>2026-04-05T12:40:01.001Z</time></trkpt><trkpt lat="45.30984656335563" lon="5.640894149313579"><ele>444.0</ele><time>2026-04-05T12:40:02.001Z</time></trkpt><trkpt lat="45.30983321972028" lon="5.641089272481297"><ele>440.5</ele><time>2026-04-05T12:40:03.001Z</time></trkpt><trkpt lat="45.309758090516084" lon="5.641254347038429"><ele>437.0</ele><time>2026-04-05T12:40:04.001Z</time></trkpt><trkpt lat="45.309641852982956" lon="5.641384680902489"><ele>433.5</ele><time>2026-04-05T12:40:05.001Z</time></trkpt><trkpt lat="45.30955549971153" lon="5.641526881688119"><ele>430.0</ele><time>2026-04-05T12:40:06.001Z</time></trkpt><trkpt lat="45.309469875798335" lon="5.641656514260747"><ele>430.0</ele><time>2026-04-05T12:40:07.001Z</time></trkpt><trkpt lat="45.30941495278286" lon="5.641842216592563"><ele>430.0</ele><time>2026-04-05T12:40:08.001Z</time></trkpt><trkpt lat="45.309324250604" lon="5.6420096511415085"><ele>430.0</ele><time>2026-04-05T12:40:09.001Z</time></trkpt><trkpt lat="45.309265283515515" lon="5.6421900630376385"><ele>430.0</ele><time>2026-04-05T12:40:10.001Z</time></trkpt><trkpt lat="45.30919476046871" lon="5.642370338811435"><ele>432.5</ele><time>2026-04-05T12:40:11.001Z</time></trkpt><trkpt lat="45.30916553366435" lon="5.6425621689736785"><ele>435.0</ele><time>2026-04-05T12:40:12.001Z</time></trkpt><trkpt lat="45.309170974541374" lon="5.642754728311378"><ele>437.5</ele><time>2026-04-05T12:40:13.001Z</time></trkpt><trkpt lat="45.309199605535106" lon="5.642956451745961"><ele>440.0</ele><time>2026-04-05T12:40:14.001Z</time></trkpt><trkpt lat="45.309266308799806" lon="5.643136745209116"><ele>440.0</ele><time>2026-04-05T12:40:15.001Z</time></trkpt><trkpt lat="45.30935728009409" lon="5.643286401406876"><ele>440.0</ele><time>2026-04-05T12:40:16.001Z</time></trkpt><trkpt lat="45.30948141221854" lon="5.643388767349172"><ele>440.0</ele><time>2026-04-05T12:40:17.001Z</time></trkpt><trkpt lat="45.309625912944874" lon="5.643490693980933"><ele>440.0</ele><time>2026-04-05T12:40:18.001Z</time></trkpt><trkpt lat="45.309750163360846" lon="5.643611474055632"><ele>444.0</ele><time>2026-04-05T12:40:19.001Z</time></trkpt><trkpt lat="45.309880401222514" lon="5.643674970972277"><ele>448.0</ele><time>2026-04-05T12:40:20.001Z</time></trkpt><trkpt lat="45.310024512575076" lon="5.643734190571272"><ele>452.0</ele><time>2026-04-05T12:40:21.001Z</time></trkpt><trkpt lat="45.31013031397527" lon="5.643855589032988"><ele>456.0</ele><time>2026-04-05T12:40:22.001Z</time></trkpt><trkpt lat="45.310194397999155" lon="5.644039778569738"><ele>456.0</ele><time>2026-04-05T12:40:23.001Z</time></trkpt><trkpt lat="45.31024662272331" lon="5.644245271745357"><ele>456.0</ele><time>2026-04-05T12:40:24.001Z</time></trkpt><trkpt lat="45.31026599785148" lon="5.644441826157482"><ele>456.0</ele><time>2026-04-05T12:40:25.001Z</time></trkpt><trkpt lat="45.310307214749535" lon="5.644640084038774"><ele>456.0</ele><time>2026-04-05T12:40:26.001Z</time></trkpt><trkpt lat="45.31035677956297" lon="5.6448440054111995"><ele>456.25</ele><time>2026-04-05T12:40:27.001Z</time></trkpt><trkpt lat="45.310409946738666" lon="5.645040002180866"><ele>456.5</ele><time>2026-04-05T12:40:28.001Z</time></trkpt><trkpt lat="45.31047816653164" lon="5.645234842775769"><ele>456.75</ele><time>2026-04-05T12:40:29.001Z</time></trkpt><trkpt lat="45.31053304715126" lon="5.645428748204708"><ele>457.0</ele><time>2026-04-05T12:40:30.001Z</time></trkpt><trkpt lat="45.31060215604458" lon="5.645611588714143"><ele>458.6666666666667</ele><time>2026-04-05T12:40:31.001Z</time></trkpt><trkpt lat="45.310674393013464" lon="5.645797783960123"><ele>460.33333333333337</ele><time>2026-04-05T12:40:32.001Z</time></trkpt><trkpt lat="45.31076900644605" lon="5.645970527982664"><ele>462.0</ele><time>2026-04-05T12:40:33.001Z</time></trkpt><trkpt lat="45.3108647074547" lon="5.646144159450755"><ele>462.0</ele><time>2026-04-05T12:40:34.001Z</time></trkpt><trkpt lat="45.31096379527294" lon="5.646331883168547"><ele>462.0</ele><time>2026-04-05T12:40:35.001Z</time></trkpt><trkpt lat="45.31106215454714" lon="5.64651926929168"><ele>462.0</ele><time>2026-04-05T12:40:36.001Z</time></trkpt><trkpt lat="45.31116249833735" lon="5.646709694660596"><ele>462.0</ele><time>2026-04-05T12:40:37.001Z</time></trkpt><trkpt lat="45.311267119810246" lon="5.646895594405358"><ele>462.0</ele><time>2026-04-05T12:40:38.001Z</time></trkpt><trkpt lat="45.31136417719881" lon="5.647084957421964"><ele>462.0</ele><time>2026-04-05T12:40:39.001Z</time></trkpt><trkpt lat="45.31145803759847" lon="5.647267886231308"><ele>467.0</ele><time>2026-04-05T12:40:40.001Z</time></trkpt><trkpt lat="45.3115632669768" lon="5.647414839852355"><ele>472.0</ele><time>2026-04-05T12:40:41.001Z</time></trkpt><trkpt lat="45.311685698094514" lon="5.647561738760917"><ele>477.0</ele><time>2026-04-05T12:40:42.001Z</time></trkpt><trkpt lat="45.31181070688615" lon="5.647681863477175"><ele>477.0</ele><time>2026-04-05T12:40:43.001Z</time></trkpt><trkpt lat="45.31194716790177" lon="5.6477808938068215"><ele>477.0</ele><time>2026-04-05T12:40:44.001Z</time></trkpt><trkpt lat="45.31207259104804" lon="5.647890394054659"><ele>477.0</ele><time>2026-04-05T12:40:45.001Z</time></trkpt><trkpt lat="45.31220433653531" lon="5.647985304589943"><ele>477.0</ele><time>2026-04-05T12:40:46.001Z</time></trkpt><trkpt lat="45.31233509992723" lon="5.648067582084732"><ele>478.5</ele><time>2026-04-05T12:40:47.001Z</time></trkpt><trkpt lat="45.31246581190204" lon="5.648143075361007"><ele>480.0</ele><time>2026-04-05T12:40:48.002Z</time></trkpt><trkpt lat="45.312602998659884" lon="5.64822874200523"><ele>481.5</ele><time>2026-04-05T12:40:49.002Z</time></trkpt><trkpt lat="45.31275307280702" lon="5.648283878296368"><ele>483.0</ele><time>2026-04-05T12:40:50.002Z</time></trkpt><trkpt lat="45.31289928175632" lon="5.64831501857962"><ele>483.0</ele><time>2026-04-05T12:40:51.002Z</time></trkpt><trkpt lat="45.313026776045554" lon="5.6483637257524295"><ele>482.99999999999994</ele><time>2026-04-05T12:40:52.002Z</time></trkpt><trkpt lat="45.31314087414316" lon="5.648393743667181"><ele>482.99999999999994</ele><time>2026-04-05T12:40:53.002Z</time></trkpt><trkpt lat="45.3132434383991" lon="5.6484289623252115"><ele>483.0</ele><time>2026-04-05T12:40:54.002Z</time></trkpt><trkpt lat="45.31330103278109" lon="5.648507608760701"><ele>483.0</ele><time>2026-04-05T12:40:55.002Z</time></trkpt><trkpt lat="45.313363666774144" lon="5.6485861444371395"><ele>482.66666666666663</ele><time>2026-04-05T12:40:56.002Z</time></trkpt><trkpt lat="45.31351029669791" lon="5.648842164946927"><ele>482.3333333333333</ele><time>2026-04-05T12:40:57.002Z</time></trkpt><trkpt lat="45.31361640242562" lon="5.6489901366944135"><ele>482.0</ele><time>2026-04-05T12:40:58.002Z</time></trkpt><trkpt lat="45.31371303973838" lon="5.64916733357766"><ele>482.0</ele><time>2026-04-05T12:40:59.002Z</time></trkpt><trkpt lat="45.313814603511815" lon="5.649375110037834"><ele>482.0</ele><time>2026-04-05T12:41:00.002Z</time></trkpt><trkpt lat="45.31390668957319" lon="5.649524070009113"><ele>482.0</ele><time>2026-04-05T12:41:01.002Z</time></trkpt><trkpt lat="45.313971772398006" lon="5.649709562332368"><ele>483.0</ele><time>2026-04-05T12:41:02.002Z</time></trkpt><trkpt lat="45.314054942951394" lon="5.649881114535706"><ele>484.0</ele><time>2026-04-05T12:41:03.002Z</time></trkpt><trkpt lat="45.314118110230424" lon="5.650056469966196"><ele>485.0</ele><time>2026-04-05T12:41:04.002Z</time></trkpt><trkpt lat="45.31422355172747" lon="5.650199010664372"><ele>486.0</ele><time>2026-04-05T12:41:05.002Z</time></trkpt><trkpt lat="45.31435412427815" lon="5.650308951660184"><ele>487.66666666666663</ele><time>2026-04-05T12:41:06.002Z</time></trkpt><trkpt lat="45.31450338828977" lon="5.650386908790587"><ele>489.3333333333333</ele><time>2026-04-05T12:41:07.002Z</time></trkpt><trkpt lat="45.31464008448576" lon="5.650463803515721"><ele>491.0</ele><time>2026-04-05T12:41:08.002Z</time></trkpt><trkpt lat="45.3147861619363" lon="5.6505692525056945"><ele>491.0</ele><time>2026-04-05T12:41:09.002Z</time></trkpt><trkpt lat="45.314928393167015" lon="5.650669134176634"><ele>491.0</ele><time>2026-04-05T12:41:10.002Z</time></trkpt><trkpt lat="45.31508037482093" lon="5.650760974742213"><ele>491.0</ele><time>2026-04-05T12:41:11.002Z</time></trkpt><trkpt lat="45.31522884396376" lon="5.650866757128957"><ele>491.0</ele><time>2026-04-05T12:41:12.002Z</time></trkpt><trkpt lat="45.31537348811679" lon="5.650979552186303"><ele>491.0</ele><time>2026-04-05T12:41:13.002Z</time></trkpt><trkpt lat="45.31552241479955" lon="5.6511053094338"><ele>491.0</ele><time>2026-04-05T12:41:14.002Z</time></trkpt><trkpt lat="45.31567086785457" lon="5.651219801348033"><ele>490.66666666666663</ele><time>2026-04-05T12:41:15.002Z</time></trkpt><trkpt lat="45.31580822332482" lon="5.65132132891605"><ele>490.33333333333337</ele><time>2026-04-05T12:41:16.002Z</time></trkpt><trkpt lat="45.315946589258566" lon="5.651427965616314"><ele>490.0</ele><time>2026-04-05T12:41:17.002Z</time></trkpt><trkpt lat="45.316083763278904" lon="5.651516757405895"><ele>490.0</ele><time>2026-04-05T12:41:18.002Z</time></trkpt><trkpt lat="45.31623207367908" lon="5.651554740153745"><ele>490.0</ele><time>2026-04-05T12:41:19.002Z</time></trkpt><trkpt lat="45.31636637382608" lon="5.651609672263432"><ele>490.0</ele><time>2026-04-05T12:41:20.002Z</time></trkpt><trkpt lat="45.31654658059064" lon="5.65168416603049"><ele>489.0</ele><time>2026-04-05T12:41:21.002Z</time></trkpt><trkpt lat="45.31671004057854" lon="5.651830216604123"><ele>488.0</ele><time>2026-04-05T12:41:22.002Z</time></trkpt><trkpt lat="45.316841789502334" lon="5.651948475626872"><ele>487.0</ele><time>2026-04-05T12:41:23.002Z</time></trkpt><trkpt lat="45.31699728316127" lon="5.652060576708939"><ele>487.0</ele><time>2026-04-05T12:41:24.002Z</time></trkpt><trkpt lat="45.31715949154819" lon="5.652176286203741"><ele>487.0</ele><time>2026-04-05T12:41:25.002Z</time></trkpt><trkpt lat="45.317329500020584" lon="5.652275034686948"><ele>487.0</ele><time>2026-04-05T12:41:26.002Z</time></trkpt><trkpt lat="45.31750351452362" lon="5.652374854438758"><ele>493.0</ele><time>2026-04-05T12:41:27Z</time></trkpt><trkpt lat="45.31768443026087" lon="5.652476292850724"><ele>499.0</ele><time>2026-04-05T12:41:28Z</time></trkpt><trkpt lat="45.31785281913597" lon="5.652584284646448"><ele>505.0</ele><time>2026-04-05T12:41:29Z</time></trkpt><trkpt lat="45.31801799843482" lon="5.652699621410412"><ele>504.0</ele><time>2026-04-05T12:41:30Z</time></trkpt><trkpt lat="45.31817772372062" lon="5.652808996691391"><ele>503.0</ele><time>2026-04-05T12:41:31Z</time></trkpt><trkpt lat="45.31834820892004" lon="5.6529166908054975"><ele>502.0</ele><time>2026-04-05T12:41:32Z</time></trkpt><trkpt lat="45.31852516918169" lon="5.652981825104832"><ele>502.0</ele><time>2026-04-05T12:41:33Z</time></trkpt><trkpt lat="45.3186872742528" lon="5.653022919694228"><ele>502.0</ele><time>2026-04-05T12:41:34Z</time></trkpt><trkpt lat="45.318886079001025" lon="5.653026563819919"><ele>502.0</ele><time>2026-04-05T12:41:35Z</time></trkpt><trkpt lat="45.31907776842635" lon="5.653055955631655"><ele>505.0</ele><time>2026-04-05T12:41:36Z</time></trkpt><trkpt lat="45.31924857292192" lon="5.653101305052929"><ele>508.0</ele><time>2026-04-05T12:41:37Z</time></trkpt><trkpt lat="45.31946110454315" lon="5.653148518381707"><ele>511.0</ele><time>2026-04-05T12:41:38Z</time></trkpt><trkpt lat="45.31965602192414" lon="5.653222657615281"><ele>512.3333333333334</ele><time>2026-04-05T12:41:39Z</time></trkpt><trkpt lat="45.319853434965246" lon="5.653323050996902"><ele>513.6666666666666</ele><time>2026-04-05T12:41:40Z</time></trkpt><trkpt lat="45.32005206504717" lon="5.653415472513644"><ele>515.0</ele><time>2026-04-05T12:41:41Z</time></trkpt><trkpt lat="45.32025231850341" lon="5.653491219502707"><ele>515.0</ele><time>2026-04-05T12:41:42Z</time></trkpt><trkpt lat="45.32046191970204" lon="5.653559342486708"><ele>515.0</ele><time>2026-04-05T12:41:43Z</time></trkpt><trkpt lat="45.32066451544" lon="5.65361235500593"><ele>515.0</ele><time>2026-04-05T12:41:44Z</time></trkpt><trkpt lat="45.32088417162113" lon="5.6536791456133075"><ele>513.3333333333333</ele><time>2026-04-05T12:41:45Z</time></trkpt><trkpt lat="45.32109664127361" lon="5.6537388238016435"><ele>511.66666666666663</ele><time>2026-04-05T12:41:46Z</time></trkpt><trkpt lat="45.32130752347437" lon="5.6537664048232"><ele>510.0</ele><time>2026-04-05T12:41:47Z</time></trkpt><trkpt lat="45.32151311760092" lon="5.653777584883234"><ele>510.0</ele><time>2026-04-05T12:41:48Z</time></trkpt><trkpt lat="45.321715466430234" lon="5.65383506013429"><ele>510.0</ele><time>2026-04-05T12:41:49Z</time></trkpt><trkpt lat="45.32192278045905" lon="5.653887047482642"><ele>510.0</ele><time>2026-04-05T12:41:50Z</time></trkpt><trkpt lat="45.3221381233526" lon="5.653924225263192"><ele>521.0</ele><time>2026-04-05T12:41:51Z</time></trkpt><trkpt lat="45.322361492633576" lon="5.654031554157778"><ele>532.0</ele><time>2026-04-05T12:41:52Z</time></trkpt><trkpt lat="45.32257932831922" lon="5.654138148207407"><ele>532.0</ele><time>2026-04-05T12:41:53Z</time></trkpt><trkpt lat="45.32277467091999" lon="5.654266236675273"><ele>532.0</ele><time>2026-04-05T12:41:54Z</time></trkpt><trkpt lat="45.32296056028551" lon="5.6544053482754935"><ele>532.0</ele><time>2026-04-05T12:41:55Z</time></trkpt><trkpt lat="45.32312852196965" lon="5.654583074979776"><ele>531.0</ele><time>2026-04-05T12:41:56Z</time></trkpt><trkpt lat="45.32330973496915" lon="5.654646460356207"><ele>530.0</ele><time>2026-04-05T12:41:57Z</time></trkpt><trkpt lat="45.32344823682308" lon="5.654796554155316"><ele>529.0</ele><time>2026-04-05T12:41:58Z</time></trkpt><trkpt lat="45.32357573036674" lon="5.654993647472341"><ele>529.0</ele><time>2026-04-05T12:41:59Z</time></trkpt><trkpt lat="45.323709844918696" lon="5.655184040593491"><ele>529.0</ele><time>2026-04-05T12:42:00.001Z</time></trkpt><trkpt lat="45.32386864538902" lon="5.6553116125361855"><ele>529.0</ele><time>2026-04-05T12:42:01.001Z</time></trkpt><trkpt lat="45.32406569877163" lon="5.6553842988775"><ele>532.3333333333334</ele><time>2026-04-05T12:42:02.001Z</time></trkpt><trkpt lat="45.32426815080626" lon="5.6554277077359325"><ele>535.6666666666666</ele><time>2026-04-05T12:42:03.001Z</time></trkpt><trkpt lat="45.32442869378244" lon="5.655600224771001"><ele>539.0</ele><time>2026-04-05T12:42:04.001Z</time></trkpt><trkpt lat="45.32459444025299" lon="5.655767864543873"><ele>543.6666666666666</ele><time>2026-04-05T12:42:05.001Z</time></trkpt><trkpt lat="45.32476295006987" lon="5.655938058836016"><ele>548.3333333333334</ele><time>2026-04-05T12:42:06.001Z</time></trkpt><trkpt lat="45.324949036431676" lon="5.656044667915141"><ele>553.0</ele><time>2026-04-05T12:42:07.001Z</time></trkpt><trkpt lat="45.325161382058255" lon="5.656095619667755"><ele>554.3333333333334</ele><time>2026-04-05T12:42:08.001Z</time></trkpt><trkpt lat="45.3253502504312" lon="5.656157468620806"><ele>555.6666666666666</ele><time>2026-04-05T12:42:09.001Z</time></trkpt><trkpt lat="45.325518658312554" lon="5.656250390530236"><ele>557.0</ele><time>2026-04-05T12:42:10.001Z</time></trkpt><trkpt lat="45.3256719832608" lon="5.65633973352139"><ele>557.0</ele><time>2026-04-05T12:42:11.001Z</time></trkpt><trkpt lat="45.325802479662656" lon="5.656433686631648"><ele>557.0</ele><time>2026-04-05T12:42:12.001Z</time></trkpt><trkpt lat="45.3259299824621" lon="5.656508232462381"><ele>557.0</ele><time>2026-04-05T12:42:13.001Z</time></trkpt><trkpt lat="45.32606508782089" lon="5.656578698137541"><ele>557.0</ele><time>2026-04-05T12:42:14.001Z</time></trkpt><trkpt lat="45.326201619833235" lon="5.656636748048013"><ele>557.0</ele><time>2026-04-05T12:42:15.001Z</time></trkpt><trkpt lat="45.32634674245771" lon="5.656689035455478"><ele>557.0</ele><time>2026-04-05T12:42:16.001Z</time></trkpt><trkpt lat="45.32647983446066" lon="5.656731781881233"><ele>557.0</ele><time>2026-04-05T12:42:17.001Z</time></trkpt><trkpt lat="45.32658414625762" lon="5.656763841400342"><ele>557.0</ele><time>2026-04-05T12:42:18.001Z</time></trkpt><trkpt lat="45.32673491268388" lon="5.656785014974366"><ele>558.5</ele><time>2026-04-05T12:42:19.001Z</time></trkpt><trkpt lat="45.32687453836914" lon="5.65679685826528"><ele>560.0</ele><time>2026-04-05T12:42:20.001Z</time></trkpt><trkpt lat="45.32702501953599" lon="5.656794101291038"><ele>561.5</ele><time>2026-04-05T12:42:21.001Z</time></trkpt><trkpt lat="45.3271676608566" lon="5.656809943263782"><ele>563.0</ele><time>2026-04-05T12:42:22.001Z</time></trkpt><trkpt lat="45.327313211091834" lon="5.656821473264189"><ele>567.0</ele><time>2026-04-05T12:42:23.001Z</time></trkpt><trkpt lat="45.32745838319935" lon="5.6568393237276"><ele>571.0</ele><time>2026-04-05T12:42:24.001Z</time></trkpt><trkpt lat="45.32761722160426" lon="5.656845883192102"><ele>575.0</ele><time>2026-04-05T12:42:25.001Z</time></trkpt><trkpt lat="45.32775637209095" lon="5.656917273042319"><ele>575.3333333333333</ele><time>2026-04-05T12:42:26.001Z</time></trkpt><trkpt lat="45.327904987603446" lon="5.6569946970441904"><ele>575.6666666666666</ele><time>2026-04-05T12:42:27.001Z</time></trkpt><trkpt lat="45.32806264651171" lon="5.6570811394691605"><ele>576.0</ele><time>2026-04-05T12:42:28.001Z</time></trkpt><trkpt lat="45.32821137718529" lon="5.657209217894737"><ele>576.0</ele><time>2026-04-05T12:42:29.001Z</time></trkpt><trkpt lat="45.32836134730884" lon="5.657335844553202"><ele>576.0</ele><time>2026-04-05T12:42:30.001Z</time></trkpt><trkpt lat="45.32851483209539" lon="5.657483808792472"><ele>576.0</ele><time>2026-04-05T12:42:31.001Z</time></trkpt><trkpt lat="45.328679002396086" lon="5.657556372769433"><ele>576.0</ele><time>2026-04-05T12:42:32.001Z</time></trkpt><trkpt lat="45.32884530307071" lon="5.657644859311187"><ele>576.0</ele><time>2026-04-05T12:42:33.001Z</time></trkpt><trkpt lat="45.32898602037364" lon="5.657759331418429"><ele>576.0</ele><time>2026-04-05T12:42:34.001Z</time></trkpt><trkpt lat="45.329094998538125" lon="5.657913006545946"><ele>579.0</ele><time>2026-04-05T12:42:35.001Z</time></trkpt><trkpt lat="45.329174253121785" lon="5.6580940887039395"><ele>582.0</ele><time>2026-04-05T12:42:36.001Z</time></trkpt><trkpt lat="45.32924517589213" lon="5.65825755376598"><ele>585.0</ele><time>2026-04-05T12:42:37.001Z</time></trkpt><trkpt lat="45.32935646240747" lon="5.658363575019374"><ele>588.0</ele><time>2026-04-05T12:42:38.001Z</time></trkpt><trkpt lat="45.329496842638626" lon="5.658412171813432"><ele>588.0</ele><time>2026-04-05T12:42:39.001Z</time></trkpt><trkpt lat="45.32962507594959" lon="5.658389120345454"><ele>588.0</ele><time>2026-04-05T12:42:40.001Z</time></trkpt><trkpt lat="45.329747378588955" lon="5.658354518645176"><ele>588.0</ele><time>2026-04-05T12:42:41.001Z</time></trkpt><trkpt lat="45.32985431112166" lon="5.658306263470608"><ele>588.0</ele><time>2026-04-05T12:42:42.001Z</time></trkpt><trkpt lat="45.329959214114744" lon="5.6582475863904405"><ele>588.5</ele><time>2026-04-05T12:42:43.001Z</time></trkpt><trkpt lat="45.33007569201546" lon="5.658216206881815"><ele>589.0</ele><time>2026-04-05T12:42:44.001Z</time></trkpt><trkpt lat="45.33019417591966" lon="5.65820299242239"><ele>589.5</ele><time>2026-04-05T12:42:45.001Z</time></trkpt><trkpt lat="45.33032073581416" lon="5.658214042871911"><ele>590.0</ele><time>2026-04-05T12:42:46.001Z</time></trkpt><trkpt lat="45.33045142947645" lon="5.658240662670991"><ele>590.5</ele><time>2026-04-05T12:42:47.001Z</time></trkpt><trkpt lat="45.33059252864403" lon="5.6582977281664375"><ele>591.0</ele><time>2026-04-05T12:42:48.001Z</time></trkpt><trkpt lat="45.330733523938285" lon="5.6583639675864825"><ele>591.5</ele><time>2026-04-05T12:42:49.001Z</time></trkpt><trkpt lat="45.330881160757016" lon="5.658420785670442"><ele>592.0</ele><time>2026-04-05T12:42:50.001Z</time></trkpt><trkpt lat="45.331035251969176" lon="5.658457607329044"><ele>592.0</ele><time>2026-04-05T12:42:51.002Z</time></trkpt><trkpt lat="45.33119462014634" lon="5.658466410683056"><ele>592.0</ele><time>2026-04-05T12:42:52.002Z</time></trkpt><trkpt lat="45.331357999003394" lon="5.658491452971472"><ele>592.0</ele><time>2026-04-05T12:42:53.002Z</time></trkpt><trkpt lat="45.3315334772589" lon="5.658476178281574"><ele>591.6666666666667</ele><time>2026-04-05T12:42:54.002Z</time></trkpt><trkpt lat="45.33168783198234" lon="5.65850392366298"><ele>591.3333333333334</ele><time>2026-04-05T12:42:55.002Z</time></trkpt><trkpt lat="45.33185271210804" lon="5.658544471338767"><ele>591.0</ele><time>2026-04-05T12:42:56.002Z</time></trkpt><trkpt lat="45.33201526661431" lon="5.658611543202086"><ele>590.6666666666666</ele><time>2026-04-05T12:42:57.002Z</time></trkpt><trkpt lat="45.33217666347315" lon="5.65868528752918"><ele>590.3333333333333</ele><time>2026-04-05T12:42:58.002Z</time></trkpt><trkpt lat="45.33233990361889" lon="5.658760382196676"><ele>590.0</ele><time>2026-04-05T12:42:59.002Z</time></trkpt><trkpt lat="45.33250755862975" lon="5.658837654494216"><ele>588.6666666666666</ele><time>2026-04-05T12:43:00.002Z</time></trkpt><trkpt lat="45.33267650570357" lon="5.658914316325736"><ele>587.3333333333334</ele><time>2026-04-05T12:43:01.002Z</time></trkpt><trkpt lat="45.33285341340774" lon="5.6589929366171"><ele>586.0</ele><time>2026-04-05T12:43:02.002Z</time></trkpt><trkpt lat="45.33302147323663" lon="5.6590609936895575"><ele>585.3333333333334</ele><time>2026-04-05T12:43:03.002Z</time></trkpt><trkpt lat="45.333197548256955" lon="5.6591206215177445"><ele>584.6666666666666</ele><time>2026-04-05T12:43:04.002Z</time></trkpt><trkpt lat="45.33337444424529" lon="5.659159232177147"><ele>584.0</ele><time>2026-04-05T12:43:05.002Z</time></trkpt><trkpt lat="45.33356440510835" lon="5.659192261639296"><ele>584.0</ele><time>2026-04-05T12:43:06.002Z</time></trkpt><trkpt lat="45.333760272434446" lon="5.659209269691123"><ele>584.0</ele><time>2026-04-05T12:43:07.002Z</time></trkpt><trkpt lat="45.3339577801205" lon="5.659204141548638"><ele>584.0</ele><time>2026-04-05T12:43:08.002Z</time></trkpt><trkpt lat="45.33414957902095" lon="5.659213297510958"><ele>583.6666666666666</ele><time>2026-04-05T12:43:09.002Z</time></trkpt><trkpt lat="45.33430327782046" lon="5.659227426499248"><ele>583.3333333333334</ele><time>2026-04-05T12:43:10.002Z</time></trkpt><trkpt lat="45.33451927661716" lon="5.659271458490292"><ele>583.0</ele><time>2026-04-05T12:43:11.002Z</time></trkpt><trkpt lat="45.33472975234762" lon="5.65928942607736"><ele>582.0</ele><time>2026-04-05T12:43:12.002Z</time></trkpt><trkpt lat="45.33492836957133" lon="5.659322352865462"><ele>581.0</ele><time>2026-04-05T12:43:13.002Z</time></trkpt><trkpt lat="45.33512818596904" lon="5.659376033733393"><ele>580.0</ele><time>2026-04-05T12:43:14.002Z</time></trkpt><trkpt lat="45.335319365806086" lon="5.659437397694208"><ele>577.6666666666667</ele><time>2026-04-05T12:43:15.002Z</time></trkpt><trkpt lat="45.335518954539126" lon="5.659507786073561"><ele>575.3333333333334</ele><time>2026-04-05T12:43:16.002Z</time></trkpt><trkpt lat="45.33572060768894" lon="5.659581157172319"><ele>573.0</ele><time>2026-04-05T12:43:17.002Z</time></trkpt><trkpt lat="45.335916860269855" lon="5.659635746007926"><ele>573.0</ele><time>2026-04-05T12:43:18.002Z</time></trkpt><trkpt lat="45.33610442691562" lon="5.6597011590027115"><ele>573.0</ele><time>2026-04-05T12:43:19.002Z</time></trkpt><trkpt lat="45.33627413533818" lon="5.659809447669567"><ele>573.0</ele><time>2026-04-05T12:43:20.002Z</time></trkpt><trkpt lat="45.336445039969306" lon="5.659928721569357"><ele>573.3333333333334</ele><time>2026-04-05T12:43:21.002Z</time></trkpt><trkpt lat="45.3366063065366" lon="5.660090127120681"><ele>573.6666666666667</ele><time>2026-04-05T12:43:22.002Z</time></trkpt><trkpt lat="45.336740892251605" lon="5.660293184890092"><ele>574.0</ele><time>2026-04-05T12:43:23.002Z</time></trkpt><trkpt lat="45.33687843717384" lon="5.660518470712851"><ele>571.0</ele><time>2026-04-05T12:43:24.002Z</time></trkpt><trkpt lat="45.33701222392975" lon="5.660742180926195"><ele>568.0</ele><time>2026-04-05T12:43:25.002Z</time></trkpt><trkpt lat="45.33714607176382" lon="5.660943584994786"><ele>565.0</ele><time>2026-04-05T12:43:26.002Z</time></trkpt><trkpt lat="45.3372622901252" lon="5.661149173193798"><ele>564.0</ele><time>2026-04-05T12:43:27.002Z</time></trkpt><trkpt lat="45.33737348446987" lon="5.661346055801738"><ele>563.0</ele><time>2026-04-05T12:43:28.002Z</time></trkpt><trkpt lat="45.33748264534133" lon="5.661531168354165"><ele>562.0</ele><time>2026-04-05T12:43:29.002Z</time></trkpt><trkpt lat="45.33761352928809" lon="5.661664756350988"><ele>562.0</ele><time>2026-04-05T12:43:30.002Z</time></trkpt><trkpt lat="45.33777721721888" lon="5.661763418550671"><ele>562.0</ele><time>2026-04-05T12:43:31.002Z</time></trkpt><trkpt lat="45.337961959891686" lon="5.661801953123577"><ele>562.0</ele><time>2026-04-05T12:43:32.002Z</time></trkpt><trkpt lat="45.338143874260375" lon="5.661860200636792"><ele>559.6666666666667</ele><time>2026-04-05T12:43:33.001Z</time></trkpt><trkpt lat="45.33830449027153" lon="5.661913914022085"><ele>557.3333333333334</ele><time>2026-04-05T12:43:34.001Z</time></trkpt><trkpt lat="45.33851037771363" lon="5.662026732527765"><ele>555.0</ele><time>2026-04-05T12:43:35.001Z</time></trkpt><trkpt lat="45.338689292206396" lon="5.662157338447701"><ele>555.0</ele><time>2026-04-05T12:43:36.001Z</time></trkpt><trkpt lat="45.33886953517848" lon="5.6623086623803855"><ele>555.0</ele><time>2026-04-05T12:43:37.001Z</time></trkpt><trkpt lat="45.339024737027074" lon="5.662532566714046"><ele>555.0</ele><time>2026-04-05T12:43:38.001Z</time></trkpt><trkpt lat="45.33919051626297" lon="5.66272439089533"><ele>552.6666666666666</ele><time>2026-04-05T12:43:39.001Z</time></trkpt><trkpt lat="45.33937128491534" lon="5.6628837188099475"><ele>550.3333333333333</ele><time>2026-04-05T12:43:40.001Z</time></trkpt><trkpt lat="45.33954657679918" lon="5.663049777980494"><ele>548.0</ele><time>2026-04-05T12:43:41.001Z</time></trkpt><trkpt lat="45.33971604954745" lon="5.663218330720994"><ele>548.0</ele><time>2026-04-05T12:43:42.001Z</time></trkpt><trkpt lat="45.33989110725517" lon="5.663377947574833"><ele>548.0</ele><time>2026-04-05T12:43:43.001Z</time></trkpt><trkpt lat="45.34006447732029" lon="5.663539740327995"><ele>548.0</ele><time>2026-04-05T12:43:44.001Z</time></trkpt><trkpt lat="45.3402308820878" lon="5.663710747526908"><ele>548.0</ele><time>2026-04-05T12:43:45.001Z</time></trkpt><trkpt lat="45.34041505261862" lon="5.663851878446263"><ele>548.0</ele><time>2026-04-05T12:43:46.001Z</time></trkpt><trkpt lat="45.34060828230477" lon="5.663946451562218"><ele>548.0</ele><time>2026-04-05T12:43:47.001Z</time></trkpt><trkpt lat="45.3408025276807" lon="5.664029677187874"><ele>548.3333333333333</ele><time>2026-04-05T12:43:48.001Z</time></trkpt><trkpt lat="45.34096864506782" lon="5.664184661628754"><ele>548.6666666666666</ele><time>2026-04-05T12:43:49.001Z</time></trkpt><trkpt lat="45.34113526889296" lon="5.664348424139262"><ele>549.0</ele><time>2026-04-05T12:43:50.001Z</time></trkpt><trkpt lat="45.34128822263501" lon="5.664551886700325"><ele>544.3333333333334</ele><time>2026-04-05T12:43:51.001Z</time></trkpt><trkpt lat="45.34146707541081" lon="5.664707334008909"><ele>539.6666666666667</ele><time>2026-04-05T12:43:52.001Z</time></trkpt><trkpt lat="45.341667960003804" lon="5.6648462201635486"><ele>535.0</ele><time>2026-04-05T12:43:53.001Z</time></trkpt><trkpt lat="45.341850068235914" lon="5.664968784390714"><ele>535.0</ele><time>2026-04-05T12:43:54.001Z</time></trkpt><trkpt lat="45.34203787447452" lon="5.665110363565444"><ele>535.0</ele><time>2026-04-05T12:43:55.001Z</time></trkpt><trkpt lat="45.34220032792437" lon="5.665239905715138"><ele>535.0</ele><time>2026-04-05T12:43:56.001Z</time></trkpt><trkpt lat="45.34237753430618" lon="5.6653834913756205"><ele>534.0</ele><time>2026-04-05T12:43:57.001Z</time></trkpt><trkpt lat="45.342563543928726" lon="5.66551195109162"><ele>533.0</ele><time>2026-04-05T12:43:58.001Z</time></trkpt><trkpt lat="45.342731680867686" lon="5.665682105470599"><ele>532.0</ele><time>2026-04-05T12:43:59.001Z</time></trkpt><trkpt lat="45.342890656688745" lon="5.665850763288685"><ele>532.0</ele><time>2026-04-05T12:44:00.001Z</time></trkpt><trkpt lat="45.343008350519284" lon="5.666064490080873"><ele>532.0</ele><time>2026-04-05T12:44:01.001Z</time></trkpt><trkpt lat="45.34315299011748" lon="5.666232626807415"><ele>532.0</ele><time>2026-04-05T12:44:02.001Z</time></trkpt><trkpt lat="45.34332074995776" lon="5.666353428001831"><ele>533.6666666666667</ele><time>2026-04-05T12:44:03.001Z</time></trkpt><trkpt lat="45.343503209096326" lon="5.666467205619413"><ele>535.3333333333334</ele><time>2026-04-05T12:44:04.001Z</time></trkpt><trkpt lat="45.343682252719624" lon="5.66657377212101"><ele>537.0</ele><time>2026-04-05T12:44:05.001Z</time></trkpt><trkpt lat="45.34386445179457" lon="5.666683038053127"><ele>536.0</ele><time>2026-04-05T12:44:06.001Z</time></trkpt><trkpt lat="45.34405771625397" lon="5.666798939953685"><ele>535.0</ele><time>2026-04-05T12:44:07.001Z</time></trkpt><trkpt lat="45.344250199186604" lon="5.666914373176391"><ele>534.0</ele><time>2026-04-05T12:44:08.001Z</time></trkpt><trkpt lat="45.34445284814489" lon="5.667035626003972"><ele>534.0</ele><time>2026-04-05T12:44:09.001Z</time></trkpt><trkpt lat="45.34466222055628" lon="5.667140839386694"><ele>534.0</ele><time>2026-04-05T12:44:10.001Z</time></trkpt><trkpt lat="45.344863226171384" lon="5.667268147703354"><ele>534.0</ele><time>2026-04-05T12:44:11.001Z</time></trkpt><trkpt lat="45.345063142228746" lon="5.667403268819661"><ele>531.0</ele><time>2026-04-05T12:44:12.001Z</time></trkpt><trkpt lat="45.34526337364724" lon="5.667522121066282"><ele>528.0</ele><time>2026-04-05T12:44:13.001Z</time></trkpt><trkpt lat="45.3454649613901" lon="5.667621042527721"><ele>525.0</ele><time>2026-04-05T12:44:14.001Z</time></trkpt><trkpt lat="45.34568367738571" lon="5.667678489117844"><ele>522.6666666666666</ele><time>2026-04-05T12:44:15.001Z</time></trkpt><trkpt lat="45.34590415604686" lon="5.6677167470119505"><ele>520.3333333333333</ele><time>2026-04-05T12:44:16.001Z</time></trkpt><trkpt lat="45.3461052742499" lon="5.667729645594671"><ele>518.0</ele><time>2026-04-05T12:44:17.001Z</time></trkpt><trkpt lat="45.34632102971798" lon="5.6677432167981525"><ele>517.3333333333333</ele><time>2026-04-05T12:44:18.001Z</time></trkpt><trkpt lat="45.346515779446484" lon="5.667771258394578"><ele>516.6666666666666</ele><time>2026-04-05T12:44:19.001Z</time></trkpt><trkpt lat="45.346712507856566" lon="5.667848441481706"><ele>516.0</ele><time>2026-04-05T12:44:20.001Z</time></trkpt><trkpt lat="45.34691681173754" lon="5.667938336063909"><ele>516.0</ele><time>2026-04-05T12:44:21.001Z</time></trkpt><trkpt lat="45.34711363078259" lon="5.668061288004107"><ele>516.0</ele><time>2026-04-05T12:44:22.001Z</time></trkpt><trkpt lat="45.347322317449645" lon="5.668156944159583"><ele>516.0</ele><time>2026-04-05T12:44:23.001Z</time></trkpt><trkpt lat="45.34753618583331" lon="5.668227529651831"><ele>515.3333333333334</ele><time>2026-04-05T12:44:24.001Z</time></trkpt><trkpt lat="45.34774834033205" lon="5.66828884598749"><ele>514.6666666666667</ele><time>2026-04-05T12:44:25.001Z</time></trkpt><trkpt lat="45.34796671141582" lon="5.668344330031981"><ele>514.0</ele><time>2026-04-05T12:44:26.001Z</time></trkpt><trkpt lat="45.34818734876586" lon="5.668356713885479"><ele>513.3333333333334</ele><time>2026-04-05T12:44:27.001Z</time></trkpt><trkpt lat="45.34840636965319" lon="5.668351650920956"><ele>512.6666666666666</ele><time>2026-04-05T12:44:28.001Z</time></trkpt><trkpt lat="45.34862543778797" lon="5.668382109009437"><ele>512.0</ele><time>2026-04-05T12:44:29.001Z</time></trkpt><trkpt lat="45.348842929218435" lon="5.668449832116387"><ele>512.6666666666666</ele><time>2026-04-05T12:44:30.001Z</time></trkpt><trkpt lat="45.34905528297237" lon="5.668540124115194"><ele>513.3333333333334</ele><time>2026-04-05T12:44:31.001Z</time></trkpt><trkpt lat="45.34925612913341" lon="5.668657553661668"><ele>514.0</ele><time>2026-04-05T12:44:32.001Z</time></trkpt><trkpt lat="45.349456658743" lon="5.6687809607321515"><ele>510.33333333333337</ele><time>2026-04-05T12:44:33.001Z</time></trkpt><trkpt lat="45.349653141111176" lon="5.668900668067857"><ele>506.66666666666663</ele><time>2026-04-05T12:44:34.001Z</time></trkpt><trkpt lat="45.34982306199969" lon="5.669026910168223"><ele>503.0</ele><time>2026-04-05T12:44:35.001Z</time></trkpt><trkpt lat="45.349980685743695" lon="5.669192734675538"><ele>503.0</ele><time>2026-04-05T12:44:36.001Z</time></trkpt><trkpt lat="45.35011827634024" lon="5.66939883543746"><ele>503.0</ele><time>2026-04-05T12:44:37.001Z</time></trkpt><trkpt lat="45.35024033775925" lon="5.669621460696672"><ele>503.0</ele><time>2026-04-05T12:44:38.001Z</time></trkpt><trkpt lat="45.35035232754426" lon="5.6698431876776345"><ele>501.3333333333333</ele><time>2026-04-05T12:44:39.001Z</time></trkpt><trkpt lat="45.35047544163489" lon="5.670058275686383"><ele>499.66666666666663</ele><time>2026-04-05T12:44:40.001Z</time></trkpt><trkpt lat="45.35057606075938" lon="5.670277751455626"><ele>498.0</ele><time>2026-04-05T12:44:41.001Z</time></trkpt><trkpt lat="45.35067987749478" lon="5.670485064061538"><ele>495.66666666666663</ele><time>2026-04-05T12:44:42.001Z</time></trkpt><trkpt lat="45.35080603775904" lon="5.670667234975459"><ele>493.3333333333333</ele><time>2026-04-05T12:44:43.001Z</time></trkpt><trkpt lat="45.35097387863208" lon="5.67080592883704"><ele>491.0</ele><time>2026-04-05T12:44:44.001Z</time></trkpt><trkpt lat="45.351123312223024" lon="5.670965896646659"><ele>491.66666666666663</ele><time>2026-04-05T12:44:45.001Z</time></trkpt><trkpt lat="45.35128129003046" lon="5.671110473651138"><ele>492.33333333333337</ele><time>2026-04-05T12:44:46.001Z</time></trkpt><trkpt lat="45.35144266667714" lon="5.671255759438555"><ele>493.0</ele><time>2026-04-05T12:44:47.001Z</time></trkpt><trkpt lat="45.35160775037023" lon="5.671404100529772"><ele>491.33333333333337</ele><time>2026-04-05T12:44:48.001Z</time></trkpt><trkpt lat="45.35178133004597" lon="5.671536829236836"><ele>489.66666666666663</ele><time>2026-04-05T12:44:49.001Z</time></trkpt><trkpt lat="45.351950222383124" lon="5.671688941752298"><ele>488.0</ele><time>2026-04-05T12:44:50.001Z</time></trkpt><trkpt lat="45.35213087743755" lon="5.671822849267514"><ele>487.0</ele><time>2026-04-05T12:44:51.002Z</time></trkpt><trkpt lat="45.35230476082106" lon="5.671967561929778"><ele>486.0</ele><time>2026-04-05T12:44:52.002Z</time></trkpt><trkpt lat="45.35247873460133" lon="5.672091266342778"><ele>485.0</ele><time>2026-04-05T12:44:53.002Z</time></trkpt><trkpt lat="45.35268916223436" lon="5.6720798408698485"><ele>485.0</ele><time>2026-04-05T12:44:54.002Z</time></trkpt><trkpt lat="45.352817788294914" lon="5.672096405085294"><ele>485.0</ele><time>2026-04-05T12:44:55.002Z</time></trkpt><trkpt lat="45.352909222274725" lon="5.672089889773777"><ele>485.0</ele><time>2026-04-05T12:44:56.002Z</time></trkpt><trkpt lat="45.35302216116627" lon="5.67207539041205"><ele>485.0</ele><time>2026-04-05T12:44:57.002Z</time></trkpt><trkpt lat="45.35313591401602" lon="5.672050503464972"><ele>485.0</ele><time>2026-04-05T12:44:58.002Z</time></trkpt><trkpt lat="45.353247090012744" lon="5.672020956576797"><ele>483.75</ele><time>2026-04-05T12:44:59.002Z</time></trkpt><trkpt lat="45.353348911910984" lon="5.672169983438303"><ele>482.5</ele><time>2026-04-05T12:45:00.002Z</time></trkpt><trkpt lat="45.35346266876383" lon="5.672186965679382"><ele>481.25</ele><time>2026-04-05T12:45:01.002Z</time></trkpt><trkpt lat="45.35358436906808" lon="5.672206749062566"><ele>480.0</ele><time>2026-04-05T12:45:02.002Z</time></trkpt><trkpt lat="45.35370935868205" lon="5.672235132752093"><ele>480.0</ele><time>2026-04-05T12:45:03.002Z</time></trkpt><trkpt lat="45.353842632136306" lon="5.67226404963503"><ele>480.0</ele><time>2026-04-05T12:45:04.002Z</time></trkpt><trkpt lat="45.353990605042156" lon="5.672303042296029"><ele>480.0</ele><time>2026-04-05T12:45:05.002Z</time></trkpt><trkpt lat="45.354124690584655" lon="5.672332911435267"><ele>480.0</ele><time>2026-04-05T12:45:06.002Z</time></trkpt><trkpt lat="45.354266064417054" lon="5.6723859850596"><ele>479.33333333333337</ele><time>2026-04-05T12:45:07.002Z</time></trkpt><trkpt lat="45.35440725391634" lon="5.672452395972739"><ele>478.6666666666667</ele><time>2026-04-05T12:45:08.002Z</time></trkpt><trkpt lat="45.35455767218532" lon="5.672528862758807"><ele>478.0</ele><time>2026-04-05T12:45:09.002Z</time></trkpt><trkpt lat="45.354705712011956" lon="5.672618703814746"><ele>477.0</ele><time>2026-04-05T12:45:10.002Z</time></trkpt><trkpt lat="45.35487329371263" lon="5.6726866470168265"><ele>476.0</ele><time>2026-04-05T12:45:11.002Z</time></trkpt><trkpt lat="45.35501137373632" lon="5.67283037367506"><ele>475.0</ele><time>2026-04-05T12:45:12.002Z</time></trkpt><trkpt lat="45.35515358097169" lon="5.672951597452072"><ele>474.5</ele><time>2026-04-05T12:45:13.002Z</time></trkpt><trkpt lat="45.3552876191291" lon="5.673070787648167"><ele>474.0</ele><time>2026-04-05T12:45:14.002Z</time></trkpt><trkpt lat="45.35542806895753" lon="5.673150048651172"><ele>473.5</ele><time>2026-04-05T12:45:15.002Z</time></trkpt><trkpt lat="45.355500885883465" lon="5.673225791395613"><ele>473.0</ele><time>2026-04-05T12:45:16.002Z</time></trkpt><trkpt lat="45.35562316644962" lon="5.673325765757846"><ele>472.2</ele><time>2026-04-05T12:45:18.002Z</time></trkpt><trkpt lat="45.355698474168975" lon="5.673381418348341"><ele>471.4</ele><time>2026-04-05T12:45:19.002Z</time></trkpt><trkpt lat="45.35578926050562" lon="5.673441861937329"><ele>470.59999999999997</ele><time>2026-04-05T12:45:20.002Z</time></trkpt><trkpt lat="45.355886927307786" lon="5.673510410489744"><ele>469.79999999999995</ele><time>2026-04-05T12:45:21.002Z</time></trkpt><trkpt lat="45.35598302231408" lon="5.673582360970075"><ele>469.0</ele><time>2026-04-05T12:45:22.002Z</time></trkpt><trkpt lat="45.35609531373923" lon="5.673664471396473"><ele>468.6666666666667</ele><time>2026-04-05T12:45:23.002Z</time></trkpt><trkpt lat="45.35621669208697" lon="5.673766719521834"><ele>468.33333333333337</ele><time>2026-04-05T12:45:24.002Z</time></trkpt><trkpt lat="45.35635475718781" lon="5.673880768313203"><ele>468.0</ele><time>2026-04-05T12:45:25.002Z</time></trkpt><trkpt lat="45.3564932354183" lon="5.6739992839946805"><ele>467.0</ele><time>2026-04-05T12:45:26.002Z</time></trkpt><trkpt lat="45.35663132552132" lon="5.674120192580529"><ele>466.0</ele><time>2026-04-05T12:45:27.002Z</time></trkpt><trkpt lat="45.35677152231376" lon="5.674241803607809"><ele>465.0</ele><time>2026-04-05T12:45:28.002Z</time></trkpt><trkpt lat="45.35690340873876" lon="5.6743752743681695"><ele>464.75</ele><time>2026-04-05T12:45:29.002Z</time></trkpt><trkpt lat="45.35701754204888" lon="5.674456039184702"><ele>464.5</ele><time>2026-04-05T12:45:30.002Z</time></trkpt><trkpt lat="45.357096363416886" lon="5.674546388202"><ele>464.25</ele><time>2026-04-05T12:45:31.002Z</time></trkpt><trkpt lat="45.35718946320779" lon="5.674638059002245"><ele>464.0</ele><time>2026-04-05T12:45:32.002Z</time></trkpt><trkpt lat="45.35728927077387" lon="5.674732188799382"><ele>462.0</ele><time>2026-04-05T12:45:33.002Z</time></trkpt><trkpt lat="45.35740384481854" lon="5.674839864667964"><ele>460.0</ele><time>2026-04-05T12:45:34.002Z</time></trkpt><trkpt lat="45.35753471312947" lon="5.674961931233714"><ele>458.0</ele><time>2026-04-05T12:45:35.002Z</time></trkpt><trkpt lat="45.357671000404466" lon="5.675094056691706"><ele>458.0</ele><time>2026-04-05T12:45:36.002Z</time></trkpt><trkpt lat="45.357815913995" lon="5.6752332243126595"><ele>458.0</ele><time>2026-04-05T12:45:37.002Z</time></trkpt><trkpt lat="45.35796790488282" lon="5.675352721193974"><ele>458.0</ele><time>2026-04-05T12:45:38.002Z</time></trkpt><trkpt lat="45.35814442989671" lon="5.6754477209494505"><ele>457.0</ele><time>2026-04-05T12:45:39Z</time></trkpt><trkpt lat="45.358345225184834" lon="5.6755205273733385"><ele>456.0</ele><time>2026-04-05T12:45:40Z</time></trkpt><trkpt lat="45.358559443160885" lon="5.675611497293093"><ele>455.0</ele><time>2026-04-05T12:45:41Z</time></trkpt><trkpt lat="45.358754014997395" lon="5.675697806093242"><ele>454.0</ele><time>2026-04-05T12:45:42Z</time></trkpt><trkpt lat="45.35894293670216" lon="5.675802453844424"><ele>453.0</ele><time>2026-04-05T12:45:43Z</time></trkpt><trkpt lat="45.35914274350216" lon="5.67592371294748"><ele>452.0</ele><time>2026-04-05T12:45:44Z</time></trkpt><trkpt lat="45.359309014513926" lon="5.676078561724844"><ele>452.0</ele><time>2026-04-05T12:45:45Z</time></trkpt><trkpt lat="45.35948692540505" lon="5.676226044409184"><ele>452.0</ele><time>2026-04-05T12:45:46Z</time></trkpt><trkpt lat="45.35967956851542" lon="5.676338229901792"><ele>452.0</ele><time>2026-04-05T12:45:47Z</time></trkpt><trkpt lat="45.35987525266954" lon="5.676445283608251"><ele>451.3333333333333</ele><time>2026-04-05T12:45:48Z</time></trkpt><trkpt lat="45.360063082224976" lon="5.6765562509855325"><ele>450.66666666666663</ele><time>2026-04-05T12:45:49Z</time></trkpt><trkpt lat="45.360250356173395" lon="5.676666938880767"><ele>450.0</ele><time>2026-04-05T12:45:50Z</time></trkpt><trkpt lat="45.3604399425007" lon="5.676777345880307"><ele>449.33333333333337</ele><time>2026-04-05T12:45:51Z</time></trkpt><trkpt lat="45.36061928579517" lon="5.676882382541941"><ele>448.6666666666667</ele><time>2026-04-05T12:45:52Z</time></trkpt><trkpt lat="45.36078786656396" lon="5.677000464663495"><ele>448.0</ele><time>2026-04-05T12:45:53Z</time></trkpt><trkpt lat="45.36094387280871" lon="5.677122551959677"><ele>447.33333333333337</ele><time>2026-04-05T12:45:54Z</time></trkpt><trkpt lat="45.36108985426166" lon="5.677274857136378"><ele>446.66666666666663</ele><time>2026-04-05T12:45:55Z</time></trkpt><trkpt lat="45.36121276476025" lon="5.677460512081741"><ele>446.0</ele><time>2026-04-05T12:45:56Z</time></trkpt><trkpt lat="45.36131530212052" lon="5.677666866889428"><ele>446.0</ele><time>2026-04-05T12:45:57Z</time></trkpt><trkpt lat="45.361412184278166" lon="5.677835531726815"><ele>446.0</ele><time>2026-04-05T12:45:58Z</time></trkpt><trkpt lat="45.36153389909274" lon="5.677985297629657"><ele>446.0</ele><time>2026-04-05T12:45:59Z</time></trkpt><trkpt lat="45.361663290851546" lon="5.678107483109126"><ele>446.0</ele><time>2026-04-05T12:46:00Z</time></trkpt><trkpt lat="45.36177853245638" lon="5.67822828913534"><ele>446.0</ele><time>2026-04-05T12:46:01Z</time></trkpt><trkpt lat="45.36190080654256" lon="5.6783401729108745"><ele>446.0</ele><time>2026-04-05T12:46:02Z</time></trkpt><trkpt lat="45.36200751546915" lon="5.6784530700295575"><ele>446.0</ele><time>2026-04-05T12:46:03Z</time></trkpt><trkpt lat="45.362127080095476" lon="5.678514516351378"><ele>445.75</ele><time>2026-04-05T12:46:04Z</time></trkpt><trkpt lat="45.3622500388925" lon="5.678550368858244"><ele>445.5</ele><time>2026-04-05T12:46:05Z</time></trkpt><trkpt lat="45.36236202728506" lon="5.678592633442562"><ele>445.25</ele><time>2026-04-05T12:46:06.001Z</time></trkpt><trkpt lat="45.36246663406295" lon="5.678639936735501"><ele>445.0</ele><time>2026-04-05T12:46:07.001Z</time></trkpt><trkpt lat="45.36256775938222" lon="5.678708101002383"><ele>444.83333333333337</ele><time>2026-04-05T12:46:08.001Z</time></trkpt><trkpt lat="45.36265873855406" lon="5.6787950616847365"><ele>444.6666666666667</ele><time>2026-04-05T12:46:09.001Z</time></trkpt><trkpt lat="45.36273269272116" lon="5.678900822191811"><ele>444.5</ele><time>2026-04-05T12:46:10.001Z</time></trkpt><trkpt lat="45.36275393829233" lon="5.679026527672328"><ele>444.33333333333337</ele><time>2026-04-05T12:46:11.001Z</time></trkpt><trkpt lat="45.362792454562644" lon="5.679104873700525"><ele>444.1666666666667</ele><time>2026-04-05T12:46:12.001Z</time></trkpt><trkpt lat="45.36282814341435" lon="5.6791900967895526"><ele>444.0</ele><time>2026-04-05T12:46:14.001Z</time></trkpt><trkpt lat="45.362836404266986" lon="5.679315772315604"><ele>444.0</ele><time>2026-04-05T12:46:24.001Z</time></trkpt><trkpt lat="45.36279796697684" lon="5.679423286385347"><ele>444.0</ele><time>2026-04-05T12:46:25.001Z</time></trkpt><trkpt lat="45.362767938042055" lon="5.679519208797454"><ele>444.0</ele><time>2026-04-05T12:46:26.001Z</time></trkpt><trkpt lat="45.362757603579645" lon="5.679638554538141"><ele>444.0</ele><time>2026-04-05T12:46:27.001Z</time></trkpt><trkpt lat="45.36276449433882" lon="5.679781968911509"><ele>444.0</ele><time>2026-04-05T12:46:28.001Z</time></trkpt><trkpt lat="45.36278210578337" lon="5.679920895956518"><ele>444.0</ele><time>2026-04-05T12:46:29.001Z</time></trkpt><trkpt lat="45.36281186706818" lon="5.680077085595137"><ele>443.75</ele><time>2026-04-05T12:46:30.001Z</time></trkpt><trkpt lat="45.36282089195071" lon="5.680210974672954"><ele>443.5</ele><time>2026-04-05T12:46:31.001Z</time></trkpt><trkpt lat="45.362929590985864" lon="5.680410969673651"><ele>443.25</ele><time>2026-04-05T12:46:32.001Z</time></trkpt><trkpt lat="45.36299662654061" lon="5.680575824901936"><ele>443.0</ele><time>2026-04-05T12:46:33.001Z</time></trkpt><trkpt lat="45.3630669802096" lon="5.680746787456818"><ele>442.3333333333333</ele><time>2026-04-05T12:46:34.001Z</time></trkpt><trkpt lat="45.36313689618313" lon="5.680936545804556"><ele>441.66666666666663</ele><time>2026-04-05T12:46:35.001Z</time></trkpt><trkpt lat="45.36321509740055" lon="5.681141615361201"><ele>441.0</ele><time>2026-04-05T12:46:36.001Z</time></trkpt><trkpt lat="45.36329640021219" lon="5.681342101755949"><ele>440.66666666666663</ele><time>2026-04-05T12:46:37.001Z</time></trkpt><trkpt lat="45.36338728332044" lon="5.68154548281236"><ele>440.3333333333333</ele><time>2026-04-05T12:46:38.001Z</time></trkpt><trkpt lat="45.36351681748885" lon="5.681728344756183"><ele>440.0</ele><time>2026-04-05T12:46:39.001Z</time></trkpt><trkpt lat="45.36367072901304" lon="5.681912261807909"><ele>439.66666666666663</ele><time>2026-04-05T12:46:40.001Z</time></trkpt><trkpt lat="45.36384089362113" lon="5.682077709238541"><ele>439.33333333333337</ele><time>2026-04-05T12:46:41.001Z</time></trkpt><trkpt lat="45.364012792715585" lon="5.682250043208936"><ele>439.0</ele><time>2026-04-05T12:46:42.001Z</time></trkpt><trkpt lat="45.364187158949306" lon="5.682428147244491"><ele>438.33333333333337</ele><time>2026-04-05T12:46:43.001Z</time></trkpt><trkpt lat="45.36435688284908" lon="5.682612743311193"><ele>437.66666666666663</ele><time>2026-04-05T12:46:44.001Z</time></trkpt><trkpt lat="45.36453963471444" lon="5.682808370443534"><ele>437.0</ele><time>2026-04-05T12:46:45.001Z</time></trkpt><trkpt lat="45.36472209209811" lon="5.683003406655144"><ele>435.66666666666663</ele><time>2026-04-05T12:46:46.001Z</time></trkpt><trkpt lat="45.36490367516552" lon="5.683193851813178"><ele>434.33333333333337</ele><time>2026-04-05T12:46:47.001Z</time></trkpt><trkpt lat="45.36508530068801" lon="5.683379282991129"><ele>433.0</ele><time>2026-04-05T12:46:48.001Z</time></trkpt><trkpt lat="45.36526726915083" lon="5.6835616960883355"><ele>432.6666666666667</ele><time>2026-04-05T12:46:49.001Z</time></trkpt><trkpt lat="45.36544524511007" lon="5.683749429599131"><ele>432.33333333333337</ele><time>2026-04-05T12:46:50.001Z</time></trkpt><trkpt lat="45.36561970106988" lon="5.683940059405101"><ele>432.0</ele><time>2026-04-05T12:46:51.001Z</time></trkpt><trkpt lat="45.365791075600406" lon="5.6841244202481835"><ele>431.66666666666663</ele><time>2026-04-05T12:46:52.001Z</time></trkpt><trkpt lat="45.36596038319096" lon="5.684301223442227"><ele>431.3333333333333</ele><time>2026-04-05T12:46:53.001Z</time></trkpt><trkpt lat="45.36612727122651" lon="5.6844735257301435"><ele>431.0</ele><time>2026-04-05T12:46:54.001Z</time></trkpt><trkpt lat="45.366288456208714" lon="5.684650327510922"><ele>429.66666666666663</ele><time>2026-04-05T12:46:55.001Z</time></trkpt><trkpt lat="45.36645060752634" lon="5.684829370531247"><ele>428.33333333333337</ele><time>2026-04-05T12:46:56.001Z</time></trkpt><trkpt lat="45.366611513885026" lon="5.685004554312853"><ele>427.0</ele><time>2026-04-05T12:46:57.001Z</time></trkpt><trkpt lat="45.36677081093648" lon="5.685179547638385"><ele>426.0</ele><time>2026-04-05T12:46:58.001Z</time></trkpt><trkpt lat="45.36693083701488" lon="5.685350733099612"><ele>425.0</ele><time>2026-04-05T12:46:59.001Z</time></trkpt><trkpt lat="45.367095957646725" lon="5.685509728273347"><ele>424.0</ele><time>2026-04-05T12:47:00.001Z</time></trkpt><trkpt lat="45.3672805322111" lon="5.685622437883187"><ele>424.0</ele><time>2026-04-05T12:47:01.001Z</time></trkpt><trkpt lat="45.367471222565975" lon="5.685704611501248"><ele>424.0</ele><time>2026-04-05T12:47:02.001Z</time></trkpt><trkpt lat="45.367672429087264" lon="5.68576170250296"><ele>424.0</ele><time>2026-04-05T12:47:03.001Z</time></trkpt><trkpt lat="45.36786440516703" lon="5.685869541619551"><ele>423.33333333333337</ele><time>2026-04-05T12:47:04.001Z</time></trkpt><trkpt lat="45.368055194865136" lon="5.685998973115006"><ele>422.66666666666663</ele><time>2026-04-05T12:47:05.001Z</time></trkpt><trkpt lat="45.36824826488105" lon="5.686130250526711"><ele>422.0</ele><time>2026-04-05T12:47:06.001Z</time></trkpt><trkpt lat="45.36843214830181" lon="5.686290623347791"><ele>421.66666666666663</ele><time>2026-04-05T12:47:07.002Z</time></trkpt><trkpt lat="45.368625311743635" lon="5.686443300296515"><ele>421.33333333333337</ele><time>2026-04-05T12:47:08.002Z</time></trkpt><trkpt lat="45.368824192197344" lon="5.686597074509445"><ele>421.0</ele><time>2026-04-05T12:47:09.002Z</time></trkpt><trkpt lat="45.36902090334955" lon="5.686751197493998"><ele>420.0</ele><time>2026-04-05T12:47:10.002Z</time></trkpt><trkpt lat="45.36922156678925" lon="5.686905180896901"><ele>419.0</ele><time>2026-04-05T12:47:11.002Z</time></trkpt><trkpt lat="45.36942567506268" lon="5.687060805887261"><ele>419.0</ele><time>2026-04-05T12:47:12.002Z</time></trkpt><trkpt lat="45.36963103765591" lon="5.687219132157563"><ele>419.0</ele><time>2026-04-05T12:47:13.002Z</time></trkpt><trkpt lat="45.369830245508375" lon="5.687385263368469"><ele>418.3333333333333</ele><time>2026-04-05T12:47:14.002Z</time></trkpt><trkpt lat="45.37001530342728" lon="5.6875550660143945"><ele>417.66666666666663</ele><time>2026-04-05T12:47:15.002Z</time></trkpt><trkpt lat="45.37019046068523" lon="5.6877341051493735"><ele>417.0</ele><time>2026-04-05T12:47:16.002Z</time></trkpt><trkpt lat="45.37035722264766" lon="5.687912673882283"><ele>416.66666666666663</ele><time>2026-04-05T12:47:17.002Z</time></trkpt><trkpt lat="45.370517990367155" lon="5.688101290486667"><ele>416.3333333333333</ele><time>2026-04-05T12:47:18.002Z</time></trkpt><trkpt lat="45.3706882159406" lon="5.688305539488924"><ele>416.0</ele><time>2026-04-05T12:47:19.002Z</time></trkpt><trkpt lat="45.37083232326629" lon="5.688547891840144"><ele>414.0</ele><time>2026-04-05T12:47:20.002Z</time></trkpt><trkpt lat="45.370976139008974" lon="5.688802309576497"><ele>412.0</ele><time>2026-04-05T12:47:21.002Z</time></trkpt><trkpt lat="45.37112540625981" lon="5.689057897397732"><ele>412.0</ele><time>2026-04-05T12:47:22.002Z</time></trkpt><trkpt lat="45.37124990222332" lon="5.689337083400237"><ele>412.0</ele><time>2026-04-05T12:47:23.002Z</time></trkpt><trkpt lat="45.371380503184085" lon="5.689604152494577"><ele>411.33333333333337</ele><time>2026-04-05T12:47:24.002Z</time></trkpt><trkpt lat="45.37150507564807" lon="5.6898658777742765"><ele>410.66666666666663</ele><time>2026-04-05T12:47:25.002Z</time></trkpt><trkpt lat="45.37160030718014" lon="5.69013767308327"><ele>410.0</ele><time>2026-04-05T12:47:26.002Z</time></trkpt><trkpt lat="45.371660207575445" lon="5.690428757154344"><ele>409.66666666666663</ele><time>2026-04-05T12:47:27.002Z</time></trkpt><trkpt lat="45.37170814318961" lon="5.690728200331486"><ele>409.33333333333337</ele><time>2026-04-05T12:47:28.002Z</time></trkpt><trkpt lat="45.371736563740825" lon="5.691037076295691"><ele>409.0</ele><time>2026-04-05T12:47:29.002Z</time></trkpt><trkpt lat="45.37174259631844" lon="5.69134869668242"><ele>408.6666666666667</ele><time>2026-04-05T12:47:30.002Z</time></trkpt><trkpt lat="45.37174256079582" lon="5.691659425877087"><ele>408.33333333333337</ele><time>2026-04-05T12:47:31.002Z</time></trkpt><trkpt lat="45.37173760796452" lon="5.691952371806613"><ele>408.0</ele><time>2026-04-05T12:47:32.002Z</time></trkpt><trkpt lat="45.37174269499427" lon="5.692235993204099"><ele>409.33333333333337</ele><time>2026-04-05T12:47:33.002Z</time></trkpt><trkpt lat="45.371773986308575" lon="5.692516079310919"><ele>410.6666666666667</ele><time>2026-04-05T12:47:34.002Z</time></trkpt><trkpt lat="45.37184345537979" lon="5.692785206371965"><ele>412.0</ele><time>2026-04-05T12:47:35.002Z</time></trkpt><trkpt lat="45.371923596632755" lon="5.693045061010019"><ele>413.0</ele><time>2026-04-05T12:47:36.002Z</time></trkpt><trkpt lat="45.37201880062935" lon="5.693290106203801"><ele>414.0</ele><time>2026-04-05T12:47:37.002Z</time></trkpt><trkpt lat="45.3721098155437" lon="5.693527603539019"><ele>415.0</ele><time>2026-04-05T12:47:38.002Z</time></trkpt><trkpt lat="45.372202738553305" lon="5.693751792940237"><ele>413.0</ele><time>2026-04-05T12:47:39.002Z</time></trkpt><trkpt lat="45.37229344348967" lon="5.693956675290048"><ele>411.0</ele><time>2026-04-05T12:47:40.002Z</time></trkpt><trkpt lat="45.372381353416166" lon="5.694142700665574"><ele>409.0</ele><time>2026-04-05T12:47:41.002Z</time></trkpt><trkpt lat="45.37247306795745" lon="5.694307149825314"><ele>410.5</ele><time>2026-04-05T12:47:42.002Z</time></trkpt><trkpt lat="45.37256390550152" lon="5.694467587587385"><ele>412.0</ele><time>2026-04-05T12:47:43.002Z</time></trkpt><trkpt lat="45.372647568936166" lon="5.6946183137092365"><ele>413.5</ele><time>2026-04-05T12:47:44.002Z</time></trkpt><trkpt lat="45.3727264734412" lon="5.694764846755673"><ele>415.0</ele><time>2026-04-05T12:47:45.001Z</time></trkpt><trkpt lat="45.37280822303812" lon="5.694909550760204"><ele>415.0</ele><time>2026-04-05T12:47:46.001Z</time></trkpt><trkpt lat="45.37288887362662" lon="5.6950574899781286"><ele>415.0</ele><time>2026-04-05T12:47:47.001Z</time></trkpt><trkpt lat="45.37296898359964" lon="5.695203050940439"><ele>415.0</ele><time>2026-04-05T12:47:48.001Z</time></trkpt><trkpt lat="45.37304829860065" lon="5.695349173738641"><ele>415.0</ele><time>2026-04-05T12:47:49.001Z</time></trkpt><trkpt lat="45.373127436576965" lon="5.69549290896463"><ele>414.0</ele><time>2026-04-05T12:47:50.001Z</time></trkpt><trkpt lat="45.373203341446235" lon="5.695635451850944"><ele>413.0</ele><time>2026-04-05T12:47:51.001Z</time></trkpt><trkpt lat="45.37327635430935" lon="5.695775446040334"><ele>412.0</ele><time>2026-04-05T12:47:52.001Z</time></trkpt><trkpt lat="45.373347048615884" lon="5.695910366002313"><ele>411.0</ele><time>2026-04-05T12:47:53.001Z</time></trkpt><trkpt lat="45.37341640467921" lon="5.696041623409174"><ele>411.6</ele><time>2026-04-05T12:47:54.001Z</time></trkpt><trkpt lat="45.37349064334819" lon="5.696166438519362"><ele>412.20000000000005</ele><time>2026-04-05T12:47:55.001Z</time></trkpt><trkpt lat="45.37356528103339" lon="5.696282711838838"><ele>412.79999999999995</ele><time>2026-04-05T12:47:56.001Z</time></trkpt><trkpt lat="45.37364383577728" lon="5.696391762456239"><ele>413.4</ele><time>2026-04-05T12:47:57.001Z</time></trkpt><trkpt lat="45.373724510387156" lon="5.6964868974389296"><ele>414.0</ele><time>2026-04-05T12:47:58.001Z</time></trkpt><trkpt lat="45.373888551383686" lon="5.696642982923047"><ele>414.0</ele><time>2026-04-05T12:48:00.001Z</time></trkpt><trkpt lat="45.373975878384925" lon="5.696710424261304"><ele>414.0</ele><time>2026-04-05T12:48:01.001Z</time></trkpt><trkpt lat="45.37406907017909" lon="5.696775140951498"><ele>414.0</ele><time>2026-04-05T12:48:02.001Z</time></trkpt><trkpt lat="45.37416419404334" lon="5.696836758710232"><ele>414.0</ele><time>2026-04-05T12:48:03.001Z</time></trkpt><trkpt lat="45.374266587147325" lon="5.696880706020357"><ele>414.0</ele><time>2026-04-05T12:48:04.001Z</time></trkpt><trkpt lat="45.37437477180503" lon="5.696913418396652"><ele>414.6</ele><time>2026-04-05T12:48:05.001Z</time></trkpt><trkpt lat="45.37447995809949" lon="5.696943201745447"><ele>415.2</ele><time>2026-04-05T12:48:06.001Z</time></trkpt><trkpt lat="45.3745815115874" lon="5.69696970084145"><ele>415.8</ele><time>2026-04-05T12:48:07.001Z</time></trkpt><trkpt lat="45.374684172107216" lon="5.697006381289336"><ele>416.40000000000003</ele><time>2026-04-05T12:48:08.001Z</time></trkpt><trkpt lat="45.374787521582746" lon="5.697023028512973"><ele>417.0</ele><time>2026-04-05T12:48:09.001Z</time></trkpt><trkpt lat="45.37489182695757" lon="5.697027640741528"><ele>417.20000000000005</ele><time>2026-04-05T12:48:10.001Z</time></trkpt><trkpt lat="45.37499421081589" lon="5.697045765749146"><ele>417.4</ele><time>2026-04-05T12:48:11.001Z</time></trkpt><trkpt lat="45.37509020161509" lon="5.697085244648968"><ele>417.6</ele><time>2026-04-05T12:48:12.001Z</time></trkpt><trkpt lat="45.375180158215144" lon="5.697135938612788"><ele>417.79999999999995</ele><time>2026-04-05T12:48:13.001Z</time></trkpt><trkpt lat="45.375270513705615" lon="5.697171627120422"><ele>418.0</ele><time>2026-04-05T12:48:14.001Z</time></trkpt><trkpt lat="45.375359043837" lon="5.697219792939663"><ele>418.00000000000006</ele><time>2026-04-05T12:48:15.001Z</time></trkpt><trkpt lat="45.37543818057055" lon="5.697256259313993"><ele>418.0</ele><time>2026-04-05T12:48:16.001Z</time></trkpt><trkpt lat="45.37553048231541" lon="5.697309332161922"><ele>418.0</ele><time>2026-04-05T12:48:17.001Z</time></trkpt><trkpt lat="45.37560229761178" lon="5.69734827829278"><ele>418.0</ele><time>2026-04-05T12:48:18.001Z</time></trkpt><trkpt lat="45.37565877690385" lon="5.697388259958777"><ele>418.00000000000006</ele><time>2026-04-05T12:48:19.001Z</time></trkpt><trkpt lat="45.375729882383624" lon="5.697428976508931"><ele>418.0</ele><time>2026-04-05T12:48:21.001Z</time></trkpt><trkpt lat="45.37580706681363" lon="5.697412149794578"><ele>418.25</ele><time>2026-04-05T12:48:48.001Z</time></trkpt><trkpt lat="45.375919490642005" lon="5.697528880449341"><ele>418.5</ele><time>2026-04-05T12:48:50.001Z</time></trkpt><trkpt lat="45.376039017042594" lon="5.697590819908987"><ele>418.75</ele><time>2026-04-05T12:48:51.001Z</time></trkpt><trkpt lat="45.376156073247394" lon="5.697651345670391"><ele>419.0</ele><time>2026-04-05T12:48:52.001Z</time></trkpt><trkpt lat="45.37626758211045" lon="5.697709003077313"><ele>418.4</ele><time>2026-04-05T12:48:53.001Z</time></trkpt><trkpt lat="45.37637290097409" lon="5.697763459850998"><ele>417.79999999999995</ele><time>2026-04-05T12:48:54.001Z</time></trkpt><trkpt lat="45.37647282560902" lon="5.697815127449844"><ele>417.20000000000005</ele><time>2026-04-05T12:48:55.001Z</time></trkpt><trkpt lat="45.376576223523216" lon="5.697869382402798"><ele>416.6</ele><time>2026-04-05T12:48:56.001Z</time></trkpt><trkpt lat="45.37667949873913" lon="5.697928881756824"><ele>416.0</ele><time>2026-04-05T12:48:57.001Z</time></trkpt><trkpt lat="45.37678285307463" lon="5.697995055813953"><ele>416.0</ele><time>2026-04-05T12:48:58.001Z</time></trkpt><trkpt lat="45.37689297737442" lon="5.6980505026308395"><ele>416.0</ele><time>2026-04-05T12:48:59.001Z</time></trkpt><trkpt lat="45.37699507369841" lon="5.6981414486622075"><ele>416.0</ele><time>2026-04-05T12:49:00.001Z</time></trkpt><trkpt lat="45.37709926804603" lon="5.698234140392088"><ele>416.0</ele><time>2026-04-05T12:49:01.001Z</time></trkpt><trkpt lat="45.377206349424746" lon="5.6983881825159965"><ele>415.0</ele><time>2026-04-05T12:49:02.001Z</time></trkpt><trkpt lat="45.377318863293546" lon="5.698614066168292"><ele>414.0</ele><time>2026-04-05T12:49:03.001Z</time></trkpt><trkpt lat="45.37746504559145" lon="5.698830563476806"><ele>413.0</ele><time>2026-04-05T12:49:04.001Z</time></trkpt><trkpt lat="45.37747727576638" lon="5.69871069084083"><ele>413.0</ele><time>2026-04-05T12:49:05.001Z</time></trkpt><trkpt lat="45.37756808917343" lon="5.698854159474334"><ele>413.0</ele><time>2026-04-05T12:49:06.001Z</time></trkpt><trkpt lat="45.37765770912049" lon="5.699002407638748"><ele>413.0</ele><time>2026-04-05T12:49:07.001Z</time></trkpt><trkpt lat="45.37774465454838" lon="5.6991503445944565"><ele>413.0</ele><time>2026-04-05T12:49:08.001Z</time></trkpt><trkpt lat="45.37784773021242" lon="5.6992974046923"><ele>413.66666666666663</ele><time>2026-04-05T12:49:09.001Z</time></trkpt><trkpt lat="45.3779496385839" lon="5.699469466314895"><ele>414.33333333333337</ele><time>2026-04-05T12:49:10.001Z</time></trkpt><trkpt lat="45.37804462689724" lon="5.699671316568777"><ele>415.0</ele><time>2026-04-05T12:49:11.001Z</time></trkpt><trkpt lat="45.37816611888151" lon="5.699844844328735"><ele>413.6666666666667</ele><time>2026-04-05T12:49:12.001Z</time></trkpt><trkpt lat="45.378256047364445" lon="5.700037429015017"><ele>412.33333333333337</ele><time>2026-04-05T12:49:13.001Z</time></trkpt><trkpt lat="45.37835820331411" lon="5.7002143303593265"><ele>411.0</ele><time>2026-04-05T12:49:14.001Z</time></trkpt><trkpt lat="45.37846407936514" lon="5.700397473773852"><ele>411.0</ele><time>2026-04-05T12:49:15.001Z</time></trkpt><trkpt lat="45.37857305785425" lon="5.700583746913151"><ele>411.0</ele><time>2026-04-05T12:49:16.001Z</time></trkpt><trkpt lat="45.37869572015592" lon="5.7007593324495796"><ele>411.0</ele><time>2026-04-05T12:49:17.001Z</time></trkpt><trkpt lat="45.378797361019316" lon="5.700952603619396"><ele>410.0</ele><time>2026-04-05T12:49:18.002Z</time></trkpt><trkpt lat="45.378913652852134" lon="5.701147900018086"><ele>409.0</ele><time>2026-04-05T12:49:19.002Z</time></trkpt><trkpt lat="45.37901729380602" lon="5.701338001136851"><ele>408.0</ele><time>2026-04-05T12:49:20.002Z</time></trkpt><trkpt lat="45.37910087084042" lon="5.70153793628821"><ele>408.0</ele><time>2026-04-05T12:49:21.002Z</time></trkpt><trkpt lat="45.37920516533186" lon="5.701728136939935"><ele>408.0</ele><time>2026-04-05T12:49:22.002Z</time></trkpt><trkpt lat="45.37928519943074" lon="5.70194203261068"><ele>408.0</ele><time>2026-04-05T12:49:23.002Z</time></trkpt><trkpt lat="45.37934276305504" lon="5.702176030143653"><ele>408.0</ele><time>2026-04-05T12:49:24.002Z</time></trkpt><trkpt lat="45.379399319675194" lon="5.70240481034082"><ele>408.0</ele><time>2026-04-05T12:49:25.002Z</time></trkpt><trkpt lat="45.3794483056571" lon="5.702639251904243"><ele>408.0</ele><time>2026-04-05T12:49:26.002Z</time></trkpt><trkpt lat="45.37950739730028" lon="5.702901638017286"><ele>408.0</ele><time>2026-04-05T12:49:27.002Z</time></trkpt><trkpt lat="45.37955756757819" lon="5.703152897563449"><ele>408.0</ele><time>2026-04-05T12:49:28.002Z</time></trkpt><trkpt lat="45.37962695771768" lon="5.703390368987903"><ele>408.0</ele><time>2026-04-05T12:49:29.002Z</time></trkpt><trkpt lat="45.379713717068846" lon="5.703626313854522"><ele>406.66666666666663</ele><time>2026-04-05T12:49:30.002Z</time></trkpt><trkpt lat="45.379823033447856" lon="5.703863804501232"><ele>405.3333333333333</ele><time>2026-04-05T12:49:31.002Z</time></trkpt><trkpt lat="45.379931873398874" lon="5.704109320067251"><ele>404.0</ele><time>2026-04-05T12:49:32.002Z</time></trkpt><trkpt lat="45.380045727063845" lon="5.704360096878698"><ele>406.66666666666663</ele><time>2026-04-05T12:49:33.002Z</time></trkpt><trkpt lat="45.38016898045949" lon="5.704623417304169"><ele>409.33333333333337</ele><time>2026-04-05T12:49:34.002Z</time></trkpt><trkpt lat="45.38029544641147" lon="5.704878631203504"><ele>412.0</ele><time>2026-04-05T12:49:35.002Z</time></trkpt><trkpt lat="45.38041223755836" lon="5.705122984888538"><ele>409.6666666666667</ele><time>2026-04-05T12:49:36.002Z</time></trkpt><trkpt lat="45.38051371346442" lon="5.705382573531371"><ele>407.33333333333337</ele><time>2026-04-05T12:49:37.002Z</time></trkpt><trkpt lat="45.380637116243825" lon="5.705632432932037"><ele>405.0</ele><time>2026-04-05T12:49:38.002Z</time></trkpt><trkpt lat="45.38074874431134" lon="5.7058736013892055"><ele>416.0</ele><time>2026-04-05T12:49:39.002Z</time></trkpt><trkpt lat="45.380870192656005" lon="5.706149148676808"><ele>427.0</ele><time>2026-04-05T12:49:40.002Z</time></trkpt><trkpt lat="45.380995607585554" lon="5.706409602073024"><ele>427.0</ele><time>2026-04-05T12:49:41.002Z</time></trkpt><trkpt lat="45.381122673655064" lon="5.706663873309261"><ele>427.0</ele><time>2026-04-05T12:49:42.002Z</time></trkpt><trkpt lat="45.381263466587455" lon="5.70690582118822"><ele>427.0</ele><time>2026-04-05T12:49:43.002Z</time></trkpt><trkpt lat="45.38142026942257" lon="5.707130343083928"><ele>422.5</ele><time>2026-04-05T12:49:44.002Z</time></trkpt><trkpt lat="45.38160060950481" lon="5.707354858178055"><ele>418.0</ele><time>2026-04-05T12:49:45.002Z</time></trkpt><trkpt lat="45.381775836128526" lon="5.7075500298638175"><ele>418.0</ele><time>2026-04-05T12:49:46.002Z</time></trkpt><trkpt lat="45.38197226479025" lon="5.70772310149363"><ele>418.0</ele><time>2026-04-05T12:49:47.002Z</time></trkpt><trkpt lat="45.38219612415397" lon="5.707919552595269"><ele>412.0</ele><time>2026-04-05T12:49:48.002Z</time></trkpt><trkpt lat="45.382360831443734" lon="5.708190017798333"><ele>406.0</ele><time>2026-04-05T12:49:49.002Z</time></trkpt><trkpt lat="45.38249651353473" lon="5.708482812771983"><ele>410.0</ele><time>2026-04-05T12:49:50.002Z</time></trkpt><trkpt lat="45.382631917636026" lon="5.708768119839066"><ele>414.0</ele><time>2026-04-05T12:49:51Z</time></trkpt><trkpt lat="45.38277122214191" lon="5.709048123433708"><ele>414.0</ele><time>2026-04-05T12:49:52Z</time></trkpt><trkpt lat="45.38290853676022" lon="5.709322431958247"><ele>414.0</ele><time>2026-04-05T12:49:53Z</time></trkpt><trkpt lat="45.383044736919054" lon="5.709589173223204"><ele>408.5</ele><time>2026-04-05T12:49:54Z</time></trkpt><trkpt lat="45.383179707696286" lon="5.709852738443971"><ele>403.0</ele><time>2026-04-05T12:49:55Z</time></trkpt><trkpt lat="45.383314840315506" lon="5.710118483401205"><ele>405.0</ele><time>2026-04-05T12:49:56Z</time></trkpt><trkpt lat="45.38344495596569" lon="5.710388623195009"><ele>407.0</ele><time>2026-04-05T12:49:57Z</time></trkpt><trkpt lat="45.38357002567726" lon="5.710656968813613"><ele>407.0</ele><time>2026-04-05T12:49:58Z</time></trkpt><trkpt lat="45.38370117078778" lon="5.710921505684078"><ele>407.0</ele><time>2026-04-05T12:49:59Z</time></trkpt><trkpt lat="45.38383490854655" lon="5.711184749633643"><ele>408.5</ele><time>2026-04-05T12:50:00Z</time></trkpt><trkpt lat="45.38396754158178" lon="5.7114494377375"><ele>410.0</ele><time>2026-04-05T12:50:01Z</time></trkpt><trkpt lat="45.384095738034304" lon="5.7117149213994844"><ele>412.5</ele><time>2026-04-05T12:50:02Z</time></trkpt><trkpt lat="45.384222456323286" lon="5.7119807323274765"><ele>415.0</ele><time>2026-04-05T12:50:03Z</time></trkpt><trkpt lat="45.38435072986533" lon="5.712243841755929"><ele>415.0</ele><time>2026-04-05T12:50:04Z</time></trkpt><trkpt lat="45.384481074361915" lon="5.712505350008191"><ele>415.0</ele><time>2026-04-05T12:50:05Z</time></trkpt><trkpt lat="45.38461334864127" lon="5.712763018872978"><ele>415.0</ele><time>2026-04-05T12:50:06Z</time></trkpt><trkpt lat="45.38474498139264" lon="5.713019850594182"><ele>410.33333333333337</ele><time>2026-04-05T12:50:07Z</time></trkpt><trkpt lat="45.384872798892246" lon="5.713277269625344"><ele>405.66666666666663</ele><time>2026-04-05T12:50:08Z</time></trkpt><trkpt lat="45.38499942705462" lon="5.713535003350806"><ele>401.0</ele><time>2026-04-05T12:50:09Z</time></trkpt><trkpt lat="45.385123903641905" lon="5.713792170850631"><ele>401.0</ele><time>2026-04-05T12:50:10Z</time></trkpt><trkpt lat="45.38524909000128" lon="5.714052199531196"><ele>401.0</ele><time>2026-04-05T12:50:11Z</time></trkpt><trkpt lat="45.385377181640486" lon="5.7143044681569855"><ele>401.0</ele><time>2026-04-05T12:50:12Z</time></trkpt><trkpt lat="45.385507141448365" lon="5.7145559909529355"><ele>401.0</ele><time>2026-04-05T12:50:13Z</time></trkpt><trkpt lat="45.38563529663556" lon="5.714805786701783"><ele>401.0</ele><time>2026-04-05T12:50:14Z</time></trkpt><trkpt lat="45.385756180633244" lon="5.715059530178038"><ele>401.0</ele><time>2026-04-05T12:50:15Z</time></trkpt><trkpt lat="45.385877604186824" lon="5.715305709935746"><ele>401.0</ele><time>2026-04-05T12:50:16Z</time></trkpt><trkpt lat="45.385999912212306" lon="5.7155487095106166"><ele>401.0</ele><time>2026-04-05T12:50:17Z</time></trkpt><trkpt lat="45.38611974258109" lon="5.715816014413475"><ele>401.0</ele><time>2026-04-05T12:50:18Z</time></trkpt><trkpt lat="45.386238539060386" lon="5.716064946809272"><ele>401.0</ele><time>2026-04-05T12:50:19Z</time></trkpt><trkpt lat="45.386357318967576" lon="5.716310702744754"><ele>401.0</ele><time>2026-04-05T12:50:20.001Z</time></trkpt><trkpt lat="45.3864804134187" lon="5.716555206990149"><ele>401.0</ele><time>2026-04-05T12:50:21.001Z</time></trkpt><trkpt lat="45.38660358978992" lon="5.7168009794293555"><ele>401.0</ele><time>2026-04-05T12:50:22.001Z</time></trkpt><trkpt lat="45.38672946969362" lon="5.717046329647625"><ele>401.0</ele><time>2026-04-05T12:50:23.001Z</time></trkpt><trkpt lat="45.38685458746303" lon="5.717290175212368"><ele>401.0</ele><time>2026-04-05T12:50:24.001Z</time></trkpt><trkpt lat="45.38697736902137" lon="5.717533292480238"><ele>401.66666666666663</ele><time>2026-04-05T12:50:25.001Z</time></trkpt><trkpt lat="45.38710286805144" lon="5.717777697510441"><ele>402.33333333333337</ele><time>2026-04-05T12:50:26.001Z</time></trkpt><trkpt lat="45.38723107641174" lon="5.7180212224072156"><ele>403.0</ele><time>2026-04-05T12:50:27.001Z</time></trkpt><trkpt lat="45.38735513945798" lon="5.718271721565481"><ele>403.0</ele><time>2026-04-05T12:50:28.001Z</time></trkpt><trkpt lat="45.38747421549667" lon="5.718524541733423"><ele>403.0</ele><time>2026-04-05T12:50:29.001Z</time></trkpt><trkpt lat="45.38758648400361" lon="5.718780284948668"><ele>403.0</ele><time>2026-04-05T12:50:30.001Z</time></trkpt><trkpt lat="45.38769463055987" lon="5.719034649198379"><ele>403.33333333333337</ele><time>2026-04-05T12:50:31.001Z</time></trkpt><trkpt lat="45.38779587967627" lon="5.719291603585167"><ele>403.66666666666663</ele><time>2026-04-05T12:50:32.001Z</time></trkpt><trkpt lat="45.387886786052086" lon="5.7195424794637555"><ele>404.0</ele><time>2026-04-05T12:50:33.001Z</time></trkpt><trkpt lat="45.387976139525506" lon="5.719785063126279"><ele>404.0</ele><time>2026-04-05T12:50:34.001Z</time></trkpt><trkpt lat="45.38804840184466" lon="5.720013121521768"><ele>404.0</ele><time>2026-04-05T12:50:35.001Z</time></trkpt><trkpt lat="45.3881011748744" lon="5.720239871833152"><ele>404.0</ele><time>2026-04-05T12:50:36.001Z</time></trkpt><trkpt lat="45.38814663584486" lon="5.720445639706504"><ele>404.3333333333333</ele><time>2026-04-05T12:50:37.001Z</time></trkpt><trkpt lat="45.38820562613311" lon="5.7206761982636385"><ele>404.66666666666663</ele><time>2026-04-05T12:50:38.001Z</time></trkpt><trkpt lat="45.38825518648194" lon="5.720911095003882"><ele>405.0</ele><time>2026-04-05T12:50:39.001Z</time></trkpt><trkpt lat="45.38830691636188" lon="5.721146714948807"><ele>405.0</ele><time>2026-04-05T12:50:40.001Z</time></trkpt><trkpt lat="45.38835286442468" lon="5.72138445423937"><ele>405.0</ele><time>2026-04-05T12:50:41.001Z</time></trkpt><trkpt lat="45.388392353629236" lon="5.721621382458151"><ele>405.0</ele><time>2026-04-05T12:50:42.001Z</time></trkpt><trkpt lat="45.38842561996209" lon="5.721854229198145"><ele>405.66666666666663</ele><time>2026-04-05T12:50:43.001Z</time></trkpt><trkpt lat="45.38845410940376" lon="5.722084959523096"><ele>406.3333333333333</ele><time>2026-04-05T12:50:44.001Z</time></trkpt><trkpt lat="45.38847703263469" lon="5.722318894432118"><ele>407.0</ele><time>2026-04-05T12:50:45.001Z</time></trkpt><trkpt lat="45.38849921764174" lon="5.722540921800095"><ele>407.75</ele><time>2026-04-05T12:50:46.001Z</time></trkpt><trkpt lat="45.38852259645488" lon="5.7227551437876345"><ele>408.5</ele><time>2026-04-05T12:50:47.001Z</time></trkpt><trkpt lat="45.388538339845965" lon="5.7229671410220755"><ele>409.25</ele><time>2026-04-05T12:50:48.001Z</time></trkpt><trkpt lat="45.38854808909444" lon="5.723174354823525"><ele>410.0</ele><time>2026-04-05T12:50:49.001Z</time></trkpt><trkpt lat="45.388556100167165" lon="5.723376384442617"><ele>410.0</ele><time>2026-04-05T12:50:50.001Z</time></trkpt><trkpt lat="45.38855941227447" lon="5.723571797299099"><ele>410.0</ele><time>2026-04-05T12:50:51.001Z</time></trkpt><trkpt lat="45.388559198247506" lon="5.723761977431442"><ele>410.0</ele><time>2026-04-05T12:50:52.001Z</time></trkpt><trkpt lat="45.388555066393145" lon="5.723954716510366"><ele>410.0</ele><time>2026-04-05T12:50:53.001Z</time></trkpt><trkpt lat="45.388550463701165" lon="5.724139738493985"><ele>410.0</ele><time>2026-04-05T12:50:54.001Z</time></trkpt><trkpt lat="45.38855154054786" lon="5.724317942657362"><ele>410.0</ele><time>2026-04-05T12:50:55.001Z</time></trkpt><trkpt lat="45.38855284119281" lon="5.724490505396039"><ele>410.0</ele><time>2026-04-05T12:50:56.001Z</time></trkpt><trkpt lat="45.38853596463544" lon="5.724658926312328"><ele>410.0</ele><time>2026-04-05T12:50:57.001Z</time></trkpt><trkpt lat="45.38850416401253" lon="5.724825743550369"><ele>409.75</ele><time>2026-04-05T12:50:58.001Z</time></trkpt><trkpt lat="45.38849011341733" lon="5.72499825050845"><ele>409.5</ele><time>2026-04-05T12:50:59.001Z</time></trkpt><trkpt lat="45.388483270485935" lon="5.7251811383858815"><ele>409.25</ele><time>2026-04-05T12:51:00.001Z</time></trkpt><trkpt lat="45.388460327222134" lon="5.725361063701273"><ele>409.0</ele><time>2026-04-05T12:51:01.001Z</time></trkpt><trkpt lat="45.38844335687746" lon="5.725544067754251"><ele>409.5</ele><time>2026-04-05T12:51:02.001Z</time></trkpt><trkpt lat="45.388416780884334" lon="5.725726186756435"><ele>410.0</ele><time>2026-04-05T12:51:03.001Z</time></trkpt><trkpt lat="45.388391980332976" lon="5.725907586691021"><ele>410.5</ele><time>2026-04-05T12:51:04.001Z</time></trkpt><trkpt lat="45.388371173819884" lon="5.726092304398882"><ele>411.0</ele><time>2026-04-05T12:51:05.001Z</time></trkpt><trkpt lat="45.38833565224447" lon="5.726273580590527"><ele>411.0</ele><time>2026-04-05T12:51:06.001Z</time></trkpt><trkpt lat="45.38830952765257" lon="5.726459779902002"><ele>411.0</ele><time>2026-04-05T12:51:07.001Z</time></trkpt><trkpt lat="45.38829748902871" lon="5.726653033200853"><ele>411.0</ele><time>2026-04-05T12:51:08.001Z</time></trkpt><trkpt lat="45.38827102977103" lon="5.726837502877764"><ele>411.0</ele><time>2026-04-05T12:51:09.001Z</time></trkpt><trkpt lat="45.388238844392525" lon="5.7270244628781"><ele>411.0</ele><time>2026-04-05T12:51:10.001Z</time></trkpt><trkpt lat="45.388210727522974" lon="5.727212021135311"><ele>411.0</ele><time>2026-04-05T12:51:11.001Z</time></trkpt><trkpt lat="45.388184547447516" lon="5.727399051532702"><ele>411.0</ele><time>2026-04-05T12:51:12.001Z</time></trkpt><trkpt lat="45.38815754318506" lon="5.727584052715096"><ele>411.0</ele><time>2026-04-05T12:51:13.001Z</time></trkpt><trkpt lat="45.388129617227946" lon="5.727771433488585"><ele>411.25</ele><time>2026-04-05T12:51:14.001Z</time></trkpt><trkpt lat="45.388103659986236" lon="5.727958416857338"><ele>411.5</ele><time>2026-04-05T12:51:15.001Z</time></trkpt><trkpt lat="45.38807720695694" lon="5.728142187556762"><ele>411.75</ele><time>2026-04-05T12:51:16.001Z</time></trkpt><trkpt lat="45.388049579711534" lon="5.72832326049274"><ele>412.0</ele><time>2026-04-05T12:51:17.001Z</time></trkpt><trkpt lat="45.38801977366553" lon="5.728505015677149"><ele>412.75</ele><time>2026-04-05T12:51:18.001Z</time></trkpt><trkpt lat="45.387991341654356" lon="5.728685592071263"><ele>413.5</ele><time>2026-04-05T12:51:19.001Z</time></trkpt><trkpt lat="45.38796211911948" lon="5.72892053491481"><ele>414.25</ele><time>2026-04-05T12:51:20.001Z</time></trkpt><trkpt lat="45.387935161234545" lon="5.729061838916072"><ele>415.0</ele><time>2026-04-05T12:51:21.001Z</time></trkpt><trkpt lat="45.38791167509214" lon="5.729236181408682"><ele>415.0</ele><time>2026-04-05T12:51:22.001Z</time></trkpt><trkpt lat="45.387881888976004" lon="5.729431101670549"><ele>415.0</ele><time>2026-04-05T12:51:23.001Z</time></trkpt><trkpt lat="45.38786152834147" lon="5.729595911248104"><ele>415.0</ele><time>2026-04-05T12:51:24.001Z</time></trkpt><trkpt lat="45.38783720606039" lon="5.729768054715208"><ele>415.0</ele><time>2026-04-05T12:51:25.001Z</time></trkpt><trkpt lat="45.38781229732486" lon="5.729942598717784"><ele>415.0</ele><time>2026-04-05T12:51:26.001Z</time></trkpt><trkpt lat="45.38777266587561" lon="5.730106598002569"><ele>415.0</ele><time>2026-04-05T12:51:27.001Z</time></trkpt><trkpt lat="45.38772369192876" lon="5.730273777324065"><ele>415.0</ele><time>2026-04-05T12:51:28.001Z</time></trkpt><trkpt lat="45.38769232974509" lon="5.730445517529095"><ele>415.0</ele><time>2026-04-05T12:51:29.001Z</time></trkpt><trkpt lat="45.38767301921522" lon="5.730606291127329"><ele>414.75</ele><time>2026-04-05T12:51:30.001Z</time></trkpt><trkpt lat="45.387668275207886" lon="5.730772745977351"><ele>414.5</ele><time>2026-04-05T12:51:31.001Z</time></trkpt><trkpt lat="45.387656628773705" lon="5.730938606200183"><ele>414.25</ele><time>2026-04-05T12:51:32.002Z</time></trkpt><trkpt lat="45.38764233341766" lon="5.731113406020012"><ele>414.0</ele><time>2026-04-05T12:51:33.002Z</time></trkpt><trkpt lat="45.387627824302854" lon="5.7312941994482784"><ele>414.5</ele><time>2026-04-05T12:51:34.002Z</time></trkpt><trkpt lat="45.38760082770926" lon="5.731476107218887"><ele>415.0</ele><time>2026-04-05T12:51:35.002Z</time></trkpt><trkpt lat="45.38757119231916" lon="5.731660179625325"><ele>415.5</ele><time>2026-04-05T12:51:36.002Z</time></trkpt><trkpt lat="45.38754785242185" lon="5.731839856646293"><ele>416.0</ele><time>2026-04-05T12:51:37.002Z</time></trkpt><trkpt lat="45.38753359456512" lon="5.7320034956210675"><ele>416.0</ele><time>2026-04-05T12:51:38.002Z</time></trkpt><trkpt lat="45.38750967144462" lon="5.73216077990513"><ele>416.0</ele><time>2026-04-05T12:51:39.002Z</time></trkpt><trkpt lat="45.387483559308095" lon="5.732328880026005"><ele>416.0</ele><time>2026-04-05T12:51:40.002Z</time></trkpt><trkpt lat="45.38745842211355" lon="5.732502733645594"><ele>416.0</ele><time>2026-04-05T12:51:41.002Z</time></trkpt><trkpt lat="45.38743601744735" lon="5.732675252783067"><ele>416.4</ele><time>2026-04-05T12:51:42.002Z</time></trkpt><trkpt lat="45.38741400545977" lon="5.732832195523179"><ele>416.8</ele><time>2026-04-05T12:51:43.002Z</time></trkpt><trkpt lat="45.38740111187785" lon="5.732975492035668"><ele>417.2</ele><time>2026-04-05T12:51:44.002Z</time></trkpt><trkpt lat="45.387383422645605" lon="5.733109142683879"><ele>417.59999999999997</ele><time>2026-04-05T12:51:45.002Z</time></trkpt><trkpt lat="45.38736325766077" lon="5.733235695250152"><ele>418.0</ele><time>2026-04-05T12:51:46.002Z</time></trkpt><trkpt lat="45.38734142947207" lon="5.733362413656668"><ele>418.00000000000006</ele><time>2026-04-05T12:51:47.002Z</time></trkpt><trkpt lat="45.3873125595664" lon="5.733484595176558"><ele>418.0</ele><time>2026-04-05T12:51:48.002Z</time></trkpt><trkpt lat="45.387276390025654" lon="5.7335981027087595"><ele>418.0</ele><time>2026-04-05T12:51:49.002Z</time></trkpt><trkpt lat="45.38723460314575" lon="5.733703580118896"><ele>418.0</ele><time>2026-04-05T12:51:50.002Z</time></trkpt><trkpt lat="45.38719159252328" lon="5.733817396946009"><ele>418.00000000000006</ele><time>2026-04-05T12:51:51.002Z</time></trkpt><trkpt lat="45.38714793231739" lon="5.733931901053003"><ele>418.0</ele><time>2026-04-05T12:51:52.002Z</time></trkpt><trkpt lat="45.38710075278201" lon="5.73404145097862"><ele>419.33333333333337</ele><time>2026-04-05T12:51:53.002Z</time></trkpt><trkpt lat="45.38706234394136" lon="5.734144991828646"><ele>420.6666666666667</ele><time>2026-04-05T12:51:54.002Z</time></trkpt><trkpt lat="45.38703399942068" lon="5.734246525253365"><ele>422.0</ele><time>2026-04-05T12:51:55.002Z</time></trkpt><trkpt lat="45.387017244317796" lon="5.734350732025342"><ele>423.33333333333337</ele><time>2026-04-05T12:51:56.002Z</time></trkpt><trkpt lat="45.387024498461095" lon="5.734478183193544"><ele>424.6666666666667</ele><time>2026-04-05T12:51:57Z</time></trkpt><trkpt lat="45.38700352133334" lon="5.734594429470729"><ele>426.0</ele><time>2026-04-05T12:51:58Z</time></trkpt><trkpt lat="45.38701508382663" lon="5.734700099008046"><ele>425.99999999999994</ele><time>2026-04-05T12:51:59Z</time></trkpt><trkpt lat="45.38699688738259" lon="5.734799989343495"><ele>426.0</ele><time>2026-04-05T12:52:00Z</time></trkpt><trkpt lat="45.38699927973421" lon="5.734899000178665"><ele>426.0</ele><time>2026-04-05T12:52:01Z</time></trkpt><trkpt lat="45.38700668818285" lon="5.7350024359154785"><ele>426.0</ele><time>2026-04-05T12:52:02Z</time></trkpt><trkpt lat="45.387015047462825" lon="5.735101004484472"><ele>426.0</ele><time>2026-04-05T12:52:03Z</time></trkpt><trkpt lat="45.38701358525165" lon="5.735197165448344"><ele>425.99999999999994</ele><time>2026-04-05T12:52:04Z</time></trkpt><trkpt lat="45.3870104212756" lon="5.735294238929458"><ele>426.0</ele><time>2026-04-05T12:52:05Z</time></trkpt><trkpt lat="45.387007426157844" lon="5.735386131717119"><ele>425.0</ele><time>2026-04-05T12:52:06Z</time></trkpt><trkpt lat="45.38700188278675" lon="5.73555620707922"><ele>424.0</ele><time>2026-04-05T12:52:08Z</time></trkpt><trkpt lat="45.387004218865826" lon="5.735678820398111"><ele>423.0</ele><time>2026-04-05T12:52:10Z</time></trkpt><trkpt lat="45.38694662797047" lon="5.7357237767999525"><ele>422.0</ele><time>2026-04-05T12:52:12Z</time></trkpt><trkpt lat="45.38685458346005" lon="5.735728405478683"><ele>421.0</ele><time>2026-04-05T12:52:15Z</time></trkpt><trkpt lat="45.386772506713605" lon="5.735739121980823"><ele>420.0</ele><time>2026-04-05T12:52:17Z</time></trkpt><trkpt lat="45.38668507801145" lon="5.735724242996409"><ele>420.0</ele><time>2026-04-05T12:52:19Z</time></trkpt><trkpt lat="45.38658475266662" lon="5.735731745334389"><ele>420.0</ele><time>2026-04-05T12:52:21Z</time></trkpt><trkpt lat="45.386461540469845" lon="5.735738686278518"><ele>420.0</ele><time>2026-04-05T12:52:23Z</time></trkpt><trkpt lat="45.38639665814928" lon="5.735740757543914"><ele>420.0</ele><time>2026-04-05T12:52:24Z</time></trkpt><trkpt lat="45.38632472925442" lon="5.735743053736836"><ele>420.0</ele><time>2026-04-05T12:52:25Z</time></trkpt><trkpt lat="45.38624656249055" lon="5.735742604701517"><ele>420.0</ele><time>2026-04-05T12:52:26Z</time></trkpt><trkpt lat="45.38616440168425" lon="5.735734434067715"><ele>420.5</ele><time>2026-04-05T12:52:27Z</time></trkpt><trkpt lat="45.38605195696345" lon="5.735696844186923"><ele>421.0</ele><time>2026-04-05T12:52:29Z</time></trkpt><trkpt lat="45.38598897103847" lon="5.735675717925654"><ele>421.5</ele><time>2026-04-05T12:52:30Z</time></trkpt><trkpt lat="45.38582197180525" lon="5.735601354838963"><ele>422.0</ele><time>2026-04-05T12:52:31Z</time></trkpt><trkpt lat="45.385720602903646" lon="5.735575532277616"><ele>422.0</ele><time>2026-04-05T12:52:32Z</time></trkpt><trkpt lat="45.38562212899339" lon="5.735541846483018"><ele>422.0</ele><time>2026-04-05T12:52:33Z</time></trkpt><trkpt lat="45.3855230722079" lon="5.735495438616743"><ele>422.0</ele><time>2026-04-05T12:52:34Z</time></trkpt><trkpt lat="45.38541437549421" lon="5.73540788481465"><ele>422.0</ele><time>2026-04-05T12:52:35Z</time></trkpt><trkpt lat="45.38529333368295" lon="5.735338586087512"><ele>422.75</ele><time>2026-04-05T12:52:36Z</time></trkpt><trkpt lat="45.385180246677834" lon="5.735280570427491"><ele>423.5</ele><time>2026-04-05T12:52:37.001Z</time></trkpt><trkpt lat="45.385060921627996" lon="5.735256160773772"><ele>424.25</ele><time>2026-04-05T12:52:38.001Z</time></trkpt><trkpt lat="45.3849562807829" lon="5.735221902242653"><ele>425.0</ele><time>2026-04-05T12:52:39.001Z</time></trkpt><trkpt lat="45.38484833388869" lon="5.735192822518049"><ele>425.4</ele><time>2026-04-05T12:52:40.001Z</time></trkpt><trkpt lat="45.38473253584916" lon="5.735192379267817"><ele>425.8</ele><time>2026-04-05T12:52:41.001Z</time></trkpt><trkpt lat="45.384614336509095" lon="5.735197635522883"><ele>426.20000000000005</ele><time>2026-04-05T12:52:42.001Z</time></trkpt><trkpt lat="45.38450879561885" lon="5.735205291665945"><ele>426.6</ele><time>2026-04-05T12:52:43.001Z</time></trkpt><trkpt lat="45.38440273532628" lon="5.735213340034649"><ele>427.0</ele><time>2026-04-05T12:52:44.001Z</time></trkpt><trkpt lat="45.38430156743122" lon="5.735244675456108"><ele>427.0</ele><time>2026-04-05T12:52:45.001Z</time></trkpt><trkpt lat="45.38418223616577" lon="5.735241712160347"><ele>427.0</ele><time>2026-04-05T12:52:46.001Z</time></trkpt><trkpt lat="45.38406472157469" lon="5.735239652087515"><ele>427.0</ele><time>2026-04-05T12:52:47.001Z</time></trkpt><trkpt lat="45.383911322276134" lon="5.735227371784924"><ele>427.0</ele><time>2026-04-05T12:52:48.001Z</time></trkpt><trkpt lat="45.38378399811923" lon="5.735210809827415"><ele>433.33333333333337</ele><time>2026-04-05T12:52:49.001Z</time></trkpt><trkpt lat="45.383639248925455" lon="5.735197999131761"><ele>439.66666666666663</ele><time>2026-04-05T12:52:50.001Z</time></trkpt><trkpt lat="45.383486281776115" lon="5.735186140600693"><ele>446.0</ele><time>2026-04-05T12:52:51.001Z</time></trkpt><trkpt lat="45.3833178269635" lon="5.735199468017107"><ele>439.3333333333333</ele><time>2026-04-05T12:52:52.001Z</time></trkpt><trkpt lat="45.38314509374872" lon="5.735223145302841"><ele>432.66666666666663</ele><time>2026-04-05T12:52:53.001Z</time></trkpt><trkpt lat="45.38295903793496" lon="5.735254013023918"><ele>426.0</ele><time>2026-04-05T12:52:54.001Z</time></trkpt><trkpt lat="45.382782929964854" lon="5.735277483431232"><ele>426.0</ele><time>2026-04-05T12:52:55.001Z</time></trkpt><trkpt lat="45.38260762703357" lon="5.735304484550423"><ele>426.0</ele><time>2026-04-05T12:52:56.001Z</time></trkpt><trkpt lat="45.382408747289965" lon="5.73532405163038"><ele>426.0</ele><time>2026-04-05T12:52:57.001Z</time></trkpt><trkpt lat="45.38222811304422" lon="5.735400974014912"><ele>432.33333333333337</ele><time>2026-04-05T12:52:58.001Z</time></trkpt><trkpt lat="45.38206009904652" lon="5.735499840630529"><ele>438.6666666666667</ele><time>2026-04-05T12:52:59.001Z</time></trkpt><trkpt lat="45.381884932602475" lon="5.735586047378592"><ele>445.0</ele><time>2026-04-05T12:53:00.001Z</time></trkpt><trkpt lat="45.38171200857426" lon="5.735656025175613"><ele>445.0</ele><time>2026-04-05T12:53:01.001Z</time></trkpt><trkpt lat="45.38153728442579" lon="5.735746994215999"><ele>445.0</ele><time>2026-04-05T12:53:02.001Z</time></trkpt><trkpt lat="45.381370573197344" lon="5.735833553304943"><ele>445.0</ele><time>2026-04-05T12:53:03.001Z</time></trkpt><trkpt lat="45.38121997106767" lon="5.735956420548614"><ele>444.0</ele><time>2026-04-05T12:53:04.001Z</time></trkpt><trkpt lat="45.381084968809304" lon="5.736124028785935"><ele>443.0</ele><time>2026-04-05T12:53:05.001Z</time></trkpt><trkpt lat="45.38095864946758" lon="5.736313606429503"><ele>442.0</ele><time>2026-04-05T12:53:06.001Z</time></trkpt><trkpt lat="45.380842898065886" lon="5.736520543652794"><ele>442.0</ele><time>2026-04-05T12:53:07.001Z</time></trkpt><trkpt lat="45.38073276623722" lon="5.736730959575647"><ele>442.0</ele><time>2026-04-05T12:53:08.001Z</time></trkpt><trkpt lat="45.380616566202896" lon="5.737001503397223"><ele>442.0</ele><time>2026-04-05T12:53:09.001Z</time></trkpt><trkpt lat="45.380529775231466" lon="5.737194577236675"><ele>443.0</ele><time>2026-04-05T12:53:10.001Z</time></trkpt><trkpt lat="45.380430152769236" lon="5.737408925613469"><ele>444.0</ele><time>2026-04-05T12:53:11.001Z</time></trkpt><trkpt lat="45.38032789368861" lon="5.737623412604957"><ele>445.0</ele><time>2026-04-05T12:53:12.001Z</time></trkpt><trkpt lat="45.38021718297233" lon="5.737822899893565"><ele>445.0</ele><time>2026-04-05T12:53:13.001Z</time></trkpt><trkpt lat="45.380085612871696" lon="5.738004604600569"><ele>445.0</ele><time>2026-04-05T12:53:14.001Z</time></trkpt><trkpt lat="45.37994645462456" lon="5.7381739694688445"><ele>445.0</ele><time>2026-04-05T12:53:15.001Z</time></trkpt><trkpt lat="45.37980763315845" lon="5.738349595212287"><ele>446.33333333333337</ele><time>2026-04-05T12:53:16.001Z</time></trkpt><trkpt lat="45.37969081421664" lon="5.738553705748874"><ele>447.66666666666663</ele><time>2026-04-05T12:53:17.001Z</time></trkpt><trkpt lat="45.37958940766896" lon="5.738803670452495"><ele>449.0</ele><time>2026-04-05T12:53:18.001Z</time></trkpt><trkpt lat="45.379524627773655" lon="5.739078289108792"><ele>451.66666666666663</ele><time>2026-04-05T12:53:19.001Z</time></trkpt><trkpt lat="45.37949507453712" lon="5.739342304730123"><ele>454.33333333333337</ele><time>2026-04-05T12:53:20.001Z</time></trkpt><trkpt lat="45.37942378186468" lon="5.739592350504845"><ele>457.0</ele><time>2026-04-05T12:53:21.001Z</time></trkpt><trkpt lat="45.37933714948676" lon="5.739819766530592"><ele>457.0</ele><time>2026-04-05T12:53:22.001Z</time></trkpt><trkpt lat="45.37921366615921" lon="5.740038512295835"><ele>457.0</ele><time>2026-04-05T12:53:23.001Z</time></trkpt><trkpt lat="45.379102469685144" lon="5.740264828369047"><ele>457.0</ele><time>2026-04-05T12:53:24.001Z</time></trkpt><trkpt lat="45.378982355204286" lon="5.74049186245829"><ele>456.33333333333337</ele><time>2026-04-05T12:53:25.001Z</time></trkpt><trkpt lat="45.3788858369564" lon="5.7407662424266315"><ele>455.66666666666663</ele><time>2026-04-05T12:53:26.001Z</time></trkpt><trkpt lat="45.37880984186779" lon="5.741029966346305"><ele>455.0</ele><time>2026-04-05T12:53:27.001Z</time></trkpt><trkpt lat="45.37874128938268" lon="5.741288345040148"><ele>460.66666666666663</ele><time>2026-04-05T12:53:28.001Z</time></trkpt><trkpt lat="45.37869494759637" lon="5.741537373220763"><ele>466.33333333333337</ele><time>2026-04-05T12:53:29.001Z</time></trkpt><trkpt lat="45.378680890728575" lon="5.741793803372053"><ele>472.0</ele><time>2026-04-05T12:53:30.001Z</time></trkpt><trkpt lat="45.37870709714605" lon="5.742032165110176"><ele>472.0</ele><time>2026-04-05T12:53:31.001Z</time></trkpt><trkpt lat="45.37875065444365" lon="5.742267127733891"><ele>472.0</ele><time>2026-04-05T12:53:32.001Z</time></trkpt><trkpt lat="45.37881308730038" lon="5.742489884974261"><ele>472.0</ele><time>2026-04-05T12:53:33.001Z</time></trkpt><trkpt lat="45.37894497901351" lon="5.742694788890368"><ele>460.0</ele><time>2026-04-05T12:53:34.001Z</time></trkpt><trkpt lat="45.37907745180534" lon="5.742890121068688"><ele>448.0</ele><time>2026-04-05T12:53:35.001Z</time></trkpt><trkpt lat="45.37919054494263" lon="5.743105228363499"><ele>436.0</ele><time>2026-04-05T12:53:36.001Z</time></trkpt><trkpt lat="45.37929973357598" lon="5.743325156465398"><ele>436.0</ele><time>2026-04-05T12:53:37.001Z</time></trkpt><trkpt lat="45.37940897156446" lon="5.743537127759529"><ele>436.0</ele><time>2026-04-05T12:53:38.001Z</time></trkpt><trkpt lat="45.379497232122155" lon="5.743747308263951"><ele>436.0</ele><time>2026-04-05T12:53:39.001Z</time></trkpt><trkpt lat="45.379592051107814" lon="5.743934845737646"><ele>438.75</ele><time>2026-04-05T12:53:40.001Z</time></trkpt><trkpt lat="45.37967061619044" lon="5.744109922864106"><ele>441.5</ele><time>2026-04-05T12:53:41.001Z</time></trkpt><trkpt lat="45.379719612772135" lon="5.744284918012508"><ele>444.25</ele><time>2026-04-05T12:53:42.001Z</time></trkpt><trkpt lat="45.37972946520183" lon="5.744472252613155"><ele>447.0</ele><time>2026-04-05T12:53:43.001Z</time></trkpt><trkpt lat="45.37969284535559" lon="5.7446626941325345"><ele>451.66666666666663</ele><time>2026-04-05T12:53:44.001Z</time></trkpt><trkpt lat="45.37965724491664" lon="5.744876869006341"><ele>456.3333333333333</ele><time>2026-04-05T12:53:45.001Z</time></trkpt><trkpt lat="45.37964598409571" lon="5.7451104993831175"><ele>461.0</ele><time>2026-04-05T12:53:46.001Z</time></trkpt><trkpt lat="45.37965505746766" lon="5.745342356646281"><ele>460.66666666666663</ele><time>2026-04-05T12:53:47.001Z</time></trkpt><trkpt lat="45.37968300656192" lon="5.745574738420479"><ele>460.33333333333337</ele><time>2026-04-05T12:53:48.002Z</time></trkpt><trkpt lat="45.37974111659948" lon="5.745802239212077"><ele>460.0</ele><time>2026-04-05T12:53:49.002Z</time></trkpt><trkpt lat="45.37977423822534" lon="5.746021273773196"><ele>459.75</ele><time>2026-04-05T12:53:50.002Z</time></trkpt><trkpt lat="45.379816706337955" lon="5.746223088732907"><ele>459.5</ele><time>2026-04-05T12:53:51.002Z</time></trkpt><trkpt lat="45.37984053758797" lon="5.746405583947873"><ele>459.25</ele><time>2026-04-05T12:53:52.002Z</time></trkpt><trkpt lat="45.37983158385849" lon="5.7465892995442225"><ele>459.0</ele><time>2026-04-05T12:53:53.002Z</time></trkpt><trkpt lat="45.37976853778491" lon="5.746741682519906"><ele>458.75</ele><time>2026-04-05T12:53:54.002Z</time></trkpt><trkpt lat="45.37966134841529" lon="5.746857537564199"><ele>458.5</ele><time>2026-04-05T12:53:55.002Z</time></trkpt><trkpt lat="45.37954327273856" lon="5.746986300454265"><ele>458.25</ele><time>2026-04-05T12:53:56.002Z</time></trkpt><trkpt lat="45.37941861896221" lon="5.747115456389926"><ele>458.0</ele><time>2026-04-05T12:53:57.002Z</time></trkpt><trkpt lat="45.37926662535793" lon="5.7471704522553315"><ele>457.0</ele><time>2026-04-05T12:53:58.002Z</time></trkpt><trkpt lat="45.37911903418027" lon="5.747215336828227"><ele>456.0</ele><time>2026-04-05T12:53:59.002Z</time></trkpt><trkpt lat="45.378967012919595" lon="5.747250330614002"><ele>455.0</ele><time>2026-04-05T12:54:00.002Z</time></trkpt><trkpt lat="45.37880566520346" lon="5.747275597326295"><ele>455.0</ele><time>2026-04-05T12:54:01.002Z</time></trkpt><trkpt lat="45.37864241499878" lon="5.7472888949626295"><ele>455.0</ele><time>2026-04-05T12:54:02.002Z</time></trkpt><trkpt lat="45.37847780451715" lon="5.747325969879577"><ele>455.0</ele><time>2026-04-05T12:54:03Z</time></trkpt><trkpt lat="45.37830980298762" lon="5.7473400101074015"><ele>455.0</ele><time>2026-04-05T12:54:04Z</time></trkpt><trkpt lat="45.37813721259037" lon="5.747376470932464"><ele>455.0</ele><time>2026-04-05T12:54:05Z</time></trkpt><trkpt lat="45.377968529385846" lon="5.747435550000325"><ele>455.0</ele><time>2026-04-05T12:54:06Z</time></trkpt><trkpt lat="45.37780777035112" lon="5.747543968805973"><ele>463.3333333333333</ele><time>2026-04-05T12:54:07Z</time></trkpt><trkpt lat="45.37766534092654" lon="5.747671168540385"><ele>471.66666666666663</ele><time>2026-04-05T12:54:08Z</time></trkpt><trkpt lat="45.37751601136894" lon="5.747793957434795"><ele>480.0</ele><time>2026-04-05T12:54:09Z</time></trkpt><trkpt lat="45.37735430369437" lon="5.747872305750802"><ele>480.0</ele><time>2026-04-05T12:54:10Z</time></trkpt><trkpt lat="45.377186249454645" lon="5.747952628117812"><ele>480.0</ele><time>2026-04-05T12:54:11Z</time></trkpt><trkpt lat="45.37701365511133" lon="5.7480115224727895"><ele>480.0</ele><time>2026-04-05T12:54:12.019Z</time></trkpt><trkpt lat="45.376861113964914" lon="5.748177248964473"><ele>488.66666666666663</ele><time>2026-04-05T12:54:13.019Z</time></trkpt><trkpt lat="45.37669505935509" lon="5.748254499870217"><ele>497.3333333333333</ele><time>2026-04-05T12:54:14.019Z</time></trkpt><trkpt lat="45.37652577298492" lon="5.748329703114585"><ele>506.0</ele><time>2026-04-05T12:54:15.02Z</time></trkpt><trkpt lat="45.37509222053492" lon="5.749343270441283"><ele>501.0</ele><time>2026-04-05T12:54:24Z</time></trkpt><trkpt lat="45.374936346262956" lon="5.749479545700787"><ele>496.0</ele><time>2026-04-05T12:54:25Z</time></trkpt><trkpt lat="45.374874221688984" lon="5.7496767413643"><ele>491.0</ele><time>2026-04-05T12:54:26Z</time></trkpt><trkpt lat="45.37477039630254" lon="5.74982329649861"><ele>491.0</ele><time>2026-04-05T12:54:27Z</time></trkpt><trkpt lat="45.374688683121036" lon="5.749921916800725"><ele>491.0</ele><time>2026-04-05T12:54:28Z</time></trkpt><trkpt lat="45.37458401050694" lon="5.749996793666732"><ele>491.0</ele><time>2026-04-05T12:54:29Z</time></trkpt><trkpt lat="45.374453778077495" lon="5.750042500623466"><ele>491.0</ele><time>2026-04-05T12:54:30Z</time></trkpt><trkpt lat="45.3742845461641" lon="5.75004533832733"><ele>495.0</ele><time>2026-04-05T12:54:31Z</time></trkpt><trkpt lat="45.3741279900009" lon="5.7500951150169985"><ele>499.0</ele><time>2026-04-05T12:54:32Z</time></trkpt><trkpt lat="45.373963880410386" lon="5.75013381840594"><ele>503.0</ele><time>2026-04-05T12:54:33Z</time></trkpt><trkpt lat="45.37380097647589" lon="5.7502001421215105"><ele>505.0</ele><time>2026-04-05T12:54:34Z</time></trkpt><trkpt lat="45.373636986657154" lon="5.750234049927903"><ele>507.0</ele><time>2026-04-05T12:54:35Z</time></trkpt><trkpt lat="45.37347527747328" lon="5.750225410377331"><ele>509.0</ele><time>2026-04-05T12:54:36Z</time></trkpt><trkpt lat="45.373325070131365" lon="5.75019288899111"><ele>509.0</ele><time>2026-04-05T12:54:37Z</time></trkpt><trkpt lat="45.373180696265614" lon="5.7500847556947114"><ele>509.0</ele><time>2026-04-05T12:54:38Z</time></trkpt><trkpt lat="45.37302178242451" lon="5.749964505814581"><ele>509.0</ele><time>2026-04-05T12:54:39Z</time></trkpt><trkpt lat="45.37287266447249" lon="5.749871574001712"><ele>504.3333333333333</ele><time>2026-04-05T12:54:40Z</time></trkpt><trkpt lat="45.37271217231955" lon="5.749878228216623"><ele>499.66666666666663</ele><time>2026-04-05T12:54:41Z</time></trkpt><trkpt lat="45.37255400476462" lon="5.749935510740815"><ele>495.0</ele><time>2026-04-05T12:54:42Z</time></trkpt><trkpt lat="45.37238658684744" lon="5.749965726066485"><ele>495.0</ele><time>2026-04-05T12:54:43Z</time></trkpt><trkpt lat="45.37222175990741" lon="5.749981989668859"><ele>495.0</ele><time>2026-04-05T12:54:44.001Z</time></trkpt><trkpt lat="45.372060357000194" lon="5.750007434585127"><ele>495.0</ele><time>2026-04-05T12:54:45.001Z</time></trkpt><trkpt lat="45.37189888869825" lon="5.749985580952448"><ele>491.33333333333337</ele><time>2026-04-05T12:54:46.001Z</time></trkpt><trkpt lat="45.371743147042636" lon="5.749945439207936"><ele>487.6666666666667</ele><time>2026-04-05T12:54:47.001Z</time></trkpt><trkpt lat="45.37158159939645" lon="5.749883315205244"><ele>484.0</ele><time>2026-04-05T12:54:48.001Z</time></trkpt><trkpt lat="45.37141971486358" lon="5.749799363203746"><ele>486.33333333333337</ele><time>2026-04-05T12:54:49.001Z</time></trkpt><trkpt lat="45.371262789241754" lon="5.74971525090369"><ele>488.66666666666663</ele><time>2026-04-05T12:54:50.001Z</time></trkpt><trkpt lat="45.37113087791435" lon="5.749616020787888"><ele>491.0</ele><time>2026-04-05T12:54:51.001Z</time></trkpt><trkpt lat="45.371005203184275" lon="5.749467058444863"><ele>497.3333333333333</ele><time>2026-04-05T12:54:52.001Z</time></trkpt><trkpt lat="45.37088453450032" lon="5.749295194939651"><ele>503.66666666666663</ele><time>2026-04-05T12:54:53.001Z</time></trkpt><trkpt lat="45.37076125348685" lon="5.7491455365132405"><ele>510.0</ele><time>2026-04-05T12:54:54.001Z</time></trkpt><trkpt lat="45.370646118611035" lon="5.749014968230554"><ele>510.0</ele><time>2026-04-05T12:54:55.001Z</time></trkpt><trkpt lat="45.37050258584254" lon="5.748930380444092"><ele>510.0</ele><time>2026-04-05T12:54:56.001Z</time></trkpt><trkpt lat="45.370332388393564" lon="5.748957954055591"><ele>510.0</ele><time>2026-04-05T12:54:57.001Z</time></trkpt><trkpt lat="45.37016080409694" lon="5.749022081175679"><ele>510.0</ele><time>2026-04-05T12:54:58.001Z</time></trkpt><trkpt lat="45.36998167853497" lon="5.749116039909227"><ele>510.0</ele><time>2026-04-05T12:54:59.001Z</time></trkpt><trkpt lat="45.36979372135438" lon="5.749173109513012"><ele>510.0</ele><time>2026-04-05T12:55:00.001Z</time></trkpt><trkpt lat="45.369586050816125" lon="5.749239436491568"><ele>508.66666666666663</ele><time>2026-04-05T12:55:01.001Z</time></trkpt><trkpt lat="45.369395961334476" lon="5.749303759862331"><ele>507.3333333333333</ele><time>2026-04-05T12:55:02.001Z</time></trkpt><trkpt lat="45.369209350326344" lon="5.749371023349632"><ele>506.0</ele><time>2026-04-05T12:55:03.001Z</time></trkpt><trkpt lat="45.36903171900673" lon="5.749426211579483"><ele>508.66666666666663</ele><time>2026-04-05T12:55:04.001Z</time></trkpt><trkpt lat="45.36883684405219" lon="5.749484418474089"><ele>511.33333333333337</ele><time>2026-04-05T12:55:05.001Z</time></trkpt><trkpt lat="45.36862168593262" lon="5.749548417049662"><ele>514.0</ele><time>2026-04-05T12:55:06.001Z</time></trkpt><trkpt lat="45.36842024863504" lon="5.749610348617493"><ele>514.0</ele><time>2026-04-05T12:55:07.001Z</time></trkpt><trkpt lat="45.368229109838325" lon="5.749707419948201"><ele>514.0</ele><time>2026-04-05T12:55:08.001Z</time></trkpt><trkpt lat="45.3680382628094" lon="5.749825689886596"><ele>514.0</ele><time>2026-04-05T12:55:09.001Z</time></trkpt><trkpt lat="45.36785969288152" lon="5.749946500375415"><ele>519.3333333333334</ele><time>2026-04-05T12:55:10.001Z</time></trkpt><trkpt lat="45.36766865346079" lon="5.750101546124083"><ele>524.6666666666666</ele><time>2026-04-05T12:55:11.001Z</time></trkpt><trkpt lat="45.36748976349873" lon="5.7502081099734905"><ele>530.0</ele><time>2026-04-05T12:55:12.001Z</time></trkpt><trkpt lat="45.36735830455175" lon="5.750339130465604"><ele>530.0</ele><time>2026-04-05T12:55:13.001Z</time></trkpt><trkpt lat="45.36720885436445" lon="5.750458526135476"><ele>530.0</ele><time>2026-04-05T12:55:14.001Z</time></trkpt><trkpt lat="45.36709720923942" lon="5.750609964591496"><ele>530.0</ele><time>2026-04-05T12:55:15.001Z</time></trkpt><trkpt lat="45.367014807861956" lon="5.750677899591693"><ele>530.0</ele><time>2026-04-05T12:55:16.001Z</time></trkpt><trkpt lat="45.36683095442034" lon="5.750683016987086"><ele>527.6666666666666</ele><time>2026-04-05T12:55:17.001Z</time></trkpt><trkpt lat="45.366663495123554" lon="5.750682150259618"><ele>525.3333333333334</ele><time>2026-04-05T12:55:18.001Z</time></trkpt><trkpt lat="45.36651990518067" lon="5.7506746857680096"><ele>523.0</ele><time>2026-04-05T12:55:19.001Z</time></trkpt><trkpt lat="45.36637104668796" lon="5.750688863950392"><ele>533.6666666666667</ele><time>2026-04-05T12:55:20.001Z</time></trkpt><trkpt lat="45.36622008541759" lon="5.75073416754626"><ele>544.3333333333334</ele><time>2026-04-05T12:55:21.001Z</time></trkpt><trkpt lat="45.36607281129969" lon="5.750847968724612"><ele>555.0</ele><time>2026-04-05T12:55:22.001Z</time></trkpt><trkpt lat="45.36590741792545" lon="5.751020376794673"><ele>541.6666666666666</ele><time>2026-04-05T12:55:23.001Z</time></trkpt><trkpt lat="45.3657804975651" lon="5.751220755744022"><ele>528.3333333333333</ele><time>2026-04-05T12:55:24.001Z</time></trkpt><trkpt lat="45.365675912204196" lon="5.7514361049607095"><ele>515.0</ele><time>2026-04-05T12:55:25.001Z</time></trkpt><trkpt lat="45.365585070928866" lon="5.751667550928356"><ele>521.0</ele><time>2026-04-05T12:55:26.001Z</time></trkpt><trkpt lat="45.36552035897441" lon="5.751903114459976"><ele>527.0</ele><time>2026-04-05T12:55:27.001Z</time></trkpt><trkpt lat="45.365484002055204" lon="5.75211540844323"><ele>533.0</ele><time>2026-04-05T12:55:28.001Z</time></trkpt><trkpt lat="45.36544413850142" lon="5.752280026112182"><ele>533.0</ele><time>2026-04-05T12:55:29.001Z</time></trkpt><trkpt lat="45.365397519123505" lon="5.752432221999155"><ele>533.0</ele><time>2026-04-05T12:55:30.001Z</time></trkpt><trkpt lat="45.365315199158246" lon="5.752606726020117"><ele>533.0</ele><time>2026-04-05T12:55:31.001Z</time></trkpt><trkpt lat="45.36520338310696" lon="5.752750102996739"><ele>533.0</ele><time>2026-04-05T12:55:32.001Z</time></trkpt><trkpt lat="45.36506592901495" lon="5.752865427884849"><ele>529.0</ele><time>2026-04-05T12:55:33.001Z</time></trkpt><trkpt lat="45.36492183576082" lon="5.75293615955288"><ele>525.0</ele><time>2026-04-05T12:55:34.001Z</time></trkpt><trkpt lat="45.364759315615366" lon="5.752954137356409"><ele>521.0</ele><time>2026-04-05T12:55:35.001Z</time></trkpt><trkpt lat="45.36460006604329" lon="5.752977123587353"><ele>520.3333333333333</ele><time>2026-04-05T12:55:36.001Z</time></trkpt><trkpt lat="45.36443348940236" lon="5.753076151313785"><ele>519.6666666666666</ele><time>2026-04-05T12:55:37.001Z</time></trkpt><trkpt lat="45.364286344798" lon="5.7532068726505186"><ele>519.0</ele><time>2026-04-05T12:55:38.001Z</time></trkpt><trkpt lat="45.36412166413883" lon="5.7533062025053985"><ele>519.0</ele><time>2026-04-05T12:55:39.001Z</time></trkpt><trkpt lat="45.36396992424462" lon="5.753351113978392"><ele>519.0</ele><time>2026-04-05T12:55:40.001Z</time></trkpt><trkpt lat="45.36382538870182" lon="5.753455856394958"><ele>519.0</ele><time>2026-04-05T12:55:41.001Z</time></trkpt><trkpt lat="45.36371290779282" lon="5.753621575505229"><ele>517.5</ele><time>2026-04-05T12:55:42.001Z</time></trkpt><trkpt lat="45.36361905602266" lon="5.75375895658311"><ele>516.0</ele><time>2026-04-05T12:55:43.001Z</time></trkpt><trkpt lat="45.36351899028511" lon="5.753861499196073"><ele>514.5</ele><time>2026-04-05T12:55:44.001Z</time></trkpt><trkpt lat="45.36342360433556" lon="5.753962998990629"><ele>513.0</ele><time>2026-04-05T12:55:45.001Z</time></trkpt><trkpt lat="45.363307350159495" lon="5.753974997783069"><ele>513.0</ele><time>2026-04-05T12:55:46.001Z</time></trkpt><trkpt lat="45.363175465152494" lon="5.753948325925426"><ele>513.0</ele><time>2026-04-05T12:55:47.001Z</time></trkpt><trkpt lat="45.3630193237132" lon="5.753906242114511"><ele>513.0</ele><time>2026-04-05T12:55:48.001Z</time></trkpt><trkpt lat="45.362838624665" lon="5.75387866728431"><ele>516.3333333333334</ele><time>2026-04-05T12:55:49.001Z</time></trkpt><trkpt lat="45.3626618584505" lon="5.753886574827238"><ele>519.6666666666667</ele><time>2026-04-05T12:55:50.001Z</time></trkpt><trkpt lat="45.36250466362101" lon="5.753923951980949"><ele>523.0</ele><time>2026-04-05T12:55:51.001Z</time></trkpt><trkpt lat="45.36235259497957" lon="5.753973714988506"><ele>523.0</ele><time>2026-04-05T12:55:52.001Z</time></trkpt><trkpt lat="45.36218004471758" lon="5.754042109661097"><ele>523.0</ele><time>2026-04-05T12:55:53.002Z</time></trkpt><trkpt lat="45.3620366660107" lon="5.754103113626123"><ele>523.0</ele><time>2026-04-05T12:55:54.002Z</time></trkpt><trkpt lat="45.361874644428006" lon="5.754156264977019"><ele>523.0</ele><time>2026-04-05T12:55:55.002Z</time></trkpt><trkpt lat="45.36170829793679" lon="5.754162101332077"><ele>523.0</ele><time>2026-04-05T12:55:56.002Z</time></trkpt><trkpt lat="45.361543658473636" lon="5.754117225602165"><ele>523.0</ele><time>2026-04-05T12:55:57.002Z</time></trkpt><trkpt lat="45.361364254918996" lon="5.754084431078603"><ele>524.6666666666667</ele><time>2026-04-05T12:55:58.002Z</time></trkpt><trkpt lat="45.36118827866531" lon="5.754034595228526"><ele>526.3333333333334</ele><time>2026-04-05T12:55:59.002Z</time></trkpt><trkpt lat="45.361003377697884" lon="5.7540743466447415"><ele>528.0</ele><time>2026-04-05T12:56:00.002Z</time></trkpt><trkpt lat="45.36083474406627" lon="5.754145063213511"><ele>528.0</ele><time>2026-04-05T12:56:01.002Z</time></trkpt><trkpt lat="45.36065927856131" lon="5.754234984137248"><ele>528.0</ele><time>2026-04-05T12:56:02.002Z</time></trkpt><trkpt lat="45.360498054314064" lon="5.754289348491225"><ele>528.0</ele><time>2026-04-05T12:56:03.002Z</time></trkpt><trkpt lat="45.36029425303182" lon="5.754299806432271"><ele>529.0</ele><time>2026-04-05T12:56:04.002Z</time></trkpt><trkpt lat="45.36009688969082" lon="5.754337279185938"><ele>530.0</ele><time>2026-04-05T12:56:05.002Z</time></trkpt><trkpt lat="45.35991406162868" lon="5.754428819410813"><ele>531.0</ele><time>2026-04-05T12:56:06.002Z</time></trkpt><trkpt lat="45.35974220863473" lon="5.754581738393096"><ele>538.0</ele><time>2026-04-05T12:56:07.002Z</time></trkpt><trkpt lat="45.3595610597903" lon="5.754709554322225"><ele>545.0</ele><time>2026-04-05T12:56:08.002Z</time></trkpt><trkpt lat="45.35939908906028" lon="5.754846359382714"><ele>552.0</ele><time>2026-04-05T12:56:09Z</time></trkpt><trkpt lat="45.35921837967862" lon="5.755003194134225"><ele>552.0</ele><time>2026-04-05T12:56:10Z</time></trkpt><trkpt lat="45.35904963188746" lon="5.755143636968731"><ele>552.0</ele><time>2026-04-05T12:56:11Z</time></trkpt><trkpt lat="45.358875984360395" lon="5.755262196086064"><ele>552.0</ele><time>2026-04-05T12:56:12Z</time></trkpt><trkpt lat="45.35870887915415" lon="5.755384795235288"><ele>556.6666666666666</ele><time>2026-04-05T12:56:13Z</time></trkpt><trkpt lat="45.35853724983483" lon="5.755489042318397"><ele>561.3333333333333</ele><time>2026-04-05T12:56:14Z</time></trkpt><trkpt lat="45.358375741163535" lon="5.755652834947512"><ele>566.0</ele><time>2026-04-05T12:56:15Z</time></trkpt><trkpt lat="45.3582538368878" lon="5.75583319424087"><ele>564.6666666666666</ele><time>2026-04-05T12:56:16Z</time></trkpt><trkpt lat="45.35814488596928" lon="5.756046941043549"><ele>563.3333333333334</ele><time>2026-04-05T12:56:17Z</time></trkpt><trkpt lat="45.358043404931436" lon="5.756265478498586"><ele>562.0</ele><time>2026-04-05T12:56:18Z</time></trkpt><trkpt lat="45.35796164243986" lon="5.756451677042489"><ele>562.0</ele><time>2026-04-05T12:56:19Z</time></trkpt><trkpt lat="45.357838714633175" lon="5.7565580724143555"><ele>562.0</ele><time>2026-04-05T12:56:20Z</time></trkpt><trkpt lat="45.357694890488645" lon="5.756603001671382"><ele>562.0</ele><time>2026-04-05T12:56:21Z</time></trkpt><trkpt lat="45.35754793143845" lon="5.756555379378238"><ele>562.0</ele><time>2026-04-05T12:56:22Z</time></trkpt><trkpt lat="45.357386006422956" lon="5.756472616991997"><ele>562.0</ele><time>2026-04-05T12:56:23Z</time></trkpt><trkpt lat="45.35722012841107" lon="5.756392516734247"><ele>562.0</ele><time>2026-04-05T12:56:24Z</time></trkpt><trkpt lat="45.35705035043919" lon="5.7563914402580165"><ele>562.0</ele><time>2026-04-05T12:56:25Z</time></trkpt><trkpt lat="45.35687531302846" lon="5.756472439855693"><ele>566.6666666666667</ele><time>2026-04-05T12:56:26Z</time></trkpt><trkpt lat="45.356697592989164" lon="5.756577515694429"><ele>571.3333333333334</ele><time>2026-04-05T12:56:27Z</time></trkpt><trkpt lat="45.35654831961109" lon="5.756619326194415"><ele>576.0</ele><time>2026-04-05T12:56:28Z</time></trkpt><trkpt lat="45.35637591433736" lon="5.756677258001741"><ele>579.6666666666666</ele><time>2026-04-05T12:56:29Z</time></trkpt><trkpt lat="45.35619909315721" lon="5.7567086370068274"><ele>583.3333333333333</ele><time>2026-04-05T12:56:30Z</time></trkpt><trkpt lat="45.35604119347699" lon="5.756756091019669"><ele>587.0</ele><time>2026-04-05T12:56:31Z</time></trkpt><trkpt lat="45.3558882569857" lon="5.756827393513738"><ele>587.0</ele><time>2026-04-05T12:56:32Z</time></trkpt><trkpt lat="45.355746786568965" lon="5.756836019494334"><ele>587.0</ele><time>2026-04-05T12:56:33Z</time></trkpt><trkpt lat="45.355598286096075" lon="5.756717291408549"><ele>587.0</ele><time>2026-04-05T12:56:34Z</time></trkpt><trkpt lat="45.35541995480022" lon="5.756628948257272"><ele>588.25</ele><time>2026-04-05T12:56:35Z</time></trkpt><trkpt lat="45.35527695307555" lon="5.756572943171855"><ele>589.5</ele><time>2026-04-05T12:56:36Z</time></trkpt><trkpt lat="45.35512674181766" lon="5.756561893016717"><ele>590.75</ele><time>2026-04-05T12:56:37Z</time></trkpt><trkpt lat="45.35497929351829" lon="5.756582184195239"><ele>592.0</ele><time>2026-04-05T12:56:38Z</time></trkpt><trkpt lat="45.354852589296065" lon="5.756649260759598"><ele>592.0</ele><time>2026-04-05T12:56:39Z</time></trkpt><trkpt lat="45.354761520192646" lon="5.75675472012858"><ele>592.0</ele><time>2026-04-05T12:56:40Z</time></trkpt><trkpt lat="45.35467729121386" lon="5.756895398981518"><ele>592.0</ele><time>2026-04-05T12:56:41Z</time></trkpt><trkpt lat="45.35460815324214" lon="5.757058219178086"><ele>592.0</ele><time>2026-04-05T12:56:42Z</time></trkpt><trkpt lat="45.35455733850169" lon="5.757244815136746"><ele>591.0</ele><time>2026-04-05T12:56:43Z</time></trkpt><trkpt lat="45.354541716781405" lon="5.757430423931275"><ele>590.0</ele><time>2026-04-05T12:56:44Z</time></trkpt><trkpt lat="45.354535602785894" lon="5.757607348590293"><ele>589.0</ele><time>2026-04-05T12:56:45Z</time></trkpt><trkpt lat="45.35451666637266" lon="5.757782867383474"><ele>588.0</ele><time>2026-04-05T12:56:46Z</time></trkpt><trkpt lat="45.354449857958265" lon="5.7579367192425845"><ele>593.5</ele><time>2026-04-05T12:56:47Z</time></trkpt><trkpt lat="45.354340933760135" lon="5.758050624590406"><ele>599.0</ele><time>2026-04-05T12:56:48Z</time></trkpt><trkpt lat="45.35421524258715" lon="5.75811467980391"><ele>604.5</ele><time>2026-04-05T12:56:49Z</time></trkpt><trkpt lat="45.3541174347159" lon="5.7582361442112004"><ele>610.0</ele><time>2026-04-05T12:56:50.001Z</time></trkpt><trkpt lat="45.35399000716985" lon="5.758376946781707"><ele>611.75</ele><time>2026-04-05T12:56:51.001Z</time></trkpt><trkpt lat="45.35389640156466" lon="5.758537707482837"><ele>613.5</ele><time>2026-04-05T12:56:52.001Z</time></trkpt><trkpt lat="45.353778683899975" lon="5.758655250988353"><ele>615.25</ele><time>2026-04-05T12:56:53.001Z</time></trkpt><trkpt lat="45.35364212391087" lon="5.75876839735661"><ele>617.0</ele><time>2026-04-05T12:56:54.001Z</time></trkpt><trkpt lat="45.353481364382695" lon="5.758839912678937"><ele>617.0</ele><time>2026-04-05T12:56:55.001Z</time></trkpt><trkpt lat="45.353292067084304" lon="5.758906297177672"><ele>617.0</ele><time>2026-04-05T12:56:56.001Z</time></trkpt><trkpt lat="45.35313468022741" lon="5.759024331484022"><ele>617.0</ele><time>2026-04-05T12:56:57.001Z</time></trkpt><trkpt lat="45.35299808451359" lon="5.759152852212423"><ele>616.6666666666666</ele><time>2026-04-05T12:56:58.001Z</time></trkpt><trkpt lat="45.352874961479635" lon="5.7593207915942415"><ele>616.3333333333334</ele><time>2026-04-05T12:56:59.001Z</time></trkpt><trkpt lat="45.35276349940149" lon="5.759506127359648"><ele>616.0</ele><time>2026-04-05T12:57:00.001Z</time></trkpt><trkpt lat="45.35264972616966" lon="5.759701284120535"><ele>616.0</ele><time>2026-04-05T12:57:01.001Z</time></trkpt><trkpt lat="45.35254593424356" lon="5.759911354186929"><ele>616.0</ele><time>2026-04-05T12:57:02.001Z</time></trkpt><trkpt lat="45.35244110018098" lon="5.7601221309523245"><ele>616.0</ele><time>2026-04-05T12:57:03.001Z</time></trkpt><trkpt lat="45.352325693726094" lon="5.760329620965785"><ele>615.0</ele><time>2026-04-05T12:57:04.001Z</time></trkpt><trkpt lat="45.35220240853918" lon="5.76054675869054"><ele>614.0</ele><time>2026-04-05T12:57:05.001Z</time></trkpt><trkpt lat="45.35209244677003" lon="5.760739295034338"><ele>613.0</ele><time>2026-04-05T12:57:06.001Z</time></trkpt><trkpt lat="45.35197631628364" lon="5.7609431025843625"><ele>617.0</ele><time>2026-04-05T12:57:07.001Z</time></trkpt><trkpt lat="45.35186607371391" lon="5.761161424865015"><ele>621.0</ele><time>2026-04-05T12:57:08.001Z</time></trkpt><trkpt lat="45.351755241329606" lon="5.761420069616878"><ele>625.0</ele><time>2026-04-05T12:57:09.001Z</time></trkpt><trkpt lat="45.3516694994516" lon="5.7616669686051365"><ele>627.3333333333334</ele><time>2026-04-05T12:57:10.001Z</time></trkpt><trkpt lat="45.351614626838966" lon="5.761908299735878"><ele>629.6666666666666</ele><time>2026-04-05T12:57:11.001Z</time></trkpt><trkpt lat="45.35162032258102" lon="5.762160947025744"><ele>632.0</ele><time>2026-04-05T12:57:12.001Z</time></trkpt><trkpt lat="45.35165593228853" lon="5.7624274685570835"><ele>632.0</ele><time>2026-04-05T12:57:13.001Z</time></trkpt><trkpt lat="45.351704014857184" lon="5.762674722993447"><ele>632.0</ele><time>2026-04-05T12:57:14.001Z</time></trkpt><trkpt lat="45.351812382367314" lon="5.762906598012747"><ele>632.0</ele><time>2026-04-05T12:57:15.001Z</time></trkpt><trkpt lat="45.35185923731599" lon="5.763148054823607"><ele>632.0</ele><time>2026-04-05T12:57:16.001Z</time></trkpt><trkpt lat="45.35189416955763" lon="5.763415396801341"><ele>632.0</ele><time>2026-04-05T12:57:17.001Z</time></trkpt><trkpt lat="45.35194651986109" lon="5.7636478556711115"><ele>632.0</ele><time>2026-04-05T12:57:18.001Z</time></trkpt><trkpt lat="45.351988932641554" lon="5.7638763341329735"><ele>632.0</ele><time>2026-04-05T12:57:19.001Z</time></trkpt><trkpt lat="45.35198243349438" lon="5.764122776530821"><ele>632.0</ele><time>2026-04-05T12:57:20.001Z</time></trkpt><trkpt lat="45.35195039628717" lon="5.764392086934139"><ele>632.0</ele><time>2026-04-05T12:57:21.001Z</time></trkpt><trkpt lat="45.351908081747276" lon="5.764657678379639"><ele>632.0</ele><time>2026-04-05T12:57:22.001Z</time></trkpt><trkpt lat="45.35184037223247" lon="5.764889286633496"><ele>632.0</ele><time>2026-04-05T12:57:23.001Z</time></trkpt><trkpt lat="45.35174714303235" lon="5.7651127999414085"><ele>632.0</ele><time>2026-04-05T12:57:24.001Z</time></trkpt><trkpt lat="45.35164049890006" lon="5.765335197547785"><ele>635.6666666666666</ele><time>2026-04-05T12:57:25.001Z</time></trkpt><trkpt lat="45.351535056441385" lon="5.76553706445628"><ele>639.3333333333334</ele><time>2026-04-05T12:57:26.001Z</time></trkpt><trkpt lat="45.35141550891443" lon="5.765691202632177"><ele>643.0</ele><time>2026-04-05T12:57:27.001Z</time></trkpt><trkpt lat="45.35127542486812" lon="5.765814549105139"><ele>643.0</ele><time>2026-04-05T12:57:28.001Z</time></trkpt><trkpt lat="45.35115303697462" lon="5.765970137230119"><ele>643.0</ele><time>2026-04-05T12:57:29.001Z</time></trkpt><trkpt lat="45.35103344479221" lon="5.766150367299481"><ele>643.0</ele><time>2026-04-05T12:57:30.001Z</time></trkpt><trkpt lat="45.3509464072527" lon="5.766348990710482"><ele>642.0</ele><time>2026-04-05T12:57:31.001Z</time></trkpt><trkpt lat="45.35087455505549" lon="5.766550866788353"><ele>641.0</ele><time>2026-04-05T12:57:32.001Z</time></trkpt><trkpt lat="45.35078761870532" lon="5.766764600332751"><ele>640.0</ele><time>2026-04-05T12:57:33.001Z</time></trkpt><trkpt lat="45.35070727902215" lon="5.767012285979341"><ele>640.0</ele><time>2026-04-05T12:57:34.001Z</time></trkpt><trkpt lat="45.35062888221428" lon="5.767288538883815"><ele>640.0</ele><time>2026-04-05T12:57:35.001Z</time></trkpt><trkpt lat="45.35055197457127" lon="5.7675629078344555"><ele>640.0</ele><time>2026-04-05T12:57:36.001Z</time></trkpt><trkpt lat="45.35047896551586" lon="5.76781770089547"><ele>640.0</ele><time>2026-04-05T12:57:37.001Z</time></trkpt><trkpt lat="45.350402752154636" lon="5.768063669191726"><ele>640.0</ele><time>2026-04-05T12:57:38.001Z</time></trkpt><trkpt lat="45.35033118622384" lon="5.768284400635539"><ele>640.0</ele><time>2026-04-05T12:57:39.001Z</time></trkpt><trkpt lat="45.350269515727994" lon="5.76847461231325"><ele>640.0</ele><time>2026-04-05T12:57:40.001Z</time></trkpt><trkpt lat="45.350214458526686" lon="5.768661215818106"><ele>640.0</ele><time>2026-04-05T12:57:41.001Z</time></trkpt><trkpt lat="45.350183927102165" lon="5.768845224654816"><ele>640.0</ele><time>2026-04-05T12:57:42.001Z</time></trkpt><trkpt lat="45.35018489084892" lon="5.769026230227848"><ele>640.0</ele><time>2026-04-05T12:57:43.001Z</time></trkpt><trkpt lat="45.35019258205625" lon="5.7692545322082385"><ele>688.6666666666667</ele><time>2026-04-05T12:57:44.001Z</time></trkpt><trkpt lat="45.35014445724587" lon="5.769468245868186"><ele>737.3333333333334</ele><time>2026-04-05T12:57:45.001Z</time></trkpt><trkpt lat="45.35008047505076" lon="5.769693386568211"><ele>786.0</ele><time>2026-04-05T12:57:46.001Z</time></trkpt><trkpt lat="45.35003813801814" lon="5.7699091491539845"><ele>786.0</ele><time>2026-04-05T12:57:47.001Z</time></trkpt><trkpt lat="45.34999690060654" lon="5.7701129201251335"><ele>786.0</ele><time>2026-04-05T12:57:48.001Z</time></trkpt><trkpt lat="45.3499496046638" lon="5.77029195766625"><ele>786.0</ele><time>2026-04-05T12:57:49.001Z</time></trkpt><trkpt lat="45.34989498776657" lon="5.770459159899074"><ele>786.0</ele><time>2026-04-05T12:57:50.001Z</time></trkpt><trkpt lat="45.349847746437824" lon="5.770610491058349"><ele>779.75</ele><time>2026-04-05T12:57:51.001Z</time></trkpt><trkpt lat="45.34988782910345" lon="5.770834930946685"><ele>773.5</ele><time>2026-04-05T12:57:52.001Z</time></trkpt><trkpt lat="45.34990999491092" lon="5.771003923763964"><ele>767.25</ele><time>2026-04-05T12:57:53.001Z</time></trkpt><trkpt lat="45.34993491224854" lon="5.77119353032942"><ele>761.0</ele><time>2026-04-05T12:57:54.001Z</time></trkpt><trkpt lat="45.34996068369983" lon="5.771372793819946"><ele>755.5</ele><time>2026-04-05T12:57:55.001Z</time></trkpt><trkpt lat="45.34997565695948" lon="5.771572685216542"><ele>750.0</ele><time>2026-04-05T12:57:56.001Z</time></trkpt><trkpt lat="45.35000173853104" lon="5.771758066680092"><ele>744.5</ele><time>2026-04-05T12:57:57.001Z</time></trkpt><trkpt lat="45.350014699534846" lon="5.771963809796405"><ele>739.0</ele><time>2026-04-05T12:57:58.001Z</time></trkpt><trkpt lat="45.34999569940245" lon="5.772191351051119"><ele>739.0</ele><time>2026-04-05T12:57:59.001Z</time></trkpt><trkpt lat="45.3500496851132" lon="5.772354792030912"><ele>739.0</ele><time>2026-04-05T12:58:00.001Z</time></trkpt><trkpt lat="45.350122900278" lon="5.772524297702413"><ele>739.0</ele><time>2026-04-05T12:58:01.001Z</time></trkpt><trkpt lat="45.35019578337464" lon="5.7727203568501855"><ele>739.0</ele><time>2026-04-05T12:58:02.001Z</time></trkpt><trkpt lat="45.35025284517857" lon="5.772908216146053"><ele>724.5</ele><time>2026-04-05T12:58:03.002Z</time></trkpt><trkpt lat="45.35029425154575" lon="5.773116824490021"><ele>710.0</ele><time>2026-04-05T12:58:04.002Z</time></trkpt><trkpt lat="45.350318709846064" lon="5.7732969774324845"><ele>695.5</ele><time>2026-04-05T12:58:05.002Z</time></trkpt><trkpt lat="45.350354857360315" lon="5.773472367645154"><ele>681.0</ele><time>2026-04-05T12:58:06.002Z</time></trkpt><trkpt lat="45.35036417356525" lon="5.773662725853788"><ele>681.0</ele><time>2026-04-05T12:58:07.002Z</time></trkpt><trkpt lat="45.350378941619425" lon="5.7738845595795985"><ele>681.0</ele><time>2026-04-05T12:58:08.002Z</time></trkpt><trkpt lat="45.35037612166751" lon="5.774063059621198"><ele>681.0</ele><time>2026-04-05T12:58:09.002Z</time></trkpt><trkpt lat="45.350354156341375" lon="5.774214916293253"><ele>681.0</ele><time>2026-04-05T12:58:10.002Z</time></trkpt><trkpt lat="45.350323728593445" lon="5.774377348061413"><ele>686.75</ele><time>2026-04-05T12:58:11.002Z</time></trkpt><trkpt lat="45.35028686369037" lon="5.774540286736918"><ele>692.5</ele><time>2026-04-05T12:58:12.002Z</time></trkpt><trkpt lat="45.350249790297795" lon="5.774703690885927"><ele>698.25</ele><time>2026-04-05T12:58:13.002Z</time></trkpt><trkpt lat="45.350222491491905" lon="5.774884530255215"><ele>704.0</ele><time>2026-04-05T12:58:14.002Z</time></trkpt><trkpt lat="45.35018038244748" lon="5.775048829352804"><ele>712.3333333333333</ele><time>2026-04-05T12:58:15Z</time></trkpt><trkpt lat="45.35013945738497" lon="5.77521603679787"><ele>720.6666666666666</ele><time>2026-04-05T12:58:16.019Z</time></trkpt><trkpt lat="45.35009882739481" lon="5.775381957911866"><ele>729.0</ele><time>2026-04-05T12:58:17.025Z</time></trkpt><trkpt lat="45.3500196433047" lon="5.775710800874713"><ele>729.0</ele><time>2026-04-05T12:58:19.018Z</time></trkpt><trkpt lat="45.349965642260834" lon="5.775936328127592"><ele>729.0</ele><time>2026-04-05T12:58:20Z</time></trkpt><trkpt lat="45.34992118074769" lon="5.7760901567261795"><ele>729.0</ele><time>2026-04-05T12:58:21Z</time></trkpt><trkpt lat="45.34989061311967" lon="5.776269079193017"><ele>729.0</ele><time>2026-04-05T12:58:22Z</time></trkpt><trkpt lat="45.34985953232943" lon="5.776459500263483"><ele>731.75</ele><time>2026-04-05T12:58:23Z</time></trkpt><trkpt lat="45.349822254322724" lon="5.7766441026029085"><ele>734.5</ele><time>2026-04-05T12:58:24Z</time></trkpt><trkpt lat="45.34980107653207" lon="5.776837593898524"><ele>737.25</ele><time>2026-04-05T12:58:25Z</time></trkpt><trkpt lat="45.349778178574596" lon="5.777040717555799"><ele>740.0</ele><time>2026-04-05T12:58:26Z</time></trkpt><trkpt lat="45.34977006809938" lon="5.777259555180977"><ele>738.25</ele><time>2026-04-05T12:58:27Z</time></trkpt><trkpt lat="45.34971382574435" lon="5.777456410821433"><ele>736.5</ele><time>2026-04-05T12:58:28Z</time></trkpt><trkpt lat="45.34965220825927" lon="5.777629018957449"><ele>734.75</ele><time>2026-04-05T12:58:29Z</time></trkpt><trkpt lat="45.34958788289506" lon="5.777772363595824"><ele>733.0</ele><time>2026-04-05T12:58:30Z</time></trkpt><trkpt lat="45.34955504626179" lon="5.777915953396481"><ele>733.0</ele><time>2026-04-05T12:58:31Z</time></trkpt><trkpt lat="45.34951950838071" lon="5.778022555222921"><ele>733.0</ele><time>2026-04-05T12:58:32Z</time></trkpt><trkpt lat="45.34950090031469" lon="5.778119594659492"><ele>733.0</ele><time>2026-04-05T12:58:33Z</time></trkpt><trkpt lat="45.34946747857951" lon="5.778212989448131"><ele>733.0</ele><time>2026-04-05T12:58:34Z</time></trkpt><trkpt lat="45.34944143481712" lon="5.778323740693589"><ele>733.0</ele><time>2026-04-05T12:58:35Z</time></trkpt><trkpt lat="45.349426484108285" lon="5.778411491457514"><ele>733.0</ele><time>2026-04-05T12:58:36Z</time></trkpt><trkpt lat="45.349454967877705" lon="5.778574642780521"><ele>733.8</ele><time>2026-04-05T12:58:37Z</time></trkpt><trkpt lat="45.349424978827464" lon="5.7786976211445555"><ele>734.5999999999999</ele><time>2026-04-05T12:58:38Z</time></trkpt><trkpt lat="45.349404935394006" lon="5.778827477383701"><ele>735.4000000000001</ele><time>2026-04-05T12:58:39Z</time></trkpt><trkpt lat="45.34937459625063" lon="5.778947052364919"><ele>736.2</ele><time>2026-04-05T12:58:40Z</time></trkpt><trkpt lat="45.34931774953329" lon="5.779062896110572"><ele>737.0</ele><time>2026-04-05T12:58:41Z</time></trkpt><trkpt lat="45.34922491573258" lon="5.779156274015593"><ele>737.0</ele><time>2026-04-05T12:58:42Z</time></trkpt><trkpt lat="45.34913173892779" lon="5.7792487181963414"><ele>737.0</ele><time>2026-04-05T12:58:43Z</time></trkpt><trkpt lat="45.34907462397827" lon="5.779332430867815"><ele>737.0</ele><time>2026-04-05T12:58:44Z</time></trkpt><trkpt lat="45.34902371982488" lon="5.779518280049918"><ele>737.0</ele><time>2026-04-05T12:58:45Z</time></trkpt><trkpt lat="45.349004769873225" lon="5.779704501450246"><ele>738.0</ele><time>2026-04-05T12:58:46Z</time></trkpt><trkpt lat="45.34898072299502" lon="5.779882687542045"><ele>739.0</ele><time>2026-04-05T12:58:47Z</time></trkpt><trkpt lat="45.348928908627364" lon="5.780050699052704"><ele>740.0</ele><time>2026-04-05T12:58:48Z</time></trkpt><trkpt lat="45.34888272145775" lon="5.7802211305543105"><ele>741.0</ele><time>2026-04-05T12:58:49Z</time></trkpt><trkpt lat="45.34884760149319" lon="5.780388522444769"><ele>742.0</ele><time>2026-04-05T12:58:50Z</time></trkpt><trkpt lat="45.348827722145124" lon="5.7805584642158925"><ele>743.0</ele><time>2026-04-05T12:58:51Z</time></trkpt><trkpt lat="45.3488297518485" lon="5.780738796019096"><ele>744.0</ele><time>2026-04-05T12:58:52.001Z</time></trkpt><trkpt lat="45.348814546895994" lon="5.7809557113706305"><ele>745.0</ele><time>2026-04-05T12:58:53.001Z</time></trkpt><trkpt lat="45.34878123782688" lon="5.781126506750677"><ele>742.25</ele><time>2026-04-05T12:58:54.001Z</time></trkpt><trkpt lat="45.34875140364992" lon="5.781309555245376"><ele>739.5</ele><time>2026-04-05T12:58:55.001Z</time></trkpt><trkpt lat="45.348750733480614" lon="5.781482477111822"><ele>736.75</ele><time>2026-04-05T12:58:56.001Z</time></trkpt><trkpt lat="45.34879708664617" lon="5.781651368348845"><ele>734.0</ele><time>2026-04-05T12:58:57.001Z</time></trkpt><trkpt lat="45.34888870814256" lon="5.78176476489895"><ele>734.25</ele><time>2026-04-05T12:58:58.001Z</time></trkpt><trkpt lat="45.34900339943378" lon="5.78183675172191"><ele>734.5</ele><time>2026-04-05T12:58:59.001Z</time></trkpt><trkpt lat="45.34911620514723" lon="5.781928234073277"><ele>734.75</ele><time>2026-04-05T12:59:00.001Z</time></trkpt><trkpt lat="45.349252664461346" lon="5.781997362722041"><ele>735.0</ele><time>2026-04-05T12:59:01.001Z</time></trkpt><trkpt lat="45.349372216121665" lon="5.782041291909236"><ele>735.0</ele><time>2026-04-05T12:59:02.001Z</time></trkpt><trkpt lat="45.34950551333582" lon="5.782060586199549"><ele>735.0</ele><time>2026-04-05T12:59:03.001Z</time></trkpt><trkpt lat="45.34963616140501" lon="5.7821202640659575"><ele>735.0</ele><time>2026-04-05T12:59:04.001Z</time></trkpt><trkpt lat="45.34976032714496" lon="5.782181185282673"><ele>735.0</ele><time>2026-04-05T12:59:05.001Z</time></trkpt><trkpt lat="45.34988123560785" lon="5.78228136965809"><ele>742.0</ele><time>2026-04-05T12:59:06.001Z</time></trkpt><trkpt lat="45.34998424011393" lon="5.782410516901689"><ele>749.0</ele><time>2026-04-05T12:59:07.001Z</time></trkpt><trkpt lat="45.350049804158374" lon="5.78257483949117"><ele>756.0</ele><time>2026-04-05T12:59:08.001Z</time></trkpt><trkpt lat="45.35007646562778" lon="5.782764684643007"><ele>763.0</ele><time>2026-04-05T12:59:09.001Z</time></trkpt><trkpt lat="45.350072014560986" lon="5.782960757793503"><ele>763.0</ele><time>2026-04-05T12:59:10.001Z</time></trkpt><trkpt lat="45.35008318343342" lon="5.78316294897139"><ele>763.0</ele><time>2026-04-05T12:59:11.001Z</time></trkpt><trkpt lat="45.3501402993028" lon="5.783358782105728"><ele>763.0</ele><time>2026-04-05T12:59:12.001Z</time></trkpt><trkpt lat="45.35021536778003" lon="5.7835477445430605"><ele>763.0</ele><time>2026-04-05T12:59:13.001Z</time></trkpt><trkpt lat="45.350274081155995" lon="5.783750769481479"><ele>764.0</ele><time>2026-04-05T12:59:14.001Z</time></trkpt><trkpt lat="45.35032792487056" lon="5.7839380655048425"><ele>765.0</ele><time>2026-04-05T12:59:15.001Z</time></trkpt><trkpt lat="45.350379188686524" lon="5.7841193530068375"><ele>766.0</ele><time>2026-04-05T12:59:16.001Z</time></trkpt><trkpt lat="45.350432289065196" lon="5.7842722744653186"><ele>767.0</ele><time>2026-04-05T12:59:17.001Z</time></trkpt><trkpt lat="45.35050618337244" lon="5.784392022820838"><ele>770.3333333333333</ele><time>2026-04-05T12:59:18.001Z</time></trkpt><trkpt lat="45.35057376773646" lon="5.784501251877804"><ele>773.6666666666666</ele><time>2026-04-05T12:59:19.001Z</time></trkpt><trkpt lat="45.350629072970136" lon="5.784591191994456"><ele>777.0</ele><time>2026-04-05T12:59:20.001Z</time></trkpt><trkpt lat="45.350678693706776" lon="5.7846624898185945"><ele>780.3333333333333</ele><time>2026-04-05T12:59:21.001Z</time></trkpt><trkpt lat="45.3506993224478" lon="5.784817879148349"><ele>783.6666666666666</ele><time>2026-04-05T12:59:23.001Z</time></trkpt><trkpt lat="45.35067043505089" lon="5.784908147651839"><ele>787.0</ele><time>2026-04-05T12:59:24.001Z</time></trkpt><trkpt lat="45.35061647088574" lon="5.784991404021264"><ele>787.0</ele><time>2026-04-05T12:59:25.001Z</time></trkpt><trkpt lat="45.35054841316958" lon="5.785069053770284"><ele>787.0</ele><time>2026-04-05T12:59:26.001Z</time></trkpt><trkpt lat="45.350463850617864" lon="5.785116185529363"><ele>787.0</ele><time>2026-04-05T12:59:27.001Z</time></trkpt><trkpt lat="45.350365907571906" lon="5.785160741289325"><ele>787.0</ele><time>2026-04-05T12:59:28.001Z</time></trkpt><trkpt lat="45.35024799284947" lon="5.785127798524453"><ele>787.0</ele><time>2026-04-05T12:59:29.001Z</time></trkpt><trkpt lat="45.350138632582606" lon="5.785052964652893"><ele>787.5</ele><time>2026-04-05T12:59:30.001Z</time></trkpt><trkpt lat="45.3500450175559" lon="5.784958968273549"><ele>788.0</ele><time>2026-04-05T12:59:31.001Z</time></trkpt><trkpt lat="45.349947196953615" lon="5.784862484609566"><ele>788.5</ele><time>2026-04-05T12:59:32.001Z</time></trkpt><trkpt lat="45.34983542537728" lon="5.784753891690767"><ele>789.0</ele><time>2026-04-05T12:59:33.001Z</time></trkpt><trkpt lat="45.3497282717225" lon="5.784651701753574"><ele>791.5</ele><time>2026-04-05T12:59:34.001Z</time></trkpt><trkpt lat="45.349616614739396" lon="5.784532193141146"><ele>794.0</ele><time>2026-04-05T12:59:35.001Z</time></trkpt><trkpt lat="45.34950310108811" lon="5.784407890344564"><ele>796.5</ele><time>2026-04-05T12:59:36.001Z</time></trkpt><trkpt lat="45.34941053493653" lon="5.784258723052067"><ele>799.0</ele><time>2026-04-05T12:59:37.001Z</time></trkpt><trkpt lat="45.34934240603318" lon="5.784113278896131"><ele>794.8000000000001</ele><time>2026-04-05T12:59:38.001Z</time></trkpt><trkpt lat="45.34928899918439" lon="5.783966033278994"><ele>790.6</ele><time>2026-04-05T12:59:39.001Z</time></trkpt><trkpt lat="45.349217115475426" lon="5.783861697042638"><ele>786.4</ele><time>2026-04-05T12:59:40.001Z</time></trkpt><trkpt lat="45.34911308672892" lon="5.783817080530763"><ele>782.2</ele><time>2026-04-05T12:59:41.001Z</time></trkpt><trkpt lat="45.348998323219476" lon="5.783825346552025"><ele>778.0</ele><time>2026-04-05T12:59:42.001Z</time></trkpt><trkpt lat="45.34888510246965" lon="5.783906699713674"><ele>776.5</ele><time>2026-04-05T12:59:43.001Z</time></trkpt><trkpt lat="45.34879982123791" lon="5.784063323551071"><ele>775.0</ele><time>2026-04-05T12:59:44.001Z</time></trkpt><trkpt lat="45.348723417439956" lon="5.78420067254668"><ele>773.5</ele><time>2026-04-05T12:59:45.001Z</time></trkpt><trkpt lat="45.34862748181929" lon="5.784328928773343"><ele>772.0</ele><time>2026-04-05T12:59:46.001Z</time></trkpt><trkpt lat="45.34851492866358" lon="5.7844554242096"><ele>772.0</ele><time>2026-04-05T12:59:47.001Z</time></trkpt><trkpt lat="45.3484133899153" lon="5.784617033420717"><ele>772.0</ele><time>2026-04-05T12:59:48.001Z</time></trkpt><trkpt lat="45.34831960242295" lon="5.784801169449405"><ele>772.0</ele><time>2026-04-05T12:59:49.001Z</time></trkpt><trkpt lat="45.348256967786526" lon="5.785031027485705"><ele>772.6666666666666</ele><time>2026-04-05T12:59:50.001Z</time></trkpt><trkpt lat="45.348191886996666" lon="5.785266846608178"><ele>773.3333333333333</ele><time>2026-04-05T12:59:51.001Z</time></trkpt><trkpt lat="45.34813209950863" lon="5.785498988769313"><ele>774.0</ele><time>2026-04-05T12:59:52.001Z</time></trkpt><trkpt lat="45.34807645759785" lon="5.785727551195113"><ele>769.6666666666666</ele><time>2026-04-05T12:59:53.001Z</time></trkpt><trkpt lat="45.348029696267574" lon="5.7859621722188335"><ele>765.3333333333333</ele><time>2026-04-05T12:59:54.001Z</time></trkpt><trkpt lat="45.3479913796001" lon="5.786209090861763"><ele>761.0</ele><time>2026-04-05T12:59:55.001Z</time></trkpt><trkpt lat="45.34795102305142" lon="5.786454798080483"><ele>761.0</ele><time>2026-04-05T12:59:56.001Z</time></trkpt><trkpt lat="45.3479305665245" lon="5.786717362429257"><ele>761.0</ele><time>2026-04-05T12:59:57.001Z</time></trkpt><trkpt lat="45.34791332031361" lon="5.7869780166744516"><ele>761.0</ele><time>2026-04-05T12:59:58.001Z</time></trkpt><trkpt lat="45.34791474062032" lon="5.787252846664767"><ele>760.3333333333333</ele><time>2026-04-05T12:59:59.001Z</time></trkpt><trkpt lat="45.347914158638396" lon="5.787509748920511"><ele>759.6666666666666</ele><time>2026-04-05T13:00:00.001Z</time></trkpt><trkpt lat="45.34791600201642" lon="5.787748563461398"><ele>759.0</ele><time>2026-04-05T13:00:01.001Z</time></trkpt><trkpt lat="45.34791890310961" lon="5.787964361254647"><ele>758.3333333333334</ele><time>2026-04-05T13:00:02.001Z</time></trkpt><trkpt lat="45.34794519021222" lon="5.788172580301367"><ele>757.6666666666667</ele><time>2026-04-05T13:00:03.001Z</time></trkpt><trkpt lat="45.34798295534357" lon="5.788389874846464"><ele>757.0</ele><time>2026-04-05T13:00:04.001Z</time></trkpt><trkpt lat="45.34804896748998" lon="5.788617268317955"><ele>769.3333333333334</ele><time>2026-04-05T13:00:05.001Z</time></trkpt><trkpt lat="45.3480994540128" lon="5.788827283903003"><ele>781.6666666666667</ele><time>2026-04-05T13:00:06.001Z</time></trkpt><trkpt lat="45.348151898497846" lon="5.789054068625156"><ele>794.0</ele><time>2026-04-05T13:00:07.001Z</time></trkpt><trkpt lat="45.34822516907007" lon="5.7892599808758956"><ele>793.0</ele><time>2026-04-05T13:00:08.001Z</time></trkpt><trkpt lat="45.34827109716647" lon="5.78946105234904"><ele>792.0</ele><time>2026-04-05T13:00:09.002Z</time></trkpt><trkpt lat="45.34831834974256" lon="5.789640304148063"><ele>791.0</ele><time>2026-04-05T13:00:10.002Z</time></trkpt><trkpt lat="45.348377567815994" lon="5.789809797861444"><ele>790.0</ele><time>2026-04-05T13:00:11.002Z</time></trkpt><trkpt lat="45.3484339588747" lon="5.7899736657318694"><ele>790.0</ele><time>2026-04-05T13:00:12.002Z</time></trkpt><trkpt lat="45.34847611375254" lon="5.790145262140615"><ele>790.0</ele><time>2026-04-05T13:00:13.002Z</time></trkpt><trkpt lat="45.34846791366211" lon="5.790322450433763"><ele>790.0</ele><time>2026-04-05T13:00:14.002Z</time></trkpt><trkpt lat="45.348435886256496" lon="5.790490480390019"><ele>790.0</ele><time>2026-04-05T13:00:15.002Z</time></trkpt><trkpt lat="45.34838845190379" lon="5.790689522059882"><ele>790.0</ele><time>2026-04-05T13:00:16.002Z</time></trkpt><trkpt lat="45.34831552418958" lon="5.790861988043667"><ele>790.0</ele><time>2026-04-05T13:00:17.002Z</time></trkpt><trkpt lat="45.34820002172463" lon="5.791020158910411"><ele>790.0</ele><time>2026-04-05T13:00:18.002Z</time></trkpt><trkpt lat="45.34809174320027" lon="5.791137145893974"><ele>790.0</ele><time>2026-04-05T13:00:19.002Z</time></trkpt><trkpt lat="45.34796516076124" lon="5.791270694704376"><ele>790.0</ele><time>2026-04-05T13:00:20.002Z</time></trkpt><trkpt lat="45.34783695594868" lon="5.791417005753377"><ele>790.0</ele><time>2026-04-05T13:00:21.001Z</time></trkpt><trkpt lat="45.347695512563405" lon="5.791584199888049"><ele>790.0</ele><time>2026-04-05T13:00:22.001Z</time></trkpt><trkpt lat="45.34755171347769" lon="5.7917186477350855"><ele>783.6666666666666</ele><time>2026-04-05T13:00:23.001Z</time></trkpt><trkpt lat="45.347400858596224" lon="5.7918417154886805"><ele>777.3333333333333</ele><time>2026-04-05T13:00:24.001Z</time></trkpt><trkpt lat="45.34727494663143" lon="5.791990280116288"><ele>771.0</ele><time>2026-04-05T13:00:25.001Z</time></trkpt><trkpt lat="45.34715563489741" lon="5.792137579116583"><ele>771.0</ele><time>2026-04-05T13:00:26.001Z</time></trkpt><trkpt lat="45.34707186084461" lon="5.7923302100477665"><ele>771.0</ele><time>2026-04-05T13:00:27.001Z</time></trkpt><trkpt lat="45.34700632137247" lon="5.792522516504053"><ele>771.0</ele><time>2026-04-05T13:00:28.001Z</time></trkpt><trkpt lat="45.34697188356119" lon="5.792736461203615"><ele>774.0</ele><time>2026-04-05T13:00:29.001Z</time></trkpt><trkpt lat="45.346937444414486" lon="5.792930763082059"><ele>777.0</ele><time>2026-04-05T13:00:30Z</time></trkpt><trkpt lat="45.34690848009318" lon="5.793161761413871"><ele>780.0</ele><time>2026-04-05T13:00:31Z</time></trkpt><trkpt lat="45.34684592905747" lon="5.793370826896008"><ele>782.3333333333333</ele><time>2026-04-05T13:00:32Z</time></trkpt><trkpt lat="45.34675501685541" lon="5.793527022373188"><ele>784.6666666666666</ele><time>2026-04-05T13:00:33Z</time></trkpt><trkpt lat="45.34668025355117" lon="5.793719414560247"><ele>787.0</ele><time>2026-04-05T13:00:34Z</time></trkpt><trkpt lat="45.34666269152134" lon="5.793935360747022"><ele>787.0</ele><time>2026-04-05T13:00:35Z</time></trkpt><trkpt lat="45.34663400387717" lon="5.794170590078959"><ele>787.0</ele><time>2026-04-05T13:00:36Z</time></trkpt><trkpt lat="45.34661837629571" lon="5.794381917578612"><ele>787.0</ele><time>2026-04-05T13:00:37Z</time></trkpt><trkpt lat="45.34660091034852" lon="5.794576296545724"><ele>782.5</ele><time>2026-04-05T13:00:38Z</time></trkpt><trkpt lat="45.34657231347457" lon="5.794746401387708"><ele>778.0</ele><time>2026-04-05T13:00:39Z</time></trkpt><trkpt lat="45.34652096840595" lon="5.79488651143793"><ele>773.5</ele><time>2026-04-05T13:00:40Z</time></trkpt><trkpt lat="45.34641173516859" lon="5.795019349924784"><ele>769.0</ele><time>2026-04-05T13:00:41Z</time></trkpt><trkpt lat="45.34627916214122" lon="5.795096439800263"><ele>775.6666666666666</ele><time>2026-04-05T13:00:42Z</time></trkpt><trkpt lat="45.34616467232699" lon="5.795228110450008"><ele>782.3333333333333</ele><time>2026-04-05T13:00:43Z</time></trkpt><trkpt lat="45.34608404317205" lon="5.795413907258302"><ele>789.0</ele><time>2026-04-05T13:00:44Z</time></trkpt><trkpt lat="45.34599427825634" lon="5.795598031608601"><ele>789.0</ele><time>2026-04-05T13:00:45Z</time></trkpt><trkpt lat="45.345899964930446" lon="5.79579252253219"><ele>789.0</ele><time>2026-04-05T13:00:46Z</time></trkpt><trkpt lat="45.34580819241668" lon="5.796005003437843"><ele>789.0</ele><time>2026-04-05T13:00:47Z</time></trkpt><trkpt lat="45.345727947026994" lon="5.7962342848761645"><ele>786.6666666666667</ele><time>2026-04-05T13:00:48Z</time></trkpt><trkpt lat="45.34564341982339" lon="5.796501027210568"><ele>784.3333333333334</ele><time>2026-04-05T13:00:49.001Z</time></trkpt><trkpt lat="45.34556609697147" lon="5.796751006873473"><ele>782.0</ele><time>2026-04-05T13:00:50.001Z</time></trkpt><trkpt lat="45.345493158321496" lon="5.7969868132216185"><ele>782.0</ele><time>2026-04-05T13:00:51.001Z</time></trkpt><trkpt lat="45.3454269870892" lon="5.797214369816381"><ele>782.0</ele><time>2026-04-05T13:00:52.001Z</time></trkpt><trkpt lat="45.3453639444073" lon="5.797430854895757"><ele>782.0</ele><time>2026-04-05T13:00:53.001Z</time></trkpt><trkpt lat="45.34529786873532" lon="5.797631834889763"><ele>787.6666666666667</ele><time>2026-04-05T13:00:54.001Z</time></trkpt><trkpt lat="45.34521866070468" lon="5.797802390242678"><ele>793.3333333333333</ele><time>2026-04-05T13:00:55.001Z</time></trkpt><trkpt lat="45.34511425282644" lon="5.797946859011725"><ele>799.0</ele><time>2026-04-05T13:00:56.001Z</time></trkpt><trkpt lat="45.34498032579999" lon="5.798098867586411"><ele>799.0</ele><time>2026-04-05T13:00:57.001Z</time></trkpt><trkpt lat="45.34483258674191" lon="5.798272907090841"><ele>799.0</ele><time>2026-04-05T13:00:58.001Z</time></trkpt><trkpt lat="45.34469584639235" lon="5.798464862097331"><ele>799.0</ele><time>2026-04-05T13:00:59.001Z</time></trkpt><trkpt lat="45.344581015411606" lon="5.798616009307615"><ele>808.5</ele><time>2026-04-05T13:01:00.001Z</time></trkpt><trkpt lat="45.344461176163925" lon="5.798763949120701"><ele>818.0</ele><time>2026-04-05T13:01:01.001Z</time></trkpt><trkpt lat="45.34438268416543" lon="5.798858699357884"><ele>827.5</ele><time>2026-04-05T13:01:02.001Z</time></trkpt><trkpt lat="45.344265515276874" lon="5.799002444012003"><ele>837.0</ele><time>2026-04-05T13:01:03.001Z</time></trkpt><trkpt lat="45.344199191964734" lon="5.799153418493653"><ele>837.0</ele><time>2026-04-05T13:01:04.001Z</time></trkpt><trkpt lat="45.344145276225944" lon="5.799319006381656"><ele>837.0</ele><time>2026-04-05T13:01:05.001Z</time></trkpt><trkpt lat="45.34410874092925" lon="5.799531046045696"><ele>837.0</ele><time>2026-04-05T13:01:06.001Z</time></trkpt><trkpt lat="45.344079897952774" lon="5.799767199889416"><ele>833.5</ele><time>2026-04-05T13:01:07.001Z</time></trkpt><trkpt lat="45.344075417206966" lon="5.799956409901987"><ele>830.0</ele><time>2026-04-05T13:01:08.001Z</time></trkpt><trkpt lat="45.34408128073487" lon="5.800127145783755"><ele>826.5</ele><time>2026-04-05T13:01:09.001Z</time></trkpt><trkpt lat="45.34408688368804" lon="5.8002779885253695"><ele>823.0</ele><time>2026-04-05T13:01:10.001Z</time></trkpt><trkpt lat="45.344090938848545" lon="5.800424762336117"><ele>823.0</ele><time>2026-04-05T13:01:11.001Z</time></trkpt><trkpt lat="45.34408436146557" lon="5.800547215446294"><ele>823.0</ele><time>2026-04-05T13:01:12.001Z</time></trkpt><trkpt lat="45.34405766354497" lon="5.800664339524231"><ele>823.0</ele><time>2026-04-05T13:01:13.001Z</time></trkpt><trkpt lat="45.34402737569336" lon="5.800786482527849"><ele>823.0</ele><time>2026-04-05T13:01:14.001Z</time></trkpt><trkpt lat="45.34395312710247" lon="5.800888445101284"><ele>823.0</ele><time>2026-04-05T13:01:15.001Z</time></trkpt><trkpt lat="45.34386459593861" lon="5.800977568513444"><ele>821.8</ele><time>2026-04-05T13:01:16.001Z</time></trkpt><trkpt lat="45.3437923065357" lon="5.801096558260728"><ele>820.5999999999999</ele><time>2026-04-05T13:01:17.001Z</time></trkpt><trkpt lat="45.343764018928994" lon="5.8012333219949115"><ele>819.4000000000001</ele><time>2026-04-05T13:01:18.001Z</time></trkpt><trkpt lat="45.34375751757925" lon="5.801385566940227"><ele>818.2</ele><time>2026-04-05T13:01:19.001Z</time></trkpt><trkpt lat="45.34375608661388" lon="5.8015392976968165"><ele>817.0</ele><time>2026-04-05T13:01:20.001Z</time></trkpt><trkpt lat="45.34372074628153" lon="5.801686512734164"><ele>817.0</ele><time>2026-04-05T13:01:21.001Z</time></trkpt><trkpt lat="45.343707458825506" lon="5.801820569117878"><ele>817.0</ele><time>2026-04-05T13:01:22.001Z</time></trkpt><trkpt lat="45.34366306250826" lon="5.801941835977162"><ele>817.0</ele><time>2026-04-05T13:01:23.001Z</time></trkpt><trkpt lat="45.343595842095304" lon="5.802052654013377"><ele>817.0</ele><time>2026-04-05T13:01:24.001Z</time></trkpt><trkpt lat="45.34350993720939" lon="5.802138520985274"><ele>817.0</ele><time>2026-04-05T13:01:25.001Z</time></trkpt><trkpt lat="45.34341671299373" lon="5.80223273021906"><ele>815.0</ele><time>2026-04-05T13:01:26.001Z</time></trkpt><trkpt lat="45.343329544003744" lon="5.802342719597779"><ele>813.0</ele><time>2026-04-05T13:01:27.001Z</time></trkpt><trkpt lat="45.34324111674082" lon="5.8024257764332035"><ele>811.0</ele><time>2026-04-05T13:01:28.001Z</time></trkpt><trkpt lat="45.34314252227611" lon="5.802535592706538"><ele>809.0</ele><time>2026-04-05T13:01:29.001Z</time></trkpt><trkpt lat="45.34307499651925" lon="5.802673210931333"><ele>809.75</ele><time>2026-04-05T13:01:30.001Z</time></trkpt><trkpt lat="45.342997820354476" lon="5.8028039469956845"><ele>810.5</ele><time>2026-04-05T13:01:31.001Z</time></trkpt><trkpt lat="45.34292618011702" lon="5.802945944440005"><ele>811.25</ele><time>2026-04-05T13:01:32.001Z</time></trkpt><trkpt lat="45.342814314341034" lon="5.803006250832074"><ele>812.0</ele><time>2026-04-05T13:01:33.001Z</time></trkpt><trkpt lat="45.3426646199277" lon="5.803073662683012"><ele>812.0</ele><time>2026-04-05T13:01:34.001Z</time></trkpt><trkpt lat="45.34248526165983" lon="5.803166054484549"><ele>812.0</ele><time>2026-04-05T13:01:35.001Z</time></trkpt><trkpt lat="45.342328711489934" lon="5.803280899410525"><ele>812.0</ele><time>2026-04-05T13:01:36.001Z</time></trkpt><trkpt lat="45.342151100555974" lon="5.803344989843254"><ele>813.25</ele><time>2026-04-05T13:01:37.001Z</time></trkpt><trkpt lat="45.341996504530684" lon="5.803414990544677"><ele>814.5</ele><time>2026-04-05T13:01:38.001Z</time></trkpt><trkpt lat="45.34188945724143" lon="5.803501244922929"><ele>815.75</ele><time>2026-04-05T13:01:39.001Z</time></trkpt><trkpt lat="45.341741916598245" lon="5.803581065338331"><ele>817.0</ele><time>2026-04-05T13:01:40.001Z</time></trkpt><trkpt lat="45.341603820144684" lon="5.803661899956438"><ele>817.0</ele><time>2026-04-05T13:01:41.001Z</time></trkpt><trkpt lat="45.34145548809941" lon="5.803748919493067"><ele>817.0</ele><time>2026-04-05T13:01:42.001Z</time></trkpt><trkpt lat="45.34134176385558" lon="5.8038421922861145"><ele>817.0</ele><time>2026-04-05T13:01:43.001Z</time></trkpt><trkpt lat="45.341216899853606" lon="5.803924952910467"><ele>817.0</ele><time>2026-04-05T13:01:44.001Z</time></trkpt><trkpt lat="45.341088443762615" lon="5.804035720617197"><ele>817.0</ele><time>2026-04-05T13:01:45.001Z</time></trkpt><trkpt lat="45.34095643186492" lon="5.804145022451382"><ele>817.0</ele><time>2026-04-05T13:01:46.001Z</time></trkpt><trkpt lat="45.34083530832679" lon="5.804256434576265"><ele>817.0</ele><time>2026-04-05T13:01:47.001Z</time></trkpt><trkpt lat="45.34073210644196" lon="5.804405267825219"><ele>817.0</ele><time>2026-04-05T13:01:48.001Z</time></trkpt><trkpt lat="45.3406397355878" lon="5.8045420580239355"><ele>818.0</ele><time>2026-04-05T13:01:49.001Z</time></trkpt><trkpt lat="45.34055000009702" lon="5.80469661341149"><ele>819.0</ele><time>2026-04-05T13:01:50.001Z</time></trkpt><trkpt lat="45.340468049587706" lon="5.804831628890234"><ele>820.0</ele><time>2026-04-05T13:01:51.001Z</time></trkpt><trkpt lat="45.34038826591949" lon="5.804979519656119"><ele>821.0</ele><time>2026-04-05T13:01:52.001Z</time></trkpt><trkpt lat="45.3403266023665" lon="5.805091428704817"><ele>815.5</ele><time>2026-04-05T13:01:53.001Z</time></trkpt><trkpt lat="45.34024056326803" lon="5.805208740544596"><ele>810.0</ele><time>2026-04-05T13:01:54.001Z</time></trkpt><trkpt lat="45.3401282537137" lon="5.805289708331955"><ele>804.5</ele><time>2026-04-05T13:01:55.001Z</time></trkpt><trkpt lat="45.34009269313169" lon="5.805438118133565"><ele>799.0</ele><time>2026-04-05T13:01:56.001Z</time></trkpt><trkpt lat="45.340000026595064" lon="5.805523372332387"><ele>798.9999999999999</ele><time>2026-04-05T13:01:57.001Z</time></trkpt><trkpt lat="45.33990299711905" lon="5.805584769509503"><ele>799.0</ele><time>2026-04-05T13:01:58.001Z</time></trkpt><trkpt lat="45.33981567928996" lon="5.805630904755216"><ele>799.0</ele><time>2026-04-05T13:01:59.001Z</time></trkpt><trkpt lat="45.33974710975586" lon="5.805690577207719"><ele>799.0</ele><time>2026-04-05T13:02:00.001Z</time></trkpt><trkpt lat="45.33969614696792" lon="5.805750548712374"><ele>798.9999999999999</ele><time>2026-04-05T13:02:01.001Z</time></trkpt><trkpt lat="45.33966443266255" lon="5.80583404918879"><ele>799.0</ele><time>2026-04-05T13:02:02.001Z</time></trkpt><trkpt lat="45.33964989603868" lon="5.805987791365417"><ele>799.0</ele><time>2026-04-05T13:02:04.001Z</time></trkpt><trkpt lat="45.33966479718474" lon="5.806134648736922"><ele>799.0</ele><time>2026-04-05T13:02:06.001Z</time></trkpt><trkpt lat="45.33968126304603" lon="5.806298599608466"><ele>799.0</ele><time>2026-04-05T13:02:08.001Z</time></trkpt><trkpt lat="45.33969590108586" lon="5.806466142246885"><ele>799.0</ele><time>2026-04-05T13:02:10.001Z</time></trkpt><trkpt lat="45.33970554869483" lon="5.806571814757787"><ele>799.0</ele><time>2026-04-05T13:02:11.001Z</time></trkpt><trkpt lat="45.339723604108954" lon="5.806694563040321"><ele>798.9999999999999</ele><time>2026-04-05T13:02:12.001Z</time></trkpt><trkpt lat="45.33974208433041" lon="5.806815072284037"><ele>799.0</ele><time>2026-04-05T13:02:13.001Z</time></trkpt><trkpt lat="45.33975804975408" lon="5.806937356635472"><ele>799.0</ele><time>2026-04-05T13:02:14.001Z</time></trkpt><trkpt lat="45.33977589118342" lon="5.807067076546472"><ele>799.0</ele><time>2026-04-05T13:02:15.001Z</time></trkpt><trkpt lat="45.339788717403536" lon="5.807185898996787"><ele>798.9999999999999</ele><time>2026-04-05T13:02:16.001Z</time></trkpt><trkpt lat="45.33980177148975" lon="5.80728340305837"><ele>799.0</ele><time>2026-04-05T13:02:17.001Z</time></trkpt><trkpt lat="45.33980951916917" lon="5.807423434255931"><ele>799.6</ele><time>2026-04-05T13:02:19.001Z</time></trkpt><trkpt lat="45.3398194484274" lon="5.807528665675726"><ele>800.2</ele><time>2026-04-05T13:02:21.002Z</time></trkpt><trkpt lat="45.339802289992825" lon="5.807632338091045"><ele>800.8000000000001</ele><time>2026-04-05T13:02:23.002Z</time></trkpt><trkpt lat="45.339818189210945" lon="5.807782135297119"><ele>801.4000000000001</ele><time>2026-04-05T13:02:26.002Z</time></trkpt><trkpt lat="45.33989585046555" lon="5.807918633902002"><ele>802.0</ele><time>2026-04-05T13:02:28.001Z</time></trkpt><trkpt lat="45.33993269936938" lon="5.808019535627314"><ele>803.5</ele><time>2026-04-05T13:02:29.001Z</time></trkpt><trkpt lat="45.34003249548062" lon="5.808305390943409"><ele>805.0</ele><time>2026-04-05T13:02:31.001Z</time></trkpt><trkpt lat="45.34008435754522" lon="5.808444157410932"><ele>806.5</ele><time>2026-04-05T13:02:32.001Z</time></trkpt><trkpt lat="45.340140322520895" lon="5.808584287581755"><ele>808.0</ele><time>2026-04-05T13:02:33.001Z</time></trkpt><trkpt lat="45.34019471215533" lon="5.8087077989637645"><ele>808.1666666666666</ele><time>2026-04-05T13:02:34.001Z</time></trkpt><trkpt lat="45.34026354467278" lon="5.8088091998505975"><ele>808.3333333333333</ele><time>2026-04-05T13:02:35.001Z</time></trkpt><trkpt lat="45.34033080257649" lon="5.808886444136561"><ele>808.5</ele><time>2026-04-05T13:02:36Z</time></trkpt><trkpt lat="45.34038944024561" lon="5.8089735427515805"><ele>808.6666666666667</ele><time>2026-04-05T13:02:37Z</time></trkpt><trkpt lat="45.34042967597211" lon="5.809063325806243"><ele>808.8333333333334</ele><time>2026-04-05T13:02:38Z</time></trkpt><trkpt lat="45.34046614967045" lon="5.8091429507400205"><ele>809.0</ele><time>2026-04-05T13:02:39Z</time></trkpt><trkpt lat="45.34047815710435" lon="5.809232533062283"><ele>810.3333333333334</ele><time>2026-04-05T13:02:40Z</time></trkpt><trkpt lat="45.3404767818325" lon="5.80932822560577"><ele>811.6666666666667</ele><time>2026-04-05T13:02:41Z</time></trkpt><trkpt lat="45.340447740172415" lon="5.809426409630636"><ele>813.0</ele><time>2026-04-05T13:02:42Z</time></trkpt><trkpt lat="45.340407444444885" lon="5.809516859188961"><ele>814.3333333333333</ele><time>2026-04-05T13:02:43Z</time></trkpt><trkpt lat="45.34034015118311" lon="5.809578855111428"><ele>815.6666666666666</ele><time>2026-04-05T13:02:44Z</time></trkpt><trkpt lat="45.34027218456432" lon="5.809634846942247"><ele>817.0</ele><time>2026-04-05T13:02:45Z</time></trkpt><trkpt lat="45.34020370855464" lon="5.809697861369906"><ele>816.9999999999999</ele><time>2026-04-05T13:02:46Z</time></trkpt><trkpt lat="45.34012913627703" lon="5.8097627214014524"><ele>817.0</ele><time>2026-04-05T13:02:47Z</time></trkpt><trkpt lat="45.3400666901009" lon="5.809850843072325"><ele>817.0</ele><time>2026-04-05T13:02:48Z</time></trkpt><trkpt lat="45.34000766561457" lon="5.809940334108656"><ele>817.0</ele><time>2026-04-05T13:02:49Z</time></trkpt><trkpt lat="45.33995891048979" lon="5.8100242708413"><ele>816.9999999999999</ele><time>2026-04-05T13:02:50Z</time></trkpt><trkpt lat="45.339929401499724" lon="5.810108390682954"><ele>817.0</ele><time>2026-04-05T13:02:51Z</time></trkpt><trkpt lat="45.339913870676426" lon="5.810202957204022"><ele>817.9999999999999</ele><time>2026-04-05T13:02:52Z</time></trkpt><trkpt lat="45.33994857332789" lon="5.810384250929926"><ele>819.0</ele><time>2026-04-05T13:02:54Z</time></trkpt><trkpt lat="45.339983530892454" lon="5.810466431742973"><ele>820.0</ele><time>2026-04-05T13:02:55Z</time></trkpt><trkpt lat="45.340038820372065" lon="5.810550126623785"><ele>821.0</ele><time>2026-04-05T13:02:56Z</time></trkpt><trkpt lat="45.34008147692465" lon="5.8106391874951315"><ele>821.9999999999999</ele><time>2026-04-05T13:02:57Z</time></trkpt><trkpt lat="45.34013221731287" lon="5.810730001024704"><ele>823.0</ele><time>2026-04-05T13:02:58Z</time></trkpt><trkpt lat="45.340173545807815" lon="5.810834567726365"><ele>823.0</ele><time>2026-04-05T13:02:59Z</time></trkpt><trkpt lat="45.34020407441746" lon="5.810947625497005"><ele>823.0</ele><time>2026-04-05T13:03:00Z</time></trkpt><trkpt lat="45.340225769765524" lon="5.811073341225444"><ele>823.0</ele><time>2026-04-05T13:03:01Z</time></trkpt><trkpt lat="45.34024032308677" lon="5.811205749110623"><ele>823.0</ele><time>2026-04-05T13:03:02Z</time></trkpt><trkpt lat="45.3402499979874" lon="5.811348889363067"><ele>823.0</ele><time>2026-04-05T13:03:03Z</time></trkpt><trkpt lat="45.34026871869886" lon="5.81149702350534"><ele>823.5</ele><time>2026-04-05T13:03:04Z</time></trkpt><trkpt lat="45.3402742757921" lon="5.811652639194413"><ele>824.0</ele><time>2026-04-05T13:03:05Z</time></trkpt><trkpt lat="45.34029232915264" lon="5.8118211193395455"><ele>824.5</ele><time>2026-04-05T13:03:06Z</time></trkpt><trkpt lat="45.34031650699192" lon="5.81201545671493"><ele>825.0</ele><time>2026-04-05T13:03:07Z</time></trkpt><trkpt lat="45.340343510533856" lon="5.812243623122991"><ele>826.3333333333333</ele><time>2026-04-05T13:03:08Z</time></trkpt><trkpt lat="45.34038401931504" lon="5.812508635140905"><ele>827.6666666666666</ele><time>2026-04-05T13:03:09Z</time></trkpt><trkpt lat="45.34043059927794" lon="5.812792023090877"><ele>829.0</ele><time>2026-04-05T13:03:10.001Z</time></trkpt><trkpt lat="45.34048491181445" lon="5.813061350201194"><ele>829.25</ele><time>2026-04-05T13:03:11.001Z</time></trkpt><trkpt lat="45.340520226043935" lon="5.813300087317174"><ele>829.5</ele><time>2026-04-05T13:03:12.001Z</time></trkpt><trkpt lat="45.340545167502995" lon="5.813520691567921"><ele>829.75</ele><time>2026-04-05T13:03:13.001Z</time></trkpt><trkpt lat="45.3405646050056" lon="5.81368922717439"><ele>830.0</ele><time>2026-04-05T13:03:14.001Z</time></trkpt><trkpt lat="45.34059714101889" lon="5.813849622260222"><ele>834.0</ele><time>2026-04-05T13:03:15.001Z</time></trkpt><trkpt lat="45.340617023910085" lon="5.813977305039345"><ele>838.0</ele><time>2026-04-05T13:03:16.001Z</time></trkpt><trkpt lat="45.340672291871996" lon="5.814068704675604"><ele>842.0</ele><time>2026-04-05T13:03:17.001Z</time></trkpt><trkpt lat="45.34075715847176" lon="5.814147056711604"><ele>846.0</ele><time>2026-04-05T13:03:18.001Z</time></trkpt><trkpt lat="45.34087201198787" lon="5.814098636489348"><ele>850.0</ele><time>2026-04-05T13:03:19.001Z</time></trkpt><trkpt lat="45.34092879554312" lon="5.814044921321414"><ele>850.0</ele><time>2026-04-05T13:03:20.001Z</time></trkpt><trkpt lat="45.34098922077028" lon="5.813897466469191"><ele>850.0</ele><time>2026-04-05T13:03:21.001Z</time></trkpt><trkpt lat="45.34102138919283" lon="5.813726870627971"><ele>850.0</ele><time>2026-04-05T13:03:22.001Z</time></trkpt><trkpt lat="45.34100757486341" lon="5.813537152531493"><ele>850.0</ele><time>2026-04-05T13:03:23.001Z</time></trkpt><trkpt lat="45.34096890895554" lon="5.813391819314423"><ele>850.1666666666666</ele><time>2026-04-05T13:03:24.001Z</time></trkpt><trkpt lat="45.340929160591116" lon="5.813265360102704"><ele>850.3333333333333</ele><time>2026-04-05T13:03:25.001Z</time></trkpt><trkpt lat="45.3408981022466" lon="5.813142367865733"><ele>850.5</ele><time>2026-04-05T13:03:26.001Z</time></trkpt><trkpt lat="45.34087514501138" lon="5.813027625007013"><ele>850.6666666666667</ele><time>2026-04-05T13:03:27.001Z</time></trkpt><trkpt lat="45.34086332912731" lon="5.812908827350232"><ele>850.8333333333334</ele><time>2026-04-05T13:03:28.001Z</time></trkpt><trkpt lat="45.34085056035845" lon="5.812790207116952"><ele>851.0</ele><time>2026-04-05T13:03:29.001Z</time></trkpt><trkpt lat="45.34083727597298" lon="5.812655314913167"><ele>852.4</ele><time>2026-04-05T13:03:30.001Z</time></trkpt><trkpt lat="45.34083180191017" lon="5.812531138654152"><ele>853.8</ele><time>2026-04-05T13:03:31.001Z</time></trkpt><trkpt lat="45.34082878242032" lon="5.812389940879865"><ele>855.1999999999999</ele><time>2026-04-05T13:03:32.001Z</time></trkpt><trkpt lat="45.3408281258326" lon="5.812246322342128"><ele>856.5999999999999</ele><time>2026-04-05T13:03:33.001Z</time></trkpt><trkpt lat="45.34086298589683" lon="5.8121193413313055"><ele>858.0</ele><time>2026-04-05T13:03:34.001Z</time></trkpt><trkpt lat="45.34088277109011" lon="5.8120179905234375"><ele>858.0</ele><time>2026-04-05T13:03:35.001Z</time></trkpt><trkpt lat="45.34093886464631" lon="5.81190872022857"><ele>858.0</ele><time>2026-04-05T13:03:37.001Z</time></trkpt><trkpt lat="45.34102956556569" lon="5.811912368677606"><ele>858.0</ele><time>2026-04-05T13:03:39.001Z</time></trkpt><trkpt lat="45.34118465783652" lon="5.812003753512832"><ele>858.0</ele><time>2026-04-05T13:03:41.001Z</time></trkpt><trkpt lat="45.34120487934929" lon="5.812099826143483"><ele>858.0</ele><time>2026-04-05T13:03:42.001Z</time></trkpt><trkpt lat="45.341219984428875" lon="5.812194126980623"><ele>858.0</ele><time>2026-04-05T13:03:43.001Z</time></trkpt><trkpt lat="45.34122714402521" lon="5.8123011583435344"><ele>858.0</ele><time>2026-04-05T13:03:44.001Z</time></trkpt><trkpt lat="45.34121962024587" lon="5.812425620264382"><ele>858.0</ele><time>2026-04-05T13:03:45.001Z</time></trkpt><trkpt lat="45.341217130005646" lon="5.812563584384889"><ele>858.0</ele><time>2026-04-05T13:03:46.001Z</time></trkpt><trkpt lat="45.34120670726084" lon="5.81267711767714"><ele>858.0</ele><time>2026-04-05T13:03:47.001Z</time></trkpt><trkpt lat="45.34119321119751" lon="5.8127708349891725"><ele>858.0</ele><time>2026-04-05T13:03:48.001Z</time></trkpt><trkpt lat="45.34118025717501" lon="5.812868235661153"><ele>857.0</ele><time>2026-04-05T13:03:49.001Z</time></trkpt><trkpt lat="45.34119704859731" lon="5.8129733882549655"><ele>856.0</ele><time>2026-04-05T13:03:50.001Z</time></trkpt><trkpt lat="45.34124088502977" lon="5.813063080899503"><ele>855.0</ele><time>2026-04-05T13:03:51.001Z</time></trkpt><trkpt lat="45.341306555010064" lon="5.813132115092903"><ele>854.0</ele><time>2026-04-05T13:03:52.001Z</time></trkpt><trkpt lat="45.34137283265306" lon="5.813184613146207"><ele>853.0</ele><time>2026-04-05T13:03:53.001Z</time></trkpt><trkpt lat="45.341431802351394" lon="5.813227929110814"><ele>852.0</ele><time>2026-04-05T13:03:54.001Z</time></trkpt><trkpt lat="45.34149281036152" lon="5.813278160330854"><ele>851.0</ele><time>2026-04-05T13:03:55.001Z</time></trkpt><trkpt lat="45.34156710482745" lon="5.8133333531102345"><ele>855.3333333333334</ele><time>2026-04-05T13:03:56.001Z</time></trkpt><trkpt lat="45.34165193399688" lon="5.8133827728258645"><ele>859.6666666666667</ele><time>2026-04-05T13:03:57.001Z</time></trkpt><trkpt lat="45.34172516559328" lon="5.813447043021718"><ele>864.0</ele><time>2026-04-05T13:03:58.001Z</time></trkpt><trkpt lat="45.341786556973304" lon="5.813515639472345"><ele>868.3333333333333</ele><time>2026-04-05T13:03:59.001Z</time></trkpt><trkpt lat="45.34184255143217" lon="5.813588165776282"><ele>872.6666666666666</ele><time>2026-04-05T13:04:00.001Z</time></trkpt><trkpt lat="45.3418899249124" lon="5.813667230285993"><ele>877.0</ele><time>2026-04-05T13:04:01.001Z</time></trkpt><trkpt lat="45.34192874363856" lon="5.813740802571068"><ele>877.2</ele><time>2026-04-05T13:04:02.001Z</time></trkpt><trkpt lat="45.3419839592683" lon="5.813891243526682"><ele>877.4000000000001</ele><time>2026-04-05T13:04:04.001Z</time></trkpt><trkpt lat="45.34203901612828" lon="5.814024624277766"><ele>877.5999999999999</ele><time>2026-04-05T13:04:06.001Z</time></trkpt><trkpt lat="45.342085662934764" lon="5.814166670066214"><ele>877.8</ele><time>2026-04-05T13:04:08.001Z</time></trkpt><trkpt lat="45.34209881539958" lon="5.814262290838759"><ele>878.0</ele><time>2026-04-05T13:04:09.001Z</time></trkpt><trkpt lat="45.342097970701936" lon="5.814363658926936"><ele>879.3333333333334</ele><time>2026-04-05T13:04:10.001Z</time></trkpt><trkpt lat="45.34208298590697" lon="5.814465206250979"><ele>880.6666666666667</ele><time>2026-04-05T13:04:11.001Z</time></trkpt><trkpt lat="45.3420597322974" lon="5.814561504914085"><ele>882.0</ele><time>2026-04-05T13:04:12.001Z</time></trkpt><trkpt lat="45.34202440553372" lon="5.814659601306578"><ele>883.3333333333333</ele><time>2026-04-05T13:04:13.001Z</time></trkpt><trkpt lat="45.34197853123204" lon="5.814754093862709"><ele>884.6666666666666</ele><time>2026-04-05T13:04:14.001Z</time></trkpt><trkpt lat="45.34192524730143" lon="5.814843841818022"><ele>886.0</ele><time>2026-04-05T13:04:15.001Z</time></trkpt><trkpt lat="45.34187891829709" lon="5.814934682507414"><ele>885.9999999999999</ele><time>2026-04-05T13:04:16.001Z</time></trkpt><trkpt lat="45.341843238860974" lon="5.8150092915573435"><ele>886.0</ele><time>2026-04-05T13:04:17.001Z</time></trkpt><trkpt lat="45.34179604206309" lon="5.815069574715122"><ele>886.0</ele><time>2026-04-05T13:04:18.001Z</time></trkpt><trkpt lat="45.34173936688026" lon="5.815116178870768"><ele>886.0</ele><time>2026-04-05T13:04:19.001Z</time></trkpt><trkpt lat="45.341639249669576" lon="5.8151997230448496"><ele>885.9999999999999</ele><time>2026-04-05T13:04:21.001Z</time></trkpt><trkpt lat="45.34154768661046" lon="5.815271861765773"><ele>886.0</ele><time>2026-04-05T13:04:23.001Z</time></trkpt><trkpt lat="45.34148377017381" lon="5.815385383983499"><ele>886.8</ele><time>2026-04-05T13:04:25.001Z</time></trkpt><trkpt lat="45.341530554288006" lon="5.815483478912825"><ele>887.5999999999999</ele><time>2026-04-05T13:04:26.001Z</time></trkpt><trkpt lat="45.341617517754834" lon="5.815600573124577"><ele>888.4</ele><time>2026-04-05T13:04:28.001Z</time></trkpt><trkpt lat="45.34167871648421" lon="5.815721553412203"><ele>889.2</ele><time>2026-04-05T13:04:30.001Z</time></trkpt><trkpt lat="45.34170434087413" lon="5.815862118038024"><ele>890.0</ele><time>2026-04-05T13:04:32.001Z</time></trkpt><trkpt lat="45.34169198112555" lon="5.815967859139917"><ele>890.0</ele><time>2026-04-05T13:04:35Z</time></trkpt><trkpt lat="45.34166026461651" lon="5.816056229688577"><ele>890.0</ele><time>2026-04-05T13:04:38Z</time></trkpt><trkpt lat="45.341643572793274" lon="5.8161430397771685"><ele>890.0</ele><time>2026-04-05T13:04:41Z</time></trkpt><trkpt lat="45.34159417422304" lon="5.816230478362601"><ele>890.0</ele><time>2026-04-05T13:04:44Z</time></trkpt><trkpt lat="45.34164280886829" lon="5.816133254998964"><ele>890.0</ele><time>2026-04-05T13:07:05Z</time></trkpt><trkpt lat="45.34165814177905" lon="5.816038338311314"><ele>890.0</ele><time>2026-04-05T13:07:07Z</time></trkpt><trkpt lat="45.34168862628014" lon="5.81593215515475"><ele>890.0</ele><time>2026-04-05T13:07:10Z</time></trkpt><trkpt lat="45.34172061435586" lon="5.815841711561054"><ele>890.0</ele><time>2026-04-05T13:07:13Z</time></trkpt><trkpt lat="45.3417561791925" lon="5.815744847010207"><ele>890.0</ele><time>2026-04-05T13:07:17Z</time></trkpt><trkpt lat="45.341794379633534" lon="5.815640803428995"><ele>890.0</ele><time>2026-04-05T13:07:21Z</time></trkpt><trkpt lat="45.34209223811852" lon="5.815823339382118"><ele>890.0</ele><time>2026-04-05T13:07:22Z</time></trkpt><trkpt lat="45.342179247151144" lon="5.815806860313684"><ele>890.0</ele><time>2026-04-05T13:07:24Z</time></trkpt><trkpt lat="45.3418580599465" lon="5.815467362116507"><ele>890.0</ele><time>2026-04-05T13:07:26Z</time></trkpt><trkpt lat="45.341890855296704" lon="5.815378040075327"><ele>890.0</ele><time>2026-04-05T13:07:28Z</time></trkpt><trkpt lat="45.341978287500616" lon="5.815330758855516"><ele>890.0</ele><time>2026-04-05T13:07:30Z</time></trkpt><trkpt lat="45.342078928106176" lon="5.81529558967553"><ele>890.0</ele><time>2026-04-05T13:07:32Z</time></trkpt><trkpt lat="45.34262142776606" lon="5.815649218086869"><ele>891.8</ele><time>2026-04-05T13:07:33Z</time></trkpt><trkpt lat="45.34271731904664" lon="5.815624516303554"><ele>893.6</ele><time>2026-04-05T13:07:35Z</time></trkpt><trkpt lat="45.342828010779385" lon="5.815604434052317"><ele>895.4000000000001</ele><time>2026-04-05T13:07:37Z</time></trkpt><trkpt lat="45.342926335690166" lon="5.815571303315832"><ele>897.2</ele><time>2026-04-05T13:07:38Z</time></trkpt><trkpt lat="45.34304861730525" lon="5.815554820925057"><ele>899.0</ele><time>2026-04-05T13:07:40Z</time></trkpt><trkpt lat="45.343164257701034" lon="5.815550586876768"><ele>899.8000000000001</ele><time>2026-04-05T13:07:42Z</time></trkpt><trkpt lat="45.34327883995129" lon="5.815554785513587"><ele>900.6000000000001</ele><time>2026-04-05T13:07:44Z</time></trkpt><trkpt lat="45.343388314224" lon="5.815556107601197"><ele>901.4</ele><time>2026-04-05T13:07:46Z</time></trkpt><trkpt lat="45.343498123751345" lon="5.815581759038556"><ele>902.2</ele><time>2026-04-05T13:07:48Z</time></trkpt><trkpt lat="45.34356689852832" lon="5.815612016458149"><ele>903.0</ele><time>2026-04-05T13:07:49Z</time></trkpt><trkpt lat="45.343643657976024" lon="5.815658000108994"><ele>903.0</ele><time>2026-04-05T13:07:50Z</time></trkpt><trkpt lat="45.343725179530516" lon="5.815737889941165"><ele>903.0</ele><time>2026-04-05T13:07:51Z</time></trkpt><trkpt lat="45.34379694210532" lon="5.815811341256046"><ele>903.0</ele><time>2026-04-05T13:07:52Z</time></trkpt><trkpt lat="45.34383718997203" lon="5.815880747659239"><ele>903.0</ele><time>2026-04-05T13:07:53Z</time></trkpt><trkpt lat="45.343889430304436" lon="5.815953108695813"><ele>903.0</ele><time>2026-04-05T13:07:54Z</time></trkpt><trkpt lat="45.34396502638095" lon="5.8160474392433725"><ele>903.0</ele><time>2026-04-05T13:07:56Z</time></trkpt><trkpt lat="45.344022403954" lon="5.816115612760076"><ele>904.0</ele><time>2026-04-05T13:07:58Z</time></trkpt><trkpt lat="45.344076398335055" lon="5.816185365978915"><ele>905.0</ele><time>2026-04-05T13:08:01.001Z</time></trkpt><trkpt lat="45.34416145347155" lon="5.8162550838024645"><ele>906.0</ele><time>2026-04-05T13:08:03.001Z</time></trkpt><trkpt lat="45.344250537152114" lon="5.816359777718701"><ele>907.0</ele><time>2026-04-05T13:08:05.001Z</time></trkpt><trkpt lat="45.34434930198799" lon="5.816474785491544"><ele>908.0</ele><time>2026-04-05T13:08:07.001Z</time></trkpt><trkpt lat="45.344408456697195" lon="5.816540338835871"><ele>908.0000000000001</ele><time>2026-04-05T13:08:08.001Z</time></trkpt><trkpt lat="45.3444735857932" lon="5.8165985241915505"><ele>908.0</ele><time>2026-04-05T13:08:09.001Z</time></trkpt><trkpt lat="45.34454571299471" lon="5.81661752201868"><ele>908.0</ele><time>2026-04-05T13:08:10.001Z</time></trkpt><trkpt lat="45.34460977568314" lon="5.8167215753641"><ele>908.0</ele><time>2026-04-05T13:08:11.001Z</time></trkpt><trkpt lat="45.3446584659654" lon="5.8168111102416535"><ele>908.0000000000001</ele><time>2026-04-05T13:08:12.001Z</time></trkpt><trkpt lat="45.34474601758276" lon="5.816842099659918"><ele>908.0</ele><time>2026-04-05T13:08:13.001Z</time></trkpt><trkpt lat="45.34483487869293" lon="5.816818300437549"><ele>907.2</ele><time>2026-04-05T13:08:14.001Z</time></trkpt><trkpt lat="45.344921530987705" lon="5.816808812146015"><ele>906.4</ele><time>2026-04-05T13:08:15.001Z</time></trkpt><trkpt lat="45.345013474507624" lon="5.816812033089467"><ele>905.6000000000001</ele><time>2026-04-05T13:08:16.001Z</time></trkpt><trkpt lat="45.34515255871689" lon="5.816760073424766"><ele>904.8000000000001</ele><time>2026-04-05T13:08:18.001Z</time></trkpt><trkpt lat="45.34522769561453" lon="5.816740584709515"><ele>904.0</ele><time>2026-04-05T13:08:19.001Z</time></trkpt><trkpt lat="45.345297880715606" lon="5.816738925919788"><ele>903.9999999999999</ele><time>2026-04-05T13:08:20.001Z</time></trkpt><trkpt lat="45.345366064599666" lon="5.816747600155322"><ele>904.0</ele><time>2026-04-05T13:08:21.001Z</time></trkpt><trkpt lat="45.345427828039675" lon="5.816769136475311"><ele>904.0</ele><time>2026-04-05T13:08:22.001Z</time></trkpt><trkpt lat="45.34549213595011" lon="5.816788575393813"><ele>904.0</ele><time>2026-04-05T13:08:23.001Z</time></trkpt><trkpt lat="45.34556817778918" lon="5.816823997742936"><ele>903.9999999999999</ele><time>2026-04-05T13:08:24.001Z</time></trkpt><trkpt lat="45.3456522724899" lon="5.8168578219864955"><ele>904.0</ele><time>2026-04-05T13:08:25.001Z</time></trkpt><trkpt lat="45.345736280087486" lon="5.816891739302149"><ele>907.6</ele><time>2026-04-05T13:08:26.001Z</time></trkpt><trkpt lat="45.34581467415779" lon="5.816923713889133"><ele>911.2</ele><time>2026-04-05T13:08:27.001Z</time></trkpt><trkpt lat="45.34590546767074" lon="5.816923749924546"><ele>914.8000000000001</ele><time>2026-04-05T13:08:28.001Z</time></trkpt><trkpt lat="45.346002655441026" lon="5.81695523409923"><ele>918.4000000000001</ele><time>2026-04-05T13:08:29.001Z</time></trkpt><trkpt lat="45.34610452180198" lon="5.816925893499929"><ele>922.0</ele><time>2026-04-05T13:08:30.001Z</time></trkpt><trkpt lat="45.3462257329016" lon="5.816878660544802"><ele>922.0</ele><time>2026-04-05T13:08:31.001Z</time></trkpt><trkpt lat="45.34635365808586" lon="5.816856378200405"><ele>922.0</ele><time>2026-04-05T13:08:32.001Z</time></trkpt><trkpt lat="45.34647467432783" lon="5.816845188484529"><ele>922.0</ele><time>2026-04-05T13:08:33.001Z</time></trkpt><trkpt lat="45.34659971657692" lon="5.816852404446693"><ele>922.0</ele><time>2026-04-05T13:08:34.001Z</time></trkpt><trkpt lat="45.34673335765639" lon="5.8168756440392535"><ele>923.25</ele><time>2026-04-05T13:08:35.001Z</time></trkpt><trkpt lat="45.34685791945974" lon="5.81690619417696"><ele>924.5</ele><time>2026-04-05T13:08:36.001Z</time></trkpt><trkpt lat="45.34696076182968" lon="5.8169189025758365"><ele>925.75</ele><time>2026-04-05T13:08:37.001Z</time></trkpt><trkpt lat="45.34708136977583" lon="5.816973125483316"><ele>927.0</ele><time>2026-04-05T13:08:38.001Z</time></trkpt><trkpt lat="45.34720225546343" lon="5.816982659748363"><ele>926.6</ele><time>2026-04-05T13:08:39.001Z</time></trkpt><trkpt lat="45.34731455457753" lon="5.817011357570289"><ele>926.2</ele><time>2026-04-05T13:08:40.001Z</time></trkpt><trkpt lat="45.347416961416045" lon="5.817050425746046"><ele>925.8</ele><time>2026-04-05T13:08:41.001Z</time></trkpt><trkpt lat="45.34752488363101" lon="5.817089334137804"><ele>925.4</ele><time>2026-04-05T13:08:42.001Z</time></trkpt><trkpt lat="45.34763116924752" lon="5.817155965379225"><ele>925.0</ele><time>2026-04-05T13:08:43.001Z</time></trkpt><trkpt lat="45.3477264626526" lon="5.8172491022130055"><ele>925.0</ele><time>2026-04-05T13:08:44.001Z</time></trkpt><trkpt lat="45.3478078122573" lon="5.817386216009462"><ele>925.0</ele><time>2026-04-05T13:08:45Z</time></trkpt><trkpt lat="45.34790913722658" lon="5.817508513452054"><ele>925.0</ele><time>2026-04-05T13:08:46Z</time></trkpt><trkpt lat="45.34799680736992" lon="5.817645772339153"><ele>925.0</ele><time>2026-04-05T13:08:47Z</time></trkpt><trkpt lat="45.348081845225025" lon="5.817800976583994"><ele>925.5</ele><time>2026-04-05T13:08:48Z</time></trkpt><trkpt lat="45.34816432932812" lon="5.817957962214653"><ele>926.0</ele><time>2026-04-05T13:08:49Z</time></trkpt><trkpt lat="45.34824619386984" lon="5.818114258610636"><ele>926.5</ele><time>2026-04-05T13:08:50Z</time></trkpt><trkpt lat="45.348330985717986" lon="5.818271776078757"><ele>927.0</ele><time>2026-04-05T13:08:51Z</time></trkpt><trkpt lat="45.34840639253696" lon="5.818432757728754"><ele>933.75</ele><time>2026-04-05T13:08:52Z</time></trkpt><trkpt lat="45.348478428249344" lon="5.818583902198612"><ele>940.5</ele><time>2026-04-05T13:08:53Z</time></trkpt><trkpt lat="45.348547181213284" lon="5.81873006624931"><ele>947.25</ele><time>2026-04-05T13:08:54Z</time></trkpt><trkpt lat="45.348629679129715" lon="5.818841834712465"><ele>954.0</ele><time>2026-04-05T13:08:55Z</time></trkpt><trkpt lat="45.34873305492162" lon="5.818934400926703"><ele>954.0</ele><time>2026-04-05T13:08:56Z</time></trkpt><trkpt lat="45.34885051834492" lon="5.819015306190846"><ele>954.0</ele><time>2026-04-05T13:08:57Z</time></trkpt><trkpt lat="45.34898504323396" lon="5.819082439958494"><ele>954.0</ele><time>2026-04-05T13:08:58Z</time></trkpt><trkpt lat="45.3491289337791" lon="5.819142601438991"><ele>954.0</ele><time>2026-04-05T13:08:59Z</time></trkpt><trkpt lat="45.34928066861682" lon="5.8191998136797505"><ele>955.6666666666667</ele><time>2026-04-05T13:09:00Z</time></trkpt><trkpt lat="45.349445303389416" lon="5.819255332215676"><ele>957.3333333333334</ele><time>2026-04-05T13:09:01Z</time></trkpt><trkpt lat="45.349617530501924" lon="5.819346505444208"><ele>959.0</ele><time>2026-04-05T13:09:02Z</time></trkpt><trkpt lat="45.3498073549258" lon="5.819423192178015"><ele>959.0</ele><time>2026-04-05T13:09:03Z</time></trkpt><trkpt lat="45.350006904948586" lon="5.819505843361253"><ele>959.0</ele><time>2026-04-05T13:09:04Z</time></trkpt><trkpt lat="45.35019934404614" lon="5.819547345548055"><ele>959.0</ele><time>2026-04-05T13:09:05Z</time></trkpt><trkpt lat="45.350363747882504" lon="5.819567778344761"><ele>959.0</ele><time>2026-04-05T13:09:06Z</time></trkpt><trkpt lat="45.35052124054666" lon="5.819553250743803"><ele>959.0</ele><time>2026-04-05T13:09:07Z</time></trkpt><trkpt lat="45.35066577564313" lon="5.819526691457466"><ele>959.0</ele><time>2026-04-05T13:09:08Z</time></trkpt><trkpt lat="45.35079912498025" lon="5.819559115076797"><ele>959.0</ele><time>2026-04-05T13:09:09Z</time></trkpt><trkpt lat="45.35092594281053" lon="5.819603373044066"><ele>957.3333333333334</ele><time>2026-04-05T13:09:10Z</time></trkpt><trkpt lat="45.35100150139443" lon="5.819795847912735"><ele>955.6666666666667</ele><time>2026-04-05T13:09:11Z</time></trkpt><trkpt lat="45.351056629504605" lon="5.819992871728238"><ele>954.0</ele><time>2026-04-05T13:09:12Z</time></trkpt><trkpt lat="45.35113213836908" lon="5.820195442443756"><ele>956.6666666666667</ele><time>2026-04-05T13:09:13Z</time></trkpt><trkpt lat="45.35120348608607" lon="5.820379204365175"><ele>959.3333333333334</ele><time>2026-04-05T13:09:14Z</time></trkpt><trkpt lat="45.35128736442265" lon="5.820563524704543"><ele>962.0</ele><time>2026-04-05T13:09:15Z</time></trkpt><trkpt lat="45.351380701266834" lon="5.820740070627873"><ele>962.0</ele><time>2026-04-05T13:09:16Z</time></trkpt><trkpt lat="45.35148339877398" lon="5.820906705159291"><ele>962.0</ele><time>2026-04-05T13:09:17Z</time></trkpt><trkpt lat="45.351588088921226" lon="5.821059762354199"><ele>962.0</ele><time>2026-04-05T13:09:18Z</time></trkpt><trkpt lat="45.351708547960165" lon="5.821211646685813"><ele>967.75</ele><time>2026-04-05T13:09:19Z</time></trkpt><trkpt lat="45.35181884460491" lon="5.821357720491849"><ele>973.5</ele><time>2026-04-05T13:09:20Z</time></trkpt><trkpt lat="45.351920893159" lon="5.821499306398014"><ele>979.25</ele><time>2026-04-05T13:09:21Z</time></trkpt><trkpt lat="45.35202452847232" lon="5.821640834975724"><ele>985.0</ele><time>2026-04-05T13:09:22Z</time></trkpt><trkpt lat="45.352123092674844" lon="5.821774094024297"><ele>985.25</ele><time>2026-04-05T13:09:23Z</time></trkpt><trkpt lat="45.352225030463224" lon="5.821898903221544"><ele>985.5</ele><time>2026-04-05T13:09:24Z</time></trkpt><trkpt lat="45.352337908646206" lon="5.821962828938048"><ele>985.75</ele><time>2026-04-05T13:09:25Z</time></trkpt><trkpt lat="45.35247622939019" lon="5.821981989420235"><ele>986.0</ele><time>2026-04-05T13:09:26Z</time></trkpt><trkpt lat="45.352626454827515" lon="5.822052981819616"><ele>986.0</ele><time>2026-04-05T13:09:27Z</time></trkpt><trkpt lat="45.35270468556207" lon="5.822255701191051"><ele>986.0</ele><time>2026-04-05T13:09:28Z</time></trkpt><trkpt lat="45.35282035681773" lon="5.822395549045527"><ele>986.0</ele><time>2026-04-05T13:09:29Z</time></trkpt><trkpt lat="45.35294632691349" lon="5.8224893002362395"><ele>985.0</ele><time>2026-04-05T13:09:30Z</time></trkpt><trkpt lat="45.35310842580898" lon="5.8225541627060835"><ele>984.0</ele><time>2026-04-05T13:09:31Z</time></trkpt><trkpt lat="45.353267976030054" lon="5.822566782262362"><ele>983.0</ele><time>2026-04-05T13:09:32Z</time></trkpt><trkpt lat="45.35342626371581" lon="5.822584394088515"><ele>988.3333333333334</ele><time>2026-04-05T13:09:33Z</time></trkpt><trkpt lat="45.35357253739822" lon="5.822654693184859"><ele>993.6666666666667</ele><time>2026-04-05T13:09:34Z</time></trkpt><trkpt lat="45.35370434588888" lon="5.822748291760213"><ele>999.0</ele><time>2026-04-05T13:09:35Z</time></trkpt><trkpt lat="45.353820718697065" lon="5.822908526151982"><ele>998.0</ele><time>2026-04-05T13:09:36Z</time></trkpt><trkpt lat="45.35393153056267" lon="5.823104559015974"><ele>997.0</ele><time>2026-04-05T13:09:37Z</time></trkpt><trkpt lat="45.35404168213676" lon="5.823291864007214"><ele>996.0</ele><time>2026-04-05T13:09:38Z</time></trkpt><trkpt lat="45.35415367837919" lon="5.823475384757592"><ele>1001.3333333333333</ele><time>2026-04-05T13:09:39Z</time></trkpt><trkpt lat="45.35427763947839" lon="5.823631849622239"><ele>1006.6666666666666</ele><time>2026-04-05T13:09:40Z</time></trkpt><trkpt lat="45.354418060476874" lon="5.823761661631369"><ele>1012.0</ele><time>2026-04-05T13:09:41Z</time></trkpt><trkpt lat="45.35457294208876" lon="5.823891199663209"><ele>1010.6666666666666</ele><time>2026-04-05T13:09:42Z</time></trkpt><trkpt lat="45.35471986811922" lon="5.824031714552912"><ele>1009.3333333333333</ele><time>2026-04-05T13:09:43Z</time></trkpt><trkpt lat="45.35486211628692" lon="5.824183399276511"><ele>1008.0</ele><time>2026-04-05T13:09:44Z</time></trkpt><trkpt lat="45.35500182534356" lon="5.824343057886506"><ele>1013.6666666666667</ele><time>2026-04-05T13:09:45Z</time></trkpt><trkpt lat="45.35515005764755" lon="5.824490975063809"><ele>1019.3333333333334</ele><time>2026-04-05T13:09:46Z</time></trkpt><trkpt lat="45.35528785700203" lon="5.824641207050837"><ele>1025.0</ele><time>2026-04-05T13:09:47Z</time></trkpt><trkpt lat="45.35544641596923" lon="5.8247753547637675"><ele>1023.0</ele><time>2026-04-05T13:09:48Z</time></trkpt><trkpt lat="45.35560521606708" lon="5.824905575062693"><ele>1021.0</ele><time>2026-04-05T13:09:49Z</time></trkpt><trkpt lat="45.355768156489255" lon="5.824989797641635"><ele>1019.0</ele><time>2026-04-05T13:09:50.001Z</time></trkpt><trkpt lat="45.35593708336838" lon="5.825061956484976"><ele>1024.3333333333335</ele><time>2026-04-05T13:09:51.001Z</time></trkpt><trkpt lat="45.35608262222988" lon="5.825189102521805"><ele>1029.6666666666667</ele><time>2026-04-05T13:09:52.001Z</time></trkpt><trkpt lat="45.356237517992035" lon="5.825316870860242"><ele>1035.0</ele><time>2026-04-05T13:09:53.001Z</time></trkpt><trkpt lat="45.3563893712685" lon="5.825425926316854"><ele>1035.0</ele><time>2026-04-05T13:09:54.001Z</time></trkpt><trkpt lat="45.356518070765624" lon="5.825516224680718"><ele>1035.0</ele><time>2026-04-05T13:09:55.001Z</time></trkpt><trkpt lat="45.356643478225806" lon="5.825573032809576"><ele>1035.0</ele><time>2026-04-05T13:09:56.001Z</time></trkpt><trkpt lat="45.35675609030826" lon="5.825569597987512"><ele>1035.0</ele><time>2026-04-05T13:09:57.001Z</time></trkpt><trkpt lat="45.356855810250956" lon="5.825542598617133"><ele>1035.0</ele><time>2026-04-05T13:09:58.001Z</time></trkpt><trkpt lat="45.356944473527044" lon="5.825552671478781"><ele>1035.0</ele><time>2026-04-05T13:09:59.001Z</time></trkpt><trkpt lat="45.35700724880291" lon="5.8256543324555805"><ele>1035.0</ele><time>2026-04-05T13:10:00.001Z</time></trkpt><trkpt lat="45.35700671925959" lon="5.825819308755106"><ele>1035.0</ele><time>2026-04-05T13:10:01.001Z</time></trkpt><trkpt lat="45.35695909896037" lon="5.825946414099758"><ele>1035.0</ele><time>2026-04-05T13:10:02.001Z</time></trkpt><trkpt lat="45.35695486854958" lon="5.826066793607758"><ele>1035.8</ele><time>2026-04-05T13:10:03.001Z</time></trkpt><trkpt lat="45.356952009423004" lon="5.826196000447529"><ele>1036.6</ele><time>2026-04-05T13:10:04.001Z</time></trkpt><trkpt lat="45.35698096719255" lon="5.826327961392654"><ele>1037.4</ele><time>2026-04-05T13:10:05.001Z</time></trkpt><trkpt lat="45.357038483782475" lon="5.826442156762623"><ele>1038.2</ele><time>2026-04-05T13:10:06.001Z</time></trkpt><trkpt lat="45.35712315000159" lon="5.826531790241399"><ele>1039.0</ele><time>2026-04-05T13:10:07.001Z</time></trkpt><trkpt lat="45.357215994212325" lon="5.826612205498907"><ele>1039.0</ele><time>2026-04-05T13:10:08.001Z</time></trkpt><trkpt lat="45.35730388016764" lon="5.826712575752711"><ele>1039.0</ele><time>2026-04-05T13:10:09.001Z</time></trkpt><trkpt lat="45.357381558247326" lon="5.826851759372846"><ele>1039.0</ele><time>2026-04-05T13:10:10.001Z</time></trkpt><trkpt lat="45.35745782108918" lon="5.826998018977479"><ele>1039.0</ele><time>2026-04-05T13:10:11.001Z</time></trkpt><trkpt lat="45.35752993303809" lon="5.8271475969189215"><ele>1044.25</ele><time>2026-04-05T13:10:12.001Z</time></trkpt><trkpt lat="45.35761772079326" lon="5.827299470693238"><ele>1049.5</ele><time>2026-04-05T13:10:13.001Z</time></trkpt><trkpt lat="45.35769580638462" lon="5.82746134074728"><ele>1054.75</ele><time>2026-04-05T13:10:14.001Z</time></trkpt><trkpt lat="45.35775513522532" lon="5.827636947785441"><ele>1060.0</ele><time>2026-04-05T13:10:15.001Z</time></trkpt><trkpt lat="45.357806738455686" lon="5.827826185222388"><ele>1064.75</ele><time>2026-04-05T13:10:16.001Z</time></trkpt><trkpt lat="45.357826818426226" lon="5.828009814575844"><ele>1069.5</ele><time>2026-04-05T13:10:17.001Z</time></trkpt><trkpt lat="45.357842285441365" lon="5.82820871374842"><ele>1074.25</ele><time>2026-04-05T13:10:18.001Z</time></trkpt><trkpt lat="45.35788024018255" lon="5.828417105354906"><ele>1079.0</ele><time>2026-04-05T13:10:19.001Z</time></trkpt><trkpt lat="45.35789999684165" lon="5.8286290832804895"><ele>1076.0</ele><time>2026-04-05T13:10:20.001Z</time></trkpt><trkpt lat="45.35794904023323" lon="5.828816968213368"><ele>1073.0</ele><time>2026-04-05T13:10:21.001Z</time></trkpt><trkpt lat="45.35801010029147" lon="5.829003075500525"><ele>1070.0</ele><time>2026-04-05T13:10:22.001Z</time></trkpt><trkpt lat="45.35807302614312" lon="5.829184213628324"><ele>1067.0</ele><time>2026-04-05T13:10:23.001Z</time></trkpt><trkpt lat="45.35815429084262" lon="5.829354501115097"><ele>1073.5</ele><time>2026-04-05T13:10:24.001Z</time></trkpt><trkpt lat="45.358255034724685" lon="5.829496417521242"><ele>1080.0</ele><time>2026-04-05T13:10:25.001Z</time></trkpt><trkpt lat="45.35836968998416" lon="5.829604664678669"><ele>1086.5</ele><time>2026-04-05T13:10:26.001Z</time></trkpt><trkpt lat="45.35847987574589" lon="5.829713901482456"><ele>1093.0</ele><time>2026-04-05T13:10:27.001Z</time></trkpt><trkpt lat="45.3585539364774" lon="5.829851788395786"><ele>1093.0</ele><time>2026-04-05T13:10:28.001Z</time></trkpt><trkpt lat="45.35861722373118" lon="5.829950196466669"><ele>1093.0</ele><time>2026-04-05T13:10:29.001Z</time></trkpt><trkpt lat="45.35869064328972" lon="5.830036475813927"><ele>1093.0</ele><time>2026-04-05T13:10:30.001Z</time></trkpt><trkpt lat="45.35878104986839" lon="5.830065211195072"><ele>1093.0</ele><time>2026-04-05T13:10:31.001Z</time></trkpt><trkpt lat="45.358868948837745" lon="5.830031408672532"><ele>1093.0</ele><time>2026-04-05T13:10:32.001Z</time></trkpt><trkpt lat="45.35897453660518" lon="5.8299478401735785"><ele>1090.75</ele><time>2026-04-05T13:10:33.001Z</time></trkpt><trkpt lat="45.35907802488388" lon="5.829878568937767"><ele>1088.5</ele><time>2026-04-05T13:10:34.001Z</time></trkpt><trkpt lat="45.35919077482706" lon="5.82981449312227"><ele>1086.25</ele><time>2026-04-05T13:10:35.001Z</time></trkpt><trkpt lat="45.35931026878716" lon="5.829785054478326"><ele>1084.0</ele><time>2026-04-05T13:10:36.001Z</time></trkpt><trkpt lat="45.3594174489143" lon="5.829846099607877"><ele>1084.0</ele><time>2026-04-05T13:10:37.001Z</time></trkpt><trkpt lat="45.359510694283024" lon="5.829829849186893"><ele>1084.0</ele><time>2026-04-05T13:10:38.001Z</time></trkpt><trkpt lat="45.35961028402732" lon="5.829803835575844"><ele>1084.0</ele><time>2026-04-05T13:10:39.001Z</time></trkpt><trkpt lat="45.35971478987529" lon="5.829759925171744"><ele>1084.0</ele><time>2026-04-05T13:10:40.001Z</time></trkpt><trkpt lat="45.35982664489286" lon="5.829744180316188"><ele>1084.0</ele><time>2026-04-05T13:10:41.001Z</time></trkpt><trkpt lat="45.35994497334511" lon="5.829762170448505"><ele>1086.25</ele><time>2026-04-05T13:10:42.001Z</time></trkpt><trkpt lat="45.36007108057482" lon="5.82980211343407"><ele>1088.5</ele><time>2026-04-05T13:10:43.001Z</time></trkpt><trkpt lat="45.36019157231305" lon="5.8298400115118225"><ele>1090.75</ele><time>2026-04-05T13:10:44.001Z</time></trkpt><trkpt lat="45.36030961186697" lon="5.8298719378393775"><ele>1093.0</ele><time>2026-04-05T13:10:45.001Z</time></trkpt><trkpt lat="45.360430650140515" lon="5.829896132768725"><ele>1096.25</ele><time>2026-04-05T13:10:46.001Z</time></trkpt><trkpt lat="45.36054629883465" lon="5.829902138158254"><ele>1099.5</ele><time>2026-04-05T13:10:47.001Z</time></trkpt><trkpt lat="45.360678792041156" lon="5.829905044506598"><ele>1102.75</ele><time>2026-04-05T13:10:48.001Z</time></trkpt><trkpt lat="45.36079971323459" lon="5.829907697007931"><ele>1106.0</ele><time>2026-04-05T13:10:49.001Z</time></trkpt><trkpt lat="45.360906751385805" lon="5.829909446089452"><ele>1106.0</ele><time>2026-04-05T13:10:50.001Z</time></trkpt><trkpt lat="45.361028426904966" lon="5.829911146524732"><ele>1106.0</ele><time>2026-04-05T13:10:51Z</time></trkpt><trkpt lat="45.36114244194635" lon="5.8299174136506"><ele>1106.0</ele><time>2026-04-05T13:10:52Z</time></trkpt><trkpt lat="45.3612707238614" lon="5.829912256215164"><ele>1106.0</ele><time>2026-04-05T13:10:53Z</time></trkpt><trkpt lat="45.36139809834594" lon="5.829961310579317"><ele>1108.25</ele><time>2026-04-05T13:10:54Z</time></trkpt><trkpt lat="45.361511866505104" lon="5.830003486309909"><ele>1110.5</ele><time>2026-04-05T13:10:55Z</time></trkpt><trkpt lat="45.36159822123357" lon="5.830029720363239"><ele>1112.75</ele><time>2026-04-05T13:10:56Z</time></trkpt><trkpt lat="45.36174339332088" lon="5.830055677247785"><ele>1115.0</ele><time>2026-04-05T13:10:57Z</time></trkpt><trkpt lat="45.36188114767699" lon="5.8301018355320835"><ele>1117.0</ele><time>2026-04-05T13:10:58Z</time></trkpt><trkpt lat="45.3620235621548" lon="5.830174036017831"><ele>1119.0</ele><time>2026-04-05T13:10:59Z</time></trkpt><trkpt lat="45.36214202582014" lon="5.830316341493671"><ele>1121.0</ele><time>2026-04-05T13:11:00Z</time></trkpt><trkpt lat="45.362263017300734" lon="5.83045522686138"><ele>1121.0</ele><time>2026-04-05T13:11:01Z</time></trkpt><trkpt lat="45.36238348747029" lon="5.830591802222738"><ele>1121.0</ele><time>2026-04-05T13:11:02Z</time></trkpt><trkpt lat="45.36250376321087" lon="5.830726646596282"><ele>1121.0</ele><time>2026-04-05T13:11:03Z</time></trkpt><trkpt lat="45.362629068346436" lon="5.830866859908055"><ele>1125.6666666666667</ele><time>2026-04-05T13:11:04Z</time></trkpt><trkpt lat="45.3627578080208" lon="5.831005359636972"><ele>1130.3333333333333</ele><time>2026-04-05T13:11:05Z</time></trkpt><trkpt lat="45.362888193639854" lon="5.831145970708931"><ele>1135.0</ele><time>2026-04-05T13:11:06Z</time></trkpt><trkpt lat="45.363026620233754" lon="5.831303741644258"><ele>1133.3333333333333</ele><time>2026-04-05T13:11:07Z</time></trkpt><trkpt lat="45.36315542332626" lon="5.8314505442816005"><ele>1131.6666666666667</ele><time>2026-04-05T13:11:08Z</time></trkpt><trkpt lat="45.36331612392137" lon="5.831608394908777"><ele>1130.0</ele><time>2026-04-05T13:11:09Z</time></trkpt><trkpt lat="45.36347083595567" lon="5.831750106571443"><ele>1136.0</ele><time>2026-04-05T13:11:10Z</time></trkpt><trkpt lat="45.36361122124829" lon="5.831909447799543"><ele>1142.0</ele><time>2026-04-05T13:11:11Z</time></trkpt><trkpt lat="45.363712067613264" lon="5.832120677802821"><ele>1148.0</ele><time>2026-04-05T13:11:12Z</time></trkpt><trkpt lat="45.36378158637949" lon="5.832354742404877"><ele>1145.0</ele><time>2026-04-05T13:11:13Z</time></trkpt><trkpt lat="45.36386542769543" lon="5.832588225275297"><ele>1142.0</ele><time>2026-04-05T13:11:14Z</time></trkpt><trkpt lat="45.36397823358824" lon="5.83275835166163"><ele>1139.0</ele><time>2026-04-05T13:11:15Z</time></trkpt><trkpt lat="45.36412450354379" lon="5.8329006752347"><ele>1145.3333333333335</ele><time>2026-04-05T13:11:16Z</time></trkpt><trkpt lat="45.36425344964681" lon="5.833059962337831"><ele>1151.6666666666667</ele><time>2026-04-05T13:11:17Z</time></trkpt><trkpt lat="45.364383749662196" lon="5.833213499765254"><ele>1158.0</ele><time>2026-04-05T13:11:18Z</time></trkpt><trkpt lat="45.36451374541249" lon="5.833352809019964"><ele>1158.0</ele><time>2026-04-05T13:11:19Z</time></trkpt><trkpt lat="45.36464236105274" lon="5.833465971182226"><ele>1158.0</ele><time>2026-04-05T13:11:20Z</time></trkpt><trkpt lat="45.36477271978458" lon="5.833567734237813"><ele>1158.0</ele><time>2026-04-05T13:11:21Z</time></trkpt><trkpt lat="45.36488998167822" lon="5.833658519117694"><ele>1158.0</ele><time>2026-04-05T13:11:22Z</time></trkpt><trkpt lat="45.36500416532334" lon="5.8337514355852464"><ele>1158.4</ele><time>2026-04-05T13:11:23Z</time></trkpt><trkpt lat="45.365102754231785" lon="5.833835642875035"><ele>1158.8</ele><time>2026-04-05T13:11:24Z</time></trkpt><trkpt lat="45.36519854163654" lon="5.833918136859741"><ele>1159.2</ele><time>2026-04-05T13:11:25Z</time></trkpt><trkpt lat="45.36528603872358" lon="5.833993491288499"><ele>1159.6</ele><time>2026-04-05T13:11:26Z</time></trkpt><trkpt lat="45.365370734817716" lon="5.8340664329927145"><ele>1160.0</ele><time>2026-04-05T13:11:27Z</time></trkpt><trkpt lat="45.36544771255796" lon="5.834132729552558"><ele>1158.0</ele><time>2026-04-05T13:11:28.001Z</time></trkpt><trkpt lat="45.36553037415048" lon="5.834198090104211"><ele>1156.0</ele><time>2026-04-05T13:11:29.001Z</time></trkpt><trkpt lat="45.365620923878076" lon="5.834266996742823"><ele>1154.0</ele><time>2026-04-05T13:11:30.001Z</time></trkpt><trkpt lat="45.365727109493655" lon="5.834310004800937"><ele>1152.0</ele><time>2026-04-05T13:11:31.001Z</time></trkpt><trkpt lat="45.365839402696" lon="5.834354635199941"><ele>1150.0</ele><time>2026-04-05T13:11:32.001Z</time></trkpt><trkpt lat="45.36596549236671" lon="5.834385223634422"><ele>1150.0</ele><time>2026-04-05T13:11:33.001Z</time></trkpt><trkpt lat="45.36609622147967" lon="5.834407315598184"><ele>1150.0</ele><time>2026-04-05T13:11:34.001Z</time></trkpt><trkpt lat="45.36623653311349" lon="5.834441534114505"><ele>1150.0</ele><time>2026-04-05T13:11:35.001Z</time></trkpt><trkpt lat="45.366374975786464" lon="5.834473046856202"><ele>1150.0</ele><time>2026-04-05T13:11:36.001Z</time></trkpt><trkpt lat="45.366504277031" lon="5.834504586733869"><ele>1143.75</ele><time>2026-04-05T13:11:37.001Z</time></trkpt><trkpt lat="45.36662791931076" lon="5.834522162895306"><ele>1137.5</ele><time>2026-04-05T13:11:38.001Z</time></trkpt><trkpt lat="45.366750187155795" lon="5.834536182938098"><ele>1131.25</ele><time>2026-04-05T13:11:39.001Z</time></trkpt><trkpt lat="45.36687751607364" lon="5.834553250215068"><ele>1125.0</ele><time>2026-04-05T13:11:40.001Z</time></trkpt><trkpt lat="45.36700273448907" lon="5.834576565481651"><ele>1125.0</ele><time>2026-04-05T13:11:41.001Z</time></trkpt><trkpt lat="45.367116475439545" lon="5.8346434348486005"><ele>1125.0</ele><time>2026-04-05T13:11:42.001Z</time></trkpt><trkpt lat="45.36724093210626" lon="5.834694417924969"><ele>1125.0</ele><time>2026-04-05T13:11:43.001Z</time></trkpt><trkpt lat="45.36735204854172" lon="5.834764199985279"><ele>1125.0</ele><time>2026-04-05T13:11:44.001Z</time></trkpt><trkpt lat="45.36746994901696" lon="5.834840891005328"><ele>1126.0</ele><time>2026-04-05T13:11:45.001Z</time></trkpt><trkpt lat="45.367595991580565" lon="5.834924804612198"><ele>1127.0</ele><time>2026-04-05T13:11:46.001Z</time></trkpt><trkpt lat="45.36772286288528" lon="5.835027456506153"><ele>1128.0</ele><time>2026-04-05T13:11:47.001Z</time></trkpt><trkpt lat="45.3678293934086" lon="5.835184756505673"><ele>1129.0</ele><time>2026-04-05T13:11:48.001Z</time></trkpt><trkpt lat="45.367942903618335" lon="5.835358218297166"><ele>1126.6666666666665</ele><time>2026-04-05T13:11:49.001Z</time></trkpt><trkpt lat="45.36798723701609" lon="5.835583178522041"><ele>1124.3333333333333</ele><time>2026-04-05T13:11:50.001Z</time></trkpt><trkpt lat="45.36803814661532" lon="5.835793972984677"><ele>1122.0</ele><time>2026-04-05T13:11:51.001Z</time></trkpt><trkpt lat="45.36809412685569" lon="5.8360366452049925"><ele>1117.0</ele><time>2026-04-05T13:11:52.001Z</time></trkpt><trkpt lat="45.36818322762283" lon="5.836139566904823"><ele>1112.0</ele><time>2026-04-05T13:11:53.001Z</time></trkpt><trkpt lat="45.3683060894766" lon="5.836247352595382"><ele>1107.0</ele><time>2026-04-05T13:11:54.001Z</time></trkpt><trkpt lat="45.36842867128315" lon="5.83634670586079"><ele>1102.0</ele><time>2026-04-05T13:11:55.001Z</time></trkpt><trkpt lat="45.36856024545531" lon="5.836430446183497"><ele>1102.0</ele><time>2026-04-05T13:11:56.001Z</time></trkpt><trkpt lat="45.368704745872" lon="5.83651663577977"><ele>1102.0</ele><time>2026-04-05T13:11:57.001Z</time></trkpt><trkpt lat="45.368847227290786" lon="5.836595661538309"><ele>1102.0</ele><time>2026-04-05T13:11:58.001Z</time></trkpt><trkpt lat="45.368992070790114" lon="5.836654386800309"><ele>1102.6666666666665</ele><time>2026-04-05T13:11:59.001Z</time></trkpt><trkpt lat="45.36915658542416" lon="5.836697729159855"><ele>1103.3333333333333</ele><time>2026-04-05T13:12:00.001Z</time></trkpt><trkpt lat="45.36930755365658" lon="5.836723715311805"><ele>1104.0</ele><time>2026-04-05T13:12:01.001Z</time></trkpt><trkpt lat="45.369454282767364" lon="5.836767932546546"><ele>1100.75</ele><time>2026-04-05T13:12:02.001Z</time></trkpt><trkpt lat="45.36959981693672" lon="5.83682691016086"><ele>1097.5</ele><time>2026-04-05T13:12:03.001Z</time></trkpt><trkpt lat="45.36973206213651" lon="5.8369184878169635"><ele>1094.25</ele><time>2026-04-05T13:12:04.001Z</time></trkpt><trkpt lat="45.36985016717812" lon="5.837038438935644"><ele>1091.0</ele><time>2026-04-05T13:12:05.001Z</time></trkpt><trkpt lat="45.36994650313492" lon="5.837195889068883"><ele>1091.0</ele><time>2026-04-05T13:12:06.001Z</time></trkpt><trkpt lat="45.37004910488893" lon="5.837335654462659"><ele>1091.0</ele><time>2026-04-05T13:12:07.001Z</time></trkpt><trkpt lat="45.37015771744218" lon="5.837484779466735"><ele>1091.0</ele><time>2026-04-05T13:12:08.001Z</time></trkpt><trkpt lat="45.37026925537512" lon="5.837642366192604"><ele>1087.3333333333335</ele><time>2026-04-05T13:12:09.001Z</time></trkpt><trkpt lat="45.37038779366654" lon="5.837792066661973"><ele>1083.6666666666667</ele><time>2026-04-05T13:12:10.001Z</time></trkpt><trkpt lat="45.370491535441396" lon="5.837959603408843"><ele>1080.0</ele><time>2026-04-05T13:12:11.001Z</time></trkpt><trkpt lat="45.37058266827521" lon="5.838133452787375"><ele>1080.0</ele><time>2026-04-05T13:12:12.001Z</time></trkpt><trkpt lat="45.37067213749299" lon="5.838295340344137"><ele>1080.0</ele><time>2026-04-05T13:12:13.001Z</time></trkpt><trkpt lat="45.37075058544694" lon="5.838419996700243"><ele>1080.0</ele><time>2026-04-05T13:12:14.001Z</time></trkpt><trkpt lat="45.370807955715684" lon="5.838523292157344"><ele>1080.0</ele><time>2026-04-05T13:12:15.001Z</time></trkpt><trkpt lat="45.37091037997128" lon="5.83854596450127"><ele>1080.0</ele><time>2026-04-05T13:12:16.001Z</time></trkpt><trkpt lat="45.37097859219399" lon="5.838519942955817"><ele>1080.0</ele><time>2026-04-05T13:12:17.001Z</time></trkpt><trkpt lat="45.37104734822673" lon="5.83848031521716"><ele>1080.0</ele><time>2026-04-05T13:12:18.001Z</time></trkpt><trkpt lat="45.371093356802774" lon="5.838412540403823"><ele>1080.0</ele><time>2026-04-05T13:12:19.001Z</time></trkpt><trkpt lat="45.37116671215624" lon="5.838363307293307"><ele>1080.0</ele><time>2026-04-05T13:12:20.001Z</time></trkpt><trkpt lat="45.37122782510671" lon="5.838334691110466"><ele>1080.0</ele><time>2026-04-05T13:12:21.001Z</time></trkpt><trkpt lat="45.37129648977847" lon="5.838323767817281"><ele>1080.0</ele><time>2026-04-05T13:12:22.001Z</time></trkpt><trkpt lat="45.37136084074799" lon="5.838356583822472"><ele>1080.3333333333333</ele><time>2026-04-05T13:12:23.001Z</time></trkpt><trkpt lat="45.371399540570906" lon="5.838460192478417"><ele>1080.6666666666667</ele><time>2026-04-05T13:12:24.001Z</time></trkpt><trkpt lat="45.37141135040021" lon="5.838556749543904"><ele>1081.0</ele><time>2026-04-05T13:12:25.001Z</time></trkpt><trkpt lat="45.37140214216686" lon="5.838652267918286"><ele>1081.3333333333335</ele><time>2026-04-05T13:12:26.001Z</time></trkpt><trkpt lat="45.37135703194202" lon="5.83874479767451"><ele>1081.6666666666667</ele><time>2026-04-05T13:12:27.001Z</time></trkpt><trkpt lat="45.37129355287899" lon="5.838817587140036"><ele>1082.0</ele><time>2026-04-05T13:12:28.001Z</time></trkpt><trkpt lat="45.37119842186359" lon="5.838898453090632"><ele>1079.1666666666667</ele><time>2026-04-05T13:12:29.001Z</time></trkpt><trkpt lat="45.37112587727532" lon="5.838925784706112"><ele>1076.3333333333335</ele><time>2026-04-05T13:12:30.001Z</time></trkpt><trkpt lat="45.37104205166043" lon="5.838961388324412"><ele>1073.5</ele><time>2026-04-05T13:12:31.001Z</time></trkpt><trkpt lat="45.37095691992846" lon="5.8389923198875335"><ele>1070.6666666666667</ele><time>2026-04-05T13:12:32.001Z</time></trkpt><trkpt lat="45.37086033773508" lon="5.838987907188669"><ele>1067.8333333333333</ele><time>2026-04-05T13:12:33.001Z</time></trkpt><trkpt lat="45.370773762060175" lon="5.838971710197344"><ele>1065.0</ele><time>2026-04-05T13:12:34.001Z</time></trkpt><trkpt lat="45.370682346684085" lon="5.838940373395068"><ele>1065.0</ele><time>2026-04-05T13:12:35.001Z</time></trkpt><trkpt lat="45.37059484374428" lon="5.838920310328896"><ele>1065.0</ele><time>2026-04-05T13:12:36.001Z</time></trkpt><trkpt lat="45.37049371425291" lon="5.838920097369839"><ele>1065.0</ele><time>2026-04-05T13:12:37.001Z</time></trkpt><trkpt lat="45.37039630593362" lon="5.838938982217015"><ele>1065.0</ele><time>2026-04-05T13:12:38.001Z</time></trkpt><trkpt lat="45.37031138868495" lon="5.838983571376516"><ele>1065.0</ele><time>2026-04-05T13:12:39.001Z</time></trkpt><trkpt lat="45.370230756804794" lon="5.839043509209899"><ele>1064.4</ele><time>2026-04-05T13:12:40.001Z</time></trkpt><trkpt lat="45.37016041671839" lon="5.839111847940279"><ele>1063.8</ele><time>2026-04-05T13:12:41.001Z</time></trkpt><trkpt lat="45.37009687767522" lon="5.83920114437784"><ele>1063.2</ele><time>2026-04-05T13:12:42.001Z</time></trkpt><trkpt lat="45.37005193184957" lon="5.839298880171024"><ele>1062.6</ele><time>2026-04-05T13:12:43.001Z</time></trkpt><trkpt lat="45.37000807316941" lon="5.839402424439606"><ele>1062.0</ele><time>2026-04-05T13:12:44.001Z</time></trkpt><trkpt lat="45.370026137137636" lon="5.839554856950724"><ele>1061.8</ele><time>2026-04-05T13:12:45.001Z</time></trkpt><trkpt lat="45.37005261796014" lon="5.839697061162297"><ele>1061.6</ele><time>2026-04-05T13:12:46.001Z</time></trkpt><trkpt lat="45.37010014083752" lon="5.839835421394123"><ele>1061.3999999999999</ele><time>2026-04-05T13:12:47.001Z</time></trkpt><trkpt lat="45.37015928192757" lon="5.8399661212949745"><ele>1061.2</ele><time>2026-04-05T13:12:48.001Z</time></trkpt><trkpt lat="45.370219245227595" lon="5.840097197299163"><ele>1061.0</ele><time>2026-04-05T13:12:49.001Z</time></trkpt><trkpt lat="45.37026238100514" lon="5.8402321900574"><ele>1063.6</ele><time>2026-04-05T13:12:50.001Z</time></trkpt><trkpt lat="45.370258928984896" lon="5.840388586518311"><ele>1066.1999999999998</ele><time>2026-04-05T13:12:51.001Z</time></trkpt><trkpt lat="45.37026602052139" lon="5.840538451217518"><ele>1068.8000000000002</ele><time>2026-04-05T13:12:52.001Z</time></trkpt><trkpt lat="45.37030397563925" lon="5.84067784141585"><ele>1071.4</ele><time>2026-04-05T13:12:53.002Z</time></trkpt><trkpt lat="45.370335977024176" lon="5.840812115715783"><ele>1074.0</ele><time>2026-04-05T13:12:54.002Z</time></trkpt><trkpt lat="45.37039950639811" lon="5.840929662775198"><ele>1076.0</ele><time>2026-04-05T13:12:55.002Z</time></trkpt><trkpt lat="45.37046105183653" lon="5.841048493061781"><ele>1078.0</ele><time>2026-04-05T13:12:56.002Z</time></trkpt><trkpt lat="45.370528892419834" lon="5.841162192305637"><ele>1080.0</ele><time>2026-04-05T13:12:57.001Z</time></trkpt><trkpt lat="45.37059984837381" lon="5.841278561960972"><ele>1082.0</ele><time>2026-04-05T13:12:58.001Z</time></trkpt><trkpt lat="45.370692366243944" lon="5.841378040857118"><ele>1084.0</ele><time>2026-04-05T13:12:59.001Z</time></trkpt><trkpt lat="45.370774205068614" lon="5.841479951974511"><ele>1081.0</ele><time>2026-04-05T13:13:00.001Z</time></trkpt><trkpt lat="45.3708828870591" lon="5.841577097574612"><ele>1078.0</ele><time>2026-04-05T13:13:01.001Z</time></trkpt><trkpt lat="45.37098818808698" lon="5.841667890389866"><ele>1075.0</ele><time>2026-04-05T13:13:02.001Z</time></trkpt><trkpt lat="45.37109689741678" lon="5.841749198897392"><ele>1072.0</ele><time>2026-04-05T13:13:03.001Z</time></trkpt><trkpt lat="45.37121103202783" lon="5.8418369982820435"><ele>1072.0</ele><time>2026-04-05T13:13:04.001Z</time></trkpt><trkpt lat="45.37133736724217" lon="5.841933518687777"><ele>1072.0</ele><time>2026-04-05T13:13:05.001Z</time></trkpt><trkpt lat="45.37146948018495" lon="5.842034343070381"><ele>1072.0</ele><time>2026-04-05T13:13:06.001Z</time></trkpt><trkpt lat="45.371603495318936" lon="5.84214415926522"><ele>1072.0</ele><time>2026-04-05T13:13:07.001Z</time></trkpt><trkpt lat="45.371738954843345" lon="5.842229469793007"><ele>1065.75</ele><time>2026-04-05T13:13:08.001Z</time></trkpt><trkpt lat="45.37185867591145" lon="5.842328610722885"><ele>1059.5</ele><time>2026-04-05T13:13:09Z</time></trkpt><trkpt lat="45.37197718579975" lon="5.842412655498943"><ele>1053.25</ele><time>2026-04-05T13:13:10Z</time></trkpt><trkpt lat="45.37208528178956" lon="5.842498594259137"><ele>1047.0</ele><time>2026-04-05T13:13:11Z</time></trkpt><trkpt lat="45.37220648406487" lon="5.842594359445641"><ele>1043.0</ele><time>2026-04-05T13:13:12Z</time></trkpt><trkpt lat="45.37231160675864" lon="5.842747913383393"><ele>1039.0</ele><time>2026-04-05T13:13:13Z</time></trkpt><trkpt lat="45.372438703693355" lon="5.8429102647480455"><ele>1035.0</ele><time>2026-04-05T13:13:14Z</time></trkpt><trkpt lat="45.37257713844886" lon="5.8430735740520685"><ele>1035.0</ele><time>2026-04-05T13:13:15Z</time></trkpt><trkpt lat="45.37271254686007" lon="5.843205777847458"><ele>1035.0</ele><time>2026-04-05T13:13:16Z</time></trkpt><trkpt lat="45.37285408169572" lon="5.843314290787725"><ele>1035.0</ele><time>2026-04-05T13:13:17Z</time></trkpt><trkpt lat="45.37299415688974" lon="5.843417757486622"><ele>1033.25</ele><time>2026-04-05T13:13:18Z</time></trkpt><trkpt lat="45.3731310833127" lon="5.843521136310065"><ele>1031.5</ele><time>2026-04-05T13:13:19Z</time></trkpt><trkpt lat="45.373251823098364" lon="5.8436218455981574"><ele>1029.75</ele><time>2026-04-05T13:13:20Z</time></trkpt><trkpt lat="45.37338571454281" lon="5.84372532293664"><ele>1028.0</ele><time>2026-04-05T13:13:21Z</time></trkpt><trkpt lat="45.37353007891143" lon="5.843820366022842"><ele>1028.0</ele><time>2026-04-05T13:13:22Z</time></trkpt><trkpt lat="45.3736573652943" lon="5.8439408515263365"><ele>1028.0</ele><time>2026-04-05T13:13:23Z</time></trkpt><trkpt lat="45.37376976000858" lon="5.84409969436968"><ele>1028.0</ele><time>2026-04-05T13:13:24Z</time></trkpt><trkpt lat="45.373900779839516" lon="5.844198764293366"><ele>1021.6666666666667</ele><time>2026-04-05T13:13:25Z</time></trkpt><trkpt lat="45.37401558162287" lon="5.844358549143961"><ele>1015.3333333333333</ele><time>2026-04-05T13:13:26Z</time></trkpt><trkpt lat="45.37413349364542" lon="5.844513035573434"><ele>1009.0</ele><time>2026-04-05T13:13:27Z</time></trkpt><trkpt lat="45.37423156585845" lon="5.8446500397735415"><ele>1009.0</ele><time>2026-04-05T13:13:28Z</time></trkpt><trkpt lat="45.374355466186" lon="5.844822407579055"><ele>1009.0</ele><time>2026-04-05T13:13:29Z</time></trkpt><trkpt lat="45.37448917488749" lon="5.845007325759056"><ele>1009.0</ele><time>2026-04-05T13:13:30Z</time></trkpt><trkpt lat="45.37462273743355" lon="5.845199984045493"><ele>1002.3333333333333</ele><time>2026-04-05T13:13:31Z</time></trkpt><trkpt lat="45.37475365768591" lon="5.84537827977111"><ele>995.6666666666667</ele><time>2026-04-05T13:13:32Z</time></trkpt><trkpt lat="45.37487355042587" lon="5.845547676001371"><ele>989.0</ele><time>2026-04-05T13:13:33Z</time></trkpt><trkpt lat="45.37498381612088" lon="5.845724633290088"><ele>989.0</ele><time>2026-04-05T13:13:34.001Z</time></trkpt><trkpt lat="45.37509411339398" lon="5.84590740718222"><ele>989.0</ele><time>2026-04-05T13:13:35.001Z</time></trkpt><trkpt lat="45.37521764178127" lon="5.846087921896045"><ele>989.0</ele><time>2026-04-05T13:13:36.001Z</time></trkpt><trkpt lat="45.37536473756343" lon="5.846242064016641"><ele>984.6666666666667</ele><time>2026-04-05T13:13:37.001Z</time></trkpt><trkpt lat="45.37551705536839" lon="5.846387339849676"><ele>980.3333333333333</ele><time>2026-04-05T13:13:38.001Z</time></trkpt><trkpt lat="45.375679022046256" lon="5.846514395985983"><ele>976.0</ele><time>2026-04-05T13:13:39.001Z</time></trkpt><trkpt lat="45.375833908272924" lon="5.846656407294031"><ele>976.0</ele><time>2026-04-05T13:13:40.001Z</time></trkpt><trkpt lat="45.375983906351514" lon="5.846781569444347"><ele>976.0</ele><time>2026-04-05T13:13:41.001Z</time></trkpt><trkpt lat="45.376131249893014" lon="5.846900567132568"><ele>976.0</ele><time>2026-04-05T13:13:42.001Z</time></trkpt><trkpt lat="45.376306628311205" lon="5.847058426498919"><ele>976.0</ele><time>2026-04-05T13:13:43.001Z</time></trkpt><trkpt lat="45.376452663394524" lon="5.847164747424533"><ele>976.0</ele><time>2026-04-05T13:13:44.001Z</time></trkpt><trkpt lat="45.37660620522224" lon="5.847270526381621"><ele>976.0</ele><time>2026-04-05T13:13:45.001Z</time></trkpt><trkpt lat="45.37675188167738" lon="5.847377640751498"><ele>976.0</ele><time>2026-04-05T13:13:46.001Z</time></trkpt><trkpt lat="45.37689808157014" lon="5.847468913935621"><ele>976.0</ele><time>2026-04-05T13:13:47.001Z</time></trkpt><trkpt lat="45.3770374071536" lon="5.847558256557012"><ele>976.0</ele><time>2026-04-05T13:13:48.001Z</time></trkpt><trkpt lat="45.37718092570848" lon="5.847650209285294"><ele>973.6666666666666</ele><time>2026-04-05T13:13:49.001Z</time></trkpt><trkpt lat="45.37732661633293" lon="5.847758336790163"><ele>971.3333333333333</ele><time>2026-04-05T13:13:50.001Z</time></trkpt><trkpt lat="45.37746721476192" lon="5.847863674500343"><ele>969.0</ele><time>2026-04-05T13:13:51.001Z</time></trkpt><trkpt lat="45.3776070080783" lon="5.84795865770127"><ele>969.0</ele><time>2026-04-05T13:13:52.001Z</time></trkpt><trkpt lat="45.37774112943724" lon="5.848052173841998"><ele>969.0</ele><time>2026-04-05T13:13:53.001Z</time></trkpt><trkpt lat="45.377879446765164" lon="5.848134228341684"><ele>969.0</ele><time>2026-04-05T13:13:54.001Z</time></trkpt><trkpt lat="45.37800410663764" lon="5.848250101700462"><ele>969.0</ele><time>2026-04-05T13:13:55.001Z</time></trkpt><trkpt lat="45.37811292051338" lon="5.84837286213905"><ele>965.25</ele><time>2026-04-05T13:13:56.001Z</time></trkpt><trkpt lat="45.37821011382648" lon="5.848521716963414"><ele>961.5</ele><time>2026-04-05T13:13:57.001Z</time></trkpt><trkpt lat="45.37830025554253" lon="5.848673741496356"><ele>957.75</ele><time>2026-04-05T13:13:58.001Z</time></trkpt><trkpt lat="45.3783967676673" lon="5.848830603780846"><ele>954.0</ele><time>2026-04-05T13:13:59.001Z</time></trkpt><trkpt lat="45.37850505966458" lon="5.8489806553517525"><ele>954.0</ele><time>2026-04-05T13:14:00.001Z</time></trkpt><trkpt lat="45.37862680660084" lon="5.849093098822758"><ele>954.0</ele><time>2026-04-05T13:14:01.001Z</time></trkpt><trkpt lat="45.37875032996107" lon="5.849186721121699"><ele>954.0</ele><time>2026-04-05T13:14:02.001Z</time></trkpt><trkpt lat="45.3788683125885" lon="5.849291042922043"><ele>954.0</ele><time>2026-04-05T13:14:03.001Z</time></trkpt><trkpt lat="45.37898522029373" lon="5.849396289966259"><ele>952.75</ele><time>2026-04-05T13:14:04.001Z</time></trkpt><trkpt lat="45.37909009358568" lon="5.849495955424952"><ele>951.5</ele><time>2026-04-05T13:14:05.001Z</time></trkpt><trkpt lat="45.37920983325029" lon="5.8495856346686494"><ele>950.25</ele><time>2026-04-05T13:14:06.001Z</time></trkpt><trkpt lat="45.37933842170077" lon="5.849645944677918"><ele>949.0</ele><time>2026-04-05T13:14:07.001Z</time></trkpt><trkpt lat="45.37947443274356" lon="5.849680333330307"><ele>949.0</ele><time>2026-04-05T13:14:08.001Z</time></trkpt><trkpt lat="45.37959725544658" lon="5.849696523609889"><ele>949.0000000000001</ele><time>2026-04-05T13:14:09.001Z</time></trkpt><trkpt lat="45.3797031746688" lon="5.8497057831175665"><ele>949.0000000000001</ele><time>2026-04-05T13:14:10.001Z</time></trkpt><trkpt lat="45.37978759862254" lon="5.849748091055631"><ele>949.0</ele><time>2026-04-05T13:14:11.001Z</time></trkpt><trkpt lat="45.379883227491376" lon="5.84975933426751"><ele>949.0</ele><time>2026-04-05T13:14:12.001Z</time></trkpt><trkpt lat="45.3799590451012" lon="5.849809955185108"><ele>947.2</ele><time>2026-04-05T13:14:13.001Z</time></trkpt><trkpt lat="45.380040226018615" lon="5.849871126784459"><ele>945.4000000000001</ele><time>2026-04-05T13:14:14.001Z</time></trkpt><trkpt lat="45.38011972750104" lon="5.849951832447963"><ele>943.6</ele><time>2026-04-05T13:14:15.001Z</time></trkpt><trkpt lat="45.38019918317897" lon="5.850043416064551"><ele>941.8</ele><time>2026-04-05T13:14:16.001Z</time></trkpt><trkpt lat="45.38028046817766" lon="5.850125762738654"><ele>940.0</ele><time>2026-04-05T13:14:17.001Z</time></trkpt><trkpt lat="45.38035846686093" lon="5.850199706899752"><ele>940.0</ele><time>2026-04-05T13:14:18.001Z</time></trkpt><trkpt lat="45.38043105337953" lon="5.850269305962815"><ele>940.0</ele><time>2026-04-05T13:14:19.001Z</time></trkpt><trkpt lat="45.38049517820315" lon="5.850348994552318"><ele>940.0</ele><time>2026-04-05T13:14:20.001Z</time></trkpt><trkpt lat="45.38055208801844" lon="5.850445409451718"><ele>940.0</ele><time>2026-04-05T13:14:21.001Z</time></trkpt><trkpt lat="45.38060565013904" lon="5.850556680655786"><ele>940.0</ele><time>2026-04-05T13:14:22.001Z</time></trkpt><trkpt lat="45.38065237142784" lon="5.850682462117024"><ele>939.2</ele><time>2026-04-05T13:14:23.001Z</time></trkpt><trkpt lat="45.38070183332115" lon="5.85081373692864"><ele>938.4</ele><time>2026-04-05T13:14:24.001Z</time></trkpt><trkpt lat="45.38074741202459" lon="5.850945104763655"><ele>937.5999999999999</ele><time>2026-04-05T13:14:25.001Z</time></trkpt><trkpt lat="45.38078735597361" lon="5.85106913298843"><ele>936.8</ele><time>2026-04-05T13:14:26.001Z</time></trkpt><trkpt lat="45.38082814067471" lon="5.8511876237131855"><ele>936.0</ele><time>2026-04-05T13:14:27.001Z</time></trkpt><trkpt lat="45.38087107033214" lon="5.851300919643028"><ele>936.0</ele><time>2026-04-05T13:14:28.001Z</time></trkpt><trkpt lat="45.38091558593695" lon="5.851411090524376"><ele>936.0</ele><time>2026-04-05T13:14:29.001Z</time></trkpt><trkpt lat="45.38093341168938" lon="5.851528057037769"><ele>936.0</ele><time>2026-04-05T13:14:30.001Z</time></trkpt><trkpt lat="45.38095137287024" lon="5.851632801275615"><ele>936.0</ele><time>2026-04-05T13:14:31.001Z</time></trkpt><trkpt lat="45.380970245957286" lon="5.851734189545846"><ele>936.0</ele><time>2026-04-05T13:14:32.001Z</time></trkpt><trkpt lat="45.380952424371905" lon="5.851841884917192"><ele>936.0</ele><time>2026-04-05T13:14:33.001Z</time></trkpt><trkpt lat="45.38089369863192" lon="5.851928273541728"><ele>934.1999999999999</ele><time>2026-04-05T13:14:34.001Z</time></trkpt><trkpt lat="45.38083530612198" lon="5.852013726259936"><ele>932.3999999999999</ele><time>2026-04-05T13:14:35.001Z</time></trkpt><trkpt lat="45.38076338484464" lon="5.852092574099474"><ele>930.6</ele><time>2026-04-05T13:14:36.001Z</time></trkpt><trkpt lat="45.38068679397202" lon="5.852185421313561"><ele>928.8</ele><time>2026-04-05T13:14:37.001Z</time></trkpt><trkpt lat="45.38060479909022" lon="5.852299148596234"><ele>927.0</ele><time>2026-04-05T13:14:38.001Z</time></trkpt><trkpt lat="45.38052821631468" lon="5.852449173995161"><ele>929.25</ele><time>2026-04-05T13:14:39.001Z</time></trkpt><trkpt lat="45.38045751786037" lon="5.852601244578091"><ele>931.5</ele><time>2026-04-05T13:14:40.001Z</time></trkpt><trkpt lat="45.380376088218554" lon="5.852766005138312"><ele>933.75</ele><time>2026-04-05T13:14:41.001Z</time></trkpt><trkpt lat="45.38028706464743" lon="5.852921051214757"><ele>936.0</ele><time>2026-04-05T13:14:42.001Z</time></trkpt><trkpt lat="45.380210103309395" lon="5.85307122599151"><ele>936.0</ele><time>2026-04-05T13:14:43.001Z</time></trkpt><trkpt lat="45.38013849495239" lon="5.853211547738013"><ele>936.0</ele><time>2026-04-05T13:14:44.001Z</time></trkpt><trkpt lat="45.38005796782877" lon="5.8533467883269985"><ele>936.0</ele><time>2026-04-05T13:14:45.001Z</time></trkpt><trkpt lat="45.37997005192878" lon="5.8534599367871945"><ele>936.0</ele><time>2026-04-05T13:14:46.001Z</time></trkpt><trkpt lat="45.37987895912307" lon="5.853543948167977"><ele>936.75</ele><time>2026-04-05T13:14:47.001Z</time></trkpt><trkpt lat="45.37977174471665" lon="5.85360656734946"><ele>937.5</ele><time>2026-04-05T13:14:48.001Z</time></trkpt><trkpt lat="45.37965007251839" lon="5.8536676433984685"><ele>938.25</ele><time>2026-04-05T13:14:49.001Z</time></trkpt><trkpt lat="45.37952302573129" lon="5.853743391576453"><ele>939.0</ele><time>2026-04-05T13:14:50.001Z</time></trkpt><trkpt lat="45.37940429645386" lon="5.853789700762179"><ele>939.0</ele><time>2026-04-05T13:14:51.001Z</time></trkpt><trkpt lat="45.37928988387261" lon="5.853841497639821"><ele>939.0</ele><time>2026-04-05T13:14:52.001Z</time></trkpt><trkpt lat="45.37918641342366" lon="5.853928546491045"><ele>939.0</ele><time>2026-04-05T13:14:53.001Z</time></trkpt><trkpt lat="45.37908997196743" lon="5.854029348202304"><ele>939.0</ele><time>2026-04-05T13:14:54.001Z</time></trkpt><trkpt lat="45.37905725005239" lon="5.854158297400577"><ele>935.5</ele><time>2026-04-05T13:14:55.001Z</time></trkpt><trkpt lat="45.379027196739315" lon="5.854324196296304"><ele>932.0</ele><time>2026-04-05T13:14:56.001Z</time></trkpt><trkpt lat="45.37898109238275" lon="5.854503244225128"><ele>928.5</ele><time>2026-04-05T13:14:57.001Z</time></trkpt><trkpt lat="45.37891250292887" lon="5.854687827252807"><ele>925.0</ele><time>2026-04-05T13:14:58.001Z</time></trkpt><trkpt lat="45.3788685068106" lon="5.854860679623843"><ele>929.75</ele><time>2026-04-05T13:14:59.001Z</time></trkpt><trkpt lat="45.37883417448477" lon="5.8550039021530695"><ele>934.5</ele><time>2026-04-05T13:15:00.001Z</time></trkpt><trkpt lat="45.37880482305151" lon="5.855156497272341"><ele>939.25</ele><time>2026-04-05T13:15:01.001Z</time></trkpt><trkpt lat="45.37875183234397" lon="5.85532498053559"><ele>944.0</ele><time>2026-04-05T13:15:02.001Z</time></trkpt><trkpt lat="45.378690786253934" lon="5.8554562091441555"><ele>944.0</ele><time>2026-04-05T13:15:03Z</time></trkpt><trkpt lat="45.37864180953676" lon="5.855560702759586"><ele>944.0000000000001</ele><time>2026-04-05T13:15:04Z</time></trkpt><trkpt lat="45.3786141195314" lon="5.855754835177484"><ele>944.0000000000001</ele><time>2026-04-05T13:15:06Z</time></trkpt><trkpt lat="45.378661745658405" lon="5.855839015891983"><ele>944.0</ele><time>2026-04-05T13:15:07Z</time></trkpt><trkpt lat="45.378717154108" lon="5.85590186604914"><ele>944.0</ele><time>2026-04-05T13:15:08Z</time></trkpt><trkpt lat="45.37877198832438" lon="5.855975988751891"><ele>946.6</ele><time>2026-04-05T13:15:09Z</time></trkpt><trkpt lat="45.378852047885154" lon="5.8560106183593055"><ele>949.2</ele><time>2026-04-05T13:15:10Z</time></trkpt><trkpt lat="45.378936419534796" lon="5.855992849757763"><ele>951.8000000000001</ele><time>2026-04-05T13:15:11Z</time></trkpt><trkpt lat="45.37902380152388" lon="5.856010609767347"><ele>954.4000000000001</ele><time>2026-04-05T13:15:12Z</time></trkpt><trkpt lat="45.37912080873747" lon="5.855970800902095"><ele>957.0</ele><time>2026-04-05T13:15:13Z</time></trkpt><trkpt lat="45.3792059665597" lon="5.855900382968678"><ele>951.2</ele><time>2026-04-05T13:15:14Z</time></trkpt><trkpt lat="45.3792896271682" lon="5.855804412823537"><ele>945.4000000000001</ele><time>2026-04-05T13:15:15Z</time></trkpt><trkpt lat="45.37937181440233" lon="5.855712445884311"><ele>939.5999999999999</ele><time>2026-04-05T13:15:16Z</time></trkpt><trkpt lat="45.37945921304915" lon="5.855644616430739"><ele>933.8</ele><time>2026-04-05T13:15:17Z</time></trkpt><trkpt lat="45.379556349833614" lon="5.855615727294036"><ele>928.0</ele><time>2026-04-05T13:15:18Z</time></trkpt><trkpt lat="45.37966256276974" lon="5.855617791977358"><ele>931.0</ele><time>2026-04-05T13:15:19Z</time></trkpt><trkpt lat="45.37979730986934" lon="5.855602180945341"><ele>934.0</ele><time>2026-04-05T13:15:20Z</time></trkpt><trkpt lat="45.37992279357868" lon="5.855577954953084"><ele>937.0</ele><time>2026-04-05T13:15:21Z</time></trkpt><trkpt lat="45.38003572420099" lon="5.855564816689442"><ele>940.0</ele><time>2026-04-05T13:15:22Z</time></trkpt><trkpt lat="45.380135095807425" lon="5.855608359826957"><ele>940.0</ele><time>2026-04-05T13:15:23Z</time></trkpt><trkpt lat="45.38026235702401" lon="5.855669609940177"><ele>940.0</ele><time>2026-04-05T13:15:24Z</time></trkpt><trkpt lat="45.38036212713232" lon="5.8557400322695266"><ele>940.0</ele><time>2026-04-05T13:15:25Z</time></trkpt><trkpt lat="45.38048631938561" lon="5.855710300398158"><ele>940.0</ele><time>2026-04-05T13:15:26Z</time></trkpt><trkpt lat="45.38061522634471" lon="5.855637804975604"><ele>942.25</ele><time>2026-04-05T13:15:27Z</time></trkpt><trkpt lat="45.380710297654545" lon="5.855529953023322"><ele>944.5</ele><time>2026-04-05T13:15:28Z</time></trkpt><trkpt lat="45.380804207094826" lon="5.855386139761747"><ele>946.75</ele><time>2026-04-05T13:15:29Z</time></trkpt><trkpt lat="45.380903296009365" lon="5.855251864116364"><ele>949.0</ele><time>2026-04-05T13:15:30Z</time></trkpt><trkpt lat="45.381015867078105" lon="5.855180934320638"><ele>949.0</ele><time>2026-04-05T13:15:31Z</time></trkpt><trkpt lat="45.38113311463011" lon="5.855130356981918"><ele>949.0</ele><time>2026-04-05T13:15:32Z</time></trkpt><trkpt lat="45.38127756101518" lon="5.8551052379912845"><ele>949.0</ele><time>2026-04-05T13:15:33Z</time></trkpt><trkpt lat="45.38141155384655" lon="5.855118091944493"><ele>949.0</ele><time>2026-04-05T13:15:34Z</time></trkpt><trkpt lat="45.381555617555904" lon="5.855138902269822"><ele>951.25</ele><time>2026-04-05T13:15:35Z</time></trkpt><trkpt lat="45.381691467469466" lon="5.855124006902816"><ele>953.5</ele><time>2026-04-05T13:15:36Z</time></trkpt><trkpt lat="45.381818544782455" lon="5.855103188130752"><ele>955.75</ele><time>2026-04-05T13:15:37Z</time></trkpt><trkpt lat="45.381952625042274" lon="5.8550318399220425"><ele>958.0</ele><time>2026-04-05T13:15:38Z</time></trkpt><trkpt lat="45.38207614026324" lon="5.854927555233936"><ele>952.75</ele><time>2026-04-05T13:15:39Z</time></trkpt><trkpt lat="45.382210902551094" lon="5.854820936673988"><ele>947.5</ele><time>2026-04-05T13:15:40Z</time></trkpt><trkpt lat="45.38233212971534" lon="5.85471667619017"><ele>942.25</ele><time>2026-04-05T13:15:41Z</time></trkpt><trkpt lat="45.38245947834352" lon="5.854642415224111"><ele>937.0</ele><time>2026-04-05T13:15:42Z</time></trkpt><trkpt lat="45.382593008600054" lon="5.854573064636764"><ele>937.0</ele><time>2026-04-05T13:15:43Z</time></trkpt><trkpt lat="45.38272197223603" lon="5.85450651964205"><ele>937.0</ele><time>2026-04-05T13:15:44Z</time></trkpt><trkpt lat="45.38285210567528" lon="5.85443958916879"><ele>937.0</ele><time>2026-04-05T13:15:45Z</time></trkpt><trkpt lat="45.3829782208352" lon="5.854371149225067"><ele>937.0</ele><time>2026-04-05T13:15:46Z</time></trkpt><trkpt lat="45.383096417078214" lon="5.854295320597554"><ele>935.75</ele><time>2026-04-05T13:15:47Z</time></trkpt><trkpt lat="45.383208845672485" lon="5.8542209147461595"><ele>934.5</ele><time>2026-04-05T13:15:48Z</time></trkpt><trkpt lat="45.38332572878336" lon="5.854153662414328"><ele>933.25</ele><time>2026-04-05T13:15:49Z</time></trkpt><trkpt lat="45.38344777812429" lon="5.854079311557959"><ele>932.0</ele><time>2026-04-05T13:15:50Z</time></trkpt><trkpt lat="45.38355467672738" lon="5.853974127143794"><ele>932.0</ele><time>2026-04-05T13:15:51Z</time></trkpt><trkpt lat="45.38365625243846" lon="5.853877387420229"><ele>932.0</ele><time>2026-04-05T13:15:52Z</time></trkpt><trkpt lat="45.38375617319007" lon="5.853779555672125"><ele>932.0</ele><time>2026-04-05T13:15:53.001Z</time></trkpt><trkpt lat="45.38386599176771" lon="5.853728857507294"><ele>932.0</ele><time>2026-04-05T13:15:54.001Z</time></trkpt><trkpt lat="45.38396900822343" lon="5.853685268753181"><ele>933.75</ele><time>2026-04-05T13:15:55.001Z</time></trkpt><trkpt lat="45.38408626657382" lon="5.853649844198705"><ele>935.5</ele><time>2026-04-05T13:15:56.001Z</time></trkpt><trkpt lat="45.384198236247336" lon="5.853577584525953"><ele>937.25</ele><time>2026-04-05T13:15:57.001Z</time></trkpt><trkpt lat="45.384309370423644" lon="5.853510773253022"><ele>939.0</ele><time>2026-04-05T13:15:58.001Z</time></trkpt><trkpt lat="45.38440751802707" lon="5.85339749652798"><ele>936.75</ele><time>2026-04-05T13:15:59.001Z</time></trkpt><trkpt lat="45.38448688096248" lon="5.85325314285745"><ele>934.5</ele><time>2026-04-05T13:16:00.001Z</time></trkpt><trkpt lat="45.384606272513565" lon="5.85313388140479"><ele>932.25</ele><time>2026-04-05T13:16:01.001Z</time></trkpt><trkpt lat="45.384717462099516" lon="5.853048676441001"><ele>930.0</ele><time>2026-04-05T13:16:02.001Z</time></trkpt><trkpt lat="45.38483641558622" lon="5.853034757349126"><ele>930.0</ele><time>2026-04-05T13:16:03.001Z</time></trkpt><trkpt lat="45.384963949358976" lon="5.852984406681675"><ele>930.0</ele><time>2026-04-05T13:16:04.001Z</time></trkpt><trkpt lat="45.38510133701426" lon="5.852914733022659"><ele>930.0</ele><time>2026-04-05T13:16:05.001Z</time></trkpt><trkpt lat="45.38524841540526" lon="5.852864722133662"><ele>930.0</ele><time>2026-04-05T13:16:06.001Z</time></trkpt><trkpt lat="45.38537744439394" lon="5.852818227943758"><ele>931.75</ele><time>2026-04-05T13:16:07.001Z</time></trkpt><trkpt lat="45.38552042825739" lon="5.852764283561618"><ele>933.5</ele><time>2026-04-05T13:16:08.001Z</time></trkpt><trkpt lat="45.385663069416374" lon="5.852719277544485"><ele>935.25</ele><time>2026-04-05T13:16:09.001Z</time></trkpt><trkpt lat="45.385808258834004" lon="5.852700196618467"><ele>937.0</ele><time>2026-04-05T13:16:10.001Z</time></trkpt><trkpt lat="45.38596363366958" lon="5.852708789342683"><ele>937.0</ele><time>2026-04-05T13:16:11.001Z</time></trkpt><trkpt lat="45.38612985200999" lon="5.852724784953835"><ele>937.0</ele><time>2026-04-05T13:16:12.001Z</time></trkpt><trkpt lat="45.38630049085003" lon="5.8527409154827605"><ele>937.0</ele><time>2026-04-05T13:16:13.001Z</time></trkpt><trkpt lat="45.386477611298425" lon="5.852757658719802"><ele>933.0</ele><time>2026-04-05T13:16:14.001Z</time></trkpt><trkpt lat="45.38664698236148" lon="5.852773669405692"><ele>929.0</ele><time>2026-04-05T13:16:15.001Z</time></trkpt><trkpt lat="45.386811011758404" lon="5.852786889243635"><ele>925.0</ele><time>2026-04-05T13:16:16.001Z</time></trkpt><trkpt lat="45.3869800674578" lon="5.8528007597553575"><ele>925.0</ele><time>2026-04-05T13:16:17.001Z</time></trkpt><trkpt lat="45.38715474644978" lon="5.8528156378581055"><ele>925.0</ele><time>2026-04-05T13:16:18.001Z</time></trkpt><trkpt lat="45.38733117935627" lon="5.8528306653469855"><ele>925.0</ele><time>2026-04-05T13:16:19.001Z</time></trkpt><trkpt lat="45.38750668787604" lon="5.852845614103138"><ele>920.6666666666666</ele><time>2026-04-05T13:16:20.001Z</time></trkpt><trkpt lat="45.38767267752318" lon="5.8528597521062435"><ele>916.3333333333333</ele><time>2026-04-05T13:16:21.001Z</time></trkpt><trkpt lat="45.38782357663862" lon="5.85286752261831"><ele>912.0</ele><time>2026-04-05T13:16:22.001Z</time></trkpt><trkpt lat="45.38797149470001" lon="5.8528743835698185"><ele>910.0</ele><time>2026-04-05T13:16:23.001Z</time></trkpt><trkpt lat="45.38811737590665" lon="5.852879910411808"><ele>908.0</ele><time>2026-04-05T13:16:24.001Z</time></trkpt><trkpt lat="45.38824460735459" lon="5.852910949141645"><ele>906.0</ele><time>2026-04-05T13:16:25.001Z</time></trkpt><trkpt lat="45.388358486756935" lon="5.852972064393291"><ele>904.0</ele><time>2026-04-05T13:16:26.001Z</time></trkpt><trkpt lat="45.38847385610278" lon="5.85303118812472"><ele>904.0</ele><time>2026-04-05T13:16:27.001Z</time></trkpt><trkpt lat="45.38859048947749" lon="5.853090959641278"><ele>904.0</ele><time>2026-04-05T13:16:28.001Z</time></trkpt><trkpt lat="45.38870972881015" lon="5.853149154886706"><ele>904.0</ele><time>2026-04-05T13:16:29.001Z</time></trkpt><trkpt lat="45.388836069822325" lon="5.853205663940986"><ele>904.0</ele><time>2026-04-05T13:16:30.001Z</time></trkpt><trkpt lat="45.38897564349566" lon="5.853267823613053"><ele>902.0</ele><time>2026-04-05T13:16:31.001Z</time></trkpt><trkpt lat="45.389114843873024" lon="5.853329157173189"><ele>900.0</ele><time>2026-04-05T13:16:32.001Z</time></trkpt><trkpt lat="45.389253710875444" lon="5.853395934317922"><ele>898.0</ele><time>2026-04-05T13:16:33.001Z</time></trkpt><trkpt lat="45.38938470487805" lon="5.85347077502967"><ele>896.0</ele><time>2026-04-05T13:16:34.001Z</time></trkpt><trkpt lat="45.38950408368533" lon="5.853560499004651"><ele>899.5</ele><time>2026-04-05T13:16:35.001Z</time></trkpt><trkpt lat="45.38962971793991" lon="5.853629857206981"><ele>903.0</ele><time>2026-04-05T13:16:36.001Z</time></trkpt><trkpt lat="45.38975446617177" lon="5.853702408746254"><ele>906.5</ele><time>2026-04-05T13:16:37.001Z</time></trkpt><trkpt lat="45.38989238445099" lon="5.85374023031753"><ele>910.0</ele><time>2026-04-05T13:16:38.001Z</time></trkpt><trkpt lat="45.39004045710781" lon="5.853742147885894"><ele>910.0</ele><time>2026-04-05T13:16:39.001Z</time></trkpt><trkpt lat="45.39018153097876" lon="5.853732362960678"><ele>910.0</ele><time>2026-04-05T13:16:40.001Z</time></trkpt><trkpt lat="45.39033050343284" lon="5.853696719030553"><ele>910.0</ele><time>2026-04-05T13:16:41.001Z</time></trkpt><trkpt lat="45.390477423810566" lon="5.8536692915903235"><ele>910.0</ele><time>2026-04-05T13:16:42.001Z</time></trkpt><trkpt lat="45.39061550891367" lon="5.853666309132681"><ele>911.0</ele><time>2026-04-05T13:16:43.001Z</time></trkpt><trkpt lat="45.39077724304655" lon="5.853691196694388"><ele>912.0</ele><time>2026-04-05T13:16:44.001Z</time></trkpt><trkpt lat="45.39093774958287" lon="5.853721609286337"><ele>913.0</ele><time>2026-04-05T13:16:45.001Z</time></trkpt><trkpt lat="45.39110573225563" lon="5.853753438452368"><ele>913.0</ele><time>2026-04-05T13:16:46.001Z</time></trkpt><trkpt lat="45.39125546960338" lon="5.853780301142499"><ele>913.0</ele><time>2026-04-05T13:16:47.001Z</time></trkpt><trkpt lat="45.39141464062709" lon="5.853808311690811"><ele>913.0</ele><time>2026-04-05T13:16:48.001Z</time></trkpt><trkpt lat="45.39157591133714" lon="5.8538422930684915"><ele>911.6666666666666</ele><time>2026-04-05T13:16:49.001Z</time></trkpt><trkpt lat="45.391738590777706" lon="5.8538988296391885"><ele>910.3333333333333</ele><time>2026-04-05T13:16:50.001Z</time></trkpt><trkpt lat="45.39190280709916" lon="5.85396782076286"><ele>909.0</ele><time>2026-04-05T13:16:51.001Z</time></trkpt><trkpt lat="45.3920652230066" lon="5.854041819713576"><ele>904.3333333333333</ele><time>2026-04-05T13:16:52.001Z</time></trkpt><trkpt lat="45.39223539703029" lon="5.8541195004775375"><ele>899.6666666666666</ele><time>2026-04-05T13:16:53.001Z</time></trkpt><trkpt lat="45.39240524047273" lon="5.854188609850593"><ele>895.0</ele><time>2026-04-05T13:16:54.001Z</time></trkpt><trkpt lat="45.392578262186284" lon="5.854238466698796"><ele>896.0</ele><time>2026-04-05T13:16:55.001Z</time></trkpt><trkpt lat="45.39273401057596" lon="5.854312283645104"><ele>897.0</ele><time>2026-04-05T13:16:56.001Z</time></trkpt><trkpt lat="45.39288712427716" lon="5.854369036753455"><ele>898.0</ele><time>2026-04-05T13:16:57.001Z</time></trkpt><trkpt lat="45.39304358730455" lon="5.854427296304008"><ele>898.0</ele><time>2026-04-05T13:16:58.001Z</time></trkpt><trkpt lat="45.39319565861906" lon="5.85449647127296"><ele>898.0</ele><time>2026-04-05T13:16:59.001Z</time></trkpt><trkpt lat="45.3933293864165" lon="5.854579887244017"><ele>898.0</ele><time>2026-04-05T13:17:00.001Z</time></trkpt><trkpt lat="45.39345308502345" lon="5.854673386410666"><ele>898.0</ele><time>2026-04-05T13:17:01.001Z</time></trkpt><trkpt lat="45.39360548121441" lon="5.8547943952219645"><ele>898.0</ele><time>2026-04-05T13:17:02.001Z</time></trkpt><trkpt lat="45.39373616036499" lon="5.8548758282857385"><ele>898.0</ele><time>2026-04-05T13:17:03.001Z</time></trkpt><trkpt lat="45.39382686919166" lon="5.85498284921808"><ele>898.0</ele><time>2026-04-05T13:17:04.001Z</time></trkpt><trkpt lat="45.39393350498305" lon="5.855094563073064"><ele>898.0</ele><time>2026-04-05T13:17:05.001Z</time></trkpt><trkpt lat="45.394050037518205" lon="5.85523308015219"><ele>899.25</ele><time>2026-04-05T13:17:06.001Z</time></trkpt><trkpt lat="45.39414145084045" lon="5.855301730443776"><ele>900.5</ele><time>2026-04-05T13:17:07.001Z</time></trkpt><trkpt lat="45.39427775616158" lon="5.8553194983868995"><ele>901.75</ele><time>2026-04-05T13:17:08.001Z</time></trkpt><trkpt lat="45.394425720910846" lon="5.85532202090197"><ele>903.0</ele><time>2026-04-05T13:17:09Z</time></trkpt><trkpt lat="45.394576312088375" lon="5.855312847721052"><ele>897.75</ele><time>2026-04-05T13:17:10Z</time></trkpt><trkpt lat="45.39469049680688" lon="5.8553079152421486"><ele>892.5</ele><time>2026-04-05T13:17:11Z</time></trkpt><trkpt lat="45.39484593655075" lon="5.8553062758641135"><ele>887.25</ele><time>2026-04-05T13:17:12Z</time></trkpt><trkpt lat="45.39499662480867" lon="5.855338464574891"><ele>882.0</ele><time>2026-04-05T13:17:13Z</time></trkpt><trkpt lat="45.39515828138254" lon="5.855396744324919"><ele>882.0</ele><time>2026-04-05T13:17:14Z</time></trkpt><trkpt lat="45.39532796153456" lon="5.85543606313292"><ele>882.0</ele><time>2026-04-05T13:17:15Z</time></trkpt><trkpt lat="45.39548682164458" lon="5.8554821958875065"><ele>882.0</ele><time>2026-04-05T13:17:16Z</time></trkpt><trkpt lat="45.39565131274485" lon="5.855524474194312"><ele>877.6666666666667</ele><time>2026-04-05T13:17:17Z</time></trkpt><trkpt lat="45.39581914146971" lon="5.855594075830025"><ele>873.3333333333334</ele><time>2026-04-05T13:17:18Z</time></trkpt><trkpt lat="45.39598791230919" lon="5.85564510639913"><ele>869.0</ele><time>2026-04-05T13:17:19Z</time></trkpt><trkpt lat="45.39615190014487" lon="5.855698394711025"><ele>869.0</ele><time>2026-04-05T13:17:20Z</time></trkpt><trkpt lat="45.39630055777241" lon="5.855754683321327"><ele>869.0</ele><time>2026-04-05T13:17:21Z</time></trkpt><trkpt lat="45.39644357119007" lon="5.855845049159474"><ele>869.0</ele><time>2026-04-05T13:17:22Z</time></trkpt><trkpt lat="45.396578115053636" lon="5.856000965530141"><ele>871.5</ele><time>2026-04-05T13:17:23Z</time></trkpt><trkpt lat="45.39667613298313" lon="5.856206027557942"><ele>874.0</ele><time>2026-04-05T13:17:24Z</time></trkpt><trkpt lat="45.39675243916362" lon="5.856278168244251"><ele>876.5</ele><time>2026-04-05T13:17:25Z</time></trkpt><trkpt lat="45.39688005945206" lon="5.856410559786535"><ele>879.0</ele><time>2026-04-05T13:17:26Z</time></trkpt><trkpt lat="45.39701244066486" lon="5.8564806133586025"><ele>879.0</ele><time>2026-04-05T13:17:27Z</time></trkpt><trkpt lat="45.397129460496124" lon="5.856557110297433"><ele>879.0</ele><time>2026-04-05T13:17:28Z</time></trkpt><trkpt lat="45.397234726869556" lon="5.856594881097004"><ele>879.0</ele><time>2026-04-05T13:17:29Z</time></trkpt><trkpt lat="45.39743025411532" lon="5.856557030605896"><ele>879.0</ele><time>2026-04-05T13:17:30Z</time></trkpt><trkpt lat="45.39758350139428" lon="5.856505090500395"><ele>873.0</ele><time>2026-04-05T13:17:31Z</time></trkpt><trkpt lat="45.3977313460723" lon="5.856476394774188"><ele>867.0</ele><time>2026-04-05T13:17:32Z</time></trkpt><trkpt lat="45.3978848104317" lon="5.856464691388518"><ele>861.0</ele><time>2026-04-05T13:17:33Z</time></trkpt><trkpt lat="45.39804359768381" lon="5.856485895771819"><ele>856.6666666666667</ele><time>2026-04-05T13:17:34Z</time></trkpt><trkpt lat="45.398203372126765" lon="5.856512111518604"><ele>852.3333333333334</ele><time>2026-04-05T13:17:35Z</time></trkpt><trkpt lat="45.39835601645137" lon="5.856558421701654"><ele>848.0</ele><time>2026-04-05T13:17:36Z</time></trkpt><trkpt lat="45.39851719415043" lon="5.8565765731941735"><ele>848.0</ele><time>2026-04-05T13:17:37Z</time></trkpt><trkpt lat="45.39867333744402" lon="5.856643406034061"><ele>848.0</ele><time>2026-04-05T13:17:38Z</time></trkpt><trkpt lat="45.39881685155255" lon="5.8567196584252414"><ele>848.0</ele><time>2026-04-05T13:17:39Z</time></trkpt><trkpt lat="45.3989847413011" lon="5.856804107019686"><ele>848.0</ele><time>2026-04-05T13:17:40Z</time></trkpt><trkpt lat="45.39914860780428" lon="5.856866503236358"><ele>848.0</ele><time>2026-04-05T13:17:41Z</time></trkpt><trkpt lat="45.39930636711462" lon="5.856921767058032"><ele>848.0</ele><time>2026-04-05T13:17:42Z</time></trkpt><trkpt lat="45.39945716814993" lon="5.856982346986839"><ele>848.0</ele><time>2026-04-05T13:17:43Z</time></trkpt><trkpt lat="45.39959488558892" lon="5.857038005170426"><ele>848.0</ele><time>2026-04-05T13:17:44Z</time></trkpt><trkpt lat="45.399753570421666" lon="5.857098553707273"><ele>848.0</ele><time>2026-04-05T13:17:45Z</time></trkpt><trkpt lat="45.39991574472584" lon="5.857139794931165"><ele>844.25</ele><time>2026-04-05T13:17:46Z</time></trkpt><trkpt lat="45.400060250967655" lon="5.857134876824286"><ele>840.5</ele><time>2026-04-05T13:17:47Z</time></trkpt><trkpt lat="45.40020147031773" lon="5.857093366872577"><ele>836.75</ele><time>2026-04-05T13:17:48Z</time></trkpt><trkpt lat="45.40032961759831" lon="5.857112899310061"><ele>833.0</ele><time>2026-04-05T13:17:49Z</time></trkpt><trkpt lat="45.400537568386135" lon="5.857181398923224"><ele>827.0</ele><time>2026-04-05T13:17:50Z</time></trkpt><trkpt lat="45.400711021129005" lon="5.857198270168707"><ele>821.0</ele><time>2026-04-05T13:17:51Z</time></trkpt><trkpt lat="45.4008567279763" lon="5.85717955257051"><ele>815.0</ele><time>2026-04-05T13:17:52Z</time></trkpt><trkpt lat="45.40101368284087" lon="5.857261148540066"><ele>815.0</ele><time>2026-04-05T13:17:53Z</time></trkpt><trkpt lat="45.40116970101571" lon="5.857325421214079"><ele>815.0</ele><time>2026-04-05T13:17:54Z</time></trkpt><trkpt lat="45.40131859554404" lon="5.857399822920588"><ele>815.0</ele><time>2026-04-05T13:17:55Z</time></trkpt><trkpt lat="45.4014651738781" lon="5.857489403846789"><ele>815.6666666666667</ele><time>2026-04-05T13:17:56Z</time></trkpt><trkpt lat="45.40161434189959" lon="5.857590466004844"><ele>816.3333333333333</ele><time>2026-04-05T13:17:57Z</time></trkpt><trkpt lat="45.40176252071826" lon="5.857689031334015"><ele>817.0</ele><time>2026-04-05T13:17:58Z</time></trkpt><trkpt lat="45.40191197388655" lon="5.857763645457957"><ele>817.0</ele><time>2026-04-05T13:17:59Z</time></trkpt><trkpt lat="45.402041577289395" lon="5.857873830738695"><ele>817.0</ele><time>2026-04-05T13:18:00Z</time></trkpt><trkpt lat="45.40217988505891" lon="5.857966452317344"><ele>817.0</ele><time>2026-04-05T13:18:01Z</time></trkpt><trkpt lat="45.40231520334869" lon="5.858054980664308"><ele>813.75</ele><time>2026-04-05T13:18:02Z</time></trkpt><trkpt lat="45.40243390013809" lon="5.858078787385769"><ele>810.5</ele><time>2026-04-05T13:18:03Z</time></trkpt><trkpt lat="45.40254970253146" lon="5.85815275861695"><ele>807.25</ele><time>2026-04-05T13:18:04Z</time></trkpt><trkpt lat="45.402675471738505" lon="5.858131284928519"><ele>804.0</ele><time>2026-04-05T13:18:05Z</time></trkpt><trkpt lat="45.40279210707428" lon="5.858059439038154"><ele>804.0</ele><time>2026-04-05T13:18:06Z</time></trkpt><trkpt lat="45.40288426509789" lon="5.85794437726939"><ele>804.0</ele><time>2026-04-05T13:18:07Z</time></trkpt><trkpt lat="45.402942560763655" lon="5.857788322023214"><ele>804.0</ele><time>2026-04-05T13:18:08Z</time></trkpt><trkpt lat="45.40298325734841" lon="5.857609542381001"><ele>804.0</ele><time>2026-04-05T13:18:09Z</time></trkpt><trkpt lat="45.40300694389713" lon="5.857418943068929"><ele>799.75</ele><time>2026-04-05T13:18:10Z</time></trkpt><trkpt lat="45.403045043174735" lon="5.85723783982662"><ele>795.5</ele><time>2026-04-05T13:18:11Z</time></trkpt><trkpt lat="45.40308211172371" lon="5.85706704276964"><ele>791.25</ele><time>2026-04-05T13:18:12Z</time></trkpt><trkpt lat="45.40311984419903" lon="5.8569104992999526"><ele>787.0</ele><time>2026-04-05T13:18:13Z</time></trkpt><trkpt lat="45.40315238038717" lon="5.8567896588849"><ele>786.6666666666666</ele><time>2026-04-05T13:18:14.001Z</time></trkpt><trkpt lat="45.40320501430761" lon="5.856720009851678"><ele>786.3333333333333</ele><time>2026-04-05T13:18:15.001Z</time></trkpt><trkpt lat="45.40331065117804" lon="5.856674320360689"><ele>786.0</ele><time>2026-04-05T13:18:17.001Z</time></trkpt><trkpt lat="45.40341410377495" lon="5.856739400640426"><ele>785.6666666666667</ele><time>2026-04-05T13:18:19.001Z</time></trkpt><trkpt lat="45.40348019445101" lon="5.85675055253397"><ele>785.3333333333334</ele><time>2026-04-05T13:18:20.001Z</time></trkpt><trkpt lat="45.40355414981986" lon="5.856738283453575"><ele>785.0</ele><time>2026-04-05T13:18:21.001Z</time></trkpt><trkpt lat="45.40368959219943" lon="5.8567732276165465"><ele>785.0000000000001</ele><time>2026-04-05T13:18:23.001Z</time></trkpt><trkpt lat="45.40376158664137" lon="5.85677691609905"><ele>785.0</ele><time>2026-04-05T13:18:24.001Z</time></trkpt><trkpt lat="45.4038316666581" lon="5.856732928562835"><ele>785.0</ele><time>2026-04-05T13:18:25.001Z</time></trkpt><trkpt lat="45.403903347745015" lon="5.856708309720947"><ele>785.0</ele><time>2026-04-05T13:18:26.001Z</time></trkpt><trkpt lat="45.40399374267081" lon="5.8566582061876025"><ele>785.0000000000001</ele><time>2026-04-05T13:18:27.001Z</time></trkpt><trkpt lat="45.404105006719455" lon="5.856580642885647"><ele>785.0</ele><time>2026-04-05T13:18:29.001Z</time></trkpt><trkpt lat="45.40417315601781" lon="5.856534870983038"><ele>783.8</ele><time>2026-04-05T13:18:30.001Z</time></trkpt><trkpt lat="45.404245553772206" lon="5.856510250912667"><ele>782.6</ele><time>2026-04-05T13:18:31.001Z</time></trkpt><trkpt lat="45.40432576594874" lon="5.8564999501249675"><ele>781.4000000000001</ele><time>2026-04-05T13:18:32.001Z</time></trkpt><trkpt lat="45.404423305385166" lon="5.856489754556153"><ele>780.2</ele><time>2026-04-05T13:18:33.001Z</time></trkpt><trkpt lat="45.40452517856168" lon="5.856479106061386"><ele>779.0</ele><time>2026-04-05T13:18:34.001Z</time></trkpt><trkpt lat="45.40462640896889" lon="5.8564732129253745"><ele>777.75</ele><time>2026-04-05T13:18:35.001Z</time></trkpt><trkpt lat="45.404735316840345" lon="5.856463328119367"><ele>776.5</ele><time>2026-04-05T13:18:36.001Z</time></trkpt><trkpt lat="45.40484785825601" lon="5.856430391465171"><ele>775.25</ele><time>2026-04-05T13:18:37.001Z</time></trkpt><trkpt lat="45.40497247759422" lon="5.85644180239762"><ele>774.0</ele><time>2026-04-05T13:18:38.001Z</time></trkpt><trkpt lat="45.40509959977856" lon="5.856429860283325"><ele>774.0</ele><time>2026-04-05T13:18:39.001Z</time></trkpt><trkpt lat="45.40523958088425" lon="5.856379439984663"><ele>774.0</ele><time>2026-04-05T13:18:40.001Z</time></trkpt><trkpt lat="45.40536500825648" lon="5.856375051941719"><ele>774.0</ele><time>2026-04-05T13:18:41.001Z</time></trkpt><trkpt lat="45.405484133400314" lon="5.856355267766844"><ele>774.0</ele><time>2026-04-05T13:18:42.001Z</time></trkpt><trkpt lat="45.40558875672449" lon="5.856350782033482"><ele>772.6</ele><time>2026-04-05T13:18:43.001Z</time></trkpt><trkpt lat="45.40569228286741" lon="5.856342181963056"><ele>771.2</ele><time>2026-04-05T13:18:44.001Z</time></trkpt><trkpt lat="45.405798282617205" lon="5.856359086418125"><ele>769.8000000000001</ele><time>2026-04-05T13:18:45.001Z</time></trkpt><trkpt lat="45.40589791258371" lon="5.856364495223256"><ele>768.4000000000001</ele><time>2026-04-05T13:18:46.001Z</time></trkpt><trkpt lat="45.40600293127234" lon="5.856369065490556"><ele>767.0</ele><time>2026-04-05T13:18:47.001Z</time></trkpt><trkpt lat="45.40610223630561" lon="5.856440893740921"><ele>767.0</ele><time>2026-04-05T13:18:48.001Z</time></trkpt><trkpt lat="45.406199292019565" lon="5.856522539617257"><ele>767.0</ele><time>2026-04-05T13:18:49.001Z</time></trkpt><trkpt lat="45.406278716360255" lon="5.856639405617393"><ele>767.0</ele><time>2026-04-05T13:18:50.001Z</time></trkpt><trkpt lat="45.40636768317734" lon="5.85676114120506"><ele>767.0</ele><time>2026-04-05T13:18:51.001Z</time></trkpt><trkpt lat="45.40646468777951" lon="5.8568813560118445"><ele>765.5</ele><time>2026-04-05T13:18:52.001Z</time></trkpt><trkpt lat="45.40653739999654" lon="5.857073204285495"><ele>764.0</ele><time>2026-04-05T13:18:53.001Z</time></trkpt><trkpt lat="45.40662201616582" lon="5.857164211330744"><ele>762.5</ele><time>2026-04-05T13:18:54.001Z</time></trkpt><trkpt lat="45.406716501910125" lon="5.857242472972909"><ele>761.0</ele><time>2026-04-05T13:18:55.001Z</time></trkpt><trkpt lat="45.406788797168346" lon="5.8573162505189655"><ele>761.0</ele><time>2026-04-05T13:18:56.001Z</time></trkpt><trkpt lat="45.406875422701034" lon="5.857404139389747"><ele>761.0</ele><time>2026-04-05T13:18:57.001Z</time></trkpt><trkpt lat="45.406955107847594" lon="5.857462738882019"><ele>761.0</ele><time>2026-04-05T13:18:58.001Z</time></trkpt><trkpt lat="45.407045173337124" lon="5.857449877792497"><ele>761.0</ele><time>2026-04-05T13:18:59.001Z</time></trkpt><trkpt lat="45.407128364367445" lon="5.857471466743242"><ele>761.0</ele><time>2026-04-05T13:19:00.001Z</time></trkpt><trkpt lat="45.40721253772769" lon="5.857372538974725"><ele>760.1999999999999</ele><time>2026-04-05T13:19:01.001Z</time></trkpt><trkpt lat="45.40730171035539" lon="5.8573090839881585"><ele>759.4</ele><time>2026-04-05T13:19:02.001Z</time></trkpt><trkpt lat="45.407399594812176" lon="5.857264381061665"><ele>758.6</ele><time>2026-04-05T13:19:03.001Z</time></trkpt><trkpt lat="45.40749673085461" lon="5.857194218692148"><ele>757.8</ele><time>2026-04-05T13:19:04.001Z</time></trkpt><trkpt lat="45.40759889397032" lon="5.8571190488598965"><ele>757.0</ele><time>2026-04-05T13:19:05.001Z</time></trkpt><trkpt lat="45.40771218161267" lon="5.857037405216519"><ele>757.0</ele><time>2026-04-05T13:19:06.001Z</time></trkpt><trkpt lat="45.4078156547963" lon="5.856919506320149"><ele>757.0</ele><time>2026-04-05T13:19:07.001Z</time></trkpt><trkpt lat="45.40793783816152" lon="5.8568396653317"><ele>757.0</ele><time>2026-04-05T13:19:08.001Z</time></trkpt><trkpt lat="45.408068305309655" lon="5.85675858953187"><ele>757.0</ele><time>2026-04-05T13:19:09.001Z</time></trkpt><trkpt lat="45.408195188479525" lon="5.8566663693214815"><ele>756.25</ele><time>2026-04-05T13:19:10.001Z</time></trkpt><trkpt lat="45.408311493835775" lon="5.856561507277262"><ele>755.5</ele><time>2026-04-05T13:19:11.001Z</time></trkpt><trkpt lat="45.40842553038788" lon="5.8564810910295915"><ele>754.75</ele><time>2026-04-05T13:19:12.001Z</time></trkpt><trkpt lat="45.408522573755036" lon="5.856391049030002"><ele>754.0</ele><time>2026-04-05T13:19:13.001Z</time></trkpt><trkpt lat="45.4086225348549" lon="5.856317314221162"><ele>754.0</ele><time>2026-04-05T13:19:14.001Z</time></trkpt><trkpt lat="45.40873823136632" lon="5.856259684996802"><ele>754.0</ele><time>2026-04-05T13:19:15Z</time></trkpt><trkpt lat="45.40884624727792" lon="5.856183826273267"><ele>754.0</ele><time>2026-04-05T13:19:16Z</time></trkpt><trkpt lat="45.40895224163238" lon="5.856125171873863"><ele>754.0</ele><time>2026-04-05T13:19:17Z</time></trkpt><trkpt lat="45.40906592514349" lon="5.856177599192968"><ele>752.4000000000001</ele><time>2026-04-05T13:19:18Z</time></trkpt><trkpt lat="45.40916905534184" lon="5.856178004348716"><ele>750.8</ele><time>2026-04-05T13:19:19Z</time></trkpt><trkpt lat="45.40926223332429" lon="5.856094839261319"><ele>749.2</ele><time>2026-04-05T13:19:20Z</time></trkpt><trkpt lat="45.40928995290416" lon="5.855979617070671"><ele>747.5999999999999</ele><time>2026-04-05T13:19:21Z</time></trkpt><trkpt lat="45.40927024403044" lon="5.855834384105429"><ele>746.0</ele><time>2026-04-05T13:19:22Z</time></trkpt><trkpt lat="45.40920585412107" lon="5.8557012390158825"><ele>745.25</ele><time>2026-04-05T13:19:23Z</time></trkpt><trkpt lat="45.409145792356036" lon="5.855570404951643"><ele>744.5</ele><time>2026-04-05T13:19:24Z</time></trkpt><trkpt lat="45.40908955680683" lon="5.855417312503757"><ele>743.75</ele><time>2026-04-05T13:19:25Z</time></trkpt><trkpt lat="45.40903247370451" lon="5.855256750492107"><ele>743.0</ele><time>2026-04-05T13:19:26Z</time></trkpt><trkpt lat="45.40898137319409" lon="5.8551066090691455"><ele>743.0</ele><time>2026-04-05T13:19:27Z</time></trkpt><trkpt lat="45.40879514367011" lon="5.854768887931471"><ele>743.0</ele><time>2026-04-05T13:19:30Z</time></trkpt><trkpt lat="45.40875418146883" lon="5.854694561576212"><ele>743.0</ele><time>2026-04-05T13:19:31Z</time></trkpt><trkpt lat="45.408752821756885" lon="5.854600080334633"><ele>743.0</ele><time>2026-04-05T13:19:32Z</time></trkpt><trkpt lat="45.40881514950467" lon="5.8545239478144975"><ele>740.0</ele><time>2026-04-05T13:19:33Z</time></trkpt><trkpt lat="45.40891207777854" lon="5.854503411202379"><ele>737.0</ele><time>2026-04-05T13:19:34Z</time></trkpt><trkpt lat="45.40901401387534" lon="5.8546016098930185"><ele>734.0</ele><time>2026-04-05T13:19:35Z</time></trkpt><trkpt lat="45.40910594029894" lon="5.854718889172563"><ele>731.0</ele><time>2026-04-05T13:19:36Z</time></trkpt><trkpt lat="45.409198996090055" lon="5.854808173443511"><ele>731.0</ele><time>2026-04-05T13:19:37Z</time></trkpt><trkpt lat="45.409309744664" lon="5.85489779813216"><ele>731.0</ele><time>2026-04-05T13:19:38Z</time></trkpt><trkpt lat="45.409415823355495" lon="5.854983428948811"><ele>731.0</ele><time>2026-04-05T13:19:39Z</time></trkpt><trkpt lat="45.40952353091434" lon="5.855069940033126"><ele>731.0</ele><time>2026-04-05T13:19:40Z</time></trkpt><trkpt lat="45.40963258401634" lon="5.855157272166532"><ele>729.0</ele><time>2026-04-05T13:19:41Z</time></trkpt><trkpt lat="45.409762737779154" lon="5.855246199309095"><ele>727.0</ele><time>2026-04-05T13:19:42Z</time></trkpt><trkpt lat="45.40986703036488" lon="5.855351426503663"><ele>725.0</ele><time>2026-04-05T13:19:43Z</time></trkpt><trkpt lat="45.40992445147521" lon="5.855477456167893"><ele>723.0</ele><time>2026-04-05T13:19:44Z</time></trkpt><trkpt lat="45.409968271229666" lon="5.855645710238589"><ele>723.0</ele><time>2026-04-05T13:19:45Z</time></trkpt><trkpt lat="45.41004221183868" lon="5.855769135538134"><ele>723.0</ele><time>2026-04-05T13:19:46Z</time></trkpt><trkpt lat="45.41011323766907" lon="5.8559409315263"><ele>723.0</ele><time>2026-04-05T13:19:47Z</time></trkpt><trkpt lat="45.41027440412085" lon="5.856036863798918"><ele>723.0</ele><time>2026-04-05T13:19:48Z</time></trkpt><trkpt lat="45.41042003506787" lon="5.8559562970922086"><ele>720.8</ele><time>2026-04-05T13:19:49Z</time></trkpt><trkpt lat="45.41055998141956" lon="5.855920539447271"><ele>718.5999999999999</ele><time>2026-04-05T13:19:52Z</time></trkpt><trkpt lat="45.410656934365235" lon="5.85598751074684"><ele>716.4000000000001</ele><time>2026-04-05T13:19:54Z</time></trkpt><trkpt lat="45.410653169099184" lon="5.856101318900375"><ele>714.2</ele><time>2026-04-05T13:19:55Z</time></trkpt><trkpt lat="45.41062244928059" lon="5.85620668971663"><ele>712.0</ele><time>2026-04-05T13:19:56Z</time></trkpt><trkpt lat="45.4105769814266" lon="5.856307999231478"><ele>713.0</ele><time>2026-04-05T13:19:57Z</time></trkpt><trkpt lat="45.41052639006289" lon="5.8564134337824045"><ele>714.0</ele><time>2026-04-05T13:19:58Z</time></trkpt><trkpt lat="45.41047689708024" lon="5.856518454780329"><ele>715.0</ele><time>2026-04-05T13:19:59Z</time></trkpt><trkpt lat="45.410414674761086" lon="5.856618493242996"><ele>716.0</ele><time>2026-04-05T13:20:00Z</time></trkpt><trkpt lat="45.41033690771301" lon="5.856694682023091"><ele>717.0</ele><time>2026-04-05T13:20:01Z</time></trkpt><trkpt lat="45.41025189113871" lon="5.856750377282574"><ele>716.0</ele><time>2026-04-05T13:20:02Z</time></trkpt><trkpt lat="45.41018962759489" lon="5.856802909856787"><ele>715.0</ele><time>2026-04-05T13:20:03Z</time></trkpt><trkpt lat="45.41017874539568" lon="5.856982395124974"><ele>714.0</ele><time>2026-04-05T13:20:05Z</time></trkpt><trkpt lat="45.41020133332172" lon="5.8570741298110125"><ele>713.0</ele><time>2026-04-05T13:20:06Z</time></trkpt><trkpt lat="45.410285473583585" lon="5.857128479544567"><ele>712.0</ele><time>2026-04-05T13:20:07Z</time></trkpt><trkpt lat="45.410384031746666" lon="5.857169334677355"><ele>706.5</ele><time>2026-04-05T13:20:08Z</time></trkpt><trkpt lat="45.41050183465145" lon="5.857124660614278"><ele>701.0</ele><time>2026-04-05T13:20:09Z</time></trkpt><trkpt lat="45.410612370085424" lon="5.857085069171673"><ele>695.5</ele><time>2026-04-05T13:20:10Z</time></trkpt><trkpt lat="45.410712433010374" lon="5.857034626062245"><ele>690.0</ele><time>2026-04-05T13:20:11Z</time></trkpt><trkpt lat="45.410818808270655" lon="5.856955438229247"><ele>690.0</ele><time>2026-04-05T13:20:12Z</time></trkpt><trkpt lat="45.41092426174648" lon="5.856839263558954"><ele>690.0</ele><time>2026-04-05T13:20:13Z</time></trkpt><trkpt lat="45.411021458013046" lon="5.856696088460622"><ele>690.0</ele><time>2026-04-05T13:20:14Z</time></trkpt><trkpt lat="45.411129942313494" lon="5.856535078668319"><ele>690.0</ele><time>2026-04-05T13:20:15Z</time></trkpt><trkpt lat="45.411257310845635" lon="5.8564269031892495"><ele>688.0</ele><time>2026-04-05T13:20:16Z</time></trkpt><trkpt lat="45.41137370073461" lon="5.856328685777405"><ele>686.0</ele><time>2026-04-05T13:20:17Z</time></trkpt><trkpt lat="45.41149517750819" lon="5.856234783454646"><ele>684.0</ele><time>2026-04-05T13:20:18Z</time></trkpt><trkpt lat="45.411617010589644" lon="5.856146892993486"><ele>682.0</ele><time>2026-04-05T13:20:19Z</time></trkpt><trkpt lat="45.411738371146654" lon="5.856062075752925"><ele>682.0</ele><time>2026-04-05T13:20:20.001Z</time></trkpt><trkpt lat="45.4118586263603" lon="5.855975663238196"><ele>682.0</ele><time>2026-04-05T13:20:21.001Z</time></trkpt><trkpt lat="45.41197274627869" lon="5.855890273225835"><ele>682.0</ele><time>2026-04-05T13:20:22.001Z</time></trkpt><trkpt lat="45.41208556597095" lon="5.855805856100908"><ele>682.0</ele><time>2026-04-05T13:20:23.001Z</time></trkpt><trkpt lat="45.4121920663671" lon="5.855726761191017"><ele>678.75</ele><time>2026-04-05T13:20:24.001Z</time></trkpt><trkpt lat="45.412295642962206" lon="5.855655150680543"><ele>675.5</ele><time>2026-04-05T13:20:25.001Z</time></trkpt><trkpt lat="45.412374292071135" lon="5.855600755060393"><ele>672.25</ele><time>2026-04-05T13:20:26.001Z</time></trkpt><trkpt lat="45.41249402322323" lon="5.855491259524448"><ele>669.0</ele><time>2026-04-05T13:20:27.001Z</time></trkpt><trkpt lat="45.412601366566705" lon="5.855440558066139"><ele>669.0</ele><time>2026-04-05T13:20:28.001Z</time></trkpt><trkpt lat="45.41269227052104" lon="5.8553371857422745"><ele>669.0</ele><time>2026-04-05T13:20:29.001Z</time></trkpt><trkpt lat="45.4127426849311" lon="5.85519420769877"><ele>669.0</ele><time>2026-04-05T13:20:30.001Z</time></trkpt><trkpt lat="45.41275804978696" lon="5.855040695035892"><ele>669.0</ele><time>2026-04-05T13:20:31.001Z</time></trkpt><trkpt lat="45.41271589896908" lon="5.854901756638588"><ele>669.0</ele><time>2026-04-05T13:20:32.001Z</time></trkpt><trkpt lat="45.41263317559814" lon="5.854795940881809"><ele>668.2</ele><time>2026-04-05T13:20:33.001Z</time></trkpt><trkpt lat="45.412538349685235" lon="5.854728926242773"><ele>667.4000000000001</ele><time>2026-04-05T13:20:34.001Z</time></trkpt><trkpt lat="45.41246809032362" lon="5.854635543672194"><ele>666.6</ele><time>2026-04-05T13:20:35.001Z</time></trkpt><trkpt lat="45.41248315738659" lon="5.854489066838762"><ele>665.8</ele><time>2026-04-05T13:20:36.001Z</time></trkpt><trkpt lat="45.41246204195511" lon="5.854361429935707"><ele>665.0</ele><time>2026-04-05T13:20:37.001Z</time></trkpt><trkpt lat="45.412432537293476" lon="5.854246842418984"><ele>665.0</ele><time>2026-04-05T13:20:38.001Z</time></trkpt><trkpt lat="45.41235860478072" lon="5.854173921309312"><ele>665.0</ele><time>2026-04-05T13:20:39.001Z</time></trkpt><trkpt lat="45.41227712207692" lon="5.854109940779903"><ele>665.0</ele><time>2026-04-05T13:20:40.001Z</time></trkpt><trkpt lat="45.412170213029455" lon="5.854066486245196"><ele>665.0</ele><time>2026-04-05T13:20:41.001Z</time></trkpt><trkpt lat="45.41208024522037" lon="5.85402184266843"><ele>665.0</ele><time>2026-04-05T13:20:42.001Z</time></trkpt><trkpt lat="45.41199676931826" lon="5.853971451454617"><ele>665.6666666666666</ele><time>2026-04-05T13:20:43.001Z</time></trkpt><trkpt lat="45.411928885307496" lon="5.853903183003903"><ele>666.3333333333333</ele><time>2026-04-05T13:20:44.001Z</time></trkpt><trkpt lat="45.4118790986826" lon="5.853809584249475"><ele>667.0</ele><time>2026-04-05T13:20:45.001Z</time></trkpt><trkpt lat="45.41185136236558" lon="5.853682228420639"><ele>667.6666666666666</ele><time>2026-04-05T13:20:46.001Z</time></trkpt><trkpt lat="45.411894448236524" lon="5.853570684186925"><ele>668.3333333333334</ele><time>2026-04-05T13:20:47.001Z</time></trkpt><trkpt lat="45.41197716368845" lon="5.853499042255506"><ele>669.0</ele><time>2026-04-05T13:20:48.001Z</time></trkpt><trkpt lat="45.412076986763" lon="5.8533998004195285"><ele>668.6</ele><time>2026-04-05T13:20:50.001Z</time></trkpt><trkpt lat="45.41220342361529" lon="5.853414998406127"><ele>668.2</ele><time>2026-04-05T13:20:52.001Z</time></trkpt><trkpt lat="45.41227636630272" lon="5.853445713193743"><ele>667.8000000000001</ele><time>2026-04-05T13:20:53.001Z</time></trkpt><trkpt lat="45.41234419820059" lon="5.853504799714241"><ele>667.4000000000001</ele><time>2026-04-05T13:20:54.001Z</time></trkpt><trkpt lat="45.41242798813215" lon="5.853545531856079"><ele>667.0</ele><time>2026-04-05T13:20:55.001Z</time></trkpt><trkpt lat="45.41251603426119" lon="5.853588333021089"><ele>666.6666666666667</ele><time>2026-04-05T13:20:56.001Z</time></trkpt><trkpt lat="45.41261169039114" lon="5.853634833539418"><ele>666.3333333333334</ele><time>2026-04-05T13:20:57.001Z</time></trkpt><trkpt lat="45.412695042640735" lon="5.853675352899451"><ele>666.0</ele><time>2026-04-05T13:20:58.001Z</time></trkpt><trkpt lat="45.41279359101969" lon="5.853700134055324"><ele>665.6666666666666</ele><time>2026-04-05T13:20:59.001Z</time></trkpt><trkpt lat="45.41286484371118" lon="5.853743425298644"><ele>665.3333333333333</ele><time>2026-04-05T13:21:00.001Z</time></trkpt><trkpt lat="45.412936278690076" lon="5.853782357360132"><ele>665.0</ele><time>2026-04-05T13:21:01.001Z</time></trkpt><trkpt lat="45.413003561862936" lon="5.853814720584375"><ele>662.6</ele><time>2026-04-05T13:21:02.001Z</time></trkpt><trkpt lat="45.41307167822174" lon="5.853843446931462"><ele>660.2</ele><time>2026-04-05T13:21:03.001Z</time></trkpt><trkpt lat="45.41312993605102" lon="5.853902813051608"><ele>657.8</ele><time>2026-04-05T13:21:04.001Z</time></trkpt><trkpt lat="45.41323086896358" lon="5.853954066861465"><ele>655.4</ele><time>2026-04-05T13:21:06.001Z</time></trkpt><trkpt lat="45.41331391525259" lon="5.854045774266276"><ele>653.0</ele><time>2026-04-05T13:21:08.001Z</time></trkpt><trkpt lat="45.413416245360544" lon="5.854103332581396"><ele>653.0</ele><time>2026-04-05T13:21:10.001Z</time></trkpt><trkpt lat="45.41352052538643" lon="5.854204748535672"><ele>653.0</ele><time>2026-04-05T13:21:12.001Z</time></trkpt><trkpt lat="45.41356402771228" lon="5.854281195785562"><ele>653.0</ele><time>2026-04-05T13:21:13.001Z</time></trkpt><trkpt lat="45.413620857058426" lon="5.854334677506666"><ele>653.0</ele><time>2026-04-05T13:21:14.001Z</time></trkpt><trkpt lat="45.413667226845334" lon="5.854412541622531"><ele>653.0</ele><time>2026-04-05T13:21:15.001Z</time></trkpt><trkpt lat="45.41372457758228" lon="5.854475189996409"><ele>653.0</ele><time>2026-04-05T13:21:16.001Z</time></trkpt><trkpt lat="45.4137930333877" lon="5.854524741778092"><ele>652.6666666666666</ele><time>2026-04-05T13:21:17.001Z</time></trkpt><trkpt lat="45.41387387842566" lon="5.854552414299622"><ele>652.3333333333333</ele><time>2026-04-05T13:21:18.001Z</time></trkpt><trkpt lat="45.41395920949435" lon="5.854563597489214"><ele>652.0</ele><time>2026-04-05T13:21:19.001Z</time></trkpt><trkpt lat="45.414040774176826" lon="5.854577063960992"><ele>651.6666666666666</ele><time>2026-04-05T13:21:20.001Z</time></trkpt><trkpt lat="45.41411956265815" lon="5.854592019932493"><ele>651.3333333333334</ele><time>2026-04-05T13:21:21Z</time></trkpt><trkpt lat="45.41419711331136" lon="5.8546305462704264"><ele>651.0</ele><time>2026-04-05T13:21:22Z</time></trkpt><trkpt lat="45.414269678698304" lon="5.854651294117781"><ele>651.0</ele><time>2026-04-05T13:21:23Z</time></trkpt><trkpt lat="45.414333075643725" lon="5.854655606816322"><ele>651.0</ele><time>2026-04-05T13:21:24Z</time></trkpt><trkpt lat="45.41440679547036" lon="5.854665366868789"><ele>651.0</ele><time>2026-04-05T13:21:25Z</time></trkpt><trkpt lat="45.414487129252215" lon="5.854662739401373"><ele>651.0</ele><time>2026-04-05T13:21:26Z</time></trkpt><trkpt lat="45.41455178076446" lon="5.854642344736223"><ele>651.0</ele><time>2026-04-05T13:21:27Z</time></trkpt><trkpt lat="45.414619478483104" lon="5.854635512655324"><ele>651.0</ele><time>2026-04-05T13:21:28Z</time></trkpt><trkpt lat="45.41468415786881" lon="5.854644603749832"><ele>651.0</ele><time>2026-04-05T13:21:29Z</time></trkpt><trkpt lat="45.41475227385754" lon="5.854667994309656"><ele>651.4</ele><time>2026-04-05T13:21:30Z</time></trkpt><trkpt lat="45.41488304613723" lon="5.85469362404372"><ele>651.8</ele><time>2026-04-05T13:21:32Z</time></trkpt><trkpt lat="45.41498779835369" lon="5.8547074791067155"><ele>652.1999999999999</ele><time>2026-04-05T13:21:34Z</time></trkpt><trkpt lat="45.415092460047795" lon="5.85471669371474"><ele>652.5999999999999</ele><time>2026-04-05T13:21:36Z</time></trkpt><trkpt lat="45.41516561660218" lon="5.854717131950459"><ele>653.0</ele><time>2026-04-05T13:21:39Z</time></trkpt><trkpt lat="45.41525205126309" lon="5.854722254366962"><ele>653.0</ele><time>2026-04-05T13:22:14Z</time></trkpt><trkpt lat="45.41530171378261" lon="5.854414811554803"><ele>653.0</ele><time>2026-04-05T13:22:16Z</time></trkpt><trkpt lat="45.41533208591377" lon="5.854265181208314"><ele>653.0</ele><time>2026-04-05T13:22:18Z</time></trkpt><trkpt lat="45.415347337739846" lon="5.854118065050058"><ele>653.0</ele><time>2026-04-05T13:22:20Z</time></trkpt><trkpt lat="45.41536062107891" lon="5.85402137487398"><ele>653.0000000000001</ele><time>2026-04-05T13:22:21Z</time></trkpt><trkpt lat="45.41537358256313" lon="5.853932428620647"><ele>653.0</ele><time>2026-04-05T13:22:22Z</time></trkpt><trkpt lat="45.415416743038506" lon="5.853848174507997"><ele>653.0</ele><time>2026-04-05T13:22:23Z</time></trkpt><trkpt lat="45.41543206776414" lon="5.853760262566586"><ele>653.0</ele><time>2026-04-05T13:22:24Z</time></trkpt><trkpt lat="45.41544927863118" lon="5.853663957021739"><ele>653.0</ele><time>2026-04-05T13:22:25Z</time></trkpt><trkpt lat="45.41546697528987" lon="5.853572725477312"><ele>653.0000000000001</ele><time>2026-04-05T13:22:26Z</time></trkpt><trkpt lat="45.41548626473267" lon="5.853473282653981"><ele>653.0</ele><time>2026-04-05T13:22:27Z</time></trkpt><trkpt lat="45.415505489152146" lon="5.853372559187453"><ele>652.2857142857143</ele><time>2026-04-05T13:22:28Z</time></trkpt><trkpt lat="45.41552423368548" lon="5.853271950205484"><ele>651.5714285714286</ele><time>2026-04-05T13:22:29Z</time></trkpt><trkpt lat="45.41554014544071" lon="5.853165340730091"><ele>650.8571428571429</ele><time>2026-04-05T13:22:30.001Z</time></trkpt><trkpt lat="45.415550134770115" lon="5.853064469781164"><ele>650.1428571428571</ele><time>2026-04-05T13:22:31.001Z</time></trkpt><trkpt lat="45.41555583413652" lon="5.852957460285551"><ele>649.4285714285714</ele><time>2026-04-05T13:22:32.001Z</time></trkpt><trkpt lat="45.41557233875858" lon="5.852864574739628"><ele>648.7142857142858</ele><time>2026-04-05T13:22:33.001Z</time></trkpt><trkpt lat="45.415590043673255" lon="5.852774494468963"><ele>648.0</ele><time>2026-04-05T13:22:34.001Z</time></trkpt><trkpt lat="45.4156129692849" lon="5.852681433380773"><ele>648.5</ele><time>2026-04-05T13:22:35.001Z</time></trkpt><trkpt lat="45.41564553789227" lon="5.852586119798091"><ele>649.0</ele><time>2026-04-05T13:22:36.001Z</time></trkpt><trkpt lat="45.41568636442192" lon="5.852493036959142"><ele>649.5</ele><time>2026-04-05T13:22:37.001Z</time></trkpt><trkpt lat="45.41573652464289" lon="5.852403311302921"><ele>650.0</ele><time>2026-04-05T13:22:38.001Z</time></trkpt><trkpt lat="45.4157968526234" lon="5.852329390212278"><ele>650.5</ele><time>2026-04-05T13:22:39.001Z</time></trkpt><trkpt lat="45.415874225356" lon="5.8522448974333585"><ele>651.0</ele><time>2026-04-05T13:22:40.001Z</time></trkpt><trkpt lat="45.415957169756595" lon="5.852159380719725"><ele>651.0</ele><time>2026-04-05T13:22:41.001Z</time></trkpt><trkpt lat="45.416051432451276" lon="5.85206219462061"><ele>651.0</ele><time>2026-04-05T13:22:42.001Z</time></trkpt><trkpt lat="45.41614323212087" lon="5.851967547979249"><ele>651.0</ele><time>2026-04-05T13:22:43.001Z</time></trkpt><trkpt lat="45.416223460508014" lon="5.851855965589295"><ele>651.0</ele><time>2026-04-05T13:22:44.001Z</time></trkpt><trkpt lat="45.416295737679214" lon="5.851748951181799"><ele>651.0</ele><time>2026-04-05T13:22:45.001Z</time></trkpt><trkpt lat="45.416355560905465" lon="5.8516186509958885"><ele>650.0</ele><time>2026-04-05T13:22:46.001Z</time></trkpt><trkpt lat="45.41640440593367" lon="5.8514735907684505"><ele>649.0</ele><time>2026-04-05T13:22:47.001Z</time></trkpt><trkpt lat="45.41643858877297" lon="5.851321375389524"><ele>648.0</ele><time>2026-04-05T13:22:48.001Z</time></trkpt><trkpt lat="45.41647373314394" lon="5.8511796227921264"><ele>647.0</ele><time>2026-04-05T13:22:49.001Z</time></trkpt><trkpt lat="45.41649728698368" lon="5.851038386244113"><ele>646.0</ele><time>2026-04-05T13:22:50.001Z</time></trkpt><trkpt lat="45.416518227237034" lon="5.850893407153928"><ele>646.0</ele><time>2026-04-05T13:22:51.001Z</time></trkpt><trkpt lat="45.41650361982141" lon="5.8507400976220865"><ele>646.0</ele><time>2026-04-05T13:22:52.001Z</time></trkpt><trkpt lat="45.41647466802847" lon="5.8506147683421235"><ele>646.0</ele><time>2026-04-05T13:22:53.001Z</time></trkpt><trkpt lat="45.41644282540019" lon="5.850492860500492"><ele>646.0</ele><time>2026-04-05T13:22:54.001Z</time></trkpt><trkpt lat="45.41639520580573" lon="5.850353914169169"><ele>646.0</ele><time>2026-04-05T13:22:55.001Z</time></trkpt><trkpt lat="45.41634851351533" lon="5.850220084065305"><ele>655.75</ele><time>2026-04-05T13:22:56.001Z</time></trkpt><trkpt lat="45.41628509932471" lon="5.850066094524471"><ele>665.5</ele><time>2026-04-05T13:22:57.001Z</time></trkpt><trkpt lat="45.41622512156996" lon="5.849943239640185"><ele>675.25</ele><time>2026-04-05T13:22:58.001Z</time></trkpt><trkpt lat="45.41618803907097" lon="5.8497960883704625"><ele>685.0</ele><time>2026-04-05T13:22:59.001Z</time></trkpt><trkpt lat="45.416135520793624" lon="5.849643848793555"><ele>685.0</ele><time>2026-04-05T13:23:00.001Z</time></trkpt><trkpt lat="45.416082764629294" lon="5.849543215016789"><ele>685.0</ele><time>2026-04-05T13:23:01.001Z</time></trkpt><trkpt lat="45.41605490931245" lon="5.849379265060191"><ele>685.0</ele><time>2026-04-05T13:23:02.001Z</time></trkpt><trkpt lat="45.416092885031695" lon="5.849219814933556"><ele>685.0</ele><time>2026-04-05T13:23:03.001Z</time></trkpt><trkpt lat="45.416113733172104" lon="5.849060034554815"><ele>685.0</ele><time>2026-04-05T13:23:04.001Z</time></trkpt><trkpt lat="45.41612946133813" lon="5.848892021597669"><ele>685.25</ele><time>2026-04-05T13:23:05.001Z</time></trkpt><trkpt lat="45.41613258650812" lon="5.8487148781081695"><ele>685.5</ele><time>2026-04-05T13:23:06.001Z</time></trkpt><trkpt lat="45.41615471428107" lon="5.848511967734986"><ele>685.75</ele><time>2026-04-05T13:23:07.001Z</time></trkpt><trkpt lat="45.41616026628212" lon="5.848307933183118"><ele>686.0</ele><time>2026-04-05T13:23:08.001Z</time></trkpt><trkpt lat="45.41616483741729" lon="5.848099764120754"><ele>687.25</ele><time>2026-04-05T13:23:09.001Z</time></trkpt><trkpt lat="45.41617686549726" lon="5.847897430995415"><ele>688.5</ele><time>2026-04-05T13:23:10.001Z</time></trkpt><trkpt lat="45.416184258945655" lon="5.847686666094881"><ele>689.75</ele><time>2026-04-05T13:23:11.001Z</time></trkpt><trkpt lat="45.41617725114942" lon="5.847480590761203"><ele>691.0</ele><time>2026-04-05T13:23:12.001Z</time></trkpt><trkpt lat="45.41616453010171" lon="5.8472738433964215"><ele>692.0</ele><time>2026-04-05T13:23:13.001Z</time></trkpt><trkpt lat="45.416152895332836" lon="5.8470679902128095"><ele>693.0</ele><time>2026-04-05T13:23:14.001Z</time></trkpt><trkpt lat="45.41618395036904" lon="5.8468617240643495"><ele>694.0</ele><time>2026-04-05T13:23:15.001Z</time></trkpt><trkpt lat="45.41621650436276" lon="5.846639094737381"><ele>698.0</ele><time>2026-04-05T13:23:16.001Z</time></trkpt><trkpt lat="45.41625034122703" lon="5.846411238293737"><ele>702.0</ele><time>2026-04-05T13:23:17.001Z</time></trkpt><trkpt lat="45.4162855944876" lon="5.846196973199898"><ele>706.0</ele><time>2026-04-05T13:23:18.001Z</time></trkpt><trkpt lat="45.4163402705649" lon="5.846003955659407"><ele>696.25</ele><time>2026-04-05T13:23:19.001Z</time></trkpt><trkpt lat="45.41642427940406" lon="5.845836412739066"><ele>686.5</ele><time>2026-04-05T13:23:20.001Z</time></trkpt><trkpt lat="45.41651746206866" lon="5.845668538393217"><ele>676.75</ele><time>2026-04-05T13:23:21.001Z</time></trkpt><trkpt lat="45.41661766160538" lon="5.845525696948274"><ele>667.0</ele><time>2026-04-05T13:23:22.001Z</time></trkpt><trkpt lat="45.416701924551724" lon="5.845389104984246"><ele>667.0</ele><time>2026-04-05T13:23:23.001Z</time></trkpt><trkpt lat="45.41677225544439" lon="5.845291604392262"><ele>667.0</ele><time>2026-04-05T13:23:24.001Z</time></trkpt><trkpt lat="45.4167836348671" lon="5.845172047778222"><ele>667.0</ele><time>2026-04-05T13:23:25.001Z</time></trkpt><trkpt lat="45.41676027204104" lon="5.845027555559083"><ele>667.0</ele><time>2026-04-05T13:23:26.001Z</time></trkpt><trkpt lat="45.41668035241189" lon="5.844861016658322"><ele>667.0</ele><time>2026-04-05T13:23:27Z</time></trkpt><trkpt lat="45.41662381829735" lon="5.84468936824871"><ele>670.6666666666667</ele><time>2026-04-05T13:23:28Z</time></trkpt><trkpt lat="45.41663163749369" lon="5.844494763233341"><ele>674.3333333333334</ele><time>2026-04-05T13:23:29Z</time></trkpt><trkpt lat="45.41673469093948" lon="5.844318553862291"><ele>678.0</ele><time>2026-04-05T13:23:30Z</time></trkpt><trkpt lat="45.41679214975079" lon="5.844109872660991"><ele>680.3333333333334</ele><time>2026-04-05T13:23:31Z</time></trkpt><trkpt lat="45.41684889247007" lon="5.843906187381027"><ele>682.6666666666667</ele><time>2026-04-05T13:23:32Z</time></trkpt><trkpt lat="45.416916709334735" lon="5.843698242958051"><ele>685.0</ele><time>2026-04-05T13:23:33Z</time></trkpt><trkpt lat="45.41697729186527" lon="5.8435097405751755"><ele>688.75</ele><time>2026-04-05T13:23:34Z</time></trkpt><trkpt lat="45.416996351936156" lon="5.843338001029478"><ele>692.5</ele><time>2026-04-05T13:23:35Z</time></trkpt><trkpt lat="45.41707716085908" lon="5.8432354741147465"><ele>696.25</ele><time>2026-04-05T13:23:36Z</time></trkpt><trkpt lat="45.417212873837954" lon="5.843163662968686"><ele>700.0</ele><time>2026-04-05T13:23:37Z</time></trkpt><trkpt lat="45.41729641444631" lon="5.843046227765381"><ele>695.75</ele><time>2026-04-05T13:23:38Z</time></trkpt><trkpt lat="45.4173440816672" lon="5.84289773362139"><ele>691.5</ele><time>2026-04-05T13:23:39Z</time></trkpt><trkpt lat="45.41736678160749" lon="5.842712465519959"><ele>687.25</ele><time>2026-04-05T13:23:40Z</time></trkpt><trkpt lat="45.4174460415792" lon="5.8425599153180885"><ele>683.0</ele><time>2026-04-05T13:23:41Z</time></trkpt><trkpt lat="45.417538976426435" lon="5.842466498806561"><ele>683.0</ele><time>2026-04-05T13:23:42Z</time></trkpt><trkpt lat="45.41766997662731" lon="5.84244683990406"><ele>683.0</ele><time>2026-04-05T13:23:43Z</time></trkpt><trkpt lat="45.417780420303934" lon="5.8424700374900125"><ele>683.0</ele><time>2026-04-05T13:23:44Z</time></trkpt><trkpt lat="45.41788162071345" lon="5.842497278424049"><ele>683.0</ele><time>2026-04-05T13:23:45Z</time></trkpt><trkpt lat="45.41795111617478" lon="5.842429939505463"><ele>683.0</ele><time>2026-04-05T13:23:46Z</time></trkpt><trkpt lat="45.41797559534419" lon="5.84229366489996"><ele>683.0</ele><time>2026-04-05T13:23:47Z</time></trkpt><trkpt lat="45.41798876929746" lon="5.842136364099205"><ele>683.0</ele><time>2026-04-05T13:23:48Z</time></trkpt><trkpt lat="45.41793367998313" lon="5.841994754644604"><ele>683.0</ele><time>2026-04-05T13:23:49Z</time></trkpt><trkpt lat="45.417888835913004" lon="5.841840548340861"><ele>683.0</ele><time>2026-04-05T13:23:50Z</time></trkpt><trkpt lat="45.417876533082456" lon="5.8416657511815195"><ele>679.25</ele><time>2026-04-05T13:23:51Z</time></trkpt><trkpt lat="45.41788914188375" lon="5.841475568182284"><ele>675.5</ele><time>2026-04-05T13:23:52Z</time></trkpt><trkpt lat="45.417943387516644" lon="5.841292074305294"><ele>671.75</ele><time>2026-04-05T13:23:53Z</time></trkpt><trkpt lat="45.41799440723475" lon="5.841113181215119"><ele>668.0</ele><time>2026-04-05T13:23:54Z</time></trkpt><trkpt lat="45.41803505337073" lon="5.840941040724457"><ele>668.0</ele><time>2026-04-05T13:23:55Z</time></trkpt><trkpt lat="45.41798519897292" lon="5.840771738376844"><ele>668.0</ele><time>2026-04-05T13:23:56Z</time></trkpt><trkpt lat="45.41793587732169" lon="5.84061086960013"><ele>668.0</ele><time>2026-04-05T13:23:57Z</time></trkpt><trkpt lat="45.41787705304224" lon="5.840438035255768"><ele>668.0</ele><time>2026-04-05T13:23:58Z</time></trkpt><trkpt lat="45.41782110573278" lon="5.840264902861596"><ele>699.3333333333333</ele><time>2026-04-05T13:23:59Z</time></trkpt><trkpt lat="45.41776074817201" lon="5.840056545573102"><ele>730.6666666666666</ele><time>2026-04-05T13:24:00Z</time></trkpt><trkpt lat="45.417699866788496" lon="5.839836654120775"><ele>762.0</ele><time>2026-04-05T13:24:01Z</time></trkpt><trkpt lat="45.417674608472964" lon="5.839603957824912"><ele>762.0</ele><time>2026-04-05T13:24:02.02Z</time></trkpt><trkpt lat="45.41765964636368" lon="5.839415913847325"><ele>762.0</ele><time>2026-04-05T13:24:03.02Z</time></trkpt><trkpt lat="45.417650844065584" lon="5.839185849450708"><ele>762.0</ele><time>2026-04-05T13:24:04.016Z</time></trkpt><trkpt lat="45.41765581855074" lon="5.838978947742138"><ele>762.0</ele><time>2026-04-05T13:24:05.014Z</time></trkpt><trkpt lat="45.41767239876977" lon="5.838780683529413"><ele>805.0</ele><time>2026-04-05T13:24:06.015Z</time></trkpt><trkpt lat="45.41791599248109" lon="5.837168432777595"><ele>805.0</ele><time>2026-04-05T13:24:13Z</time></trkpt><trkpt lat="45.41796680169727" lon="5.836935749144349"><ele>805.0</ele><time>2026-04-05T13:24:14Z</time></trkpt><trkpt lat="45.41813597049446" lon="5.83674524492702"><ele>805.0</ele><time>2026-04-05T13:24:15Z</time></trkpt><trkpt lat="45.41819091556713" lon="5.836574786914247"><ele>764.0</ele><time>2026-04-05T13:24:16Z</time></trkpt><trkpt lat="45.41828356327786" lon="5.836370636630611"><ele>723.0</ele><time>2026-04-05T13:24:17Z</time></trkpt><trkpt lat="45.4183388574465" lon="5.836214917096024"><ele>682.0</ele><time>2026-04-05T13:24:18Z</time></trkpt><trkpt lat="45.41834626522447" lon="5.835992350179713"><ele>685.25</ele><time>2026-04-05T13:24:19Z</time></trkpt><trkpt lat="45.41837557120831" lon="5.835832146399776"><ele>688.5</ele><time>2026-04-05T13:24:20Z</time></trkpt><trkpt lat="45.41843510577733" lon="5.835698460505851"><ele>691.75</ele><time>2026-04-05T13:24:21Z</time></trkpt><trkpt lat="45.41852413750716" lon="5.835542367925994"><ele>695.0</ele><time>2026-04-05T13:24:22Z</time></trkpt><trkpt lat="45.41857903868677" lon="5.835380200474372"><ele>695.0</ele><time>2026-04-05T13:24:23Z</time></trkpt><trkpt lat="45.41857406393791" lon="5.835191220248811"><ele>695.0</ele><time>2026-04-05T13:24:24Z</time></trkpt><trkpt lat="45.418543794130066" lon="5.835016850717137"><ele>695.0</ele><time>2026-04-05T13:24:25Z</time></trkpt><trkpt lat="45.41848978552392" lon="5.834821691393288"><ele>695.0</ele><time>2026-04-05T13:24:26Z</time></trkpt><trkpt lat="45.418435699600224" lon="5.834664168222472"><ele>695.0</ele><time>2026-04-05T13:24:27Z</time></trkpt><trkpt lat="45.418333086159315" lon="5.8345031226904815"><ele>695.0</ele><time>2026-04-05T13:24:28Z</time></trkpt><trkpt lat="45.4182682862232" lon="5.834323518349742"><ele>695.0</ele><time>2026-04-05T13:24:29Z</time></trkpt><trkpt lat="45.41818586251563" lon="5.834170935088792"><ele>695.0</ele><time>2026-04-05T13:24:30Z</time></trkpt><trkpt lat="45.41819130052419" lon="5.833999105632026"><ele>695.4</ele><time>2026-04-05T13:24:31Z</time></trkpt><trkpt lat="45.41821875604916" lon="5.833869047189873"><ele>695.8</ele><time>2026-04-05T13:24:32Z</time></trkpt><trkpt lat="45.41825999745444" lon="5.833755015453701"><ele>696.2</ele><time>2026-04-05T13:24:33Z</time></trkpt><trkpt lat="45.41838175434059" lon="5.83374194170288"><ele>696.6</ele><time>2026-04-05T13:24:34Z</time></trkpt><trkpt lat="45.418494557026705" lon="5.833752150836292"><ele>697.0</ele><time>2026-04-05T13:24:35Z</time></trkpt><trkpt lat="45.41861735737329" lon="5.833730705390287"><ele>697.0</ele><time>2026-04-05T13:24:36Z</time></trkpt><trkpt lat="45.41874593262106" lon="5.833766373122837"><ele>697.0</ele><time>2026-04-05T13:24:37Z</time></trkpt><trkpt lat="45.41890566032541" lon="5.833769514682177"><ele>697.0</ele><time>2026-04-05T13:24:38Z</time></trkpt><trkpt lat="45.41905302053499" lon="5.833790031624149"><ele>697.0</ele><time>2026-04-05T13:24:39Z</time></trkpt><trkpt lat="45.41917769355714" lon="5.833826083406035"><ele>691.75</ele><time>2026-04-05T13:24:40Z</time></trkpt><trkpt lat="45.41929768012733" lon="5.833887470454701"><ele>686.5</ele><time>2026-04-05T13:24:41Z</time></trkpt><trkpt lat="45.41939985575449" lon="5.834000073719345"><ele>681.25</ele><time>2026-04-05T13:24:42Z</time></trkpt><trkpt lat="45.419499289275834" lon="5.8340698133397035"><ele>676.0</ele><time>2026-04-05T13:24:43.001Z</time></trkpt><trkpt lat="45.41958644829327" lon="5.834075781003838"><ele>676.0</ele><time>2026-04-05T13:24:44.001Z</time></trkpt><trkpt lat="45.419624066711485" lon="5.833994609228252"><ele>676.0</ele><time>2026-04-05T13:24:45.001Z</time></trkpt><trkpt lat="45.41963908605015" lon="5.833877757328936"><ele>676.0</ele><time>2026-04-05T13:24:46.001Z</time></trkpt><trkpt lat="45.41962847609253" lon="5.83374198624064"><ele>676.0</ele><time>2026-04-05T13:24:47.001Z</time></trkpt><trkpt lat="45.419580971908786" lon="5.833598557652133"><ele>676.0</ele><time>2026-04-05T13:24:48.001Z</time></trkpt><trkpt lat="45.41951584164327" lon="5.833455095034318"><ele>679.1999999999999</ele><time>2026-04-05T13:24:49.001Z</time></trkpt><trkpt lat="45.419462944245794" lon="5.833307854198755"><ele>682.4</ele><time>2026-04-05T13:24:50.001Z</time></trkpt><trkpt lat="45.41939715921953" lon="5.83319333950227"><ele>685.6</ele><time>2026-04-05T13:24:51.001Z</time></trkpt><trkpt lat="45.41941879056951" lon="5.833055676569532"><ele>688.8</ele><time>2026-04-05T13:24:52.001Z</time></trkpt><trkpt lat="45.419450434230946" lon="5.832925055087312"><ele>692.0</ele><time>2026-04-05T13:24:53.001Z</time></trkpt><trkpt lat="45.419451295265624" lon="5.832792346878662"><ele>692.0</ele><time>2026-04-05T13:24:54.001Z</time></trkpt><trkpt lat="45.41943855231566" lon="5.8326693841194075"><ele>692.0</ele><time>2026-04-05T13:24:55.001Z</time></trkpt><trkpt lat="45.41938642945558" lon="5.832544532784287"><ele>692.0</ele><time>2026-04-05T13:24:56.001Z</time></trkpt><trkpt lat="45.41933456054387" lon="5.832431176695733"><ele>692.0</ele><time>2026-04-05T13:24:57.001Z</time></trkpt><trkpt lat="45.41929875154186" lon="5.832288597808928"><ele>692.0</ele><time>2026-04-05T13:24:58.001Z</time></trkpt><trkpt lat="45.41934291140449" lon="5.832123755048348"><ele>696.0</ele><time>2026-04-05T13:24:59.001Z</time></trkpt><trkpt lat="45.41937884418377" lon="5.831921612165048"><ele>700.0</ele><time>2026-04-05T13:25:00.001Z</time></trkpt><trkpt lat="45.41941661206784" lon="5.8316943379905375"><ele>704.0</ele><time>2026-04-05T13:25:01.001Z</time></trkpt><trkpt lat="45.41945322534331" lon="5.831443107015828"><ele>706.6666666666666</ele><time>2026-04-05T13:25:02.001Z</time></trkpt><trkpt lat="45.419481576462864" lon="5.831208178579701"><ele>709.3333333333334</ele><time>2026-04-05T13:25:03.001Z</time></trkpt><trkpt lat="45.41953428899336" lon="5.831000661432272"><ele>712.0</ele><time>2026-04-05T13:25:04.001Z</time></trkpt><trkpt lat="45.41954548586855" lon="5.830800813730746"><ele>713.8</ele><time>2026-04-05T13:25:05.001Z</time></trkpt><trkpt lat="45.419559143312206" lon="5.830609828590074"><ele>715.6</ele><time>2026-04-05T13:25:06.001Z</time></trkpt><trkpt lat="45.41957720738967" lon="5.830461688825759"><ele>717.4</ele><time>2026-04-05T13:25:07.001Z</time></trkpt><trkpt lat="45.41964190471708" lon="5.830364284051723"><ele>719.1999999999999</ele><time>2026-04-05T13:25:08.001Z</time></trkpt><trkpt lat="45.419737616519505" lon="5.83031344264198"><ele>721.0</ele><time>2026-04-05T13:25:09.001Z</time></trkpt><trkpt lat="45.419813328762274" lon="5.830259010313853"><ele>712.1999999999999</ele><time>2026-04-05T13:25:10.001Z</time></trkpt><trkpt lat="45.41987738898696" lon="5.830224752094716"><ele>703.4</ele><time>2026-04-05T13:25:11.001Z</time></trkpt><trkpt lat="45.419930794344836" lon="5.830093542586672"><ele>694.6</ele><time>2026-04-05T13:25:12.001Z</time></trkpt><trkpt lat="45.4199271714798" lon="5.829949763962881"><ele>685.8</ele><time>2026-04-05T13:25:13.001Z</time></trkpt><trkpt lat="45.41991402126163" lon="5.829805076027023"><ele>677.0</ele><time>2026-04-05T13:25:14.001Z</time></trkpt><trkpt lat="45.41990202584868" lon="5.829648043477653"><ele>677.0</ele><time>2026-04-05T13:25:15.001Z</time></trkpt><trkpt lat="45.419909295591076" lon="5.82949499201323"><ele>677.0</ele><time>2026-04-05T13:25:16.001Z</time></trkpt><trkpt lat="45.419954339206264" lon="5.829363252750656"><ele>677.0</ele><time>2026-04-05T13:25:17.001Z</time></trkpt><trkpt lat="45.42006319539977" lon="5.829253057923536"><ele>677.0</ele><time>2026-04-05T13:25:18.001Z</time></trkpt><trkpt lat="45.42019694877415" lon="5.829182674044888"><ele>678.5</ele><time>2026-04-05T13:25:19.001Z</time></trkpt><trkpt lat="45.42031057479128" lon="5.8291084206355155"><ele>680.0</ele><time>2026-04-05T13:25:20.001Z</time></trkpt><trkpt lat="45.42038898363212" lon="5.828958284815217"><ele>681.5</ele><time>2026-04-05T13:25:21.001Z</time></trkpt><trkpt lat="45.420423327332784" lon="5.82880609553954"><ele>683.0</ele><time>2026-04-05T13:25:22.001Z</time></trkpt><trkpt lat="45.42039532095829" lon="5.828637524448594"><ele>683.5</ele><time>2026-04-05T13:25:23.001Z</time></trkpt><trkpt lat="45.420388602847126" lon="5.8284616339623705"><ele>684.0</ele><time>2026-04-05T13:25:24.001Z</time></trkpt><trkpt lat="45.420369869604045" lon="5.82827693208977"><ele>684.5</ele><time>2026-04-05T13:25:25.001Z</time></trkpt><trkpt lat="45.420349337587545" lon="5.828074494486518"><ele>685.0</ele><time>2026-04-05T13:25:26.001Z</time></trkpt><trkpt lat="45.420327483524225" lon="5.827859022758994"><ele>685.0</ele><time>2026-04-05T13:25:27.001Z</time></trkpt><trkpt lat="45.420304413235804" lon="5.827650662555047"><ele>685.0</ele><time>2026-04-05T13:25:28.001Z</time></trkpt><trkpt lat="45.420277497531146" lon="5.827432133379753"><ele>685.0</ele><time>2026-04-05T13:25:29.001Z</time></trkpt><trkpt lat="45.420247392363606" lon="5.827247344833254"><ele>685.0</ele><time>2026-04-05T13:25:30.001Z</time></trkpt><trkpt lat="45.42022228728046" lon="5.8270774828577805"><ele>684.0</ele><time>2026-04-05T13:25:31.001Z</time></trkpt><trkpt lat="45.42019197092637" lon="5.826911956790652"><ele>683.0</ele><time>2026-04-05T13:25:32.001Z</time></trkpt><trkpt lat="45.42015264552332" lon="5.826742454354223"><ele>682.0</ele><time>2026-04-05T13:25:33Z</time></trkpt><trkpt lat="45.420172065557104" lon="5.826562760487875"><ele>681.0</ele><time>2026-04-05T13:25:34Z</time></trkpt><trkpt lat="45.42019400615405" lon="5.826365844648372"><ele>680.5</ele><time>2026-04-05T13:25:35Z</time></trkpt><trkpt lat="45.42020742815526" lon="5.826179641984398"><ele>680.0</ele><time>2026-04-05T13:25:36Z</time></trkpt><trkpt lat="45.42023034190182" lon="5.826008522887851"><ele>679.5</ele><time>2026-04-05T13:25:37Z</time></trkpt><trkpt lat="45.420279128616635" lon="5.825852208260393"><ele>679.0</ele><time>2026-04-05T13:25:38Z</time></trkpt><trkpt lat="45.42033689523007" lon="5.8257013721356135"><ele>679.0</ele><time>2026-04-05T13:25:39Z</time></trkpt><trkpt lat="45.42042995879579" lon="5.82560739769639"><ele>679.0</ele><time>2026-04-05T13:25:40Z</time></trkpt><trkpt lat="45.42053264664805" lon="5.825569885055667"><ele>679.0</ele><time>2026-04-05T13:25:41Z</time></trkpt><trkpt lat="45.42063151737019" lon="5.825574109516993"><ele>679.0</ele><time>2026-04-05T13:25:42Z</time></trkpt><trkpt lat="45.420731445776376" lon="5.8255289511693915"><ele>679.0</ele><time>2026-04-05T13:25:43Z</time></trkpt><trkpt lat="45.42081683275406" lon="5.825441554301465"><ele>674.8000000000001</ele><time>2026-04-05T13:25:44Z</time></trkpt><trkpt lat="45.420870354472314" lon="5.825335356686287"><ele>670.6</ele><time>2026-04-05T13:25:45Z</time></trkpt><trkpt lat="45.42089086147791" lon="5.82520955748605"><ele>666.4</ele><time>2026-04-05T13:25:46Z</time></trkpt><trkpt lat="45.42086814856364" lon="5.825086921770136"><ele>662.2</ele><time>2026-04-05T13:25:47Z</time></trkpt><trkpt lat="45.42081458226156" lon="5.824974735674882"><ele>658.0</ele><time>2026-04-05T13:25:48Z</time></trkpt><trkpt lat="45.4207318540836" lon="5.824905923750577"><ele>658.0</ele><time>2026-04-05T13:25:49Z</time></trkpt><trkpt lat="45.42066382859579" lon="5.8248208221872515"><ele>658.0</ele><time>2026-04-05T13:25:50Z</time></trkpt><trkpt lat="45.42059001584032" lon="5.824711671949839"><ele>658.0</ele><time>2026-04-05T13:25:51Z</time></trkpt><trkpt lat="45.420521703848635" lon="5.8246116343095595"><ele>658.0</ele><time>2026-04-05T13:25:52Z</time></trkpt><trkpt lat="45.42046410815244" lon="5.8244868448763665"><ele>658.0</ele><time>2026-04-05T13:25:53Z</time></trkpt><trkpt lat="45.42040185719551" lon="5.824367122558349"><ele>660.5</ele><time>2026-04-05T13:25:54Z</time></trkpt><trkpt lat="45.420328719746784" lon="5.824256189582726"><ele>663.0</ele><time>2026-04-05T13:25:55Z</time></trkpt><trkpt lat="45.42025397719601" lon="5.824138603476281"><ele>665.5</ele><time>2026-04-05T13:25:56Z</time></trkpt><trkpt lat="45.42018471801728" lon="5.824000723629711"><ele>668.0</ele><time>2026-04-05T13:25:57Z</time></trkpt><trkpt lat="45.42011305149211" lon="5.823835392432775"><ele>668.0</ele><time>2026-04-05T13:25:58Z</time></trkpt><trkpt lat="45.420013045898216" lon="5.823665570327825"><ele>668.0</ele><time>2026-04-05T13:25:59Z</time></trkpt><trkpt lat="45.419919801619734" lon="5.823497244175394"><ele>668.0</ele><time>2026-04-05T13:26:00Z</time></trkpt><trkpt lat="45.41985033959313" lon="5.823324926976097"><ele>668.0</ele><time>2026-04-05T13:26:01Z</time></trkpt><trkpt lat="45.41975413584089" lon="5.82314611930823"><ele>666.75</ele><time>2026-04-05T13:26:02Z</time></trkpt><trkpt lat="45.41970168568276" lon="5.823000402208873"><ele>665.5</ele><time>2026-04-05T13:26:03Z</time></trkpt><trkpt lat="45.419624706385065" lon="5.822838465285985"><ele>664.25</ele><time>2026-04-05T13:26:04Z</time></trkpt><trkpt lat="45.419519822744284" lon="5.822683422467222"><ele>663.0</ele><time>2026-04-05T13:26:05Z</time></trkpt><trkpt lat="45.41942075118322" lon="5.822615439481661"><ele>663.0</ele><time>2026-04-05T13:26:06Z</time></trkpt><trkpt lat="45.4193023990833" lon="5.822578696998575"><ele>663.0</ele><time>2026-04-05T13:26:07Z</time></trkpt><trkpt lat="45.419196303894246" lon="5.822548091713944"><ele>663.0</ele><time>2026-04-05T13:26:08Z</time></trkpt><trkpt lat="45.41908451667227" lon="5.8224969193473814"><ele>663.0</ele><time>2026-04-05T13:26:09Z</time></trkpt><trkpt lat="45.41895068354396" lon="5.822457653446394"><ele>663.0</ele><time>2026-04-05T13:26:10Z</time></trkpt><trkpt lat="45.41882272888316" lon="5.8223511764937035"><ele>663.0</ele><time>2026-04-05T13:26:11Z</time></trkpt><trkpt lat="45.41873017389767" lon="5.8222343326435375"><ele>663.0</ele><time>2026-04-05T13:26:12Z</time></trkpt><trkpt lat="45.41871735224565" lon="5.822064155427758"><ele>663.0</ele><time>2026-04-05T13:26:13Z</time></trkpt><trkpt lat="45.41873999815259" lon="5.8218985795867155"><ele>665.8</ele><time>2026-04-05T13:26:14Z</time></trkpt><trkpt lat="45.41876577770657" lon="5.821770796184381"><ele>668.5999999999999</ele><time>2026-04-05T13:26:15Z</time></trkpt><trkpt lat="45.41879378201119" lon="5.821609831269213"><ele>671.4000000000001</ele><time>2026-04-05T13:26:16Z</time></trkpt><trkpt lat="45.418794580753726" lon="5.821468810027758"><ele>674.2</ele><time>2026-04-05T13:26:17Z</time></trkpt><trkpt lat="45.41875760868916" lon="5.821363113293485"><ele>677.0</ele><time>2026-04-05T13:26:18Z</time></trkpt><trkpt lat="45.41867486977502" lon="5.821280939030517"><ele>677.0</ele><time>2026-04-05T13:26:19Z</time></trkpt><trkpt lat="45.41855168156643" lon="5.821178861551104"><ele>677.0</ele><time>2026-04-05T13:26:20Z</time></trkpt><trkpt lat="45.41848393590556" lon="5.821014487996032"><ele>677.0</ele><time>2026-04-05T13:26:21Z</time></trkpt><trkpt lat="45.41839644678205" lon="5.820863829262701"><ele>677.0</ele><time>2026-04-05T13:26:22Z</time></trkpt><trkpt lat="45.41832420852742" lon="5.820700136445621"><ele>672.0</ele><time>2026-04-05T13:26:23Z</time></trkpt><trkpt lat="45.41827363549638" lon="5.820525367884673"><ele>667.0</ele><time>2026-04-05T13:26:24Z</time></trkpt><trkpt lat="45.41824085655283" lon="5.8203649999702955"><ele>662.0</ele><time>2026-04-05T13:26:25Z</time></trkpt><trkpt lat="45.4181715346491" lon="5.820235413208077"><ele>657.0</ele><time>2026-04-05T13:26:26Z</time></trkpt><trkpt lat="45.41807247989038" lon="5.820128383633619"><ele>659.5</ele><time>2026-04-05T13:26:27Z</time></trkpt><trkpt lat="45.4179584849067" lon="5.820039008846484"><ele>662.0</ele><time>2026-04-05T13:26:28Z</time></trkpt><trkpt lat="45.41783281606069" lon="5.819910743905636"><ele>664.5</ele><time>2026-04-05T13:26:29Z</time></trkpt><trkpt lat="45.41776635199269" lon="5.819732276544531"><ele>667.0</ele><time>2026-04-05T13:26:30Z</time></trkpt><trkpt lat="45.41769553658128" lon="5.819566252514625"><ele>667.0</ele><time>2026-04-05T13:26:31Z</time></trkpt><trkpt lat="45.41763771880029" lon="5.819414929373249"><ele>667.0</ele><time>2026-04-05T13:26:32Z</time></trkpt><trkpt lat="45.417597562258194" lon="5.81926814021023"><ele>667.0</ele><time>2026-04-05T13:26:33Z</time></trkpt><trkpt lat="45.417600357551656" lon="5.819127842705269"><ele>667.0</ele><time>2026-04-05T13:26:34.001Z</time></trkpt><trkpt lat="45.417676995104344" lon="5.818976117068062"><ele>662.5</ele><time>2026-04-05T13:26:35.001Z</time></trkpt><trkpt lat="45.417760762596345" lon="5.818868182272112"><ele>658.0</ele><time>2026-04-05T13:26:36.001Z</time></trkpt><trkpt lat="45.41785309013254" lon="5.818741234973183"><ele>653.5</ele><time>2026-04-05T13:26:37.001Z</time></trkpt><trkpt lat="45.417923952745035" lon="5.81856880799795"><ele>649.0</ele><time>2026-04-05T13:26:38.001Z</time></trkpt><trkpt lat="45.41800171685199" lon="5.818405805866949"><ele>644.0</ele><time>2026-04-05T13:26:39.001Z</time></trkpt><trkpt lat="45.41807780109198" lon="5.8182469785056"><ele>639.0</ele><time>2026-04-05T13:26:40.001Z</time></trkpt><trkpt lat="45.4181708422427" lon="5.818099445644945"><ele>634.0</ele><time>2026-04-05T13:26:41.001Z</time></trkpt><trkpt lat="45.41826357763513" lon="5.8179668398926125"><ele>629.0</ele><time>2026-04-05T13:26:42.001Z</time></trkpt><trkpt lat="45.41832349983317" lon="5.8178192884334585"><ele>632.0</ele><time>2026-04-05T13:26:43.001Z</time></trkpt><trkpt lat="45.41835676911862" lon="5.817627510411007"><ele>635.0</ele><time>2026-04-05T13:26:44.001Z</time></trkpt><trkpt lat="45.41835576682295" lon="5.817409836048961"><ele>638.0</ele><time>2026-04-05T13:26:45.001Z</time></trkpt><trkpt lat="45.418362241681734" lon="5.817213884418055"><ele>641.0</ele><time>2026-04-05T13:26:46.001Z</time></trkpt><trkpt lat="45.41837895141288" lon="5.817022085639703"><ele>641.0</ele><time>2026-04-05T13:26:47.001Z</time></trkpt><trkpt lat="45.41843068580449" lon="5.816845752552876"><ele>641.0</ele><time>2026-04-05T13:26:48.001Z</time></trkpt><trkpt lat="45.41851277626435" lon="5.816688800262227"><ele>641.0</ele><time>2026-04-05T13:26:49.001Z</time></trkpt><trkpt lat="45.41860415650109" lon="5.81655197158051"><ele>641.0</ele><time>2026-04-05T13:26:50.001Z</time></trkpt><trkpt lat="45.41867832119204" lon="5.8163960035251145"><ele>639.75</ele><time>2026-04-05T13:26:51.001Z</time></trkpt><trkpt lat="45.41875039678376" lon="5.816279147715274"><ele>638.5</ele><time>2026-04-05T13:26:52.001Z</time></trkpt><trkpt lat="45.41886396534074" lon="5.816224535742797"><ele>637.25</ele><time>2026-04-05T13:26:53.001Z</time></trkpt><trkpt lat="45.41900595847827" lon="5.816214951749079"><ele>636.0</ele><time>2026-04-05T13:26:54.001Z</time></trkpt><trkpt lat="45.41915450232761" lon="5.816187031957929"><ele>636.0</ele><time>2026-04-05T13:26:55.001Z</time></trkpt><trkpt lat="45.419319460072245" lon="5.816140511052571"><ele>636.0</ele><time>2026-04-05T13:26:56.001Z</time></trkpt><trkpt lat="45.4195006022603" lon="5.816146171389713"><ele>636.0</ele><time>2026-04-05T13:26:57.001Z</time></trkpt><trkpt lat="45.419666342670034" lon="5.8161592387170264"><ele>632.3333333333334</ele><time>2026-04-05T13:26:58.001Z</time></trkpt><trkpt lat="45.41980135477113" lon="5.816173840242561"><ele>628.6666666666667</ele><time>2026-04-05T13:26:59.001Z</time></trkpt><trkpt lat="45.41995710052629" lon="5.816190998950916"><ele>625.0</ele><time>2026-04-05T13:27:00.001Z</time></trkpt><trkpt lat="45.42011750288801" lon="5.816181946267697"><ele>625.0</ele><time>2026-04-05T13:27:01.001Z</time></trkpt><trkpt lat="45.42028746024484" lon="5.81614588518514"><ele>625.0</ele><time>2026-04-05T13:27:02.001Z</time></trkpt><trkpt lat="45.42045667365338" lon="5.816090054469135"><ele>625.0</ele><time>2026-04-05T13:27:03.001Z</time></trkpt><trkpt lat="45.42063780952655" lon="5.816025868024046"><ele>633.6666666666667</ele><time>2026-04-05T13:27:04.001Z</time></trkpt><trkpt lat="45.42081941084157" lon="5.815962059928702"><ele>642.3333333333334</ele><time>2026-04-05T13:27:05.001Z</time></trkpt><trkpt lat="45.42097196518885" lon="5.815935938830857"><ele>651.0</ele><time>2026-04-05T13:27:06.001Z</time></trkpt><trkpt lat="45.42112551890913" lon="5.815910474298928"><ele>651.0</ele><time>2026-04-05T13:27:07.001Z</time></trkpt><trkpt lat="45.42126514112997" lon="5.81590287647513"><ele>651.0</ele><time>2026-04-05T13:27:08.001Z</time></trkpt><trkpt lat="45.4213901594118" lon="5.8158565493795145"><ele>651.0</ele><time>2026-04-05T13:27:09.001Z</time></trkpt><trkpt lat="45.42151483950757" lon="5.815842906075012"><ele>651.0</ele><time>2026-04-05T13:27:10.001Z</time></trkpt><trkpt lat="45.42160467227294" lon="5.815788628797291"><ele>644.0</ele><time>2026-04-05T13:27:11.001Z</time></trkpt><trkpt lat="45.42166216925468" lon="5.815669594728706"><ele>637.0</ele><time>2026-04-05T13:27:12.001Z</time></trkpt><trkpt lat="45.421644714277534" lon="5.815505337484761"><ele>630.0</ele><time>2026-04-05T13:27:13.001Z</time></trkpt><trkpt lat="45.42160120153215" lon="5.8153459105711"><ele>623.0</ele><time>2026-04-05T13:27:14.001Z</time></trkpt><trkpt lat="45.42159855716449" lon="5.81516706130057"><ele>630.75</ele><time>2026-04-05T13:27:15.001Z</time></trkpt><trkpt lat="45.421671276089185" lon="5.8150116325946"><ele>638.5</ele><time>2026-04-05T13:27:16.001Z</time></trkpt><trkpt lat="45.42175327939247" lon="5.814862841585354"><ele>646.25</ele><time>2026-04-05T13:27:17.001Z</time></trkpt><trkpt lat="45.421843028812276" lon="5.814714079220021"><ele>654.0</ele><time>2026-04-05T13:27:18.001Z</time></trkpt><trkpt lat="45.42195262910949" lon="5.814559759236712"><ele>654.0</ele><time>2026-04-05T13:27:19.001Z</time></trkpt><trkpt lat="45.422078838317375" lon="5.814446441352903"><ele>654.0</ele><time>2026-04-05T13:27:20.001Z</time></trkpt><trkpt lat="45.42221726961143" lon="5.814346140361238"><ele>654.0</ele><time>2026-04-05T13:27:21.001Z</time></trkpt><trkpt lat="45.422348049683926" lon="5.814236729957955"><ele>646.6666666666666</ele><time>2026-04-05T13:27:22.001Z</time></trkpt><trkpt lat="45.42246870697734" lon="5.814078595247355"><ele>639.3333333333333</ele><time>2026-04-05T13:27:23.001Z</time></trkpt><trkpt lat="45.42256327182294" lon="5.8138837296037975"><ele>632.0</ele><time>2026-04-05T13:27:24.001Z</time></trkpt><trkpt lat="45.42267103576862" lon="5.8137035578411345"><ele>632.0</ele><time>2026-04-05T13:27:25.001Z</time></trkpt><trkpt lat="45.422799050625464" lon="5.8135783261977725"><ele>632.0</ele><time>2026-04-05T13:27:26.001Z</time></trkpt><trkpt lat="45.422951999308815" lon="5.813476103323679"><ele>632.0</ele><time>2026-04-05T13:27:27.001Z</time></trkpt><trkpt lat="45.423118806569825" lon="5.813298282668866"><ele>630.3333333333333</ele><time>2026-04-05T13:27:28.001Z</time></trkpt><trkpt lat="45.42321705495173" lon="5.813051289970013"><ele>628.6666666666666</ele><time>2026-04-05T13:27:29.001Z</time></trkpt><trkpt lat="45.42328646442089" lon="5.812909378281276"><ele>627.0</ele><time>2026-04-05T13:27:30.001Z</time></trkpt><trkpt lat="45.423407581498914" lon="5.812788071996816"><ele>627.0</ele><time>2026-04-05T13:27:31.001Z</time></trkpt><trkpt lat="45.42358331566067" lon="5.812743736730901"><ele>627.0</ele><time>2026-04-05T13:27:32.001Z</time></trkpt><trkpt lat="45.423728040692616" lon="5.812669636082888"><ele>627.0</ele><time>2026-04-05T13:27:33.001Z</time></trkpt><trkpt lat="45.42387586917572" lon="5.812590532304074"><ele>626.75</ele><time>2026-04-05T13:27:34.001Z</time></trkpt><trkpt lat="45.424013791889166" lon="5.812531443778754"><ele>626.5</ele><time>2026-04-05T13:27:35.001Z</time></trkpt><trkpt lat="45.424135590259134" lon="5.812523210957728"><ele>626.25</ele><time>2026-04-05T13:27:36.001Z</time></trkpt><trkpt lat="45.424258730085896" lon="5.812469409948122"><ele>626.0</ele><time>2026-04-05T13:27:37.001Z</time></trkpt><trkpt lat="45.4243267249365" lon="5.812366170831694"><ele>626.0</ele><time>2026-04-05T13:27:38.001Z</time></trkpt><trkpt lat="45.42432493651312" lon="5.81221147202672"><ele>626.0</ele><time>2026-04-05T13:27:39Z</time></trkpt><trkpt lat="45.42427450431188" lon="5.812065163903583"><ele>626.0</ele><time>2026-04-05T13:27:40Z</time></trkpt><trkpt lat="45.424175120418305" lon="5.811916797017674"><ele>626.0</ele><time>2026-04-05T13:27:41Z</time></trkpt><trkpt lat="45.42411188676663" lon="5.811750051076979"><ele>630.75</ele><time>2026-04-05T13:27:42Z</time></trkpt><trkpt lat="45.42409125385384" lon="5.811546572235014"><ele>635.5</ele><time>2026-04-05T13:27:43Z</time></trkpt><trkpt lat="45.42407912021621" lon="5.811344930343287"><ele>640.25</ele><time>2026-04-05T13:27:44Z</time></trkpt><trkpt lat="45.42409733200665" lon="5.811140970549436"><ele>645.0</ele><time>2026-04-05T13:27:45Z</time></trkpt><trkpt lat="45.4241360759151" lon="5.81095178003617"><ele>648.2</ele><time>2026-04-05T13:27:46Z</time></trkpt><trkpt lat="45.424175097315725" lon="5.810791431253945"><ele>651.4</ele><time>2026-04-05T13:27:47Z</time></trkpt><trkpt lat="45.42424011186945" lon="5.810658868284639"><ele>654.5999999999999</ele><time>2026-04-05T13:27:48Z</time></trkpt><trkpt lat="45.424319073786286" lon="5.81057160197373"><ele>657.8</ele><time>2026-04-05T13:27:49Z</time></trkpt><trkpt lat="45.42442682537538" lon="5.810516829310556"><ele>661.0</ele><time>2026-04-05T13:27:50Z</time></trkpt><trkpt lat="45.42453125569813" lon="5.81050861039404"><ele>661.0</ele><time>2026-04-05T13:27:51Z</time></trkpt><trkpt lat="45.42463315087567" lon="5.810513425234325"><ele>661.0</ele><time>2026-04-05T13:27:52Z</time></trkpt><trkpt lat="45.424725064343754" lon="5.8105008630263715"><ele>661.0</ele><time>2026-04-05T13:27:53Z</time></trkpt><trkpt lat="45.42481268805168" lon="5.810485843500234"><ele>661.0</ele><time>2026-04-05T13:27:54Z</time></trkpt><trkpt lat="45.42489908111491" lon="5.810457283943175"><ele>661.0</ele><time>2026-04-05T13:27:55Z</time></trkpt><trkpt lat="45.424985368559184" lon="5.810415425648459"><ele>659.8333333333334</ele><time>2026-04-05T13:27:56Z</time></trkpt><trkpt lat="45.42505182397156" lon="5.810328748936113"><ele>658.6666666666667</ele><time>2026-04-05T13:27:57Z</time></trkpt><trkpt lat="45.425097206792955" lon="5.810221247774583"><ele>657.5</ele><time>2026-04-05T13:27:58Z</time></trkpt><trkpt lat="45.425128799172036" lon="5.81011395909497"><ele>656.3333333333334</ele><time>2026-04-05T13:27:59Z</time></trkpt><trkpt lat="45.42514229599563" lon="5.810004533238313"><ele>655.1666666666666</ele><time>2026-04-05T13:28:00Z</time></trkpt><trkpt lat="45.42514054822923" lon="5.809888839122663"><ele>654.0</ele><time>2026-04-05T13:28:01Z</time></trkpt><trkpt lat="45.42512114973218" lon="5.809770969628272"><ele>654.0</ele><time>2026-04-05T13:28:02Z</time></trkpt><trkpt lat="45.42510302989492" lon="5.809657119781464"><ele>654.0</ele><time>2026-04-05T13:28:03Z</time></trkpt><trkpt lat="45.42509071975414" lon="5.809537847480418"><ele>654.0</ele><time>2026-04-05T13:28:04Z</time></trkpt><trkpt lat="45.425077674648506" lon="5.809414733754874"><ele>654.0</ele><time>2026-04-05T13:28:05Z</time></trkpt><trkpt lat="45.42507503337663" lon="5.809271787393907"><ele>654.0</ele><time>2026-04-05T13:28:06Z</time></trkpt><trkpt lat="45.42510367783663" lon="5.80913436802573"><ele>660.4000000000001</ele><time>2026-04-05T13:28:07Z</time></trkpt><trkpt lat="45.42513354505697" lon="5.809007349796512"><ele>666.8</ele><time>2026-04-05T13:28:08Z</time></trkpt><trkpt lat="45.42518198830382" lon="5.808891396308917"><ele>673.2</ele><time>2026-04-05T13:28:09Z</time></trkpt><trkpt lat="45.425237773340854" lon="5.808763594744867"><ele>679.5999999999999</ele><time>2026-04-05T13:28:10Z</time></trkpt><trkpt lat="45.42529017600338" lon="5.808633838257294"><ele>686.0</ele><time>2026-04-05T13:28:11Z</time></trkpt><trkpt lat="45.425315728251405" lon="5.80850592272025"><ele>689.3333333333333</ele><time>2026-04-05T13:28:12Z</time></trkpt><trkpt lat="45.425349537587486" lon="5.808388311235621"><ele>692.6666666666666</ele><time>2026-04-05T13:28:13Z</time></trkpt><trkpt lat="45.425335912537086" lon="5.808273002374532"><ele>696.0</ele><time>2026-04-05T13:28:14Z</time></trkpt><trkpt lat="45.425316397833214" lon="5.808153303454781"><ele>699.3333333333334</ele><time>2026-04-05T13:28:15Z</time></trkpt><trkpt lat="45.425306464802325" lon="5.808029498369044"><ele>702.6666666666667</ele><time>2026-04-05T13:28:16Z</time></trkpt><trkpt lat="45.42528205624536" lon="5.807911660594394"><ele>706.0</ele><time>2026-04-05T13:28:17Z</time></trkpt><trkpt lat="45.42525653656154" lon="5.807791245369158"><ele>706.0</ele><time>2026-04-05T13:28:18.019Z</time></trkpt><trkpt lat="45.425230658144635" lon="5.807669137622454"><ele>706.0</ele><time>2026-04-05T13:28:19.016Z</time></trkpt><trkpt lat="45.42520806837182" lon="5.807540236928037"><ele>706.0</ele><time>2026-04-05T13:28:20.015Z</time></trkpt><trkpt lat="45.42520173975141" lon="5.80739106687534"><ele>706.0</ele><time>2026-04-05T13:28:21.02Z</time></trkpt><trkpt lat="45.42520246164414" lon="5.807275356649654"><ele>706.0</ele><time>2026-04-05T13:28:22.02Z</time></trkpt><trkpt lat="45.42524815394017" lon="5.807036831980391"><ele>712.4</ele><time>2026-04-05T13:28:23.001Z</time></trkpt><trkpt lat="45.42523928272705" lon="5.806871016443769"><ele>718.8</ele><time>2026-04-05T13:28:24.001Z</time></trkpt><trkpt lat="45.425244103281145" lon="5.806687169860033"><ele>725.1999999999999</ele><time>2026-04-05T13:28:25.001Z</time></trkpt><trkpt lat="45.425233700563176" lon="5.80655557184294"><ele>731.5999999999999</ele><time>2026-04-05T13:28:26.001Z</time></trkpt><trkpt lat="45.4252415539482" lon="5.806419844199911"><ele>738.0</ele><time>2026-04-05T13:28:27.001Z</time></trkpt><trkpt lat="45.42522028062659" lon="5.806206677013831"><ele>742.75</ele><time>2026-04-05T13:28:28.001Z</time></trkpt><trkpt lat="45.4251276536523" lon="5.8060161985366125"><ele>747.5</ele><time>2026-04-05T13:28:29.001Z</time></trkpt><trkpt lat="45.42511861019027" lon="5.805830037223606"><ele>752.25</ele><time>2026-04-05T13:28:30.001Z</time></trkpt><trkpt lat="45.425127226852524" lon="5.805632244605535"><ele>757.0</ele><time>2026-04-05T13:28:31.001Z</time></trkpt><trkpt lat="45.42512855390887" lon="5.8054549982262005"><ele>757.0</ele><time>2026-04-05T13:28:32.001Z</time></trkpt><trkpt lat="45.42507402191036" lon="5.8056084809440724"><ele>757.0</ele><time>2026-04-05T13:28:33.001Z</time></trkpt><trkpt lat="45.42506945239559" lon="5.805455557069119"><ele>757.0</ele><time>2026-04-05T13:28:34.001Z</time></trkpt><trkpt lat="45.425077186465835" lon="5.805317635511835"><ele>757.0</ele><time>2026-04-05T13:28:35.001Z</time></trkpt><trkpt lat="45.42506294549652" lon="5.8051859820628104"><ele>757.0</ele><time>2026-04-05T13:28:36.001Z</time></trkpt><trkpt lat="45.42505231159233" lon="5.805063419314289"><ele>753.0</ele><time>2026-04-05T13:28:37.001Z</time></trkpt><trkpt lat="45.4250578079714" lon="5.804952499815446"><ele>749.0</ele><time>2026-04-05T13:28:38.001Z</time></trkpt><trkpt lat="45.4250802776498" lon="5.804861054974002"><ele>745.0</ele><time>2026-04-05T13:28:39.001Z</time></trkpt><trkpt lat="45.42513708119568" lon="5.8047931369531796"><ele>741.0</ele><time>2026-04-05T13:28:40.001Z</time></trkpt><trkpt lat="45.425215091077604" lon="5.804758627543031"><ele>737.0</ele><time>2026-04-05T13:28:41.001Z</time></trkpt><trkpt lat="45.42531083532401" lon="5.804706085434201"><ele>733.0</ele><time>2026-04-05T13:28:42.001Z</time></trkpt><trkpt lat="45.425409765252994" lon="5.804654115443519"><ele>708.75</ele><time>2026-04-05T13:28:43.001Z</time></trkpt><trkpt lat="45.42551151572323" lon="5.804582068565812"><ele>684.5</ele><time>2026-04-05T13:28:44.001Z</time></trkpt><trkpt lat="45.425599293071386" lon="5.804468651324535"><ele>660.25</ele><time>2026-04-05T13:28:45.001Z</time></trkpt><trkpt lat="45.42564319543978" lon="5.804299928676676"><ele>636.0</ele><time>2026-04-05T13:28:46.001Z</time></trkpt><trkpt lat="45.425726284369794" lon="5.804108705258359"><ele>636.0</ele><time>2026-04-05T13:28:47.001Z</time></trkpt><trkpt lat="45.42583326407445" lon="5.803793038402306"><ele>636.0</ele><time>2026-04-05T13:28:48.001Z</time></trkpt><trkpt lat="45.42596137642906" lon="5.803409879578233"><ele>645.0</ele><time>2026-04-05T13:28:49.001Z</time></trkpt><trkpt lat="45.42604516175241" lon="5.803058756091145"><ele>654.0</ele><time>2026-04-05T13:28:50.001Z</time></trkpt><trkpt lat="45.42615390897594" lon="5.802770702891616"><ele>659.3333333333334</ele><time>2026-04-05T13:28:51.001Z</time></trkpt><trkpt lat="45.42628987790766" lon="5.802513444508348"><ele>664.6666666666667</ele><time>2026-04-05T13:28:52.001Z</time></trkpt><trkpt lat="45.42643292971323" lon="5.802306487496997"><ele>670.0</ele><time>2026-04-05T13:28:53.001Z</time></trkpt><trkpt lat="45.42655314529281" lon="5.802172391687026"><ele>655.6666666666667</ele><time>2026-04-05T13:28:54.001Z</time></trkpt><trkpt lat="45.4266772803285" lon="5.802079047173056"><ele>641.3333333333334</ele><time>2026-04-05T13:28:55.001Z</time></trkpt><trkpt lat="45.426821438076146" lon="5.802103799726245"><ele>627.0</ele><time>2026-04-05T13:28:56.001Z</time></trkpt><trkpt lat="45.427043945624284" lon="5.802069639722693"><ele>621.3333333333334</ele><time>2026-04-05T13:28:57.001Z</time></trkpt><trkpt lat="45.42729287945243" lon="5.802023690033125"><ele>615.6666666666667</ele><time>2026-04-05T13:28:58.001Z</time></trkpt><trkpt lat="45.42747142359127" lon="5.8019806575238375"><ele>610.0</ele><time>2026-04-05T13:28:59.001Z</time></trkpt><trkpt lat="45.427681232611455" lon="5.801855181104727"><ele>609.6666666666667</ele><time>2026-04-05T13:29:00.001Z</time></trkpt><trkpt lat="45.4278088632583" lon="5.80172834188727"><ele>609.3333333333334</ele><time>2026-04-05T13:29:01.001Z</time></trkpt><trkpt lat="45.427919687997075" lon="5.801537010329198"><ele>609.0</ele><time>2026-04-05T13:29:02.001Z</time></trkpt><trkpt lat="45.428060116625936" lon="5.801397259558374"><ele>609.0</ele><time>2026-04-05T13:29:03.001Z</time></trkpt><trkpt lat="45.42823343261031" lon="5.801282292976252"><ele>609.0</ele><time>2026-04-05T13:29:04.001Z</time></trkpt><trkpt lat="45.42844799007051" lon="5.801159822569692"><ele>609.0</ele><time>2026-04-05T13:29:05.001Z</time></trkpt><trkpt lat="45.42865036292893" lon="5.80104942471473"><ele>610.3333333333334</ele><time>2026-04-05T13:29:06.001Z</time></trkpt><trkpt lat="45.42881350652196" lon="5.800914130438924"><ele>611.6666666666667</ele><time>2026-04-05T13:29:07.001Z</time></trkpt><trkpt lat="45.42896629074143" lon="5.800776258842276"><ele>613.0</ele><time>2026-04-05T13:29:08.001Z</time></trkpt><trkpt lat="45.4291557080638" lon="5.800754052130965"><ele>613.0</ele><time>2026-04-05T13:29:09.001Z</time></trkpt><trkpt lat="45.42938536871724" lon="5.800791398592727"><ele>613.0</ele><time>2026-04-05T13:29:10.001Z</time></trkpt><trkpt lat="45.42959869512671" lon="5.800818770872662"><ele>613.0</ele><time>2026-04-05T13:29:11.001Z</time></trkpt><trkpt lat="45.429789223234074" lon="5.800799028228329"><ele>608.3333333333334</ele><time>2026-04-05T13:29:12.001Z</time></trkpt><trkpt lat="45.42997540859425" lon="5.800761496031535"><ele>603.6666666666666</ele><time>2026-04-05T13:29:13.001Z</time></trkpt><trkpt lat="45.43015164784619" lon="5.80072321271608"><ele>599.0</ele><time>2026-04-05T13:29:14.001Z</time></trkpt><trkpt lat="45.430329087261796" lon="5.800714287839818"><ele>593.75</ele><time>2026-04-05T13:29:15.001Z</time></trkpt><trkpt lat="45.430499755549064" lon="5.8007100797525935"><ele>588.5</ele><time>2026-04-05T13:29:16.001Z</time></trkpt><trkpt lat="45.43064227144767" lon="5.800684500152051"><ele>583.25</ele><time>2026-04-05T13:29:17.001Z</time></trkpt><trkpt lat="45.43076191122938" lon="5.800595704685083"><ele>578.0</ele><time>2026-04-05T13:29:18.001Z</time></trkpt><trkpt lat="45.4308559491414" lon="5.800426591417436"><ele>578.0</ele><time>2026-04-05T13:29:19.001Z</time></trkpt><trkpt lat="45.43092797039603" lon="5.800230534711937"><ele>578.0</ele><time>2026-04-05T13:29:20.001Z</time></trkpt><trkpt lat="45.430974207844145" lon="5.800030260710178"><ele>578.0</ele><time>2026-04-05T13:29:21.001Z</time></trkpt><trkpt lat="45.431047932033835" lon="5.799854083113475"><ele>578.0</ele><time>2026-04-05T13:29:22.001Z</time></trkpt><trkpt lat="45.431114273789824" lon="5.799670710755547"><ele>576.25</ele><time>2026-04-05T13:29:23.001Z</time></trkpt><trkpt lat="45.43118091407318" lon="5.799491241892092"><ele>574.5</ele><time>2026-04-05T13:29:24.001Z</time></trkpt><trkpt lat="45.431247392463135" lon="5.799318768775004"><ele>572.75</ele><time>2026-04-05T13:29:25.001Z</time></trkpt><trkpt lat="45.43132618338878" lon="5.79912161708023"><ele>571.0</ele><time>2026-04-05T13:29:26.001Z</time></trkpt><trkpt lat="45.431398840341075" lon="5.7989345096984595"><ele>571.0</ele><time>2026-04-05T13:29:27.001Z</time></trkpt><trkpt lat="45.4314548045045" lon="5.798778323361877"><ele>571.0</ele><time>2026-04-05T13:29:28.001Z</time></trkpt><trkpt lat="45.431531101993805" lon="5.798604279037441"><ele>571.0</ele><time>2026-04-05T13:29:29.001Z</time></trkpt><trkpt lat="45.43161851711365" lon="5.798478845446271"><ele>571.0</ele><time>2026-04-05T13:29:30.001Z</time></trkpt><trkpt lat="45.43168087500388" lon="5.798415889014339"><ele>572.75</ele><time>2026-04-05T13:29:31.001Z</time></trkpt><trkpt lat="45.43175151393995" lon="5.79835650870494"><ele>574.5</ele><time>2026-04-05T13:29:32.001Z</time></trkpt><trkpt lat="45.431869541861744" lon="5.798274811385395"><ele>576.25</ele><time>2026-04-05T13:29:33.001Z</time></trkpt><trkpt lat="45.43206505812622" lon="5.798183112203837"><ele>578.0</ele><time>2026-04-05T13:29:34.001Z</time></trkpt><trkpt lat="45.432216672370394" lon="5.798185170746878"><ele>574.25</ele><time>2026-04-05T13:29:35.001Z</time></trkpt><trkpt lat="45.432336729659674" lon="5.7982111561422895"><ele>570.5</ele><time>2026-04-05T13:29:36.001Z</time></trkpt><trkpt lat="45.43246716303378" lon="5.798220947342189"><ele>566.75</ele><time>2026-04-05T13:29:37.001Z</time></trkpt><trkpt lat="45.43259372477225" lon="5.7982452404733715"><ele>563.0</ele><time>2026-04-05T13:29:38.001Z</time></trkpt><trkpt lat="45.43271968132955" lon="5.798279455713545"><ele>563.0</ele><time>2026-04-05T13:29:39.001Z</time></trkpt><trkpt lat="45.432857605480464" lon="5.798301254899523"><ele>563.0</ele><time>2026-04-05T13:29:40.001Z</time></trkpt><trkpt lat="45.43296252542519" lon="5.798336611006148"><ele>563.0</ele><time>2026-04-05T13:29:41.001Z</time></trkpt><trkpt lat="45.433081462174265" lon="5.798330132384256"><ele>563.0</ele><time>2026-04-05T13:29:42.001Z</time></trkpt><trkpt lat="45.43318428670263" lon="5.7983211313162215"><ele>554.5</ele><time>2026-04-05T13:29:43.001Z</time></trkpt><trkpt lat="45.433272134082635" lon="5.798228156630827"><ele>546.0</ele><time>2026-04-05T13:29:44.001Z</time></trkpt><trkpt lat="45.433280038222954" lon="5.7980453901635345"><ele>537.5</ele><time>2026-04-05T13:29:45.001Z</time></trkpt><trkpt lat="45.43322483345614" lon="5.797887560270883"><ele>529.0</ele><time>2026-04-05T13:29:46.001Z</time></trkpt><trkpt lat="45.43316559214188" lon="5.7977508303043965"><ele>532.75</ele><time>2026-04-05T13:29:47.001Z</time></trkpt><trkpt lat="45.43310894256282" lon="5.797613749267433"><ele>536.5</ele><time>2026-04-05T13:29:48.001Z</time></trkpt><trkpt lat="45.43302055083937" lon="5.79749746187394"><ele>540.25</ele><time>2026-04-05T13:29:49.001Z</time></trkpt><trkpt lat="45.432897157671455" lon="5.7974208077787335"><ele>544.0</ele><time>2026-04-05T13:29:50.001Z</time></trkpt><trkpt lat="45.4327801157835" lon="5.7972943367185295"><ele>550.5</ele><time>2026-04-05T13:29:51Z</time></trkpt><trkpt lat="45.432665418173336" lon="5.797199930220467"><ele>557.0</ele><time>2026-04-05T13:29:52Z</time></trkpt><trkpt lat="45.43254011298025" lon="5.7971033669066125"><ele>563.5</ele><time>2026-04-05T13:29:53Z</time></trkpt><trkpt lat="45.4324168083435" lon="5.797016123457702"><ele>570.0</ele><time>2026-04-05T13:29:54Z</time></trkpt><trkpt lat="45.43228925057299" lon="5.79692396549778"><ele>572.0</ele><time>2026-04-05T13:29:55Z</time></trkpt><trkpt lat="45.43215549249063" lon="5.7968294197125605"><ele>574.0</ele><time>2026-04-05T13:29:56Z</time></trkpt><trkpt lat="45.432016809429705" lon="5.796727448525222"><ele>576.0</ele><time>2026-04-05T13:29:57Z</time></trkpt><trkpt lat="45.43187609630779" lon="5.796604894689352"><ele>576.0</ele><time>2026-04-05T13:29:58Z</time></trkpt><trkpt lat="45.431721096501335" lon="5.796490594945311"><ele>576.0</ele><time>2026-04-05T13:29:59Z</time></trkpt><trkpt lat="45.43156982485002" lon="5.796381498306178"><ele>576.0</ele><time>2026-04-05T13:30:00Z</time></trkpt><trkpt lat="45.43142967096776" lon="5.7962748006629345"><ele>576.0</ele><time>2026-04-05T13:30:01Z</time></trkpt><trkpt lat="45.431308258463524" lon="5.796168586363109"><ele>576.0</ele><time>2026-04-05T13:30:02Z</time></trkpt><trkpt lat="45.43120832643539" lon="5.796051862102999"><ele>576.0</ele><time>2026-04-05T13:30:03Z</time></trkpt><trkpt lat="45.43113067987666" lon="5.795914949440911"><ele>576.0</ele><time>2026-04-05T13:30:04Z</time></trkpt><trkpt lat="45.4310633248791" lon="5.795759396916407"><ele>577.3333333333334</ele><time>2026-04-05T13:30:05Z</time></trkpt><trkpt lat="45.43101930684373" lon="5.795559492127554"><ele>578.6666666666667</ele><time>2026-04-05T13:30:06Z</time></trkpt><trkpt lat="45.43098142775329" lon="5.795353765366421"><ele>580.0</ele><time>2026-04-05T13:30:07Z</time></trkpt><trkpt lat="45.43094473628942" lon="5.79513705129317"><ele>575.0</ele><time>2026-04-05T13:30:08Z</time></trkpt><trkpt lat="45.430905826909665" lon="5.794912994967034"><ele>570.0</ele><time>2026-04-05T13:30:09Z</time></trkpt><trkpt lat="45.43086968162903" lon="5.794695851687293"><ele>565.0</ele><time>2026-04-05T13:30:10Z</time></trkpt><trkpt lat="45.43084884423834" lon="5.794483984010313"><ele>564.0</ele><time>2026-04-05T13:30:11Z</time></trkpt><trkpt lat="45.43085458342172" lon="5.79427737833306"><ele>563.0</ele><time>2026-04-05T13:30:12Z</time></trkpt><trkpt lat="45.43087348132824" lon="5.794056461063322"><ele>562.0</ele><time>2026-04-05T13:30:13Z</time></trkpt><trkpt lat="45.43088115635446" lon="5.793837316488134"><ele>562.0</ele><time>2026-04-05T13:30:14Z</time></trkpt><trkpt lat="45.43089949613119" lon="5.793627897322939"><ele>562.0</ele><time>2026-04-05T13:30:15Z</time></trkpt><trkpt lat="45.43093674180356" lon="5.793406938520106"><ele>562.0</ele><time>2026-04-05T13:30:16Z</time></trkpt><trkpt lat="45.4309907570884" lon="5.79317678289222"><ele>562.0</ele><time>2026-04-05T13:30:17Z</time></trkpt><trkpt lat="45.431047834450276" lon="5.7929478716997"><ele>562.0</ele><time>2026-04-05T13:30:18Z</time></trkpt><trkpt lat="45.43110006405785" lon="5.7927381818781365"><ele>562.0</ele><time>2026-04-05T13:30:19Z</time></trkpt><trkpt lat="45.43113626702972" lon="5.7925209803694955"><ele>562.5</ele><time>2026-04-05T13:30:20Z</time></trkpt><trkpt lat="45.431198050046156" lon="5.792316603213036"><ele>563.0</ele><time>2026-04-05T13:30:21Z</time></trkpt><trkpt lat="45.43124012732685" lon="5.79212376780921"><ele>563.5</ele><time>2026-04-05T13:30:22Z</time></trkpt><trkpt lat="45.43128989844898" lon="5.791945023572175"><ele>564.0</ele><time>2026-04-05T13:30:23Z</time></trkpt><trkpt lat="45.431328147996396" lon="5.791761276207908"><ele>563.0</ele><time>2026-04-05T13:30:24Z</time></trkpt><trkpt lat="45.431376915416564" lon="5.79157503075151"><ele>562.0</ele><time>2026-04-05T13:30:25Z</time></trkpt><trkpt lat="45.43141502902223" lon="5.791372346351536"><ele>561.0</ele><time>2026-04-05T13:30:26Z</time></trkpt><trkpt lat="45.43143989608079" lon="5.791170336156389"><ele>560.0</ele><time>2026-04-05T13:30:27Z</time></trkpt><trkpt lat="45.43142722611346" lon="5.790924980064387"><ele>557.3333333333333</ele><time>2026-04-05T13:30:28Z</time></trkpt><trkpt lat="45.4313867150547" lon="5.790674177432394"><ele>554.6666666666666</ele><time>2026-04-05T13:30:29Z</time></trkpt><trkpt lat="45.431345698488975" lon="5.790428041463142"><ele>552.0</ele><time>2026-04-05T13:30:30Z</time></trkpt><trkpt lat="45.43131002654536" lon="5.790180141213176"><ele>551.3333333333334</ele><time>2026-04-05T13:30:31Z</time></trkpt><trkpt lat="45.431269705553234" lon="5.789943934632861"><ele>550.6666666666667</ele><time>2026-04-05T13:30:32Z</time></trkpt><trkpt lat="45.43121117587389" lon="5.789731922477885"><ele>550.0</ele><time>2026-04-05T13:30:33Z</time></trkpt><trkpt lat="45.431108999119935" lon="5.789548735137192"><ele>550.0</ele><time>2026-04-05T13:30:34Z</time></trkpt><trkpt lat="45.43098256431461" lon="5.7893883843272995"><ele>550.0</ele><time>2026-04-05T13:30:35Z</time></trkpt><trkpt lat="45.430850017060585" lon="5.789261897237078"><ele>550.0</ele><time>2026-04-05T13:30:36Z</time></trkpt><trkpt lat="45.43072795624714" lon="5.789128286135996"><ele>549.75</ele><time>2026-04-05T13:30:37Z</time></trkpt><trkpt lat="45.4306188342218" lon="5.788989379776933"><ele>549.5</ele><time>2026-04-05T13:30:38Z</time></trkpt><trkpt lat="45.430516622430716" lon="5.788864025451936"><ele>549.25</ele><time>2026-04-05T13:30:39Z</time></trkpt><trkpt lat="45.43043605012927" lon="5.7887183313362724"><ele>549.0</ele><time>2026-04-05T13:30:40Z</time></trkpt><trkpt lat="45.430353667054796" lon="5.788588982833778"><ele>547.75</ele><time>2026-04-05T13:30:41Z</time></trkpt><trkpt lat="45.4303425011522" lon="5.788390824400961"><ele>546.5</ele><time>2026-04-05T13:30:42.001Z</time></trkpt><trkpt lat="45.43033088418193" lon="5.788187103049501"><ele>545.25</ele><time>2026-04-05T13:30:43.001Z</time></trkpt><trkpt lat="45.43035372310184" lon="5.787977517459929"><ele>544.0</ele><time>2026-04-05T13:30:44.001Z</time></trkpt><trkpt lat="45.43041740058283" lon="5.787774060625979"><ele>542.5</ele><time>2026-04-05T13:30:45.001Z</time></trkpt><trkpt lat="45.43044824833207" lon="5.787585267298512"><ele>541.0</ele><time>2026-04-05T13:30:46.001Z</time></trkpt><trkpt lat="45.43044610740789" lon="5.787414698099717"><ele>539.5</ele><time>2026-04-05T13:30:47.001Z</time></trkpt><trkpt lat="45.430369253845306" lon="5.787237828487804"><ele>538.0</ele><time>2026-04-05T13:30:48.001Z</time></trkpt><trkpt lat="45.430261970709715" lon="5.787084745298521"><ele>538.0</ele><time>2026-04-05T13:30:49.001Z</time></trkpt><trkpt lat="45.4301617135807" lon="5.786948775348298"><ele>538.0</ele><time>2026-04-05T13:30:50.001Z</time></trkpt><trkpt lat="45.430098028597044" lon="5.786795954304978"><ele>538.0</ele><time>2026-04-05T13:30:51.001Z</time></trkpt><trkpt lat="45.430051246502735" lon="5.786647474820243"><ele>538.0</ele><time>2026-04-05T13:30:52.001Z</time></trkpt><trkpt lat="45.43000744635364" lon="5.786486407280091"><ele>538.25</ele><time>2026-04-05T13:30:53.001Z</time></trkpt><trkpt lat="45.429976716044976" lon="5.786298807604799"><ele>538.5</ele><time>2026-04-05T13:30:54.001Z</time></trkpt><trkpt lat="45.429967087656856" lon="5.786098698516129"><ele>538.75</ele><time>2026-04-05T13:30:55.001Z</time></trkpt><trkpt lat="45.42999099910056" lon="5.785893313022699"><ele>539.0</ele><time>2026-04-05T13:30:56.001Z</time></trkpt><trkpt lat="45.43000201847503" lon="5.785672021742232"><ele>538.0</ele><time>2026-04-05T13:30:57.001Z</time></trkpt><trkpt lat="45.430029360520216" lon="5.7854535515447125"><ele>537.0</ele><time>2026-04-05T13:30:58.001Z</time></trkpt><trkpt lat="45.43003925285659" lon="5.785223199248761"><ele>536.0</ele><time>2026-04-05T13:30:59.001Z</time></trkpt><trkpt lat="45.43004555542446" lon="5.784995554483764"><ele>535.25</ele><time>2026-04-05T13:31:00.001Z</time></trkpt><trkpt lat="45.43004889836096" lon="5.784769989125905"><ele>534.5</ele><time>2026-04-05T13:31:01.001Z</time></trkpt><trkpt lat="45.430043292749424" lon="5.784560412938874"><ele>533.75</ele><time>2026-04-05T13:31:02.001Z</time></trkpt><trkpt lat="45.43005081944389" lon="5.784372368046671"><ele>533.0</ele><time>2026-04-05T13:31:03.001Z</time></trkpt><trkpt lat="45.43004716084395" lon="5.784206490149341"><ele>533.0</ele><time>2026-04-05T13:31:04.001Z</time></trkpt><trkpt lat="45.43003136999341" lon="5.78404901242997"><ele>533.0</ele><time>2026-04-05T13:31:05.001Z</time></trkpt><trkpt lat="45.43000484155903" lon="5.7838974695203"><ele>533.0</ele><time>2026-04-05T13:31:06.001Z</time></trkpt><trkpt lat="45.429951684108126" lon="5.783737580398432"><ele>533.0</ele><time>2026-04-05T13:31:07.001Z</time></trkpt><trkpt lat="45.42991727101843" lon="5.7835855188160625"><ele>532.5</ele><time>2026-04-05T13:31:08.001Z</time></trkpt><trkpt lat="45.4298742564379" lon="5.783444325842068"><ele>532.0</ele><time>2026-04-05T13:31:09.001Z</time></trkpt><trkpt lat="45.42984347513381" lon="5.783298605389829"><ele>531.5</ele><time>2026-04-05T13:31:10.001Z</time></trkpt><trkpt lat="45.42983630191064" lon="5.783133351393451"><ele>531.0</ele><time>2026-04-05T13:31:11.001Z</time></trkpt><trkpt lat="45.429869608963685" lon="5.782951593654008"><ele>531.0</ele><time>2026-04-05T13:31:12.001Z</time></trkpt><trkpt lat="45.42987332698457" lon="5.782749941075825"><ele>531.0</ele><time>2026-04-05T13:31:13.001Z</time></trkpt><trkpt lat="45.429906293113774" lon="5.782543413365396"><ele>531.0</ele><time>2026-04-05T13:31:14.001Z</time></trkpt><trkpt lat="45.42991604327148" lon="5.782326917149379"><ele>531.0</ele><time>2026-04-05T13:31:15.001Z</time></trkpt><trkpt lat="45.42991072671632" lon="5.782095584553121"><ele>529.5</ele><time>2026-04-05T13:31:16.001Z</time></trkpt><trkpt lat="45.4298977683435" lon="5.781869418780938"><ele>528.0</ele><time>2026-04-05T13:31:17.001Z</time></trkpt><trkpt lat="45.42988218686691" lon="5.7816653098144535"><ele>526.5</ele><time>2026-04-05T13:31:18.001Z</time></trkpt><trkpt lat="45.429862401571356" lon="5.781474513503405"><ele>525.0</ele><time>2026-04-05T13:31:19.001Z</time></trkpt><trkpt lat="45.42981797777557" lon="5.781291047597779"><ele>523.5</ele><time>2026-04-05T13:31:20.001Z</time></trkpt><trkpt lat="45.42973699983859" lon="5.781125117615938"><ele>522.0</ele><time>2026-04-05T13:31:21.001Z</time></trkpt><trkpt lat="45.429622257862135" lon="5.780993226357863"><ele>520.5</ele><time>2026-04-05T13:31:22.001Z</time></trkpt><trkpt lat="45.42950934330199" lon="5.780868781432629"><ele>519.0</ele><time>2026-04-05T13:31:23.001Z</time></trkpt><trkpt lat="45.429390061297255" lon="5.780755746414524"><ele>518.0</ele><time>2026-04-05T13:31:24.001Z</time></trkpt><trkpt lat="45.42928158956123" lon="5.780632370794974"><ele>517.0</ele><time>2026-04-05T13:31:25.001Z</time></trkpt><trkpt lat="45.42917122056331" lon="5.780514109541661"><ele>516.0</ele><time>2026-04-05T13:31:26.001Z</time></trkpt><trkpt lat="45.42907391773133" lon="5.780388967737677"><ele>515.0</ele><time>2026-04-05T13:31:27.001Z</time></trkpt><trkpt lat="45.42898958996518" lon="5.7802428181995635"><ele>514.25</ele><time>2026-04-05T13:31:28.001Z</time></trkpt><trkpt lat="45.42892366744352" lon="5.780078589366065"><ele>513.5</ele><time>2026-04-05T13:31:29.001Z</time></trkpt><trkpt lat="45.42885943472311" lon="5.779896144875446"><ele>512.75</ele><time>2026-04-05T13:31:30.001Z</time></trkpt><trkpt lat="45.42879966889083" lon="5.779707717018049"><ele>512.0</ele><time>2026-04-05T13:31:31.001Z</time></trkpt><trkpt lat="45.428741947600656" lon="5.77952465619649"><ele>510.6</ele><time>2026-04-05T13:31:32.001Z</time></trkpt><trkpt lat="45.428697420042674" lon="5.779353232431702"><ele>509.20000000000005</ele><time>2026-04-05T13:31:33.001Z</time></trkpt><trkpt lat="45.42869107038336" lon="5.779198533172908"><ele>507.8</ele><time>2026-04-05T13:31:34.001Z</time></trkpt><trkpt lat="45.42871764027077" lon="5.779058757443027"><ele>506.4</ele><time>2026-04-05T13:31:35.001Z</time></trkpt><trkpt lat="45.42874056219936" lon="5.778907024550357"><ele>505.0</ele><time>2026-04-05T13:31:36.001Z</time></trkpt><trkpt lat="45.428782887962676" lon="5.778783250106688"><ele>505.2</ele><time>2026-04-05T13:31:37.001Z</time></trkpt><trkpt lat="45.428818149695296" lon="5.778662093920749"><ele>505.4</ele><time>2026-04-05T13:31:38.001Z</time></trkpt><trkpt lat="45.428857837540306" lon="5.778547303050821"><ele>505.6</ele><time>2026-04-05T13:31:39.001Z</time></trkpt><trkpt lat="45.42889527502684" lon="5.778474173906874"><ele>505.8</ele><time>2026-04-05T13:31:40.001Z</time></trkpt><trkpt lat="45.42885872117926" lon="5.778322715206713"><ele>506.0</ele><time>2026-04-05T13:32:27Z</time></trkpt><trkpt lat="45.428738765066726" lon="5.7782005817733255"><ele>504.6</ele><time>2026-04-05T13:32:29Z</time></trkpt><trkpt lat="45.428679351889535" lon="5.778123275872352"><ele>503.20000000000005</ele><time>2026-04-05T13:32:30Z</time></trkpt><trkpt lat="45.428625016208045" lon="5.778033981229467"><ele>501.79999999999995</ele><time>2026-04-05T13:32:31Z</time></trkpt><trkpt lat="45.42854406133585" lon="5.777928915667943"><ele>500.4</ele><time>2026-04-05T13:32:32Z</time></trkpt><trkpt lat="45.42844539741516" lon="5.777851857202868"><ele>499.0</ele><time>2026-04-05T13:32:33Z</time></trkpt><trkpt lat="45.42835056483708" lon="5.777761213876295"><ele>499.75</ele><time>2026-04-05T13:32:34Z</time></trkpt><trkpt lat="45.42825834206439" lon="5.777654320454087"><ele>500.5</ele><time>2026-04-05T13:32:35Z</time></trkpt><trkpt lat="45.42816437803437" lon="5.777535672681452"><ele>501.25</ele><time>2026-04-05T13:32:36Z</time></trkpt><trkpt lat="45.42807674158187" lon="5.777406010738862"><ele>502.0</ele><time>2026-04-05T13:32:37Z</time></trkpt><trkpt lat="45.42798518536136" lon="5.777308123462893"><ele>500.5</ele><time>2026-04-05T13:32:38Z</time></trkpt><trkpt lat="45.42790464720387" lon="5.777190088357466"><ele>499.0</ele><time>2026-04-05T13:32:39Z</time></trkpt><trkpt lat="45.42783543577901" lon="5.777063915245472"><ele>497.5</ele><time>2026-04-05T13:32:40Z</time></trkpt><trkpt lat="45.42777021967899" lon="5.7769206876186185"><ele>496.0</ele><time>2026-04-05T13:32:41Z</time></trkpt><trkpt lat="45.42771554227821" lon="5.776770735629504"><ele>496.0</ele><time>2026-04-05T13:32:42Z</time></trkpt><trkpt lat="45.4276627634552" lon="5.776611408071983"><ele>496.0</ele><time>2026-04-05T13:32:43Z</time></trkpt><trkpt lat="45.42759412501712" lon="5.776440153080331"><ele>496.0</ele><time>2026-04-05T13:32:44Z</time></trkpt><trkpt lat="45.42750608701885" lon="5.7762870121370735"><ele>496.0</ele><time>2026-04-05T13:32:45Z</time></trkpt><trkpt lat="45.42739915564012" lon="5.776151937586279"><ele>496.0</ele><time>2026-04-05T13:32:46Z</time></trkpt><trkpt lat="45.42728035605016" lon="5.7760301715903255"><ele>496.0</ele><time>2026-04-05T13:32:47Z</time></trkpt><trkpt lat="45.42712635436913" lon="5.775898762274119"><ele>496.0</ele><time>2026-04-05T13:32:48Z</time></trkpt><trkpt lat="45.42697026418049" lon="5.775775599636291"><ele>495.0</ele><time>2026-04-05T13:32:49.001Z</time></trkpt><trkpt lat="45.426804446765715" lon="5.775657905404449"><ele>494.0</ele><time>2026-04-05T13:32:50.001Z</time></trkpt><trkpt lat="45.426650038643835" lon="5.77551796187228"><ele>493.0</ele><time>2026-04-05T13:32:51.001Z</time></trkpt><trkpt lat="45.42653495890066" lon="5.775406093883269"><ele>493.0</ele><time>2026-04-05T13:32:52.001Z</time></trkpt><trkpt lat="45.42636447666704" lon="5.775260765491197"><ele>493.0</ele><time>2026-04-05T13:32:53.001Z</time></trkpt><trkpt lat="45.42620653855807" lon="5.775153237328734"><ele>493.0</ele><time>2026-04-05T13:32:54.001Z</time></trkpt><trkpt lat="45.426073041155995" lon="5.775038877878492"><ele>493.25</ele><time>2026-04-05T13:32:55.001Z</time></trkpt><trkpt lat="45.4259594338783" lon="5.774919097435069"><ele>493.5</ele><time>2026-04-05T13:32:56.001Z</time></trkpt><trkpt lat="45.42584733604169" lon="5.774825758386939"><ele>493.75</ele><time>2026-04-05T13:32:57.001Z</time></trkpt><trkpt lat="45.4257110287721" lon="5.774751466329947"><ele>494.0</ele><time>2026-04-05T13:32:58.001Z</time></trkpt><trkpt lat="45.425575305320805" lon="5.77467066379459"><ele>491.66666666666663</ele><time>2026-04-05T13:32:59.001Z</time></trkpt><trkpt lat="45.42543347022856" lon="5.774587006999794"><ele>489.33333333333337</ele><time>2026-04-05T13:33:00.001Z</time></trkpt><trkpt lat="45.425278792293085" lon="5.774506521581316"><ele>487.0</ele><time>2026-04-05T13:33:01.001Z</time></trkpt><trkpt lat="45.42512050046081" lon="5.774423545760997"><ele>488.6666666666667</ele><time>2026-04-05T13:33:02.001Z</time></trkpt><trkpt lat="45.42496377704855" lon="5.774331300532157"><ele>490.33333333333337</ele><time>2026-04-05T13:33:03.001Z</time></trkpt><trkpt lat="45.4248086039159" lon="5.774219661417278"><ele>492.0</ele><time>2026-04-05T13:33:04.001Z</time></trkpt><trkpt lat="45.424662725858795" lon="5.774077309484898"><ele>490.66666666666663</ele><time>2026-04-05T13:33:05.001Z</time></trkpt><trkpt lat="45.424517252435244" lon="5.773926097976303"><ele>489.3333333333333</ele><time>2026-04-05T13:33:06.001Z</time></trkpt><trkpt lat="45.42436910586628" lon="5.7737771035029635"><ele>488.0</ele><time>2026-04-05T13:33:07.001Z</time></trkpt><trkpt lat="45.424218113413346" lon="5.773628328254288"><ele>487.66666666666663</ele><time>2026-04-05T13:33:08.001Z</time></trkpt><trkpt lat="45.424056613263275" lon="5.773480014590614"><ele>487.33333333333337</ele><time>2026-04-05T13:33:09.001Z</time></trkpt><trkpt lat="45.42388433329325" lon="5.773338079809015"><ele>487.0</ele><time>2026-04-05T13:33:10.001Z</time></trkpt><trkpt lat="45.423701726550306" lon="5.773197372914308"><ele>487.0</ele><time>2026-04-05T13:33:11.001Z</time></trkpt><trkpt lat="45.42351863577837" lon="5.773051537206913"><ele>487.0</ele><time>2026-04-05T13:33:12.001Z</time></trkpt><trkpt lat="45.42333895249868" lon="5.772906521680047"><ele>487.0</ele><time>2026-04-05T13:33:13.001Z</time></trkpt><trkpt lat="45.42315912290171" lon="5.772766090641163"><ele>487.6666666666667</ele><time>2026-04-05T13:33:14.001Z</time></trkpt><trkpt lat="45.42297804987402" lon="5.77263116073801"><ele>488.33333333333337</ele><time>2026-04-05T13:33:15.001Z</time></trkpt><trkpt lat="45.42279471565641" lon="5.772493998082957"><ele>489.0</ele><time>2026-04-05T13:33:16.001Z</time></trkpt><trkpt lat="45.42260950914679" lon="5.772352626883592"><ele>489.0</ele><time>2026-04-05T13:33:17.001Z</time></trkpt><trkpt lat="45.422423638213054" lon="5.772208265376644"><ele>489.0</ele><time>2026-04-05T13:33:18.001Z</time></trkpt><trkpt lat="45.422237941828236" lon="5.772063025201416"><ele>489.0</ele><time>2026-04-05T13:33:19.001Z</time></trkpt><trkpt lat="45.422048989763816" lon="5.771928840061082"><ele>489.66666666666663</ele><time>2026-04-05T13:33:20.001Z</time></trkpt><trkpt lat="45.4218618387129" lon="5.771784136631702"><ele>490.3333333333333</ele><time>2026-04-05T13:33:21.001Z</time></trkpt><trkpt lat="45.42167478094289" lon="5.771635906391384"><ele>491.0</ele><time>2026-04-05T13:33:22.001Z</time></trkpt><trkpt lat="45.421497614917534" lon="5.771499408890529"><ele>491.0</ele><time>2026-04-05T13:33:23.001Z</time></trkpt><trkpt lat="45.42133382362488" lon="5.771375058439474"><ele>491.0</ele><time>2026-04-05T13:33:24.001Z</time></trkpt><trkpt lat="45.4211839490888" lon="5.771257253390253"><ele>491.0</ele><time>2026-04-05T13:33:25.001Z</time></trkpt><trkpt lat="45.42103904151012" lon="5.771139730794819"><ele>491.0</ele><time>2026-04-05T13:33:26.001Z</time></trkpt><trkpt lat="45.42089977510481" lon="5.771041446410092"><ele>491.0</ele><time>2026-04-05T13:33:27.001Z</time></trkpt><trkpt lat="45.420762686282856" lon="5.770914888569252"><ele>491.0</ele><time>2026-04-05T13:33:28.001Z</time></trkpt><trkpt lat="45.420617179422116" lon="5.770802822760172"><ele>494.66666666666663</ele><time>2026-04-05T13:33:29.001Z</time></trkpt><trkpt lat="45.420471628134266" lon="5.770719182505123"><ele>498.33333333333337</ele><time>2026-04-05T13:33:30.001Z</time></trkpt><trkpt lat="45.420336484959876" lon="5.77063068014157"><ele>502.0</ele><time>2026-04-05T13:33:31.001Z</time></trkpt><trkpt lat="45.420184863157196" lon="5.7705466883706045"><ele>502.0</ele><time>2026-04-05T13:33:32.001Z</time></trkpt><trkpt lat="45.42001368191616" lon="5.770515943275222"><ele>502.0</ele><time>2026-04-05T13:33:33.001Z</time></trkpt><trkpt lat="45.419833624071735" lon="5.77045421743596"><ele>502.0</ele><time>2026-04-05T13:33:34.001Z</time></trkpt><trkpt lat="45.41966485769615" lon="5.770403007106727"><ele>501.0</ele><time>2026-04-05T13:33:35.001Z</time></trkpt><trkpt lat="45.419514212464705" lon="5.770357263743336"><ele>500.0</ele><time>2026-04-05T13:33:36.001Z</time></trkpt><trkpt lat="45.41935393734843" lon="5.77028793441092"><ele>499.0</ele><time>2026-04-05T13:33:37.001Z</time></trkpt><trkpt lat="45.41920058941073" lon="5.770201160209654"><ele>496.33333333333337</ele><time>2026-04-05T13:33:38.001Z</time></trkpt><trkpt lat="45.419050241662895" lon="5.770100473717888"><ele>493.66666666666663</ele><time>2026-04-05T13:33:39.001Z</time></trkpt><trkpt lat="45.418897007674516" lon="5.770010309596253"><ele>491.0</ele><time>2026-04-05T13:33:40.001Z</time></trkpt><trkpt lat="45.4187552622236" lon="5.769875694691031"><ele>490.0</ele><time>2026-04-05T13:33:41.001Z</time></trkpt><trkpt lat="45.418616524023456" lon="5.769766909674575"><ele>489.0</ele><time>2026-04-05T13:33:42.001Z</time></trkpt><trkpt lat="45.418480623808" lon="5.769667790274641"><ele>488.0</ele><time>2026-04-05T13:33:43.001Z</time></trkpt><trkpt lat="45.418345623372545" lon="5.769604700256004"><ele>488.0</ele><time>2026-04-05T13:33:44.001Z</time></trkpt><trkpt lat="45.418200619140464" lon="5.769564828445326"><ele>488.0</ele><time>2026-04-05T13:33:45.001Z</time></trkpt><trkpt lat="45.41804777720762" lon="5.769558164033124"><ele>488.0</ele><time>2026-04-05T13:33:46.001Z</time></trkpt><trkpt lat="45.417884930528615" lon="5.769588421698271"><ele>487.0</ele><time>2026-04-05T13:33:47.001Z</time></trkpt><trkpt lat="45.41772674070515" lon="5.769654777171889"><ele>486.0</ele><time>2026-04-05T13:33:48.001Z</time></trkpt><trkpt lat="45.417577272702744" lon="5.769748311276959"><ele>485.0</ele><time>2026-04-05T13:33:49.001Z</time></trkpt><trkpt lat="45.4174385586849" lon="5.769835094997401"><ele>485.0</ele><time>2026-04-05T13:33:50.001Z</time></trkpt><trkpt lat="45.41729931958447" lon="5.769906464960475"><ele>485.0</ele><time>2026-04-05T13:33:51.001Z</time></trkpt><trkpt lat="45.417155549685404" lon="5.769979858117461"><ele>485.0</ele><time>2026-04-05T13:33:52.001Z</time></trkpt><trkpt lat="45.417014460301246" lon="5.770059913143539"><ele>485.0</ele><time>2026-04-05T13:33:53.001Z</time></trkpt><trkpt lat="45.416872472346014" lon="5.770133989166965"><ele>485.0</ele><time>2026-04-05T13:33:54.001Z</time></trkpt><trkpt lat="45.416726511883134" lon="5.770190278120154"><ele>485.0</ele><time>2026-04-05T13:33:55.001Z</time></trkpt><trkpt lat="45.4165796456684" lon="5.770190151581175"><ele>485.0</ele><time>2026-04-05T13:33:56.001Z</time></trkpt><trkpt lat="45.41643967603201" lon="5.770208446987132"><ele>484.0</ele><time>2026-04-05T13:33:57Z</time></trkpt><trkpt lat="45.41629637251004" lon="5.770158639701183"><ele>483.0</ele><time>2026-04-05T13:33:58Z</time></trkpt><trkpt lat="45.416137669941236" lon="5.770089802530126"><ele>482.0</ele><time>2026-04-05T13:33:59Z</time></trkpt><trkpt lat="45.41595971679341" lon="5.770021706810638"><ele>482.0</ele><time>2026-04-05T13:34:00Z</time></trkpt><trkpt lat="45.41579830076785" lon="5.769915967079201"><ele>482.0</ele><time>2026-04-05T13:34:01Z</time></trkpt><trkpt lat="45.41564051292036" lon="5.76985586824178"><ele>482.0</ele><time>2026-04-05T13:34:02Z</time></trkpt><trkpt lat="45.41549654054165" lon="5.769775840202181"><ele>482.0</ele><time>2026-04-05T13:34:03Z</time></trkpt><trkpt lat="45.41535178391771" lon="5.769699619902415"><ele>482.0</ele><time>2026-04-05T13:34:04Z</time></trkpt><trkpt lat="45.41521142582596" lon="5.76962501910168"><ele>482.0</ele><time>2026-04-05T13:34:05Z</time></trkpt><trkpt lat="45.41506217267599" lon="5.769553878172782"><ele>482.0</ele><time>2026-04-05T13:34:06Z</time></trkpt><trkpt lat="45.414921376023116" lon="5.769487663274105"><ele>482.0</ele><time>2026-04-05T13:34:07Z</time></trkpt><trkpt lat="45.41478973179332" lon="5.769416680741988"><ele>482.0</ele><time>2026-04-05T13:34:08Z</time></trkpt><trkpt lat="45.414535583709736" lon="5.76927548393591"><ele>480.66666666666663</ele><time>2026-04-05T13:34:10Z</time></trkpt><trkpt lat="45.41439403235542" lon="5.769207128770047"><ele>479.33333333333337</ele><time>2026-04-05T13:34:11Z</time></trkpt><trkpt lat="45.414240904498996" lon="5.769142451018808"><ele>478.0</ele><time>2026-04-05T13:34:12Z</time></trkpt><trkpt lat="45.414084215580914" lon="5.769060943852452"><ele>478.0</ele><time>2026-04-05T13:34:13Z</time></trkpt><trkpt lat="45.413932180583025" lon="5.768967946202089"><ele>478.0</ele><time>2026-04-05T13:34:14Z</time></trkpt><trkpt lat="45.41378715865827" lon="5.768862126036082"><ele>478.0</ele><time>2026-04-05T13:34:15Z</time></trkpt><trkpt lat="45.413671931443034" lon="5.768687910385606"><ele>476.0</ele><time>2026-04-05T13:34:16Z</time></trkpt><trkpt lat="45.41355318538773" lon="5.768489485294587"><ele>474.0</ele><time>2026-04-05T13:34:17Z</time></trkpt><trkpt lat="45.41346009308144" lon="5.768253021667471"><ele>472.0</ele><time>2026-04-05T13:34:18Z</time></trkpt><trkpt lat="45.41335650948232" lon="5.768042166277597"><ele>472.0</ele><time>2026-04-05T13:34:19Z</time></trkpt><trkpt lat="45.413256025238525" lon="5.767833216489144"><ele>472.0</ele><time>2026-04-05T13:34:20Z</time></trkpt><trkpt lat="45.41314877125515" lon="5.767625595567704"><ele>472.0</ele><time>2026-04-05T13:34:21Z</time></trkpt><trkpt lat="45.41303368935447" lon="5.767416942832782"><ele>470.33333333333337</ele><time>2026-04-05T13:34:22Z</time></trkpt><trkpt lat="45.41290999961461" lon="5.76723931682076"><ele>468.66666666666663</ele><time>2026-04-05T13:34:23Z</time></trkpt><trkpt lat="45.41280937257661" lon="5.767108503659679"><ele>467.0</ele><time>2026-04-05T13:34:24Z</time></trkpt><trkpt lat="45.41268023059091" lon="5.76695822041814"><ele>465.3333333333333</ele><time>2026-04-05T13:34:25Z</time></trkpt><trkpt lat="45.41254191597087" lon="5.766799172255655"><ele>463.66666666666663</ele><time>2026-04-05T13:34:26Z</time></trkpt><trkpt lat="45.412410716932484" lon="5.766605444135128"><ele>462.0</ele><time>2026-04-05T13:34:27Z</time></trkpt><trkpt lat="45.41228227842514" lon="5.766422748281458"><ele>462.33333333333337</ele><time>2026-04-05T13:34:28Z</time></trkpt><trkpt lat="45.412156157890834" lon="5.766234736043924"><ele>462.6666666666667</ele><time>2026-04-05T13:34:29Z</time></trkpt><trkpt lat="45.412025222451554" lon="5.766061332845824"><ele>463.0</ele><time>2026-04-05T13:34:30Z</time></trkpt><trkpt lat="45.41190793365863" lon="5.765886951542513"><ele>461.6666666666667</ele><time>2026-04-05T13:34:31Z</time></trkpt><trkpt lat="45.41178453192188" lon="5.765745706572738"><ele>460.33333333333337</ele><time>2026-04-05T13:34:32Z</time></trkpt><trkpt lat="45.41165357045535" lon="5.765581037297452"><ele>459.0</ele><time>2026-04-05T13:34:33Z</time></trkpt><trkpt lat="45.411536147856985" lon="5.7654031701462705"><ele>459.0</ele><time>2026-04-05T13:34:34Z</time></trkpt><trkpt lat="45.41139925499004" lon="5.765211928518128"><ele>459.0</ele><time>2026-04-05T13:34:35Z</time></trkpt><trkpt lat="45.411269192505564" lon="5.765030229288033"><ele>459.0</ele><time>2026-04-05T13:34:36Z</time></trkpt><trkpt lat="45.41114315049047" lon="5.764854661236784"><ele>457.66666666666663</ele><time>2026-04-05T13:34:37Z</time></trkpt><trkpt lat="45.41103020290205" lon="5.764697515478349"><ele>456.3333333333333</ele><time>2026-04-05T13:34:38Z</time></trkpt><trkpt lat="45.41091207598973" lon="5.764534478930256"><ele>455.0</ele><time>2026-04-05T13:34:39Z</time></trkpt><trkpt lat="45.41079151074544" lon="5.764366446848766"><ele>452.66666666666663</ele><time>2026-04-05T13:34:40Z</time></trkpt><trkpt lat="45.410664756003406" lon="5.764185024769808"><ele>450.33333333333337</ele><time>2026-04-05T13:34:41Z</time></trkpt><trkpt lat="45.410531508215165" lon="5.7639972263607016"><ele>448.0</ele><time>2026-04-05T13:34:42Z</time></trkpt><trkpt lat="45.410393576628955" lon="5.763804408462914"><ele>448.0</ele><time>2026-04-05T13:34:43Z</time></trkpt><trkpt lat="45.41024768190303" lon="5.763639073425468"><ele>448.0</ele><time>2026-04-05T13:34:44Z</time></trkpt><trkpt lat="45.41013150443863" lon="5.763445321661507"><ele>448.0</ele><time>2026-04-05T13:34:45Z</time></trkpt><trkpt lat="45.410006411133224" lon="5.763267124785511"><ele>445.0</ele><time>2026-04-05T13:34:46Z</time></trkpt><trkpt lat="45.40988742531785" lon="5.763097628190979"><ele>442.0</ele><time>2026-04-05T13:34:47Z</time></trkpt><trkpt lat="45.4097574215395" lon="5.762942158114707"><ele>439.0</ele><time>2026-04-05T13:34:48Z</time></trkpt><trkpt lat="45.40964624644485" lon="5.7627583352862635"><ele>436.0</ele><time>2026-04-05T13:34:49Z</time></trkpt><trkpt lat="45.40951422074793" lon="5.762586583820452"><ele>433.0</ele><time>2026-04-05T13:34:50Z</time></trkpt><trkpt lat="45.40936675483442" lon="5.7624292783722835"><ele>430.0</ele><time>2026-04-05T13:34:51Z</time></trkpt><trkpt lat="45.40921138147522" lon="5.762281318454037"><ele>430.0</ele><time>2026-04-05T13:34:52Z</time></trkpt><trkpt lat="45.40905226982324" lon="5.762128442272542"><ele>430.0</ele><time>2026-04-05T13:34:53Z</time></trkpt><trkpt lat="45.408912236186474" lon="5.761973112685023"><ele>430.0</ele><time>2026-04-05T13:34:54Z</time></trkpt><trkpt lat="45.4087515418897" lon="5.761813461545141"><ele>425.6666666666667</ele><time>2026-04-05T13:34:55Z</time></trkpt><trkpt lat="45.40859589946968" lon="5.761664174727162"><ele>421.33333333333337</ele><time>2026-04-05T13:34:56Z</time></trkpt><trkpt lat="45.408453399387525" lon="5.761497252213693"><ele>417.0</ele><time>2026-04-05T13:34:57Z</time></trkpt><trkpt lat="45.40830980010371" lon="5.761349426297795"><ele>417.0</ele><time>2026-04-05T13:34:58Z</time></trkpt><trkpt lat="45.40817172136604" lon="5.761220851362759"><ele>417.0</ele><time>2026-04-05T13:34:59Z</time></trkpt><trkpt lat="45.40810697496324" lon="5.761099502601061"><ele>417.0</ele><time>2026-04-05T13:35:00Z</time></trkpt><trkpt lat="45.407989173832874" lon="5.76095564359512"><ele>417.0</ele><time>2026-04-05T13:35:01Z</time></trkpt><trkpt lat="45.40779924230848" lon="5.760770544836671"><ele>415.33333333333337</ele><time>2026-04-05T13:35:02Z</time></trkpt><trkpt lat="45.40769223081259" lon="5.760586700643934"><ele>413.6666666666667</ele><time>2026-04-05T13:35:03Z</time></trkpt><trkpt lat="45.40761001411884" lon="5.7603971413776005"><ele>412.0</ele><time>2026-04-05T13:35:04Z</time></trkpt><trkpt lat="45.40752978363248" lon="5.760207683915166"><ele>410.5</ele><time>2026-04-05T13:35:05Z</time></trkpt><trkpt lat="45.40747698655643" lon="5.759998508416166"><ele>409.0</ele><time>2026-04-05T13:35:06Z</time></trkpt><trkpt lat="45.407442504432986" lon="5.759800426056924"><ele>407.5</ele><time>2026-04-05T13:35:07.001Z</time></trkpt><trkpt lat="45.407401818186976" lon="5.759614669771134"><ele>406.0</ele><time>2026-04-05T13:35:08.001Z</time></trkpt><trkpt lat="45.407371201644786" lon="5.7594502575360815"><ele>405.0</ele><time>2026-04-05T13:35:09.001Z</time></trkpt><trkpt lat="45.40734061424603" lon="5.759307993290321"><ele>404.0</ele><time>2026-04-05T13:35:10.001Z</time></trkpt><trkpt lat="45.407316552300294" lon="5.759170039934654"><ele>403.0</ele><time>2026-04-05T13:35:11.001Z</time></trkpt><trkpt lat="45.40727750259583" lon="5.759046104856863"><ele>402.0</ele><time>2026-04-05T13:35:12.001Z</time></trkpt><trkpt lat="45.40723813819464" lon="5.758926905560569"><ele>401.0</ele><time>2026-04-05T13:35:13.001Z</time></trkpt><trkpt lat="45.40718433723561" lon="5.758797980346215"><ele>401.5</ele><time>2026-04-05T13:35:14.001Z</time></trkpt><trkpt lat="45.40711185474384" lon="5.758667781091429"><ele>402.0</ele><time>2026-04-05T13:35:15.001Z</time></trkpt><trkpt lat="45.407031513682796" lon="5.758528692202102"><ele>402.5</ele><time>2026-04-05T13:35:16.001Z</time></trkpt><trkpt lat="45.40694186774998" lon="5.758357669490643"><ele>403.0</ele><time>2026-04-05T13:35:17.001Z</time></trkpt><trkpt lat="45.40683229205827" lon="5.75818504693821"><ele>403.0</ele><time>2026-04-05T13:35:18.001Z</time></trkpt><trkpt lat="45.406715414900404" lon="5.758021695474735"><ele>403.0</ele><time>2026-04-05T13:35:19.001Z</time></trkpt><trkpt lat="45.40660295796651" lon="5.757871259818214"><ele>403.0</ele><time>2026-04-05T13:35:20.001Z</time></trkpt><trkpt lat="45.40652087322836" lon="5.757703554098438"><ele>402.75</ele><time>2026-04-05T13:35:21.001Z</time></trkpt><trkpt lat="45.40643376186339" lon="5.757550913596635"><ele>402.5</ele><time>2026-04-05T13:35:22.001Z</time></trkpt><trkpt lat="45.406329778345835" lon="5.7574138056529085"><ele>402.25</ele><time>2026-04-05T13:35:23.001Z</time></trkpt><trkpt lat="45.406219717606646" lon="5.757264035892914"><ele>402.0</ele><time>2026-04-05T13:35:24.001Z</time></trkpt><trkpt lat="45.406090534195926" lon="5.757099321693993"><ele>403.33333333333337</ele><time>2026-04-05T13:35:25.001Z</time></trkpt><trkpt lat="45.40593073127847" lon="5.7569650103877725"><ele>404.6666666666667</ele><time>2026-04-05T13:35:26.001Z</time></trkpt><trkpt lat="45.405788966193896" lon="5.756831825167229"><ele>406.0</ele><time>2026-04-05T13:35:27.001Z</time></trkpt><trkpt lat="45.4056565853412" lon="5.756748178177303"><ele>406.0</ele><time>2026-04-05T13:35:28.001Z</time></trkpt><trkpt lat="45.40552286477546" lon="5.756637409223222"><ele>406.0</ele><time>2026-04-05T13:35:29.001Z</time></trkpt><trkpt lat="45.40538843819698" lon="5.7565028620286185"><ele>406.0</ele><time>2026-04-05T13:35:30.001Z</time></trkpt><trkpt lat="45.4052443586615" lon="5.756329420962279"><ele>406.33333333333337</ele><time>2026-04-05T13:35:31.001Z</time></trkpt><trkpt lat="45.40513369008023" lon="5.756215911025332"><ele>406.66666666666663</ele><time>2026-04-05T13:35:32.001Z</time></trkpt><trkpt lat="45.405023999471936" lon="5.75603726131196"><ele>407.0</ele><time>2026-04-05T13:35:33.001Z</time></trkpt><trkpt lat="45.404930391728705" lon="5.755832530345874"><ele>407.0</ele><time>2026-04-05T13:35:34.001Z</time></trkpt><trkpt lat="45.40485446012876" lon="5.755628757145133"><ele>407.0</ele><time>2026-04-05T13:35:35.001Z</time></trkpt><trkpt lat="45.40475013533606" lon="5.755375986587993"><ele>407.0</ele><time>2026-04-05T13:35:36.001Z</time></trkpt><trkpt lat="45.4046482002129" lon="5.75511779700693"><ele>406.66666666666663</ele><time>2026-04-05T13:35:37.001Z</time></trkpt><trkpt lat="45.40455119332943" lon="5.754846017139795"><ele>406.33333333333337</ele><time>2026-04-05T13:35:38.001Z</time></trkpt><trkpt lat="45.40446526531435" lon="5.754573115256438"><ele>406.0</ele><time>2026-04-05T13:35:39.001Z</time></trkpt><trkpt lat="45.404384120865366" lon="5.754317335312582"><ele>404.33333333333337</ele><time>2026-04-05T13:35:40.001Z</time></trkpt><trkpt lat="45.40429693695684" lon="5.754064329063195"><ele>402.66666666666663</ele><time>2026-04-05T13:35:41.001Z</time></trkpt><trkpt lat="45.40420288809589" lon="5.753821144903447"><ele>401.0</ele><time>2026-04-05T13:35:42.001Z</time></trkpt><trkpt lat="45.40409428768585" lon="5.75360585882047"><ele>400.0</ele><time>2026-04-05T13:35:43.001Z</time></trkpt><trkpt lat="45.40399261212643" lon="5.753406484623261"><ele>399.0</ele><time>2026-04-05T13:35:44.001Z</time></trkpt><trkpt lat="45.40388808051162" lon="5.753220400291782"><ele>398.0</ele><time>2026-04-05T13:35:45.001Z</time></trkpt><trkpt lat="45.40380505571258" lon="5.753015906421638"><ele>398.0</ele><time>2026-04-05T13:35:46.001Z</time></trkpt><trkpt lat="45.40373278581874" lon="5.752785921638492"><ele>398.0</ele><time>2026-04-05T13:35:47.001Z</time></trkpt><trkpt lat="45.40367523805943" lon="5.7525385109511165"><ele>398.0</ele><time>2026-04-05T13:35:48.001Z</time></trkpt><trkpt lat="45.40362287525596" lon="5.752288587261508"><ele>397.3333333333333</ele><time>2026-04-05T13:35:49.001Z</time></trkpt><trkpt lat="45.403571207831675" lon="5.752042130415986"><ele>396.66666666666663</ele><time>2026-04-05T13:35:50.001Z</time></trkpt><trkpt lat="45.4034938033718" lon="5.7518172148404085"><ele>396.0</ele><time>2026-04-05T13:35:51.001Z</time></trkpt><trkpt lat="45.403426274068366" lon="5.751602258218179"><ele>396.0</ele><time>2026-04-05T13:35:52.001Z</time></trkpt><trkpt lat="45.40331241882025" lon="5.7514112164881945"><ele>396.0</ele><time>2026-04-05T13:35:53.001Z</time></trkpt><trkpt lat="45.40316527061878" lon="5.751260465713457"><ele>396.0</ele><time>2026-04-05T13:35:54.001Z</time></trkpt><trkpt lat="45.40302983626299" lon="5.751109631303624"><ele>395.66666666666663</ele><time>2026-04-05T13:35:55.001Z</time></trkpt><trkpt lat="45.402921745215885" lon="5.7509449542453295"><ele>395.3333333333333</ele><time>2026-04-05T13:35:56.001Z</time></trkpt><trkpt lat="45.40285327064502" lon="5.750738405968271"><ele>395.0</ele><time>2026-04-05T13:35:57.001Z</time></trkpt><trkpt lat="45.40277905240152" lon="5.7505515418189805"><ele>395.0</ele><time>2026-04-05T13:35:58.001Z</time></trkpt><trkpt lat="45.40271326670659" lon="5.750354979111603"><ele>395.0</ele><time>2026-04-05T13:35:59.001Z</time></trkpt><trkpt lat="45.40265853364827" lon="5.750158642452357"><ele>395.0</ele><time>2026-04-05T13:36:00.001Z</time></trkpt><trkpt lat="45.40260315096758" lon="5.749955009957715"><ele>395.0</ele><time>2026-04-05T13:36:01.001Z</time></trkpt><trkpt lat="45.40254002919845" lon="5.74975085947318"><ele>395.0</ele><time>2026-04-05T13:36:02.001Z</time></trkpt><trkpt lat="45.40246969605631" lon="5.749554234631986"><ele>395.0</ele><time>2026-04-05T13:36:03Z</time></trkpt><trkpt lat="45.40237731640786" lon="5.749375248900049"><ele>395.66666666666663</ele><time>2026-04-05T13:36:04Z</time></trkpt><trkpt lat="45.402309663316395" lon="5.749182177786119"><ele>396.33333333333337</ele><time>2026-04-05T13:36:05Z</time></trkpt><trkpt lat="45.40220652566005" lon="5.749026435603237"><ele>397.0</ele><time>2026-04-05T13:36:06Z</time></trkpt><trkpt lat="45.40211068378669" lon="5.74885781720996"><ele>397.0</ele><time>2026-04-05T13:36:07Z</time></trkpt><trkpt lat="45.4020215033676" lon="5.748674523525632"><ele>397.0</ele><time>2026-04-05T13:36:08Z</time></trkpt><trkpt lat="45.40190595281735" lon="5.748519306175461"><ele>397.0</ele><time>2026-04-05T13:36:09Z</time></trkpt><trkpt lat="45.40180348927099" lon="5.748348161554085"><ele>397.33333333333337</ele><time>2026-04-05T13:36:10Z</time></trkpt><trkpt lat="45.40168938192637" lon="5.7481762638383795"><ele>397.66666666666663</ele><time>2026-04-05T13:36:11Z</time></trkpt><trkpt lat="45.401564639938655" lon="5.748020779272344"><ele>398.0</ele><time>2026-04-05T13:36:12Z</time></trkpt><trkpt lat="45.401437818258856" lon="5.747863198160176"><ele>398.3333333333333</ele><time>2026-04-05T13:36:13Z</time></trkpt><trkpt lat="45.40130209393078" lon="5.747711949603735"><ele>398.66666666666663</ele><time>2026-04-05T13:36:14Z</time></trkpt><trkpt lat="45.401166640309796" lon="5.747564070603195"><ele>399.0</ele><time>2026-04-05T13:36:15Z</time></trkpt><trkpt lat="45.40103051689572" lon="5.7474287388883605"><ele>399.0</ele><time>2026-04-05T13:36:16Z</time></trkpt><trkpt lat="45.40089246812342" lon="5.747304636464017"><ele>399.0</ele><time>2026-04-05T13:36:17Z</time></trkpt><trkpt lat="45.400749924011684" lon="5.747196010260422"><ele>399.0</ele><time>2026-04-05T13:36:18Z</time></trkpt><trkpt lat="45.40060560113565" lon="5.74710092723918"><ele>399.33333333333337</ele><time>2026-04-05T13:36:19Z</time></trkpt><trkpt lat="45.400463494071076" lon="5.747001332246225"><ele>399.6666666666667</ele><time>2026-04-05T13:36:20Z</time></trkpt><trkpt lat="45.400330728757496" lon="5.746883534752406"><ele>400.0</ele><time>2026-04-05T13:36:21Z</time></trkpt><trkpt lat="45.40023705245943" lon="5.746702005932632"><ele>400.0</ele><time>2026-04-05T13:36:22Z</time></trkpt><trkpt lat="45.40015683972573" lon="5.74650726729379"><ele>400.0</ele><time>2026-04-05T13:36:23Z</time></trkpt><trkpt lat="45.400086970330186" lon="5.746297888067593"><ele>400.0</ele><time>2026-04-05T13:36:24Z</time></trkpt><trkpt lat="45.40000351257122" lon="5.746100202163522"><ele>400.0</ele><time>2026-04-05T13:36:25Z</time></trkpt><trkpt lat="45.39994106510865" lon="5.7458963598926145"><ele>400.0</ele><time>2026-04-05T13:36:26Z</time></trkpt><trkpt lat="45.39986881234388" lon="5.74573272719136"><ele>400.0</ele><time>2026-04-05T13:36:27Z</time></trkpt><trkpt lat="45.39978082550062" lon="5.745596873253894"><ele>400.0</ele><time>2026-04-05T13:36:28Z</time></trkpt><trkpt lat="45.39969589800513" lon="5.745455280532389"><ele>399.75</ele><time>2026-04-05T13:36:29Z</time></trkpt><trkpt lat="45.399601643746166" lon="5.745320600041983"><ele>399.5</ele><time>2026-04-05T13:36:30Z</time></trkpt><trkpt lat="45.39950212602409" lon="5.745178828601445"><ele>399.25</ele><time>2026-04-05T13:36:31Z</time></trkpt><trkpt lat="45.39940390090942" lon="5.7450381664266335"><ele>399.0</ele><time>2026-04-05T13:36:32Z</time></trkpt><trkpt lat="45.399303879167746" lon="5.744895102976874"><ele>399.5</ele><time>2026-04-05T13:36:33Z</time></trkpt><trkpt lat="45.399201733211505" lon="5.744745627641622"><ele>400.0</ele><time>2026-04-05T13:36:34Z</time></trkpt><trkpt lat="45.39910311619377" lon="5.744586068927899"><ele>400.5</ele><time>2026-04-05T13:36:35Z</time></trkpt><trkpt lat="45.39901788905008" lon="5.744422700625948"><ele>401.0</ele><time>2026-04-05T13:36:36Z</time></trkpt><trkpt lat="45.39893904520921" lon="5.74427534698723"><ele>401.20000000000005</ele><time>2026-04-05T13:36:37Z</time></trkpt><trkpt lat="45.39886832455913" lon="5.744136733934164"><ele>401.40000000000003</ele><time>2026-04-05T13:36:38Z</time></trkpt><trkpt lat="45.39880169392981" lon="5.744006235327089"><ele>401.6</ele><time>2026-04-05T13:36:39Z</time></trkpt><trkpt lat="45.39874601327643" lon="5.743882853288307"><ele>401.8</ele><time>2026-04-05T13:36:40Z</time></trkpt><trkpt lat="45.39870765482171" lon="5.7437678049952"><ele>402.0</ele><time>2026-04-05T13:36:41Z</time></trkpt><trkpt lat="45.398685758025074" lon="5.743670566814798"><ele>402.0</ele><time>2026-04-05T13:36:42Z</time></trkpt><trkpt lat="45.39868870192026" lon="5.743531325685596"><ele>402.0</ele><time>2026-04-05T13:36:44Z</time></trkpt><trkpt lat="45.398718263712816" lon="5.74344556928272"><ele>402.0</ele><time>2026-04-05T13:36:46Z</time></trkpt><trkpt lat="45.39877077340822" lon="5.743343011286263"><ele>402.0</ele><time>2026-04-05T13:36:49Z</time></trkpt><trkpt lat="45.39886700218151" lon="5.743251037483527"><ele>402.0</ele><time>2026-04-05T13:36:54Z</time></trkpt><trkpt lat="45.39897364650278" lon="5.743171639110872"><ele>401.8</ele><time>2026-04-05T13:36:55Z</time></trkpt><trkpt lat="45.39908608139808" lon="5.743112240959231"><ele>401.6</ele><time>2026-04-05T13:36:56Z</time></trkpt><trkpt lat="45.39918497553836" lon="5.743077191921767"><ele>401.40000000000003</ele><time>2026-04-05T13:36:57Z</time></trkpt><trkpt lat="45.39929153908468" lon="5.7430584610179825"><ele>401.20000000000005</ele><time>2026-04-05T13:36:58Z</time></trkpt><trkpt lat="45.39940340671406" lon="5.74305186193316"><ele>401.0</ele><time>2026-04-05T13:36:59Z</time></trkpt><trkpt lat="45.399521101916946" lon="5.74310569512994"><ele>401.0</ele><time>2026-04-05T13:37:00Z</time></trkpt><trkpt lat="45.399650048454944" lon="5.743156257364762"><ele>401.0</ele><time>2026-04-05T13:37:01Z</time></trkpt><trkpt lat="45.39978363335037" lon="5.743218618297308"><ele>401.0</ele><time>2026-04-05T13:37:02Z</time></trkpt><trkpt lat="45.39993077847649" lon="5.743262743436437"><ele>401.0</ele><time>2026-04-05T13:37:03Z</time></trkpt><trkpt lat="45.400076380438136" lon="5.743340216846916"><ele>400.66666666666663</ele><time>2026-04-05T13:37:04Z</time></trkpt><trkpt lat="45.40023756575791" lon="5.743416405085882"><ele>400.33333333333337</ele><time>2026-04-05T13:37:05Z</time></trkpt><trkpt lat="45.40042600572372" lon="5.7434998247359035"><ele>400.0</ele><time>2026-04-05T13:37:06Z</time></trkpt><trkpt lat="45.40063462862632" lon="5.743615496949516"><ele>400.0</ele><time>2026-04-05T13:37:07Z</time></trkpt><trkpt lat="45.40086014894453" lon="5.743702442044816"><ele>400.0</ele><time>2026-04-05T13:37:08Z</time></trkpt><trkpt lat="45.401083029761985" lon="5.743827352405478"><ele>400.0</ele><time>2026-04-05T13:37:09.001Z</time></trkpt><trkpt lat="45.40131337210054" lon="5.743939552004643"><ele>400.0</ele><time>2026-04-05T13:37:10.001Z</time></trkpt><trkpt lat="45.401555587687184" lon="5.744042277979709"><ele>400.0</ele><time>2026-04-05T13:37:11.001Z</time></trkpt><trkpt lat="45.40179474867566" lon="5.744148628159564"><ele>400.0</ele><time>2026-04-05T13:37:12.001Z</time></trkpt><trkpt lat="45.40203359440754" lon="5.744257070401345"><ele>399.0</ele><time>2026-04-05T13:37:13.001Z</time></trkpt><trkpt lat="45.40227554459538" lon="5.744372510749985"><ele>398.0</ele><time>2026-04-05T13:37:14.001Z</time></trkpt><trkpt lat="45.40251815579035" lon="5.7444878244640964"><ele>397.5</ele><time>2026-04-05T13:37:15.001Z</time></trkpt><trkpt lat="45.40276171520267" lon="5.744600058844175"><ele>397.0</ele><time>2026-04-05T13:37:16.001Z</time></trkpt><trkpt lat="45.403007575907004" lon="5.744717530677207"><ele>397.0</ele><time>2026-04-05T13:37:17.001Z</time></trkpt><trkpt lat="45.40324999677795" lon="5.744830616202649"><ele>397.0</ele><time>2026-04-05T13:37:18.001Z</time></trkpt><trkpt lat="45.4034880889519" lon="5.744915365819146"><ele>397.0</ele><time>2026-04-05T13:37:19.001Z</time></trkpt><trkpt lat="45.40373828981266" lon="5.745052220781435"><ele>397.0</ele><time>2026-04-05T13:37:20.001Z</time></trkpt><trkpt lat="45.40398545020181" lon="5.745165126092401"><ele>396.5</ele><time>2026-04-05T13:37:21.001Z</time></trkpt><trkpt lat="45.40423297698704" lon="5.745278034691557"><ele>396.0</ele><time>2026-04-05T13:37:22.001Z</time></trkpt><trkpt lat="45.40448050799367" lon="5.745394115700658"><ele>395.5</ele><time>2026-04-05T13:37:23.001Z</time></trkpt><trkpt lat="45.40472864690268" lon="5.745509551785535"><ele>395.0</ele><time>2026-04-05T13:37:24.001Z</time></trkpt><trkpt lat="45.4049800511848" lon="5.745626037285985"><ele>395.0</ele><time>2026-04-05T13:37:25.001Z</time></trkpt><trkpt lat="45.40523057502816" lon="5.745741656973796"><ele>395.0</ele><time>2026-04-05T13:37:26.001Z</time></trkpt><trkpt lat="45.40548265279194" lon="5.745855512271803"><ele>394.5</ele><time>2026-04-05T13:37:27.001Z</time></trkpt><trkpt lat="45.40573632419166" lon="5.745973044842616"><ele>394.0</ele><time>2026-04-05T13:37:28.001Z</time></trkpt><trkpt lat="45.405990208975794" lon="5.746096023854428"><ele>394.0</ele><time>2026-04-05T13:37:29.001Z</time></trkpt><trkpt lat="45.40624711609643" lon="5.746218639111388"><ele>394.0</ele><time>2026-04-05T13:37:30.001Z</time></trkpt><trkpt lat="45.40650372278714" lon="5.746343065182016"><ele>393.5</ele><time>2026-04-05T13:37:31.001Z</time></trkpt><trkpt lat="45.40676646911531" lon="5.746467080249443"><ele>393.0</ele><time>2026-04-05T13:37:32.001Z</time></trkpt><trkpt lat="45.407029126721525" lon="5.746591828347882"><ele>393.0</ele><time>2026-04-05T13:37:33.001Z</time></trkpt><trkpt lat="45.40729314392076" lon="5.746712780693639"><ele>393.0</ele><time>2026-04-05T13:37:34.001Z</time></trkpt><trkpt lat="45.40755973318699" lon="5.746831579613297"><ele>393.0</ele><time>2026-04-05T13:37:35.001Z</time></trkpt><trkpt lat="45.407827137359135" lon="5.7469533349939885"><ele>393.0</ele><time>2026-04-05T13:37:36.001Z</time></trkpt><trkpt lat="45.408093632447624" lon="5.747075635362456"><ele>392.5</ele><time>2026-04-05T13:37:37.001Z</time></trkpt><trkpt lat="45.408357003199036" lon="5.747196549405544"><ele>392.0</ele><time>2026-04-05T13:37:38.001Z</time></trkpt><trkpt lat="45.40861574690848" lon="5.74731660489394"><ele>392.5</ele><time>2026-04-05T13:37:39.001Z</time></trkpt><trkpt lat="45.40886903509677" lon="5.747438040815724"><ele>393.0</ele><time>2026-04-05T13:37:40.001Z</time></trkpt><trkpt lat="45.40912325166894" lon="5.747556236270703"><ele>393.0</ele><time>2026-04-05T13:37:41.001Z</time></trkpt><trkpt lat="45.40937191638064" lon="5.7476699138050655"><ele>393.0</ele><time>2026-04-05T13:37:42.001Z</time></trkpt><trkpt lat="45.40962498262916" lon="5.747790523103674"><ele>392.5</ele><time>2026-04-05T13:37:43.001Z</time></trkpt><trkpt lat="45.409881529335756" lon="5.747910891149205"><ele>392.0</ele><time>2026-04-05T13:37:44.001Z</time></trkpt><trkpt lat="45.41014649775282" lon="5.748031619994562"><ele>392.0</ele><time>2026-04-05T13:37:45.001Z</time></trkpt><trkpt lat="45.410411378467856" lon="5.748155552874598"><ele>392.0</ele><time>2026-04-05T13:37:46.001Z</time></trkpt><trkpt lat="45.4106690305597" lon="5.748269980684789"><ele>392.5</ele><time>2026-04-05T13:37:47.001Z</time></trkpt><trkpt lat="45.410910198465345" lon="5.748380522664158"><ele>393.0</ele><time>2026-04-05T13:37:48.001Z</time></trkpt><trkpt lat="45.4111467440182" lon="5.7484889239598616"><ele>392.0</ele><time>2026-04-05T13:37:49.001Z</time></trkpt><trkpt lat="45.411382125602124" lon="5.748595960916672"><ele>391.0</ele><time>2026-04-05T13:37:50.001Z</time></trkpt><trkpt lat="45.41159805733669" lon="5.748697351136681"><ele>391.0</ele><time>2026-04-05T13:37:51.001Z</time></trkpt><trkpt lat="45.41180394392574" lon="5.748793221333091"><ele>391.0</ele><time>2026-04-05T13:37:52.001Z</time></trkpt><trkpt lat="45.41200361820681" lon="5.748879086869622"><ele>391.0</ele><time>2026-04-05T13:37:53.001Z</time></trkpt><trkpt lat="45.41219474135312" lon="5.7489676974094905"><ele>390.6666666666667</ele><time>2026-04-05T13:37:54.001Z</time></trkpt><trkpt lat="45.41237795442589" lon="5.749047313302233"><ele>390.33333333333337</ele><time>2026-04-05T13:37:55.001Z</time></trkpt><trkpt lat="45.41255290112718" lon="5.749133408042977"><ele>390.0</ele><time>2026-04-05T13:37:56.001Z</time></trkpt><trkpt lat="45.412715619733554" lon="5.749212953980382"><ele>390.0</ele><time>2026-04-05T13:37:57.001Z</time></trkpt><trkpt lat="45.41287072728362" lon="5.749299339017896"><ele>390.0</ele><time>2026-04-05T13:37:58.001Z</time></trkpt><trkpt lat="45.41301013774242" lon="5.749395200330558"><ele>390.0</ele><time>2026-04-05T13:37:59.001Z</time></trkpt><trkpt lat="45.413136645724364" lon="5.749507575891219"><ele>389.75</ele><time>2026-04-05T13:38:00.001Z</time></trkpt><trkpt lat="45.41325691540297" lon="5.749629020203907"><ele>389.5</ele><time>2026-04-05T13:38:01.001Z</time></trkpt><trkpt lat="45.413351225323616" lon="5.749729467117764"><ele>389.25</ele><time>2026-04-05T13:38:02.001Z</time></trkpt><trkpt lat="45.41344472961699" lon="5.749812535456552"><ele>389.0</ele><time>2026-04-05T13:38:03.001Z</time></trkpt><trkpt lat="45.41352462623393" lon="5.749902188058769"><ele>389.0</ele><time>2026-04-05T13:38:04.001Z</time></trkpt><trkpt lat="45.413575809188494" lon="5.750027457998418"><ele>389.0</ele><time>2026-04-05T13:38:05.001Z</time></trkpt><trkpt lat="45.41362770784316" lon="5.75014174280719"><ele>389.0</ele><time>2026-04-05T13:38:06.001Z</time></trkpt><trkpt lat="45.413719277025606" lon="5.75019263299929"><ele>389.0</ele><time>2026-04-05T13:38:07.001Z</time></trkpt><trkpt lat="45.41383021948273" lon="5.750172681714143"><ele>389.0</ele><time>2026-04-05T13:38:08.001Z</time></trkpt><trkpt lat="45.41394759572376" lon="5.750101824139243"><ele>389.0</ele><time>2026-04-05T13:38:09Z</time></trkpt><trkpt lat="45.4140939411334" lon="5.750092828125805"><ele>389.0</ele><time>2026-04-05T13:38:10Z</time></trkpt><trkpt lat="45.41421946602284" lon="5.7501007072450285"><ele>389.0</ele><time>2026-04-05T13:38:11Z</time></trkpt><trkpt lat="45.414363648378995" lon="5.75008001866323"><ele>389.0</ele><time>2026-04-05T13:38:12Z</time></trkpt><trkpt lat="45.414511784588875" lon="5.750074439328557"><ele>389.0</ele><time>2026-04-05T13:38:13Z</time></trkpt><trkpt lat="45.41466453999799" lon="5.750116927507518"><ele>389.0</ele><time>2026-04-05T13:38:14Z</time></trkpt><trkpt lat="45.414825899943786" lon="5.750178493790532"><ele>389.0</ele><time>2026-04-05T13:38:15Z</time></trkpt><trkpt lat="45.414996272317566" lon="5.750259402652014"><ele>389.0</ele><time>2026-04-05T13:38:16Z</time></trkpt><trkpt lat="45.41517628540472" lon="5.750349878322232"><ele>389.0</ele><time>2026-04-05T13:38:17Z</time></trkpt><trkpt lat="45.41536933250345" lon="5.750448399549601"><ele>389.0</ele><time>2026-04-05T13:38:18Z</time></trkpt><trkpt lat="45.4156160848138" lon="5.750572940748841"><ele>388.5</ele><time>2026-04-05T13:38:19Z</time></trkpt><trkpt lat="45.41588165266366" lon="5.750702086072065"><ele>388.0</ele><time>2026-04-05T13:38:20Z</time></trkpt><trkpt lat="45.41613213273721" lon="5.750815944332364"><ele>388.0</ele><time>2026-04-05T13:38:21Z</time></trkpt><trkpt lat="45.41636957848244" lon="5.750921596134296"><ele>388.0</ele><time>2026-04-05T13:38:22Z</time></trkpt><trkpt lat="45.41661157980708" lon="5.751025407231994"><ele>389.5</ele><time>2026-04-05T13:38:23Z</time></trkpt><trkpt lat="45.41685597299666" lon="5.751136625018602"><ele>391.0</ele><time>2026-04-05T13:38:24Z</time></trkpt><trkpt lat="45.41710554481647" lon="5.75125134898865"><ele>392.0</ele><time>2026-04-05T13:38:25Z</time></trkpt><trkpt lat="45.4173573584163" lon="5.751368556273906"><ele>393.0</ele><time>2026-04-05T13:38:26Z</time></trkpt><trkpt lat="45.41760694446607" lon="5.75148642718127"><ele>393.0</ele><time>2026-04-05T13:38:27Z</time></trkpt><trkpt lat="45.41786355724979" lon="5.751604779176703"><ele>393.0</ele><time>2026-04-05T13:38:28Z</time></trkpt><trkpt lat="45.41812027460944" lon="5.751727582606427"><ele>395.5</ele><time>2026-04-05T13:38:29Z</time></trkpt><trkpt lat="45.418374703052734" lon="5.751849520522806"><ele>398.0</ele><time>2026-04-05T13:38:30Z</time></trkpt><trkpt lat="45.41863147274099" lon="5.7519698737862965"><ele>399.0</ele><time>2026-04-05T13:38:31Z</time></trkpt><trkpt lat="45.418887701022534" lon="5.752085674537943"><ele>400.0</ele><time>2026-04-05T13:38:32Z</time></trkpt><trkpt lat="45.419146747142776" lon="5.752202326562966"><ele>400.0</ele><time>2026-04-05T13:38:33Z</time></trkpt><trkpt lat="45.41942605333311" lon="5.752332051419859"><ele>400.0</ele><time>2026-04-05T13:38:34Z</time></trkpt><trkpt lat="45.41973831776771" lon="5.752475093737764"><ele>400.5</ele><time>2026-04-05T13:38:35Z</time></trkpt><trkpt lat="45.420073944531964" lon="5.752617443220932"><ele>401.0</ele><time>2026-04-05T13:38:36Z</time></trkpt><trkpt lat="45.42039687575521" lon="5.7527599586734866"><ele>401.5</ele><time>2026-04-05T13:38:37Z</time></trkpt><trkpt lat="45.42068389405746" lon="5.7529144724488015"><ele>402.0</ele><time>2026-04-05T13:38:38Z</time></trkpt><trkpt lat="45.420956943875545" lon="5.7530610945737095"><ele>402.0</ele><time>2026-04-05T13:38:39Z</time></trkpt><trkpt lat="45.42121824354217" lon="5.753197584655281"><ele>402.0</ele><time>2026-04-05T13:38:40Z</time></trkpt><trkpt lat="45.42146083286192" lon="5.7533286419805325"><ele>401.0</ele><time>2026-04-05T13:38:41Z</time></trkpt><trkpt lat="45.42169358531686" lon="5.75346339634249"><ele>400.0</ele><time>2026-04-05T13:38:42Z</time></trkpt><trkpt lat="45.421917387648925" lon="5.753609164345153"><ele>400.0</ele><time>2026-04-05T13:38:43Z</time></trkpt><trkpt lat="45.422133826990944" lon="5.753762048519378"><ele>400.0</ele><time>2026-04-05T13:38:44Z</time></trkpt><trkpt lat="45.42236948880633" lon="5.753886075793598"><ele>396.33333333333337</ele><time>2026-04-05T13:38:45Z</time></trkpt><trkpt lat="45.42256941448475" lon="5.754038683150702"><ele>392.66666666666663</ele><time>2026-04-05T13:38:46Z</time></trkpt><trkpt lat="45.42276145397489" lon="5.754189173724911"><ele>389.0</ele><time>2026-04-05T13:38:47Z</time></trkpt><trkpt lat="45.42294223992862" lon="5.754347804524307"><ele>389.0</ele><time>2026-04-05T13:38:48Z</time></trkpt><trkpt lat="45.4231130070911" lon="5.754509977788964"><ele>389.0</ele><time>2026-04-05T13:38:49Z</time></trkpt><trkpt lat="45.423276555533384" lon="5.75467893969979"><ele>389.0</ele><time>2026-04-05T13:38:50Z</time></trkpt><trkpt lat="45.423432990200666" lon="5.7548461978647705"><ele>389.0</ele><time>2026-04-05T13:38:51Z</time></trkpt><trkpt lat="45.42357796856894" lon="5.755004943346611"><ele>389.0</ele><time>2026-04-05T13:38:52Z</time></trkpt><trkpt lat="45.423714397711095" lon="5.7551599788746435"><ele>389.0</ele><time>2026-04-05T13:38:53Z</time></trkpt><trkpt lat="45.42383494162933" lon="5.7553182990543545"><ele>389.0</ele><time>2026-04-05T13:38:54Z</time></trkpt><trkpt lat="45.42394982446855" lon="5.755466908984961"><ele>389.0</ele><time>2026-04-05T13:38:55Z</time></trkpt><trkpt lat="45.42406126447076" lon="5.75560620534708"><ele>389.0</ele><time>2026-04-05T13:38:56Z</time></trkpt><trkpt lat="45.424163018704846" lon="5.755750324319162"><ele>389.0</ele><time>2026-04-05T13:38:57Z</time></trkpt><trkpt lat="45.424250684174645" lon="5.755911053208606"><ele>389.25</ele><time>2026-04-05T13:38:58Z</time></trkpt><trkpt lat="45.42431323183442" lon="5.7560927264059565"><ele>389.5</ele><time>2026-04-05T13:38:59Z</time></trkpt><trkpt lat="45.42435936180006" lon="5.756285534985643"><ele>389.75</ele><time>2026-04-05T13:39:00Z</time></trkpt><trkpt lat="45.424386938446865" lon="5.7564691954367895"><ele>390.0</ele><time>2026-04-05T13:39:01Z</time></trkpt><trkpt lat="45.42441059015499" lon="5.7566265205031515"><ele>390.0</ele><time>2026-04-05T13:39:02Z</time></trkpt><trkpt lat="45.42443613451589" lon="5.756742016642599"><ele>390.0</ele><time>2026-04-05T13:39:03Z</time></trkpt><trkpt lat="45.42445715073677" lon="5.756839568017453"><ele>390.0</ele><time>2026-04-05T13:39:04Z</time></trkpt><trkpt lat="45.424472977137526" lon="5.756945936439093"><ele>390.0</ele><time>2026-04-05T13:39:05Z</time></trkpt><trkpt lat="45.42448009350215" lon="5.757065528716297"><ele>390.0</ele><time>2026-04-05T13:39:06Z</time></trkpt><trkpt lat="45.42450487326703" lon="5.757168980901379"><ele>390.0</ele><time>2026-04-05T13:39:07Z</time></trkpt><trkpt lat="45.42456770938911" lon="5.757247997882176"><ele>390.1428571428571</ele><time>2026-04-05T13:39:08Z</time></trkpt><trkpt lat="45.42464883716904" lon="5.757276880298715"><ele>390.2857142857143</ele><time>2026-04-05T13:39:09Z</time></trkpt><trkpt lat="45.42472864284625" lon="5.757269514183366"><ele>390.42857142857144</ele><time>2026-04-05T13:39:10Z</time></trkpt><trkpt lat="45.42479395768653" lon="5.757237322853424"><ele>390.57142857142856</ele><time>2026-04-05T13:39:11Z</time></trkpt><trkpt lat="45.42485576200015" lon="5.757204253587756"><ele>390.7142857142857</ele><time>2026-04-05T13:39:12Z</time></trkpt><trkpt lat="45.42491894920324" lon="5.757206239152929"><ele>390.85714285714283</ele><time>2026-04-05T13:39:13Z</time></trkpt><trkpt lat="45.42498358775311" lon="5.757234919095884"><ele>391.0</ele><time>2026-04-05T13:39:14Z</time></trkpt><trkpt lat="45.4250435552986" lon="5.757285211588923"><ele>391.00000000000006</ele><time>2026-04-05T13:39:15Z</time></trkpt><trkpt lat="45.42510095539405" lon="5.757354581207235"><ele>391.0</ele><time>2026-04-05T13:39:16Z</time></trkpt><trkpt lat="45.425158005256286" lon="5.757449417308412"><ele>391.0</ele><time>2026-04-05T13:39:17Z</time></trkpt><trkpt lat="45.42522482631697" lon="5.757532140946802"><ele>391.0</ele><time>2026-04-05T13:39:18Z</time></trkpt><trkpt lat="45.42527890005619" lon="5.757637863270267"><ele>391.00000000000006</ele><time>2026-04-05T13:39:19Z</time></trkpt><trkpt lat="45.425331615084716" lon="5.757749523480863"><ele>391.0</ele><time>2026-04-05T13:39:20Z</time></trkpt><trkpt lat="45.42538074476103" lon="5.757866070654944"><ele>391.0</ele><time>2026-04-05T13:39:21Z</time></trkpt><trkpt lat="45.42543366496476" lon="5.7579732464520355"><ele>391.0</ele><time>2026-04-05T13:39:22Z</time></trkpt><trkpt lat="45.42547382025799" lon="5.758096717586101"><ele>391.0</ele><time>2026-04-05T13:39:23Z</time></trkpt><trkpt lat="45.42552584974247" lon="5.75821035787432"><ele>391.0</ele><time>2026-04-05T13:39:24Z</time></trkpt><trkpt lat="45.425575912581365" lon="5.758326543996085"><ele>391.0</ele><time>2026-04-05T13:39:25Z</time></trkpt><trkpt lat="45.425628397392835" lon="5.758443311773671"><ele>390.75</ele><time>2026-04-05T13:39:26.001Z</time></trkpt><trkpt lat="45.42567751064044" lon="5.758557984577208"><ele>390.5</ele><time>2026-04-05T13:39:27.001Z</time></trkpt><trkpt lat="45.425731995519655" lon="5.758681202185789"><ele>390.25</ele><time>2026-04-05T13:39:28.001Z</time></trkpt><trkpt lat="45.425789457163205" lon="5.758825264704319"><ele>390.0</ele><time>2026-04-05T13:39:29.001Z</time></trkpt><trkpt lat="45.425864485343766" lon="5.758990736297196"><ele>390.0</ele><time>2026-04-05T13:39:30.001Z</time></trkpt><trkpt lat="45.4259479678937" lon="5.759173250188998"><ele>390.0</ele><time>2026-04-05T13:39:31.001Z</time></trkpt><trkpt lat="45.426036167233725" lon="5.759355537696392"><ele>390.0</ele><time>2026-04-05T13:39:32.001Z</time></trkpt><trkpt lat="45.42610317272781" lon="5.759489428315221"><ele>390.0</ele><time>2026-04-05T13:39:33.001Z</time></trkpt><trkpt lat="45.42620301300101" lon="5.759702189973815"><ele>390.33333333333337</ele><time>2026-04-05T13:39:34.001Z</time></trkpt><trkpt lat="45.42629905035597" lon="5.759879266731194"><ele>390.6666666666667</ele><time>2026-04-05T13:39:35.001Z</time></trkpt><trkpt lat="45.426402223944535" lon="5.760056149791702"><ele>391.0</ele><time>2026-04-05T13:39:36.001Z</time></trkpt><trkpt lat="45.4265152081812" lon="5.760240304199034"><ele>391.6666666666667</ele><time>2026-04-05T13:39:37.001Z</time></trkpt><trkpt lat="45.42663171769301" lon="5.760447267776767"><ele>392.33333333333337</ele><time>2026-04-05T13:39:38.001Z</time></trkpt><trkpt lat="45.42676256113963" lon="5.760654078235865"><ele>393.0</ele><time>2026-04-05T13:39:39.001Z</time></trkpt><trkpt lat="45.42690092687322" lon="5.760866451981341"><ele>393.0</ele><time>2026-04-05T13:39:40.001Z</time></trkpt><trkpt lat="45.42704560809535" lon="5.761074128052005"><ele>393.0</ele><time>2026-04-05T13:39:41.001Z</time></trkpt><trkpt lat="45.42721607797886" lon="5.761273033798071"><ele>393.0</ele><time>2026-04-05T13:39:42.001Z</time></trkpt><trkpt lat="45.42739504444818" lon="5.761472021791494"><ele>392.66666666666663</ele><time>2026-04-05T13:39:43.001Z</time></trkpt><trkpt lat="45.427573056052346" lon="5.761657573517443"><ele>392.3333333333333</ele><time>2026-04-05T13:39:44.001Z</time></trkpt><trkpt lat="45.42775412912351" lon="5.761839039099146"><ele>392.0</ele><time>2026-04-05T13:39:45.001Z</time></trkpt><trkpt lat="45.42793915546406" lon="5.762011325427278"><ele>392.66666666666663</ele><time>2026-04-05T13:39:46.001Z</time></trkpt><trkpt lat="45.428126407478025" lon="5.762175714921291"><ele>393.33333333333337</ele><time>2026-04-05T13:39:47.001Z</time></trkpt><trkpt lat="45.42832074896429" lon="5.7623339148214585"><ele>394.0</ele><time>2026-04-05T13:39:48.001Z</time></trkpt><trkpt lat="45.428520915817344" lon="5.7624894106299855"><ele>394.0</ele><time>2026-04-05T13:39:49.001Z</time></trkpt><trkpt lat="45.428726191881935" lon="5.762640136501258"><ele>394.0</ele><time>2026-04-05T13:39:50.001Z</time></trkpt><trkpt lat="45.4289353510389" lon="5.7627848285955094"><ele>394.5</ele><time>2026-04-05T13:39:51.001Z</time></trkpt><trkpt lat="45.429157716757146" lon="5.762918757819323"><ele>395.0</ele><time>2026-04-05T13:39:52.001Z</time></trkpt><trkpt lat="45.429374851349614" lon="5.763091626383054"><ele>395.0</ele><time>2026-04-05T13:39:53.001Z</time></trkpt><trkpt lat="45.429586703444805" lon="5.763235858905649"><ele>395.0</ele><time>2026-04-05T13:39:54.001Z</time></trkpt><trkpt lat="45.429806680119135" lon="5.763396165057957"><ele>396.0</ele><time>2026-04-05T13:39:55.001Z</time></trkpt><trkpt lat="45.43003221677144" lon="5.763552655319295"><ele>397.0</ele><time>2026-04-05T13:39:56.001Z</time></trkpt><trkpt lat="45.430258631666106" lon="5.763710908361903"><ele>397.5</ele><time>2026-04-05T13:39:57.001Z</time></trkpt><trkpt lat="45.43048477933807" lon="5.763873003575115"><ele>398.0</ele><time>2026-04-05T13:39:58.001Z</time></trkpt><trkpt lat="45.43071884993815" lon="5.76403674399914"><ele>398.0</ele><time>2026-04-05T13:39:59.001Z</time></trkpt><trkpt lat="45.43095255415326" lon="5.764189721347033"><ele>398.0</ele><time>2026-04-05T13:40:00.001Z</time></trkpt><trkpt lat="45.43119168028763" lon="5.764332628983332"><ele>398.0</ele><time>2026-04-05T13:40:01.001Z</time></trkpt><trkpt lat="45.43143041912719" lon="5.764471863022503"><ele>398.0</ele><time>2026-04-05T13:40:02.001Z</time></trkpt><trkpt lat="45.43167034063668" lon="5.764603357304224"><ele>398.0</ele><time>2026-04-05T13:40:03.001Z</time></trkpt><trkpt lat="45.431909121339814" lon="5.764731914454512"><ele>398.0</ele><time>2026-04-05T13:40:04.001Z</time></trkpt><trkpt lat="45.43215353177692" lon="5.764846756426425"><ele>399.5</ele><time>2026-04-05T13:40:05.001Z</time></trkpt><trkpt lat="45.43239416913205" lon="5.764955068954553"><ele>401.0</ele><time>2026-04-05T13:40:06.001Z</time></trkpt><trkpt lat="45.43263385865523" lon="5.765053972557219"><ele>401.0</ele><time>2026-04-05T13:40:07.001Z</time></trkpt><trkpt lat="45.4328653959088" lon="5.765142668166857"><ele>401.0</ele><time>2026-04-05T13:40:08.001Z</time></trkpt><trkpt lat="45.43310273922882" lon="5.76522793921487"><ele>400.5</ele><time>2026-04-05T13:40:09.001Z</time></trkpt><trkpt lat="45.43334540109615" lon="5.765305104048629"><ele>400.0</ele><time>2026-04-05T13:40:10.001Z</time></trkpt><trkpt lat="45.43359930024787" lon="5.7653672357367975"><ele>400.0</ele><time>2026-04-05T13:40:11.001Z</time></trkpt><trkpt lat="45.43384107667804" lon="5.7654303373056415"><ele>400.0</ele><time>2026-04-05T13:40:12.001Z</time></trkpt><trkpt lat="45.434061306406726" lon="5.765485693694663"><ele>400.0</ele><time>2026-04-05T13:40:13.001Z</time></trkpt><trkpt lat="45.434277801904535" lon="5.765525934239493"><ele>400.0</ele><time>2026-04-05T13:40:14.001Z</time></trkpt><trkpt lat="45.4344983842036" lon="5.765555270099042"><ele>400.0</ele><time>2026-04-05T13:40:15Z</time></trkpt><trkpt lat="45.434721787919536" lon="5.7655796579842"><ele>400.5</ele><time>2026-04-05T13:40:15.999Z</time></trkpt><trkpt lat="45.43495151435197" lon="5.765610259210681"><ele>401.0</ele><time>2026-04-05T13:40:17Z</time></trkpt><trkpt lat="45.43518952845475" lon="5.765625915546741"><ele>401.0</ele><time>2026-04-05T13:40:18Z</time></trkpt><trkpt lat="45.435433415134355" lon="5.765633144090344"><ele>401.0</ele><time>2026-04-05T13:40:19Z</time></trkpt><trkpt lat="45.43568256241734" lon="5.765633052807317"><ele>400.0</ele><time>2026-04-05T13:40:20Z</time></trkpt><trkpt lat="45.4359367652295" lon="5.765624502888066"><ele>399.0</ele><time>2026-04-05T13:40:21Z</time></trkpt><trkpt lat="45.436196785575625" lon="5.765609590414673"><ele>399.5</ele><time>2026-04-05T13:40:22Z</time></trkpt><trkpt lat="45.43646075053075" lon="5.765592117486166"><ele>400.0</ele><time>2026-04-05T13:40:23Z</time></trkpt><trkpt lat="45.43672366272521" lon="5.765566206005774"><ele>400.0</ele><time>2026-04-05T13:40:24Z</time></trkpt><trkpt lat="45.43698577315273" lon="5.7655700942156045"><ele>400.0</ele><time>2026-04-05T13:40:25Z</time></trkpt><trkpt lat="45.437230205193465" lon="5.765529372304476"><ele>400.0</ele><time>2026-04-05T13:40:26Z</time></trkpt><trkpt lat="45.43750312901118" lon="5.765506761161392"><ele>400.0</ele><time>2026-04-05T13:40:27Z</time></trkpt><trkpt lat="45.43776641314634" lon="5.765494280783036"><ele>397.5</ele><time>2026-04-05T13:40:28Z</time></trkpt><trkpt lat="45.43803094072178" lon="5.765481329333363"><ele>395.0</ele><time>2026-04-05T13:40:29Z</time></trkpt><trkpt lat="45.43829389500719" lon="5.7654618230405665"><ele>395.0</ele><time>2026-04-05T13:40:30Z</time></trkpt><trkpt lat="45.43855788761298" lon="5.765439257904732"><ele>395.0</ele><time>2026-04-05T13:40:31Z</time></trkpt><trkpt lat="45.438815347615595" lon="5.765409900813724"><ele>394.0</ele><time>2026-04-05T13:40:32Z</time></trkpt><trkpt lat="45.43905668049011" lon="5.765383463836232"><ele>393.0</ele><time>2026-04-05T13:40:33Z</time></trkpt><trkpt lat="45.43929927003251" lon="5.765353359712439"><ele>393.0</ele><time>2026-04-05T13:40:34Z</time></trkpt><trkpt lat="45.439542025690955" lon="5.765314774271401"><ele>393.0</ele><time>2026-04-05T13:40:35Z</time></trkpt><trkpt lat="45.4397827079988" lon="5.765271529924973"><ele>393.0</ele><time>2026-04-05T13:40:36Z</time></trkpt><trkpt lat="45.44002418074264" lon="5.765214595388363"><ele>393.0</ele><time>2026-04-05T13:40:37Z</time></trkpt><trkpt lat="45.44026651220469" lon="5.765148231385816"><ele>395.0</ele><time>2026-04-05T13:40:38Z</time></trkpt><trkpt lat="45.44050943511524" lon="5.765074991895093"><ele>397.0</ele><time>2026-04-05T13:40:39Z</time></trkpt><trkpt lat="45.44074604693727" lon="5.764996688362861"><ele>397.0</ele><time>2026-04-05T13:40:40Z</time></trkpt><trkpt lat="45.44098250436897" lon="5.76491988353959"><ele>397.0</ele><time>2026-04-05T13:40:41Z</time></trkpt><trkpt lat="45.44121114049567" lon="5.7648407264707515"><ele>397.33333333333337</ele><time>2026-04-05T13:40:42Z</time></trkpt><trkpt lat="45.44142539052577" lon="5.764764547334726"><ele>397.66666666666663</ele><time>2026-04-05T13:40:43Z</time></trkpt><trkpt lat="45.441619065719244" lon="5.764680130958645"><ele>398.0</ele><time>2026-04-05T13:40:44Z</time></trkpt><trkpt lat="45.44180565431011" lon="5.764597144932313"><ele>398.0</ele><time>2026-04-05T13:40:45Z</time></trkpt><trkpt lat="45.441993926485026" lon="5.764525367355257"><ele>398.0</ele><time>2026-04-05T13:40:46Z</time></trkpt><trkpt lat="45.442187525874914" lon="5.764446714437589"><ele>398.0</ele><time>2026-04-05T13:40:47Z</time></trkpt><trkpt lat="45.44238456737211" lon="5.7643678310244395"><ele>398.0</ele><time>2026-04-05T13:40:48Z</time></trkpt><trkpt lat="45.44258315232717" lon="5.7642878815940595"><ele>398.0</ele><time>2026-04-05T13:40:49Z</time></trkpt><trkpt lat="45.44278100122549" lon="5.764207728911881"><ele>398.0</ele><time>2026-04-05T13:40:50Z</time></trkpt><trkpt lat="45.44297648220975" lon="5.764134319774923"><ele>399.3333333333333</ele><time>2026-04-05T13:40:51Z</time></trkpt><trkpt lat="45.44317794456513" lon="5.764067040407042"><ele>400.66666666666663</ele><time>2026-04-05T13:40:52Z</time></trkpt><trkpt lat="45.4433808617773" lon="5.764012589608312"><ele>402.0</ele><time>2026-04-05T13:40:53Z</time></trkpt><trkpt lat="45.44358596528975" lon="5.763967949186815"><ele>402.0</ele><time>2026-04-05T13:40:54Z</time></trkpt><trkpt lat="45.44378728655978" lon="5.763935769160436"><ele>402.0</ele><time>2026-04-05T13:40:55Z</time></trkpt><trkpt lat="45.44398394117394" lon="5.763912010644749"><ele>402.0</ele><time>2026-04-05T13:40:56Z</time></trkpt><trkpt lat="45.44417842758907" lon="5.7638952610319265"><ele>402.0</ele><time>2026-04-05T13:40:57Z</time></trkpt><trkpt lat="45.44436733057551" lon="5.763881486955772"><ele>402.0</ele><time>2026-04-05T13:40:58Z</time></trkpt><trkpt lat="45.44455420824374" lon="5.763878689996353"><ele>402.0</ele><time>2026-04-05T13:40:59Z</time></trkpt><trkpt lat="45.44473883581232" lon="5.763878721022243"><ele>402.66666666666663</ele><time>2026-04-05T13:41:00Z</time></trkpt><trkpt lat="45.44491814057233" lon="5.763888017407342"><ele>403.3333333333333</ele><time>2026-04-05T13:41:01Z</time></trkpt><trkpt lat="45.445081770286215" lon="5.763883469725448"><ele>404.0</ele><time>2026-04-05T13:41:02Z</time></trkpt><trkpt lat="45.445237640018235" lon="5.763895579647235"><ele>404.0</ele><time>2026-04-05T13:41:03Z</time></trkpt><trkpt lat="45.44536825506086" lon="5.763923194134365"><ele>404.0</ele><time>2026-04-05T13:41:04Z</time></trkpt><trkpt lat="45.44549710188984" lon="5.763949670897358"><ele>404.0</ele><time>2026-04-05T13:41:05Z</time></trkpt><trkpt lat="45.44562020390172" lon="5.763952185971341"><ele>404.0</ele><time>2026-04-05T13:41:06Z</time></trkpt><trkpt lat="45.44571934047774" lon="5.763923938036988"><ele>404.16666666666663</ele><time>2026-04-05T13:41:07Z</time></trkpt><trkpt lat="45.445803617152926" lon="5.763915700565703"><ele>404.3333333333333</ele><time>2026-04-05T13:41:08Z</time></trkpt><trkpt lat="45.44588350460541" lon="5.763948978661624"><ele>404.5</ele><time>2026-04-05T13:41:09Z</time></trkpt><trkpt lat="45.44594996964023" lon="5.763968819309666"><ele>404.66666666666663</ele><time>2026-04-05T13:41:10Z</time></trkpt><trkpt lat="45.44603516250331" lon="5.763851926969487"><ele>404.8333333333333</ele><time>2026-04-05T13:41:12Z</time></trkpt><trkpt lat="45.44604523590218" lon="5.7637569467874945"><ele>405.0</ele><time>2026-04-05T13:41:13Z</time></trkpt><trkpt lat="45.44602143070952" lon="5.763670276391754"><ele>405.0</ele><time>2026-04-05T13:41:14Z</time></trkpt><trkpt lat="45.44596514307579" lon="5.763588820207172"><ele>405.0</ele><time>2026-04-05T13:41:15Z</time></trkpt><trkpt lat="45.44587774869087" lon="5.76351261166923"><ele>405.0</ele><time>2026-04-05T13:41:16Z</time></trkpt><trkpt lat="45.44576732978362" lon="5.7634234371386"><ele>405.0</ele><time>2026-04-05T13:41:17Z</time></trkpt><trkpt lat="45.44565184858311" lon="5.7633245906775485"><ele>405.0</ele><time>2026-04-05T13:41:18Z</time></trkpt><trkpt lat="45.44552937128637" lon="5.763230785787732"><ele>405.0</ele><time>2026-04-05T13:41:19Z</time></trkpt><trkpt lat="45.4453984987215" lon="5.763145932971492"><ele>405.0</ele><time>2026-04-05T13:41:20Z</time></trkpt><trkpt lat="45.44525643887673" lon="5.763051652831733"><ele>405.0</ele><time>2026-04-05T13:41:21Z</time></trkpt><trkpt lat="45.44510292313174" lon="5.762941907946062"><ele>405.0</ele><time>2026-04-05T13:41:22Z</time></trkpt><trkpt lat="45.444950885043276" lon="5.762825785142853"><ele>405.0</ele><time>2026-04-05T13:41:23Z</time></trkpt><trkpt lat="45.44479299730547" lon="5.762713202103568"><ele>405.0</ele><time>2026-04-05T13:41:24Z</time></trkpt><trkpt lat="45.44463393019497" lon="5.762605063894495"><ele>405.0</ele><time>2026-04-05T13:41:25Z</time></trkpt><trkpt lat="45.444475660306686" lon="5.762496388274593"><ele>405.0</ele><time>2026-04-05T13:41:26Z</time></trkpt><trkpt lat="45.4443190283305" lon="5.762388783993232"><ele>405.0</ele><time>2026-04-05T13:41:27Z</time></trkpt><trkpt lat="45.44416389515468" lon="5.76227809894914"><ele>405.0</ele><time>2026-04-05T13:41:28Z</time></trkpt><trkpt lat="45.44400900235842" lon="5.762163443527511"><ele>405.0</ele><time>2026-04-05T13:41:29Z</time></trkpt><trkpt lat="45.44385530868088" lon="5.762046031768046"><ele>405.0</ele><time>2026-04-05T13:41:30Z</time></trkpt><trkpt lat="45.44369975746844" lon="5.761926367103772"><ele>404.66666666666663</ele><time>2026-04-05T13:41:31Z</time></trkpt><trkpt lat="45.44354266805843" lon="5.761803549647455"><ele>404.3333333333333</ele><time>2026-04-05T13:41:32Z</time></trkpt><trkpt lat="45.443382437828504" lon="5.7616778815579694"><ele>404.0</ele><time>2026-04-05T13:41:33Z</time></trkpt><trkpt lat="45.44322366893513" lon="5.761546798598764"><ele>404.0</ele><time>2026-04-05T13:41:34Z</time></trkpt><trkpt lat="45.443065320663216" lon="5.761411663555272"><ele>404.0</ele><time>2026-04-05T13:41:35Z</time></trkpt><trkpt lat="45.44290683069557" lon="5.7612719120893585"><ele>404.0</ele><time>2026-04-05T13:41:36Z</time></trkpt><trkpt lat="45.442748782700235" lon="5.761127448410964"><ele>404.0</ele><time>2026-04-05T13:41:37Z</time></trkpt><trkpt lat="45.44258867325425" lon="5.760980755670122"><ele>404.0</ele><time>2026-04-05T13:41:38Z</time></trkpt><trkpt lat="45.442427220028904" lon="5.760834569239552"><ele>404.0</ele><time>2026-04-05T13:41:39Z</time></trkpt><trkpt lat="45.44226623426165" lon="5.760680209324596"><ele>404.66666666666663</ele><time>2026-04-05T13:41:40Z</time></trkpt><trkpt lat="45.44210532295605" lon="5.7605210958284925"><ele>405.33333333333337</ele><time>2026-04-05T13:41:41Z</time></trkpt><trkpt lat="45.44194440633715" lon="5.760356228824475"><ele>406.0</ele><time>2026-04-05T13:41:42Z</time></trkpt><trkpt lat="45.44178645588559" lon="5.760194633737891"><ele>406.0</ele><time>2026-04-05T13:41:43Z</time></trkpt><trkpt lat="45.44164000280655" lon="5.760039210344379"><ele>406.0</ele><time>2026-04-05T13:41:44.001Z</time></trkpt><trkpt lat="45.44150302109941" lon="5.75989772766795"><ele>406.0</ele><time>2026-04-05T13:41:45.001Z</time></trkpt><trkpt lat="45.44136670551791" lon="5.759763408605375"><ele>405.33333333333337</ele><time>2026-04-05T13:41:46.001Z</time></trkpt><trkpt lat="45.441233618302206" lon="5.759622133289662"><ele>404.66666666666663</ele><time>2026-04-05T13:41:47.001Z</time></trkpt><trkpt lat="45.44109648064015" lon="5.759484452678056"><ele>404.0</ele><time>2026-04-05T13:41:48.001Z</time></trkpt><trkpt lat="45.4409609103417" lon="5.759346274999336"><ele>404.0</ele><time>2026-04-05T13:41:49.001Z</time></trkpt><trkpt lat="45.44082638799236" lon="5.759210333785632"><ele>404.0</ele><time>2026-04-05T13:41:50.001Z</time></trkpt><trkpt lat="45.44069121709904" lon="5.759075100964229"><ele>404.0</ele><time>2026-04-05T13:41:51.001Z</time></trkpt><trkpt lat="45.44055671056775" lon="5.758942511874533"><ele>404.0</ele><time>2026-04-05T13:41:52.001Z</time></trkpt><trkpt lat="45.44042929283078" lon="5.7588029809794605"><ele>404.0</ele><time>2026-04-05T13:41:53.001Z</time></trkpt><trkpt lat="45.440293211897895" lon="5.758665332462793"><ele>404.0</ele><time>2026-04-05T13:41:54.001Z</time></trkpt><trkpt lat="45.44016754780224" lon="5.7585342694401715"><ele>404.0</ele><time>2026-04-05T13:41:55.001Z</time></trkpt><trkpt lat="45.4400294339865" lon="5.758413406301193"><ele>404.0</ele><time>2026-04-05T13:41:56.001Z</time></trkpt><trkpt lat="45.43990616154002" lon="5.758275061696231"><ele>404.0</ele><time>2026-04-05T13:41:57.001Z</time></trkpt><trkpt lat="45.43977892649596" lon="5.758145490962556"><ele>404.0</ele><time>2026-04-05T13:41:58.001Z</time></trkpt><trkpt lat="45.4396549794933" lon="5.758013860343436"><ele>404.0</ele><time>2026-04-05T13:41:59.001Z</time></trkpt><trkpt lat="45.43953725630044" lon="5.757881410069463"><ele>404.0</ele><time>2026-04-05T13:42:00.001Z</time></trkpt><trkpt lat="45.4394126393362" lon="5.757753512768669"><ele>403.75</ele><time>2026-04-05T13:42:01.001Z</time></trkpt><trkpt lat="45.43929049000235" lon="5.757628952321572"><ele>403.5</ele><time>2026-04-05T13:42:02.001Z</time></trkpt><trkpt lat="45.439162586585915" lon="5.757520818782832"><ele>403.25</ele><time>2026-04-05T13:42:03.001Z</time></trkpt><trkpt lat="45.43904195519625" lon="5.757403258692772"><ele>403.0</ele><time>2026-04-05T13:42:04.001Z</time></trkpt><trkpt lat="45.4389319056715" lon="5.757286200911125"><ele>403.0</ele><time>2026-04-05T13:42:05.001Z</time></trkpt><trkpt lat="45.43883449550449" lon="5.75717161790039"><ele>403.0</ele><time>2026-04-05T13:42:06.001Z</time></trkpt><trkpt lat="45.43872238197356" lon="5.757069196907186"><ele>403.0</ele><time>2026-04-05T13:42:07.001Z</time></trkpt><trkpt lat="45.43860193885883" lon="5.756982085826224"><ele>403.0</ele><time>2026-04-05T13:42:08.001Z</time></trkpt><trkpt lat="45.43847312581025" lon="5.7569122364086605"><ele>403.5</ele><time>2026-04-05T13:42:09.001Z</time></trkpt><trkpt lat="45.4383525134981" lon="5.756841526307489"><ele>404.0</ele><time>2026-04-05T13:42:10.001Z</time></trkpt><trkpt lat="45.43821370417342" lon="5.7567925438786025"><ele>404.5</ele><time>2026-04-05T13:42:11.001Z</time></trkpt><trkpt lat="45.43807867595256" lon="5.756740324935986"><ele>405.0</ele><time>2026-04-05T13:42:12.001Z</time></trkpt><trkpt lat="45.437944177791984" lon="5.7566787586568315"><ele>402.75</ele><time>2026-04-05T13:42:13.001Z</time></trkpt><trkpt lat="45.43781737589491" lon="5.756610848851005"><ele>400.5</ele><time>2026-04-05T13:42:14.001Z</time></trkpt><trkpt lat="45.43770050633899" lon="5.756544693401472"><ele>398.25</ele><time>2026-04-05T13:42:15.001Z</time></trkpt><trkpt lat="45.437587662407175" lon="5.756466206722525"><ele>396.0</ele><time>2026-04-05T13:42:16.001Z</time></trkpt><trkpt lat="45.437485423002734" lon="5.756370813957381"><ele>396.0</ele><time>2026-04-05T13:42:17.001Z</time></trkpt><trkpt lat="45.43738697517107" lon="5.756277267299603"><ele>396.0</ele><time>2026-04-05T13:42:18.001Z</time></trkpt><trkpt lat="45.437301798429345" lon="5.756193662587711"><ele>396.0</ele><time>2026-04-05T13:42:19.001Z</time></trkpt><trkpt lat="45.43721389132723" lon="5.756137154916848"><ele>396.0</ele><time>2026-04-05T13:42:20.001Z</time></trkpt><trkpt lat="45.437124650077926" lon="5.75605938541456"><ele>396.0</ele><time>2026-04-05T13:42:20.999Z</time></trkpt><trkpt lat="45.43702621777907" lon="5.755995779139977"><ele>396.20000000000005</ele><time>2026-04-05T13:42:21.999Z</time></trkpt><trkpt lat="45.43692381226733" lon="5.755934372667644"><ele>396.40000000000003</ele><time>2026-04-05T13:42:22.999Z</time></trkpt><trkpt lat="45.43682899646771" lon="5.755864731853319"><ele>396.6</ele><time>2026-04-05T13:42:23.999Z</time></trkpt><trkpt lat="45.43674972459781" lon="5.755786061740926"><ele>396.8</ele><time>2026-04-05T13:42:24.999Z</time></trkpt><trkpt lat="45.436689990239756" lon="5.755684171449083"><ele>397.0</ele><time>2026-04-05T13:42:25.999Z</time></trkpt><trkpt lat="45.43663813788798" lon="5.7556011321331475"><ele>397.0</ele><time>2026-04-05T13:42:26.999Z</time></trkpt><trkpt lat="45.43658560972082" lon="5.755495108812415"><ele>397.0</ele><time>2026-04-05T13:42:27.999Z</time></trkpt><trkpt lat="45.43652984112814" lon="5.755380609549985"><ele>397.0</ele><time>2026-04-05T13:42:28.999Z</time></trkpt><trkpt lat="45.436470237435806" lon="5.755269675752085"><ele>397.0</ele><time>2026-04-05T13:42:29.999Z</time></trkpt><trkpt lat="45.4364170579246" lon="5.755177180296089"><ele>397.0</ele><time>2026-04-05T13:42:30.999Z</time></trkpt><trkpt lat="45.43635035330255" lon="5.755089924129054"><ele>397.83333333333337</ele><time>2026-04-05T13:42:32Z</time></trkpt><trkpt lat="45.43630482962047" lon="5.75500164691779"><ele>398.6666666666667</ele><time>2026-04-05T13:42:33Z</time></trkpt><trkpt lat="45.4362626591884" lon="5.754921381750027"><ele>399.5</ele><time>2026-04-05T13:42:34Z</time></trkpt><trkpt lat="45.43623718395156" lon="5.75482566080179"><ele>400.33333333333337</ele><time>2026-04-05T13:42:35Z</time></trkpt><trkpt lat="45.43622439754762" lon="5.754721505898132"><ele>401.1666666666667</ele><time>2026-04-05T13:42:36Z</time></trkpt><trkpt lat="45.436234043287406" lon="5.75459974859736"><ele>402.0</ele><time>2026-04-05T13:42:37Z</time></trkpt><trkpt lat="45.436246883249815" lon="5.754499449012756"><ele>401.40000000000003</ele><time>2026-04-05T13:42:38Z</time></trkpt><trkpt lat="45.43625087380092" lon="5.754399848844516"><ele>400.8</ele><time>2026-04-05T13:42:39Z</time></trkpt><trkpt lat="45.43624864419687" lon="5.75421439018575"><ele>400.2</ele><time>2026-04-05T13:42:41Z</time></trkpt><trkpt lat="45.436287467405165" lon="5.754095295224365"><ele>399.6</ele><time>2026-04-05T13:42:45Z</time></trkpt><trkpt lat="45.43638561512321" lon="5.754087642608009"><ele>399.0</ele><time>2026-04-05T13:42:47Z</time></trkpt><trkpt lat="45.43645569950145" lon="5.754113790480654"><ele>399.0</ele><time>2026-04-05T13:42:48Z</time></trkpt><trkpt lat="45.43656651916366" lon="5.754080161152019"><ele>399.0</ele><time>2026-04-05T13:42:50Z</time></trkpt><trkpt lat="45.4366298127601" lon="5.754066547911551"><ele>399.0</ele><time>2026-04-05T13:42:51Z</time></trkpt><trkpt lat="45.4367016042379" lon="5.754039728228975"><ele>399.0</ele><time>2026-04-05T13:42:52Z</time></trkpt><trkpt lat="45.436780775033505" lon="5.753994437453945"><ele>399.0</ele><time>2026-04-05T13:42:53Z</time></trkpt><trkpt lat="45.436871515179035" lon="5.753961725119179"><ele>399.0</ele><time>2026-04-05T13:42:54Z</time></trkpt><trkpt lat="45.43693189334834" lon="5.753913997670358"><ele>399.0</ele><time>2026-04-05T13:42:55Z</time></trkpt><trkpt lat="45.43698696658709" lon="5.753869815555799"><ele>399.0</ele><time>2026-04-05T13:42:56Z</time></trkpt><trkpt lat="45.437105662127394" lon="5.753773900551763"><ele>399.0</ele><time>2026-04-05T13:42:58Z</time></trkpt><trkpt lat="45.43716697541812" lon="5.753713889318527"><ele>399.0</ele><time>2026-04-05T13:42:59Z</time></trkpt><trkpt lat="45.43721348227235" lon="5.753633126061166"><ele>399.0</ele><time>2026-04-05T13:43:00Z</time></trkpt><trkpt lat="45.43724643441358" lon="5.75353869881947"><ele>399.0</ele><time>2026-04-05T13:43:01Z</time></trkpt><trkpt lat="45.43729861366087" lon="5.753458948289036"><ele>397.8333333333333</ele><time>2026-04-05T13:43:02Z</time></trkpt><trkpt lat="45.43732322944589" lon="5.753358212174053"><ele>396.66666666666663</ele><time>2026-04-05T13:43:03Z</time></trkpt><trkpt lat="45.437328931898364" lon="5.753249811436083"><ele>395.5</ele><time>2026-04-05T13:43:04Z</time></trkpt><trkpt lat="45.437353038252404" lon="5.753152057078105"><ele>394.3333333333333</ele><time>2026-04-05T13:43:05Z</time></trkpt><trkpt lat="45.43738194536054" lon="5.753052249640776"><ele>393.16666666666663</ele><time>2026-04-05T13:43:06Z</time></trkpt><trkpt lat="45.437394815694205" lon="5.752938083691482"><ele>392.0</ele><time>2026-04-05T13:43:07Z</time></trkpt><trkpt lat="45.43742021403337" lon="5.75282744049414"><ele>392.0</ele><time>2026-04-05T13:43:08Z</time></trkpt><trkpt lat="45.437440826962884" lon="5.752714516925076"><ele>392.0</ele><time>2026-04-05T13:43:09Z</time></trkpt><trkpt lat="45.4374519179219" lon="5.75260451977061"><ele>392.0</ele><time>2026-04-05T13:43:10Z</time></trkpt><trkpt lat="45.43747378834427" lon="5.7525030583685055"><ele>392.0</ele><time>2026-04-05T13:43:11Z</time></trkpt><trkpt lat="45.43751684761623" lon="5.752421988595686"><ele>392.0</ele><time>2026-04-05T13:43:12Z</time></trkpt><trkpt lat="45.43770272811537" lon="5.752323995420972"><ele>391.66666666666663</ele><time>2026-04-05T13:43:15Z</time></trkpt><trkpt lat="45.43777122775023" lon="5.752315515370128"><ele>391.3333333333333</ele><time>2026-04-05T13:43:16Z</time></trkpt><trkpt lat="45.43784793782193" lon="5.752350991248899"><ele>391.0</ele><time>2026-04-05T13:43:17Z</time></trkpt><trkpt lat="45.43792530994201" lon="5.7523659617765"><ele>390.66666666666663</ele><time>2026-04-05T13:43:18Z</time></trkpt><trkpt lat="45.43801490195583" lon="5.752379178678449"><ele>390.3333333333333</ele><time>2026-04-05T13:43:19Z</time></trkpt><trkpt lat="45.43809684396908" lon="5.752390447768698"><ele>390.0</ele><time>2026-04-05T13:43:20Z</time></trkpt><trkpt lat="45.43819678491319" lon="5.7524032629634485"><ele>390.0</ele><time>2026-04-05T13:43:21Z</time></trkpt><trkpt lat="45.43828454474523" lon="5.752414516203201"><ele>390.0</ele><time>2026-04-05T13:43:22Z</time></trkpt><trkpt lat="45.43837744469329" lon="5.752408784976919"><ele>390.0</ele><time>2026-04-05T13:43:23Z</time></trkpt><trkpt lat="45.43846334953505" lon="5.752424107305476"><ele>390.0</ele><time>2026-04-05T13:43:24Z</time></trkpt><trkpt lat="45.43858928431258" lon="5.7524404469088966"><ele>390.0</ele><time>2026-04-05T13:43:26Z</time></trkpt><trkpt lat="45.43865602297266" lon="5.752445284048716"><ele>390.0</ele><time>2026-04-05T13:43:27Z</time></trkpt><trkpt lat="45.438734168910855" lon="5.752451930324589"><ele>390.0</ele><time>2026-04-05T13:43:28Z</time></trkpt><trkpt lat="45.43883202136999" lon="5.752462873375992"><ele>390.0</ele><time>2026-04-05T13:43:29Z</time></trkpt><trkpt lat="45.438930590171445" lon="5.752497357106122"><ele>390.0</ele><time>2026-04-05T13:43:30Z</time></trkpt><trkpt lat="45.43904048644445" lon="5.752511260275227"><ele>390.0</ele><time>2026-04-05T13:43:31Z</time></trkpt><trkpt lat="45.43915334191551" lon="5.752525824886933"><ele>390.25</ele><time>2026-04-05T13:43:32.001Z</time></trkpt><trkpt lat="45.439290126955235" lon="5.752522700247358"><ele>390.5</ele><time>2026-04-05T13:43:33.001Z</time></trkpt><trkpt lat="45.43941067436096" lon="5.75253968833679"><ele>390.75</ele><time>2026-04-05T13:43:34.001Z</time></trkpt><trkpt lat="45.43951104917842" lon="5.752576067489585"><ele>391.0</ele><time>2026-04-05T13:43:35.001Z</time></trkpt><trkpt lat="45.4396078960462" lon="5.752569676056904"><ele>391.0</ele><time>2026-04-05T13:43:36.001Z</time></trkpt><trkpt lat="45.43969084214054" lon="5.75258796739048"><ele>391.0</ele><time>2026-04-05T13:43:37.001Z</time></trkpt><trkpt lat="45.43976886260728" lon="5.752610814753647"><ele>391.0</ele><time>2026-04-05T13:43:38.001Z</time></trkpt><trkpt lat="45.43983294580045" lon="5.752619295083342"><ele>391.0</ele><time>2026-04-05T13:43:39.001Z</time></trkpt><trkpt lat="45.43998881682953" lon="5.752639921970952"><ele>391.0</ele><time>2026-04-05T13:43:41.001Z</time></trkpt><trkpt lat="45.44006166190934" lon="5.752649561785041"><ele>391.0</ele><time>2026-04-05T13:43:42.001Z</time></trkpt><trkpt lat="45.44015824954888" lon="5.752662343520817"><ele>391.0</ele><time>2026-04-05T13:43:43.001Z</time></trkpt><trkpt lat="45.44026164454788" lon="5.752676026098728"><ele>391.0</ele><time>2026-04-05T13:43:44.001Z</time></trkpt><trkpt lat="45.440406569909165" lon="5.752695204519621"><ele>391.0</ele><time>2026-04-05T13:43:45.001Z</time></trkpt><trkpt lat="45.440558837305794" lon="5.752715227711424"><ele>396.33333333333337</ele><time>2026-04-05T13:43:46.001Z</time></trkpt><trkpt lat="45.440717625863456" lon="5.752736000891052"><ele>401.66666666666663</ele><time>2026-04-05T13:43:47.001Z</time></trkpt><trkpt lat="45.4408686653797" lon="5.752755917274854"><ele>407.0</ele><time>2026-04-05T13:43:48.001Z</time></trkpt><trkpt lat="45.441021164747184" lon="5.752776545431879"><ele>407.0</ele><time>2026-04-05T13:43:49.001Z</time></trkpt><trkpt lat="45.44116812003158" lon="5.752796351510176"><ele>407.0</ele><time>2026-04-05T13:43:50.001Z</time></trkpt><trkpt lat="45.44131722824001" lon="5.75281503519582"><ele>407.0</ele><time>2026-04-05T13:43:51.001Z</time></trkpt><trkpt lat="45.441471887110715" lon="5.7528126265542046"><ele>407.0</ele><time>2026-04-05T13:43:52.001Z</time></trkpt><trkpt lat="45.44164014583752" lon="5.752837330343916"><ele>407.0</ele><time>2026-04-05T13:43:53.001Z</time></trkpt><trkpt lat="45.44182381518586" lon="5.752864294163097"><ele>407.0</ele><time>2026-04-05T13:43:54.001Z</time></trkpt><trkpt lat="45.44200899967286" lon="5.75291299186915"><ele>407.3333333333333</ele><time>2026-04-05T13:43:55.001Z</time></trkpt><trkpt lat="45.442195745564675" lon="5.752938738475542"><ele>407.66666666666663</ele><time>2026-04-05T13:43:56.001Z</time></trkpt><trkpt lat="45.44238711533158" lon="5.752965122576614"><ele>408.0</ele><time>2026-04-05T13:43:57.001Z</time></trkpt><trkpt lat="45.44257732123667" lon="5.752991346215492"><ele>408.0</ele><time>2026-04-05T13:43:58.001Z</time></trkpt><trkpt lat="45.44278295123207" lon="5.753017280167185"><ele>408.0</ele><time>2026-04-05T13:43:59.001Z</time></trkpt><trkpt lat="45.442999087155066" lon="5.7530456943855"><ele>408.0</ele><time>2026-04-05T13:44:00.001Z</time></trkpt><trkpt lat="45.44320966271537" lon="5.753051553942029"><ele>408.0</ele><time>2026-04-05T13:44:01.001Z</time></trkpt><trkpt lat="45.44341322298159" lon="5.753100933257769"><ele>408.0</ele><time>2026-04-05T13:44:02.001Z</time></trkpt><trkpt lat="45.44362305882715" lon="5.753129647619899"><ele>408.0</ele><time>2026-04-05T13:44:03.001Z</time></trkpt><trkpt lat="45.443822946446446" lon="5.753157353494559"><ele>408.0</ele><time>2026-04-05T13:44:04.001Z</time></trkpt><trkpt lat="45.444027567706975" lon="5.753162819091177"><ele>408.0</ele><time>2026-04-05T13:44:05.001Z</time></trkpt><trkpt lat="45.444234407308414" lon="5.75321285343481"><ele>408.0</ele><time>2026-04-05T13:44:06.001Z</time></trkpt><trkpt lat="45.44444231037995" lon="5.753240742031441"><ele>407.66666666666663</ele><time>2026-04-05T13:44:07.001Z</time></trkpt><trkpt lat="45.44465589759512" lon="5.75327009122864"><ele>407.3333333333333</ele><time>2026-04-05T13:44:08.001Z</time></trkpt><trkpt lat="45.44487138002402" lon="5.75329878746277"><ele>407.0</ele><time>2026-04-05T13:44:09.001Z</time></trkpt><trkpt lat="45.44510060917439" lon="5.753328806726986"><ele>407.0</ele><time>2026-04-05T13:44:10.001Z</time></trkpt><trkpt lat="45.44528463682898" lon="5.75334927687883"><ele>407.0</ele><time>2026-04-05T13:44:11.001Z</time></trkpt><trkpt lat="45.44548230697297" lon="5.753437588548399"><ele>407.0</ele><time>2026-04-05T13:44:12.001Z</time></trkpt><trkpt lat="45.44568384027051" lon="5.753402254861683"><ele>407.3333333333333</ele><time>2026-04-05T13:44:13.001Z</time></trkpt><trkpt lat="45.44589470148866" lon="5.75341813814419"><ele>407.66666666666663</ele><time>2026-04-05T13:44:14.001Z</time></trkpt><trkpt lat="45.44609782696924" lon="5.7534459495310974"><ele>408.0</ele><time>2026-04-05T13:44:15.001Z</time></trkpt><trkpt lat="45.44630584075498" lon="5.753469546367468"><ele>409.33333333333337</ele><time>2026-04-05T13:44:16.001Z</time></trkpt><trkpt lat="45.44648334217898" lon="5.75351494811573"><ele>410.6666666666667</ele><time>2026-04-05T13:44:17.001Z</time></trkpt><trkpt lat="45.44664335219986" lon="5.753535293692189"><ele>412.0</ele><time>2026-04-05T13:44:18.001Z</time></trkpt><trkpt lat="45.44679095130053" lon="5.753522145110555"><ele>412.0</ele><time>2026-04-05T13:44:19.001Z</time></trkpt><trkpt lat="45.4469209757882" lon="5.753518808363737"><ele>412.0</ele><time>2026-04-05T13:44:20.001Z</time></trkpt><trkpt lat="45.447052532338226" lon="5.75350567669664"><ele>412.0</ele><time>2026-04-05T13:44:21.001Z</time></trkpt><trkpt lat="45.44717619705279" lon="5.753442209203745"><ele>412.0</ele><time>2026-04-05T13:44:22.001Z</time></trkpt><trkpt lat="45.44728105150896" lon="5.753340734428114"><ele>413.75</ele><time>2026-04-05T13:44:23.001Z</time></trkpt><trkpt lat="45.44735836290278" lon="5.753210653822186"><ele>415.5</ele><time>2026-04-05T13:44:24.001Z</time></trkpt><trkpt lat="45.44739901153526" lon="5.753034369038625"><ele>417.25</ele><time>2026-04-05T13:44:25.001Z</time></trkpt><trkpt lat="45.44744852294218" lon="5.752849493058687"><ele>419.0</ele><time>2026-04-05T13:44:26.001Z</time></trkpt><trkpt lat="45.44747447604778" lon="5.752646338743336"><ele>419.66666666666663</ele><time>2026-04-05T13:44:27Z</time></trkpt><trkpt lat="45.447504019460524" lon="5.752437761045874"><ele>420.33333333333337</ele><time>2026-04-05T13:44:28Z</time></trkpt><trkpt lat="45.447540786459115" lon="5.752223743884879"><ele>421.0</ele><time>2026-04-05T13:44:29Z</time></trkpt><trkpt lat="45.44757708280323" lon="5.751998572183624"><ele>421.6666666666667</ele><time>2026-04-05T13:44:30Z</time></trkpt><trkpt lat="45.4476200089284" lon="5.751767311469092"><ele>422.33333333333337</ele><time>2026-04-05T13:44:31Z</time></trkpt><trkpt lat="45.44766234445567" lon="5.7515319537169205"><ele>423.0</ele><time>2026-04-05T13:44:32Z</time></trkpt><trkpt lat="45.44770342411673" lon="5.751296624309905"><ele>423.0</ele><time>2026-04-05T13:44:33Z</time></trkpt><trkpt lat="45.44774410473078" lon="5.751083220025375"><ele>423.0</ele><time>2026-04-05T13:44:34Z</time></trkpt><trkpt lat="45.44777493390783" lon="5.750899439498094"><ele>423.0</ele><time>2026-04-05T13:44:35Z</time></trkpt><trkpt lat="45.44780904598608" lon="5.750728065364475"><ele>423.0</ele><time>2026-04-05T13:44:36Z</time></trkpt><trkpt lat="45.44785440974253" lon="5.7505303585960315"><ele>423.4</ele><time>2026-04-05T13:44:37Z</time></trkpt><trkpt lat="45.4479167718646" lon="5.7504501815908595"><ele>423.79999999999995</ele><time>2026-04-05T13:44:38Z</time></trkpt><trkpt lat="45.44799027766934" lon="5.7503646138270055"><ele>424.2</ele><time>2026-04-05T13:44:39Z</time></trkpt><trkpt lat="45.44811343976185" lon="5.7503191891434495"><ele>424.6</ele><time>2026-04-05T13:44:40Z</time></trkpt><trkpt lat="45.44825159664048" lon="5.750311545699161"><ele>425.0</ele><time>2026-04-05T13:44:41Z</time></trkpt><trkpt lat="45.4483959153702" lon="5.750331635590638"><ele>427.3333333333333</ele><time>2026-04-05T13:44:42Z</time></trkpt><trkpt lat="45.44855323015026" lon="5.75033861172213"><ele>429.66666666666663</ele><time>2026-04-05T13:44:43Z</time></trkpt><trkpt lat="45.44871299814804" lon="5.750372318458916"><ele>432.0</ele><time>2026-04-05T13:44:44Z</time></trkpt><trkpt lat="45.44889210431494" lon="5.750400165750209"><ele>434.0</ele><time>2026-04-05T13:44:45Z</time></trkpt><trkpt lat="45.44907374656955" lon="5.750434069221429"><ele>436.0</ele><time>2026-04-05T13:44:46Z</time></trkpt><trkpt lat="45.4492574185896" lon="5.750472262781469"><ele>438.0</ele><time>2026-04-05T13:44:47Z</time></trkpt><trkpt lat="45.44943891300017" lon="5.75050889474384"><ele>438.0</ele><time>2026-04-05T13:44:48Z</time></trkpt><trkpt lat="45.44961460068615" lon="5.750550140774681"><ele>438.0</ele><time>2026-04-05T13:44:49Z</time></trkpt><trkpt lat="45.449770089370205" lon="5.750557624037908"><ele>438.0</ele><time>2026-04-05T13:44:50Z</time></trkpt><trkpt lat="45.44990119916644" lon="5.750571842546513"><ele>438.5</ele><time>2026-04-05T13:44:51Z</time></trkpt><trkpt lat="45.45002329921566" lon="5.750532449494943"><ele>439.0</ele><time>2026-04-05T13:44:52Z</time></trkpt><trkpt lat="45.45013735519035" lon="5.750433137695777"><ele>439.5</ele><time>2026-04-05T13:44:53Z</time></trkpt><trkpt lat="45.45022985389526" lon="5.75027952947234"><ele>440.0</ele><time>2026-04-05T13:44:54Z</time></trkpt><trkpt lat="45.45028715918997" lon="5.7500795439121015"><ele>438.66666666666663</ele><time>2026-04-05T13:44:55Z</time></trkpt><trkpt lat="45.450342280560655" lon="5.749874164274379"><ele>437.33333333333337</ele><time>2026-04-05T13:44:56Z</time></trkpt><trkpt lat="45.450400125553195" lon="5.749655191573857"><ele>436.0</ele><time>2026-04-05T13:44:57Z</time></trkpt><trkpt lat="45.45046723782699" lon="5.749433375227031"><ele>439.33333333333337</ele><time>2026-04-05T13:44:58Z</time></trkpt><trkpt lat="45.45052319457251" lon="5.749203909996332"><ele>442.66666666666663</ele><time>2026-04-05T13:44:59Z</time></trkpt><trkpt lat="45.4505571899007" lon="5.748953948177376"><ele>446.0</ele><time>2026-04-05T13:45:00Z</time></trkpt><trkpt lat="45.45056424944069" lon="5.748666475991537"><ele>446.3333333333333</ele><time>2026-04-05T13:45:01Z</time></trkpt><trkpt lat="45.450565967795086" lon="5.748393111243902"><ele>446.66666666666663</ele><time>2026-04-05T13:45:02Z</time></trkpt><trkpt lat="45.45057280988028" lon="5.748143047201597"><ele>447.0</ele><time>2026-04-05T13:45:03Z</time></trkpt><trkpt lat="45.45058279317258" lon="5.747880644289223"><ele>448.0</ele><time>2026-04-05T13:45:04Z</time></trkpt><trkpt lat="45.45059317753819" lon="5.747617607353898"><ele>449.0</ele><time>2026-04-05T13:45:05Z</time></trkpt><trkpt lat="45.45062632418145" lon="5.74736563752803"><ele>450.0</ele><time>2026-04-05T13:45:06Z</time></trkpt><trkpt lat="45.4507159297128" lon="5.747153047310375"><ele>450.0</ele><time>2026-04-05T13:45:07Z</time></trkpt><trkpt lat="45.45081244426566" lon="5.74694804676645"><ele>450.0</ele><time>2026-04-05T13:45:08Z</time></trkpt><trkpt lat="45.450928417619735" lon="5.746771527920629"><ele>450.0</ele><time>2026-04-05T13:45:09Z</time></trkpt><trkpt lat="45.45105848758247" lon="5.746618847099664"><ele>450.0</ele><time>2026-04-05T13:45:10Z</time></trkpt><trkpt lat="45.45119362382035" lon="5.746497807526323"><ele>450.0</ele><time>2026-04-05T13:45:11Z</time></trkpt><trkpt lat="45.451346801723155" lon="5.746420368390191"><ele>450.0</ele><time>2026-04-05T13:45:12Z</time></trkpt><trkpt lat="45.451512537637214" lon="5.746382444389036"><ele>452.33333333333337</ele><time>2026-04-05T13:45:13Z</time></trkpt><trkpt lat="45.451684298755154" lon="5.746393809230088"><ele>454.6666666666667</ele><time>2026-04-05T13:45:14Z</time></trkpt><trkpt lat="45.451863225902976" lon="5.746464565748083"><ele>457.0</ele><time>2026-04-05T13:45:15Z</time></trkpt><trkpt lat="45.45204623768915" lon="5.746545191342802"><ele>458.6666666666667</ele><time>2026-04-05T13:45:16Z</time></trkpt><trkpt lat="45.45223472516447" lon="5.746633464091897"><ele>460.33333333333337</ele><time>2026-04-05T13:45:17Z</time></trkpt><trkpt lat="45.452440490676324" lon="5.746706562716657"><ele>462.0</ele><time>2026-04-05T13:45:18Z</time></trkpt><trkpt lat="45.45262612896693" lon="5.746796774524692"><ele>462.0</ele><time>2026-04-05T13:45:19Z</time></trkpt><trkpt lat="45.452792788951534" lon="5.746867722364705"><ele>462.0</ele><time>2026-04-05T13:45:20Z</time></trkpt><trkpt lat="45.45295157140015" lon="5.746885572512623"><ele>462.0</ele><time>2026-04-05T13:45:21Z</time></trkpt><trkpt lat="45.453111051634224" lon="5.746825099903084"><ele>464.33333333333337</ele><time>2026-04-05T13:45:22Z</time></trkpt><trkpt lat="45.45324418193768" lon="5.7466825217348605"><ele>466.6666666666667</ele><time>2026-04-05T13:45:23Z</time></trkpt><trkpt lat="45.45334096522485" lon="5.746474204376411"><ele>469.0</ele><time>2026-04-05T13:45:24Z</time></trkpt><trkpt lat="45.45339970309659" lon="5.746208245879671"><ele>469.33333333333337</ele><time>2026-04-05T13:45:25Z</time></trkpt><trkpt lat="45.45347287782495" lon="5.74597145467502"><ele>469.66666666666663</ele><time>2026-04-05T13:45:26Z</time></trkpt><trkpt lat="45.45356461297074" lon="5.745780946657676"><ele>470.0</ele><time>2026-04-05T13:45:27Z</time></trkpt><trkpt lat="45.45367327243526" lon="5.745613540582853"><ele>475.0</ele><time>2026-04-05T13:45:28Z</time></trkpt><trkpt lat="45.45379711710629" lon="5.745464535144301"><ele>480.0</ele><time>2026-04-05T13:45:29Z</time></trkpt><trkpt lat="45.45394348466426" lon="5.745337420091813"><ele>485.0</ele><time>2026-04-05T13:45:30Z</time></trkpt><trkpt lat="45.45411302794428" lon="5.7452282323275865"><ele>484.66666666666663</ele><time>2026-04-05T13:45:31Z</time></trkpt><trkpt lat="45.454285717260404" lon="5.745120401944051"><ele>484.33333333333337</ele><time>2026-04-05T13:45:32Z</time></trkpt><trkpt lat="45.45446845587647" lon="5.745006955724916"><ele>484.0</ele><time>2026-04-05T13:45:33Z</time></trkpt><trkpt lat="45.45465433830333" lon="5.744891233057162"><ele>484.0</ele><time>2026-04-05T13:45:34Z</time></trkpt><trkpt lat="45.45484946660103" lon="5.744769720912891"><ele>484.0</ele><time>2026-04-05T13:45:35.001Z</time></trkpt><trkpt lat="45.45504598710557" lon="5.744647342030728"><ele>484.0</ele><time>2026-04-05T13:45:36.001Z</time></trkpt><trkpt lat="45.455245679734375" lon="5.74452298941999"><ele>484.0</ele><time>2026-04-05T13:45:37.001Z</time></trkpt><trkpt lat="45.45544084390989" lon="5.744380993391051"><ele>484.0</ele><time>2026-04-05T13:45:38.001Z</time></trkpt><trkpt lat="45.45564181130625" lon="5.744295820859042"><ele>484.0</ele><time>2026-04-05T13:45:39.001Z</time></trkpt><trkpt lat="45.455848374227415" lon="5.744230829653578"><ele>484.6666666666667</ele><time>2026-04-05T13:45:40.001Z</time></trkpt><trkpt lat="45.45606837820745" lon="5.744211788058754"><ele>485.33333333333337</ele><time>2026-04-05T13:45:41.001Z</time></trkpt><trkpt lat="45.45629529832087" lon="5.744245115738413"><ele>486.0</ele><time>2026-04-05T13:45:42.001Z</time></trkpt><trkpt lat="45.45651812378183" lon="5.744339521027531"><ele>492.5</ele><time>2026-04-05T13:45:43.001Z</time></trkpt><trkpt lat="45.45672068339509" lon="5.744465626905675"><ele>499.0</ele><time>2026-04-05T13:45:44.001Z</time></trkpt><trkpt lat="45.45694860025687" lon="5.744617655814009"><ele>498.0</ele><time>2026-04-05T13:45:45.001Z</time></trkpt><trkpt lat="45.457152090342824" lon="5.744756618068114"><ele>497.0</ele><time>2026-04-05T13:45:46.001Z</time></trkpt><trkpt lat="45.457363714855155" lon="5.744885309792124"><ele>497.0</ele><time>2026-04-05T13:45:47.001Z</time></trkpt><trkpt lat="45.45758512136334" lon="5.744977873839019"><ele>497.0</ele><time>2026-04-05T13:45:48.001Z</time></trkpt><trkpt lat="45.457804672074886" lon="5.745093801600765"><ele>501.5</ele><time>2026-04-05T13:45:49.001Z</time></trkpt><trkpt lat="45.45801514847311" lon="5.74522398695506"><ele>506.0</ele><time>2026-04-05T13:45:50.001Z</time></trkpt><trkpt lat="45.45820307717263" lon="5.745410511016458"><ele>506.0</ele><time>2026-04-05T13:45:51.001Z</time></trkpt><trkpt lat="45.45833270378971" lon="5.745683714284775"><ele>506.0</ele><time>2026-04-05T13:45:52.001Z</time></trkpt><trkpt lat="45.45847069389424" lon="5.745948109795904"><ele>507.0</ele><time>2026-04-05T13:45:53.001Z</time></trkpt><trkpt lat="45.458592608490825" lon="5.746232361877965"><ele>508.0</ele><time>2026-04-05T13:45:54.001Z</time></trkpt><trkpt lat="45.45870674999768" lon="5.746517326246513"><ele>507.0</ele><time>2026-04-05T13:45:55.001Z</time></trkpt><trkpt lat="45.45883667942457" lon="5.746768824349784"><ele>506.0</ele><time>2026-04-05T13:45:56.001Z</time></trkpt><trkpt lat="45.45897542913529" lon="5.746983936557562"><ele>505.0</ele><time>2026-04-05T13:45:57.001Z</time></trkpt><trkpt lat="45.45916009291426" lon="5.74714146782226"><ele>509.5</ele><time>2026-04-05T13:45:58.001Z</time></trkpt><trkpt lat="45.45937382563331" lon="5.747263387773413"><ele>514.0</ele><time>2026-04-05T13:45:59.001Z</time></trkpt><trkpt lat="45.45959311414588" lon="5.747324003451354"><ele>514.0</ele><time>2026-04-05T13:46:00.001Z</time></trkpt><trkpt lat="45.459815149563106" lon="5.7473102443767266"><ele>514.0</ele><time>2026-04-05T13:46:01.001Z</time></trkpt><trkpt lat="45.460030899016786" lon="5.747260928064456"><ele>514.0</ele><time>2026-04-05T13:46:02.001Z</time></trkpt><trkpt lat="45.46023866902129" lon="5.747198634599464"><ele>516.3333333333334</ele><time>2026-04-05T13:46:03.001Z</time></trkpt><trkpt lat="45.460451230415714" lon="5.7471861821608865"><ele>518.6666666666666</ele><time>2026-04-05T13:46:04.001Z</time></trkpt><trkpt lat="45.46066144725608" lon="5.7471667895255"><ele>521.0</ele><time>2026-04-05T13:46:05.001Z</time></trkpt><trkpt lat="45.460874896179845" lon="5.747186414520436"><ele>521.0</ele><time>2026-04-05T13:46:06.001Z</time></trkpt><trkpt lat="45.461084617087785" lon="5.747241978451218"><ele>521.0</ele><time>2026-04-05T13:46:07.001Z</time></trkpt><trkpt lat="45.46129171530923" lon="5.747324108973271"><ele>521.0</ele><time>2026-04-05T13:46:08.001Z</time></trkpt><trkpt lat="45.46149000409023" lon="5.7474400219099255"><ele>520.3333333333333</ele><time>2026-04-05T13:46:09.001Z</time></trkpt><trkpt lat="45.46167719512962" lon="5.747580515097371"><ele>519.6666666666666</ele><time>2026-04-05T13:46:10.001Z</time></trkpt><trkpt lat="45.461861780145135" lon="5.747741928797206"><ele>519.0</ele><time>2026-04-05T13:46:11.001Z</time></trkpt><trkpt lat="45.46204079482125" lon="5.747920094742451"><ele>520.0</ele><time>2026-04-05T13:46:12.001Z</time></trkpt><trkpt lat="45.46220888029384" lon="5.748115986832957"><ele>521.0</ele><time>2026-04-05T13:46:13.001Z</time></trkpt><trkpt lat="45.46237058500084" lon="5.74833170662949"><ele>522.0</ele><time>2026-04-05T13:46:14.001Z</time></trkpt><trkpt lat="45.46250143838777" lon="5.748523873956389"><ele>526.6666666666666</ele><time>2026-04-05T13:46:15.001Z</time></trkpt><trkpt lat="45.4626218427" lon="5.748744189561445"><ele>531.3333333333333</ele><time>2026-04-05T13:46:16.001Z</time></trkpt><trkpt lat="45.46271757741105" lon="5.74898268067113"><ele>536.0</ele><time>2026-04-05T13:46:17.001Z</time></trkpt><trkpt lat="45.46278836487224" lon="5.749255644312938"><ele>537.3333333333333</ele><time>2026-04-05T13:46:18.001Z</time></trkpt><trkpt lat="45.46283662646564" lon="5.749554301705945"><ele>538.6666666666666</ele><time>2026-04-05T13:46:19.001Z</time></trkpt><trkpt lat="45.46289007115135" lon="5.74985627751985"><ele>540.0</ele><time>2026-04-05T13:46:20.001Z</time></trkpt><trkpt lat="45.46294074962485" lon="5.750166874442983"><ele>537.5</ele><time>2026-04-05T13:46:21.001Z</time></trkpt><trkpt lat="45.463047222786244" lon="5.750455974321992"><ele>535.0</ele><time>2026-04-05T13:46:22.001Z</time></trkpt><trkpt lat="45.463186033401136" lon="5.750739744012575"><ele>535.0</ele><time>2026-04-05T13:46:23.001Z</time></trkpt><trkpt lat="45.46331483774799" lon="5.75102582646019"><ele>535.0</ele><time>2026-04-05T13:46:24.001Z</time></trkpt><trkpt lat="45.4634314003811" lon="5.751314615286346"><ele>538.0</ele><time>2026-04-05T13:46:25.001Z</time></trkpt><trkpt lat="45.46354429432035" lon="5.751602054005482"><ele>541.0</ele><time>2026-04-05T13:46:26.001Z</time></trkpt><trkpt lat="45.463649954069396" lon="5.751901850286937"><ele>544.5</ele><time>2026-04-05T13:46:27.001Z</time></trkpt><trkpt lat="45.46370911077004" lon="5.752228554261118"><ele>548.0</ele><time>2026-04-05T13:46:28.001Z</time></trkpt><trkpt lat="45.463771194817745" lon="5.7525536714593795"><ele>547.0</ele><time>2026-04-05T13:46:29.001Z</time></trkpt><trkpt lat="45.46379844876295" lon="5.752871398283102"><ele>546.0</ele><time>2026-04-05T13:46:30.001Z</time></trkpt><trkpt lat="45.46383346641785" lon="5.75316114677664"><ele>545.0</ele><time>2026-04-05T13:46:31.001Z</time></trkpt><trkpt lat="45.46390721889411" lon="5.753429033388568"><ele>546.0</ele><time>2026-04-05T13:46:32.001Z</time></trkpt><trkpt lat="45.46403297068476" lon="5.753665969782859"><ele>547.0</ele><time>2026-04-05T13:46:33Z</time></trkpt><trkpt lat="45.46418950641818" lon="5.753871042981953"><ele>548.0</ele><time>2026-04-05T13:46:34Z</time></trkpt><trkpt lat="45.46438909829497" lon="5.754034333347089"><ele>548.0</ele><time>2026-04-05T13:46:35Z</time></trkpt><trkpt lat="45.46458799574811" lon="5.754199172182448"><ele>548.0</ele><time>2026-04-05T13:46:36Z</time></trkpt><trkpt lat="45.464788635322705" lon="5.754377124682622"><ele>547.0</ele><time>2026-04-05T13:46:37Z</time></trkpt><trkpt lat="45.46498752243381" lon="5.7545598430732205"><ele>546.0</ele><time>2026-04-05T13:46:38Z</time></trkpt><trkpt lat="45.4651921356197" lon="5.754749650465452"><ele>546.0</ele><time>2026-04-05T13:46:39Z</time></trkpt><trkpt lat="45.465393858231295" lon="5.754960059531949"><ele>546.0</ele><time>2026-04-05T13:46:40Z</time></trkpt><trkpt lat="45.465601562549736" lon="5.75515637932576"><ele>545.5</ele><time>2026-04-05T13:46:41Z</time></trkpt><trkpt lat="45.46581212545497" lon="5.7553342954128635"><ele>545.0</ele><time>2026-04-05T13:46:42Z</time></trkpt><trkpt lat="45.46600969381824" lon="5.75553598264887"><ele>545.0</ele><time>2026-04-05T13:46:43Z</time></trkpt><trkpt lat="45.46621002807494" lon="5.755721013874097"><ele>545.0</ele><time>2026-04-05T13:46:44Z</time></trkpt><trkpt lat="45.46640092648171" lon="5.755917189617381"><ele>545.0</ele><time>2026-04-05T13:46:45Z</time></trkpt><trkpt lat="45.46659733980052" lon="5.7560971810012695"><ele>545.0</ele><time>2026-04-05T13:46:46Z</time></trkpt><trkpt lat="45.466799554946334" lon="5.756270496371472"><ele>540.0</ele><time>2026-04-05T13:46:47Z</time></trkpt><trkpt lat="45.46712193600447" lon="5.756205004778339"><ele>535.0</ele><time>2026-04-05T13:46:48Z</time></trkpt><trkpt lat="45.46737221720857" lon="5.756322082534932"><ele>535.0</ele><time>2026-04-05T13:46:49Z</time></trkpt><trkpt lat="45.467619864362824" lon="5.756433817762173"><ele>535.0</ele><time>2026-04-05T13:46:50Z</time></trkpt><trkpt lat="45.46786603558578" lon="5.756547198166569"><ele>531.0</ele><time>2026-04-05T13:46:51Z</time></trkpt><trkpt lat="45.4680941361351" lon="5.756656801956469"><ele>527.0</ele><time>2026-04-05T13:46:52Z</time></trkpt><trkpt lat="45.468313840733344" lon="5.756762391097458"><ele>527.0</ele><time>2026-04-05T13:46:53Z</time></trkpt><trkpt lat="45.4685263905292" lon="5.756868174224546"><ele>527.0</ele><time>2026-04-05T13:46:54Z</time></trkpt><trkpt lat="45.468726712076794" lon="5.756960519450386"><ele>527.0</ele><time>2026-04-05T13:46:55Z</time></trkpt><trkpt lat="45.46892342559075" lon="5.757065299018919"><ele>529.0</ele><time>2026-04-05T13:46:56Z</time></trkpt><trkpt lat="45.46908702837355" lon="5.757210638821271"><ele>531.0</ele><time>2026-04-05T13:46:57Z</time></trkpt><trkpt lat="45.469215714836956" lon="5.757435490730136"><ele>533.0</ele><time>2026-04-05T13:46:58Z</time></trkpt><trkpt lat="45.469344440818666" lon="5.757647437715882"><ele>535.0</ele><time>2026-04-05T13:46:59Z</time></trkpt><trkpt lat="45.46943322671153" lon="5.757927211838215"><ele>537.0</ele><time>2026-04-05T13:47:00Z</time></trkpt><trkpt lat="45.4694939725501" lon="5.758202316950532"><ele>539.0</ele><time>2026-04-05T13:47:01Z</time></trkpt><trkpt lat="45.46960053706356" lon="5.7584446275197045"><ele>538.0</ele><time>2026-04-05T13:47:02Z</time></trkpt><trkpt lat="45.469758390363225" lon="5.758643509952127"><ele>537.0</ele><time>2026-04-05T13:47:03Z</time></trkpt><trkpt lat="45.46993219337725" lon="5.758817581309843"><ele>536.0</ele><time>2026-04-05T13:47:04Z</time></trkpt><trkpt lat="45.470092505404565" lon="5.758998123260595"><ele>536.0</ele><time>2026-04-05T13:47:05Z</time></trkpt><trkpt lat="45.47024132072211" lon="5.7591611614761"><ele>536.0</ele><time>2026-04-05T13:47:06Z</time></trkpt><trkpt lat="45.47037882858308" lon="5.759305644854092"><ele>536.0</ele><time>2026-04-05T13:47:07Z</time></trkpt><trkpt lat="45.47050939441993" lon="5.75944226849863"><ele>534.3333333333333</ele><time>2026-04-05T13:47:08Z</time></trkpt><trkpt lat="45.4706317746048" lon="5.759581461451771"><ele>532.6666666666666</ele><time>2026-04-05T13:47:09Z</time></trkpt><trkpt lat="45.47075379265157" lon="5.759710173871526"><ele>531.0</ele><time>2026-04-05T13:47:10Z</time></trkpt><trkpt lat="45.470875938599576" lon="5.759849691588158"><ele>531.0</ele><time>2026-04-05T13:47:11Z</time></trkpt><trkpt lat="45.470991582812694" lon="5.759987681852809"><ele>531.0</ele><time>2026-04-05T13:47:12Z</time></trkpt><trkpt lat="45.4711069359874" lon="5.76012232019232"><ele>531.0</ele><time>2026-04-05T13:47:13Z</time></trkpt><trkpt lat="45.47123422217394" lon="5.760245072947467"><ele>532.3333333333334</ele><time>2026-04-05T13:47:14Z</time></trkpt><trkpt lat="45.47136433069057" lon="5.760359309914957"><ele>533.6666666666667</ele><time>2026-04-05T13:47:15Z</time></trkpt><trkpt lat="45.47150306196606" lon="5.760461811100247"><ele>535.0</ele><time>2026-04-05T13:47:16Z</time></trkpt><trkpt lat="45.471673289555746" lon="5.760512803540863"><ele>535.0</ele><time>2026-04-05T13:47:17Z</time></trkpt><trkpt lat="45.47184604221163" lon="5.760570541239899"><ele>535.0</ele><time>2026-04-05T13:47:18Z</time></trkpt><trkpt lat="45.472016544906076" lon="5.760652430651835"><ele>535.0</ele><time>2026-04-05T13:47:19Z</time></trkpt><trkpt lat="45.47217914903383" lon="5.760763566393037"><ele>536.0</ele><time>2026-04-05T13:47:20Z</time></trkpt><trkpt lat="45.47235064563658" lon="5.760889329901412"><ele>537.0</ele><time>2026-04-05T13:47:21Z</time></trkpt><trkpt lat="45.472521996568325" lon="5.761022519977836"><ele>538.0</ele><time>2026-04-05T13:47:22Z</time></trkpt><trkpt lat="45.47271504082193" lon="5.7611482150590625"><ele>538.0</ele><time>2026-04-05T13:47:23Z</time></trkpt><trkpt lat="45.472884063384534" lon="5.761285082871285"><ele>538.0</ele><time>2026-04-05T13:47:24Z</time></trkpt><trkpt lat="45.47305992143451" lon="5.76142600898011"><ele>538.0</ele><time>2026-04-05T13:47:25Z</time></trkpt><trkpt lat="45.47323885168463" lon="5.76156294297563"><ele>537.6666666666667</ele><time>2026-04-05T13:47:26Z</time></trkpt><trkpt lat="45.47341980583514" lon="5.761701501725689"><ele>537.3333333333334</ele><time>2026-04-05T13:47:27Z</time></trkpt><trkpt lat="45.47359771651849" lon="5.76184158098896"><ele>537.0</ele><time>2026-04-05T13:47:28Z</time></trkpt><trkpt lat="45.47378019063422" lon="5.761978163531822"><ele>537.0</ele><time>2026-04-05T13:47:29Z</time></trkpt><trkpt lat="45.47395457805553" lon="5.762111189092349"><ele>537.0</ele><time>2026-04-05T13:47:30Z</time></trkpt><trkpt lat="45.47412449220119" lon="5.762239834332417"><ele>537.0</ele><time>2026-04-05T13:47:31Z</time></trkpt><trkpt lat="45.47430039461233" lon="5.762351572586538"><ele>537.0</ele><time>2026-04-05T13:47:32Z</time></trkpt><trkpt lat="45.47448194124805" lon="5.762421501288577"><ele>537.0</ele><time>2026-04-05T13:47:33.001Z</time></trkpt><trkpt lat="45.47467110382611" lon="5.7624420264086345"><ele>537.0</ele><time>2026-04-05T13:47:34.001Z</time></trkpt><trkpt lat="45.47486260475254" lon="5.762446183380744"><ele>537.0</ele><time>2026-04-05T13:47:35.001Z</time></trkpt><trkpt lat="45.475049312195594" lon="5.762460750149122"><ele>537.0</ele><time>2026-04-05T13:47:36.001Z</time></trkpt><trkpt lat="45.475245330928026" lon="5.76247991133974"><ele>537.0</ele><time>2026-04-05T13:47:37.001Z</time></trkpt><trkpt lat="45.47544729948804" lon="5.762507417271509"><ele>538.0</ele><time>2026-04-05T13:47:38.001Z</time></trkpt><trkpt lat="45.47564752044574" lon="5.762537876210345"><ele>539.0</ele><time>2026-04-05T13:47:39.001Z</time></trkpt><trkpt lat="45.47584940170303" lon="5.762567390948293"><ele>540.0</ele><time>2026-04-05T13:47:40.001Z</time></trkpt><trkpt lat="45.47605404857349" lon="5.762604650067248"><ele>540.0</ele><time>2026-04-05T13:47:41.001Z</time></trkpt><trkpt lat="45.47624534069254" lon="5.762632449189361"><ele>540.0</ele><time>2026-04-05T13:47:42.001Z</time></trkpt><trkpt lat="45.476453562174946" lon="5.762648529344155"><ele>540.0</ele><time>2026-04-05T13:47:43.001Z</time></trkpt><trkpt lat="45.47663869114032" lon="5.762668668457082"><ele>540.3333333333334</ele><time>2026-04-05T13:47:44.001Z</time></trkpt><trkpt lat="45.476807382475464" lon="5.762688528414411"><ele>540.6666666666667</ele><time>2026-04-05T13:47:45.001Z</time></trkpt><trkpt lat="45.476963169064575" lon="5.762699772123732"><ele>541.0</ele><time>2026-04-05T13:47:46.001Z</time></trkpt><trkpt lat="45.47709295398749" lon="5.762699339542521"><ele>541.8333333333334</ele><time>2026-04-05T13:47:47.001Z</time></trkpt><trkpt lat="45.4771957278281" lon="5.762697170477452"><ele>542.6666666666667</ele><time>2026-04-05T13:47:48.001Z</time></trkpt><trkpt lat="45.47726083788613" lon="5.762695936266366"><ele>543.5</ele><time>2026-04-05T13:47:49.001Z</time></trkpt><trkpt lat="45.477354931110796" lon="5.762670014367806"><ele>544.3333333333334</ele><time>2026-04-05T13:47:51.001Z</time></trkpt><trkpt lat="45.4774228454768" lon="5.762669610996927"><ele>545.1666666666666</ele><time>2026-04-05T13:47:52.001Z</time></trkpt><trkpt lat="45.4775053943329" lon="5.762668979385935"><ele>546.0</ele><time>2026-04-05T13:47:53.001Z</time></trkpt><trkpt lat="45.477604572386284" lon="5.762665435019368"><ele>546.0</ele><time>2026-04-05T13:47:54.001Z</time></trkpt><trkpt lat="45.47773365998396" lon="5.762654554213045"><ele>546.0</ele><time>2026-04-05T13:47:55.001Z</time></trkpt><trkpt lat="45.47785886964945" lon="5.762642227334073"><ele>546.0</ele><time>2026-04-05T13:47:56.001Z</time></trkpt><trkpt lat="45.477995653344955" lon="5.762621399512997"><ele>546.0</ele><time>2026-04-05T13:47:57.001Z</time></trkpt><trkpt lat="45.47812992056319" lon="5.762602114042976"><ele>546.3333333333334</ele><time>2026-04-05T13:47:58.001Z</time></trkpt><trkpt lat="45.47827792327788" lon="5.7625897795261025"><ele>546.6666666666667</ele><time>2026-04-05T13:47:59.001Z</time></trkpt><trkpt lat="45.47842466729119" lon="5.762592896726196"><ele>547.0</ele><time>2026-04-05T13:48:00.001Z</time></trkpt><trkpt lat="45.47857842333262" lon="5.7625609306695145"><ele>547.0</ele><time>2026-04-05T13:48:01.001Z</time></trkpt><trkpt lat="45.47873151393348" lon="5.762541870309856"><ele>547.0</ele><time>2026-04-05T13:48:02.001Z</time></trkpt><trkpt lat="45.47888223005887" lon="5.762520144025375"><ele>547.0</ele><time>2026-04-05T13:48:03.001Z</time></trkpt><trkpt lat="45.4790253190668" lon="5.762500213551286"><ele>547.0</ele><time>2026-04-05T13:48:04.001Z</time></trkpt><trkpt lat="45.47916299629877" lon="5.7625032228470126"><ele>547.2</ele><time>2026-04-05T13:48:05.001Z</time></trkpt><trkpt lat="45.47928313259443" lon="5.762490797184635"><ele>547.4000000000001</ele><time>2026-04-05T13:48:06.001Z</time></trkpt><trkpt lat="45.479390112838004" lon="5.762474221164315"><ele>547.5999999999999</ele><time>2026-04-05T13:48:07.001Z</time></trkpt><trkpt lat="45.47947553162146" lon="5.7624666744915585"><ele>547.8</ele><time>2026-04-05T13:48:08.001Z</time></trkpt><trkpt lat="45.4795431650215" lon="5.762459644953984"><ele>548.0</ele><time>2026-04-05T13:48:09.001Z</time></trkpt><trkpt lat="45.479628130874765" lon="5.762462344881457"><ele>548.1999999999999</ele><time>2026-04-05T13:48:10.001Z</time></trkpt><trkpt lat="45.479715287867144" lon="5.762483366123405"><ele>548.4</ele><time>2026-04-05T13:48:11.001Z</time></trkpt><trkpt lat="45.47979814821023" lon="5.762516810291444"><ele>548.5999999999999</ele><time>2026-04-05T13:48:12.001Z</time></trkpt><trkpt lat="45.47987919043081" lon="5.762565226501423"><ele>548.8</ele><time>2026-04-05T13:48:13.001Z</time></trkpt><trkpt lat="45.47996263134055" lon="5.762649864245387"><ele>549.0</ele><time>2026-04-05T13:48:14.001Z</time></trkpt><trkpt lat="45.48004301076224" lon="5.762769566604143"><ele>549.0</ele><time>2026-04-05T13:48:15.001Z</time></trkpt><trkpt lat="45.4801268562891" lon="5.76291892935999"><ele>549.0</ele><time>2026-04-05T13:48:16.001Z</time></trkpt><trkpt lat="45.480195957184165" lon="5.763107471972799"><ele>549.0</ele><time>2026-04-05T13:48:17.001Z</time></trkpt><trkpt lat="45.480266103192214" lon="5.763314663862937"><ele>549.0</ele><time>2026-04-05T13:48:18.001Z</time></trkpt><trkpt lat="45.48033930168414" lon="5.763538051794372"><ele>551.3333333333334</ele><time>2026-04-05T13:48:19.001Z</time></trkpt><trkpt lat="45.480420143351076" lon="5.763757971930425"><ele>553.6666666666667</ele><time>2026-04-05T13:48:20.001Z</time></trkpt><trkpt lat="45.48049467610999" lon="5.7639769956740015"><ele>556.0</ele><time>2026-04-05T13:48:21.001Z</time></trkpt><trkpt lat="45.480566837322854" lon="5.764183051907635"><ele>553.5</ele><time>2026-04-05T13:48:22.001Z</time></trkpt><trkpt lat="45.48063273866551" lon="5.764372259143679"><ele>551.0</ele><time>2026-04-05T13:48:23.001Z</time></trkpt><trkpt lat="45.48069480514562" lon="5.764564872348069"><ele>548.5</ele><time>2026-04-05T13:48:24.001Z</time></trkpt><trkpt lat="45.4807529401165" lon="5.764749521794015"><ele>546.0</ele><time>2026-04-05T13:48:25.001Z</time></trkpt><trkpt lat="45.480817617337784" lon="5.7649313431139815"><ele>546.0</ele><time>2026-04-05T13:48:26.001Z</time></trkpt><trkpt lat="45.48089300664477" lon="5.765096307519281"><ele>546.0</ele><time>2026-04-05T13:48:27.001Z</time></trkpt><trkpt lat="45.48100097600461" lon="5.765222630157188"><ele>546.0</ele><time>2026-04-05T13:48:28.001Z</time></trkpt><trkpt lat="45.481123819434615" lon="5.765313522298574"><ele>546.0</ele><time>2026-04-05T13:48:29.001Z</time></trkpt><trkpt lat="45.48127256203462" lon="5.765391290119687"><ele>546.3333333333334</ele><time>2026-04-05T13:48:30.001Z</time></trkpt><trkpt lat="45.48142019698423" lon="5.765428803790217"><ele>546.6666666666667</ele><time>2026-04-05T13:48:31.001Z</time></trkpt><trkpt lat="45.48156951221903" lon="5.765467394602563"><ele>547.0</ele><time>2026-04-05T13:48:32.001Z</time></trkpt><trkpt lat="45.48171714456693" lon="5.765512687521197"><ele>547.0</ele><time>2026-04-05T13:48:33.001Z</time></trkpt><trkpt lat="45.48185774439289" lon="5.765567110608957"><ele>547.0</ele><time>2026-04-05T13:48:34.001Z</time></trkpt><trkpt lat="45.48198410739712" lon="5.765625143222819"><ele>547.0</ele><time>2026-04-05T13:48:35.001Z</time></trkpt><trkpt lat="45.48210171726074" lon="5.76567849432552"><ele>547.0</ele><time>2026-04-05T13:48:36.001Z</time></trkpt><trkpt lat="45.48221021684249" lon="5.765722684196347"><ele>546.2</ele><time>2026-04-05T13:48:37.001Z</time></trkpt><trkpt lat="45.48230903841388" lon="5.7657759821519186"><ele>545.4000000000001</ele><time>2026-04-05T13:48:38.001Z</time></trkpt><trkpt lat="45.48240091913544" lon="5.765824181715831"><ele>544.5999999999999</ele><time>2026-04-05T13:48:39Z</time></trkpt><trkpt lat="45.48249492629219" lon="5.765882448682258"><ele>543.8</ele><time>2026-04-05T13:48:40Z</time></trkpt><trkpt lat="45.482593496041844" lon="5.765941533912381"><ele>543.0</ele><time>2026-04-05T13:48:41Z</time></trkpt><trkpt lat="45.4826847671938" lon="5.766025651676765"><ele>543.25</ele><time>2026-04-05T13:48:42Z</time></trkpt><trkpt lat="45.48278318336996" lon="5.766119957540146"><ele>543.5</ele><time>2026-04-05T13:48:43Z</time></trkpt><trkpt lat="45.48289126683609" lon="5.766222771664412"><ele>543.75</ele><time>2026-04-05T13:48:44Z</time></trkpt><trkpt lat="45.48301256411364" lon="5.766339387594688"><ele>544.0</ele><time>2026-04-05T13:48:45Z</time></trkpt><trkpt lat="45.48315022836948" lon="5.766464261918544"><ele>544.0</ele><time>2026-04-05T13:48:46Z</time></trkpt><trkpt lat="45.48329474387964" lon="5.76660205868322"><ele>544.0</ele><time>2026-04-05T13:48:47Z</time></trkpt><trkpt lat="45.48344061066975" lon="5.766740074481381"><ele>544.0</ele><time>2026-04-05T13:48:48Z</time></trkpt><trkpt lat="45.48358383852555" lon="5.7668750288168535"><ele>545.5</ele><time>2026-04-05T13:48:49Z</time></trkpt><trkpt lat="45.48371216080342" lon="5.766991859759736"><ele>547.0</ele><time>2026-04-05T13:48:50Z</time></trkpt><trkpt lat="45.483829693735274" lon="5.767090207068592"><ele>548.5</ele><time>2026-04-05T13:48:51Z</time></trkpt><trkpt lat="45.483926321601686" lon="5.76715453064712"><ele>550.0</ele><time>2026-04-05T13:48:52Z</time></trkpt><trkpt lat="45.48399562369492" lon="5.767180629766322"><ele>550.0</ele><time>2026-04-05T13:48:53Z</time></trkpt><trkpt lat="45.48406779714716" lon="5.767191677812553"><ele>550.0</ele><time>2026-04-05T13:48:54Z</time></trkpt><trkpt lat="45.484139053184556" lon="5.7671889123691"><ele>550.0</ele><time>2026-04-05T13:48:55Z</time></trkpt><trkpt lat="45.484213169651795" lon="5.767180196383674"><ele>550.0</ele><time>2026-04-05T13:48:56Z</time></trkpt><trkpt lat="45.48428815102761" lon="5.7671661724397785"><ele>550.0</ele><time>2026-04-05T13:48:57Z</time></trkpt><trkpt lat="45.484377185571375" lon="5.767138408556749"><ele>550.0</ele><time>2026-04-05T13:48:58Z</time></trkpt><trkpt lat="45.48447516949224" lon="5.7670977125197735"><ele>550.0</ele><time>2026-04-05T13:48:59Z</time></trkpt><trkpt lat="45.48457872731174" lon="5.767052273493299"><ele>550.0</ele><time>2026-04-05T13:49:00Z</time></trkpt><trkpt lat="45.48468962073506" lon="5.767018320691605"><ele>550.0</ele><time>2026-04-05T13:49:01Z</time></trkpt><trkpt lat="45.48480850147747" lon="5.767014612607974"><ele>550.0</ele><time>2026-04-05T13:49:02Z</time></trkpt><trkpt lat="45.48492306174358" lon="5.767061485095935"><ele>550.25</ele><time>2026-04-05T13:49:03Z</time></trkpt><trkpt lat="45.48504164806035" lon="5.767106795074708"><ele>550.5</ele><time>2026-04-05T13:49:04Z</time></trkpt><trkpt lat="45.485164088452514" lon="5.767158020984051"><ele>550.75</ele><time>2026-04-05T13:49:05Z</time></trkpt><trkpt lat="45.48529219308397" lon="5.76721794794393"><ele>551.0</ele><time>2026-04-05T13:49:06Z</time></trkpt><trkpt lat="45.48542988698828" lon="5.767276968787789"><ele>551.0</ele><time>2026-04-05T13:49:07Z</time></trkpt><trkpt lat="45.48556207523986" lon="5.767328330293045"><ele>551.0</ele><time>2026-04-05T13:49:08Z</time></trkpt><trkpt lat="45.48568884206021" lon="5.767391420709002"><ele>551.0</ele><time>2026-04-05T13:49:09Z</time></trkpt><trkpt lat="45.48582056590265" lon="5.767449439230492"><ele>551.0</ele><time>2026-04-05T13:49:10Z</time></trkpt><trkpt lat="45.48594585593201" lon="5.767528557736095"><ele>551.0</ele><time>2026-04-05T13:49:11Z</time></trkpt><trkpt lat="45.48605484911343" lon="5.767643165929414"><ele>551.0</ele><time>2026-04-05T13:49:12Z</time></trkpt><trkpt lat="45.486189053308436" lon="5.767772741907368"><ele>551.0</ele><time>2026-04-05T13:49:13Z</time></trkpt><trkpt lat="45.48630741514572" lon="5.767903859957159"><ele>551.0</ele><time>2026-04-05T13:49:14Z</time></trkpt><trkpt lat="45.48643082716854" lon="5.768056227671568"><ele>551.0</ele><time>2026-04-05T13:49:15Z</time></trkpt><trkpt lat="45.48656400127822" lon="5.768214301958952"><ele>551.0</ele><time>2026-04-05T13:49:16Z</time></trkpt><trkpt lat="45.4867001868366" lon="5.768366524727523"><ele>551.0</ele><time>2026-04-05T13:49:17Z</time></trkpt><trkpt lat="45.48683204752466" lon="5.768507771821733"><ele>551.5</ele><time>2026-04-05T13:49:18Z</time></trkpt><trkpt lat="45.48694723071084" lon="5.768639199880476"><ele>552.0</ele><time>2026-04-05T13:49:19Z</time></trkpt><trkpt lat="45.4870366362144" lon="5.768772722960531"><ele>552.5</ele><time>2026-04-05T13:49:20Z</time></trkpt><trkpt lat="45.48710994767681" lon="5.768916255983914"><ele>553.0</ele><time>2026-04-05T13:49:21Z</time></trkpt><trkpt lat="45.48718566835673" lon="5.7690488300627525"><ele>553.0</ele><time>2026-04-05T13:49:22Z</time></trkpt><trkpt lat="45.4872599583714" lon="5.7691643570956375"><ele>553.0</ele><time>2026-04-05T13:49:23Z</time></trkpt><trkpt lat="45.48733072207969" lon="5.769248007979168"><ele>553.0</ele><time>2026-04-05T13:49:24Z</time></trkpt><trkpt lat="45.487396055360904" lon="5.769285494221665"><ele>553.0</ele><time>2026-04-05T13:49:25Z</time></trkpt><trkpt lat="45.48750780385686" lon="5.769347712916886"><ele>553.0</ele><time>2026-04-05T13:49:27Z</time></trkpt><trkpt lat="45.48759353873927" lon="5.76938098115136"><ele>555.0</ele><time>2026-04-05T13:49:28Z</time></trkpt><trkpt lat="45.48769160087366" lon="5.7694140227397535"><ele>557.0</ele><time>2026-04-05T13:49:29Z</time></trkpt><trkpt lat="45.48780821906272" lon="5.769460956518811"><ele>559.0</ele><time>2026-04-05T13:49:30.001Z</time></trkpt><trkpt lat="45.48793420172806" lon="5.769514529155046"><ele>561.0</ele><time>2026-04-05T13:49:31.001Z</time></trkpt><trkpt lat="45.488068994766536" lon="5.769609519222873"><ele>561.0</ele><time>2026-04-05T13:49:32.001Z</time></trkpt><trkpt lat="45.48820956614536" lon="5.769714612277755"><ele>561.0</ele><time>2026-04-05T13:49:33.001Z</time></trkpt><trkpt lat="45.48833914356721" lon="5.769797994367079"><ele>561.0</ele><time>2026-04-05T13:49:34.001Z</time></trkpt><trkpt lat="45.488459557362674" lon="5.769900412373641"><ele>561.0</ele><time>2026-04-05T13:49:35.001Z</time></trkpt><trkpt lat="45.48857739310926" lon="5.7700008891042796"><ele>561.0</ele><time>2026-04-05T13:49:36.001Z</time></trkpt><trkpt lat="45.488691926715454" lon="5.770084580044932"><ele>561.0</ele><time>2026-04-05T13:49:37.001Z</time></trkpt><trkpt lat="45.48881503286876" lon="5.770131404216264"><ele>561.0</ele><time>2026-04-05T13:49:38.001Z</time></trkpt><trkpt lat="45.48893216105294" lon="5.7701342179633865"><ele>561.0</ele><time>2026-04-05T13:49:39.001Z</time></trkpt><trkpt lat="45.489034210121616" lon="5.770109092365912"><ele>561.3333333333334</ele><time>2026-04-05T13:49:40.001Z</time></trkpt><trkpt lat="45.489111043716896" lon="5.7700816391576355"><ele>561.6666666666666</ele><time>2026-04-05T13:49:41.001Z</time></trkpt><trkpt lat="45.489176374736715" lon="5.770049252201418"><ele>562.0</ele><time>2026-04-05T13:49:42.001Z</time></trkpt><trkpt lat="45.48924168795849" lon="5.770017647262827"><ele>562.3333333333333</ele><time>2026-04-05T13:49:43.001Z</time></trkpt><trkpt lat="45.489371854471834" lon="5.769967450135385"><ele>562.6666666666666</ele><time>2026-04-05T13:49:45.001Z</time></trkpt><trkpt lat="45.48945610293278" lon="5.769953283138595"><ele>563.0</ele><time>2026-04-05T13:49:46.001Z</time></trkpt><trkpt lat="45.48955928883704" lon="5.769945135321052"><ele>563.5</ele><time>2026-04-05T13:49:47.001Z</time></trkpt><trkpt lat="45.48967886040799" lon="5.769943552345119"><ele>564.0</ele><time>2026-04-05T13:49:48.001Z</time></trkpt><trkpt lat="45.48981681571027" lon="5.7699470125686085"><ele>564.5</ele><time>2026-04-05T13:49:49.001Z</time></trkpt><trkpt lat="45.489965049426345" lon="5.7699395220931615"><ele>565.0</ele><time>2026-04-05T13:49:50.001Z</time></trkpt><trkpt lat="45.49011886447705" lon="5.769933852745221"><ele>565.0</ele><time>2026-04-05T13:49:51.001Z</time></trkpt><trkpt lat="45.49028101221268" lon="5.769926911699961"><ele>565.0</ele><time>2026-04-05T13:49:52.001Z</time></trkpt><trkpt lat="45.4904541137373" lon="5.769920795351073"><ele>565.0</ele><time>2026-04-05T13:49:53.001Z</time></trkpt><trkpt lat="45.490600466529465" lon="5.769908812825065"><ele>565.0</ele><time>2026-04-05T13:49:54.001Z</time></trkpt><trkpt lat="45.4907487137518" lon="5.76994611562241"><ele>565.0</ele><time>2026-04-05T13:49:55.001Z</time></trkpt><trkpt lat="45.49090917912029" lon="5.769973103485487"><ele>565.0</ele><time>2026-04-05T13:49:56.001Z</time></trkpt><trkpt lat="45.491078108395286" lon="5.769984985089455"><ele>565.0</ele><time>2026-04-05T13:49:57.001Z</time></trkpt><trkpt lat="45.49124607175718" lon="5.7700346149761375"><ele>565.0</ele><time>2026-04-05T13:49:58.001Z</time></trkpt><trkpt lat="45.49140057665009" lon="5.770124324438273"><ele>565.0</ele><time>2026-04-05T13:49:59.001Z</time></trkpt><trkpt lat="45.4915511960674" lon="5.7701991383658715"><ele>566.6666666666667</ele><time>2026-04-05T13:50:00.001Z</time></trkpt><trkpt lat="45.49171623706058" lon="5.77028476118204"><ele>568.3333333333334</ele><time>2026-04-05T13:50:01.001Z</time></trkpt><trkpt lat="45.49188527405339" lon="5.770379212552656"><ele>570.0</ele><time>2026-04-05T13:50:02.001Z</time></trkpt><trkpt lat="45.492050408538624" lon="5.770457156900929"><ele>568.6666666666666</ele><time>2026-04-05T13:50:03.001Z</time></trkpt><trkpt lat="45.49220371632458" lon="5.770546371515029"><ele>567.3333333333333</ele><time>2026-04-05T13:50:04.001Z</time></trkpt><trkpt lat="45.49235910193879" lon="5.770630860535479"><ele>566.0</ele><time>2026-04-05T13:50:05.001Z</time></trkpt><trkpt lat="45.492515046381214" lon="5.77070099011959"><ele>566.0</ele><time>2026-04-05T13:50:06.001Z</time></trkpt><trkpt lat="45.49267780717277" lon="5.770733884836867"><ele>566.0</ele><time>2026-04-05T13:50:07.001Z</time></trkpt><trkpt lat="45.49282151752811" lon="5.770727232004333"><ele>566.0</ele><time>2026-04-05T13:50:08.001Z</time></trkpt><trkpt lat="45.49292277256299" lon="5.770702962066441"><ele>566.0</ele><time>2026-04-05T13:50:09.001Z</time></trkpt><trkpt lat="45.493055924160174" lon="5.770643523669944"><ele>567.25</ele><time>2026-04-05T13:50:11.001Z</time></trkpt><trkpt lat="45.49312873398515" lon="5.77061175184674"><ele>568.5</ele><time>2026-04-05T13:50:12.001Z</time></trkpt><trkpt lat="45.49321831958972" lon="5.770582152302171"><ele>569.75</ele><time>2026-04-05T13:50:13.001Z</time></trkpt><trkpt lat="45.49329827924159" lon="5.770552853499698"><ele>571.0</ele><time>2026-04-05T13:50:14.001Z</time></trkpt><trkpt lat="45.49354276285845" lon="5.770539931508765"><ele>571.0</ele><time>2026-04-05T13:50:16.001Z</time></trkpt><trkpt lat="45.49370736180957" lon="5.770466912513441"><ele>571.0</ele><time>2026-04-05T13:50:17.001Z</time></trkpt><trkpt lat="45.4938592415368" lon="5.770383369030175"><ele>571.0</ele><time>2026-04-05T13:50:18.001Z</time></trkpt><trkpt lat="45.49403109823497" lon="5.770325034951541"><ele>572.6666666666667</ele><time>2026-04-05T13:50:19.001Z</time></trkpt><trkpt lat="45.494217587538714" lon="5.7702477444520595"><ele>574.3333333333334</ele><time>2026-04-05T13:50:20.001Z</time></trkpt><trkpt lat="45.494388459497806" lon="5.770187676756592"><ele>576.0</ele><time>2026-04-05T13:50:21.001Z</time></trkpt><trkpt lat="45.49456430308917" lon="5.7701354924610575"><ele>577.3333333333334</ele><time>2026-04-05T13:50:22.001Z</time></trkpt><trkpt lat="45.494734193715715" lon="5.7700902961179725"><ele>578.6666666666667</ele><time>2026-04-05T13:50:23.001Z</time></trkpt><trkpt lat="45.49490095515322" lon="5.770030754285066"><ele>580.0</ele><time>2026-04-05T13:50:24.001Z</time></trkpt><trkpt lat="45.49506510400194" lon="5.769969581340603"><ele>580.0</ele><time>2026-04-05T13:50:25.001Z</time></trkpt><trkpt lat="45.49523524619248" lon="5.76993876898594"><ele>580.0</ele><time>2026-04-05T13:50:26.001Z</time></trkpt><trkpt lat="45.49539456697217" lon="5.7698892508601"><ele>580.0</ele><time>2026-04-05T13:50:27.001Z</time></trkpt><trkpt lat="45.49557707160999" lon="5.769836165880551"><ele>579.3333333333334</ele><time>2026-04-05T13:50:28.001Z</time></trkpt><trkpt lat="45.495749636686554" lon="5.7697644006214714"><ele>578.6666666666666</ele><time>2026-04-05T13:50:29.001Z</time></trkpt><trkpt lat="45.4959148113404" lon="5.769723703924264"><ele>578.0</ele><time>2026-04-05T13:50:30.001Z</time></trkpt><trkpt lat="45.49606611062191" lon="5.769744707224415"><ele>578.0</ele><time>2026-04-05T13:50:31.001Z</time></trkpt><trkpt lat="45.49622166768531" lon="5.769736321858313"><ele>578.0</ele><time>2026-04-05T13:50:32.001Z</time></trkpt><trkpt lat="45.496390601310296" lon="5.7697798064540775"><ele>578.0</ele><time>2026-04-05T13:50:33.001Z</time></trkpt><trkpt lat="45.496564070106174" lon="5.769811729149877"><ele>577.3333333333333</ele><time>2026-04-05T13:50:34.001Z</time></trkpt><trkpt lat="45.49673300558283" lon="5.769843974583498"><ele>576.6666666666666</ele><time>2026-04-05T13:50:35.001Z</time></trkpt><trkpt lat="45.4969269959485" lon="5.769882550556392"><ele>576.0</ele><time>2026-04-05T13:50:36.001Z</time></trkpt><trkpt lat="45.49711150496468" lon="5.769913623921444"><ele>575.3333333333334</ele><time>2026-04-05T13:50:37.001Z</time></trkpt><trkpt lat="45.49730465150725" lon="5.769945089587563"><ele>574.6666666666667</ele><time>2026-04-05T13:50:38.001Z</time></trkpt><trkpt lat="45.497498701109436" lon="5.769979950164854"><ele>574.0</ele><time>2026-04-05T13:50:39.001Z</time></trkpt><trkpt lat="45.49769299740627" lon="5.770016616087138"><ele>574.0</ele><time>2026-04-05T13:50:40.002Z</time></trkpt><trkpt lat="45.49788351061671" lon="5.770024573058471"><ele>574.0</ele><time>2026-04-05T13:50:41.002Z</time></trkpt><trkpt lat="45.49805852876532" lon="5.769989478638465"><ele>574.0</ele><time>2026-04-05T13:50:42.002Z</time></trkpt><trkpt lat="45.498229013829544" lon="5.769921335413959"><ele>573.3333333333334</ele><time>2026-04-05T13:50:43.002Z</time></trkpt><trkpt lat="45.4984121720902" lon="5.76985969499783"><ele>572.6666666666666</ele><time>2026-04-05T13:50:44.002Z</time></trkpt><trkpt lat="45.4986023465149" lon="5.769792896774466"><ele>572.0</ele><time>2026-04-05T13:50:45Z</time></trkpt><trkpt lat="45.4987959658099" lon="5.76972153962289"><ele>571.6666666666666</ele><time>2026-04-05T13:50:46Z</time></trkpt><trkpt lat="45.49899881619223" lon="5.769683948713604"><ele>571.3333333333334</ele><time>2026-04-05T13:50:47Z</time></trkpt><trkpt lat="45.49919606987293" lon="5.769606712847892"><ele>571.0</ele><time>2026-04-05T13:50:48Z</time></trkpt><trkpt lat="45.49940427364266" lon="5.76954828034828"><ele>570.6666666666667</ele><time>2026-04-05T13:50:49Z</time></trkpt><trkpt lat="45.49961692493375" lon="5.769480005869625"><ele>570.3333333333334</ele><time>2026-04-05T13:50:50Z</time></trkpt><trkpt lat="45.499828437419005" lon="5.769412917528204"><ele>570.0</ele><time>2026-04-05T13:50:51Z</time></trkpt><trkpt lat="45.50003691259315" lon="5.769342550999616"><ele>568.6666666666666</ele><time>2026-04-05T13:50:52Z</time></trkpt><trkpt lat="45.50023403460179" lon="5.769277799479658"><ele>567.3333333333333</ele><time>2026-04-05T13:50:53Z</time></trkpt><trkpt lat="45.50042567610054" lon="5.7692434760695965"><ele>566.0</ele><time>2026-04-05T13:50:54Z</time></trkpt><trkpt lat="45.500607505889086" lon="5.769163696537992"><ele>566.0</ele><time>2026-04-05T13:50:55Z</time></trkpt><trkpt lat="45.500789128066714" lon="5.769111745165863"><ele>566.0</ele><time>2026-04-05T13:50:56Z</time></trkpt><trkpt lat="45.50096401445709" lon="5.769059951388038"><ele>566.0</ele><time>2026-04-05T13:50:57Z</time></trkpt><trkpt lat="45.501137009496766" lon="5.769017198413139"><ele>566.5</ele><time>2026-04-05T13:50:58Z</time></trkpt><trkpt lat="45.501299478038824" lon="5.768982194776093"><ele>567.0</ele><time>2026-04-05T13:50:59Z</time></trkpt><trkpt lat="45.50144116575251" lon="5.768948188480435"><ele>567.5</ele><time>2026-04-05T13:51:00Z</time></trkpt><trkpt lat="45.50156233358185" lon="5.76887763966424"><ele>568.0</ele><time>2026-04-05T13:51:01Z</time></trkpt><trkpt lat="45.50166005966264" lon="5.768759754467593"><ele>568.0</ele><time>2026-04-05T13:51:02Z</time></trkpt><trkpt lat="45.50172053271823" lon="5.768584585173135"><ele>568.0</ele><time>2026-04-05T13:51:03Z</time></trkpt><trkpt lat="45.501729586118714" lon="5.768363017476303"><ele>568.0</ele><time>2026-04-05T13:51:04Z</time></trkpt><trkpt lat="45.50171872574483" lon="5.76815222767332"><ele>568.0</ele><time>2026-04-05T13:51:05Z</time></trkpt><trkpt lat="45.501704699708625" lon="5.767955292375911"><ele>567.5</ele><time>2026-04-05T13:51:06Z</time></trkpt><trkpt lat="45.501723897904135" lon="5.7677760964483635"><ele>567.0</ele><time>2026-04-05T13:51:07Z</time></trkpt><trkpt lat="45.501756749302075" lon="5.767591145931891"><ele>566.5</ele><time>2026-04-05T13:51:08Z</time></trkpt><trkpt lat="45.50182399367989" lon="5.767409865970894"><ele>566.0</ele><time>2026-04-05T13:51:09Z</time></trkpt><trkpt lat="45.50192809861516" lon="5.767249589263573"><ele>565.6666666666666</ele><time>2026-04-05T13:51:10Z</time></trkpt><trkpt lat="45.50206604977933" lon="5.767118108248309"><ele>565.3333333333334</ele><time>2026-04-05T13:51:11Z</time></trkpt><trkpt lat="45.50221956295348" lon="5.767030709352099"><ele>565.0</ele><time>2026-04-05T13:51:12Z</time></trkpt><trkpt lat="45.50238882522097" lon="5.767013772635048"><ele>569.3333333333334</ele><time>2026-04-05T13:51:13Z</time></trkpt><trkpt lat="45.502518119023" lon="5.767032294231084"><ele>573.6666666666666</ele><time>2026-04-05T13:51:14Z</time></trkpt><trkpt lat="45.50266712260328" lon="5.767077991630809"><ele>578.0</ele><time>2026-04-05T13:51:15Z</time></trkpt><trkpt lat="45.50283752500401" lon="5.76711663891297"><ele>579.0</ele><time>2026-04-05T13:51:16Z</time></trkpt><trkpt lat="45.5030224399781" lon="5.7672033741053825"><ele>580.0</ele><time>2026-04-05T13:51:17Z</time></trkpt><trkpt lat="45.50320245875754" lon="5.767267381650807"><ele>581.0</ele><time>2026-04-05T13:51:18Z</time></trkpt><trkpt lat="45.50338639616014" lon="5.767327352764312"><ele>581.0</ele><time>2026-04-05T13:51:19Z</time></trkpt><trkpt lat="45.50357274379415" lon="5.767388520269585"><ele>581.0</ele><time>2026-04-05T13:51:20Z</time></trkpt><trkpt lat="45.50376349644276" lon="5.767445065133158"><ele>581.0</ele><time>2026-04-05T13:51:21Z</time></trkpt><trkpt lat="45.50395487802681" lon="5.767478325906171"><ele>576.3333333333333</ele><time>2026-04-05T13:51:22Z</time></trkpt><trkpt lat="45.50414603025169" lon="5.767512894973678"><ele>571.6666666666666</ele><time>2026-04-05T13:51:23Z</time></trkpt><trkpt lat="45.50434750345561" lon="5.7675334959454245"><ele>567.0</ele><time>2026-04-05T13:51:24Z</time></trkpt><trkpt lat="45.50455062373679" lon="5.767562047023014"><ele>569.3333333333334</ele><time>2026-04-05T13:51:25Z</time></trkpt><trkpt lat="45.50475691786889" lon="5.767625841401531"><ele>571.6666666666667</ele><time>2026-04-05T13:51:26Z</time></trkpt><trkpt lat="45.50495814358561" lon="5.767667899877728"><ele>574.0</ele><time>2026-04-05T13:51:27Z</time></trkpt><trkpt lat="45.505142139608914" lon="5.76772821072247"><ele>574.0</ele><time>2026-04-05T13:51:28Z</time></trkpt><trkpt lat="45.50531142479016" lon="5.767816036221214"><ele>574.0</ele><time>2026-04-05T13:51:29Z</time></trkpt><trkpt lat="45.505476181704715" lon="5.767937874221172"><ele>574.0</ele><time>2026-04-05T13:51:30Z</time></trkpt><trkpt lat="45.505623406527945" lon="5.7680900319603925"><ele>572.6666666666667</ele><time>2026-04-05T13:51:31Z</time></trkpt><trkpt lat="45.505775462386765" lon="5.768258415916177"><ele>571.3333333333334</ele><time>2026-04-05T13:51:32Z</time></trkpt><trkpt lat="45.50593405294912" lon="5.768391423620812"><ele>570.0</ele><time>2026-04-05T13:51:33Z</time></trkpt><trkpt lat="45.50607956833605" lon="5.76851212805058"><ele>568.0</ele><time>2026-04-05T13:51:34Z</time></trkpt><trkpt lat="45.50622313853743" lon="5.768608190154967"><ele>566.0</ele><time>2026-04-05T13:51:35.001Z</time></trkpt><trkpt lat="45.5063733299645" lon="5.768640634960256"><ele>564.0</ele><time>2026-04-05T13:51:36.001Z</time></trkpt><trkpt lat="45.506514661466035" lon="5.768604977526946"><ele>564.0</ele><time>2026-04-05T13:51:37.001Z</time></trkpt><trkpt lat="45.50664913760319" lon="5.768531738746706"><ele>564.0</ele><time>2026-04-05T13:51:38.001Z</time></trkpt><trkpt lat="45.506765586609276" lon="5.768408407275178"><ele>564.0</ele><time>2026-04-05T13:51:39.001Z</time></trkpt><trkpt lat="45.50688466250576" lon="5.768303077971208"><ele>564.0</ele><time>2026-04-05T13:51:40.001Z</time></trkpt><trkpt lat="45.50701052843474" lon="5.7682456165000175"><ele>562.75</ele><time>2026-04-05T13:51:41.001Z</time></trkpt><trkpt lat="45.50713981001133" lon="5.7682427233314355"><ele>561.5</ele><time>2026-04-05T13:51:42.001Z</time></trkpt><trkpt lat="45.50728478006503" lon="5.768265073470319"><ele>560.25</ele><time>2026-04-05T13:51:43.001Z</time></trkpt><trkpt lat="45.50741395182346" lon="5.76831806561037"><ele>559.0</ele><time>2026-04-05T13:51:44.001Z</time></trkpt><trkpt lat="45.50753403559249" lon="5.768387015339984"><ele>559.0</ele><time>2026-04-05T13:51:45.001Z</time></trkpt><trkpt lat="45.50763526742" lon="5.768473715054562"><ele>559.0</ele><time>2026-04-05T13:51:46.001Z</time></trkpt><trkpt lat="45.50773294164238" lon="5.768552826880352"><ele>559.0</ele><time>2026-04-05T13:51:47.001Z</time></trkpt><trkpt lat="45.50781647924009" lon="5.768676235862523"><ele>559.0</ele><time>2026-04-05T13:51:48.001Z</time></trkpt><trkpt lat="45.507902556612656" lon="5.768808213683657"><ele>558.0</ele><time>2026-04-05T13:51:49.001Z</time></trkpt><trkpt lat="45.50797564844443" lon="5.768926404516516"><ele>557.0</ele><time>2026-04-05T13:51:50.001Z</time></trkpt><trkpt lat="45.50804698954141" lon="5.769054788606096"><ele>556.0</ele><time>2026-04-05T13:51:51.001Z</time></trkpt><trkpt lat="45.50810933001761" lon="5.7691712326599305"><ele>555.0</ele><time>2026-04-05T13:51:52.001Z</time></trkpt><trkpt lat="45.508164216005184" lon="5.769275933972066"><ele>554.0</ele><time>2026-04-05T13:51:53.001Z</time></trkpt><trkpt lat="45.508211436168395" lon="5.769358838368947"><ele>554.1666666666666</ele><time>2026-04-05T13:51:54.001Z</time></trkpt><trkpt lat="45.508261750871746" lon="5.769440105525091"><ele>554.3333333333333</ele><time>2026-04-05T13:51:55.001Z</time></trkpt><trkpt lat="45.508306201532875" lon="5.769525954674214"><ele>554.5</ele><time>2026-04-05T13:51:56.001Z</time></trkpt><trkpt lat="45.50834919821273" lon="5.769608069353359"><ele>554.6666666666666</ele><time>2026-04-05T13:51:57.001Z</time></trkpt><trkpt lat="45.508390398001474" lon="5.769694015214439"><ele>554.8333333333334</ele><time>2026-04-05T13:51:58.001Z</time></trkpt><trkpt lat="45.50844533471085" lon="5.769786992423546"><ele>555.0</ele><time>2026-04-05T13:51:59.001Z</time></trkpt><trkpt lat="45.50852828013639" lon="5.769884917920299"><ele>555.0</ele><time>2026-04-05T13:52:00.001Z</time></trkpt><trkpt lat="45.50862782312358" lon="5.769974159025073"><ele>555.0</ele><time>2026-04-05T13:52:01.001Z</time></trkpt><trkpt lat="45.5087739855918" lon="5.770045658069266"><ele>555.0</ele><time>2026-04-05T13:52:02.001Z</time></trkpt><trkpt lat="45.50892709678529" lon="5.770099790289045"><ele>555.0</ele><time>2026-04-05T13:52:03.001Z</time></trkpt><trkpt lat="45.50908031765771" lon="5.7701346029704705"><ele>554.25</ele><time>2026-04-05T13:52:04.001Z</time></trkpt><trkpt lat="45.509223355987544" lon="5.770196558798214"><ele>553.5</ele><time>2026-04-05T13:52:05.001Z</time></trkpt><trkpt lat="45.5093735898844" lon="5.770202122946247"><ele>552.75</ele><time>2026-04-05T13:52:06.001Z</time></trkpt><trkpt lat="45.50951068031772" lon="5.770266811369784"><ele>552.0</ele><time>2026-04-05T13:52:07.001Z</time></trkpt><trkpt lat="45.509662011286856" lon="5.770309646404552"><ele>550.6666666666666</ele><time>2026-04-05T13:52:08.001Z</time></trkpt><trkpt lat="45.50982158659386" lon="5.770349730701934"><ele>549.3333333333333</ele><time>2026-04-05T13:52:09.001Z</time></trkpt><trkpt lat="45.509979817143744" lon="5.77042291573105"><ele>548.0</ele><time>2026-04-05T13:52:10.001Z</time></trkpt><trkpt lat="45.51013956181567" lon="5.770449962829631"><ele>548.0</ele><time>2026-04-05T13:52:11.001Z</time></trkpt><trkpt lat="45.510287414305395" lon="5.77049840438935"><ele>548.0</ele><time>2026-04-05T13:52:12.001Z</time></trkpt><trkpt lat="45.5104229292643" lon="5.770547869854085"><ele>548.0</ele><time>2026-04-05T13:52:13.001Z</time></trkpt><trkpt lat="45.51057615743264" lon="5.7705965970525614"><ele>548.0</ele><time>2026-04-05T13:52:14.001Z</time></trkpt><trkpt lat="45.51071531908939" lon="5.770652592135538"><ele>546.75</ele><time>2026-04-05T13:52:15.001Z</time></trkpt><trkpt lat="45.51085760375533" lon="5.770676150431917"><ele>545.5</ele><time>2026-04-05T13:52:16.001Z</time></trkpt><trkpt lat="45.510989381083355" lon="5.770757239239342"><ele>544.25</ele><time>2026-04-05T13:52:17.001Z</time></trkpt><trkpt lat="45.51112386514893" lon="5.770794472241647"><ele>543.0</ele><time>2026-04-05T13:52:18.001Z</time></trkpt><trkpt lat="45.51125657099896" lon="5.770824404518967"><ele>541.75</ele><time>2026-04-05T13:52:19.001Z</time></trkpt><trkpt lat="45.511385851827185" lon="5.770863923868534"><ele>540.5</ele><time>2026-04-05T13:52:20.001Z</time></trkpt><trkpt lat="45.51148788378746" lon="5.770893259036855"><ele>539.25</ele><time>2026-04-05T13:52:21.001Z</time></trkpt><trkpt lat="45.51166043992879" lon="5.770936179609649"><ele>538.0</ele><time>2026-04-05T13:52:22.001Z</time></trkpt><trkpt lat="45.51186433969822" lon="5.770984841901327"><ele>538.0</ele><time>2026-04-05T13:52:23.001Z</time></trkpt><trkpt lat="45.511992292348516" lon="5.770985564969526"><ele>538.0</ele><time>2026-04-05T13:52:24.001Z</time></trkpt><trkpt lat="45.51215820345799" lon="5.7709719195429425"><ele>538.0</ele><time>2026-04-05T13:52:25.001Z</time></trkpt><trkpt lat="45.512330424794804" lon="5.7709116046712206"><ele>537.0</ele><time>2026-04-05T13:52:26.001Z</time></trkpt><trkpt lat="45.512496144138204" lon="5.770828425201373"><ele>536.0</ele><time>2026-04-05T13:52:27.001Z</time></trkpt><trkpt lat="45.512634202339115" lon="5.77073907838848"><ele>535.0</ele><time>2026-04-05T13:52:28.001Z</time></trkpt><trkpt lat="45.51277010986381" lon="5.770643234969018"><ele>535.0</ele><time>2026-04-05T13:52:29.001Z</time></trkpt><trkpt lat="45.51288122929914" lon="5.770514854975785"><ele>535.0</ele><time>2026-04-05T13:52:30.001Z</time></trkpt><trkpt lat="45.51294581377657" lon="5.7703388747220155"><ele>535.0</ele><time>2026-04-05T13:52:31.001Z</time></trkpt><trkpt lat="45.5129609666388" lon="5.770137553803562"><ele>535.0</ele><time>2026-04-05T13:52:32.001Z</time></trkpt><trkpt lat="45.512934994077554" lon="5.769945611725554"><ele>534.75</ele><time>2026-04-05T13:52:33.001Z</time></trkpt><trkpt lat="45.51288855736473" lon="5.769766151708415"><ele>534.5</ele><time>2026-04-05T13:52:34.001Z</time></trkpt><trkpt lat="45.5128582300828" lon="5.769598370296399"><ele>534.25</ele><time>2026-04-05T13:52:35.001Z</time></trkpt><trkpt lat="45.51289300897533" lon="5.769416297982984"><ele>534.0</ele><time>2026-04-05T13:52:36.001Z</time></trkpt><trkpt lat="45.51295987031854" lon="5.7692129371980005"><ele>534.0</ele><time>2026-04-05T13:52:37.001Z</time></trkpt><trkpt lat="45.51302366033629" lon="5.769007209406938"><ele>534.0</ele><time>2026-04-05T13:52:38.001Z</time></trkpt><trkpt lat="45.51307750301778" lon="5.768808291530973"><ele>534.0</ele><time>2026-04-05T13:52:39.001Z</time></trkpt><trkpt lat="45.513151927638816" lon="5.768643304485344"><ele>534.0</ele><time>2026-04-05T13:52:40.001Z</time></trkpt><trkpt lat="45.51324074185546" lon="5.76851681955179"><ele>532.0</ele><time>2026-04-05T13:52:41.001Z</time></trkpt><trkpt lat="45.51335935084064" lon="5.768460403757637"><ele>530.0</ele><time>2026-04-05T13:52:42.001Z</time></trkpt><trkpt lat="45.51349027345721" lon="5.768462915202164"><ele>528.0</ele><time>2026-04-05T13:52:43.001Z</time></trkpt><trkpt lat="45.5136448227619" lon="5.768478076720265"><ele>526.0</ele><time>2026-04-05T13:52:44.001Z</time></trkpt><trkpt lat="45.51381211685563" lon="5.768510084939724"><ele>526.6666666666667</ele><time>2026-04-05T13:52:45.002Z</time></trkpt><trkpt lat="45.513984388818166" lon="5.768561382190702"><ele>527.3333333333334</ele><time>2026-04-05T13:52:46.002Z</time></trkpt><trkpt lat="45.5141534338589" lon="5.768600105110024"><ele>528.0</ele><time>2026-04-05T13:52:47.002Z</time></trkpt><trkpt lat="45.514327238065555" lon="5.768664401030867"><ele>528.0</ele><time>2026-04-05T13:52:48.002Z</time></trkpt><trkpt lat="45.5145199159616" lon="5.768728333892324"><ele>528.0</ele><time>2026-04-05T13:52:49.002Z</time></trkpt><trkpt lat="45.514707509390576" lon="5.768769184482788"><ele>528.0</ele><time>2026-04-05T13:52:50.002Z</time></trkpt><trkpt lat="45.5149029170219" lon="5.768800317544593"><ele>524.6666666666666</ele><time>2026-04-05T13:52:51Z</time></trkpt><trkpt lat="45.51510766707558" lon="5.768821042775238"><ele>521.3333333333333</ele><time>2026-04-05T13:52:52Z</time></trkpt><trkpt lat="45.515307248044" lon="5.768841695784969"><ele>518.0</ele><time>2026-04-05T13:52:53Z</time></trkpt><trkpt lat="45.51548248425733" lon="5.768886448539798"><ele>516.3333333333333</ele><time>2026-04-05T13:52:54Z</time></trkpt><trkpt lat="45.51567721323455" lon="5.768912919230141"><ele>514.6666666666666</ele><time>2026-04-05T13:52:55Z</time></trkpt><trkpt lat="45.515853904653945" lon="5.768904893655866"><ele>513.0</ele><time>2026-04-05T13:52:56Z</time></trkpt><trkpt lat="45.516021880285805" lon="5.768898718799767"><ele>513.0</ele><time>2026-04-05T13:52:57Z</time></trkpt><trkpt lat="45.5161803881867" lon="5.768830328910472"><ele>513.0</ele><time>2026-04-05T13:52:58Z</time></trkpt><trkpt lat="45.516326581436374" lon="5.768686364141612"><ele>513.0</ele><time>2026-04-05T13:52:59Z</time></trkpt><trkpt lat="45.51644817935677" lon="5.768496835996712"><ele>509.33333333333337</ele><time>2026-04-05T13:53:00Z</time></trkpt><trkpt lat="45.51657107183405" lon="5.768345279226778"><ele>505.6666666666667</ele><time>2026-04-05T13:53:01Z</time></trkpt><trkpt lat="45.51670861622822" lon="5.768226697463713"><ele>502.0</ele><time>2026-04-05T13:53:02Z</time></trkpt><trkpt lat="45.516866293173386" lon="5.76814811042109"><ele>502.0</ele><time>2026-04-05T13:53:03Z</time></trkpt><trkpt lat="45.51703161197919" lon="5.768076498964038"><ele>502.0</ele><time>2026-04-05T13:53:04Z</time></trkpt><trkpt lat="45.5172084024093" lon="5.7680040974138125"><ele>502.0</ele><time>2026-04-05T13:53:05Z</time></trkpt><trkpt lat="45.517373684259894" lon="5.767932973460266"><ele>502.33333333333337</ele><time>2026-04-05T13:53:06Z</time></trkpt><trkpt lat="45.51753985558107" lon="5.767832196245989"><ele>502.66666666666663</ele><time>2026-04-05T13:53:07Z</time></trkpt><trkpt lat="45.51768437281826" lon="5.767690316562592"><ele>503.0</ele><time>2026-04-05T13:53:08Z</time></trkpt><trkpt lat="45.51783055115768" lon="5.767564980444704"><ele>498.3333333333333</ele><time>2026-04-05T13:53:09Z</time></trkpt><trkpt lat="45.51793628962268" lon="5.767394265778193"><ele>493.66666666666663</ele><time>2026-04-05T13:53:10Z</time></trkpt><trkpt lat="45.51804688441193" lon="5.767242374407075"><ele>489.0</ele><time>2026-04-05T13:53:11Z</time></trkpt><trkpt lat="45.51814044315068" lon="5.767070135313208"><ele>489.0</ele><time>2026-04-05T13:53:12Z</time></trkpt><trkpt lat="45.518235884865476" lon="5.766913935482782"><ele>489.0</ele><time>2026-04-05T13:53:13Z</time></trkpt><trkpt lat="45.51835377723908" lon="5.766784593837569"><ele>489.0</ele><time>2026-04-05T13:53:14Z</time></trkpt><trkpt lat="45.51849860157742" lon="5.7667197919329585"><ele>489.0</ele><time>2026-04-05T13:53:15Z</time></trkpt><trkpt lat="45.518650037360935" lon="5.766699893828488"><ele>488.33333333333337</ele><time>2026-04-05T13:53:16Z</time></trkpt><trkpt lat="45.518807158028814" lon="5.766726773490904"><ele>487.6666666666667</ele><time>2026-04-05T13:53:17Z</time></trkpt><trkpt lat="45.518956910449745" lon="5.766805821498876"><ele>487.0</ele><time>2026-04-05T13:53:18Z</time></trkpt><trkpt lat="45.51911358559865" lon="5.766915212195642"><ele>487.0</ele><time>2026-04-05T13:53:19Z</time></trkpt><trkpt lat="45.51928594461475" lon="5.767026106400389"><ele>487.0</ele><time>2026-04-05T13:53:20Z</time></trkpt><trkpt lat="45.51945661684691" lon="5.767132825958269"><ele>487.0</ele><time>2026-04-05T13:53:21Z</time></trkpt><trkpt lat="45.519639149676856" lon="5.767216756230119"><ele>484.33333333333337</ele><time>2026-04-05T13:53:22Z</time></trkpt><trkpt lat="45.5198068160596" lon="5.767311947593545"><ele>481.66666666666663</ele><time>2026-04-05T13:53:23Z</time></trkpt><trkpt lat="45.519969455859034" lon="5.767392295523762"><ele>479.0</ele><time>2026-04-05T13:53:24Z</time></trkpt><trkpt lat="45.52013598852126" lon="5.767455358771012"><ele>479.0</ele><time>2026-04-05T13:53:25Z</time></trkpt><trkpt lat="45.52030901845433" lon="5.767506687209996"><ele>479.0</ele><time>2026-04-05T13:53:26Z</time></trkpt><trkpt lat="45.52047842464387" lon="5.767560818148957"><ele>479.0</ele><time>2026-04-05T13:53:27Z</time></trkpt><trkpt lat="45.52065554293718" lon="5.767552098966577"><ele>476.66666666666663</ele><time>2026-04-05T13:53:28Z</time></trkpt><trkpt lat="45.52083689164515" lon="5.767543056283099"><ele>474.33333333333337</ele><time>2026-04-05T13:53:29Z</time></trkpt><trkpt lat="45.521018328893106" lon="5.767535778574898"><ele>472.0</ele><time>2026-04-05T13:53:30Z</time></trkpt><trkpt lat="45.52119461886551" lon="5.76746167771723"><ele>470.6666666666667</ele><time>2026-04-05T13:53:31Z</time></trkpt><trkpt lat="45.521358605296406" lon="5.767402510272234"><ele>469.33333333333337</ele><time>2026-04-05T13:53:32Z</time></trkpt><trkpt lat="45.52151713193915" lon="5.767316834524694"><ele>468.0</ele><time>2026-04-05T13:53:33Z</time></trkpt><trkpt lat="45.52167696915496" lon="5.7672153945896785"><ele>468.0</ele><time>2026-04-05T13:53:34Z</time></trkpt><trkpt lat="45.52183072095179" lon="5.767079307615527"><ele>468.0</ele><time>2026-04-05T13:53:35Z</time></trkpt><trkpt lat="45.52198562650766" lon="5.76695276486866"><ele>468.0</ele><time>2026-04-05T13:53:36.001Z</time></trkpt><trkpt lat="45.52211625416576" lon="5.766800878470443"><ele>465.33333333333337</ele><time>2026-04-05T13:53:37.001Z</time></trkpt><trkpt lat="45.52222227985827" lon="5.766626778341265"><ele>462.6666666666667</ele><time>2026-04-05T13:53:38.001Z</time></trkpt><trkpt lat="45.52233157080619" lon="5.766464836547064"><ele>460.0</ele><time>2026-04-05T13:53:39.001Z</time></trkpt><trkpt lat="45.52245490794238" lon="5.766301908010054"><ele>460.0</ele><time>2026-04-05T13:53:40.001Z</time></trkpt><trkpt lat="45.52257709092034" lon="5.766115807005315"><ele>460.0</ele><time>2026-04-05T13:53:41.001Z</time></trkpt><trkpt lat="45.52268302901196" lon="5.76592217921774"><ele>460.0</ele><time>2026-04-05T13:53:42.001Z</time></trkpt><trkpt lat="45.522804056523746" lon="5.765771957112425"><ele>458.6666666666667</ele><time>2026-04-05T13:53:43.001Z</time></trkpt><trkpt lat="45.522915066359246" lon="5.765603778618097"><ele>457.33333333333337</ele><time>2026-04-05T13:53:44.001Z</time></trkpt><trkpt lat="45.523026657352155" lon="5.765434719682935"><ele>456.0</ele><time>2026-04-05T13:53:45.001Z</time></trkpt><trkpt lat="45.52314169333288" lon="5.7652667798415305"><ele>456.0</ele><time>2026-04-05T13:53:46.001Z</time></trkpt><trkpt lat="45.52325927224833" lon="5.765089390350237"><ele>456.0</ele><time>2026-04-05T13:53:47.001Z</time></trkpt><trkpt lat="45.52337932196439" lon="5.764907434249606"><ele>456.0</ele><time>2026-04-05T13:53:48.001Z</time></trkpt><trkpt lat="45.52349867420418" lon="5.764727641739137"><ele>456.0</ele><time>2026-04-05T13:53:49.001Z</time></trkpt><trkpt lat="45.52362104738508" lon="5.764540241158542"><ele>456.0</ele><time>2026-04-05T13:53:50.001Z</time></trkpt><trkpt lat="45.52373482827663" lon="5.764339124692741"><ele>456.0</ele><time>2026-04-05T13:53:51.001Z</time></trkpt><trkpt lat="45.523863251311795" lon="5.764171704720821"><ele>456.33333333333337</ele><time>2026-04-05T13:53:52.001Z</time></trkpt><trkpt lat="45.523977679137595" lon="5.764000187808498"><ele>456.6666666666667</ele><time>2026-04-05T13:53:53.001Z</time></trkpt><trkpt lat="45.52408979214119" lon="5.7638321406092174"><ele>457.0</ele><time>2026-04-05T13:53:54.001Z</time></trkpt><trkpt lat="45.52419672803801" lon="5.763672455693778"><ele>457.0</ele><time>2026-04-05T13:53:55.001Z</time></trkpt><trkpt lat="45.524313674471024" lon="5.763531816464718"><ele>457.0</ele><time>2026-04-05T13:53:56.001Z</time></trkpt><trkpt lat="45.52443850145402" lon="5.763417509853883"><ele>457.0</ele><time>2026-04-05T13:53:57.001Z</time></trkpt><trkpt lat="45.5245819029842" lon="5.76333437422598"><ele>458.0</ele><time>2026-04-05T13:53:58.001Z</time></trkpt><trkpt lat="45.52474023817852" lon="5.763267040530043"><ele>459.0</ele><time>2026-04-05T13:53:59.001Z</time></trkpt><trkpt lat="45.52491032279126" lon="5.763214333511833"><ele>460.0</ele><time>2026-04-05T13:54:00.001Z</time></trkpt><trkpt lat="45.52508497025832" lon="5.76315989223024"><ele>460.0</ele><time>2026-04-05T13:54:01.001Z</time></trkpt><trkpt lat="45.5252643383864" lon="5.763081459184672"><ele>460.0</ele><time>2026-04-05T13:54:02.001Z</time></trkpt><trkpt lat="45.52545861545493" lon="5.763043181149926"><ele>460.0</ele><time>2026-04-05T13:54:03.001Z</time></trkpt><trkpt lat="45.525652662248795" lon="5.7629832804367584"><ele>466.6666666666667</ele><time>2026-04-05T13:54:04.001Z</time></trkpt><trkpt lat="45.52585331903622" lon="5.762923299429621"><ele>473.33333333333337</ele><time>2026-04-05T13:54:05.001Z</time></trkpt><trkpt lat="45.526058693090285" lon="5.762871535179413"><ele>480.0</ele><time>2026-04-05T13:54:06.001Z</time></trkpt><trkpt lat="45.52626685306626" lon="5.762832890690348"><ele>487.0</ele><time>2026-04-05T13:54:07.001Z</time></trkpt><trkpt lat="45.52648044693036" lon="5.7628043717473165"><ele>494.0</ele><time>2026-04-05T13:54:08.001Z</time></trkpt><trkpt lat="45.52670339476503" lon="5.762778611141663"><ele>501.0</ele><time>2026-04-05T13:54:09.001Z</time></trkpt><trkpt lat="45.52692387868603" lon="5.7627514422432675"><ele>502.0</ele><time>2026-04-05T13:54:10.001Z</time></trkpt><trkpt lat="45.52715482727824" lon="5.762721786071505"><ele>503.0</ele><time>2026-04-05T13:54:11.001Z</time></trkpt><trkpt lat="45.52738436464968" lon="5.7626923111147725"><ele>489.0</ele><time>2026-04-05T13:54:12.001Z</time></trkpt><trkpt lat="45.527616747751296" lon="5.762664188071004"><ele>475.0</ele><time>2026-04-05T13:54:13.001Z</time></trkpt><trkpt lat="45.527854282743" lon="5.762633876915826"><ele>476.5</ele><time>2026-04-05T13:54:14.001Z</time></trkpt><trkpt lat="45.52806751645337" lon="5.762606406285786"><ele>478.0</ele><time>2026-04-05T13:54:15.001Z</time></trkpt><trkpt lat="45.52830638332863" lon="5.762577123011538"><ele>478.0</ele><time>2026-04-05T13:54:16.001Z</time></trkpt><trkpt lat="45.52853292637129" lon="5.762549350551106"><ele>478.0</ele><time>2026-04-05T13:54:17.001Z</time></trkpt><trkpt lat="45.52875179941548" lon="5.762522457392124"><ele>478.0</ele><time>2026-04-05T13:54:18.001Z</time></trkpt><trkpt lat="45.528961813640564" lon="5.76249536809947"><ele>480.33333333333337</ele><time>2026-04-05T13:54:19.001Z</time></trkpt><trkpt lat="45.5291599154676" lon="5.762471330455061"><ele>482.66666666666663</ele><time>2026-04-05T13:54:20.001Z</time></trkpt><trkpt lat="45.529337326176226" lon="5.762454775081553"><ele>485.0</ele><time>2026-04-05T13:54:21.001Z</time></trkpt><trkpt lat="45.529501626110545" lon="5.762444130877279"><ele>484.75</ele><time>2026-04-05T13:54:22.001Z</time></trkpt><trkpt lat="45.529651065418356" lon="5.762436308860683"><ele>484.5</ele><time>2026-04-05T13:54:23.001Z</time></trkpt><trkpt lat="45.52979628377341" lon="5.7624267633832815"><ele>484.25</ele><time>2026-04-05T13:54:24.001Z</time></trkpt><trkpt lat="45.529938512300404" lon="5.7624053658874805"><ele>484.0</ele><time>2026-04-05T13:54:25.001Z</time></trkpt><trkpt lat="45.53009256213935" lon="5.762374375470015"><ele>484.0</ele><time>2026-04-05T13:54:26.001Z</time></trkpt><trkpt lat="45.530260075922236" lon="5.762336213795572"><ele>484.0</ele><time>2026-04-05T13:54:27.001Z</time></trkpt><trkpt lat="45.53042556096299" lon="5.762288742421217"><ele>484.0</ele><time>2026-04-05T13:54:28.001Z</time></trkpt><trkpt lat="45.53058764478811" lon="5.762234174485253"><ele>483.0</ele><time>2026-04-05T13:54:29.001Z</time></trkpt><trkpt lat="45.530758379829756" lon="5.762180627080204"><ele>482.0</ele><time>2026-04-05T13:54:30.001Z</time></trkpt><trkpt lat="45.530935634278705" lon="5.76212621035784"><ele>481.0</ele><time>2026-04-05T13:54:31.001Z</time></trkpt><trkpt lat="45.531110015532974" lon="5.762079638947572"><ele>476.0</ele><time>2026-04-05T13:54:32.001Z</time></trkpt><trkpt lat="45.531293409720384" lon="5.7620462130424634"><ele>471.0</ele><time>2026-04-05T13:54:33.001Z</time></trkpt><trkpt lat="45.53147893031454" lon="5.762030656638343"><ele>466.0</ele><time>2026-04-05T13:54:34.001Z</time></trkpt><trkpt lat="45.53166668568729" lon="5.762019218567057"><ele>466.0</ele><time>2026-04-05T13:54:35.001Z</time></trkpt><trkpt lat="45.53185413633206" lon="5.761988069690029"><ele>466.0</ele><time>2026-04-05T13:54:36.001Z</time></trkpt><trkpt lat="45.53204051198202" lon="5.76196392304972"><ele>466.0</ele><time>2026-04-05T13:54:37.001Z</time></trkpt><trkpt lat="45.53222694373834" lon="5.761917895759838"><ele>467.33333333333337</ele><time>2026-04-05T13:54:38.001Z</time></trkpt><trkpt lat="45.53240023789351" lon="5.761853972666451"><ele>468.66666666666663</ele><time>2026-04-05T13:54:39.001Z</time></trkpt><trkpt lat="45.532569853666885" lon="5.761802215626773"><ele>470.0</ele><time>2026-04-05T13:54:40.001Z</time></trkpt><trkpt lat="45.532729968370546" lon="5.761714275116168"><ele>470.0</ele><time>2026-04-05T13:54:41.001Z</time></trkpt><trkpt lat="45.53288762817557" lon="5.761650613212858"><ele>470.0</ele><time>2026-04-05T13:54:42.001Z</time></trkpt><trkpt lat="45.53304731387023" lon="5.7616099884096075"><ele>470.0</ele><time>2026-04-05T13:54:43.001Z</time></trkpt><trkpt lat="45.53320006399364" lon="5.761548490660257"><ele>464.0</ele><time>2026-04-05T13:54:44.001Z</time></trkpt><trkpt lat="45.53334712196878" lon="5.761488531102435"><ele>458.0</ele><time>2026-04-05T13:54:45.001Z</time></trkpt><trkpt lat="45.533493069059304" lon="5.761428694729772"><ele>452.0</ele><time>2026-04-05T13:54:46.001Z</time></trkpt><trkpt lat="45.53363675000782" lon="5.761371465674403"><ele>450.25</ele><time>2026-04-05T13:54:47.001Z</time></trkpt><trkpt lat="45.53377636565937" lon="5.761329581832261"><ele>448.5</ele><time>2026-04-05T13:54:48.002Z</time></trkpt><trkpt lat="45.53391547708245" lon="5.761306869816497"><ele>446.75</ele><time>2026-04-05T13:54:49.002Z</time></trkpt><trkpt lat="45.5340562547716" lon="5.76130458117023"><ele>445.0</ele><time>2026-04-05T13:54:50.002Z</time></trkpt><trkpt lat="45.53419885630032" lon="5.761335978478154"><ele>445.0</ele><time>2026-04-05T13:54:51.002Z</time></trkpt><trkpt lat="45.53435425947164" lon="5.761386942886443"><ele>445.0</ele><time>2026-04-05T13:54:52.002Z</time></trkpt><trkpt lat="45.53451255502784" lon="5.761442396099141"><ele>445.0</ele><time>2026-04-05T13:54:53.002Z</time></trkpt><trkpt lat="45.534671252036304" lon="5.761493485720285"><ele>445.33333333333337</ele><time>2026-04-05T13:54:54.002Z</time></trkpt><trkpt lat="45.53483862148792" lon="5.761510843971927"><ele>445.66666666666663</ele><time>2026-04-05T13:54:55.002Z</time></trkpt><trkpt lat="45.535011398072555" lon="5.7615490637110875"><ele>446.0</ele><time>2026-04-05T13:54:56.002Z</time></trkpt><trkpt lat="45.53518844209893" lon="5.761559531846744"><ele>446.0</ele><time>2026-04-05T13:54:57Z</time></trkpt><trkpt lat="45.53535934879341" lon="5.761565869836705"><ele>446.0</ele><time>2026-04-05T13:54:58Z</time></trkpt><trkpt lat="45.53552261367668" lon="5.761571483296745"><ele>446.0</ele><time>2026-04-05T13:54:59Z</time></trkpt><trkpt lat="45.53568376249043" lon="5.761568823102589"><ele>446.3333333333333</ele><time>2026-04-05T13:55:00Z</time></trkpt><trkpt lat="45.53584849440593" lon="5.761562480863719"><ele>446.66666666666663</ele><time>2026-04-05T13:55:01Z</time></trkpt><trkpt lat="45.53600939498412" lon="5.761555686762793"><ele>447.0</ele><time>2026-04-05T13:55:02Z</time></trkpt><trkpt lat="45.53616636333671" lon="5.761551207684708"><ele>447.0</ele><time>2026-04-05T13:55:03Z</time></trkpt><trkpt lat="45.53632088006741" lon="5.761550083311618"><ele>447.0</ele><time>2026-04-05T13:55:04Z</time></trkpt><trkpt lat="45.53648112554283" lon="5.761550905513351"><ele>447.0</ele><time>2026-04-05T13:55:05Z</time></trkpt><trkpt lat="45.536651903565755" lon="5.761555256136279"><ele>447.0</ele><time>2026-04-05T13:55:06Z</time></trkpt><trkpt lat="45.53682568612426" lon="5.761557366015492"><ele>447.0</ele><time>2026-04-05T13:55:07Z</time></trkpt><trkpt lat="45.53699770992867" lon="5.761556994773511"><ele>447.0</ele><time>2026-04-05T13:55:08Z</time></trkpt><trkpt lat="45.53716621972748" lon="5.761524006597905"><ele>443.0</ele><time>2026-04-05T13:55:09Z</time></trkpt><trkpt lat="45.537333238823386" lon="5.761509917191573"><ele>439.0</ele><time>2026-04-05T13:55:10Z</time></trkpt><trkpt lat="45.537494666561344" lon="5.761491519010192"><ele>435.0</ele><time>2026-04-05T13:55:11Z</time></trkpt><trkpt lat="45.5376497671389" lon="5.761469565723802"><ele>435.0</ele><time>2026-04-05T13:55:12Z</time></trkpt><trkpt lat="45.53780293828352" lon="5.7614362499276845"><ele>435.0</ele><time>2026-04-05T13:55:13Z</time></trkpt><trkpt lat="45.53794857497557" lon="5.761397820864408"><ele>435.0</ele><time>2026-04-05T13:55:14Z</time></trkpt><trkpt lat="45.538095791314234" lon="5.761389641310063"><ele>431.25</ele><time>2026-04-05T13:55:15Z</time></trkpt><trkpt lat="45.53826234981377" lon="5.7613571492600775"><ele>427.5</ele><time>2026-04-05T13:55:16Z</time></trkpt><trkpt lat="45.538399082617936" lon="5.76131065065184"><ele>423.75</ele><time>2026-04-05T13:55:17Z</time></trkpt><trkpt lat="45.538529484819804" lon="5.761283406170801"><ele>420.0</ele><time>2026-04-05T13:55:18Z</time></trkpt><trkpt lat="45.53866248597481" lon="5.761257329972845"><ele>417.75</ele><time>2026-04-05T13:55:19Z</time></trkpt><trkpt lat="45.53879758904849" lon="5.761266702695315"><ele>415.5</ele><time>2026-04-05T13:55:20Z</time></trkpt><trkpt lat="45.538913297898354" lon="5.761261121461064"><ele>413.25</ele><time>2026-04-05T13:55:21Z</time></trkpt><trkpt lat="45.539050202574494" lon="5.761262690517196"><ele>411.0</ele><time>2026-04-05T13:55:22Z</time></trkpt><trkpt lat="45.539179722808434" lon="5.7612705609407495"><ele>411.0</ele><time>2026-04-05T13:55:23Z</time></trkpt><trkpt lat="45.53930736095933" lon="5.761284586532132"><ele>411.0</ele><time>2026-04-05T13:55:24Z</time></trkpt><trkpt lat="45.53943193304121" lon="5.761317462416534"><ele>411.0</ele><time>2026-04-05T13:55:25Z</time></trkpt><trkpt lat="45.539539483253506" lon="5.761336979978375"><ele>411.0</ele><time>2026-04-05T13:55:26Z</time></trkpt><trkpt lat="45.539634151966084" lon="5.761332960840938"><ele>412.0</ele><time>2026-04-05T13:55:27Z</time></trkpt><trkpt lat="45.53974622966502" lon="5.761269404570912"><ele>413.0</ele><time>2026-04-05T13:55:28Z</time></trkpt><trkpt lat="45.539826170889576" lon="5.761170022943661"><ele>414.0</ele><time>2026-04-05T13:55:29Z</time></trkpt><trkpt lat="45.53990686657261" lon="5.76107464205641"><ele>415.0</ele><time>2026-04-05T13:55:30Z</time></trkpt><trkpt lat="45.54000372047712" lon="5.761002730687752"><ele>416.0</ele><time>2026-04-05T13:55:31Z</time></trkpt><trkpt lat="45.540097149658635" lon="5.760909682142818"><ele>416.0</ele><time>2026-04-05T13:55:32Z</time></trkpt><trkpt lat="45.5401922357773" lon="5.760816616953396"><ele>416.0</ele><time>2026-04-05T13:55:33Z</time></trkpt><trkpt lat="45.540294142678995" lon="5.7607202163277735"><ele>416.0</ele><time>2026-04-05T13:55:34Z</time></trkpt><trkpt lat="45.540395086558334" lon="5.760634716014704"><ele>416.0</ele><time>2026-04-05T13:55:35Z</time></trkpt><trkpt lat="45.54049716530095" lon="5.760551241706593"><ele>412.75</ele><time>2026-04-05T13:55:36Z</time></trkpt><trkpt lat="45.54059674122988" lon="5.760469831388342"><ele>409.5</ele><time>2026-04-05T13:55:37.001Z</time></trkpt><trkpt lat="45.54069451778827" lon="5.7603898921808465"><ele>406.25</ele><time>2026-04-05T13:55:38.001Z</time></trkpt><trkpt lat="45.540791618554636" lon="5.760305924331402"><ele>403.0</ele><time>2026-04-05T13:55:39.001Z</time></trkpt><trkpt lat="45.54088233107073" lon="5.76021059605129"><ele>404.75</ele><time>2026-04-05T13:55:40.001Z</time></trkpt><trkpt lat="45.540965921808244" lon="5.760091578106026"><ele>406.5</ele><time>2026-04-05T13:55:41.001Z</time></trkpt><trkpt lat="45.54102236408692" lon="5.759943905143898"><ele>408.25</ele><time>2026-04-05T13:55:42.001Z</time></trkpt><trkpt lat="45.541081036805096" lon="5.759776054269532"><ele>410.0</ele><time>2026-04-05T13:55:43.001Z</time></trkpt><trkpt lat="45.54112026446086" lon="5.759609209648092"><ele>410.0</ele><time>2026-04-05T13:55:44.001Z</time></trkpt><trkpt lat="45.541146396414725" lon="5.759431964285646"><ele>410.0</ele><time>2026-04-05T13:55:45.001Z</time></trkpt><trkpt lat="45.54121048836141" lon="5.759276551878957"><ele>410.0</ele><time>2026-04-05T13:55:46.001Z</time></trkpt><trkpt lat="45.54127736931407" lon="5.759116359103888"><ele>410.0</ele><time>2026-04-05T13:55:47.001Z</time></trkpt><trkpt lat="45.54135467133542" lon="5.7589597418631495"><ele>407.0</ele><time>2026-04-05T13:55:48.001Z</time></trkpt><trkpt lat="45.5414367601569" lon="5.758799075577788"><ele>404.0</ele><time>2026-04-05T13:55:49.001Z</time></trkpt><trkpt lat="45.541515142272715" lon="5.758643747778718"><ele>401.0</ele><time>2026-04-05T13:55:50.001Z</time></trkpt><trkpt lat="45.54157186263322" lon="5.758475661848245"><ele>398.0</ele><time>2026-04-05T13:55:51.001Z</time></trkpt><trkpt lat="45.541615421442906" lon="5.758311886711028"><ele>398.0</ele><time>2026-04-05T13:55:52.001Z</time></trkpt><trkpt lat="45.54163035909875" lon="5.758135053650314"><ele>398.0</ele><time>2026-04-05T13:55:53.001Z</time></trkpt><trkpt lat="45.541602455544165" lon="5.757955571387378"><ele>398.0</ele><time>2026-04-05T13:55:54.001Z</time></trkpt><trkpt lat="45.54153677510252" lon="5.757780082629159"><ele>398.0</ele><time>2026-04-05T13:55:55.001Z</time></trkpt><trkpt lat="45.541464027203325" lon="5.757628583204113"><ele>396.59999999999997</ele><time>2026-04-05T13:55:56.001Z</time></trkpt><trkpt lat="45.54141470634015" lon="5.757478224586965"><ele>395.2</ele><time>2026-04-05T13:55:57.001Z</time></trkpt><trkpt lat="45.541377052141236" lon="5.757329343604438"><ele>393.8</ele><time>2026-04-05T13:55:58.001Z</time></trkpt><trkpt lat="45.54137831732619" lon="5.757196209652901"><ele>392.4</ele><time>2026-04-05T13:55:59.001Z</time></trkpt><trkpt lat="45.541387739275024" lon="5.757068640478324"><ele>391.0</ele><time>2026-04-05T13:56:00.001Z</time></trkpt><trkpt lat="45.541412480884624" lon="5.756947700337474"><ele>391.00000000000006</ele><time>2026-04-05T13:56:01.001Z</time></trkpt><trkpt lat="45.54144475487799" lon="5.756829894665624"><ele>391.0</ele><time>2026-04-05T13:56:02.001Z</time></trkpt><trkpt lat="45.5414832605322" lon="5.7567235564665875"><ele>391.0</ele><time>2026-04-05T13:56:03.001Z</time></trkpt><trkpt lat="45.54152243032558" lon="5.756634546534325"><ele>391.0</ele><time>2026-04-05T13:56:04.001Z</time></trkpt><trkpt lat="45.541624475285346" lon="5.7565535195407955"><ele>391.00000000000006</ele><time>2026-04-05T13:56:06.001Z</time></trkpt><trkpt lat="45.54168869358206" lon="5.75653829889193"><ele>391.0</ele><time>2026-04-05T13:56:07.001Z</time></trkpt><trkpt lat="45.54175008094245" lon="5.756560221504743"><ele>391.00000000000006</ele><time>2026-04-05T13:56:08.001Z</time></trkpt><trkpt lat="45.54179822609185" lon="5.7566293462324065"><ele>391.0</ele><time>2026-04-05T13:56:09.001Z</time></trkpt><trkpt lat="45.54182984902051" lon="5.756711305535398"><ele>391.0</ele><time>2026-04-05T13:56:10.001Z</time></trkpt><trkpt lat="45.54183661926183" lon="5.756819545369986"><ele>391.0</ele><time>2026-04-05T13:56:11.001Z</time></trkpt><trkpt lat="45.54182636394687" lon="5.756932857404774"><ele>391.00000000000006</ele><time>2026-04-05T13:56:12.001Z</time></trkpt><trkpt lat="45.54180957646855" lon="5.757054601758876"><ele>391.0</ele><time>2026-04-05T13:56:13.001Z</time></trkpt><trkpt lat="45.54178521030909" lon="5.757174549371927"><ele>391.0</ele><time>2026-04-05T13:56:14.001Z</time></trkpt><trkpt lat="45.54176055085452" lon="5.757303408318133"><ele>391.0</ele><time>2026-04-05T13:56:15.001Z</time></trkpt><trkpt lat="45.541754333571774" lon="5.757420821387797"><ele>391.0</ele><time>2026-04-05T13:56:16.001Z</time></trkpt><trkpt lat="45.54176090394415" lon="5.757592150586389"><ele>391.0</ele><time>2026-04-05T13:56:17.001Z</time></trkpt><trkpt lat="45.54178853818837" lon="5.757756185935327"><ele>391.0</ele><time>2026-04-05T13:56:18.001Z</time></trkpt><trkpt lat="45.54183724626719" lon="5.7579267680910755"><ele>392.75</ele><time>2026-04-05T13:56:19.001Z</time></trkpt><trkpt lat="45.54189014206271" lon="5.758101784591753"><ele>394.5</ele><time>2026-04-05T13:56:20.001Z</time></trkpt><trkpt lat="45.54195756235677" lon="5.758271977312887"><ele>396.25</ele><time>2026-04-05T13:56:21.001Z</time></trkpt><trkpt lat="45.54201403616946" lon="5.758445753573172"><ele>398.0</ele><time>2026-04-05T13:56:22.001Z</time></trkpt><trkpt lat="45.54205599662628" lon="5.758614011280422"><ele>394.25</ele><time>2026-04-05T13:56:23.001Z</time></trkpt><trkpt lat="45.54209514828181" lon="5.7587790053544685"><ele>390.5</ele><time>2026-04-05T13:56:24.001Z</time></trkpt><trkpt lat="45.54212335006883" lon="5.758946354362782"><ele>386.75</ele><time>2026-04-05T13:56:25.001Z</time></trkpt><trkpt lat="45.542156993876326" lon="5.759110435309777"><ele>383.0</ele><time>2026-04-05T13:56:26.001Z</time></trkpt><trkpt lat="45.54217428017829" lon="5.759273781613634"><ele>382.4</ele><time>2026-04-05T13:56:27.001Z</time></trkpt><trkpt lat="45.54218946923482" lon="5.759427616851644"><ele>381.79999999999995</ele><time>2026-04-05T13:56:28.001Z</time></trkpt><trkpt lat="45.54220085608267" lon="5.759577091518321"><ele>381.2</ele><time>2026-04-05T13:56:29.001Z</time></trkpt><trkpt lat="45.54221258016773" lon="5.759720589820735"><ele>380.6</ele><time>2026-04-05T13:56:30.001Z</time></trkpt><trkpt lat="45.54222712972855" lon="5.759858677343309"><ele>380.0</ele><time>2026-04-05T13:56:31.001Z</time></trkpt><trkpt lat="45.54223596250484" lon="5.759994465705341"><ele>380.0</ele><time>2026-04-05T13:56:32.001Z</time></trkpt><trkpt lat="45.54223701540939" lon="5.760108469149066"><ele>380.0</ele><time>2026-04-05T13:56:33.001Z</time></trkpt><trkpt lat="45.54222999049102" lon="5.760241004384568"><ele>380.0</ele><time>2026-04-05T13:56:35.001Z</time></trkpt><trkpt lat="45.54224816580358" lon="5.760347977993833"><ele>380.0</ele><time>2026-04-05T13:56:43.001Z</time></trkpt><trkpt lat="45.54225598219246" lon="5.76044260479881"><ele>380.0</ele><time>2026-04-05T13:56:45.001Z</time></trkpt><trkpt lat="45.54234333115189" lon="5.760541278350227"><ele>380.0</ele><time>2026-04-05T13:56:47.001Z</time></trkpt><trkpt lat="45.54243212594756" lon="5.760641103447553"><ele>380.0</ele><time>2026-04-05T13:56:50.002Z</time></trkpt><trkpt lat="45.54248170556964" lon="5.7606994171108035"><ele>380.0</ele><time>2026-04-05T13:56:51.002Z</time></trkpt><trkpt lat="45.54257658846234" lon="5.760810198882244"><ele>380.0</ele><time>2026-04-05T13:56:53.002Z</time></trkpt><trkpt lat="45.54262795621458" lon="5.760872420150781"><ele>380.0</ele><time>2026-04-05T13:56:54.002Z</time></trkpt><trkpt lat="45.54268510753755" lon="5.7609442196919"><ele>380.0</ele><time>2026-04-05T13:56:55.002Z</time></trkpt><trkpt lat="45.54274409430906" lon="5.761016872497543"><ele>380.0</ele><time>2026-04-05T13:56:56.002Z</time></trkpt><trkpt lat="45.54279714453697" lon="5.76108101109293"><ele>380.4</ele><time>2026-04-05T13:56:57.002Z</time></trkpt><trkpt lat="45.54290020796772" lon="5.761157960134168"><ele>380.8</ele><time>2026-04-05T13:56:59.002Z</time></trkpt><trkpt lat="45.54300246956086" lon="5.761257736421444"><ele>381.20000000000005</ele><time>2026-04-05T13:57:01.002Z</time></trkpt><trkpt lat="45.54305234948558" lon="5.76131798688724"><ele>381.6</ele><time>2026-04-05T13:57:02.002Z</time></trkpt><trkpt lat="45.543131189862095" lon="5.7614482594299306"><ele>382.0</ele><time>2026-04-05T13:57:04Z</time></trkpt><trkpt lat="45.543196554311855" lon="5.761582481310238"><ele>382.0</ele><time>2026-04-05T13:57:06Z</time></trkpt><trkpt lat="45.54323076236101" lon="5.761660835661798"><ele>382.0</ele><time>2026-04-05T13:57:07Z</time></trkpt><trkpt lat="45.543264010578696" lon="5.761742531454715"><ele>382.0</ele><time>2026-04-05T13:57:08Z</time></trkpt><trkpt lat="45.5432983156175" lon="5.761834274841351"><ele>382.0</ele><time>2026-04-05T13:57:09Z</time></trkpt><trkpt lat="45.54332184803192" lon="5.761936317471265"><ele>382.0</ele><time>2026-04-05T13:57:10Z</time></trkpt><trkpt lat="45.543357790837135" lon="5.762041920421724"><ele>382.0</ele><time>2026-04-05T13:57:11Z</time></trkpt><trkpt lat="45.54338274795753" lon="5.762152293784992"><ele>382.0</ele><time>2026-04-05T13:57:12Z</time></trkpt><trkpt lat="45.54342048863723" lon="5.762314239039713"><ele>381.8</ele><time>2026-04-05T13:57:13Z</time></trkpt><trkpt lat="45.54347687720217" lon="5.762489602908677"><ele>381.6</ele><time>2026-04-05T13:57:15Z</time></trkpt><trkpt lat="45.54350535671963" lon="5.76260832408963"><ele>381.40000000000003</ele><time>2026-04-05T13:57:16Z</time></trkpt><trkpt lat="45.54353276094868" lon="5.762730468179949"><ele>381.20000000000005</ele><time>2026-04-05T13:57:17Z</time></trkpt><trkpt lat="45.54356655347866" lon="5.762851890545658"><ele>381.0</ele><time>2026-04-05T13:57:18Z</time></trkpt><trkpt lat="45.54359668418857" lon="5.76297430110875"><ele>380.8</ele><time>2026-04-05T13:57:19Z</time></trkpt><trkpt lat="45.5436333984542" lon="5.763102306704035"><ele>380.6</ele><time>2026-04-05T13:57:20Z</time></trkpt><trkpt lat="45.54366640155265" lon="5.763230792310977"><ele>380.4</ele><time>2026-04-05T13:57:21Z</time></trkpt><trkpt lat="45.54370078759988" lon="5.763361005448299"><ele>380.2</ele><time>2026-04-05T13:57:22Z</time></trkpt><trkpt lat="45.5437346728797" lon="5.763490106666965"><ele>380.0</ele><time>2026-04-05T13:57:23Z</time></trkpt><trkpt lat="45.543770862499066" lon="5.763619926923291"><ele>380.6</ele><time>2026-04-05T13:57:24Z</time></trkpt><trkpt lat="45.54380227944018" lon="5.763748753011438"><ele>381.2</ele><time>2026-04-05T13:57:25Z</time></trkpt><trkpt lat="45.54383320948528" lon="5.763877348991575"><ele>381.79999999999995</ele><time>2026-04-05T13:57:26Z</time></trkpt><trkpt lat="45.54386953096182" lon="5.76399186469696"><ele>382.4</ele><time>2026-04-05T13:57:27Z</time></trkpt><trkpt lat="45.543898967562455" lon="5.7640989805428315"><ele>383.0</ele><time>2026-04-05T13:57:28Z</time></trkpt><trkpt lat="45.54394889946039" lon="5.764293447200625"><ele>382.7142857142857</ele><time>2026-04-05T13:57:30Z</time></trkpt><trkpt lat="45.543977549761486" lon="5.7643889936432915"><ele>382.42857142857144</ele><time>2026-04-05T13:57:31Z</time></trkpt><trkpt lat="45.54400121988307" lon="5.764485227245264"><ele>382.1428571428571</ele><time>2026-04-05T13:57:32Z</time></trkpt><trkpt lat="45.54402754730874" lon="5.764575760191782"><ele>381.8571428571429</ele><time>2026-04-05T13:57:33Z</time></trkpt><trkpt lat="45.54405357473067" lon="5.764667999249188"><ele>381.5714285714286</ele><time>2026-04-05T13:57:34Z</time></trkpt><trkpt lat="45.544082981684284" lon="5.764767675062467"><ele>381.2857142857143</ele><time>2026-04-05T13:57:35Z</time></trkpt><trkpt lat="45.5441104971534" lon="5.764873144131352"><ele>381.0</ele><time>2026-04-05T13:57:36Z</time></trkpt><trkpt lat="45.54413883555464" lon="5.764985251631673"><ele>381.0</ele><time>2026-04-05T13:57:37Z</time></trkpt><trkpt lat="45.54416592347848" lon="5.765105220259455"><ele>381.0</ele><time>2026-04-05T13:57:38Z</time></trkpt><trkpt lat="45.54420021557709" lon="5.765224696783423"><ele>381.0</ele><time>2026-04-05T13:57:39Z</time></trkpt><trkpt lat="45.54423685774886" lon="5.76534795457494"><ele>381.0</ele><time>2026-04-05T13:57:40Z</time></trkpt><trkpt lat="45.54425736640579" lon="5.7654841974784565"><ele>381.0</ele><time>2026-04-05T13:57:41Z</time></trkpt><trkpt lat="45.54429079454192" lon="5.765612388329559"><ele>380.6</ele><time>2026-04-05T13:57:42Z</time></trkpt><trkpt lat="45.54432422892766" lon="5.765740922679917"><ele>380.20000000000005</ele><time>2026-04-05T13:57:43Z</time></trkpt><trkpt lat="45.54436489621997" lon="5.765873261398437"><ele>379.79999999999995</ele><time>2026-04-05T13:57:44Z</time></trkpt><trkpt lat="45.54440156620006" lon="5.766007907657355"><ele>379.4</ele><time>2026-04-05T13:57:45Z</time></trkpt><trkpt lat="45.54443797544621" lon="5.766147207970452"><ele>379.0</ele><time>2026-04-05T13:57:46Z</time></trkpt><trkpt lat="45.544481531861194" lon="5.766286060907374"><ele>378.79999999999995</ele><time>2026-04-05T13:57:47Z</time></trkpt><trkpt lat="45.544527081662125" lon="5.766427566768434"><ele>378.59999999999997</ele><time>2026-04-05T13:57:48Z</time></trkpt><trkpt lat="45.544562378034726" lon="5.766576836719666"><ele>378.4</ele><time>2026-04-05T13:57:49Z</time></trkpt><trkpt lat="45.5446153122798" lon="5.766718355004551"><ele>378.2</ele><time>2026-04-05T13:57:50Z</time></trkpt><trkpt lat="45.54467425766535" lon="5.766861657771609"><ele>378.0</ele><time>2026-04-05T13:57:51Z</time></trkpt><trkpt lat="45.54473761309808" lon="5.7669986761052074"><ele>379.2</ele><time>2026-04-05T13:57:52.001Z</time></trkpt><trkpt lat="45.544804286604" lon="5.767124722138221"><ele>380.4</ele><time>2026-04-05T13:57:53.001Z</time></trkpt><trkpt lat="45.54486764386393" lon="5.7672522480656365"><ele>381.59999999999997</ele><time>2026-04-05T13:57:54.001Z</time></trkpt><trkpt lat="45.544927224186715" lon="5.767365560582924"><ele>382.79999999999995</ele><time>2026-04-05T13:57:55.001Z</time></trkpt><trkpt lat="45.54498434451009" lon="5.7674677208941985"><ele>384.0</ele><time>2026-04-05T13:57:56.001Z</time></trkpt><trkpt lat="45.54504442169194" lon="5.767557137002894"><ele>383.99999999999994</ele><time>2026-04-05T13:57:57.001Z</time></trkpt><trkpt lat="45.545100293736446" lon="5.767634850053719"><ele>384.0</ele><time>2026-04-05T13:57:58.001Z</time></trkpt><trkpt lat="45.545150924365494" lon="5.767705011221136"><ele>384.0</ele><time>2026-04-05T13:57:59.001Z</time></trkpt><trkpt lat="45.545196945872654" lon="5.767772005216265"><ele>384.0</ele><time>2026-04-05T13:58:00.001Z</time></trkpt><trkpt lat="45.545246011382226" lon="5.767844887418873"><ele>384.0</ele><time>2026-04-05T13:58:01.001Z</time></trkpt><trkpt lat="45.54528571347944" lon="5.767932582775158"><ele>383.99999999999994</ele><time>2026-04-05T13:58:02.001Z</time></trkpt><trkpt lat="45.54534641898467" lon="5.76802252220711"><ele>384.0</ele><time>2026-04-05T13:58:03.001Z</time></trkpt><trkpt lat="45.54541920343551" lon="5.76811934671834"><ele>385.0</ele><time>2026-04-05T13:58:04.001Z</time></trkpt><trkpt lat="45.54548397838823" lon="5.768247964904241"><ele>386.0</ele><time>2026-04-05T13:58:05.001Z</time></trkpt><trkpt lat="45.54556752130554" lon="5.768372675334123"><ele>387.0</ele><time>2026-04-05T13:58:06.001Z</time></trkpt><trkpt lat="45.54565807313815" lon="5.768508643439315"><ele>388.0</ele><time>2026-04-05T13:58:07.001Z</time></trkpt><trkpt lat="45.545758241224604" lon="5.768662882020571"><ele>385.0</ele><time>2026-04-05T13:58:08.001Z</time></trkpt><trkpt lat="45.545854228762785" lon="5.76885185381627"><ele>382.0</ele><time>2026-04-05T13:58:09.001Z</time></trkpt><trkpt lat="45.545937774088536" lon="5.769054350146206"><ele>379.0</ele><time>2026-04-05T13:58:10.001Z</time></trkpt><trkpt lat="45.54604218270005" lon="5.769202684156706"><ele>379.0</ele><time>2026-04-05T13:58:11.001Z</time></trkpt><trkpt lat="45.546148455854926" lon="5.769358636295923"><ele>379.0</ele><time>2026-04-05T13:58:12.001Z</time></trkpt><trkpt lat="45.54620773118503" lon="5.769326200910859"><ele>379.0</ele><time>2026-04-05T13:58:13.001Z</time></trkpt><trkpt lat="45.54630748922074" lon="5.76947070224543"><ele>379.0</ele><time>2026-04-05T13:58:14.001Z</time></trkpt><trkpt lat="45.5464044236538" lon="5.769616201270712"><ele>380.66666666666663</ele><time>2026-04-05T13:58:15.001Z</time></trkpt><trkpt lat="45.5465054006894" lon="5.7697691131907005"><ele>382.3333333333333</ele><time>2026-04-05T13:58:16.001Z</time></trkpt><trkpt lat="45.54661395376301" lon="5.769929352818707"><ele>384.0</ele><time>2026-04-05T13:58:17.001Z</time></trkpt><trkpt lat="45.54672769036335" lon="5.77008921501705"><ele>384.66666666666663</ele><time>2026-04-05T13:58:18.001Z</time></trkpt><trkpt lat="45.546846652052736" lon="5.770253523483583"><ele>385.3333333333333</ele><time>2026-04-05T13:58:19.001Z</time></trkpt><trkpt lat="45.54697877108376" lon="5.770400937835127"><ele>386.0</ele><time>2026-04-05T13:58:20.001Z</time></trkpt><trkpt lat="45.5471111472859" lon="5.770562122697346"><ele>386.0</ele><time>2026-04-05T13:58:21.001Z</time></trkpt><trkpt lat="45.547247597724606" lon="5.770732717604229"><ele>386.0</ele><time>2026-04-05T13:58:22.001Z</time></trkpt><trkpt lat="45.547395832713526" lon="5.770913192087012"><ele>386.0</ele><time>2026-04-05T13:58:23.001Z</time></trkpt><trkpt lat="45.54755489415881" lon="5.771092736902548"><ele>386.66666666666663</ele><time>2026-04-05T13:58:24.001Z</time></trkpt><trkpt lat="45.54770270862152" lon="5.771269563609876"><ele>387.33333333333337</ele><time>2026-04-05T13:58:25.001Z</time></trkpt><trkpt lat="45.54785721611102" lon="5.771440476221223"><ele>388.0</ele><time>2026-04-05T13:58:26.001Z</time></trkpt><trkpt lat="45.54801661565971" lon="5.771620951329292"><ele>388.0</ele><time>2026-04-05T13:58:27.001Z</time></trkpt><trkpt lat="45.5481772072722" lon="5.771807600763397"><ele>388.0</ele><time>2026-04-05T13:58:28.001Z</time></trkpt><trkpt lat="45.54831807376093" lon="5.772000582836725"><ele>388.0</ele><time>2026-04-05T13:58:29.001Z</time></trkpt><trkpt lat="45.54845497158699" lon="5.772160967845461"><ele>387.6666666666667</ele><time>2026-04-05T13:58:30.001Z</time></trkpt><trkpt lat="45.54857955403508" lon="5.772314954220714"><ele>387.33333333333337</ele><time>2026-04-05T13:58:31.001Z</time></trkpt><trkpt lat="45.54868520645734" lon="5.772463641736001"><ele>387.0</ele><time>2026-04-05T13:58:32.001Z</time></trkpt><trkpt lat="45.54879773336462" lon="5.772616846106355"><ele>389.66666666666663</ele><time>2026-04-05T13:58:33.001Z</time></trkpt><trkpt lat="45.548879404783555" lon="5.772801704513799"><ele>392.3333333333333</ele><time>2026-04-05T13:58:34.001Z</time></trkpt><trkpt lat="45.54896718665331" lon="5.772998011179826"><ele>395.0</ele><time>2026-04-05T13:58:35.001Z</time></trkpt><trkpt lat="45.54906116289935" lon="5.773212216244592"><ele>395.0</ele><time>2026-04-05T13:58:36.001Z</time></trkpt><trkpt lat="45.54913173059408" lon="5.773451103474971"><ele>395.0</ele><time>2026-04-05T13:58:37.001Z</time></trkpt><trkpt lat="45.549194409065365" lon="5.773694657711972"><ele>395.0</ele><time>2026-04-05T13:58:38.001Z</time></trkpt><trkpt lat="45.549237132805075" lon="5.773932824775668"><ele>394.3333333333333</ele><time>2026-04-05T13:58:39.001Z</time></trkpt><trkpt lat="45.54927843724281" lon="5.774152822687325"><ele>393.66666666666663</ele><time>2026-04-05T13:58:40.001Z</time></trkpt><trkpt lat="45.54932062478184" lon="5.774369625534835"><ele>393.0</ele><time>2026-04-05T13:58:41.001Z</time></trkpt><trkpt lat="45.54936339919843" lon="5.774589960173372"><ele>392.66666666666663</ele><time>2026-04-05T13:58:42.001Z</time></trkpt><trkpt lat="45.549390748690186" lon="5.774825194045723"><ele>392.3333333333333</ele><time>2026-04-05T13:58:43.001Z</time></trkpt><trkpt lat="45.54943084113133" lon="5.77503777853362"><ele>392.0</ele><time>2026-04-05T13:58:44.001Z</time></trkpt><trkpt lat="45.54947227013653" lon="5.775257449969783"><ele>391.3333333333333</ele><time>2026-04-05T13:58:45.001Z</time></trkpt><trkpt lat="45.549511015887184" lon="5.775462893690342"><ele>390.66666666666663</ele><time>2026-04-05T13:58:46.001Z</time></trkpt><trkpt lat="45.549551066896065" lon="5.775676592640823"><ele>390.0</ele><time>2026-04-05T13:58:47.001Z</time></trkpt><trkpt lat="45.54959028991498" lon="5.7758867538068905"><ele>393.33333333333337</ele><time>2026-04-05T13:58:48.001Z</time></trkpt><trkpt lat="45.549630828248304" lon="5.776103962590173"><ele>396.6666666666667</ele><time>2026-04-05T13:58:49.001Z</time></trkpt><trkpt lat="45.54967137078962" lon="5.776319165793188"><ele>400.0</ele><time>2026-04-05T13:58:50.001Z</time></trkpt><trkpt lat="45.54971411362714" lon="5.77654187847621"><ele>400.0</ele><time>2026-04-05T13:58:51.001Z</time></trkpt><trkpt lat="45.549754611107154" lon="5.776756824419261"><ele>400.0</ele><time>2026-04-05T13:58:52.001Z</time></trkpt><trkpt lat="45.54979571031645" lon="5.776980375315068"><ele>400.0</ele><time>2026-04-05T13:58:53.001Z</time></trkpt><trkpt lat="45.54985318780376" lon="5.777197174782153"><ele>399.0</ele><time>2026-04-05T13:58:54.001Z</time></trkpt><trkpt lat="45.549878273249476" lon="5.777420625788469"><ele>398.0</ele><time>2026-04-05T13:58:55.001Z</time></trkpt><trkpt lat="45.54993019189071" lon="5.777646969471715"><ele>397.0</ele><time>2026-04-05T13:58:56.001Z</time></trkpt><trkpt lat="45.54996595983442" lon="5.777875276916519"><ele>396.6666666666667</ele><time>2026-04-05T13:58:57.001Z</time></trkpt><trkpt lat="45.5500073377515" lon="5.778097412228817"><ele>396.33333333333337</ele><time>2026-04-05T13:58:58.001Z</time></trkpt><trkpt lat="45.550047728730554" lon="5.778315247905958"><ele>396.0</ele><time>2026-04-05T13:58:59.001Z</time></trkpt><trkpt lat="45.55008650814263" lon="5.778524392102705"><ele>395.75</ele><time>2026-04-05T13:59:00.001Z</time></trkpt><trkpt lat="45.550122961355704" lon="5.778717814063904"><ele>395.5</ele><time>2026-04-05T13:59:01.001Z</time></trkpt><trkpt lat="45.55015812839929" lon="5.778904018366402"><ele>395.25</ele><time>2026-04-05T13:59:02.001Z</time></trkpt><trkpt lat="45.550192929523206" lon="5.779088916099067"><ele>395.0</ele><time>2026-04-05T13:59:03.001Z</time></trkpt><trkpt lat="45.55022762484029" lon="5.779275696461228"><ele>395.75</ele><time>2026-04-05T13:59:04.002Z</time></trkpt><trkpt lat="45.550277692746604" lon="5.7794574286113685"><ele>396.5</ele><time>2026-04-05T13:59:05.002Z</time></trkpt><trkpt lat="45.550305552394576" lon="5.779642651641622"><ele>397.25</ele><time>2026-04-05T13:59:06.002Z</time></trkpt><trkpt lat="45.5503485023439" lon="5.779820897901189"><ele>398.0</ele><time>2026-04-05T13:59:07.002Z</time></trkpt><trkpt lat="45.55041848640196" lon="5.779985019755551"><ele>398.25</ele><time>2026-04-05T13:59:08.002Z</time></trkpt><trkpt lat="45.55052367580714" lon="5.780122272718111"><ele>398.5</ele><time>2026-04-05T13:59:09Z</time></trkpt><trkpt lat="45.55063004848698" lon="5.780228371084229"><ele>398.75</ele><time>2026-04-05T13:59:10Z</time></trkpt><trkpt lat="45.55070821379493" lon="5.780346154487635"><ele>399.0</ele><time>2026-04-05T13:59:11Z</time></trkpt><trkpt lat="45.550793772211186" lon="5.780444702165533"><ele>399.0</ele><time>2026-04-05T13:59:12Z</time></trkpt><trkpt lat="45.55087708147475" lon="5.780529451561838"><ele>399.0</ele><time>2026-04-05T13:59:13Z</time></trkpt><trkpt lat="45.55096017238559" lon="5.780604088462776"><ele>399.0</ele><time>2026-04-05T13:59:14Z</time></trkpt><trkpt lat="45.55103785929637" lon="5.7806704167892"><ele>399.0</ele><time>2026-04-05T13:59:15Z</time></trkpt><trkpt lat="45.55111255031288" lon="5.780733573483996"><ele>399.0</ele><time>2026-04-05T13:59:16Z</time></trkpt><trkpt lat="45.55118747044406" lon="5.7807915765016515"><ele>399.1666666666667</ele><time>2026-04-05T13:59:17Z</time></trkpt><trkpt lat="45.551260360494354" lon="5.780849707944317"><ele>399.33333333333337</ele><time>2026-04-05T13:59:18Z</time></trkpt><trkpt lat="45.551332864240656" lon="5.780903526789246"><ele>399.5</ele><time>2026-04-05T13:59:19Z</time></trkpt><trkpt lat="45.5514034224811" lon="5.780956819101292"><ele>399.6666666666667</ele><time>2026-04-05T13:59:20Z</time></trkpt><trkpt lat="45.5514750398509" lon="5.7810091028812876"><ele>399.83333333333337</ele><time>2026-04-05T13:59:21Z</time></trkpt><trkpt lat="45.551556065784624" lon="5.781067770337631"><ele>400.0</ele><time>2026-04-05T13:59:22Z</time></trkpt><trkpt lat="45.55163143631647" lon="5.781120189127059"><ele>400.0</ele><time>2026-04-05T13:59:23Z</time></trkpt><trkpt lat="45.551720681916386" lon="5.781182257779195"><ele>400.0</ele><time>2026-04-05T13:59:24Z</time></trkpt><trkpt lat="45.55181688604212" lon="5.781249095909104"><ele>400.0</ele><time>2026-04-05T13:59:25Z</time></trkpt><trkpt lat="45.551916804636676" lon="5.781317250803233"><ele>400.0</ele><time>2026-04-05T13:59:26Z</time></trkpt><trkpt lat="45.552017576503566" lon="5.781385987712261"><ele>400.0</ele><time>2026-04-05T13:59:27Z</time></trkpt><trkpt lat="45.55211157173999" lon="5.781450102266573"><ele>399.1666666666667</ele><time>2026-04-05T13:59:28Z</time></trkpt><trkpt lat="45.55219066718392" lon="5.781504053601346"><ele>398.33333333333337</ele><time>2026-04-05T13:59:29Z</time></trkpt><trkpt lat="45.55226141069813" lon="5.781551443188306"><ele>397.5</ele><time>2026-04-05T13:59:30Z</time></trkpt><trkpt lat="45.55233300434088" lon="5.7815990943495015"><ele>396.66666666666663</ele><time>2026-04-05T13:59:31Z</time></trkpt><trkpt lat="45.552409173537" lon="5.781649167756122"><ele>395.8333333333333</ele><time>2026-04-05T13:59:32Z</time></trkpt><trkpt lat="45.55248919242977" lon="5.7817024947836755"><ele>395.0</ele><time>2026-04-05T13:59:33Z</time></trkpt><trkpt lat="45.55257399328605" lon="5.78175881986357"><ele>395.0</ele><time>2026-04-05T13:59:34Z</time></trkpt><trkpt lat="45.55265935794188" lon="5.781815420345249"><ele>395.0</ele><time>2026-04-05T13:59:35Z</time></trkpt><trkpt lat="45.55275258927621" lon="5.781875652314619"><ele>395.0</ele><time>2026-04-05T13:59:36Z</time></trkpt><trkpt lat="45.55285636673763" lon="5.781941184388307"><ele>395.0</ele><time>2026-04-05T13:59:37Z</time></trkpt><trkpt lat="45.55296823521261" lon="5.782012776005214"><ele>395.0</ele><time>2026-04-05T13:59:38Z</time></trkpt><trkpt lat="45.55308693238191" lon="5.782080978237007"><ele>395.5</ele><time>2026-04-05T13:59:39Z</time></trkpt><trkpt lat="45.55319830913788" lon="5.7821632092933815"><ele>396.0</ele><time>2026-04-05T13:59:40Z</time></trkpt><trkpt lat="45.55329404230299" lon="5.7822709153921386"><ele>396.5</ele><time>2026-04-05T13:59:41Z</time></trkpt><trkpt lat="45.55338213502724" lon="5.782397413327743"><ele>397.0</ele><time>2026-04-05T13:59:42Z</time></trkpt><trkpt lat="45.55346060099889" lon="5.7825467268449975"><ele>396.25</ele><time>2026-04-05T13:59:43Z</time></trkpt><trkpt lat="45.55352676130892" lon="5.78271348971486"><ele>395.5</ele><time>2026-04-05T13:59:44Z</time></trkpt><trkpt lat="45.55358947883217" lon="5.782896905221126"><ele>394.75</ele><time>2026-04-05T13:59:45Z</time></trkpt><trkpt lat="45.553650887287965" lon="5.783094109515139"><ele>394.0</ele><time>2026-04-05T13:59:46Z</time></trkpt><trkpt lat="45.55371136439228" lon="5.783291537173593"><ele>395.33333333333337</ele><time>2026-04-05T13:59:47Z</time></trkpt><trkpt lat="45.55377968838977" lon="5.783488949994791"><ele>396.66666666666663</ele><time>2026-04-05T13:59:48Z</time></trkpt><trkpt lat="45.55383754408622" lon="5.783710793874944"><ele>398.0</ele><time>2026-04-05T13:59:49Z</time></trkpt><trkpt lat="45.55392275303123" lon="5.783918275919978"><ele>398.0</ele><time>2026-04-05T13:59:50Z</time></trkpt><trkpt lat="45.553984039566544" lon="5.784128167785155"><ele>398.0</ele><time>2026-04-05T13:59:51Z</time></trkpt><trkpt lat="45.55405245892701" lon="5.784341375931754"><ele>398.0</ele><time>2026-04-05T13:59:52Z</time></trkpt><trkpt lat="45.554120695471354" lon="5.78455553131134"><ele>396.3333333333333</ele><time>2026-04-05T13:59:53Z</time></trkpt><trkpt lat="45.55419104793423" lon="5.784763663627976"><ele>394.66666666666663</ele><time>2026-04-05T13:59:54Z</time></trkpt><trkpt lat="45.554253932627944" lon="5.7849649787961335"><ele>393.0</ele><time>2026-04-05T13:59:55Z</time></trkpt><trkpt lat="45.554318229732246" lon="5.785141977269976"><ele>392.25</ele><time>2026-04-05T13:59:56Z</time></trkpt><trkpt lat="45.55436865125322" lon="5.7852787681874105"><ele>391.5</ele><time>2026-04-05T13:59:57.001Z</time></trkpt><trkpt lat="45.55446420869002" lon="5.785448065415582"><ele>390.75</ele><time>2026-04-05T13:59:58.001Z</time></trkpt><trkpt lat="45.5545782755175" lon="5.785542280575596"><ele>390.0</ele><time>2026-04-05T13:59:59.001Z</time></trkpt><trkpt lat="45.554709299380924" lon="5.785597734985129"><ele>391.5</ele><time>2026-04-05T14:00:00.001Z</time></trkpt><trkpt lat="45.55483553909318" lon="5.785665417811301"><ele>393.0</ele><time>2026-04-05T14:00:01.001Z</time></trkpt><trkpt lat="45.55496531891921" lon="5.785719643882166"><ele>394.5</ele><time>2026-04-05T14:00:02.001Z</time></trkpt><trkpt lat="45.55509322267638" lon="5.785772889538572"><ele>396.0</ele><time>2026-04-05T14:00:03.001Z</time></trkpt><trkpt lat="45.555234736411855" lon="5.785843837512919"><ele>396.0</ele><time>2026-04-05T14:00:04.001Z</time></trkpt><trkpt lat="45.55536067462627" lon="5.785935483863439"><ele>396.0</ele><time>2026-04-05T14:00:05.001Z</time></trkpt><trkpt lat="45.555473646919985" lon="5.786057997261816"><ele>396.0</ele><time>2026-04-05T14:00:06.001Z</time></trkpt><trkpt lat="45.55557267904656" lon="5.786205025522394"><ele>396.0</ele><time>2026-04-05T14:00:07.001Z</time></trkpt><trkpt lat="45.55566300069798" lon="5.786365016832104"><ele>394.25</ele><time>2026-04-05T14:00:08.001Z</time></trkpt><trkpt lat="45.55575262060362" lon="5.786525215803753"><ele>392.5</ele><time>2026-04-05T14:00:09.001Z</time></trkpt><trkpt lat="45.555842432066086" lon="5.786689818525867"><ele>390.75</ele><time>2026-04-05T14:00:10.001Z</time></trkpt><trkpt lat="45.55593265580325" lon="5.78685517687077"><ele>389.0</ele><time>2026-04-05T14:00:11.001Z</time></trkpt><trkpt lat="45.55603593346756" lon="5.787005750896571"><ele>389.0</ele><time>2026-04-05T14:00:12.001Z</time></trkpt><trkpt lat="45.5561304306222" lon="5.787170604621982"><ele>389.0</ele><time>2026-04-05T14:00:13.001Z</time></trkpt><trkpt lat="45.556230122294224" lon="5.787332425513892"><ele>389.0</ele><time>2026-04-05T14:00:14.001Z</time></trkpt><trkpt lat="45.55633588181973" lon="5.787490924788014"><ele>390.0</ele><time>2026-04-05T14:00:15.001Z</time></trkpt><trkpt lat="45.55645005171684" lon="5.787633608864948"><ele>391.0</ele><time>2026-04-05T14:00:16.001Z</time></trkpt><trkpt lat="45.55656515769101" lon="5.787741327778119"><ele>392.0</ele><time>2026-04-05T14:00:17.001Z</time></trkpt><trkpt lat="45.556677433622426" lon="5.787838413529712"><ele>393.0</ele><time>2026-04-05T14:00:18.001Z</time></trkpt><trkpt lat="45.55678612699727" lon="5.787935453957314"><ele>393.0</ele><time>2026-04-05T14:00:19.001Z</time></trkpt><trkpt lat="45.55689182041431" lon="5.788034484336902"><ele>393.0</ele><time>2026-04-05T14:00:20.001Z</time></trkpt><trkpt lat="45.55699643521741" lon="5.788135640384147"><ele>393.0</ele><time>2026-04-05T14:00:21.001Z</time></trkpt><trkpt lat="45.557102509268404" lon="5.788238148066451"><ele>393.0</ele><time>2026-04-05T14:00:22.001Z</time></trkpt><trkpt lat="45.55721452491438" lon="5.788340488680708"><ele>392.66666666666663</ele><time>2026-04-05T14:00:23.001Z</time></trkpt><trkpt lat="45.557338254790984" lon="5.788451550365947"><ele>392.3333333333333</ele><time>2026-04-05T14:00:24.001Z</time></trkpt><trkpt lat="45.5574720342166" lon="5.788574368436407"><ele>392.0</ele><time>2026-04-05T14:00:25.001Z</time></trkpt><trkpt lat="45.55760035414088" lon="5.788717063131995"><ele>392.0</ele><time>2026-04-05T14:00:26.001Z</time></trkpt><trkpt lat="45.55774734976541" lon="5.788830077404365"><ele>392.0</ele><time>2026-04-05T14:00:27.001Z</time></trkpt><trkpt lat="45.55789507663508" lon="5.788971742744245"><ele>392.0</ele><time>2026-04-05T14:00:28.001Z</time></trkpt><trkpt lat="45.55802338547238" lon="5.789097047791148"><ele>391.0</ele><time>2026-04-05T14:00:29.001Z</time></trkpt><trkpt lat="45.55813961786251" lon="5.7892211114434815"><ele>390.0</ele><time>2026-04-05T14:00:30.001Z</time></trkpt><trkpt lat="45.55826904006191" lon="5.789345103083493"><ele>389.0</ele><time>2026-04-05T14:00:31.001Z</time></trkpt><trkpt lat="45.55839678803605" lon="5.789458457796498"><ele>388.25</ele><time>2026-04-05T14:00:32.001Z</time></trkpt><trkpt lat="45.55853262959349" lon="5.789555493900014"><ele>387.5</ele><time>2026-04-05T14:00:33.001Z</time></trkpt><trkpt lat="45.55866514507783" lon="5.789655468854391"><ele>386.75</ele><time>2026-04-05T14:00:34.001Z</time></trkpt><trkpt lat="45.55879116481487" lon="5.789762275315929"><ele>386.0</ele><time>2026-04-05T14:00:35.001Z</time></trkpt><trkpt lat="45.55890490538708" lon="5.789874373617313"><ele>386.0</ele><time>2026-04-05T14:00:36.001Z</time></trkpt><trkpt lat="45.5590243475684" lon="5.789974055004014"><ele>386.0</ele><time>2026-04-05T14:00:37.001Z</time></trkpt><trkpt lat="45.559142754584926" lon="5.7900773804121055"><ele>386.0</ele><time>2026-04-05T14:00:38.001Z</time></trkpt><trkpt lat="45.559253275937614" lon="5.790203941423917"><ele>386.0</ele><time>2026-04-05T14:00:39.001Z</time></trkpt><trkpt lat="45.55937562108655" lon="5.790322324453527"><ele>386.0</ele><time>2026-04-05T14:00:40.001Z</time></trkpt><trkpt lat="45.55950407320684" lon="5.79044207867439"><ele>386.0</ele><time>2026-04-05T14:00:41.001Z</time></trkpt><trkpt lat="45.559643246033666" lon="5.790571634921692"><ele>386.0</ele><time>2026-04-05T14:00:42.001Z</time></trkpt><trkpt lat="45.559781554857" lon="5.7907003886034945"><ele>386.66666666666663</ele><time>2026-04-05T14:00:43.001Z</time></trkpt><trkpt lat="45.559932545501525" lon="5.790840946027834"><ele>387.33333333333337</ele><time>2026-04-05T14:00:44.001Z</time></trkpt><trkpt lat="45.56007252149177" lon="5.7909753660258225"><ele>388.0</ele><time>2026-04-05T14:00:45.001Z</time></trkpt><trkpt lat="45.5602069258018" lon="5.7911229985134325"><ele>388.0</ele><time>2026-04-05T14:00:46.001Z</time></trkpt><trkpt lat="45.560325277503374" lon="5.791290048892523"><ele>388.0</ele><time>2026-04-05T14:00:47.001Z</time></trkpt><trkpt lat="45.56042767455701" lon="5.791476579190431"><ele>388.0</ele><time>2026-04-05T14:00:48.001Z</time></trkpt><trkpt lat="45.560517971423415" lon="5.791680515939496"><ele>388.33333333333337</ele><time>2026-04-05T14:00:49.001Z</time></trkpt><trkpt lat="45.56058615940478" lon="5.791889975543914"><ele>388.66666666666663</ele><time>2026-04-05T14:00:50.001Z</time></trkpt><trkpt lat="45.560639589928975" lon="5.792095155813557"><ele>389.0</ele><time>2026-04-05T14:00:51.001Z</time></trkpt><trkpt lat="45.56069148453343" lon="5.792295788695304"><ele>389.0</ele><time>2026-04-05T14:00:52.001Z</time></trkpt><trkpt lat="45.56074081944954" lon="5.792482520853333"><ele>389.0</ele><time>2026-04-05T14:00:53.001Z</time></trkpt><trkpt lat="45.56079220294588" lon="5.792654342026576"><ele>389.0</ele><time>2026-04-05T14:00:54.001Z</time></trkpt><trkpt lat="45.5608482511736" lon="5.792852334095708"><ele>389.0</ele><time>2026-04-05T14:00:55.001Z</time></trkpt><trkpt lat="45.560913755399255" lon="5.793042388670595"><ele>388.75</ele><time>2026-04-05T14:00:56.001Z</time></trkpt><trkpt lat="45.56099231624332" lon="5.793210990066179"><ele>388.5</ele><time>2026-04-05T14:00:57.001Z</time></trkpt><trkpt lat="45.56107794233427" lon="5.793385397845997"><ele>388.25</ele><time>2026-04-05T14:00:58.001Z</time></trkpt><trkpt lat="45.561165673425535" lon="5.793556090472494"><ele>388.0</ele><time>2026-04-05T14:00:59.001Z</time></trkpt><trkpt lat="45.56125737699759" lon="5.793721052989011"><ele>388.0</ele><time>2026-04-05T14:01:00.001Z</time></trkpt><trkpt lat="45.561346332268116" lon="5.793883563354512"><ele>388.0</ele><time>2026-04-05T14:01:01.001Z</time></trkpt><trkpt lat="45.56142421496453" lon="5.794063403124611"><ele>388.0</ele><time>2026-04-05T14:01:02.001Z</time></trkpt><trkpt lat="45.56152657003317" lon="5.794215399857837"><ele>388.0</ele><time>2026-04-05T14:01:03.001Z</time></trkpt><trkpt lat="45.56161336833261" lon="5.794381765915436"><ele>386.5</ele><time>2026-04-05T14:01:04.001Z</time></trkpt><trkpt lat="45.56170644303495" lon="5.794549818150575"><ele>385.0</ele><time>2026-04-05T14:01:05.001Z</time></trkpt><trkpt lat="45.56178377696261" lon="5.794730073216715"><ele>383.5</ele><time>2026-04-05T14:01:06.001Z</time></trkpt><trkpt lat="45.561874668121376" lon="5.794897813181301"><ele>382.0</ele><time>2026-04-05T14:01:07.001Z</time></trkpt><trkpt lat="45.561964188838886" lon="5.795063024010557"><ele>383.5</ele><time>2026-04-05T14:01:08.002Z</time></trkpt><trkpt lat="45.56205745215858" lon="5.795231397697576"><ele>385.0</ele><time>2026-04-05T14:01:09.002Z</time></trkpt><trkpt lat="45.56214782581426" lon="5.795393668903217"><ele>386.5</ele><time>2026-04-05T14:01:10.002Z</time></trkpt><trkpt lat="45.56223898958104" lon="5.795557358739903"><ele>388.0</ele><time>2026-04-05T14:01:11.002Z</time></trkpt><trkpt lat="45.56233167154939" lon="5.7957219736090675"><ele>388.0</ele><time>2026-04-05T14:01:12.002Z</time></trkpt><trkpt lat="45.56242437887834" lon="5.795877815844295"><ele>388.0</ele><time>2026-04-05T14:01:13.002Z</time></trkpt><trkpt lat="45.56252429825052" lon="5.796009865140591"><ele>388.0</ele><time>2026-04-05T14:01:14.002Z</time></trkpt><trkpt lat="45.562649980918096" lon="5.796100233099499"><ele>388.0</ele><time>2026-04-05T14:01:15Z</time></trkpt><trkpt lat="45.562768258065574" lon="5.796172875344047"><ele>387.5</ele><time>2026-04-05T14:01:16Z</time></trkpt><trkpt lat="45.562889641540856" lon="5.796207020810496"><ele>387.0</ele><time>2026-04-05T14:01:17Z</time></trkpt><trkpt lat="45.56300092506861" lon="5.796180587115663"><ele>386.5</ele><time>2026-04-05T14:01:18Z</time></trkpt><trkpt lat="45.56311648209343" lon="5.796109347002865"><ele>386.0</ele><time>2026-04-05T14:01:19Z</time></trkpt><trkpt lat="45.563213097767246" lon="5.795989784058433"><ele>386.0</ele><time>2026-04-05T14:01:20Z</time></trkpt><trkpt lat="45.56329980724106" lon="5.7958523736013445"><ele>386.0</ele><time>2026-04-05T14:01:21Z</time></trkpt><trkpt lat="45.56336735486515" lon="5.795677930295773"><ele>386.0</ele><time>2026-04-05T14:01:22Z</time></trkpt><trkpt lat="45.56343197004322" lon="5.795491772640826"><ele>386.0</ele><time>2026-04-05T14:01:23Z</time></trkpt><trkpt lat="45.563517585429786" lon="5.795332005882471"><ele>386.0</ele><time>2026-04-05T14:01:24Z</time></trkpt><trkpt lat="45.56358875410503" lon="5.795172544421635"><ele>386.0</ele><time>2026-04-05T14:01:25Z</time></trkpt><trkpt lat="45.56364331275374" lon="5.7950169639140015"><ele>386.0</ele><time>2026-04-05T14:01:26Z</time></trkpt><trkpt lat="45.56372119905016" lon="5.794898391453774"><ele>386.0</ele><time>2026-04-05T14:01:27Z</time></trkpt><trkpt lat="45.56380475863452" lon="5.794797911253453"><ele>384.8333333333333</ele><time>2026-04-05T14:01:28Z</time></trkpt><trkpt lat="45.56389255964364" lon="5.79472394758868"><ele>383.66666666666663</ele><time>2026-04-05T14:01:29Z</time></trkpt><trkpt lat="45.563962907149886" lon="5.794686160985163"><ele>382.5</ele><time>2026-04-05T14:01:30Z</time></trkpt><trkpt lat="45.56406314235396" lon="5.794628653453944"><ele>381.3333333333333</ele><time>2026-04-05T14:01:32Z</time></trkpt><trkpt lat="45.564144742797446" lon="5.794610625118461"><ele>380.16666666666663</ele><time>2026-04-05T14:01:34Z</time></trkpt><trkpt lat="45.5642193736081" lon="5.794611276307606"><ele>379.0</ele><time>2026-04-05T14:01:37Z</time></trkpt><trkpt lat="45.56428627464747" lon="5.794616261177263"><ele>379.0</ele><time>2026-04-05T14:01:39Z</time></trkpt><trkpt lat="45.56440801823956" lon="5.794632210016491"><ele>379.0</ele><time>2026-04-05T14:01:41Z</time></trkpt><trkpt lat="45.56447550773533" lon="5.794636633516841"><ele>379.0</ele><time>2026-04-05T14:01:42Z</time></trkpt><trkpt lat="45.56454825777902" lon="5.794634900833034"><ele>379.0</ele><time>2026-04-05T14:01:43Z</time></trkpt><trkpt lat="45.56462846246955" lon="5.794661812010731"><ele>379.0</ele><time>2026-04-05T14:01:44Z</time></trkpt><trkpt lat="45.56471566813121" lon="5.794669848705781"><ele>379.0</ele><time>2026-04-05T14:01:45Z</time></trkpt><trkpt lat="45.56481707942201" lon="5.794658072713421"><ele>379.75</ele><time>2026-04-05T14:01:46Z</time></trkpt><trkpt lat="45.564929745150174" lon="5.794665192961428"><ele>380.5</ele><time>2026-04-05T14:01:47Z</time></trkpt><trkpt lat="45.56506566213486" lon="5.794680566473874"><ele>381.25</ele><time>2026-04-05T14:01:48Z</time></trkpt><trkpt lat="45.56518398882228" lon="5.79468246348015"><ele>382.0</ele><time>2026-04-05T14:01:49Z</time></trkpt><trkpt lat="45.565291062872696" lon="5.794707495809962"><ele>382.20000000000005</ele><time>2026-04-05T14:01:50Z</time></trkpt><trkpt lat="45.565393255461025" lon="5.794705618585882"><ele>382.4</ele><time>2026-04-05T14:01:51Z</time></trkpt><trkpt lat="45.56549587551643" lon="5.794695212853903"><ele>382.6</ele><time>2026-04-05T14:01:52Z</time></trkpt><trkpt lat="45.56559385472249" lon="5.794677545917845"><ele>382.79999999999995</ele><time>2026-04-05T14:01:53Z</time></trkpt><trkpt lat="45.56567965753791" lon="5.79465790002271"><ele>383.0</ele><time>2026-04-05T14:01:54Z</time></trkpt><trkpt lat="45.5657655466914" lon="5.794636097342774"><ele>383.0</ele><time>2026-04-05T14:01:55Z</time></trkpt><trkpt lat="45.56585747360872" lon="5.794610351829983"><ele>383.0</ele><time>2026-04-05T14:01:56Z</time></trkpt><trkpt lat="45.5659511054552" lon="5.794580497088674"><ele>383.0</ele><time>2026-04-05T14:01:57Z</time></trkpt><trkpt lat="45.56604271279477" lon="5.794547576548354"><ele>383.0</ele><time>2026-04-05T14:01:58Z</time></trkpt><trkpt lat="45.56613594516055" lon="5.794513741552543"><ele>383.0</ele><time>2026-04-05T14:01:59Z</time></trkpt><trkpt lat="45.566229161109945" lon="5.794479912834828"><ele>383.2</ele><time>2026-04-05T14:02:00Z</time></trkpt><trkpt lat="45.5663289434799" lon="5.794443855709283"><ele>383.4</ele><time>2026-04-05T14:02:01Z</time></trkpt><trkpt lat="45.56642799701983" lon="5.794408157756553"><ele>383.59999999999997</ele><time>2026-04-05T14:02:02Z</time></trkpt><trkpt lat="45.56653225134588" lon="5.794370585479471"><ele>383.79999999999995</ele><time>2026-04-05T14:02:03Z</time></trkpt><trkpt lat="45.566634858867246" lon="5.794333302893368"><ele>384.0</ele><time>2026-04-05T14:02:04Z</time></trkpt><trkpt lat="45.566735260106306" lon="5.794296556497028"><ele>384.0</ele><time>2026-04-05T14:02:05.001Z</time></trkpt><trkpt lat="45.566825979680125" lon="5.794239960504672"><ele>384.0</ele><time>2026-04-05T14:02:06.001Z</time></trkpt><trkpt lat="45.56692002096722" lon="5.7942088322369525"><ele>384.0</ele><time>2026-04-05T14:02:07.001Z</time></trkpt><trkpt lat="45.567015033221395" lon="5.794173106039923"><ele>384.0</ele><time>2026-04-05T14:02:08.001Z</time></trkpt><trkpt lat="45.56711525819813" lon="5.794134384475679"><ele>384.0</ele><time>2026-04-05T14:02:09.001Z</time></trkpt><trkpt lat="45.56720697579035" lon="5.7940948661415925"><ele>383.4</ele><time>2026-04-05T14:02:10.001Z</time></trkpt><trkpt lat="45.56730400224254" lon="5.794063136770162"><ele>382.79999999999995</ele><time>2026-04-05T14:02:11.001Z</time></trkpt><trkpt lat="45.56740912844553" lon="5.794040690906604"><ele>382.20000000000005</ele><time>2026-04-05T14:02:12.001Z</time></trkpt><trkpt lat="45.56752088689002" lon="5.794023545995885"><ele>381.6</ele><time>2026-04-05T14:02:13.001Z</time></trkpt><trkpt lat="45.56763549997778" lon="5.794019017714498"><ele>381.0</ele><time>2026-04-05T14:02:14.001Z</time></trkpt><trkpt lat="45.56774982350036" lon="5.7940722199116275"><ele>381.75</ele><time>2026-04-05T14:02:15.001Z</time></trkpt><trkpt lat="45.56786947213199" lon="5.79409405851448"><ele>382.5</ele><time>2026-04-05T14:02:16.001Z</time></trkpt><trkpt lat="45.56799210848648" lon="5.794121340106847"><ele>383.25</ele><time>2026-04-05T14:02:17.001Z</time></trkpt><trkpt lat="45.56808710699338" lon="5.794144037142171"><ele>384.0</ele><time>2026-04-05T14:02:18.001Z</time></trkpt><trkpt lat="45.56821404672912" lon="5.794174306592958"><ele>384.0</ele><time>2026-04-05T14:02:19.001Z</time></trkpt><trkpt lat="45.56832484638326" lon="5.794200403197972"><ele>384.0</ele><time>2026-04-05T14:02:20.001Z</time></trkpt><trkpt lat="45.568436803917464" lon="5.794226621475693"><ele>384.0</ele><time>2026-04-05T14:02:21.001Z</time></trkpt><trkpt lat="45.568548061508785" lon="5.794252675823724"><ele>384.0</ele><time>2026-04-05T14:02:22.001Z</time></trkpt><trkpt lat="45.56864822199458" lon="5.794276131454655"><ele>384.0</ele><time>2026-04-05T14:02:23.001Z</time></trkpt><trkpt lat="45.56875362405054" lon="5.79430081457534"><ele>384.75</ele><time>2026-04-05T14:02:24.001Z</time></trkpt><trkpt lat="45.568861035692734" lon="5.794325968279651"><ele>385.5</ele><time>2026-04-05T14:02:25.001Z</time></trkpt><trkpt lat="45.56897482865891" lon="5.794352616368251"><ele>386.25</ele><time>2026-04-05T14:02:26.001Z</time></trkpt><trkpt lat="45.569092788970025" lon="5.794380240364803"><ele>387.0</ele><time>2026-04-05T14:02:27.001Z</time></trkpt><trkpt lat="45.56922404222551" lon="5.794410977334138"><ele>385.20000000000005</ele><time>2026-04-05T14:02:28.001Z</time></trkpt><trkpt lat="45.569352439939806" lon="5.794441047551679"><ele>383.4</ele><time>2026-04-05T14:02:29.001Z</time></trkpt><trkpt lat="45.56946268363278" lon="5.794468187353979"><ele>381.6</ele><time>2026-04-05T14:02:30.001Z</time></trkpt><trkpt lat="45.569556989104115" lon="5.794492589442913"><ele>379.79999999999995</ele><time>2026-04-05T14:02:31.001Z</time></trkpt><trkpt lat="45.569640209564085" lon="5.794514912295141"><ele>378.0</ele><time>2026-04-05T14:02:32.001Z</time></trkpt><trkpt lat="45.569714175061165" lon="5.794534752671245"><ele>378.0</ele><time>2026-04-05T14:02:33.001Z</time></trkpt><trkpt lat="45.569786321493794" lon="5.794554104973765"><ele>378.0</ele><time>2026-04-05T14:02:34.001Z</time></trkpt><trkpt lat="45.569852714055855" lon="5.794571913960364"><ele>378.0</ele><time>2026-04-05T14:02:35.001Z</time></trkpt><trkpt lat="45.56992304754012" lon="5.7945890933485265"><ele>378.0</ele><time>2026-04-05T14:02:36.001Z</time></trkpt><trkpt lat="45.56999907463313" lon="5.794607549332346"><ele>378.0</ele><time>2026-04-05T14:02:37.001Z</time></trkpt><trkpt lat="45.570085665979" lon="5.79460681422072"><ele>378.0</ele><time>2026-04-05T14:02:38.001Z</time></trkpt><trkpt lat="45.57017993200363" lon="5.794615077388426"><ele>378.0</ele><time>2026-04-05T14:02:39.001Z</time></trkpt><trkpt lat="45.57028356475059" lon="5.794605072132708"><ele>378.0</ele><time>2026-04-05T14:02:40.001Z</time></trkpt><trkpt lat="45.5703769158329" lon="5.794607687286924"><ele>378.0</ele><time>2026-04-05T14:02:41.001Z</time></trkpt><trkpt lat="45.57047468844065" lon="5.794579216979438"><ele>378.0</ele><time>2026-04-05T14:02:42.001Z</time></trkpt><trkpt lat="45.5705684484212" lon="5.794514093481598"><ele>378.0</ele><time>2026-04-05T14:02:43.001Z</time></trkpt><trkpt lat="45.57066445434351" lon="5.794460520953441"><ele>378.0</ele><time>2026-04-05T14:02:44.001Z</time></trkpt><trkpt lat="45.570760209497365" lon="5.794399438981361"><ele>378.0</ele><time>2026-04-05T14:02:45.001Z</time></trkpt><trkpt lat="45.57084902019909" lon="5.794332499158034"><ele>378.0</ele><time>2026-04-05T14:02:46.001Z</time></trkpt><trkpt lat="45.57092674689967" lon="5.794264295226121"><ele>378.0</ele><time>2026-04-05T14:02:47.001Z</time></trkpt><trkpt lat="45.57099104021338" lon="5.794191197249141"><ele>378.0</ele><time>2026-04-05T14:02:48.001Z</time></trkpt><trkpt lat="45.57105190054734" lon="5.7941217172342245"><ele>378.42857142857144</ele><time>2026-04-05T14:02:49.001Z</time></trkpt><trkpt lat="45.57111127377388" lon="5.79404366668657"><ele>378.8571428571429</ele><time>2026-04-05T14:02:50.001Z</time></trkpt><trkpt lat="45.571169460842164" lon="5.793972216055279"><ele>379.2857142857143</ele><time>2026-04-05T14:02:51.001Z</time></trkpt><trkpt lat="45.5712214883966" lon="5.793909742631002"><ele>379.7142857142857</ele><time>2026-04-05T14:02:52.001Z</time></trkpt><trkpt lat="45.571274104376066" lon="5.793849075716482"><ele>380.14285714285717</ele><time>2026-04-05T14:02:53.001Z</time></trkpt><trkpt lat="45.571336036492376" lon="5.793790677795053"><ele>380.57142857142856</ele><time>2026-04-05T14:02:54.001Z</time></trkpt><trkpt lat="45.57140405395668" lon="5.7937323971440495"><ele>381.0</ele><time>2026-04-05T14:02:55.001Z</time></trkpt><trkpt lat="45.57147649885912" lon="5.7936827191656395"><ele>381.0</ele><time>2026-04-05T14:02:56.001Z</time></trkpt><trkpt lat="45.57154994046053" lon="5.793641414122078"><ele>381.0</ele><time>2026-04-05T14:02:57.001Z</time></trkpt><trkpt lat="45.571622095361725" lon="5.7936036817653225"><ele>381.0</ele><time>2026-04-05T14:02:58.001Z</time></trkpt><trkpt lat="45.5716943734802" lon="5.793573256147497"><ele>381.0</ele><time>2026-04-05T14:02:59.001Z</time></trkpt><trkpt lat="45.57176549451907" lon="5.793578957562458"><ele>381.0</ele><time>2026-04-05T14:03:00.001Z</time></trkpt><trkpt lat="45.57188671102466" lon="5.793538055709747"><ele>381.0</ele><time>2026-04-05T14:03:02.001Z</time></trkpt><trkpt lat="45.57195783958427" lon="5.793532096595248"><ele>381.1666666666667</ele><time>2026-04-05T14:03:03.001Z</time></trkpt><trkpt lat="45.572030934722065" lon="5.793533271937802"><ele>381.3333333333333</ele><time>2026-04-05T14:03:04.001Z</time></trkpt><trkpt lat="45.572097090855635" lon="5.793527362462663"><ele>381.5</ele><time>2026-04-05T14:03:05.001Z</time></trkpt><trkpt lat="45.57216269337026" lon="5.793527772735708"><ele>381.66666666666663</ele><time>2026-04-05T14:03:06.001Z</time></trkpt><trkpt lat="45.57228533221258" lon="5.79353510009733"><ele>381.8333333333333</ele><time>2026-04-05T14:03:08.001Z</time></trkpt><trkpt lat="45.57235148238006" lon="5.793531890891403"><ele>382.0</ele><time>2026-04-05T14:03:09.001Z</time></trkpt><trkpt lat="45.5724208257482" lon="5.793530718221559"><ele>382.0</ele><time>2026-04-05T14:03:10.001Z</time></trkpt><trkpt lat="45.57248873948784" lon="5.793531764009246"><ele>382.0</ele><time>2026-04-05T14:03:11.001Z</time></trkpt><trkpt lat="45.57261149343559" lon="5.793524813589903"><ele>382.0</ele><time>2026-04-05T14:03:13.001Z</time></trkpt><trkpt lat="45.57273629909788" lon="5.793535985896753"><ele>382.0</ele><time>2026-04-05T14:03:15.002Z</time></trkpt><trkpt lat="45.57284999997381" lon="5.793524486497647"><ele>382.0</ele><time>2026-04-05T14:03:17.002Z</time></trkpt><trkpt lat="45.572954632387614" lon="5.793519713768039"><ele>382.3333333333333</ele><time>2026-04-05T14:03:19.002Z</time></trkpt><trkpt lat="45.57301790684794" lon="5.793530979995084"><ele>382.66666666666663</ele><time>2026-04-05T14:03:21Z</time></trkpt><trkpt lat="45.57308833908836" lon="5.793530734707261"><ele>383.0</ele><time>2026-04-05T14:03:24Z</time></trkpt><trkpt lat="45.573172704379225" lon="5.793536994572212"><ele>383.3333333333333</ele><time>2026-04-05T14:03:26Z</time></trkpt><trkpt lat="45.57325204996801" lon="5.793553095007241"><ele>383.6666666666667</ele><time>2026-04-05T14:03:28Z</time></trkpt><trkpt lat="45.57334753522773" lon="5.793610975057143"><ele>384.0</ele><time>2026-04-05T14:03:30Z</time></trkpt><trkpt lat="45.573424794389034" lon="5.793733171402867"><ele>384.0</ele><time>2026-04-05T14:03:32Z</time></trkpt><trkpt lat="45.57350595144446" lon="5.7938348779839925"><ele>384.0</ele><time>2026-04-05T14:03:34Z</time></trkpt><trkpt lat="45.57356984057122" lon="5.793832580451093"><ele>384.0</ele><time>2026-04-05T14:03:35Z</time></trkpt><trkpt lat="45.57362935775063" lon="5.793783709420725"><ele>384.0</ele><time>2026-04-05T14:03:36Z</time></trkpt><trkpt lat="45.573675152729884" lon="5.793702609909033"><ele>384.0</ele><time>2026-04-05T14:03:37Z</time></trkpt><trkpt lat="45.57371305957679" lon="5.7936208495416395"><ele>384.0</ele><time>2026-04-05T14:03:38Z</time></trkpt><trkpt lat="45.57376510717399" lon="5.793550655031545"><ele>383.6</ele><time>2026-04-05T14:03:39Z</time></trkpt><trkpt lat="45.573841614603225" lon="5.793516778988131"><ele>383.2</ele><time>2026-04-05T14:03:40Z</time></trkpt><trkpt lat="45.57393247230816" lon="5.79352870339947"><ele>382.8</ele><time>2026-04-05T14:03:41Z</time></trkpt><trkpt lat="45.57401386487276" lon="5.793541201257968"><ele>382.40000000000003</ele><time>2026-04-05T14:03:42Z</time></trkpt><trkpt lat="45.574120517765834" lon="5.793545044920789"><ele>382.0</ele><time>2026-04-05T14:03:43Z</time></trkpt><trkpt lat="45.574234372489315" lon="5.793565881764273"><ele>382.0</ele><time>2026-04-05T14:03:44Z</time></trkpt><trkpt lat="45.57435182829765" lon="5.793562078589741"><ele>382.0</ele><time>2026-04-05T14:03:45Z</time></trkpt><trkpt lat="45.574456647657435" lon="5.793498762343909"><ele>382.0</ele><time>2026-04-05T14:03:47Z</time></trkpt><trkpt lat="45.57456292719375" lon="5.793470955240683"><ele>382.0</ele><time>2026-04-05T14:03:48Z</time></trkpt><trkpt lat="45.57467590393053" lon="5.793476893234089"><ele>383.75</ele><time>2026-04-05T14:03:49Z</time></trkpt><trkpt lat="45.57478495538828" lon="5.7934743581970585"><ele>385.5</ele><time>2026-04-05T14:03:50Z</time></trkpt><trkpt lat="45.57489405596903" lon="5.793470672413646"><ele>387.25</ele><time>2026-04-05T14:03:51Z</time></trkpt><trkpt lat="45.575013498926786" lon="5.7934673926309745"><ele>389.0</ele><time>2026-04-05T14:03:52Z</time></trkpt><trkpt lat="45.575141676222735" lon="5.793459365033496"><ele>389.0</ele><time>2026-04-05T14:03:53Z</time></trkpt><trkpt lat="45.57528484027466" lon="5.793455452155748"><ele>389.0</ele><time>2026-04-05T14:03:54Z</time></trkpt><trkpt lat="45.575417889010076" lon="5.7934502553437"><ele>389.0</ele><time>2026-04-05T14:03:55Z</time></trkpt><trkpt lat="45.575549265125375" lon="5.793443916897726"><ele>389.0</ele><time>2026-04-05T14:03:56Z</time></trkpt><trkpt lat="45.57568640236755" lon="5.793436917686944"><ele>388.25</ele><time>2026-04-05T14:03:57Z</time></trkpt><trkpt lat="45.575819244798026" lon="5.793444815811302"><ele>387.5</ele><time>2026-04-05T14:03:58Z</time></trkpt><trkpt lat="45.57595384004809" lon="5.793438350739162"><ele>386.75</ele><time>2026-04-05T14:03:59Z</time></trkpt><trkpt lat="45.57608739668076" lon="5.79342964270378"><ele>386.0</ele><time>2026-04-05T14:04:00Z</time></trkpt><trkpt lat="45.57623127578471" lon="5.793419474290065"><ele>386.0</ele><time>2026-04-05T14:04:01Z</time></trkpt><trkpt lat="45.57637280349698" lon="5.793408836510016"><ele>386.0</ele><time>2026-04-05T14:04:02Z</time></trkpt><trkpt lat="45.57651348392518" lon="5.7934290409977915"><ele>386.0</ele><time>2026-04-05T14:04:03Z</time></trkpt><trkpt lat="45.576654743116045" lon="5.793397383143193"><ele>386.0</ele><time>2026-04-05T14:04:04Z</time></trkpt><trkpt lat="45.57680246196506" lon="5.793395371429125"><ele>386.0</ele><time>2026-04-05T14:04:05Z</time></trkpt><trkpt lat="45.57694454463332" lon="5.793395098522966"><ele>386.0</ele><time>2026-04-05T14:04:06Z</time></trkpt><trkpt lat="45.5770999419317" lon="5.793392791561689"><ele>386.0</ele><time>2026-04-05T14:04:07Z</time></trkpt><trkpt lat="45.57728198846663" lon="5.793387205337705"><ele>385.66666666666663</ele><time>2026-04-05T14:04:08Z</time></trkpt><trkpt lat="45.57742781909719" lon="5.7933974635636725"><ele>385.33333333333337</ele><time>2026-04-05T14:04:09Z</time></trkpt><trkpt lat="45.57759628578503" lon="5.793389449888201"><ele>385.0</ele><time>2026-04-05T14:04:10Z</time></trkpt><trkpt lat="45.577797186186494" lon="5.793382517154883"><ele>384.0</ele><time>2026-04-05T14:04:11Z</time></trkpt><trkpt lat="45.57802893028399" lon="5.793375182094314"><ele>383.0</ele><time>2026-04-05T14:04:12Z</time></trkpt><trkpt lat="45.57826151963598" lon="5.793367531880425"><ele>383.0</ele><time>2026-04-05T14:04:13Z</time></trkpt><trkpt lat="45.57848843548571" lon="5.793342362611329"><ele>383.0</ele><time>2026-04-05T14:04:14Z</time></trkpt><trkpt lat="45.57870172516865" lon="5.7933345551143285"><ele>383.0</ele><time>2026-04-05T14:04:15.001Z</time></trkpt><trkpt lat="45.578915762666895" lon="5.79334654626861"><ele>382.6666666666667</ele><time>2026-04-05T14:04:16.001Z</time></trkpt><trkpt lat="45.57912032686711" lon="5.793338827693441"><ele>382.3333333333333</ele><time>2026-04-05T14:04:17.001Z</time></trkpt><trkpt lat="45.57932312246357" lon="5.793331652237944"><ele>382.0</ele><time>2026-04-05T14:04:18.001Z</time></trkpt><trkpt lat="45.57953492393175" lon="5.793313083384855"><ele>382.0</ele><time>2026-04-05T14:04:19.001Z</time></trkpt><trkpt lat="45.579744159242615" lon="5.793296377833798"><ele>382.0</ele><time>2026-04-05T14:04:20.001Z</time></trkpt><trkpt lat="45.579953618109656" lon="5.793291458523055"><ele>382.0</ele><time>2026-04-05T14:04:21.001Z</time></trkpt><trkpt lat="45.580170541544" lon="5.793283423790963"><ele>383.5</ele><time>2026-04-05T14:04:22.001Z</time></trkpt><trkpt lat="45.58039379181255" lon="5.793274196947788"><ele>385.0</ele><time>2026-04-05T14:04:23.001Z</time></trkpt><trkpt lat="45.58062558902058" lon="5.793288057370305"><ele>385.0</ele><time>2026-04-05T14:04:24.001Z</time></trkpt><trkpt lat="45.58085733053102" lon="5.79328030074809"><ele>385.0</ele><time>2026-04-05T14:04:25.001Z</time></trkpt><trkpt lat="45.58108674721025" lon="5.793272621941243"><ele>384.5</ele><time>2026-04-05T14:04:26.001Z</time></trkpt><trkpt lat="45.58132025507137" lon="5.793243683535929"><ele>384.0</ele><time>2026-04-05T14:04:27.001Z</time></trkpt><trkpt lat="45.58155267727415" lon="5.7932338439491895"><ele>384.0</ele><time>2026-04-05T14:04:28.001Z</time></trkpt><trkpt lat="45.581782009415015" lon="5.793252407495014"><ele>384.0</ele><time>2026-04-05T14:04:29.001Z</time></trkpt><trkpt lat="45.58201661697766" lon="5.793243628882459"><ele>384.0</ele><time>2026-04-05T14:04:30.001Z</time></trkpt><trkpt lat="45.58225027513976" lon="5.793234798594819"><ele>384.0</ele><time>2026-04-05T14:04:31.001Z</time></trkpt><trkpt lat="45.58248399985047" lon="5.793225965791603"><ele>384.0</ele><time>2026-04-05T14:04:32.001Z</time></trkpt><trkpt lat="45.582714556992336" lon="5.7932178403367205"><ele>384.0</ele><time>2026-04-05T14:04:33.001Z</time></trkpt><trkpt lat="45.5829449002843" lon="5.793209883021826"><ele>385.0</ele><time>2026-04-05T14:04:34.001Z</time></trkpt><trkpt lat="45.58316654461838" lon="5.793202226216969"><ele>386.0</ele><time>2026-04-05T14:04:35.001Z</time></trkpt><trkpt lat="45.5833828968844" lon="5.793194300037768"><ele>387.0</ele><time>2026-04-05T14:04:36.001Z</time></trkpt><trkpt lat="45.5835969311219" lon="5.793187384645263"><ele>388.33333333333337</ele><time>2026-04-05T14:04:37.001Z</time></trkpt><trkpt lat="45.58381212405616" lon="5.793179605387589"><ele>389.6666666666667</ele><time>2026-04-05T14:04:38.001Z</time></trkpt><trkpt lat="45.58402555216514" lon="5.793171515097076"><ele>391.0</ele><time>2026-04-05T14:04:39.001Z</time></trkpt><trkpt lat="45.58423314172869" lon="5.793170503898754"><ele>391.0</ele><time>2026-04-05T14:04:40.001Z</time></trkpt><trkpt lat="45.58443468746561" lon="5.7931257934358795"><ele>391.0</ele><time>2026-04-05T14:04:41.001Z</time></trkpt><trkpt lat="45.584633761850895" lon="5.7930982343815725"><ele>391.0</ele><time>2026-04-05T14:04:42.001Z</time></trkpt><trkpt lat="45.58483229454213" lon="5.793029624960272"><ele>393.0</ele><time>2026-04-05T14:04:43.001Z</time></trkpt><trkpt lat="45.58502456182734" lon="5.792928760117146"><ele>395.0</ele><time>2026-04-05T14:04:44.001Z</time></trkpt><trkpt lat="45.5851979906929" lon="5.792803821179544"><ele>397.0</ele><time>2026-04-05T14:04:45.001Z</time></trkpt><trkpt lat="45.58537017672582" lon="5.792654636853529"><ele>397.6666666666667</ele><time>2026-04-05T14:04:46.001Z</time></trkpt><trkpt lat="45.58553928107497" lon="5.792471074678201"><ele>398.33333333333337</ele><time>2026-04-05T14:04:47.001Z</time></trkpt><trkpt lat="45.585694591723026" lon="5.792269697894487"><ele>399.0</ele><time>2026-04-05T14:04:48.001Z</time></trkpt><trkpt lat="45.58583482666358" lon="5.792052267881181"><ele>399.0</ele><time>2026-04-05T14:04:49.001Z</time></trkpt><trkpt lat="45.585960521753144" lon="5.7918245479179165"><ele>399.0</ele><time>2026-04-05T14:04:50.001Z</time></trkpt><trkpt lat="45.58605844700641" lon="5.79156033398367"><ele>399.0</ele><time>2026-04-05T14:04:51.001Z</time></trkpt><trkpt lat="45.586131792224975" lon="5.791265466287437"><ele>400.33333333333337</ele><time>2026-04-05T14:04:52.001Z</time></trkpt><trkpt lat="45.586168425884246" lon="5.790957539473596"><ele>401.6666666666667</ele><time>2026-04-05T14:04:53.001Z</time></trkpt><trkpt lat="45.58617850554718" lon="5.790654747082103"><ele>403.0</ele><time>2026-04-05T14:04:54.001Z</time></trkpt><trkpt lat="45.586171084604665" lon="5.790363092056814"><ele>403.0</ele><time>2026-04-05T14:04:55.001Z</time></trkpt><trkpt lat="45.586171209390805" lon="5.790096436480609"><ele>403.0</ele><time>2026-04-05T14:04:56.001Z</time></trkpt><trkpt lat="45.58617656403886" lon="5.789852731336894"><ele>403.0</ele><time>2026-04-05T14:04:57.001Z</time></trkpt><trkpt lat="45.58619531020229" lon="5.7896288569253045"><ele>416.6666666666667</ele><time>2026-04-05T14:04:58.001Z</time></trkpt><trkpt lat="45.586210272947184" lon="5.789390939527624"><ele>430.33333333333337</ele><time>2026-04-05T14:04:59.001Z</time></trkpt><trkpt lat="45.58622315425649" lon="5.789145301133701"><ele>444.0</ele><time>2026-04-05T14:05:00.001Z</time></trkpt><trkpt lat="45.586234229084106" lon="5.788895157163222"><ele>444.0</ele><time>2026-04-05T14:05:01.001Z</time></trkpt><trkpt lat="45.5862341256696" lon="5.788646058677471"><ele>444.0</ele><time>2026-04-05T14:05:02.001Z</time></trkpt><trkpt lat="45.58620899605573" lon="5.788399981556219"><ele>444.0</ele><time>2026-04-05T14:05:03.001Z</time></trkpt><trkpt lat="45.58616685519923" lon="5.788150395473688"><ele>433.33333333333337</ele><time>2026-04-05T14:05:04.001Z</time></trkpt><trkpt lat="45.58614065689405" lon="5.78790603107527"><ele>422.6666666666667</ele><time>2026-04-05T14:05:05.001Z</time></trkpt><trkpt lat="45.58613117001213" lon="5.787675049758666"><ele>412.0</ele><time>2026-04-05T14:05:06.001Z</time></trkpt><trkpt lat="45.586124856523575" lon="5.787440067763264"><ele>412.0</ele><time>2026-04-05T14:05:07.001Z</time></trkpt><trkpt lat="45.586142408520175" lon="5.78720515675745"><ele>412.0</ele><time>2026-04-05T14:05:08.001Z</time></trkpt><trkpt lat="45.586186967516646" lon="5.786969599167386"><ele>412.0</ele><time>2026-04-05T14:05:09.001Z</time></trkpt><trkpt lat="45.586243678318134" lon="5.786743927670375"><ele>417.6666666666667</ele><time>2026-04-05T14:05:10.001Z</time></trkpt><trkpt lat="45.58630430042545" lon="5.786532766379902"><ele>423.33333333333337</ele><time>2026-04-05T14:05:11.001Z</time></trkpt><trkpt lat="45.58636333391903" lon="5.786314631881539"><ele>429.0</ele><time>2026-04-05T14:05:12.001Z</time></trkpt><trkpt lat="45.586421973680984" lon="5.786099810348372"><ele>427.66666666666663</ele><time>2026-04-05T14:05:13.001Z</time></trkpt><trkpt lat="45.58648807652657" lon="5.7858948016222875"><ele>426.3333333333333</ele><time>2026-04-05T14:05:14.001Z</time></trkpt><trkpt lat="45.58656661254087" lon="5.785703334262664"><ele>425.0</ele><time>2026-04-05T14:05:15.001Z</time></trkpt><trkpt lat="45.586681589465165" lon="5.785539989423796"><ele>425.0</ele><time>2026-04-05T14:05:16.001Z</time></trkpt><trkpt lat="45.586806495249746" lon="5.785395290723902"><ele>425.0</ele><time>2026-04-05T14:05:17.001Z</time></trkpt><trkpt lat="45.58695133147174" lon="5.785262400654334"><ele>425.0</ele><time>2026-04-05T14:05:18.001Z</time></trkpt><trkpt lat="45.58710352900082" lon="5.7851403709735365"><ele>426.66666666666663</ele><time>2026-04-05T14:05:19.001Z</time></trkpt><trkpt lat="45.58726037067984" lon="5.785013424572555"><ele>428.33333333333337</ele><time>2026-04-05T14:05:20.001Z</time></trkpt><trkpt lat="45.58743487770916" lon="5.784836509027528"><ele>430.0</ele><time>2026-04-05T14:05:21.001Z</time></trkpt><trkpt lat="45.58760487038214" lon="5.784597956635937"><ele>430.0</ele><time>2026-04-05T14:05:22.001Z</time></trkpt><trkpt lat="45.587803245958156" lon="5.784358877899212"><ele>430.0</ele><time>2026-04-05T14:05:23.001Z</time></trkpt><trkpt lat="45.58799464738773" lon="5.784093209941657"><ele>431.33333333333337</ele><time>2026-04-05T14:05:24.002Z</time></trkpt><trkpt lat="45.588152294553126" lon="5.783858982690377"><ele>432.66666666666663</ele><time>2026-04-05T14:05:25.002Z</time></trkpt><trkpt lat="45.58830933205098" lon="5.783657563315646"><ele>434.0</ele><time>2026-04-05T14:05:26.002Z</time></trkpt><trkpt lat="45.58848642746499" lon="5.783504545680504"><ele>434.0</ele><time>2026-04-05T14:05:27Z</time></trkpt><trkpt lat="45.58865228909715" lon="5.783352963992086"><ele>434.0</ele><time>2026-04-05T14:05:28Z</time></trkpt><trkpt lat="45.588825509704314" lon="5.783206050150126"><ele>434.0</ele><time>2026-04-05T14:05:29Z</time></trkpt><trkpt lat="45.5889897858051" lon="5.783068715378397"><ele>434.66666666666663</ele><time>2026-04-05T14:05:30Z</time></trkpt><trkpt lat="45.589154465672664" lon="5.782931934993186"><ele>435.33333333333337</ele><time>2026-04-05T14:05:31Z</time></trkpt><trkpt lat="45.58932211475035" lon="5.782799082755428"><ele>436.0</ele><time>2026-04-05T14:05:32Z</time></trkpt><trkpt lat="45.589480453075694" lon="5.782656895483122"><ele>438.6666666666667</ele><time>2026-04-05T14:05:33Z</time></trkpt><trkpt lat="45.58964613901391" lon="5.782534610116733"><ele>441.33333333333337</ele><time>2026-04-05T14:05:34Z</time></trkpt><trkpt lat="45.589816020139246" lon="5.782439239618554"><ele>444.0</ele><time>2026-04-05T14:05:35Z</time></trkpt><trkpt lat="45.589980353613306" lon="5.782322261722907"><ele>444.0</ele><time>2026-04-05T14:05:36Z</time></trkpt><trkpt lat="45.590144768762066" lon="5.782183626515859"><ele>444.0</ele><time>2026-04-05T14:05:37Z</time></trkpt><trkpt lat="45.59032428459999" lon="5.782063780534345"><ele>444.0</ele><time>2026-04-05T14:05:38Z</time></trkpt><trkpt lat="45.59050484172562" lon="5.781935579595361"><ele>443.0</ele><time>2026-04-05T14:05:39Z</time></trkpt><trkpt lat="45.59068602255747" lon="5.781806266693233"><ele>442.0</ele><time>2026-04-05T14:05:40Z</time></trkpt><trkpt lat="45.59086866714521" lon="5.7816773338814675"><ele>441.0</ele><time>2026-04-05T14:05:41Z</time></trkpt><trkpt lat="45.59105047316582" lon="5.781551793937285"><ele>441.33333333333337</ele><time>2026-04-05T14:05:42Z</time></trkpt><trkpt lat="45.5912302691679" lon="5.781421841158587"><ele>441.6666666666667</ele><time>2026-04-05T14:05:43Z</time></trkpt><trkpt lat="45.591410064877095" lon="5.781291744941717"><ele>442.0</ele><time>2026-04-05T14:05:44Z</time></trkpt><trkpt lat="45.59159444732092" lon="5.781186562177265"><ele>442.0</ele><time>2026-04-05T14:05:45Z</time></trkpt><trkpt lat="45.59177505904183" lon="5.78106081784734"><ele>442.0</ele><time>2026-04-05T14:05:46Z</time></trkpt><trkpt lat="45.591955622655284" lon="5.780934687025482"><ele>442.0</ele><time>2026-04-05T14:05:47Z</time></trkpt><trkpt lat="45.59213176285072" lon="5.780810630823315"><ele>442.33333333333337</ele><time>2026-04-05T14:05:48Z</time></trkpt><trkpt lat="45.59229796918572" lon="5.780693570999145"><ele>442.66666666666663</ele><time>2026-04-05T14:05:49Z</time></trkpt><trkpt lat="45.59244696375917" lon="5.780563706525628"><ele>443.0</ele><time>2026-04-05T14:05:50Z</time></trkpt><trkpt lat="45.59259416174985" lon="5.7804656305615"><ele>443.0</ele><time>2026-04-05T14:05:51Z</time></trkpt><trkpt lat="45.59273656066573" lon="5.780374332547129"><ele>443.0</ele><time>2026-04-05T14:05:52Z</time></trkpt><trkpt lat="45.59287126496789" lon="5.780278881778312"><ele>443.0</ele><time>2026-04-05T14:05:53Z</time></trkpt><trkpt lat="45.592993931700576" lon="5.780188220206176"><ele>443.0</ele><time>2026-04-05T14:05:54Z</time></trkpt><trkpt lat="45.59310950955325" lon="5.780083985931947"><ele>442.75</ele><time>2026-04-05T14:05:55Z</time></trkpt><trkpt lat="45.59320878998828" lon="5.779969246328041"><ele>442.5</ele><time>2026-04-05T14:05:56Z</time></trkpt><trkpt lat="45.59328964700596" lon="5.779836413581018"><ele>442.25</ele><time>2026-04-05T14:05:57Z</time></trkpt><trkpt lat="45.59335278659977" lon="5.77970052536548"><ele>442.0</ele><time>2026-04-05T14:05:58Z</time></trkpt><trkpt lat="45.59340132394214" lon="5.779563185171121"><ele>442.0</ele><time>2026-04-05T14:05:59Z</time></trkpt><trkpt lat="45.593437951666154" lon="5.779419602835352"><ele>442.00000000000006</ele><time>2026-04-05T14:06:00Z</time></trkpt><trkpt lat="45.59346858857442" lon="5.779278542347065"><ele>442.00000000000006</ele><time>2026-04-05T14:06:01Z</time></trkpt><trkpt lat="45.59349613195704" lon="5.7791331760881715"><ele>442.0</ele><time>2026-04-05T14:06:02Z</time></trkpt><trkpt lat="45.59352642563878" lon="5.778984446817631"><ele>442.0</ele><time>2026-04-05T14:06:03Z</time></trkpt><trkpt lat="45.59355206628587" lon="5.778841800569156"><ele>441.40000000000003</ele><time>2026-04-05T14:06:04Z</time></trkpt><trkpt lat="45.59357874857502" lon="5.778714686851164"><ele>440.80000000000007</ele><time>2026-04-05T14:06:05Z</time></trkpt><trkpt lat="45.59360345682042" lon="5.7786046689255155"><ele>440.2</ele><time>2026-04-05T14:06:06Z</time></trkpt><trkpt lat="45.59364853307847" lon="5.7784559282658465"><ele>439.6</ele><time>2026-04-05T14:06:08Z</time></trkpt><trkpt lat="45.593716864824835" lon="5.7783544795191"><ele>439.0</ele><time>2026-04-05T14:06:10Z</time></trkpt><trkpt lat="45.59379567864394" lon="5.778301640154809"><ele>439.0</ele><time>2026-04-05T14:06:12Z</time></trkpt><trkpt lat="45.59383661357924" lon="5.778196573024142"><ele>439.0</ele><time>2026-04-05T14:06:14Z</time></trkpt><trkpt lat="45.593802705465556" lon="5.778040341152221"><ele>439.0</ele><time>2026-04-05T14:06:16Z</time></trkpt><trkpt lat="45.59376885694506" lon="5.777848119005156"><ele>439.0</ele><time>2026-04-05T14:06:18Z</time></trkpt><trkpt lat="45.593772015131236" lon="5.777717629184539"><ele>439.0</ele><time>2026-04-05T14:06:19Z</time></trkpt><trkpt lat="45.59378783251884" lon="5.7775911250938865"><ele>438.6666666666667</ele><time>2026-04-05T14:06:20.001Z</time></trkpt><trkpt lat="45.59381300459528" lon="5.7774736910261755"><ele>438.33333333333337</ele><time>2026-04-05T14:06:21.001Z</time></trkpt><trkpt lat="45.593834863910814" lon="5.777359217469224"><ele>438.0</ele><time>2026-04-05T14:06:22.001Z</time></trkpt><trkpt lat="45.5938590944021" lon="5.777244224263166"><ele>437.66666666666663</ele><time>2026-04-05T14:06:23.001Z</time></trkpt><trkpt lat="45.593879941687135" lon="5.777128797283401"><ele>437.3333333333333</ele><time>2026-04-05T14:06:24.001Z</time></trkpt><trkpt lat="45.593898235645284" lon="5.777011424829169"><ele>437.0</ele><time>2026-04-05T14:06:25.001Z</time></trkpt><trkpt lat="45.593916774795424" lon="5.77689835605504"><ele>436.8333333333333</ele><time>2026-04-05T14:06:26.001Z</time></trkpt><trkpt lat="45.59393706599888" lon="5.776787093436542"><ele>436.66666666666663</ele><time>2026-04-05T14:06:27.001Z</time></trkpt><trkpt lat="45.593961574784984" lon="5.776673300397116"><ele>436.5</ele><time>2026-04-05T14:06:28.001Z</time></trkpt><trkpt lat="45.59398614712869" lon="5.776555053319237"><ele>436.33333333333337</ele><time>2026-04-05T14:06:29.001Z</time></trkpt><trkpt lat="45.59400884562193" lon="5.776439147744688"><ele>436.1666666666667</ele><time>2026-04-05T14:06:30.001Z</time></trkpt><trkpt lat="45.594047761397725" lon="5.7763301264749725"><ele>436.0</ele><time>2026-04-05T14:06:31.001Z</time></trkpt><trkpt lat="45.59407095843748" lon="5.776214098355779"><ele>436.00000000000006</ele><time>2026-04-05T14:06:32.001Z</time></trkpt><trkpt lat="45.59407943977705" lon="5.776091464200506"><ele>436.0</ele><time>2026-04-05T14:06:33.001Z</time></trkpt><trkpt lat="45.5941068601816" lon="5.7759732542307285"><ele>436.0</ele><time>2026-04-05T14:06:34.001Z</time></trkpt><trkpt lat="45.59413308619632" lon="5.775855069024646"><ele>436.0</ele><time>2026-04-05T14:06:35.001Z</time></trkpt><trkpt lat="45.59415671913743" lon="5.775738059181443"><ele>436.00000000000006</ele><time>2026-04-05T14:06:36.001Z</time></trkpt><trkpt lat="45.594176512934" lon="5.775629208300466"><ele>436.0</ele><time>2026-04-05T14:06:37.001Z</time></trkpt><trkpt lat="45.59419429960929" lon="5.775527322077637"><ele>435.6666666666667</ele><time>2026-04-05T14:06:38.001Z</time></trkpt><trkpt lat="45.59421735701361" lon="5.775436544421242"><ele>435.33333333333337</ele><time>2026-04-05T14:06:39.001Z</time></trkpt><trkpt lat="45.59424911535351" lon="5.77526472975814"><ele>435.0</ele><time>2026-04-05T14:06:41.001Z</time></trkpt><trkpt lat="45.594264330596644" lon="5.77517150452751"><ele>434.66666666666663</ele><time>2026-04-05T14:06:42.001Z</time></trkpt><trkpt lat="45.59428154364499" lon="5.775079630901049"><ele>434.3333333333333</ele><time>2026-04-05T14:06:43.001Z</time></trkpt><trkpt lat="45.59431537137949" lon="5.774994275468845"><ele>434.0</ele><time>2026-04-05T14:06:44.001Z</time></trkpt><trkpt lat="45.59433450321575" lon="5.774899853436557"><ele>433.66666666666663</ele><time>2026-04-05T14:06:45.001Z</time></trkpt><trkpt lat="45.594352665026605" lon="5.77481021881115"><ele>433.3333333333333</ele><time>2026-04-05T14:06:46.001Z</time></trkpt><trkpt lat="45.59438308029166" lon="5.7746601092220455"><ele>433.0</ele><time>2026-04-05T14:06:48.001Z</time></trkpt><trkpt lat="45.59439882046653" lon="5.774496962297044"><ele>432.66666666666663</ele><time>2026-04-05T14:06:50.001Z</time></trkpt><trkpt lat="45.59441972043812" lon="5.774408002799733"><ele>432.3333333333333</ele><time>2026-04-05T14:06:51.001Z</time></trkpt><trkpt lat="45.59444106561848" lon="5.774312544268798"><ele>432.0</ele><time>2026-04-05T14:06:52.001Z</time></trkpt><trkpt lat="45.59446309118511" lon="5.7742184851800635"><ele>432.6</ele><time>2026-04-05T14:06:53.001Z</time></trkpt><trkpt lat="45.59452744351705" lon="5.77409561200115"><ele>433.20000000000005</ele><time>2026-04-05T14:06:55.001Z</time></trkpt><trkpt lat="45.59461563402585" lon="5.774049429403498"><ele>433.8</ele><time>2026-04-05T14:06:57.001Z</time></trkpt><trkpt lat="45.59467167671017" lon="5.773989011918015"><ele>434.4</ele><time>2026-04-05T14:06:59.001Z</time></trkpt><trkpt lat="45.594606514767435" lon="5.773868847571123"><ele>435.0</ele><time>2026-04-05T14:07:05.001Z</time></trkpt><trkpt lat="45.59451128075648" lon="5.773973152997502"><ele>434.5</ele><time>2026-04-05T14:07:08.001Z</time></trkpt><trkpt lat="45.59449031092867" lon="5.77409233771375"><ele>434.0</ele><time>2026-04-05T14:07:09.001Z</time></trkpt><trkpt lat="45.59446348425222" lon="5.774215246613465"><ele>433.5</ele><time>2026-04-05T14:07:10.001Z</time></trkpt><trkpt lat="45.59443848061635" lon="5.77432868012084"><ele>433.0</ele><time>2026-04-05T14:07:11.001Z</time></trkpt><trkpt lat="45.59441154357866" lon="5.774440451775896"><ele>432.5</ele><time>2026-04-05T14:07:12.001Z</time></trkpt><trkpt lat="45.594391387274385" lon="5.774536870461869"><ele>432.0</ele><time>2026-04-05T14:07:13.001Z</time></trkpt><trkpt lat="45.59437079316339" lon="5.7746421902980805"><ele>432.0</ele><time>2026-04-05T14:07:14.001Z</time></trkpt><trkpt lat="45.594342589738844" lon="5.774764019251267"><ele>432.00000000000006</ele><time>2026-04-05T14:07:15.001Z</time></trkpt><trkpt lat="45.59431339726506" lon="5.774879601222955"><ele>432.00000000000006</ele><time>2026-04-05T14:07:16.001Z</time></trkpt><trkpt lat="45.59429380885745" lon="5.774973084368537"><ele>432.0</ele><time>2026-04-05T14:07:17.001Z</time></trkpt><trkpt lat="45.59425048648101" lon="5.7751435109014775"><ele>432.0</ele><time>2026-04-05T14:07:19.001Z</time></trkpt><trkpt lat="45.59422668872669" lon="5.775260438201583"><ele>432.40000000000003</ele><time>2026-04-05T14:07:20.001Z</time></trkpt><trkpt lat="45.594200982322626" lon="5.775389454928538"><ele>432.80000000000007</ele><time>2026-04-05T14:07:21.001Z</time></trkpt><trkpt lat="45.594174508309386" lon="5.775523060923059"><ele>433.2</ele><time>2026-04-05T14:07:22.001Z</time></trkpt><trkpt lat="45.594143059125656" lon="5.775680359442893"><ele>433.6</ele><time>2026-04-05T14:07:23.001Z</time></trkpt><trkpt lat="45.59410829878325" lon="5.775854218638408"><ele>434.0</ele><time>2026-04-05T14:07:24.001Z</time></trkpt><trkpt lat="45.59407329640312" lon="5.776029288808038"><ele>434.66666666666663</ele><time>2026-04-05T14:07:25.001Z</time></trkpt><trkpt lat="45.59403259459471" lon="5.776224862431389"><ele>435.33333333333337</ele><time>2026-04-05T14:07:26.002Z</time></trkpt><trkpt lat="45.593934977030045" lon="5.776427504354421"><ele>436.0</ele><time>2026-04-05T14:07:27.002Z</time></trkpt><trkpt lat="45.59390147689382" lon="5.776671974506255"><ele>433.5</ele><time>2026-04-05T14:07:28.002Z</time></trkpt><trkpt lat="45.59358088588321" lon="5.776575402883409"><ele>431.0</ele><time>2026-04-05T14:07:29.002Z</time></trkpt><trkpt lat="45.59341146271856" lon="5.776711126716658"><ele>433.5</ele><time>2026-04-05T14:07:30.002Z</time></trkpt><trkpt lat="45.59372002335761" lon="5.776481713243664"><ele>436.0</ele><time>2026-04-05T14:07:31.002Z</time></trkpt><trkpt lat="45.59389609461906" lon="5.777094704170111"><ele>436.1666666666667</ele><time>2026-04-05T14:07:32.002Z</time></trkpt><trkpt lat="45.593879560337605" lon="5.777203157371435"><ele>436.33333333333337</ele><time>2026-04-05T14:07:33Z</time></trkpt><trkpt lat="45.59386163980054" lon="5.7773374879522414"><ele>436.5</ele><time>2026-04-05T14:07:35Z</time></trkpt><trkpt lat="45.59393207082506" lon="5.77738930407672"><ele>436.66666666666663</ele><time>2026-04-05T14:07:37Z</time></trkpt><trkpt lat="45.59400935918493" lon="5.777316740508594"><ele>436.8333333333333</ele><time>2026-04-05T14:07:39Z</time></trkpt><trkpt lat="45.59404844929857" lon="5.777212992586267"><ele>437.0</ele><time>2026-04-05T14:07:41Z</time></trkpt><trkpt lat="45.5940818236251" lon="5.777022334252293"><ele>436.99999999999994</ele><time>2026-04-05T14:19:20Z</time></trkpt><trkpt lat="45.59409347952302" lon="5.776932594637924"><ele>437.0</ele><time>2026-04-05T14:19:22Z</time></trkpt><trkpt lat="45.5940765114548" lon="5.776823001300195"><ele>437.0</ele><time>2026-04-05T14:19:25Z</time></trkpt><trkpt lat="45.59404129846011" lon="5.7767437287362755"><ele>437.0</ele><time>2026-04-05T14:19:28.001Z</time></trkpt><trkpt lat="45.593995158150136" lon="5.776623761189837"><ele>436.99999999999994</ele><time>2026-04-05T14:20:07.001Z</time></trkpt><trkpt lat="45.5940166874896" lon="5.776480719375187"><ele>437.0</ele><time>2026-04-05T14:20:09Z</time></trkpt><trkpt lat="45.59405054587827" lon="5.776310294613465"><ele>436.8333333333333</ele><time>2026-04-05T14:20:11Z</time></trkpt><trkpt lat="45.59406952496753" lon="5.776222402862271"><ele>436.66666666666663</ele><time>2026-04-05T14:20:12Z</time></trkpt><trkpt lat="45.59408603544649" lon="5.776123953155762"><ele>436.5</ele><time>2026-04-05T14:20:13Z</time></trkpt><trkpt lat="45.59410689692736" lon="5.776020832461389"><ele>436.33333333333337</ele><time>2026-04-05T14:20:14Z</time></trkpt><trkpt lat="45.59412840459424" lon="5.7759157530897705"><ele>436.1666666666667</ele><time>2026-04-05T14:20:15Z</time></trkpt><trkpt lat="45.594150778601666" lon="5.7757988135067295"><ele>436.0</ele><time>2026-04-05T14:20:16Z</time></trkpt><trkpt lat="45.59417734630315" lon="5.775674469386938"><ele>435.6666666666667</ele><time>2026-04-05T14:20:17Z</time></trkpt><trkpt lat="45.59420445248131" lon="5.775558462135545"><ele>435.33333333333337</ele><time>2026-04-05T14:20:18Z</time></trkpt><trkpt lat="45.59422853369915" lon="5.775448503166487"><ele>435.0</ele><time>2026-04-05T14:20:19Z</time></trkpt><trkpt lat="45.594250133650675" lon="5.7753474134685945"><ele>434.66666666666663</ele><time>2026-04-05T14:20:20Z</time></trkpt><trkpt lat="45.594269629553764" lon="5.7752450894984575"><ele>434.3333333333333</ele><time>2026-04-05T14:20:21Z</time></trkpt><trkpt lat="45.59428858762707" lon="5.775135354006827"><ele>434.0</ele><time>2026-04-05T14:20:22Z</time></trkpt><trkpt lat="45.59430554755163" lon="5.775020105639695"><ele>433.66666666666663</ele><time>2026-04-05T14:20:23Z</time></trkpt><trkpt lat="45.59432313245491" lon="5.774906987119728"><ele>433.3333333333333</ele><time>2026-04-05T14:20:24Z</time></trkpt><trkpt lat="45.594345996077315" lon="5.774785978776515"><ele>433.0</ele><time>2026-04-05T14:20:25Z</time></trkpt><trkpt lat="45.59437269971914" lon="5.774662373593051"><ele>432.66666666666663</ele><time>2026-04-05T14:20:26Z</time></trkpt><trkpt lat="45.59439439807812" lon="5.774546227845784"><ele>432.3333333333333</ele><time>2026-04-05T14:20:27Z</time></trkpt><trkpt lat="45.594418169081464" lon="5.774432511491636"><ele>432.0</ele><time>2026-04-05T14:20:28Z</time></trkpt><trkpt lat="45.59444204932509" lon="5.774315104400413"><ele>431.6666666666667</ele><time>2026-04-05T14:20:29Z</time></trkpt><trkpt lat="45.59447573710757" lon="5.774192150010821"><ele>431.33333333333337</ele><time>2026-04-05T14:20:30Z</time></trkpt><trkpt lat="45.59451155915225" lon="5.774069414121518"><ele>431.0</ele><time>2026-04-05T14:20:31Z</time></trkpt><trkpt lat="45.59454701364702" lon="5.773955687148875"><ele>430.6666666666667</ele><time>2026-04-05T14:20:32Z</time></trkpt><trkpt lat="45.5945777730309" lon="5.773850868657131"><ele>430.33333333333337</ele><time>2026-04-05T14:20:33Z</time></trkpt><trkpt lat="45.594597576040634" lon="5.773753216668008"><ele>430.0</ele><time>2026-04-05T14:20:34Z</time></trkpt><trkpt lat="45.594604787644826" lon="5.773651526564483"><ele>430.7142857142857</ele><time>2026-04-05T14:20:35Z</time></trkpt><trkpt lat="45.59461111552806" lon="5.773549930210445"><ele>431.42857142857144</ele><time>2026-04-05T14:20:36Z</time></trkpt><trkpt lat="45.59461845761044" lon="5.773445398608158"><ele>432.14285714285717</ele><time>2026-04-05T14:20:37Z</time></trkpt><trkpt lat="45.59463351693253" lon="5.7733397826107975"><ele>432.8571428571429</ele><time>2026-04-05T14:20:38Z</time></trkpt><trkpt lat="45.59465349813359" lon="5.773229067547565"><ele>433.57142857142856</ele><time>2026-04-05T14:20:39Z</time></trkpt><trkpt lat="45.59466975636383" lon="5.7731234832256435"><ele>434.28571428571433</ele><time>2026-04-05T14:20:40Z</time></trkpt><trkpt lat="45.59468053400992" lon="5.7730299251144075"><ele>435.0</ele><time>2026-04-05T14:20:41Z</time></trkpt><trkpt lat="45.59470721299092" lon="5.772946027724369"><ele>435.0</ele><time>2026-04-05T14:20:42Z</time></trkpt><trkpt lat="45.594703968718136" lon="5.772771950634729"><ele>435.0</ele><time>2026-04-05T14:20:44Z</time></trkpt><trkpt lat="45.59471689110412" lon="5.772679587060285"><ele>435.0</ele><time>2026-04-05T14:20:45Z</time></trkpt><trkpt lat="45.594735551283364" lon="5.772507451220875"><ele>435.0</ele><time>2026-04-05T14:20:47Z</time></trkpt><trkpt lat="45.59475969796945" lon="5.772341147696286"><ele>435.0</ele><time>2026-04-05T14:20:49Z</time></trkpt><trkpt lat="45.59480053258881" lon="5.772180009082947"><ele>434.8571428571429</ele><time>2026-04-05T14:20:51Z</time></trkpt><trkpt lat="45.594812510986415" lon="5.772087671715861"><ele>434.7142857142857</ele><time>2026-04-05T14:20:52Z</time></trkpt><trkpt lat="45.59482513551577" lon="5.7719903520398494"><ele>434.57142857142856</ele><time>2026-04-05T14:20:53Z</time></trkpt><trkpt lat="45.59483859970333" lon="5.771891971741627"><ele>434.42857142857144</ele><time>2026-04-05T14:20:54Z</time></trkpt><trkpt lat="45.59485155797257" lon="5.771796317004346"><ele>434.2857142857143</ele><time>2026-04-05T14:20:55Z</time></trkpt><trkpt lat="45.5948485267725" lon="5.771695717987351"><ele>434.14285714285717</ele><time>2026-04-05T14:20:56Z</time></trkpt><trkpt lat="45.5948648273194" lon="5.771605585935799"><ele>434.0</ele><time>2026-04-05T14:20:57Z</time></trkpt><trkpt lat="45.59488687255576" lon="5.771444047528587"><ele>433.79999999999995</ele><time>2026-04-05T14:20:59Z</time></trkpt><trkpt lat="45.59490782566515" lon="5.77127372220625"><ele>433.59999999999997</ele><time>2026-04-05T14:21:01Z</time></trkpt><trkpt lat="45.594944823956084" lon="5.771118956470279"><ele>433.4</ele><time>2026-04-05T14:21:03Z</time></trkpt><trkpt lat="45.59496602323413" lon="5.770963558014755"><ele>433.2</ele><time>2026-04-05T14:21:05Z</time></trkpt><trkpt lat="45.59496671070171" lon="5.7708451623035915"><ele>433.0</ele><time>2026-04-05T14:21:07Z</time></trkpt><trkpt lat="45.59499520959513" lon="5.770744708119067"><ele>432.6666666666667</ele><time>2026-04-05T14:21:09Z</time></trkpt><trkpt lat="45.59500390383971" lon="5.770557482053456"><ele>432.33333333333337</ele><time>2026-04-05T14:21:11Z</time></trkpt><trkpt lat="45.595023166375846" lon="5.770456406420178"><ele>432.0</ele><time>2026-04-05T14:21:12Z</time></trkpt><trkpt lat="45.59503394593863" lon="5.770344366851447"><ele>431.66666666666663</ele><time>2026-04-05T14:21:13Z</time></trkpt><trkpt lat="45.59504694115763" lon="5.770238068366586"><ele>431.3333333333333</ele><time>2026-04-05T14:21:14Z</time></trkpt><trkpt lat="45.595059438276564" lon="5.770138374197838"><ele>431.0</ele><time>2026-04-05T14:21:15Z</time></trkpt><trkpt lat="45.59507435383669" lon="5.770036886136678"><ele>430.8</ele><time>2026-04-05T14:21:16Z</time></trkpt><trkpt lat="45.59509205540143" lon="5.7699176102152245"><ele>430.6</ele><time>2026-04-05T14:21:17Z</time></trkpt><trkpt lat="45.595109361456544" lon="5.7697890205002444"><ele>430.4</ele><time>2026-04-05T14:21:18Z</time></trkpt><trkpt lat="45.59512922050128" lon="5.769666976639782"><ele>430.2</ele><time>2026-04-05T14:21:19Z</time></trkpt><trkpt lat="45.59518413583091" lon="5.769542116401711"><ele>430.0</ele><time>2026-04-05T14:21:20Z</time></trkpt><trkpt lat="45.59525933015908" lon="5.769392800337629"><ele>429.83333333333337</ele><time>2026-04-05T14:21:21Z</time></trkpt><trkpt lat="45.59533278393625" lon="5.769279163168382"><ele>429.6666666666667</ele><time>2026-04-05T14:21:22Z</time></trkpt><trkpt lat="45.59540632713971" lon="5.769186677324485"><ele>429.5</ele><time>2026-04-05T14:21:23Z</time></trkpt><trkpt lat="45.595448937248925" lon="5.769104320621977"><ele>429.33333333333337</ele><time>2026-04-05T14:21:24Z</time></trkpt><trkpt lat="45.595516251527854" lon="5.769049593631611"><ele>429.1666666666667</ele><time>2026-04-05T14:21:25Z</time></trkpt><trkpt lat="45.59559076742816" lon="5.768991064969594"><ele>429.0</ele><time>2026-04-05T14:21:26Z</time></trkpt><trkpt lat="45.595667200459765" lon="5.768934516308051"><ele>429.5</ele><time>2026-04-05T14:21:27Z</time></trkpt><trkpt lat="45.59575778992466" lon="5.768869314523111"><ele>430.0</ele><time>2026-04-05T14:21:28Z</time></trkpt><trkpt lat="45.59587032532804" lon="5.768799273416938"><ele>430.5</ele><time>2026-04-05T14:21:29Z</time></trkpt><trkpt lat="45.59599364998004" lon="5.768706848495036"><ele>431.0</ele><time>2026-04-05T14:21:30Z</time></trkpt><trkpt lat="45.59612415572039" lon="5.768609799426552"><ele>433.0</ele><time>2026-04-05T14:21:31Z</time></trkpt><trkpt lat="45.59625845224734" lon="5.768508803821227"><ele>435.0</ele><time>2026-04-05T14:21:32Z</time></trkpt><trkpt lat="45.596398894251934" lon="5.768410034954821"><ele>437.0</ele><time>2026-04-05T14:21:33Z</time></trkpt><trkpt lat="45.59654480222277" lon="5.768309099172753"><ele>437.0</ele><time>2026-04-05T14:21:34Z</time></trkpt><trkpt lat="45.59669000502125" lon="5.768199801818643"><ele>437.0</ele><time>2026-04-05T14:21:35Z</time></trkpt><trkpt lat="45.59683881787083" lon="5.768091310500965"><ele>437.0</ele><time>2026-04-05T14:21:36Z</time></trkpt><trkpt lat="45.59698941045395" lon="5.767986198729949"><ele>439.66666666666663</ele><time>2026-04-05T14:21:37Z</time></trkpt><trkpt lat="45.59714694144536" lon="5.767878387629555"><ele>442.33333333333337</ele><time>2026-04-05T14:21:38Z</time></trkpt><trkpt lat="45.59730185160455" lon="5.767761924793646"><ele>445.0</ele><time>2026-04-05T14:21:39Z</time></trkpt><trkpt lat="45.59746367436453" lon="5.767642685753855"><ele>445.0</ele><time>2026-04-05T14:21:40Z</time></trkpt><trkpt lat="45.59763263456538" lon="5.767520428398271"><ele>445.0</ele><time>2026-04-05T14:21:41Z</time></trkpt><trkpt lat="45.597811786636754" lon="5.767386537478836"><ele>445.0</ele><time>2026-04-05T14:21:42Z</time></trkpt><trkpt lat="45.59800847290484" lon="5.767232985007846"><ele>446.33333333333337</ele><time>2026-04-05T14:21:43Z</time></trkpt><trkpt lat="45.598203295999845" lon="5.7670987217020455"><ele>447.66666666666663</ele><time>2026-04-05T14:21:44Z</time></trkpt><trkpt lat="45.59839917509349" lon="5.766964703188438"><ele>449.0</ele><time>2026-04-05T14:21:45Z</time></trkpt><trkpt lat="45.59859148506809" lon="5.76682116885116"><ele>452.0</ele><time>2026-04-05T14:21:46Z</time></trkpt><trkpt lat="45.59879984031871" lon="5.766659551251871"><ele>455.0</ele><time>2026-04-05T14:21:47Z</time></trkpt><trkpt lat="45.59900783815303" lon="5.766513369062526"><ele>455.0</ele><time>2026-04-05T14:21:48Z</time></trkpt><trkpt lat="45.599190827615764" lon="5.7663930195793185"><ele>455.0</ele><time>2026-04-05T14:21:49Z</time></trkpt><trkpt lat="45.59935499812036" lon="5.76627885707431"><ele>455.0</ele><time>2026-04-05T14:21:50Z</time></trkpt><trkpt lat="45.59949671319889" lon="5.766142839767397"><ele>457.66666666666663</ele><time>2026-04-05T14:21:51Z</time></trkpt><trkpt lat="45.59960619870433" lon="5.765945223832584"><ele>460.33333333333337</ele><time>2026-04-05T14:21:52Z</time></trkpt><trkpt lat="45.59969402833357" lon="5.765701600502962"><ele>463.0</ele><time>2026-04-05T14:21:53Z</time></trkpt><trkpt lat="45.59973739054283" lon="5.7654183557264576"><ele>464.0</ele><time>2026-04-05T14:21:54Z</time></trkpt><trkpt lat="45.59977063879889" lon="5.7651237534901325"><ele>465.0</ele><time>2026-04-05T14:21:55Z</time></trkpt><trkpt lat="45.59980443894364" lon="5.764800919889236"><ele>466.0</ele><time>2026-04-05T14:21:56Z</time></trkpt><trkpt lat="45.599817252989816" lon="5.764475706970983"><ele>466.6666666666667</ele><time>2026-04-05T14:21:57Z</time></trkpt><trkpt lat="45.59984567582387" lon="5.76422396403679"><ele>467.33333333333337</ele><time>2026-04-05T14:21:58Z</time></trkpt><trkpt lat="45.59986082280983" lon="5.763990194653378"><ele>468.0</ele><time>2026-04-05T14:21:59Z</time></trkpt><trkpt lat="45.59988377837608" lon="5.763768930294777"><ele>468.0</ele><time>2026-04-05T14:22:00Z</time></trkpt><trkpt lat="45.59990810571823" lon="5.763549358871669"><ele>468.0</ele><time>2026-04-05T14:22:01Z</time></trkpt><trkpt lat="45.59993804822982" lon="5.763327468851287"><ele>468.0</ele><time>2026-04-05T14:22:02Z</time></trkpt><trkpt lat="45.599970092532324" lon="5.763095579269865"><ele>468.33333333333337</ele><time>2026-04-05T14:22:03Z</time></trkpt><trkpt lat="45.599996819557305" lon="5.762858570719785"><ele>468.6666666666667</ele><time>2026-04-05T14:22:04Z</time></trkpt><trkpt lat="45.60001505664918" lon="5.762623599742447"><ele>469.0</ele><time>2026-04-05T14:22:05Z</time></trkpt><trkpt lat="45.60003480980117" lon="5.7623990709396145"><ele>469.0</ele><time>2026-04-05T14:22:06.001Z</time></trkpt><trkpt lat="45.60005752862975" lon="5.762177234419576"><ele>469.0</ele><time>2026-04-05T14:22:07.001Z</time></trkpt><trkpt lat="45.600080281577085" lon="5.761962037453232"><ele>469.0</ele><time>2026-04-05T14:22:08.001Z</time></trkpt><trkpt lat="45.6001004505664" lon="5.761765437498412"><ele>469.0</ele><time>2026-04-05T14:22:09.001Z</time></trkpt><trkpt lat="45.60013783360283" lon="5.761589528159269"><ele>469.0</ele><time>2026-04-05T14:22:10.001Z</time></trkpt><trkpt lat="45.60016404386301" lon="5.7614273504428795"><ele>469.0</ele><time>2026-04-05T14:22:11.001Z</time></trkpt><trkpt lat="45.600216916403504" lon="5.761298640968147"><ele>469.0</ele><time>2026-04-05T14:22:12.001Z</time></trkpt><trkpt lat="45.6002933897415" lon="5.761216699166981"><ele>469.0</ele><time>2026-04-05T14:22:13.001Z</time></trkpt><trkpt lat="45.600389396222894" lon="5.761133648322983"><ele>469.0</ele><time>2026-04-05T14:22:14.001Z</time></trkpt><trkpt lat="45.60051130960919" lon="5.761167277110569"><ele>470.4</ele><time>2026-04-05T14:22:14.998Z</time></trkpt><trkpt lat="45.600606240286474" lon="5.7611950313984055"><ele>471.79999999999995</ele><time>2026-04-05T14:22:15.998Z</time></trkpt><trkpt lat="45.600693158948026" lon="5.761220783274451"><ele>473.20000000000005</ele><time>2026-04-05T14:22:16.998Z</time></trkpt><trkpt lat="45.60076178243279" lon="5.761235803295942"><ele>474.6</ele><time>2026-04-05T14:22:17.998Z</time></trkpt><trkpt lat="45.600862552680105" lon="5.761326638586936"><ele>476.0</ele><time>2026-04-05T14:22:18.998Z</time></trkpt><trkpt lat="45.60100200162938" lon="5.761428801680294"><ele>478.0</ele><time>2026-04-05T14:22:19.998Z</time></trkpt><trkpt lat="45.60116859015975" lon="5.761543350696478"><ele>480.0</ele><time>2026-04-05T14:22:20.998Z</time></trkpt><trkpt lat="45.60135602284751" lon="5.7616670516504325"><ele>482.0</ele><time>2026-04-05T14:22:21.998Z</time></trkpt><trkpt lat="45.601549614320625" lon="5.761798614574952"><ele>483.0</ele><time>2026-04-05T14:22:22.998Z</time></trkpt><trkpt lat="45.60174249197709" lon="5.761932982022808"><ele>484.0</ele><time>2026-04-05T14:22:23.999Z</time></trkpt><trkpt lat="45.60195391504414" lon="5.762060668716411"><ele>485.0</ele><time>2026-04-05T14:22:24.999Z</time></trkpt><trkpt lat="45.60216656093444" lon="5.762160539558309"><ele>486.0</ele><time>2026-04-05T14:22:26.999Z</time></trkpt><trkpt lat="45.602347158699146" lon="5.762140990140208"><ele>487.0</ele><time>2026-04-05T14:22:27.999Z</time></trkpt><trkpt lat="45.6025330605622" lon="5.762065288417399"><ele>488.0</ele><time>2026-04-05T14:22:28.999Z</time></trkpt><trkpt lat="45.602718996026795" lon="5.761957696842565"><ele>488.0</ele><time>2026-04-05T14:22:29.999Z</time></trkpt><trkpt lat="45.60289025180906" lon="5.761821097275022"><ele>488.0</ele><time>2026-04-05T14:22:30.999Z</time></trkpt><trkpt lat="45.603070104439986" lon="5.761710059143097"><ele>488.0</ele><time>2026-04-05T14:22:31.999Z</time></trkpt><trkpt lat="45.603257385263326" lon="5.761592332154222"><ele>488.0</ele><time>2026-04-05T14:22:32.999Z</time></trkpt><trkpt lat="45.603450638925295" lon="5.761476926024268"><ele>488.0</ele><time>2026-04-05T14:22:33.999Z</time></trkpt><trkpt lat="45.60364770721961" lon="5.761360785726283"><ele>488.0</ele><time>2026-04-05T14:22:34.999Z</time></trkpt><trkpt lat="45.60384600323335" lon="5.761250075166458"><ele>489.3333333333333</ele><time>2026-04-05T14:22:35.999Z</time></trkpt><trkpt lat="45.604041437956035" lon="5.761148742197878"><ele>490.66666666666663</ele><time>2026-04-05T14:22:36.999Z</time></trkpt><trkpt lat="45.60423507603727" lon="5.761042509859539"><ele>492.0</ele><time>2026-04-05T14:22:37.999Z</time></trkpt><trkpt lat="45.604426071095624" lon="5.760928457748209"><ele>493.66666666666663</ele><time>2026-04-05T14:22:38.999Z</time></trkpt><trkpt lat="45.604624091352214" lon="5.760822541781931"><ele>495.3333333333333</ele><time>2026-04-05T14:22:39.999Z</time></trkpt><trkpt lat="45.60482736968882" lon="5.760716302533593"><ele>497.0</ele><time>2026-04-05T14:22:40.999Z</time></trkpt><trkpt lat="45.60503380315022" lon="5.760647177983679"><ele>497.0</ele><time>2026-04-05T14:22:41.999Z</time></trkpt><trkpt lat="45.60523047873335" lon="5.760521216259508"><ele>497.0</ele><time>2026-04-05T14:22:42.999Z</time></trkpt><trkpt lat="45.60542539795964" lon="5.760415449639665"><ele>497.0</ele><time>2026-04-05T14:22:43.999Z</time></trkpt><trkpt lat="45.605614086065266" lon="5.7603068208192605"><ele>497.0</ele><time>2026-04-05T14:22:44.999Z</time></trkpt><trkpt lat="45.60580322174589" lon="5.760192653645123"><ele>497.0</ele><time>2026-04-05T14:22:45.999Z</time></trkpt><trkpt lat="45.60598944444078" lon="5.760081781430198"><ele>497.0</ele><time>2026-04-05T14:22:46.999Z</time></trkpt><trkpt lat="45.60617467718914" lon="5.759986139680224"><ele>499.3333333333333</ele><time>2026-04-05T14:22:47.999Z</time></trkpt><trkpt lat="45.60634566094914" lon="5.759905313992536"><ele>501.66666666666663</ele><time>2026-04-05T14:22:48.999Z</time></trkpt><trkpt lat="45.60651949977449" lon="5.75981007005842"><ele>504.0</ele><time>2026-04-05T14:22:49.999Z</time></trkpt><trkpt lat="45.606672721318596" lon="5.7597172580755105"><ele>504.0</ele><time>2026-04-05T14:22:50.999Z</time></trkpt><trkpt lat="45.60682249792409" lon="5.759631694962424"><ele>504.0</ele><time>2026-04-05T14:22:51.999Z</time></trkpt><trkpt lat="45.60698188103916" lon="5.759573351381268"><ele>504.0</ele><time>2026-04-05T14:22:52.999Z</time></trkpt><trkpt lat="45.60714818316371" lon="5.7595634162746165"><ele>504.66666666666663</ele><time>2026-04-05T14:22:53.999Z</time></trkpt><trkpt lat="45.60731412233194" lon="5.759656635786473"><ele>505.3333333333333</ele><time>2026-04-05T14:22:55Z</time></trkpt><trkpt lat="45.6074866339502" lon="5.759737084742299"><ele>506.0</ele><time>2026-04-05T14:22:56Z</time></trkpt><trkpt lat="45.60767053235126" lon="5.759814991862198"><ele>505.3333333333333</ele><time>2026-04-05T14:22:57Z</time></trkpt><trkpt lat="45.60786615432849" lon="5.759932619381204"><ele>504.66666666666663</ele><time>2026-04-05T14:22:58Z</time></trkpt><trkpt lat="45.608077822171346" lon="5.760042930182867"><ele>504.0</ele><time>2026-04-05T14:22:59Z</time></trkpt><trkpt lat="45.608276766799186" lon="5.760143915673321"><ele>507.0</ele><time>2026-04-05T14:23:00Z</time></trkpt><trkpt lat="45.60847554181603" lon="5.76021839721079"><ele>510.0</ele><time>2026-04-05T14:23:01Z</time></trkpt><trkpt lat="45.608676881851196" lon="5.76025788767282"><ele>513.0</ele><time>2026-04-05T14:23:02Z</time></trkpt><trkpt lat="45.60886889385171" lon="5.760267632435716"><ele>513.0</ele><time>2026-04-05T14:23:03Z</time></trkpt><trkpt lat="45.609050777809124" lon="5.7602652105000205"><ele>513.0</ele><time>2026-04-05T14:23:04Z</time></trkpt><trkpt lat="45.60922524979643" lon="5.760250928060222"><ele>513.0</ele><time>2026-04-05T14:23:05Z</time></trkpt><trkpt lat="45.609384714963916" lon="5.76022788313611"><ele>512.5</ele><time>2026-04-05T14:23:06Z</time></trkpt><trkpt lat="45.60952817570503" lon="5.76019411537752"><ele>512.0</ele><time>2026-04-05T14:23:07Z</time></trkpt><trkpt lat="45.6096706952676" lon="5.7601473230074065"><ele>511.5</ele><time>2026-04-05T14:23:08Z</time></trkpt><trkpt lat="45.60981174169093" lon="5.760083416886391"><ele>511.0</ele><time>2026-04-05T14:23:09Z</time></trkpt><trkpt lat="45.60995271445052" lon="5.760017775608496"><ele>511.0</ele><time>2026-04-05T14:23:10Z</time></trkpt><trkpt lat="45.6100934511594" lon="5.759933573253613"><ele>511.0</ele><time>2026-04-05T14:23:11Z</time></trkpt><trkpt lat="45.61023602163018" lon="5.7598469212556545"><ele>511.0</ele><time>2026-04-05T14:23:12Z</time></trkpt><trkpt lat="45.61037868982713" lon="5.759755736108836"><ele>511.6666666666667</ele><time>2026-04-05T14:23:13Z</time></trkpt><trkpt lat="45.61052213646548" lon="5.759668998775183"><ele>512.3333333333334</ele><time>2026-04-05T14:23:14Z</time></trkpt><trkpt lat="45.610694313858836" lon="5.759586298169544"><ele>513.0</ele><time>2026-04-05T14:23:15Z</time></trkpt><trkpt lat="45.61085281558698" lon="5.759548333754038"><ele>513.0</ele><time>2026-04-05T14:23:16Z</time></trkpt><trkpt lat="45.611016706317834" lon="5.759521284880197"><ele>513.0</ele><time>2026-04-05T14:23:17Z</time></trkpt><trkpt lat="45.61118571379892" lon="5.759504734302889"><ele>513.0</ele><time>2026-04-05T14:23:18Z</time></trkpt><trkpt lat="45.611358135049514" lon="5.7595167188612"><ele>513.0</ele><time>2026-04-05T14:23:19Z</time></trkpt><trkpt lat="45.611539521871585" lon="5.759549690415084"><ele>513.0</ele><time>2026-04-05T14:23:20Z</time></trkpt><trkpt lat="45.611730629412705" lon="5.759602733341093"><ele>513.0</ele><time>2026-04-05T14:23:21Z</time></trkpt><trkpt lat="45.61192418292473" lon="5.759674859140869"><ele>513.0</ele><time>2026-04-05T14:23:22Z</time></trkpt><trkpt lat="45.612115310739014" lon="5.759772548073448"><ele>513.0</ele><time>2026-04-05T14:23:23Z</time></trkpt><trkpt lat="45.612293479965906" lon="5.759895490500068"><ele>513.0</ele><time>2026-04-05T14:23:24Z</time></trkpt><trkpt lat="45.612466666112866" lon="5.760042376761626"><ele>512.0</ele><time>2026-04-05T14:23:25Z</time></trkpt><trkpt lat="45.61261700172497" lon="5.760205920146906"><ele>511.0</ele><time>2026-04-05T14:23:26Z</time></trkpt><trkpt lat="45.6127769697057" lon="5.760400862836952"><ele>510.0</ele><time>2026-04-05T14:23:27Z</time></trkpt><trkpt lat="45.612941062023346" lon="5.760605801337742"><ele>510.0</ele><time>2026-04-05T14:23:28Z</time></trkpt><trkpt lat="45.613107744859235" lon="5.760815016393494"><ele>510.0</ele><time>2026-04-05T14:23:29Z</time></trkpt><trkpt lat="45.613281895035286" lon="5.761033602766004"><ele>511.5</ele><time>2026-04-05T14:23:30Z</time></trkpt><trkpt lat="45.61346338388266" lon="5.761261400539145"><ele>513.0</ele><time>2026-04-05T14:23:31Z</time></trkpt><trkpt lat="45.613658258593986" lon="5.761470714070395"><ele>513.0</ele><time>2026-04-05T14:23:32Z</time></trkpt><trkpt lat="45.61384301561656" lon="5.761708613498526"><ele>513.0</ele><time>2026-04-05T14:23:33Z</time></trkpt><trkpt lat="45.614031592458716" lon="5.761937926637972"><ele>514.5</ele><time>2026-04-05T14:23:34Z</time></trkpt><trkpt lat="45.614214018572454" lon="5.762160076601464"><ele>516.0</ele><time>2026-04-05T14:23:35Z</time></trkpt><trkpt lat="45.61439649006107" lon="5.762393612371507"><ele>515.5</ele><time>2026-04-05T14:23:36Z</time></trkpt><trkpt lat="45.61457968121759" lon="5.762627225969285"><ele>515.0</ele><time>2026-04-05T14:23:37Z</time></trkpt><trkpt lat="45.61476406634143" lon="5.7628450879737985"><ele>515.0</ele><time>2026-04-05T14:23:38Z</time></trkpt><trkpt lat="45.61491720304208" lon="5.763065424868552"><ele>515.0</ele><time>2026-04-05T14:23:39Z</time></trkpt><trkpt lat="45.61506813213354" lon="5.763255217856752"><ele>515.0</ele><time>2026-04-05T14:23:40Z</time></trkpt><trkpt lat="45.615193019425384" lon="5.763421319508243"><ele>517.0</ele><time>2026-04-05T14:23:41Z</time></trkpt><trkpt lat="45.61530397072703" lon="5.763604125339711"><ele>519.0</ele><time>2026-04-05T14:23:42Z</time></trkpt><trkpt lat="45.61545071521427" lon="5.763944026212381"><ele>521.0</ele><time>2026-04-05T14:23:43Z</time></trkpt><trkpt lat="45.61554998272186" lon="5.764213680767055"><ele>518.3333333333333</ele><time>2026-04-05T14:23:44Z</time></trkpt><trkpt lat="45.615619158928055" lon="5.764520166665674"><ele>515.6666666666666</ele><time>2026-04-05T14:23:45Z</time></trkpt><trkpt lat="45.615660311333095" lon="5.7648133963973365"><ele>513.0</ele><time>2026-04-05T14:23:46Z</time></trkpt><trkpt lat="45.61574814001731" lon="5.765064882019283"><ele>512.3333333333334</ele><time>2026-04-05T14:23:47Z</time></trkpt><trkpt lat="45.615862247422925" lon="5.765293444802793"><ele>511.6666666666667</ele><time>2026-04-05T14:23:48Z</time></trkpt><trkpt lat="45.616016222238024" lon="5.765474391034153"><ele>511.0</ele><time>2026-04-05T14:23:49Z</time></trkpt><trkpt lat="45.61617871831578" lon="5.765624227887863"><ele>511.0</ele><time>2026-04-05T14:23:50Z</time></trkpt><trkpt lat="45.61629240293135" lon="5.76582559491986"><ele>511.0</ele><time>2026-04-05T14:23:51Z</time></trkpt><trkpt lat="45.61637125611839" lon="5.766045586490909"><ele>511.0</ele><time>2026-04-05T14:23:52Z</time></trkpt><trkpt lat="45.61639860846683" lon="5.766282632299193"><ele>512.0</ele><time>2026-04-05T14:23:53Z</time></trkpt><trkpt lat="45.616427244384504" lon="5.766499788007313"><ele>513.0</ele><time>2026-04-05T14:23:54Z</time></trkpt><trkpt lat="45.61649577004501" lon="5.766664805881023"><ele>514.0</ele><time>2026-04-05T14:23:55Z</time></trkpt><trkpt lat="45.61659871708207" lon="5.7667999762305895"><ele>515.0</ele><time>2026-04-05T14:23:56Z</time></trkpt><trkpt lat="45.61675099364125" lon="5.766880070710339"><ele>515.0</ele><time>2026-04-05T14:23:57Z</time></trkpt><trkpt lat="45.61690320849827" lon="5.766954699431722"><ele>515.0</ele><time>2026-04-05T14:23:58Z</time></trkpt><trkpt lat="45.61703580608913" lon="5.767020421309902"><ele>515.0</ele><time>2026-04-05T14:23:59Z</time></trkpt><trkpt lat="45.617170717242104" lon="5.767018672733524"><ele>515.0</ele><time>2026-04-05T14:24:00Z</time></trkpt><trkpt lat="45.61727218532687" lon="5.766903882364179"><ele>512.25</ele><time>2026-04-05T14:24:01Z</time></trkpt><trkpt lat="45.61734952793855" lon="5.7667643084211715"><ele>509.5</ele><time>2026-04-05T14:24:02Z</time></trkpt><trkpt lat="45.61737985490611" lon="5.766581256227134"><ele>506.75</ele><time>2026-04-05T14:24:03Z</time></trkpt><trkpt lat="45.61743078444473" lon="5.7664080122404995"><ele>504.0</ele><time>2026-04-05T14:24:04Z</time></trkpt><trkpt lat="45.6175046513747" lon="5.766262350296002"><ele>504.0</ele><time>2026-04-05T14:24:05Z</time></trkpt><trkpt lat="45.617595821344686" lon="5.766158079868679"><ele>504.0</ele><time>2026-04-05T14:24:06Z</time></trkpt><trkpt lat="45.61770179125793" lon="5.7660733928348735"><ele>504.0</ele><time>2026-04-05T14:24:07Z</time></trkpt><trkpt lat="45.61782400325557" lon="5.766018198099674"><ele>504.0</ele><time>2026-04-05T14:24:08Z</time></trkpt><trkpt lat="45.6179656073449" lon="5.766012693788707"><ele>502.66666666666663</ele><time>2026-04-05T14:24:09Z</time></trkpt><trkpt lat="45.61811300477359" lon="5.766072753450814"><ele>501.3333333333333</ele><time>2026-04-05T14:24:10Z</time></trkpt><trkpt lat="45.61825091260131" lon="5.766190057454372"><ele>500.0</ele><time>2026-04-05T14:24:11Z</time></trkpt><trkpt lat="45.6183574064252" lon="5.7663502752444495"><ele>500.0</ele><time>2026-04-05T14:24:12Z</time></trkpt><trkpt lat="45.61843400840044" lon="5.7665443338994065"><ele>500.0</ele><time>2026-04-05T14:24:13Z</time></trkpt><trkpt lat="45.61848677866679" lon="5.766756614154094"><ele>500.0</ele><time>2026-04-05T14:24:14Z</time></trkpt><trkpt lat="45.61853017706029" lon="5.766973572014693"><ele>498.0</ele><time>2026-04-05T14:24:15Z</time></trkpt><trkpt lat="45.618579653053764" lon="5.7671910564872855"><ele>496.0</ele><time>2026-04-05T14:24:16Z</time></trkpt><trkpt lat="45.618602956270614" lon="5.767380738497225"><ele>494.0</ele><time>2026-04-05T14:24:17.001Z</time></trkpt><trkpt lat="45.61866515445149" lon="5.7676140044758"><ele>495.66666666666663</ele><time>2026-04-05T14:24:18.001Z</time></trkpt><trkpt lat="45.6187617201933" lon="5.767795873474204"><ele>497.33333333333337</ele><time>2026-04-05T14:24:19.001Z</time></trkpt><trkpt lat="45.61890458441369" lon="5.767925109532238"><ele>499.0</ele><time>2026-04-05T14:24:20.001Z</time></trkpt><trkpt lat="45.619054503481834" lon="5.768030740826485"><ele>499.0</ele><time>2026-04-05T14:24:20.998Z</time></trkpt><trkpt lat="45.61917105338233" lon="5.7681365089789285"><ele>499.0</ele><time>2026-04-05T14:24:21.998Z</time></trkpt><trkpt lat="45.61926493550368" lon="5.768207783325678"><ele>499.0</ele><time>2026-04-05T14:24:22.998Z</time></trkpt><trkpt lat="45.61961765657702" lon="5.7677218660507465"><ele>498.0</ele><time>2026-04-05T14:24:23.998Z</time></trkpt><trkpt lat="45.61981910502203" lon="5.767724814628271"><ele>497.0</ele><time>2026-04-05T14:24:24.998Z</time></trkpt><trkpt lat="45.62001677925426" lon="5.767761176378729"><ele>496.0</ele><time>2026-04-05T14:24:25.998Z</time></trkpt><trkpt lat="45.62021143382685" lon="5.76780944270757"><ele>494.6666666666667</ele><time>2026-04-05T14:24:26.998Z</time></trkpt><trkpt lat="45.62040158191413" lon="5.7678478468310805"><ele>493.33333333333337</ele><time>2026-04-05T14:24:27.998Z</time></trkpt><trkpt lat="45.62058079441826" lon="5.76789442034139"><ele>492.0</ele><time>2026-04-05T14:24:28.999Z</time></trkpt><trkpt lat="45.620755857350304" lon="5.767926430719382"><ele>492.0</ele><time>2026-04-05T14:24:29.999Z</time></trkpt><trkpt lat="45.62092395175693" lon="5.7679283631846365"><ele>492.0</ele><time>2026-04-05T14:24:30.999Z</time></trkpt><trkpt lat="45.62109623019908" lon="5.767887675538301"><ele>492.0</ele><time>2026-04-05T14:24:31.999Z</time></trkpt><trkpt lat="45.62127497518694" lon="5.767809473667067"><ele>491.0</ele><time>2026-04-05T14:24:32.999Z</time></trkpt><trkpt lat="45.621453063961994" lon="5.76770003329926"><ele>490.0</ele><time>2026-04-05T14:24:33.999Z</time></trkpt><trkpt lat="45.62162421466771" lon="5.767556136011818"><ele>489.0</ele><time>2026-04-05T14:24:34.999Z</time></trkpt><trkpt lat="45.621789225235645" lon="5.767394461244453"><ele>489.0</ele><time>2026-04-05T14:24:35.999Z</time></trkpt><trkpt lat="45.62195350807568" lon="5.767247359207235"><ele>489.0</ele><time>2026-04-05T14:24:36.999Z</time></trkpt><trkpt lat="45.62211630180078" lon="5.767125098902357"><ele>489.0</ele><time>2026-04-05T14:24:37.999Z</time></trkpt><trkpt lat="45.622299801915865" lon="5.767036996674454"><ele>492.0</ele><time>2026-04-05T14:24:38.999Z</time></trkpt><trkpt lat="45.62249755929749" lon="5.766993626220289"><ele>495.0</ele><time>2026-04-05T14:24:39.999Z</time></trkpt><trkpt lat="45.622705098523454" lon="5.766986345830331"><ele>498.0</ele><time>2026-04-05T14:24:40.999Z</time></trkpt><trkpt lat="45.62290821769677" lon="5.7669923074159986"><ele>499.0</ele><time>2026-04-05T14:24:41.999Z</time></trkpt><trkpt lat="45.62310553142758" lon="5.767006042138823"><ele>500.0</ele><time>2026-04-05T14:24:42.999Z</time></trkpt><trkpt lat="45.62330485667564" lon="5.767013475037773"><ele>501.0</ele><time>2026-04-05T14:24:43.999Z</time></trkpt><trkpt lat="45.62350505465116" lon="5.767047571498803"><ele>498.33333333333337</ele><time>2026-04-05T14:24:44.999Z</time></trkpt><trkpt lat="45.623697779296926" lon="5.7671255256778595"><ele>495.6666666666667</ele><time>2026-04-05T14:24:45.999Z</time></trkpt><trkpt lat="45.62387615096992" lon="5.767218130805147"><ele>493.0</ele><time>2026-04-05T14:24:46.999Z</time></trkpt><trkpt lat="45.62405006758684" lon="5.767295763348179"><ele>493.0</ele><time>2026-04-05T14:24:47.999Z</time></trkpt><trkpt lat="45.624210378967476" lon="5.767421069525785"><ele>493.0</ele><time>2026-04-05T14:24:48.999Z</time></trkpt><trkpt lat="45.624361263876956" lon="5.767616868742067"><ele>493.0</ele><time>2026-04-05T14:24:49.999Z</time></trkpt><trkpt lat="45.62450872591577" lon="5.767823866584017"><ele>493.0</ele><time>2026-04-05T14:24:50.999Z</time></trkpt><trkpt lat="45.62466600058704" lon="5.767991597983021"><ele>493.0</ele><time>2026-04-05T14:24:51.999Z</time></trkpt><trkpt lat="45.62484118501357" lon="5.7680877400032715"><ele>493.0</ele><time>2026-04-05T14:24:52.999Z</time></trkpt><trkpt lat="45.62503063863373" lon="5.768097557223642"><ele>493.0</ele><time>2026-04-05T14:24:53.999Z</time></trkpt><trkpt lat="45.62519421381028" lon="5.768041172854269"><ele>493.0</ele><time>2026-04-05T14:24:54.999Z</time></trkpt><trkpt lat="45.62538161715104" lon="5.767854638722099"><ele>493.0</ele><time>2026-04-05T14:24:56Z</time></trkpt><trkpt lat="45.6255556942046" lon="5.767692883031606"><ele>491.0</ele><time>2026-04-05T14:24:57Z</time></trkpt><trkpt lat="45.625737183723984" lon="5.767560430606632"><ele>489.0</ele><time>2026-04-05T14:24:58Z</time></trkpt><trkpt lat="45.62592483001557" lon="5.767429064711647"><ele>487.0</ele><time>2026-04-05T14:24:59Z</time></trkpt><trkpt lat="45.62612272952945" lon="5.767298468702972"><ele>486.6666666666667</ele><time>2026-04-05T14:25:00Z</time></trkpt><trkpt lat="45.6263170988712" lon="5.767157594600989"><ele>486.33333333333337</ele><time>2026-04-05T14:25:01Z</time></trkpt><trkpt lat="45.6265160473406" lon="5.767011058306497"><ele>486.0</ele><time>2026-04-05T14:25:02Z</time></trkpt><trkpt lat="45.62671573564203" lon="5.7668590435848195"><ele>485.66666666666663</ele><time>2026-04-05T14:25:03Z</time></trkpt><trkpt lat="45.626915887251556" lon="5.766728379678241"><ele>485.3333333333333</ele><time>2026-04-05T14:25:04Z</time></trkpt><trkpt lat="45.62710832143986" lon="5.766606471490833"><ele>485.0</ele><time>2026-04-05T14:25:05Z</time></trkpt><trkpt lat="45.627300226681754" lon="5.7664944211475255"><ele>484.0</ele><time>2026-04-05T14:25:06Z</time></trkpt><trkpt lat="45.627482905181246" lon="5.7663901443350625"><ele>483.0</ele><time>2026-04-05T14:25:07Z</time></trkpt><trkpt lat="45.627651911829695" lon="5.766282521328424"><ele>482.0</ele><time>2026-04-05T14:25:08Z</time></trkpt><trkpt lat="45.627813892145475" lon="5.766183453768911"><ele>480.3333333333333</ele><time>2026-04-05T14:25:09Z</time></trkpt><trkpt lat="45.62797300472654" lon="5.766091798162308"><ele>478.66666666666663</ele><time>2026-04-05T14:25:10Z</time></trkpt><trkpt lat="45.62813253154325" lon="5.76607088160304"><ele>477.0</ele><time>2026-04-05T14:25:11Z</time></trkpt><trkpt lat="45.62830167169146" lon="5.766101055964519"><ele>477.0</ele><time>2026-04-05T14:25:12Z</time></trkpt><trkpt lat="45.6284459972127" lon="5.7661854906122345"><ele>477.0</ele><time>2026-04-05T14:25:13Z</time></trkpt><trkpt lat="45.62857857583942" lon="5.766301335884073"><ele>477.0</ele><time>2026-04-05T14:25:14Z</time></trkpt><trkpt lat="45.628686439495816" lon="5.766426239673286"><ele>475.75</ele><time>2026-04-05T14:25:15Z</time></trkpt><trkpt lat="45.62875382386834" lon="5.766553320737098"><ele>474.5</ele><time>2026-04-05T14:25:16Z</time></trkpt><trkpt lat="45.628774314329476" lon="5.7667114365383565"><ele>473.25</ele><time>2026-04-05T14:25:17Z</time></trkpt><trkpt lat="45.62874249082254" lon="5.76686636349214"><ele>472.0</ele><time>2026-04-05T14:25:18Z</time></trkpt><trkpt lat="45.6286465769825" lon="5.766988270665338"><ele>470.0</ele><time>2026-04-05T14:25:19Z</time></trkpt><trkpt lat="45.62854445017006" lon="5.767102230084282"><ele>468.0</ele><time>2026-04-05T14:25:20Z</time></trkpt><trkpt lat="45.62844960236378" lon="5.76720406536704"><ele>466.0</ele><time>2026-04-05T14:25:21Z</time></trkpt><trkpt lat="45.62832533001155" lon="5.767222776048637"><ele>464.0</ele><time>2026-04-05T14:25:22Z</time></trkpt><trkpt lat="45.62819712408107" lon="5.7671572534964275"><ele>464.0</ele><time>2026-04-05T14:25:23Z</time></trkpt><trkpt lat="45.62804183037033" lon="5.767098047148805"><ele>464.0</ele><time>2026-04-05T14:25:24Z</time></trkpt><trkpt lat="45.62789302059554" lon="5.76702980211505"><ele>464.0</ele><time>2026-04-05T14:25:25Z</time></trkpt><trkpt lat="45.62772421271706" lon="5.767044927173144"><ele>466.0</ele><time>2026-04-05T14:25:26Z</time></trkpt><trkpt lat="45.627569276111814" lon="5.767150748301658"><ele>468.0</ele><time>2026-04-05T14:25:27Z</time></trkpt><trkpt lat="45.6274341553975" lon="5.767311639128363"><ele>470.0</ele><time>2026-04-05T14:25:28Z</time></trkpt><trkpt lat="45.627308811183774" lon="5.767509011998734"><ele>470.0</ele><time>2026-04-05T14:25:29Z</time></trkpt><trkpt lat="45.627175445088284" lon="5.767690668611197"><ele>470.0</ele><time>2026-04-05T14:25:30Z</time></trkpt><trkpt lat="45.62704324759598" lon="5.767832306423563"><ele>470.0</ele><time>2026-04-05T14:25:31Z</time></trkpt><trkpt lat="45.62690580549894" lon="5.7679327095824675"><ele>471.66666666666663</ele><time>2026-04-05T14:25:32Z</time></trkpt><trkpt lat="45.62676397675643" lon="5.7680555952455475"><ele>473.33333333333337</ele><time>2026-04-05T14:25:33Z</time></trkpt><trkpt lat="45.626665922287444" lon="5.7682313908500555"><ele>475.0</ele><time>2026-04-05T14:25:34Z</time></trkpt><trkpt lat="45.62658999620165" lon="5.768439858721916"><ele>473.25</ele><time>2026-04-05T14:25:35Z</time></trkpt><trkpt lat="45.62654229931197" lon="5.768629566586128"><ele>471.5</ele><time>2026-04-05T14:25:36Z</time></trkpt><trkpt lat="45.62653287141521" lon="5.768874862071768"><ele>469.75</ele><time>2026-04-05T14:25:37Z</time></trkpt><trkpt lat="45.62650870650201" lon="5.769065220788684"><ele>468.0</ele><time>2026-04-05T14:25:38Z</time></trkpt><trkpt lat="45.62651027195111" lon="5.769214294000444"><ele>468.0</ele><time>2026-04-05T14:25:39Z</time></trkpt><trkpt lat="45.62656887380387" lon="5.769342532538456"><ele>467.99999999999994</ele><time>2026-04-05T14:25:40Z</time></trkpt><trkpt lat="45.626656611836914" lon="5.76942550288933"><ele>467.99999999999994</ele><time>2026-04-05T14:25:41Z</time></trkpt><trkpt lat="45.62675727813536" lon="5.7694495208018886"><ele>468.0</ele><time>2026-04-05T14:25:42Z</time></trkpt><trkpt lat="45.62685534988175" lon="5.769389202479763"><ele>468.0</ele><time>2026-04-05T14:25:43Z</time></trkpt><trkpt lat="45.62692649582363" lon="5.769246641380986"><ele>467.0</ele><time>2026-04-05T14:25:44Z</time></trkpt><trkpt lat="45.62701452914812" lon="5.769098753816447"><ele>466.0</ele><time>2026-04-05T14:25:45Z</time></trkpt><trkpt lat="45.627098603075744" lon="5.768979807312594"><ele>465.0</ele><time>2026-04-05T14:25:46Z</time></trkpt><trkpt lat="45.6271949270614" lon="5.768869098689685"><ele>464.0</ele><time>2026-04-05T14:25:47Z</time></trkpt><trkpt lat="45.62729093721217" lon="5.768800492613214"><ele>464.0</ele><time>2026-04-05T14:25:48Z</time></trkpt><trkpt lat="45.62740231045727" lon="5.768749627762213"><ele>464.0</ele><time>2026-04-05T14:25:49Z</time></trkpt><trkpt lat="45.627535792173695" lon="5.768771529449891"><ele>464.0</ele><time>2026-04-05T14:25:50Z</time></trkpt><trkpt lat="45.62767244596968" lon="5.768819127340191"><ele>464.0</ele><time>2026-04-05T14:25:51Z</time></trkpt><trkpt lat="45.627813033375595" lon="5.76888916974207"><ele>462.0</ele><time>2026-04-05T14:25:52.001Z</time></trkpt><trkpt lat="45.62794057560436" lon="5.768964459907969"><ele>460.0</ele><time>2026-04-05T14:25:53.001Z</time></trkpt><trkpt lat="45.62807799407385" lon="5.769036667684096"><ele>458.0</ele><time>2026-04-05T14:25:54.001Z</time></trkpt><trkpt lat="45.62822259668232" lon="5.769098699408055"><ele>456.0</ele><time>2026-04-05T14:25:55.001Z</time></trkpt><trkpt lat="45.62838441836088" lon="5.769129252305541"><ele>456.0</ele><time>2026-04-05T14:25:56.001Z</time></trkpt><trkpt lat="45.62855408728079" lon="5.769125586772066"><ele>456.0</ele><time>2026-04-05T14:25:57.001Z</time></trkpt><trkpt lat="45.62873547953191" lon="5.769121460690006"><ele>456.0</ele><time>2026-04-05T14:25:58.001Z</time></trkpt><trkpt lat="45.6289330439289" lon="5.769097541073927"><ele>457.0</ele><time>2026-04-05T14:25:59.001Z</time></trkpt><trkpt lat="45.629124322847645" lon="5.769080081167645"><ele>458.0</ele><time>2026-04-05T14:26:00.001Z</time></trkpt><trkpt lat="45.62930383043686" lon="5.76904224480402"><ele>459.0</ele><time>2026-04-05T14:26:01.001Z</time></trkpt><trkpt lat="45.62949723108916" lon="5.769045589825317"><ele>461.66666666666663</ele><time>2026-04-05T14:26:02.001Z</time></trkpt><trkpt lat="45.62969380712489" lon="5.769010368560926"><ele>464.3333333333333</ele><time>2026-04-05T14:26:03.001Z</time></trkpt><trkpt lat="45.62987233805117" lon="5.768949966515467"><ele>467.0</ele><time>2026-04-05T14:26:04.001Z</time></trkpt><trkpt lat="45.63004306000838" lon="5.768882903596415"><ele>467.0</ele><time>2026-04-05T14:26:05.001Z</time></trkpt><trkpt lat="45.63020011493756" lon="5.768785392953277"><ele>467.0</ele><time>2026-04-05T14:26:06.001Z</time></trkpt><trkpt lat="45.63033181768225" lon="5.768635952217616"><ele>467.0</ele><time>2026-04-05T14:26:07.001Z</time></trkpt><trkpt lat="45.63043561475079" lon="5.768440665961309"><ele>462.66666666666663</ele><time>2026-04-05T14:26:08.001Z</time></trkpt><trkpt lat="45.63053077327744" lon="5.768225115778211"><ele>458.33333333333337</ele><time>2026-04-05T14:26:09.001Z</time></trkpt><trkpt lat="45.63061765999141" lon="5.768024901510931"><ele>454.0</ele><time>2026-04-05T14:26:10.001Z</time></trkpt><trkpt lat="45.63070187115706" lon="5.767845063559329"><ele>450.0</ele><time>2026-04-05T14:26:11.001Z</time></trkpt><trkpt lat="45.630794499373735" lon="5.7676760668477485"><ele>446.0</ele><time>2026-04-05T14:26:12.001Z</time></trkpt><trkpt lat="45.63091438102626" lon="5.7675397617106645"><ele>442.0</ele><time>2026-04-05T14:26:13.001Z</time></trkpt><trkpt lat="45.631068918812275" lon="5.767433815642401"><ele>442.6666666666667</ele><time>2026-04-05T14:26:14.001Z</time></trkpt><trkpt lat="45.63122439655545" lon="5.767343014341036"><ele>443.33333333333337</ele><time>2026-04-05T14:26:15.001Z</time></trkpt><trkpt lat="45.631385391475874" lon="5.767247854469964"><ele>444.0</ele><time>2026-04-05T14:26:16.001Z</time></trkpt><trkpt lat="45.631551470147365" lon="5.767149689705297"><ele>444.0</ele><time>2026-04-05T14:26:17.001Z</time></trkpt><trkpt lat="45.63171966785203" lon="5.767047241011953"><ele>444.0</ele><time>2026-04-05T14:26:18.001Z</time></trkpt><trkpt lat="45.63188455370055" lon="5.766946275981431"><ele>444.0</ele><time>2026-04-05T14:26:19.001Z</time></trkpt><trkpt lat="45.63205041389305" lon="5.766844714321451"><ele>439.0</ele><time>2026-04-05T14:26:20.001Z</time></trkpt><trkpt lat="45.63221430723258" lon="5.766744357032258"><ele>434.0</ele><time>2026-04-05T14:26:21.001Z</time></trkpt><trkpt lat="45.63238420576627" lon="5.766643699080102"><ele>429.0</ele><time>2026-04-05T14:26:22.001Z</time></trkpt><trkpt lat="45.63255113748338" lon="5.766532682581291"><ele>429.0</ele><time>2026-04-05T14:26:23.001Z</time></trkpt><trkpt lat="45.632741460190545" lon="5.766504312761967"><ele>429.0</ele><time>2026-04-05T14:26:24.001Z</time></trkpt><trkpt lat="45.63293251920633" lon="5.766484544921957"><ele>429.0</ele><time>2026-04-05T14:26:25.001Z</time></trkpt><trkpt lat="45.633122050615874" lon="5.766445358882426"><ele>429.0</ele><time>2026-04-05T14:26:26.001Z</time></trkpt><trkpt lat="45.63331563780375" lon="5.766417260035317"><ele>429.0</ele><time>2026-04-05T14:26:26.999Z</time></trkpt><trkpt lat="45.633494039559785" lon="5.76634302431107"><ele>429.0</ele><time>2026-04-05T14:26:27.999Z</time></trkpt><trkpt lat="45.63366262656743" lon="5.766241860027829"><ele>430.33333333333337</ele><time>2026-04-05T14:26:28.999Z</time></trkpt><trkpt lat="45.633827889578434" lon="5.766160616396968"><ele>431.6666666666667</ele><time>2026-04-05T14:26:29.999Z</time></trkpt><trkpt lat="45.63398637840506" lon="5.766090700900462"><ele>433.0</ele><time>2026-04-05T14:26:30.999Z</time></trkpt><trkpt lat="45.634126735449726" lon="5.765992940429451"><ele>429.5</ele><time>2026-04-05T14:26:31.999Z</time></trkpt><trkpt lat="45.634238012219186" lon="5.765850010511683"><ele>426.0</ele><time>2026-04-05T14:26:32.999Z</time></trkpt><trkpt lat="45.63434975811757" lon="5.765727417114954"><ele>422.5</ele><time>2026-04-05T14:26:33.999Z</time></trkpt><trkpt lat="45.63444880672374" lon="5.765626603604548"><ele>419.0</ele><time>2026-04-05T14:26:34.999Z</time></trkpt><trkpt lat="45.63452032042925" lon="5.76557934973159"><ele>417.5</ele><time>2026-04-05T14:26:35.999Z</time></trkpt><trkpt lat="45.63460514365212" lon="5.7655633680195635"><ele>416.0</ele><time>2026-04-05T14:26:37.999Z</time></trkpt><trkpt lat="45.63495873590759" lon="5.765805708228696"><ele>416.0</ele><time>2026-04-05T14:26:38.999Z</time></trkpt><trkpt lat="45.63509683054602" lon="5.765937841593013"><ele>416.0</ele><time>2026-04-05T14:26:39.999Z</time></trkpt><trkpt lat="45.63524743240967" lon="5.76606201909411"><ele>416.0</ele><time>2026-04-05T14:26:40.999Z</time></trkpt><trkpt lat="45.63540948335384" lon="5.766146555913852"><ele>419.0</ele><time>2026-04-05T14:26:41.999Z</time></trkpt><trkpt lat="45.63557236390515" lon="5.766186388283773"><ele>422.0</ele><time>2026-04-05T14:26:42.999Z</time></trkpt><trkpt lat="45.63574649331609" lon="5.766209793230072"><ele>425.0</ele><time>2026-04-05T14:26:43.999Z</time></trkpt><trkpt lat="45.63589658483128" lon="5.76628788745911"><ele>425.0</ele><time>2026-04-05T14:26:44.999Z</time></trkpt><trkpt lat="45.63604586040624" lon="5.76638878162914"><ele>425.0</ele><time>2026-04-05T14:26:45.999Z</time></trkpt><trkpt lat="45.63619198988285" lon="5.76652212069239"><ele>425.0</ele><time>2026-04-05T14:26:47Z</time></trkpt><trkpt lat="45.63633397277211" lon="5.766674609074886"><ele>418.66666666666663</ele><time>2026-04-05T14:26:48Z</time></trkpt><trkpt lat="45.63647002942957" lon="5.766814011031177"><ele>412.33333333333337</ele><time>2026-04-05T14:26:49Z</time></trkpt><trkpt lat="45.63659319022833" lon="5.766936772769844"><ele>406.0</ele><time>2026-04-05T14:26:50Z</time></trkpt><trkpt lat="45.63671580066217" lon="5.767056220232242"><ele>405.6666666666667</ele><time>2026-04-05T14:26:51Z</time></trkpt><trkpt lat="45.636829973831844" lon="5.767152437870945"><ele>405.33333333333337</ele><time>2026-04-05T14:26:52Z</time></trkpt><trkpt lat="45.63691006821936" lon="5.76723418014118"><ele>405.0</ele><time>2026-04-05T14:26:53Z</time></trkpt><trkpt lat="45.636977990616444" lon="5.767292083300094"><ele>404.66666666666663</ele><time>2026-04-05T14:26:54Z</time></trkpt><trkpt lat="45.637033724752904" lon="5.767346917793071"><ele>404.3333333333333</ele><time>2026-04-05T14:26:55Z</time></trkpt><trkpt lat="45.6370877738657" lon="5.767410163134464"><ele>404.0</ele><time>2026-04-05T14:26:56Z</time></trkpt><trkpt lat="45.63716381847701" lon="5.767467781266854"><ele>403.75</ele><time>2026-04-05T14:26:57Z</time></trkpt><trkpt lat="45.637256759854246" lon="5.767485393531672"><ele>403.5</ele><time>2026-04-05T14:26:58Z</time></trkpt><trkpt lat="45.63737277383378" lon="5.767481957857147"><ele>403.25</ele><time>2026-04-05T14:26:59Z</time></trkpt><trkpt lat="45.63750196311806" lon="5.767476965663298"><ele>403.0</ele><time>2026-04-05T14:27:00Z</time></trkpt><trkpt lat="45.63763650810356" lon="5.7674659138706454"><ele>403.0</ele><time>2026-04-05T14:27:01Z</time></trkpt><trkpt lat="45.63777142620517" lon="5.767494280092412"><ele>403.0</ele><time>2026-04-05T14:27:02Z</time></trkpt><trkpt lat="45.63791284554878" lon="5.767544425809421"><ele>403.0</ele><time>2026-04-05T14:27:03Z</time></trkpt><trkpt lat="45.638065535233444" lon="5.767640629173785"><ele>403.0</ele><time>2026-04-05T14:27:04Z</time></trkpt><trkpt lat="45.63823228951222" lon="5.767700502543513"><ele>405.6666666666667</ele><time>2026-04-05T14:27:05Z</time></trkpt><trkpt lat="45.63838343611699" lon="5.767767710250177"><ele>408.33333333333337</ele><time>2026-04-05T14:27:06Z</time></trkpt><trkpt lat="45.638558771089386" lon="5.767760044581413"><ele>411.0</ele><time>2026-04-05T14:27:07Z</time></trkpt><trkpt lat="45.63873195024449" lon="5.767772923326225"><ele>411.0</ele><time>2026-04-05T14:27:08Z</time></trkpt><trkpt lat="45.63889510357054" lon="5.767777107954836"><ele>411.0</ele><time>2026-04-05T14:27:09Z</time></trkpt><trkpt lat="45.63905626386789" lon="5.767769291617111"><ele>411.0</ele><time>2026-04-05T14:27:10Z</time></trkpt><trkpt lat="45.63919241678417" lon="5.767784275625984"><ele>411.0</ele><time>2026-04-05T14:27:11Z</time></trkpt><trkpt lat="45.63932046612236" lon="5.767863806759492"><ele>411.0</ele><time>2026-04-05T14:27:12Z</time></trkpt><trkpt lat="45.639436064613236" lon="5.767987748251957"><ele>411.0</ele><time>2026-04-05T14:27:13Z</time></trkpt><trkpt lat="45.639540094961426" lon="5.768141900623239"><ele>411.0</ele><time>2026-04-05T14:27:14Z</time></trkpt><trkpt lat="45.639602949785335" lon="5.7683297434075325"><ele>411.0</ele><time>2026-04-05T14:27:15Z</time></trkpt><trkpt lat="45.639603454096424" lon="5.768528540636079"><ele>411.0</ele><time>2026-04-05T14:27:16Z</time></trkpt><trkpt lat="45.63961756454398" lon="5.768716746851368"><ele>411.0</ele><time>2026-04-05T14:27:17Z</time></trkpt><trkpt lat="45.63963449290086" lon="5.768875898596915"><ele>411.0</ele><time>2026-04-05T14:27:18Z</time></trkpt><trkpt lat="45.63970750872043" lon="5.76898367498636"><ele>411.0</ele><time>2026-04-05T14:27:19Z</time></trkpt><trkpt lat="45.63982100256616" lon="5.769009462332294"><ele>411.0</ele><time>2026-04-05T14:27:20Z</time></trkpt><trkpt lat="45.639954191578724" lon="5.768947227790727"><ele>411.0</ele><time>2026-04-05T14:27:21Z</time></trkpt><trkpt lat="45.64009575815298" lon="5.768812630305271"><ele>411.0</ele><time>2026-04-05T14:27:22Z</time></trkpt><trkpt lat="45.64025097945437" lon="5.7686765415866015"><ele>410.66666666666663</ele><time>2026-04-05T14:27:23Z</time></trkpt><trkpt lat="45.64040535320911" lon="5.768580407832126"><ele>410.3333333333333</ele><time>2026-04-05T14:27:24Z</time></trkpt><trkpt lat="45.64054728379314" lon="5.768510103824712"><ele>410.0</ele><time>2026-04-05T14:27:25Z</time></trkpt><trkpt lat="45.640691602401496" lon="5.768426639934104"><ele>410.0</ele><time>2026-04-05T14:27:26Z</time></trkpt><trkpt lat="45.640844222631245" lon="5.768365953881243"><ele>410.0</ele><time>2026-04-05T14:27:27Z</time></trkpt><trkpt lat="45.64099893654193" lon="5.7683053412325656"><ele>410.0</ele><time>2026-04-05T14:27:28Z</time></trkpt><trkpt lat="45.6411673231122" lon="5.768264428751174"><ele>412.3333333333333</ele><time>2026-04-05T14:27:29Z</time></trkpt><trkpt lat="45.64134436430658" lon="5.768228283142537"><ele>414.66666666666663</ele><time>2026-04-05T14:27:30.001Z</time></trkpt><trkpt lat="45.641505277994526" lon="5.768200598396852"><ele>417.0</ele><time>2026-04-05T14:27:31.001Z</time></trkpt><trkpt lat="45.641679979810654" lon="5.768175438488897"><ele>417.0</ele><time>2026-04-05T14:27:32.001Z</time></trkpt><trkpt lat="45.64184186307425" lon="5.768178278822558"><ele>417.0</ele><time>2026-04-05T14:27:33.001Z</time></trkpt><trkpt lat="45.64201244685959" lon="5.7682062467992"><ele>417.0</ele><time>2026-04-05T14:27:34.001Z</time></trkpt><trkpt lat="45.64218523821899" lon="5.7682293487117295"><ele>416.33333333333337</ele><time>2026-04-05T14:27:35.001Z</time></trkpt><trkpt lat="45.642363667874314" lon="5.768224949852163"><ele>415.6666666666667</ele><time>2026-04-05T14:27:36.001Z</time></trkpt><trkpt lat="45.642533230529565" lon="5.768143529610839"><ele>415.0</ele><time>2026-04-05T14:27:37.001Z</time></trkpt><trkpt lat="45.64273389363435" lon="5.7681504140640865"><ele>413.6666666666667</ele><time>2026-04-05T14:27:38.001Z</time></trkpt><trkpt lat="45.64291380809704" lon="5.768188860727834"><ele>412.33333333333337</ele><time>2026-04-05T14:27:39.001Z</time></trkpt><trkpt lat="45.64311179998576" lon="5.768215597829654"><ele>411.0</ele><time>2026-04-05T14:27:40.001Z</time></trkpt><trkpt lat="45.643299981954584" lon="5.768258012740453"><ele>411.0</ele><time>2026-04-05T14:27:41.001Z</time></trkpt><trkpt lat="45.64349523293494" lon="5.768306986618824"><ele>411.0</ele><time>2026-04-05T14:27:42.001Z</time></trkpt><trkpt lat="45.643691093184195" lon="5.768341269337659"><ele>411.0</ele><time>2026-04-05T14:27:43.001Z</time></trkpt><trkpt lat="45.64388694328473" lon="5.768386563638484"><ele>412.0</ele><time>2026-04-05T14:27:44.001Z</time></trkpt><trkpt lat="45.64408064278781" lon="5.7684310409959805"><ele>413.0</ele><time>2026-04-05T14:27:45.001Z</time></trkpt><trkpt lat="45.644257235268604" lon="5.7684715815596075"><ele>414.0</ele><time>2026-04-05T14:27:46.001Z</time></trkpt><trkpt lat="45.644420651847824" lon="5.768517398330251"><ele>414.75</ele><time>2026-04-05T14:27:47.001Z</time></trkpt><trkpt lat="45.64456843408929" lon="5.768569550409937"><ele>415.5</ele><time>2026-04-05T14:27:48.001Z</time></trkpt><trkpt lat="45.64469823962361" lon="5.768596584069752"><ele>416.25</ele><time>2026-04-05T14:27:49.001Z</time></trkpt><trkpt lat="45.64480594274051" lon="5.768514274697714"><ele>417.0</ele><time>2026-04-05T14:27:50.001Z</time></trkpt><trkpt lat="45.64487314282535" lon="5.768375231039817"><ele>417.0</ele><time>2026-04-05T14:27:51.001Z</time></trkpt><trkpt lat="45.64494717333967" lon="5.768200199246816"><ele>417.0</ele><time>2026-04-05T14:27:52.001Z</time></trkpt><trkpt lat="45.645065363293554" lon="5.76805901062627"><ele>417.0</ele><time>2026-04-05T14:27:53.001Z</time></trkpt><trkpt lat="45.645201530281135" lon="5.767963879361163"><ele>417.0</ele><time>2026-04-05T14:27:54.001Z</time></trkpt><trkpt lat="45.64536514792838" lon="5.767898450176353"><ele>415.66666666666663</ele><time>2026-04-05T14:27:55.001Z</time></trkpt><trkpt lat="45.64553430871164" lon="5.767838343628948"><ele>414.3333333333333</ele><time>2026-04-05T14:27:56.001Z</time></trkpt><trkpt lat="45.645704541782074" lon="5.767761995965524"><ele>413.0</ele><time>2026-04-05T14:27:57.001Z</time></trkpt><trkpt lat="45.64587590004038" lon="5.767672753511211"><ele>413.0</ele><time>2026-04-05T14:27:58.001Z</time></trkpt><trkpt lat="45.64605436512188" lon="5.7675695542150205"><ele>413.0</ele><time>2026-04-05T14:27:59.001Z</time></trkpt><trkpt lat="45.64623387740437" lon="5.767462043900579"><ele>413.0</ele><time>2026-04-05T14:28:00.001Z</time></trkpt><trkpt lat="45.64640331575123" lon="5.767342951435408"><ele>416.0</ele><time>2026-04-05T14:28:01.001Z</time></trkpt><trkpt lat="45.64658771399749" lon="5.767263425498456"><ele>419.0</ele><time>2026-04-05T14:28:02.001Z</time></trkpt><trkpt lat="45.64678263799377" lon="5.767207091689382"><ele>422.0</ele><time>2026-04-05T14:28:03.001Z</time></trkpt><trkpt lat="45.646982378785985" lon="5.767141988285305"><ele>423.66666666666663</ele><time>2026-04-05T14:28:04.001Z</time></trkpt><trkpt lat="45.647191800903286" lon="5.7671096306201015"><ele>425.33333333333337</ele><time>2026-04-05T14:28:05.001Z</time></trkpt><trkpt lat="45.6473962168613" lon="5.767058182559153"><ele>427.0</ele><time>2026-04-05T14:28:06.001Z</time></trkpt><trkpt lat="45.64758736352197" lon="5.766992186668405"><ele>427.0</ele><time>2026-04-05T14:28:07.001Z</time></trkpt><trkpt lat="45.64776740865385" lon="5.766896172358054"><ele>427.0</ele><time>2026-04-05T14:28:08.001Z</time></trkpt><trkpt lat="45.647935619406745" lon="5.766771574124025"><ele>427.0</ele><time>2026-04-05T14:28:09.001Z</time></trkpt><trkpt lat="45.64811379917353" lon="5.766694018408501"><ele>424.6666666666667</ele><time>2026-04-05T14:28:10.001Z</time></trkpt><trkpt lat="45.648308332459905" lon="5.766656839426366"><ele>422.33333333333337</ele><time>2026-04-05T14:28:11.001Z</time></trkpt><trkpt lat="45.64851602089205" lon="5.766610981771197"><ele>420.0</ele><time>2026-04-05T14:28:12.001Z</time></trkpt><trkpt lat="45.64872721165667" lon="5.766605012347616"><ele>420.0</ele><time>2026-04-05T14:28:13.001Z</time></trkpt><trkpt lat="45.64893921651848" lon="5.766592627906012"><ele>420.0</ele><time>2026-04-05T14:28:14.001Z</time></trkpt><trkpt lat="45.649132866593405" lon="5.7665588674944175"><ele>420.0</ele><time>2026-04-05T14:28:15.001Z</time></trkpt><trkpt lat="45.64933681052562" lon="5.766531964305671"><ele>418.0</ele><time>2026-04-05T14:28:16.001Z</time></trkpt><trkpt lat="45.649538525505285" lon="5.766524272697791"><ele>416.0</ele><time>2026-04-05T14:28:17.001Z</time></trkpt><trkpt lat="45.64974082627769" lon="5.766595589694149"><ele>414.0</ele><time>2026-04-05T14:28:18.001Z</time></trkpt><trkpt lat="45.649945950262556" lon="5.766677049407475"><ele>414.0</ele><time>2026-04-05T14:28:19.001Z</time></trkpt><trkpt lat="45.65014836035258" lon="5.7667691500385745"><ele>414.0</ele><time>2026-04-05T14:28:20.001Z</time></trkpt><trkpt lat="45.65035631959058" lon="5.766849560879201"><ele>414.0</ele><time>2026-04-05T14:28:21.001Z</time></trkpt><trkpt lat="45.650567962958384" lon="5.766902919107389"><ele>413.33333333333337</ele><time>2026-04-05T14:28:22.001Z</time></trkpt><trkpt lat="45.65078799334079" lon="5.766891357076529"><ele>412.6666666666667</ele><time>2026-04-05T14:28:23.001Z</time></trkpt><trkpt lat="45.65100698396476" lon="5.76684897757076"><ele>412.0</ele><time>2026-04-05T14:28:24.001Z</time></trkpt><trkpt lat="45.65122772166937" lon="5.76680246310205"><ele>412.0</ele><time>2026-04-05T14:28:25.001Z</time></trkpt><trkpt lat="45.651434104251834" lon="5.766790372839838"><ele>412.0</ele><time>2026-04-05T14:28:26.002Z</time></trkpt><trkpt lat="45.65162687819594" lon="5.766767541824379"><ele>412.0</ele><time>2026-04-05T14:28:27.002Z</time></trkpt><trkpt lat="45.65182211804968" lon="5.76675204345333"><ele>412.33333333333337</ele><time>2026-04-05T14:28:28.002Z</time></trkpt><trkpt lat="45.65201450827162" lon="5.766760817121993"><ele>412.66666666666663</ele><time>2026-04-05T14:28:29.002Z</time></trkpt><trkpt lat="45.65220266237721" lon="5.766785355655523"><ele>413.0</ele><time>2026-04-05T14:28:30.002Z</time></trkpt><trkpt lat="45.65237994445443" lon="5.766817879896342"><ele>413.0</ele><time>2026-04-05T14:28:31.002Z</time></trkpt><trkpt lat="45.652541046692825" lon="5.766850129260825"><ele>413.0</ele><time>2026-04-05T14:28:32.002Z</time></trkpt><trkpt lat="45.65269662926426" lon="5.766873910353735"><ele>413.0</ele><time>2026-04-05T14:28:33Z</time></trkpt><trkpt lat="45.65283998588035" lon="5.766888851509991"><ele>412.75</ele><time>2026-04-05T14:28:34Z</time></trkpt><trkpt lat="45.65297451237443" lon="5.766919472459438"><ele>412.5</ele><time>2026-04-05T14:28:35Z</time></trkpt><trkpt lat="45.6530537849015" lon="5.767017259216291"><ele>412.25</ele><time>2026-04-05T14:28:36Z</time></trkpt><trkpt lat="45.65311287428853" lon="5.767186479798115"><ele>412.0</ele><time>2026-04-05T14:28:37Z</time></trkpt><trkpt lat="45.65314431196994" lon="5.767337040133648"><ele>412.0</ele><time>2026-04-05T14:28:38Z</time></trkpt><trkpt lat="45.65318990741783" lon="5.767489794623486"><ele>412.0</ele><time>2026-04-05T14:28:39Z</time></trkpt><trkpt lat="45.653224415619825" lon="5.767654679929925"><ele>412.0</ele><time>2026-04-05T14:28:40Z</time></trkpt><trkpt lat="45.65326854241189" lon="5.767822416964542"><ele>412.0</ele><time>2026-04-05T14:28:41Z</time></trkpt><trkpt lat="45.65332006273287" lon="5.767998192725782"><ele>412.0</ele><time>2026-04-05T14:28:42Z</time></trkpt><trkpt lat="45.65338160233834" lon="5.768158290766734"><ele>412.0</ele><time>2026-04-05T14:28:43Z</time></trkpt><trkpt lat="45.653482364325214" lon="5.768287077166414"><ele>412.0</ele><time>2026-04-05T14:28:44Z</time></trkpt><trkpt lat="45.65359805772775" lon="5.768390320747247"><ele>412.0</ele><time>2026-04-05T14:28:45Z</time></trkpt><trkpt lat="45.653731840286284" lon="5.76846364944963"><ele>412.0</ele><time>2026-04-05T14:28:46Z</time></trkpt><trkpt lat="45.653879737343345" lon="5.768479955810648"><ele>412.0</ele><time>2026-04-05T14:28:47Z</time></trkpt><trkpt lat="45.65403003261439" lon="5.768463504257902"><ele>412.0</ele><time>2026-04-05T14:28:48Z</time></trkpt><trkpt lat="45.65416615827309" lon="5.768394682415165"><ele>412.0</ele><time>2026-04-05T14:28:49Z</time></trkpt><trkpt lat="45.654290188618525" lon="5.768269919543967"><ele>412.0</ele><time>2026-04-05T14:28:50Z</time></trkpt><trkpt lat="45.6544139411186" lon="5.768107643954461"><ele>412.0</ele><time>2026-04-05T14:28:51Z</time></trkpt><trkpt lat="45.65454693298509" lon="5.767980784300587"><ele>412.0</ele><time>2026-04-05T14:28:52Z</time></trkpt><trkpt lat="45.65466631473792" lon="5.767849326820497"><ele>412.75</ele><time>2026-04-05T14:28:53Z</time></trkpt><trkpt lat="45.65477964935685" lon="5.767727973513186"><ele>413.5</ele><time>2026-04-05T14:28:54Z</time></trkpt><trkpt lat="45.65489992039815" lon="5.767634220001945"><ele>414.25</ele><time>2026-04-05T14:28:55Z</time></trkpt><trkpt lat="45.655037743353624" lon="5.767569002185508"><ele>415.0</ele><time>2026-04-05T14:28:56Z</time></trkpt><trkpt lat="45.65518802192189" lon="5.767547963719306"><ele>416.33333333333337</ele><time>2026-04-05T14:28:57Z</time></trkpt><trkpt lat="45.655358218538105" lon="5.767542136208321"><ele>417.66666666666663</ele><time>2026-04-05T14:28:58Z</time></trkpt><trkpt lat="45.6555357761032" lon="5.767523662618819"><ele>419.0</ele><time>2026-04-05T14:28:59Z</time></trkpt><trkpt lat="45.655716739072965" lon="5.767531061804134"><ele>419.0</ele><time>2026-04-05T14:29:00Z</time></trkpt><trkpt lat="45.65590348531325" lon="5.767527057962171"><ele>419.0</ele><time>2026-04-05T14:29:01Z</time></trkpt><trkpt lat="45.65610082985695" lon="5.767519488196451"><ele>419.0</ele><time>2026-04-05T14:29:02Z</time></trkpt><trkpt lat="45.656315788705335" lon="5.7675197001879175"><ele>420.3333333333333</ele><time>2026-04-05T14:29:03Z</time></trkpt><trkpt lat="45.65652719368352" lon="5.7675218555912044"><ele>421.66666666666663</ele><time>2026-04-05T14:29:04Z</time></trkpt><trkpt lat="45.65672107353828" lon="5.76751776519818"><ele>423.0</ele><time>2026-04-05T14:29:05Z</time></trkpt><trkpt lat="45.65690285849286" lon="5.767509792065224"><ele>424.0</ele><time>2026-04-05T14:29:06Z</time></trkpt><trkpt lat="45.657080094628036" lon="5.7675024568710676"><ele>425.0</ele><time>2026-04-05T14:29:07Z</time></trkpt><trkpt lat="45.65725232076946" lon="5.7675465412893985"><ele>426.0</ele><time>2026-04-05T14:29:08Z</time></trkpt><trkpt lat="45.65742731204685" lon="5.767605371725859"><ele>426.0</ele><time>2026-04-05T14:29:09Z</time></trkpt><trkpt lat="45.657618279688144" lon="5.76766922305025"><ele>426.0</ele><time>2026-04-05T14:29:10Z</time></trkpt><trkpt lat="45.65781510894644" lon="5.767783859102304"><ele>426.0</ele><time>2026-04-05T14:29:11Z</time></trkpt><trkpt lat="45.65801387616155" lon="5.767903747124884"><ele>429.5</ele><time>2026-04-05T14:29:12Z</time></trkpt><trkpt lat="45.65822578129851" lon="5.768001717735072"><ele>433.0</ele><time>2026-04-05T14:29:13.001Z</time></trkpt><trkpt lat="45.65844424752913" lon="5.768109812329703"><ele>431.6666666666667</ele><time>2026-04-05T14:29:14.001Z</time></trkpt><trkpt lat="45.6586477217815" lon="5.768227839014"><ele>430.33333333333337</ele><time>2026-04-05T14:29:15.001Z</time></trkpt><trkpt lat="45.658860981371994" lon="5.768342039705484"><ele>429.0</ele><time>2026-04-05T14:29:16.001Z</time></trkpt><trkpt lat="45.659071763507605" lon="5.7684543669227795"><ele>432.33333333333337</ele><time>2026-04-05T14:29:17.001Z</time></trkpt><trkpt lat="45.659281658705645" lon="5.768562580074469"><ele>435.6666666666667</ele><time>2026-04-05T14:29:18.001Z</time></trkpt><trkpt lat="45.65948900135977" lon="5.768672834530023"><ele>439.0</ele><time>2026-04-05T14:29:19.001Z</time></trkpt><trkpt lat="45.65969218690212" lon="5.768776885067951"><ele>439.0</ele><time>2026-04-05T14:29:20.001Z</time></trkpt><trkpt lat="45.65988327894059" lon="5.768876325633133"><ele>439.0</ele><time>2026-04-05T14:29:21.001Z</time></trkpt><trkpt lat="45.66007079693175" lon="5.76897824126587"><ele>439.0</ele><time>2026-04-05T14:29:22.001Z</time></trkpt><trkpt lat="45.660249666195256" lon="5.769067248440068"><ele>437.33333333333337</ele><time>2026-04-05T14:29:23.001Z</time></trkpt><trkpt lat="45.660420384104214" lon="5.769164826758112"><ele>435.66666666666663</ele><time>2026-04-05T14:29:24.001Z</time></trkpt><trkpt lat="45.66057621560873" lon="5.769253025736984"><ele>434.0</ele><time>2026-04-05T14:29:25.001Z</time></trkpt><trkpt lat="45.660724849280655" lon="5.7693413865511"><ele>434.0</ele><time>2026-04-05T14:29:26.001Z</time></trkpt><trkpt lat="45.66086630049843" lon="5.769414671980157"><ele>434.0</ele><time>2026-04-05T14:29:27.001Z</time></trkpt><trkpt lat="45.66098388101406" lon="5.769526626714009"><ele>434.0</ele><time>2026-04-05T14:29:28.001Z</time></trkpt><trkpt lat="45.66108368502499" lon="5.769683472468894"><ele>434.0</ele><time>2026-04-05T14:29:29.001Z</time></trkpt><trkpt lat="45.66116217698542" lon="5.769873136206895"><ele>434.0</ele><time>2026-04-05T14:29:30.001Z</time></trkpt><trkpt lat="45.66123966528536" lon="5.770088672230847"><ele>434.0</ele><time>2026-04-05T14:29:31.001Z</time></trkpt><trkpt lat="45.661330828613664" lon="5.770306085059984"><ele>434.0</ele><time>2026-04-05T14:29:32.001Z</time></trkpt><trkpt lat="45.661420853971144" lon="5.770491054497877"><ele>437.0</ele><time>2026-04-05T14:29:33.001Z</time></trkpt><trkpt lat="45.661513281539136" lon="5.77064821312618"><ele>440.0</ele><time>2026-04-05T14:29:34.001Z</time></trkpt><trkpt lat="45.66162623276863" lon="5.770777692180905"><ele>443.0</ele><time>2026-04-05T14:29:35.001Z</time></trkpt><trkpt lat="45.66175224693685" lon="5.7708467563865735"><ele>446.0</ele><time>2026-04-05T14:29:36.001Z</time></trkpt><trkpt lat="45.661878575844405" lon="5.770859896578153"><ele>445.75</ele><time>2026-04-05T14:29:37.001Z</time></trkpt><trkpt lat="45.66201426734774" lon="5.77080458670085"><ele>445.5</ele><time>2026-04-05T14:29:38.001Z</time></trkpt><trkpt lat="45.66212065610311" lon="5.770691165643329"><ele>445.25</ele><time>2026-04-05T14:29:39.001Z</time></trkpt><trkpt lat="45.6622508476971" lon="5.770632458945736"><ele>445.0</ele><time>2026-04-05T14:29:40.001Z</time></trkpt><trkpt lat="45.66239165505129" lon="5.770587235477101"><ele>445.0</ele><time>2026-04-05T14:29:41.001Z</time></trkpt><trkpt lat="45.66253191082606" lon="5.770561498488416"><ele>445.0</ele><time>2026-04-05T14:29:42.001Z</time></trkpt><trkpt lat="45.6626887511951" lon="5.770562087646999"><ele>445.0</ele><time>2026-04-05T14:29:43.001Z</time></trkpt><trkpt lat="45.662844656377494" lon="5.770597454270182"><ele>444.33333333333337</ele><time>2026-04-05T14:29:44.001Z</time></trkpt><trkpt lat="45.66299796345566" lon="5.770671312604922"><ele>443.66666666666663</ele><time>2026-04-05T14:29:45.001Z</time></trkpt><trkpt lat="45.6631664094382" lon="5.770772645555554"><ele>443.0</ele><time>2026-04-05T14:29:46.001Z</time></trkpt><trkpt lat="45.66334448538908" lon="5.770888240996124"><ele>443.0</ele><time>2026-04-05T14:29:47.001Z</time></trkpt><trkpt lat="45.66353219011729" lon="5.771010206103906"><ele>443.0</ele><time>2026-04-05T14:29:48.001Z</time></trkpt><trkpt lat="45.66370460894067" lon="5.771123627012604"><ele>443.0</ele><time>2026-04-05T14:29:49.001Z</time></trkpt><trkpt lat="45.66388062733522" lon="5.771239415969321"><ele>445.0</ele><time>2026-04-05T14:29:50.001Z</time></trkpt><trkpt lat="45.664047394708966" lon="5.771349119305358"><ele>447.0</ele><time>2026-04-05T14:29:51.001Z</time></trkpt><trkpt lat="45.66422238397291" lon="5.7714659638056025"><ele>449.0</ele><time>2026-04-05T14:29:52.001Z</time></trkpt><trkpt lat="45.66440655627888" lon="5.771565070287078"><ele>445.3333333333333</ele><time>2026-04-05T14:29:53.001Z</time></trkpt><trkpt lat="45.66457577525725" lon="5.771685843218947"><ele>441.66666666666663</ele><time>2026-04-05T14:29:54.001Z</time></trkpt><trkpt lat="45.66476561490415" lon="5.771751252339856"><ele>438.0</ele><time>2026-04-05T14:29:55.001Z</time></trkpt><trkpt lat="45.6649681554926" lon="5.771755164146265"><ele>438.0</ele><time>2026-04-05T14:29:56.001Z</time></trkpt><trkpt lat="45.66515711303228" lon="5.771725298042686"><ele>438.0</ele><time>2026-04-05T14:29:57.001Z</time></trkpt><trkpt lat="45.66535371231253" lon="5.771676374772897"><ele>438.0</ele><time>2026-04-05T14:29:58.001Z</time></trkpt><trkpt lat="45.66553812442263" lon="5.771600231825036"><ele>437.33333333333337</ele><time>2026-04-05T14:29:59.001Z</time></trkpt><trkpt lat="45.66571193497573" lon="5.771579862996172"><ele>436.6666666666667</ele><time>2026-04-05T14:30:00.001Z</time></trkpt><trkpt lat="45.66588004309979" lon="5.771580138016248"><ele>436.0</ele><time>2026-04-05T14:30:01.001Z</time></trkpt><trkpt lat="45.66602992344726" lon="5.771697197024636"><ele>434.6666666666667</ele><time>2026-04-05T14:30:02.001Z</time></trkpt><trkpt lat="45.6661826854703" lon="5.771835368467452"><ele>433.33333333333337</ele><time>2026-04-05T14:30:03.001Z</time></trkpt><trkpt lat="45.66634654715143" lon="5.771995290961497"><ele>432.0</ele><time>2026-04-05T14:30:04.001Z</time></trkpt><trkpt lat="45.66651699809413" lon="5.7721615343853605"><ele>433.66666666666663</ele><time>2026-04-05T14:30:05.001Z</time></trkpt><trkpt lat="45.6666894207201" lon="5.772327826067813"><ele>435.3333333333333</ele><time>2026-04-05T14:30:06.001Z</time></trkpt><trkpt lat="45.66685996277914" lon="5.772492982187071"><ele>437.0</ele><time>2026-04-05T14:30:07.001Z</time></trkpt><trkpt lat="45.667031551709634" lon="5.772660566486474"><ele>442.66666666666663</ele><time>2026-04-05T14:30:08.001Z</time></trkpt><trkpt lat="45.66720260318987" lon="5.772829140441523"><ele>448.33333333333337</ele><time>2026-04-05T14:30:09.002Z</time></trkpt><trkpt lat="45.667380825987756" lon="5.773001251901173"><ele>454.0</ele><time>2026-04-05T14:30:10.002Z</time></trkpt><trkpt lat="45.66756655328395" lon="5.773154120285234"><ele>454.0</ele><time>2026-04-05T14:30:11.002Z</time></trkpt><trkpt lat="45.667725012124464" lon="5.773338965693511"><ele>454.0</ele><time>2026-04-05T14:30:12.002Z</time></trkpt><trkpt lat="45.6678881353059" lon="5.773505309588481"><ele>454.0</ele><time>2026-04-05T14:30:13.002Z</time></trkpt><trkpt lat="45.66804329081554" lon="5.7736827735673755"><ele>451.0</ele><time>2026-04-05T14:30:14.002Z</time></trkpt><trkpt lat="45.668190725651506" lon="5.77387846943909"><ele>448.0</ele><time>2026-04-05T14:30:15.002Z</time></trkpt><trkpt lat="45.66832093763454" lon="5.774092079980093"><ele>445.0</ele><time>2026-04-05T14:30:16.002Z</time></trkpt><trkpt lat="45.66843448863585" lon="5.774323444108931"><ele>448.6666666666667</ele><time>2026-04-05T14:30:17.002Z</time></trkpt><trkpt lat="45.66853677819887" lon="5.7745619785617475"><ele>452.33333333333337</ele><time>2026-04-05T14:30:18.002Z</time></trkpt><trkpt lat="45.66862448436529" lon="5.774823259867349"><ele>456.0</ele><time>2026-04-05T14:30:19.002Z</time></trkpt><trkpt lat="45.66870222855791" lon="5.775112339642489"><ele>450.33333333333337</ele><time>2026-04-05T14:30:20.002Z</time></trkpt><trkpt lat="45.66878281467791" lon="5.775353778271007"><ele>444.6666666666667</ele><time>2026-04-05T14:30:21.002Z</time></trkpt><trkpt lat="45.66884066622331" lon="5.775572888881735"><ele>439.0</ele><time>2026-04-05T14:30:22.002Z</time></trkpt><trkpt lat="45.668986449568415" lon="5.7757426747987815"><ele>439.0</ele><time>2026-04-05T14:30:23.002Z</time></trkpt><trkpt lat="45.66915644602804" lon="5.7758543829949875"><ele>439.0</ele><time>2026-04-05T14:30:24.002Z</time></trkpt><trkpt lat="45.66933987286639" lon="5.775885174231822"><ele>439.0</ele><time>2026-04-05T14:30:25.002Z</time></trkpt><trkpt lat="45.66951725963106" lon="5.775814061998305"><ele>438.6666666666667</ele><time>2026-04-05T14:30:26.002Z</time></trkpt><trkpt lat="45.66969981621449" lon="5.775766624248853"><ele>438.33333333333337</ele><time>2026-04-05T14:30:27.002Z</time></trkpt><trkpt lat="45.669848113515116" lon="5.7757333587372095"><ele>438.0</ele><time>2026-04-05T14:30:28.002Z</time></trkpt><trkpt lat="45.67000865753035" lon="5.775674772896655"><ele>438.0</ele><time>2026-04-05T14:30:29.002Z</time></trkpt><trkpt lat="45.67024886055642" lon="5.775627953867675"><ele>438.0</ele><time>2026-04-05T14:30:30.002Z</time></trkpt><trkpt lat="45.670439317386126" lon="5.775594022610824"><ele>438.0</ele><time>2026-04-05T14:30:31.002Z</time></trkpt><trkpt lat="45.6706305416473" lon="5.775556170072342"><ele>439.33333333333337</ele><time>2026-04-05T14:30:32.002Z</time></trkpt><trkpt lat="45.67080751341228" lon="5.775521329294018"><ele>440.6666666666667</ele><time>2026-04-05T14:30:33.002Z</time></trkpt><trkpt lat="45.67096934454967" lon="5.775487112675732"><ele>442.0</ele><time>2026-04-05T14:30:34.002Z</time></trkpt><trkpt lat="45.67113199091934" lon="5.775447175211715"><ele>443.6666666666667</ele><time>2026-04-05T14:30:35.002Z</time></trkpt><trkpt lat="45.67129705840111" lon="5.775457450013832"><ele>445.33333333333337</ele><time>2026-04-05T14:30:36.002Z</time></trkpt><trkpt lat="45.67146413101097" lon="5.775485014380461"><ele>447.0</ele><time>2026-04-05T14:30:37.002Z</time></trkpt><trkpt lat="45.671629381033114" lon="5.775564429512003"><ele>447.0</ele><time>2026-04-05T14:30:38.002Z</time></trkpt><trkpt lat="45.671786057066264" lon="5.775712823054213"><ele>447.0</ele><time>2026-04-05T14:30:39Z</time></trkpt><trkpt lat="45.67193626795825" lon="5.77589319992764"><ele>447.0</ele><time>2026-04-05T14:30:40Z</time></trkpt><trkpt lat="45.67207462347381" lon="5.776103953960604"><ele>445.66666666666663</ele><time>2026-04-05T14:30:41Z</time></trkpt><trkpt lat="45.67221915980795" lon="5.7763121377341"><ele>444.3333333333333</ele><time>2026-04-05T14:30:42Z</time></trkpt><trkpt lat="45.67234510925329" lon="5.776551783237562"><ele>443.0</ele><time>2026-04-05T14:30:43Z</time></trkpt><trkpt lat="45.67247428144145" lon="5.776801750166335"><ele>442.0</ele><time>2026-04-05T14:30:44Z</time></trkpt><trkpt lat="45.67260961511122" lon="5.777042974960218"><ele>441.0</ele><time>2026-04-05T14:30:45Z</time></trkpt><trkpt lat="45.672748098241094" lon="5.777295081032145"><ele>440.0</ele><time>2026-04-05T14:30:46Z</time></trkpt><trkpt lat="45.672886337946046" lon="5.777549770329861"><ele>443.0</ele><time>2026-04-05T14:30:47Z</time></trkpt><trkpt lat="45.673035878469" lon="5.777805440896629"><ele>446.0</ele><time>2026-04-05T14:30:48Z</time></trkpt><trkpt lat="45.67316765135481" lon="5.778082024624816"><ele>446.0</ele><time>2026-04-05T14:30:49Z</time></trkpt><trkpt lat="45.673312974690184" lon="5.778347324421103"><ele>446.0</ele><time>2026-04-05T14:30:50Z</time></trkpt><trkpt lat="45.673456620424744" lon="5.778609433953916"><ele>444.0</ele><time>2026-04-05T14:30:51Z</time></trkpt><trkpt lat="45.67360156240598" lon="5.778878085448312"><ele>442.0</ele><time>2026-04-05T14:30:52Z</time></trkpt><trkpt lat="45.673756933352834" lon="5.779159647885691"><ele>442.5</ele><time>2026-04-05T14:30:53Z</time></trkpt><trkpt lat="45.673896370653466" lon="5.779412335302922"><ele>443.0</ele><time>2026-04-05T14:30:54Z</time></trkpt><trkpt lat="45.674056237340544" lon="5.779664633458473"><ele>443.0</ele><time>2026-04-05T14:30:55Z</time></trkpt><trkpt lat="45.67420492587046" lon="5.779937339073117"><ele>443.0</ele><time>2026-04-05T14:30:56Z</time></trkpt><trkpt lat="45.67435402930746" lon="5.7802071110185524"><ele>441.0</ele><time>2026-04-05T14:30:57Z</time></trkpt><trkpt lat="45.67449809344394" lon="5.780479621634209"><ele>439.0</ele><time>2026-04-05T14:30:58Z</time></trkpt><trkpt lat="45.67464367370361" lon="5.780744825308289"><ele>439.0</ele><time>2026-04-05T14:30:59Z</time></trkpt><trkpt lat="45.674783283886356" lon="5.781010816239243"><ele>439.0</ele><time>2026-04-05T14:31:00Z</time></trkpt><trkpt lat="45.674925113667406" lon="5.781267069736013"><ele>439.0</ele><time>2026-04-05T14:31:01Z</time></trkpt><trkpt lat="45.67505476909697" lon="5.781516613309726"><ele>439.0</ele><time>2026-04-05T14:31:02Z</time></trkpt><trkpt lat="45.6751785390991" lon="5.7817484300954565"><ele>439.0</ele><time>2026-04-05T14:31:03Z</time></trkpt><trkpt lat="45.67529496989242" lon="5.781964434655833"><ele>438.33333333333337</ele><time>2026-04-05T14:31:04Z</time></trkpt><trkpt lat="45.67540779246402" lon="5.782171346494838"><ele>437.66666666666663</ele><time>2026-04-05T14:31:05Z</time></trkpt><trkpt lat="45.675516268652395" lon="5.782369836415513"><ele>437.0</ele><time>2026-04-05T14:31:06Z</time></trkpt><trkpt lat="45.67562204127975" lon="5.7825638422026415"><ele>436.5</ele><time>2026-04-05T14:31:07Z</time></trkpt><trkpt lat="45.67572512592592" lon="5.782745028342247"><ele>436.0</ele><time>2026-04-05T14:31:08Z</time></trkpt><trkpt lat="45.675807508079934" lon="5.782895341889066"><ele>435.5</ele><time>2026-04-05T14:31:09.001Z</time></trkpt><trkpt lat="45.6758704420119" lon="5.783005865667823"><ele>435.0</ele><time>2026-04-05T14:31:10.001Z</time></trkpt><trkpt lat="45.67594383438222" lon="5.783138339111123"><ele>435.0</ele><time>2026-04-05T14:31:12.001Z</time></trkpt><trkpt lat="45.67598644632304" lon="5.783220176894677"><ele>435.0</ele><time>2026-04-05T14:31:14.001Z</time></trkpt><trkpt lat="45.676050574597355" lon="5.783339125815377"><ele>435.0</ele><time>2026-04-05T14:31:16.001Z</time></trkpt><trkpt lat="45.67612368128003" lon="5.783496350087461"><ele>435.0</ele><time>2026-04-05T14:31:18.001Z</time></trkpt><trkpt lat="45.676176932375846" lon="5.783580664680429"><ele>435.0</ele><time>2026-04-05T14:31:19.001Z</time></trkpt><trkpt lat="45.676235259088834" lon="5.783684724363297"><ele>434.6</ele><time>2026-04-05T14:31:20.001Z</time></trkpt><trkpt lat="45.6763051066935" lon="5.78381312567463"><ele>434.2</ele><time>2026-04-05T14:31:21.001Z</time></trkpt><trkpt lat="45.67638025283447" lon="5.783953145954238"><ele>433.79999999999995</ele><time>2026-04-05T14:31:22.001Z</time></trkpt><trkpt lat="45.676449972759926" lon="5.784073245871725"><ele>433.4</ele><time>2026-04-05T14:31:23.001Z</time></trkpt><trkpt lat="45.67651220875997" lon="5.784184915875939"><ele>433.0</ele><time>2026-04-05T14:31:24.001Z</time></trkpt><trkpt lat="45.67657039571697" lon="5.784291411200788"><ele>432.33333333333337</ele><time>2026-04-05T14:31:25.001Z</time></trkpt><trkpt lat="45.67662629947584" lon="5.784395792242707"><ele>431.6666666666667</ele><time>2026-04-05T14:31:26.001Z</time></trkpt><trkpt lat="45.67667700902702" lon="5.784483365355556"><ele>431.0</ele><time>2026-04-05T14:31:27.001Z</time></trkpt><trkpt lat="45.67675448384121" lon="5.784620419450567"><ele>430.33333333333337</ele><time>2026-04-05T14:31:29.001Z</time></trkpt><trkpt lat="45.6768000262263" lon="5.784697993041805"><ele>429.6666666666667</ele><time>2026-04-05T14:31:30.001Z</time></trkpt><trkpt lat="45.67684654680655" lon="5.784780927079134"><ele>429.0</ele><time>2026-04-05T14:31:31.001Z</time></trkpt><trkpt lat="45.676888019634475" lon="5.784862115893732"><ele>429.0</ele><time>2026-04-05T14:31:32.001Z</time></trkpt><trkpt lat="45.67691298210596" lon="5.784950751969369"><ele>429.0</ele><time>2026-04-05T14:31:33.001Z</time></trkpt><trkpt lat="45.6769355300617" lon="5.78504991587374"><ele>429.0</ele><time>2026-04-05T14:31:34.001Z</time></trkpt><trkpt lat="45.67697846160407" lon="5.785135422549343"><ele>429.0</ele><time>2026-04-05T14:31:35.001Z</time></trkpt><trkpt lat="45.67705864345065" lon="5.785195316917469"><ele>429.0</ele><time>2026-04-05T14:31:36.001Z</time></trkpt><trkpt lat="45.677134118783904" lon="5.785273184192822"><ele>429.0</ele><time>2026-04-05T14:31:37.001Z</time></trkpt><trkpt lat="45.677194136891096" lon="5.7853999953172695"><ele>428.5</ele><time>2026-04-05T14:31:38.001Z</time></trkpt><trkpt lat="45.67726588793202" lon="5.785538980770599"><ele>428.0</ele><time>2026-04-05T14:31:39.001Z</time></trkpt><trkpt lat="45.67734147210779" lon="5.785679791391108"><ele>427.5</ele><time>2026-04-05T14:31:40.001Z</time></trkpt><trkpt lat="45.67741638354682" lon="5.785808843000319"><ele>427.0</ele><time>2026-04-05T14:31:41.001Z</time></trkpt><trkpt lat="45.67749570708068" lon="5.7859435010741125"><ele>427.25</ele><time>2026-04-05T14:31:42.001Z</time></trkpt><trkpt lat="45.67757222687143" lon="5.786082338535025"><ele>427.5</ele><time>2026-04-05T14:31:43.001Z</time></trkpt><trkpt lat="45.67764773349455" lon="5.7862253724287935"><ele>427.75</ele><time>2026-04-05T14:31:44.001Z</time></trkpt><trkpt lat="45.67770693363517" lon="5.7863695612011075"><ele>428.0</ele><time>2026-04-05T14:31:45.001Z</time></trkpt><trkpt lat="45.677799860071914" lon="5.7865214747316465"><ele>427.3333333333333</ele><time>2026-04-05T14:31:46.001Z</time></trkpt><trkpt lat="45.67789808712362" lon="5.786678808098582"><ele>426.66666666666663</ele><time>2026-04-05T14:31:47.001Z</time></trkpt><trkpt lat="45.67802388890069" lon="5.78686169610971"><ele>426.0</ele><time>2026-04-05T14:31:48.001Z</time></trkpt><trkpt lat="45.67817427743321" lon="5.787032332793557"><ele>426.0</ele><time>2026-04-05T14:31:49.001Z</time></trkpt><trkpt lat="45.678318795481644" lon="5.787191122528174"><ele>426.0</ele><time>2026-04-05T14:31:50.001Z</time></trkpt><trkpt lat="45.67846229124804" lon="5.787329318254348"><ele>426.0</ele><time>2026-04-05T14:31:51.001Z</time></trkpt><trkpt lat="45.67860812096646" lon="5.787456479208431"><ele>422.0</ele><time>2026-04-05T14:31:52.001Z</time></trkpt><trkpt lat="45.67874991812205" lon="5.787577644464272"><ele>418.0</ele><time>2026-04-05T14:31:53.001Z</time></trkpt><trkpt lat="45.67889050423877" lon="5.787736529428131"><ele>414.0</ele><time>2026-04-05T14:31:54.001Z</time></trkpt><trkpt lat="45.679030427157024" lon="5.787917248332169"><ele>414.0</ele><time>2026-04-05T14:31:55.001Z</time></trkpt><trkpt lat="45.67916568952124" lon="5.788120416738501"><ele>414.0</ele><time>2026-04-05T14:31:56.001Z</time></trkpt><trkpt lat="45.67930509463056" lon="5.78834308926429"><ele>414.0</ele><time>2026-04-05T14:31:57.001Z</time></trkpt><trkpt lat="45.67946272937471" lon="5.788593138260045"><ele>411.5</ele><time>2026-04-05T14:31:58.001Z</time></trkpt><trkpt lat="45.67962510414327" lon="5.788851490458364"><ele>409.0</ele><time>2026-04-05T14:31:59.001Z</time></trkpt><trkpt lat="45.67978622271594" lon="5.789100956189828"><ele>408.5</ele><time>2026-04-05T14:32:00.001Z</time></trkpt><trkpt lat="45.67994464141823" lon="5.7893525025589145"><ele>408.0</ele><time>2026-04-05T14:32:01.001Z</time></trkpt><trkpt lat="45.68010346947571" lon="5.789606385485298"><ele>405.5</ele><time>2026-04-05T14:32:02.001Z</time></trkpt><trkpt lat="45.68026737228706" lon="5.78985610984918"><ele>403.0</ele><time>2026-04-05T14:32:03.001Z</time></trkpt><trkpt lat="45.680436181545396" lon="5.790110777701353"><ele>402.0</ele><time>2026-04-05T14:32:04.001Z</time></trkpt><trkpt lat="45.68060174801927" lon="5.790362573199661"><ele>401.0</ele><time>2026-04-05T14:32:05.001Z</time></trkpt><trkpt lat="45.680770225222155" lon="5.79061877721151"><ele>401.0</ele><time>2026-04-05T14:32:06.001Z</time></trkpt><trkpt lat="45.680935688472644" lon="5.790897227933171"><ele>401.0</ele><time>2026-04-05T14:32:07.001Z</time></trkpt><trkpt lat="45.68110542686227" lon="5.791157024969551"><ele>398.0</ele><time>2026-04-05T14:32:08.001Z</time></trkpt><trkpt lat="45.68127093755505" lon="5.791423268654861"><ele>395.0</ele><time>2026-04-05T14:32:09.001Z</time></trkpt><trkpt lat="45.68143806845976" lon="5.791685837731782"><ele>395.0</ele><time>2026-04-05T14:32:10.001Z</time></trkpt><trkpt lat="45.681604295057795" lon="5.791946488222703"><ele>395.0</ele><time>2026-04-05T14:32:11.001Z</time></trkpt><trkpt lat="45.681768374186284" lon="5.792208434067723"><ele>394.0</ele><time>2026-04-05T14:32:12.002Z</time></trkpt><trkpt lat="45.68193947156787" lon="5.792472872119243"><ele>393.0</ele><time>2026-04-05T14:32:13.002Z</time></trkpt><trkpt lat="45.68210952866751" lon="5.792738962975738"><ele>393.0</ele><time>2026-04-05T14:32:14.002Z</time></trkpt><trkpt lat="45.682276216677174" lon="5.792999481461957"><ele>393.0</ele><time>2026-04-05T14:32:15.002Z</time></trkpt><trkpt lat="45.682445046702156" lon="5.79325671355314"><ele>391.5</ele><time>2026-04-05T14:32:16.002Z</time></trkpt><trkpt lat="45.68261861034964" lon="5.7935113314982845"><ele>390.0</ele><time>2026-04-05T14:32:17.002Z</time></trkpt><trkpt lat="45.682790048443444" lon="5.793768287122709"><ele>390.0</ele><time>2026-04-05T14:32:18.002Z</time></trkpt><trkpt lat="45.682945050002964" lon="5.794022319946308"><ele>390.0</ele><time>2026-04-05T14:32:19.002Z</time></trkpt><trkpt lat="45.68315170352283" lon="5.794274215538542"><ele>391.5</ele><time>2026-04-05T14:32:20.002Z</time></trkpt><trkpt lat="45.68333472499055" lon="5.794534941904041"><ele>393.0</ele><time>2026-04-05T14:32:21.002Z</time></trkpt><trkpt lat="45.68351535816544" lon="5.794791278171805"><ele>388.5</ele><time>2026-04-05T14:32:22.002Z</time></trkpt><trkpt lat="45.68369617175017" lon="5.795053823850205"><ele>384.0</ele><time>2026-04-05T14:32:23.002Z</time></trkpt><trkpt lat="45.68387170369843" lon="5.795282526574197"><ele>384.0</ele><time>2026-04-05T14:32:24.002Z</time></trkpt><trkpt lat="45.68403652954495" lon="5.795514619583575"><ele>384.0</ele><time>2026-04-05T14:32:25.002Z</time></trkpt><trkpt lat="45.68420156198275" lon="5.795742314164195"><ele>384.0</ele><time>2026-04-05T14:32:26.002Z</time></trkpt><trkpt lat="45.68436037748674" lon="5.795964815810035"><ele>384.0</ele><time>2026-04-05T14:32:27.002Z</time></trkpt><trkpt lat="45.684521905401056" lon="5.796195643251188"><ele>383.5</ele><time>2026-04-05T14:32:28.002Z</time></trkpt><trkpt lat="45.68468723677898" lon="5.79642482527004"><ele>383.0</ele><time>2026-04-05T14:32:29.002Z</time></trkpt><trkpt lat="45.68486268900619" lon="5.796654046254856"><ele>385.0</ele><time>2026-04-05T14:32:30.002Z</time></trkpt><trkpt lat="45.6850362299893" lon="5.7968915880214755"><ele>387.0</ele><time>2026-04-05T14:32:31.002Z</time></trkpt><trkpt lat="45.685211591654095" lon="5.797137813784291"><ele>383.5</ele><time>2026-04-05T14:32:32.002Z</time></trkpt><trkpt lat="45.68538664184707" lon="5.797393206474048"><ele>380.0</ele><time>2026-04-05T14:32:33.002Z</time></trkpt><trkpt lat="45.68556667844676" lon="5.797651533089057"><ele>380.0</ele><time>2026-04-05T14:32:34.002Z</time></trkpt><trkpt lat="45.68575115697634" lon="5.797909050290491"><ele>380.0</ele><time>2026-04-05T14:32:35.002Z</time></trkpt><trkpt lat="45.68593633365992" lon="5.798161574690623"><ele>377.5</ele><time>2026-04-05T14:32:36.002Z</time></trkpt><trkpt lat="45.68611694442429" lon="5.798412747102201"><ele>375.0</ele><time>2026-04-05T14:32:37.002Z</time></trkpt><trkpt lat="45.6862952206176" lon="5.7986638851050145"><ele>375.0</ele><time>2026-04-05T14:32:38.002Z</time></trkpt><trkpt lat="45.68646245909061" lon="5.798916964103351"><ele>375.0</ele><time>2026-04-05T14:32:39.002Z</time></trkpt><trkpt lat="45.68662225389807" lon="5.799185093929073"><ele>376.5</ele><time>2026-04-05T14:32:40.002Z</time></trkpt><trkpt lat="45.686767703382976" lon="5.799464418116147"><ele>378.0</ele><time>2026-04-05T14:32:41.002Z</time></trkpt><trkpt lat="45.68690395619529" lon="5.799756540370921"><ele>375.5</ele><time>2026-04-05T14:32:42.002Z</time></trkpt><trkpt lat="45.68703702561732" lon="5.800052173107182"><ele>373.0</ele><time>2026-04-05T14:32:43.002Z</time></trkpt><trkpt lat="45.68717417368088" lon="5.800351406825364"><ele>373.0</ele><time>2026-04-05T14:32:44.002Z</time></trkpt><trkpt lat="45.68731780042462" lon="5.8006510947745875"><ele>373.0</ele><time>2026-04-05T14:32:45Z</time></trkpt><trkpt lat="45.68746253564102" lon="5.800946378790224"><ele>373.5</ele><time>2026-04-05T14:32:46Z</time></trkpt><trkpt lat="45.68760075055781" lon="5.801250999721871"><ele>374.0</ele><time>2026-04-05T14:32:47Z</time></trkpt><trkpt lat="45.68774230676004" lon="5.801557239561593"><ele>371.5</ele><time>2026-04-05T14:32:48Z</time></trkpt><trkpt lat="45.68786862329484" lon="5.801839297628628"><ele>369.0</ele><time>2026-04-05T14:32:49Z</time></trkpt><trkpt lat="45.6879986683966" lon="5.802096104459535"><ele>369.0</ele><time>2026-04-05T14:32:50Z</time></trkpt><trkpt lat="45.6881179184558" lon="5.802345082724861"><ele>369.0</ele><time>2026-04-05T14:32:51Z</time></trkpt><trkpt lat="45.688232930119476" lon="5.802584298173701"><ele>369.0</ele><time>2026-04-05T14:32:52Z</time></trkpt><trkpt lat="45.68833769811195" lon="5.802815996542759"><ele>369.3333333333333</ele><time>2026-04-05T14:32:53Z</time></trkpt><trkpt lat="45.68844565550385" lon="5.803037981209183"><ele>369.66666666666663</ele><time>2026-04-05T14:32:54Z</time></trkpt><trkpt lat="45.68855060982575" lon="5.8032518785129845"><ele>370.0</ele><time>2026-04-05T14:32:55Z</time></trkpt><trkpt lat="45.688617386805056" lon="5.803463801673847"><ele>368.3333333333333</ele><time>2026-04-05T14:32:56Z</time></trkpt><trkpt lat="45.68865243984828" lon="5.803701790212813"><ele>366.6666666666667</ele><time>2026-04-05T14:32:57Z</time></trkpt><trkpt lat="45.6886473409162" lon="5.803962104317961"><ele>365.0</ele><time>2026-04-05T14:32:58Z</time></trkpt><trkpt lat="45.68859280082093" lon="5.804230377780205"><ele>363.0</ele><time>2026-04-05T14:32:59Z</time></trkpt><trkpt lat="45.68850821543986" lon="5.804485298091607"><ele>361.0</ele><time>2026-04-05T14:33:00Z</time></trkpt><trkpt lat="45.68841615506316" lon="5.804729764998987"><ele>359.0</ele><time>2026-04-05T14:33:01Z</time></trkpt><trkpt lat="45.68833518299137" lon="5.804990068243244"><ele>357.0</ele><time>2026-04-05T14:33:02Z</time></trkpt><trkpt lat="45.68825523472401" lon="5.805260688275374"><ele>355.0</ele><time>2026-04-05T14:33:03Z</time></trkpt><trkpt lat="45.68817807405147" lon="5.805525821217402"><ele>353.0</ele><time>2026-04-05T14:33:04Z</time></trkpt><trkpt lat="45.68810833561953" lon="5.805771711066453"><ele>351.0</ele><time>2026-04-05T14:33:05Z</time></trkpt><trkpt lat="45.68803576137422" lon="5.80600833400293"><ele>349.0</ele><time>2026-04-05T14:33:06Z</time></trkpt><trkpt lat="45.687969348024005" lon="5.80623680515958"><ele>347.0</ele><time>2026-04-05T14:33:07Z</time></trkpt><trkpt lat="45.68790116207443" lon="5.806452711965722"><ele>347.0</ele><time>2026-04-05T14:33:08Z</time></trkpt><trkpt lat="45.687812410920344" lon="5.806643020657422"><ele>347.0</ele><time>2026-04-05T14:33:09Z</time></trkpt><trkpt lat="45.68766954700462" lon="5.806798569800263"><ele>347.0</ele><time>2026-04-05T14:33:10Z</time></trkpt><trkpt lat="45.68750523266639" lon="5.806934057056921"><ele>345.6666666666667</ele><time>2026-04-05T14:33:11Z</time></trkpt><trkpt lat="45.687349878650444" lon="5.807097630300234"><ele>344.3333333333333</ele><time>2026-04-05T14:33:12Z</time></trkpt><trkpt lat="45.68720824773492" lon="5.807265243480621"><ele>343.0</ele><time>2026-04-05T14:33:13Z</time></trkpt><trkpt lat="45.687073603380526" lon="5.807419010599696"><ele>343.0</ele><time>2026-04-05T14:33:14Z</time></trkpt><trkpt lat="45.68694782999615" lon="5.8075671815886505"><ele>343.0</ele><time>2026-04-05T14:33:15Z</time></trkpt><trkpt lat="45.68683390544659" lon="5.807727783139898"><ele>343.0</ele><time>2026-04-05T14:33:16Z</time></trkpt><trkpt lat="45.68673446126377" lon="5.807921799457808"><ele>343.0</ele><time>2026-04-05T14:33:17Z</time></trkpt><trkpt lat="45.6866589201307" lon="5.808152404840156"><ele>343.0</ele><time>2026-04-05T14:33:18Z</time></trkpt><trkpt lat="45.686605660799316" lon="5.808401864193097"><ele>343.0</ele><time>2026-04-05T14:33:19Z</time></trkpt><trkpt lat="45.68657780655419" lon="5.808670371422865"><ele>343.0</ele><time>2026-04-05T14:33:20Z</time></trkpt><trkpt lat="45.68658411718005" lon="5.808950659909726"><ele>343.0</ele><time>2026-04-05T14:33:21Z</time></trkpt><trkpt lat="45.686612494322844" lon="5.809221515741996"><ele>343.0</ele><time>2026-04-05T14:33:22Z</time></trkpt><trkpt lat="45.686660751496596" lon="5.809482450233888"><ele>343.3333333333333</ele><time>2026-04-05T14:33:23Z</time></trkpt><trkpt lat="45.68673649454784" lon="5.809737988320416"><ele>343.6666666666667</ele><time>2026-04-05T14:33:24Z</time></trkpt><trkpt lat="45.68683577475211" lon="5.809976901242774"><ele>344.0</ele><time>2026-04-05T14:33:25Z</time></trkpt><trkpt lat="45.68695943273486" lon="5.810202405827027"><ele>341.0</ele><time>2026-04-05T14:33:26Z</time></trkpt><trkpt lat="45.687096421789875" lon="5.810426273566335"><ele>338.0</ele><time>2026-04-05T14:33:27Z</time></trkpt><trkpt lat="45.68721973706908" lon="5.810661432762699"><ele>335.0</ele><time>2026-04-05T14:33:28Z</time></trkpt><trkpt lat="45.68734275553971" lon="5.810889370654772"><ele>333.6666666666667</ele><time>2026-04-05T14:33:29.001Z</time></trkpt><trkpt lat="45.687467228745184" lon="5.81113024410659"><ele>332.3333333333333</ele><time>2026-04-05T14:33:30.001Z</time></trkpt><trkpt lat="45.687607047908436" lon="5.811364182755826"><ele>331.0</ele><time>2026-04-05T14:33:31.001Z</time></trkpt><trkpt lat="45.687751397378875" lon="5.811610227241359"><ele>329.0</ele><time>2026-04-05T14:33:32.001Z</time></trkpt><trkpt lat="45.68788900248811" lon="5.811841461199471"><ele>327.0</ele><time>2026-04-05T14:33:33.001Z</time></trkpt><trkpt lat="45.68797621384169" lon="5.812090638994864"><ele>325.0</ele><time>2026-04-05T14:33:34.001Z</time></trkpt><trkpt lat="45.68809241968715" lon="5.8123030938264275"><ele>325.0</ele><time>2026-04-05T14:33:35.001Z</time></trkpt><trkpt lat="45.6882032620347" lon="5.812504204488326"><ele>325.0</ele><time>2026-04-05T14:33:36.001Z</time></trkpt><trkpt lat="45.688294569251596" lon="5.812677009194615"><ele>325.0</ele><time>2026-04-05T14:33:37.001Z</time></trkpt><trkpt lat="45.68836520154374" lon="5.812806458636863"><ele>325.0</ele><time>2026-04-05T14:33:38.001Z</time></trkpt><trkpt lat="45.68841676493701" lon="5.812898663586838"><ele>324.8333333333333</ele><time>2026-04-05T14:33:39.001Z</time></trkpt><trkpt lat="45.68845995958945" lon="5.812975182299006"><ele>324.66666666666663</ele><time>2026-04-05T14:33:40.001Z</time></trkpt><trkpt lat="45.688508442931095" lon="5.813058015411829"><ele>324.5</ele><time>2026-04-05T14:33:41.001Z</time></trkpt><trkpt lat="45.68855030751017" lon="5.813138669859314"><ele>324.3333333333333</ele><time>2026-04-05T14:33:42.001Z</time></trkpt><trkpt lat="45.68859442272701" lon="5.813228304139858"><ele>324.1666666666667</ele><time>2026-04-05T14:33:43.001Z</time></trkpt><trkpt lat="45.688648517058695" lon="5.813331707947758"><ele>324.0</ele><time>2026-04-05T14:33:44.001Z</time></trkpt><trkpt lat="45.68870293057282" lon="5.813433263300384"><ele>323.3333333333333</ele><time>2026-04-05T14:33:45.001Z</time></trkpt><trkpt lat="45.68874449330622" lon="5.813520833484301"><ele>322.6666666666667</ele><time>2026-04-05T14:33:46.001Z</time></trkpt><trkpt lat="45.68878485926843" lon="5.813605395622293"><ele>322.0</ele><time>2026-04-05T14:33:47.001Z</time></trkpt><trkpt lat="45.68885893513461" lon="5.813747372170324"><ele>321.33333333333337</ele><time>2026-04-05T14:33:49.001Z</time></trkpt><trkpt lat="45.68891105194073" lon="5.813826909822184"><ele>320.6666666666667</ele><time>2026-04-05T14:33:50.001Z</time></trkpt><trkpt lat="45.68895538780678" lon="5.8139177446291805"><ele>320.0</ele><time>2026-04-05T14:33:51.001Z</time></trkpt><trkpt lat="45.68902125955645" lon="5.814018828085429"><ele>320.0</ele><time>2026-04-05T14:33:52.001Z</time></trkpt><trkpt lat="45.68909596894858" lon="5.814124502112819"><ele>320.0</ele><time>2026-04-05T14:33:53.001Z</time></trkpt><trkpt lat="45.68917219080553" lon="5.814216599144621"><ele>320.0</ele><time>2026-04-05T14:33:54.001Z</time></trkpt><trkpt lat="45.68925202052344" lon="5.81429518860419"><ele>320.0</ele><time>2026-04-05T14:33:55.001Z</time></trkpt><trkpt lat="45.68930685941874" lon="5.814359617998642"><ele>320.0</ele><time>2026-04-05T14:33:56.001Z</time></trkpt><trkpt lat="45.68940629074682" lon="5.8144573336129195"><ele>319.83333333333337</ele><time>2026-04-05T14:33:58.001Z</time></trkpt><trkpt lat="45.68946162195724" lon="5.814515864486672"><ele>319.6666666666667</ele><time>2026-04-05T14:33:59.001Z</time></trkpt><trkpt lat="45.68951946153445" lon="5.814573752949789"><ele>319.5</ele><time>2026-04-05T14:34:00.001Z</time></trkpt><trkpt lat="45.68958035871352" lon="5.8146326519040725"><ele>319.3333333333333</ele><time>2026-04-05T14:34:01.001Z</time></trkpt><trkpt lat="45.68964972875235" lon="5.814700295053545"><ele>319.16666666666663</ele><time>2026-04-05T14:34:02.001Z</time></trkpt><trkpt lat="45.689727100069916" lon="5.814782736537739"><ele>319.0</ele><time>2026-04-05T14:34:03.001Z</time></trkpt><trkpt lat="45.68980797076519" lon="5.8148729400559285"><ele>319.0</ele><time>2026-04-05T14:34:04.001Z</time></trkpt><trkpt lat="45.6898882678459" lon="5.814970905432445"><ele>319.0</ele><time>2026-04-05T14:34:05.001Z</time></trkpt><trkpt lat="45.689956882147854" lon="5.815057511080773"><ele>319.0</ele><time>2026-04-05T14:34:06.001Z</time></trkpt><trkpt lat="45.69001823441021" lon="5.8151390467341395"><ele>319.0</ele><time>2026-04-05T14:34:07.001Z</time></trkpt><trkpt lat="45.69007005851952" lon="5.815210419053699"><ele>319.0</ele><time>2026-04-05T14:34:08.001Z</time></trkpt><trkpt lat="45.69012461361149" lon="5.815274262801931"><ele>319.0</ele><time>2026-04-05T14:34:09.001Z</time></trkpt><trkpt lat="45.690166755208686" lon="5.81534477111502"><ele>319.0</ele><time>2026-04-05T14:34:10.001Z</time></trkpt><trkpt lat="45.69020484936195" lon="5.815416989568371"><ele>319.0</ele><time>2026-04-05T14:34:11.001Z</time></trkpt><trkpt lat="45.690234713804834" lon="5.815511944938881"><ele>319.0</ele><time>2026-04-05T14:34:12.001Z</time></trkpt><trkpt lat="45.69026440731949" lon="5.8156257759033405"><ele>319.0</ele><time>2026-04-05T14:34:13.001Z</time></trkpt><trkpt lat="45.690276269852625" lon="5.815758206183289"><ele>319.0</ele><time>2026-04-05T14:34:14.001Z</time></trkpt><trkpt lat="45.69027765007384" lon="5.815910017730223"><ele>319.0</ele><time>2026-04-05T14:34:15.001Z</time></trkpt><trkpt lat="45.690295039380395" lon="5.816068272378147"><ele>319.25</ele><time>2026-04-05T14:34:16.001Z</time></trkpt><trkpt lat="45.69033271703544" lon="5.816237233804696"><ele>319.5</ele><time>2026-04-05T14:34:17.001Z</time></trkpt><trkpt lat="45.69036383393187" lon="5.81642060768385"><ele>319.75</ele><time>2026-04-05T14:34:18.001Z</time></trkpt><trkpt lat="45.69041510033794" lon="5.816612138455572"><ele>320.0</ele><time>2026-04-05T14:34:19.001Z</time></trkpt><trkpt lat="45.69044575418676" lon="5.816819818253362"><ele>321.0</ele><time>2026-04-05T14:34:20.001Z</time></trkpt><trkpt lat="45.69047695581747" lon="5.817033860483017"><ele>322.0</ele><time>2026-04-05T14:34:21.001Z</time></trkpt><trkpt lat="45.690505205002346" lon="5.817253115387031"><ele>323.0</ele><time>2026-04-05T14:34:22.001Z</time></trkpt><trkpt lat="45.69053099855484" lon="5.817471634399241"><ele>323.33333333333337</ele><time>2026-04-05T14:34:23.001Z</time></trkpt><trkpt lat="45.690560586575835" lon="5.817690325522552"><ele>323.6666666666667</ele><time>2026-04-05T14:34:24.001Z</time></trkpt><trkpt lat="45.690592073911006" lon="5.817911754259508"><ele>324.0</ele><time>2026-04-05T14:34:25.001Z</time></trkpt><trkpt lat="45.690615489411634" lon="5.818133146935023"><ele>324.0</ele><time>2026-04-05T14:34:26.001Z</time></trkpt><trkpt lat="45.69063193554771" lon="5.818348612725473"><ele>324.0</ele><time>2026-04-05T14:34:27.001Z</time></trkpt><trkpt lat="45.69063335912504" lon="5.81855691030721"><ele>324.0</ele><time>2026-04-05T14:34:28.001Z</time></trkpt><trkpt lat="45.69061264069166" lon="5.818764363546878"><ele>324.0</ele><time>2026-04-05T14:34:29.001Z</time></trkpt><trkpt lat="45.6905831215152" lon="5.8189733829715475"><ele>324.3333333333333</ele><time>2026-04-05T14:34:30.002Z</time></trkpt><trkpt lat="45.69054681334423" lon="5.819185392864859"><ele>324.66666666666663</ele><time>2026-04-05T14:34:31.002Z</time></trkpt><trkpt lat="45.690493951923116" lon="5.819392270576714"><ele>325.0</ele><time>2026-04-05T14:34:32.002Z</time></trkpt><trkpt lat="45.690415102238276" lon="5.819589078692939"><ele>324.0</ele><time>2026-04-05T14:34:33.002Z</time></trkpt><trkpt lat="45.69032504654298" lon="5.819782320312159"><ele>323.0</ele><time>2026-04-05T14:34:34.002Z</time></trkpt><trkpt lat="45.690228073813934" lon="5.8199749919830905"><ele>322.0</ele><time>2026-04-05T14:34:35.002Z</time></trkpt><trkpt lat="45.69013360736819" lon="5.820179146979308"><ele>326.0</ele><time>2026-04-05T14:34:36.002Z</time></trkpt><trkpt lat="45.69003880278735" lon="5.820381633192972"><ele>330.0</ele><time>2026-04-05T14:34:37.002Z</time></trkpt><trkpt lat="45.68994516003869" lon="5.820583917713052"><ele>334.0</ele><time>2026-04-05T14:34:38.002Z</time></trkpt><trkpt lat="45.689850642914976" lon="5.820790603910555"><ele>332.3333333333333</ele><time>2026-04-05T14:34:39.002Z</time></trkpt><trkpt lat="45.689757043982056" lon="5.82100198908961"><ele>330.6666666666667</ele><time>2026-04-05T14:34:40.002Z</time></trkpt><trkpt lat="45.68965978367402" lon="5.821217008042563"><ele>329.0</ele><time>2026-04-05T14:34:41.002Z</time></trkpt><trkpt lat="45.689552763461116" lon="5.821430557664564"><ele>329.0</ele><time>2026-04-05T14:34:42.002Z</time></trkpt><trkpt lat="45.689437181412345" lon="5.821648275614015"><ele>329.0</ele><time>2026-04-05T14:34:43.002Z</time></trkpt><trkpt lat="45.689313682230555" lon="5.821876430119668"><ele>329.0</ele><time>2026-04-05T14:34:44.002Z</time></trkpt><trkpt lat="45.68919565390574" lon="5.8221042605690325"><ele>334.0</ele><time>2026-04-05T14:34:45.002Z</time></trkpt><trkpt lat="45.689085686604095" lon="5.8223125745376105"><ele>339.0</ele><time>2026-04-05T14:34:46.002Z</time></trkpt><trkpt lat="45.68899154661553" lon="5.822510672558998"><ele>344.0</ele><time>2026-04-05T14:34:47.002Z</time></trkpt><trkpt lat="45.68891007573993" lon="5.822714738988555"><ele>344.6666666666667</ele><time>2026-04-05T14:34:48.002Z</time></trkpt><trkpt lat="45.68884049534472" lon="5.822917985362672"><ele>345.3333333333333</ele><time>2026-04-05T14:34:49.002Z</time></trkpt><trkpt lat="45.68878645775042" lon="5.82312292512894"><ele>346.0</ele><time>2026-04-05T14:34:50.002Z</time></trkpt><trkpt lat="45.68875499810799" lon="5.823328865917572"><ele>347.3333333333333</ele><time>2026-04-05T14:34:51Z</time></trkpt><trkpt lat="45.68875169960719" lon="5.8235456783426525"><ele>348.6666666666667</ele><time>2026-04-05T14:34:52Z</time></trkpt><trkpt lat="45.688787185954325" lon="5.8237726863352774"><ele>350.0</ele><time>2026-04-05T14:34:53Z</time></trkpt><trkpt lat="45.68884756438496" lon="5.823993090573139"><ele>350.0</ele><time>2026-04-05T14:34:54Z</time></trkpt><trkpt lat="45.68891674971886" lon="5.8242028182482635"><ele>350.0</ele><time>2026-04-05T14:34:55Z</time></trkpt><trkpt lat="45.68897391928616" lon="5.824403065654671"><ele>350.0</ele><time>2026-04-05T14:34:56Z</time></trkpt><trkpt lat="45.68902494963952" lon="5.8246079658007925"><ele>351.6666666666667</ele><time>2026-04-05T14:34:57Z</time></trkpt><trkpt lat="45.689075183336435" lon="5.824828056628842"><ele>353.3333333333333</ele><time>2026-04-05T14:34:58Z</time></trkpt><trkpt lat="45.68915613030533" lon="5.825033427142707"><ele>355.0</ele><time>2026-04-05T14:34:59Z</time></trkpt><trkpt lat="45.68928383086102" lon="5.825211694954917"><ele>357.0</ele><time>2026-04-05T14:35:00Z</time></trkpt><trkpt lat="45.68943049940917" lon="5.825371978060087"><ele>359.0</ele><time>2026-04-05T14:35:01Z</time></trkpt><trkpt lat="45.68959090789002" lon="5.825512910633904"><ele>361.0</ele><time>2026-04-05T14:35:02Z</time></trkpt><trkpt lat="45.68977144508031" lon="5.825608753111029"><ele>361.0</ele><time>2026-04-05T14:35:03Z</time></trkpt><trkpt lat="45.689965080551616" lon="5.8256955084173425"><ele>361.0</ele><time>2026-04-05T14:35:04Z</time></trkpt><trkpt lat="45.69014630843542" lon="5.8257842124660515"><ele>361.0</ele><time>2026-04-05T14:35:05Z</time></trkpt><trkpt lat="45.69031955697314" lon="5.825876261499512"><ele>363.0</ele><time>2026-04-05T14:35:06Z</time></trkpt><trkpt lat="45.69048747201437" lon="5.825975777284745"><ele>365.0</ele><time>2026-04-05T14:35:07Z</time></trkpt><trkpt lat="45.69064756283656" lon="5.826083428972485"><ele>367.0</ele><time>2026-04-05T14:35:08Z</time></trkpt><trkpt lat="45.690790659563675" lon="5.8262386636710595"><ele>367.3333333333333</ele><time>2026-04-05T14:35:09Z</time></trkpt><trkpt lat="45.690919111247815" lon="5.826432754098625"><ele>367.6666666666667</ele><time>2026-04-05T14:35:10Z</time></trkpt><trkpt lat="45.69102555867996" lon="5.826664800174491"><ele>368.0</ele><time>2026-04-05T14:35:11Z</time></trkpt><trkpt lat="45.69113588926779" lon="5.826898335458331"><ele>369.6666666666667</ele><time>2026-04-05T14:35:12Z</time></trkpt><trkpt lat="45.69124519768915" lon="5.8271485461565735"><ele>371.3333333333333</ele><time>2026-04-05T14:35:13Z</time></trkpt><trkpt lat="45.691339480158746" lon="5.827415613199688"><ele>373.0</ele><time>2026-04-05T14:35:14Z</time></trkpt><trkpt lat="45.69141749732307" lon="5.82768679893949"><ele>374.0</ele><time>2026-04-05T14:35:15Z</time></trkpt><trkpt lat="45.691490020790525" lon="5.827959798181773"><ele>375.0</ele><time>2026-04-05T14:35:16Z</time></trkpt><trkpt lat="45.69156359188794" lon="5.8282233158000025"><ele>376.0</ele><time>2026-04-05T14:35:17Z</time></trkpt><trkpt lat="45.69163646026949" lon="5.828480666261822"><ele>376.66666666666663</ele><time>2026-04-05T14:35:18Z</time></trkpt><trkpt lat="45.69171025203599" lon="5.8287264841906525"><ele>377.3333333333333</ele><time>2026-04-05T14:35:19Z</time></trkpt><trkpt lat="45.6918049732285" lon="5.828955502101922"><ele>378.0</ele><time>2026-04-05T14:35:20Z</time></trkpt><trkpt lat="45.691943781427334" lon="5.829150374112994"><ele>378.0</ele><time>2026-04-05T14:35:21Z</time></trkpt><trkpt lat="45.69211991485513" lon="5.829302639045826"><ele>378.0</ele><time>2026-04-05T14:35:22Z</time></trkpt><trkpt lat="45.692324815399495" lon="5.829393131015985"><ele>378.0</ele><time>2026-04-05T14:35:23Z</time></trkpt><trkpt lat="45.692532349057615" lon="5.829409118890705"><ele>379.3333333333333</ele><time>2026-04-05T14:35:24Z</time></trkpt><trkpt lat="45.69275083386585" lon="5.829417318450238"><ele>380.66666666666663</ele><time>2026-04-05T14:35:25Z</time></trkpt><trkpt lat="45.692922458023574" lon="5.829468386909278"><ele>382.0</ele><time>2026-04-05T14:35:26Z</time></trkpt><trkpt lat="45.693091034127946" lon="5.829499281530934"><ele>382.0</ele><time>2026-04-05T14:35:27Z</time></trkpt><trkpt lat="45.693243721920176" lon="5.829537009523441"><ele>382.0</ele><time>2026-04-05T14:35:28Z</time></trkpt><trkpt lat="45.693379790929825" lon="5.829639660425538"><ele>382.0</ele><time>2026-04-05T14:35:29Z</time></trkpt><trkpt lat="45.69347038599903" lon="5.829848291390368"><ele>382.0</ele><time>2026-04-05T14:35:30Z</time></trkpt><trkpt lat="45.69348940869134" lon="5.8300869661364985"><ele>382.0</ele><time>2026-04-05T14:35:31Z</time></trkpt><trkpt lat="45.693435918446575" lon="5.830322802273157"><ele>382.0</ele><time>2026-04-05T14:35:32Z</time></trkpt><trkpt lat="45.69335598287858" lon="5.830610261129093"><ele>382.3333333333333</ele><time>2026-04-05T14:35:33Z</time></trkpt><trkpt lat="45.69326889334353" lon="5.830904616206132"><ele>382.6666666666667</ele><time>2026-04-05T14:35:34Z</time></trkpt><trkpt lat="45.693194540729365" lon="5.831184047189666"><ele>383.0</ele><time>2026-04-05T14:35:35Z</time></trkpt><trkpt lat="45.69313638860459" lon="5.8314558541020975"><ele>382.33333333333337</ele><time>2026-04-05T14:35:36Z</time></trkpt><trkpt lat="45.6930826281547" lon="5.831702876600358"><ele>381.6666666666667</ele><time>2026-04-05T14:35:37Z</time></trkpt><trkpt lat="45.693002432580315" lon="5.831923981033285"><ele>381.0</ele><time>2026-04-05T14:35:38.001Z</time></trkpt><trkpt lat="45.69284137253109" lon="5.832054590418653"><ele>383.5</ele><time>2026-04-05T14:35:39.001Z</time></trkpt><trkpt lat="45.69266208004314" lon="5.832169089181927"><ele>386.0</ele><time>2026-04-05T14:35:40.001Z</time></trkpt><trkpt lat="45.69227077859546" lon="5.832298668894078"><ele>386.0</ele><time>2026-04-05T14:35:42.001Z</time></trkpt><trkpt lat="45.692070155572104" lon="5.8323849199957065"><ele>386.0</ele><time>2026-04-05T14:35:43.001Z</time></trkpt><trkpt lat="45.69187120726298" lon="5.832240021041532"><ele>386.0</ele><time>2026-04-05T14:35:44.001Z</time></trkpt><trkpt lat="45.6916796717877" lon="5.832185566431895"><ele>387.3333333333333</ele><time>2026-04-05T14:35:45.001Z</time></trkpt><trkpt lat="45.69148728383947" lon="5.832166871666384"><ele>388.66666666666663</ele><time>2026-04-05T14:35:46.001Z</time></trkpt><trkpt lat="45.691298412545414" lon="5.832156477139928"><ele>390.0</ele><time>2026-04-05T14:35:47.001Z</time></trkpt><trkpt lat="45.69111832478803" lon="5.83214477353551"><ele>390.66666666666663</ele><time>2026-04-05T14:35:48.001Z</time></trkpt><trkpt lat="45.690952617209106" lon="5.832134696568183"><ele>391.3333333333333</ele><time>2026-04-05T14:35:49.001Z</time></trkpt><trkpt lat="45.69079610415844" lon="5.832121464322264"><ele>392.0</ele><time>2026-04-05T14:35:50.001Z</time></trkpt><trkpt lat="45.69063918014341" lon="5.832106923095042"><ele>392.0</ele><time>2026-04-05T14:35:51.001Z</time></trkpt><trkpt lat="45.690486332446994" lon="5.832144372265863"><ele>392.0</ele><time>2026-04-05T14:35:52.001Z</time></trkpt><trkpt lat="45.69035466331284" lon="5.832252026112812"><ele>392.0</ele><time>2026-04-05T14:35:53.001Z</time></trkpt><trkpt lat="45.69026295437881" lon="5.832398953013883"><ele>392.0</ele><time>2026-04-05T14:35:54.001Z</time></trkpt><trkpt lat="45.6902092873676" lon="5.832544108224231"><ele>398.25</ele><time>2026-04-05T14:35:55.001Z</time></trkpt><trkpt lat="45.69022275701834" lon="5.832701118557412"><ele>404.5</ele><time>2026-04-05T14:35:56.001Z</time></trkpt><trkpt lat="45.690180478330134" lon="5.832849918553942"><ele>410.75</ele><time>2026-04-05T14:35:58.001Z</time></trkpt><trkpt lat="45.69013303976919" lon="5.832995631998265"><ele>417.0</ele><time>2026-04-05T14:36:00.001Z</time></trkpt><trkpt lat="45.69017856733445" lon="5.833180633337428"><ele>417.0</ele><time>2026-04-05T14:36:02.001Z</time></trkpt><trkpt lat="45.69022511762217" lon="5.83324268913608"><ele>417.0</ele><time>2026-04-05T14:36:03.001Z</time></trkpt><trkpt lat="45.69026768056097" lon="5.833332502384667"><ele>417.0</ele><time>2026-04-05T14:36:04.001Z</time></trkpt><trkpt lat="45.69030270063985" lon="5.833441927573371"><ele>417.0</ele><time>2026-04-05T14:36:05.001Z</time></trkpt><trkpt lat="45.690336544443085" lon="5.833561529323737"><ele>417.0</ele><time>2026-04-05T14:36:06.001Z</time></trkpt><trkpt lat="45.69037769720434" lon="5.8336784002239455"><ele>417.0</ele><time>2026-04-05T14:36:07.001Z</time></trkpt><trkpt lat="45.69042054709474" lon="5.833791759124022"><ele>414.6</ele><time>2026-04-05T14:36:08.001Z</time></trkpt><trkpt lat="45.69047073401843" lon="5.833903539857306"><ele>412.20000000000005</ele><time>2026-04-05T14:36:09.001Z</time></trkpt><trkpt lat="45.69050699063702" lon="5.834028126264066"><ele>409.8</ele><time>2026-04-05T14:36:10.001Z</time></trkpt><trkpt lat="45.690534479764516" lon="5.834157402990696"><ele>407.4</ele><time>2026-04-05T14:36:11.001Z</time></trkpt><trkpt lat="45.69052804925856" lon="5.834286208228158"><ele>405.0</ele><time>2026-04-05T14:36:12.001Z</time></trkpt><trkpt lat="45.69049941489529" lon="5.834411648770943"><ele>417.5</ele><time>2026-04-05T14:36:13.001Z</time></trkpt><trkpt lat="45.69045884146461" lon="5.834541109029583"><ele>430.0</ele><time>2026-04-05T14:36:14.001Z</time></trkpt><trkpt lat="45.69040977285394" lon="5.834691867184877"><ele>442.5</ele><time>2026-04-05T14:36:15.001Z</time></trkpt><trkpt lat="45.6903461311297" lon="5.834883017829691"><ele>455.0</ele><time>2026-04-05T14:36:16.001Z</time></trkpt><trkpt lat="45.69027099229389" lon="5.835126039952589"><ele>469.0</ele><time>2026-04-05T14:36:17.001Z</time></trkpt><trkpt lat="45.690193181044556" lon="5.83539061298606"><ele>483.0</ele><time>2026-04-05T14:36:18.001Z</time></trkpt><trkpt lat="45.690248169303025" lon="5.8352240840872645"><ele>497.0</ele><time>2026-04-05T14:36:19.001Z</time></trkpt><trkpt lat="45.69020395624931" lon="5.835364005527849"><ele>511.0</ele><time>2026-04-05T14:36:20.001Z</time></trkpt><trkpt lat="45.690160331201476" lon="5.835503867822157"><ele>511.0</ele><time>2026-04-05T14:36:21.001Z</time></trkpt><trkpt lat="45.69011517466624" lon="5.835646944796465"><ele>511.0</ele><time>2026-04-05T14:36:22.001Z</time></trkpt><trkpt lat="45.69007217128015" lon="5.835783943779133"><ele>511.0</ele><time>2026-04-05T14:36:23.001Z</time></trkpt><trkpt lat="45.690026538229255" lon="5.835931418507607"><ele>511.0</ele><time>2026-04-05T14:36:24.019Z</time></trkpt><trkpt lat="45.68998349541646" lon="5.836071098867228"><ele>511.0</ele><time>2026-04-05T14:36:25.021Z</time></trkpt><trkpt lat="45.68993992596185" lon="5.836211970777851"><ele>675.0</ele><time>2026-04-05T14:36:26.016Z</time></trkpt><trkpt lat="45.68931727006201" lon="5.838248952591889"><ele>680.5</ele><time>2026-04-05T14:36:29.475Z</time></trkpt><trkpt lat="45.68913485821191" lon="5.838836814808982"><ele>686.0</ele><time>2026-04-05T14:36:30.476Z</time></trkpt><trkpt lat="45.68895106747129" lon="5.839422531480765"><ele>695.5</ele><time>2026-04-05T14:36:31.476Z</time></trkpt><trkpt lat="45.68876754886494" lon="5.840008798965817"><ele>705.0</ele><time>2026-04-05T14:36:32.476Z</time></trkpt><trkpt lat="45.688584440656015" lon="5.840594891617599"><ele>744.0</ele><time>2026-04-05T14:36:33.476Z</time></trkpt><trkpt lat="45.68840154926029" lon="5.841178743598581"><ele>783.0</ele><time>2026-04-05T14:36:34.472Z</time></trkpt><trkpt lat="45.68821456807164" lon="5.84176345615948"><ele>801.5</ele><time>2026-04-05T14:36:35.474Z</time></trkpt><trkpt lat="45.68803065777868" lon="5.842350460736116"><ele>820.0</ele><time>2026-04-05T14:36:36.475Z</time></trkpt><trkpt lat="45.68784806185723" lon="5.842937205984982"><ele>851.0</ele><time>2026-04-05T14:36:37.476Z</time></trkpt><trkpt lat="45.68766552526384" lon="5.843523760591821"><ele>882.0</ele><time>2026-04-05T14:36:38.475Z</time></trkpt><trkpt lat="45.68748277599481" lon="5.844110998600676"><ele>870.0</ele><time>2026-04-05T14:36:39.476Z</time></trkpt><trkpt lat="45.68730040280387" lon="5.844697028137689"><ele>858.0</ele><time>2026-04-05T14:36:40.475Z</time></trkpt><trkpt lat="45.68497583274328" lon="5.851845145230975"><ele>764.1999999999999</ele><time>2026-04-05T14:38:06.003Z</time></trkpt><trkpt lat="45.68490723892731" lon="5.851933844973634"><ele>670.4</ele><time>2026-04-05T14:38:07.003Z</time></trkpt><trkpt lat="45.684805108777766" lon="5.8519721222707535"><ele>576.5999999999999</ele><time>2026-04-05T14:38:08.003Z</time></trkpt><trkpt lat="45.68470901221384" lon="5.851976912553893"><ele>482.79999999999995</ele><time>2026-04-05T14:38:09.003Z</time></trkpt><trkpt lat="45.68463230470117" lon="5.85190713417754"><ele>389.0</ele><time>2026-04-05T14:38:10.003Z</time></trkpt><trkpt lat="45.68454914767" lon="5.851877402548988"><ele>388.99999999999994</ele><time>2026-04-05T14:38:11.003Z</time></trkpt><trkpt lat="45.68448153058944" lon="5.851799819369931"><ele>389.0</ele><time>2026-04-05T14:38:12Z</time></trkpt><trkpt lat="45.684404916326656" lon="5.851753212179697"><ele>389.0</ele><time>2026-04-05T14:38:13Z</time></trkpt><trkpt lat="45.68432054923073" lon="5.851707816413071"><ele>389.0</ele><time>2026-04-05T14:38:14Z</time></trkpt><trkpt lat="45.684242338976375" lon="5.851673688721514"><ele>388.99999999999994</ele><time>2026-04-05T14:38:15Z</time></trkpt><trkpt lat="45.68415868657716" lon="5.851633263238255"><ele>389.0</ele><time>2026-04-05T14:38:16Z</time></trkpt><trkpt lat="45.68406876069783" lon="5.851589821866454"><ele>388.2</ele><time>2026-04-05T14:38:17Z</time></trkpt><trkpt lat="45.6839770285861" lon="5.851556174310665"><ele>387.4</ele><time>2026-04-05T14:38:18Z</time></trkpt><trkpt lat="45.68389174450394" lon="5.85151436312466"><ele>386.6</ele><time>2026-04-05T14:38:19Z</time></trkpt><trkpt lat="45.68379352958268" lon="5.851479163977109"><ele>385.8</ele><time>2026-04-05T14:38:20Z</time></trkpt><trkpt lat="45.683693431338035" lon="5.851437152784321"><ele>385.0</ele><time>2026-04-05T14:38:21Z</time></trkpt><trkpt lat="45.68357598036949" lon="5.851391566495996"><ele>381.25</ele><time>2026-04-05T14:38:22Z</time></trkpt><trkpt lat="45.68344874994002" lon="5.851323680737024"><ele>377.5</ele><time>2026-04-05T14:38:23Z</time></trkpt><trkpt lat="45.6833015133559" lon="5.851273874224857"><ele>373.75</ele><time>2026-04-05T14:38:24Z</time></trkpt><trkpt lat="45.68315704024686" lon="5.851223678217931"><ele>370.0</ele><time>2026-04-05T14:38:25Z</time></trkpt><trkpt lat="45.68300494255429" lon="5.851177773970458"><ele>370.0</ele><time>2026-04-05T14:38:26Z</time></trkpt><trkpt lat="45.68285496179967" lon="5.8511227155826715"><ele>370.0</ele><time>2026-04-05T14:38:27Z</time></trkpt><trkpt lat="45.68270875485149" lon="5.851066629673545"><ele>370.0</ele><time>2026-04-05T14:38:28Z</time></trkpt><trkpt lat="45.6825585714895" lon="5.85103344162412"><ele>366.0</ele><time>2026-04-05T14:38:29Z</time></trkpt><trkpt lat="45.68241196974711" lon="5.850992031755342"><ele>362.0</ele><time>2026-04-05T14:38:30Z</time></trkpt><trkpt lat="45.68226552564002" lon="5.850953998826491"><ele>358.0</ele><time>2026-04-05T14:38:31Z</time></trkpt><trkpt lat="45.682111835627346" lon="5.850928962183491"><ele>366.0</ele><time>2026-04-05T14:38:32Z</time></trkpt><trkpt lat="45.6819557695085" lon="5.850913656416132"><ele>374.0</ele><time>2026-04-05T14:38:33Z</time></trkpt><trkpt lat="45.68179292623729" lon="5.850920616068198"><ele>382.0</ele><time>2026-04-05T14:38:34Z</time></trkpt><trkpt lat="45.681630183471576" lon="5.850928055735225"><ele>382.0</ele><time>2026-04-05T14:38:35Z</time></trkpt><trkpt lat="45.681473854842615" lon="5.850923869630558"><ele>382.0</ele><time>2026-04-05T14:38:36Z</time></trkpt><trkpt lat="45.68131875521801" lon="5.850920282713771"><ele>382.0</ele><time>2026-04-05T14:38:37Z</time></trkpt><trkpt lat="45.681162434283436" lon="5.850934441317619"><ele>380.66666666666663</ele><time>2026-04-05T14:38:38Z</time></trkpt><trkpt lat="45.68100324634143" lon="5.850957421602843"><ele>379.3333333333333</ele><time>2026-04-05T14:38:39Z</time></trkpt><trkpt lat="45.68084400099508" lon="5.85098591793051"><ele>378.0</ele><time>2026-04-05T14:38:40Z</time></trkpt><trkpt lat="45.68068679421408" lon="5.851007764671845"><ele>368.6666666666667</ele><time>2026-04-05T14:38:41Z</time></trkpt><trkpt lat="45.68053395074196" lon="5.851028252495355"><ele>359.33333333333337</ele><time>2026-04-05T14:38:42Z</time></trkpt><trkpt lat="45.68038167282267" lon="5.851056581248204"><ele>350.0</ele><time>2026-04-05T14:38:43Z</time></trkpt><trkpt lat="45.68023524440496" lon="5.851073019203325"><ele>349.5</ele><time>2026-04-05T14:38:44Z</time></trkpt><trkpt lat="45.680087129712255" lon="5.851081024706376"><ele>349.0</ele><time>2026-04-05T14:38:45Z</time></trkpt><trkpt lat="45.679944284954004" lon="5.851046678174982"><ele>348.5</ele><time>2026-04-05T14:38:46Z</time></trkpt><trkpt lat="45.679804378296105" lon="5.850968261295498"><ele>348.0</ele><time>2026-04-05T14:38:47Z</time></trkpt><trkpt lat="45.67966608162361" lon="5.850849684300588"><ele>350.0</ele><time>2026-04-05T14:38:48Z</time></trkpt><trkpt lat="45.67952875678743" lon="5.850727972837481"><ele>352.0</ele><time>2026-04-05T14:38:49Z</time></trkpt><trkpt lat="45.67939299236497" lon="5.85063189721375"><ele>354.0</ele><time>2026-04-05T14:38:50Z</time></trkpt><trkpt lat="45.67926373778546" lon="5.850542119227547"><ele>354.0</ele><time>2026-04-05T14:38:51.001Z</time></trkpt><trkpt lat="45.67911801887149" lon="5.85049621079415"><ele>354.0</ele><time>2026-04-05T14:38:52.001Z</time></trkpt><trkpt lat="45.67896571182017" lon="5.8504608573806225"><ele>354.0</ele><time>2026-04-05T14:38:53.001Z</time></trkpt><trkpt lat="45.678811030706726" lon="5.850449512467573"><ele>354.0</ele><time>2026-04-05T14:38:54.001Z</time></trkpt><trkpt lat="45.678659566939686" lon="5.850449335112368"><ele>354.0</ele><time>2026-04-05T14:38:55.001Z</time></trkpt><trkpt lat="45.67850603961559" lon="5.850446725499953"><ele>354.0</ele><time>2026-04-05T14:38:56.001Z</time></trkpt><trkpt lat="45.678354478483094" lon="5.850441222831647"><ele>353.0</ele><time>2026-04-05T14:38:57.001Z</time></trkpt><trkpt lat="45.678207304879614" lon="5.8504443011937095"><ele>352.0</ele><time>2026-04-05T14:38:58.001Z</time></trkpt><trkpt lat="45.67806914525715" lon="5.8504561591778845"><ele>351.0</ele><time>2026-04-05T14:38:59.001Z</time></trkpt><trkpt lat="45.67792909215649" lon="5.850476663554123"><ele>350.0</ele><time>2026-04-05T14:39:00.001Z</time></trkpt><trkpt lat="45.677768618075156" lon="5.850509194849511"><ele>351.33333333333337</ele><time>2026-04-05T14:39:01.001Z</time></trkpt><trkpt lat="45.67758586520513" lon="5.850584053583149"><ele>352.6666666666667</ele><time>2026-04-05T14:39:02.001Z</time></trkpt><trkpt lat="45.67739293893246" lon="5.850715754709351"><ele>354.0</ele><time>2026-04-05T14:39:03.001Z</time></trkpt><trkpt lat="45.67717286251473" lon="5.850957887425165"><ele>354.0</ele><time>2026-04-05T14:39:04.001Z</time></trkpt><trkpt lat="45.67725505846105" lon="5.850775952721381"><ele>354.0</ele><time>2026-04-05T14:39:05.001Z</time></trkpt><trkpt lat="45.67715806452359" lon="5.850890686932332"><ele>354.0</ele><time>2026-04-05T14:39:06.001Z</time></trkpt><trkpt lat="45.677077616126645" lon="5.8510203295001535"><ele>354.0</ele><time>2026-04-05T14:39:07.001Z</time></trkpt><trkpt lat="45.67701646386391" lon="5.851154268148274"><ele>353.0</ele><time>2026-04-05T14:39:08.001Z</time></trkpt><trkpt lat="45.676957217545095" lon="5.851268911450431"><ele>352.0</ele><time>2026-04-05T14:39:09.001Z</time></trkpt><trkpt lat="45.67690978604565" lon="5.8513621410563035"><ele>351.0</ele><time>2026-04-05T14:39:10.001Z</time></trkpt><trkpt lat="45.676868570076756" lon="5.851449816846042"><ele>350.0</ele><time>2026-04-05T14:39:11.001Z</time></trkpt><trkpt lat="45.676776180844385" lon="5.851555813466519"><ele>349.0</ele><time>2026-04-05T14:39:13.001Z</time></trkpt><trkpt lat="45.67671596473375" lon="5.851584494285383"><ele>348.0</ele><time>2026-04-05T14:39:14.001Z</time></trkpt><trkpt lat="45.676659518589325" lon="5.8516425385131035"><ele>348.0</ele><time>2026-04-05T14:39:15.001Z</time></trkpt><trkpt lat="45.67662305556498" lon="5.851746137094085"><ele>348.0</ele><time>2026-04-05T14:39:16.001Z</time></trkpt><trkpt lat="45.676652487922645" lon="5.8518698184001785"><ele>348.0</ele><time>2026-04-05T14:39:17.001Z</time></trkpt><trkpt lat="45.67663620469256" lon="5.852008297889141"><ele>348.0</ele><time>2026-04-05T14:39:18.001Z</time></trkpt><trkpt lat="45.67660153944007" lon="5.852138709764799"><ele>348.0</ele><time>2026-04-05T14:39:19.001Z</time></trkpt><trkpt lat="45.67652858649091" lon="5.852259584787733"><ele>346.4</ele><time>2026-04-05T14:39:20.001Z</time></trkpt><trkpt lat="45.67644233612" lon="5.852349911007228"><ele>344.79999999999995</ele><time>2026-04-05T14:39:21.001Z</time></trkpt><trkpt lat="45.67634733178423" lon="5.852424900766928"><ele>343.2</ele><time>2026-04-05T14:39:22.001Z</time></trkpt><trkpt lat="45.67626673314515" lon="5.852520578058999"><ele>341.6</ele><time>2026-04-05T14:39:23.001Z</time></trkpt><trkpt lat="45.676169160513034" lon="5.852586611935983"><ele>340.0</ele><time>2026-04-05T14:39:24.001Z</time></trkpt><trkpt lat="45.67606957865963" lon="5.852650415574436"><ele>338.75</ele><time>2026-04-05T14:39:25.001Z</time></trkpt><trkpt lat="45.67596430314285" lon="5.852723507713405"><ele>337.5</ele><time>2026-04-05T14:39:26.001Z</time></trkpt><trkpt lat="45.675841069276856" lon="5.85279228631102"><ele>336.25</ele><time>2026-04-05T14:39:27.001Z</time></trkpt><trkpt lat="45.6757308399449" lon="5.852873849678954"><ele>335.0</ele><time>2026-04-05T14:39:28.001Z</time></trkpt><trkpt lat="45.675610848812106" lon="5.8529662313963176"><ele>335.0</ele><time>2026-04-05T14:39:29.001Z</time></trkpt><trkpt lat="45.67548817567282" lon="5.85305107464793"><ele>335.0</ele><time>2026-04-05T14:39:30.001Z</time></trkpt><trkpt lat="45.675367190041" lon="5.853126737581403"><ele>335.0</ele><time>2026-04-05T14:39:31.001Z</time></trkpt><trkpt lat="45.67521487525251" lon="5.853186843523882"><ele>335.0</ele><time>2026-04-05T14:39:32.001Z</time></trkpt><trkpt lat="45.67506302629281" lon="5.853177377747333"><ele>335.33333333333337</ele><time>2026-04-05T14:39:33.001Z</time></trkpt><trkpt lat="45.67490785996826" lon="5.853171332457207"><ele>335.6666666666667</ele><time>2026-04-05T14:39:34.001Z</time></trkpt><trkpt lat="45.67475316771749" lon="5.853163271027065"><ele>336.0</ele><time>2026-04-05T14:39:35.001Z</time></trkpt><trkpt lat="45.67459364734107" lon="5.853157512237737"><ele>336.0</ele><time>2026-04-05T14:39:36.001Z</time></trkpt><trkpt lat="45.674425281827155" lon="5.853142286583349"><ele>336.0</ele><time>2026-04-05T14:39:37.001Z</time></trkpt><trkpt lat="45.67421556271547" lon="5.853094454788818"><ele>336.0</ele><time>2026-04-05T14:39:38.001Z</time></trkpt><trkpt lat="45.674030246198555" lon="5.853156079029778"><ele>336.0</ele><time>2026-04-05T14:39:39.001Z</time></trkpt><trkpt lat="45.67398673572137" lon="5.853272710907942"><ele>336.0</ele><time>2026-04-05T14:39:40.001Z</time></trkpt><trkpt lat="45.67383446209944" lon="5.853366451671676"><ele>336.0</ele><time>2026-04-05T14:39:41.001Z</time></trkpt><trkpt lat="45.67368510365037" lon="5.853469090771118"><ele>336.0</ele><time>2026-04-05T14:39:42.001Z</time></trkpt><trkpt lat="45.673542873765356" lon="5.853582905965385"><ele>333.0</ele><time>2026-04-05T14:39:43.001Z</time></trkpt><trkpt lat="45.67340574452996" lon="5.853702862670592"><ele>330.0</ele><time>2026-04-05T14:39:44.001Z</time></trkpt><trkpt lat="45.673268438783225" lon="5.853808675651828"><ele>327.0</ele><time>2026-04-05T14:39:45.001Z</time></trkpt><trkpt lat="45.67313967352165" lon="5.853912555492672"><ele>327.0</ele><time>2026-04-05T14:39:46.001Z</time></trkpt><trkpt lat="45.673006150192236" lon="5.85399057054672"><ele>327.0</ele><time>2026-04-05T14:39:47.001Z</time></trkpt><trkpt lat="45.67286979747937" lon="5.854051865192183"><ele>327.0</ele><time>2026-04-05T14:39:48.001Z</time></trkpt><trkpt lat="45.67272200501049" lon="5.8540581085877"><ele>327.0</ele><time>2026-04-05T14:39:49.001Z</time></trkpt><trkpt lat="45.67257804826048" lon="5.854077166309049"><ele>328.6666666666667</ele><time>2026-04-05T14:39:50.001Z</time></trkpt><trkpt lat="45.67243365801122" lon="5.85412490363094"><ele>330.33333333333337</ele><time>2026-04-05T14:39:51.002Z</time></trkpt><trkpt lat="45.6722845555739" lon="5.854159070477542"><ele>332.0</ele><time>2026-04-05T14:39:52.002Z</time></trkpt><trkpt lat="45.6721312511911" lon="5.854188064566315"><ele>332.0</ele><time>2026-04-05T14:39:53.002Z</time></trkpt><trkpt lat="45.671976077916604" lon="5.854260953642187"><ele>332.0</ele><time>2026-04-05T14:39:54.002Z</time></trkpt><trkpt lat="45.67182076782453" lon="5.854362424153955"><ele>332.0</ele><time>2026-04-05T14:39:55.002Z</time></trkpt><trkpt lat="45.67165819018841" lon="5.85442586217452"><ele>327.0</ele><time>2026-04-05T14:39:56.002Z</time></trkpt><trkpt lat="45.67150228753958" lon="5.854505751724645"><ele>322.0</ele><time>2026-04-05T14:39:57.002Z</time></trkpt><trkpt lat="45.671345297741276" lon="5.854561372474723"><ele>317.0</ele><time>2026-04-05T14:39:58.002Z</time></trkpt><trkpt lat="45.67119295592199" lon="5.854582303473954"><ele>316.0</ele><time>2026-04-05T14:39:59.002Z</time></trkpt><trkpt lat="45.67103283818955" lon="5.85458155880218"><ele>315.0</ele><time>2026-04-05T14:40:00.002Z</time></trkpt><trkpt lat="45.67087007731538" lon="5.854568496370621"><ele>314.0</ele><time>2026-04-05T14:40:01.002Z</time></trkpt><trkpt lat="45.67069502120315" lon="5.85457348796602"><ele>314.0</ele><time>2026-04-05T14:40:02.002Z</time></trkpt><trkpt lat="45.6705289509833" lon="5.8545731100918035"><ele>314.0</ele><time>2026-04-05T14:40:03.002Z</time></trkpt><trkpt lat="45.67036572378726" lon="5.854609406227147"><ele>314.0</ele><time>2026-04-05T14:40:04.002Z</time></trkpt><trkpt lat="45.670204248991496" lon="5.854672073837366"><ele>314.33333333333337</ele><time>2026-04-05T14:40:05.002Z</time></trkpt><trkpt lat="45.67004883586276" lon="5.854741191397975"><ele>314.6666666666667</ele><time>2026-04-05T14:40:06.002Z</time></trkpt><trkpt lat="45.66989464918842" lon="5.854795239661953"><ele>315.0</ele><time>2026-04-05T14:40:07.002Z</time></trkpt><trkpt lat="45.66973517619228" lon="5.8548117331547695"><ele>315.0</ele><time>2026-04-05T14:40:08.002Z</time></trkpt><trkpt lat="45.669576280232064" lon="5.854797216639948"><ele>315.0</ele><time>2026-04-05T14:40:09.002Z</time></trkpt><trkpt lat="45.66941648554613" lon="5.854794083859525"><ele>315.0</ele><time>2026-04-05T14:40:10.002Z</time></trkpt><trkpt lat="45.66925432550678" lon="5.854795990919805"><ele>315.0</ele><time>2026-04-05T14:40:11.002Z</time></trkpt><trkpt lat="45.66909411641873" lon="5.8547701535986665"><ele>315.0</ele><time>2026-04-05T14:40:12.002Z</time></trkpt><trkpt lat="45.66892803046194" lon="5.854763955443726"><ele>315.0</ele><time>2026-04-05T14:40:13.002Z</time></trkpt><trkpt lat="45.66875948484644" lon="5.854747158530571"><ele>311.0</ele><time>2026-04-05T14:40:14.002Z</time></trkpt><trkpt lat="45.668597487928636" lon="5.854700829241405"><ele>307.0</ele><time>2026-04-05T14:40:15.002Z</time></trkpt><trkpt lat="45.66842869232257" lon="5.854644117828091"><ele>303.0</ele><time>2026-04-05T14:40:16.002Z</time></trkpt><trkpt lat="45.66826593331895" lon="5.854587387123924"><ele>303.0</ele><time>2026-04-05T14:40:17.002Z</time></trkpt><trkpt lat="45.668111793969175" lon="5.854532118457456"><ele>303.0</ele><time>2026-04-05T14:40:18Z</time></trkpt><trkpt lat="45.66794833671189" lon="5.854497249801318"><ele>303.0</ele><time>2026-04-05T14:40:19Z</time></trkpt><trkpt lat="45.66779796388527" lon="5.854419668266096"><ele>300.0</ele><time>2026-04-05T14:40:20Z</time></trkpt><trkpt lat="45.66764476100271" lon="5.854365784034794"><ele>297.0</ele><time>2026-04-05T14:40:21Z</time></trkpt><trkpt lat="45.6674814480723" lon="5.854330244754895"><ele>294.0</ele><time>2026-04-05T14:40:22Z</time></trkpt><trkpt lat="45.6673235187984" lon="5.85427557647503"><ele>298.3333333333333</ele><time>2026-04-05T14:40:23Z</time></trkpt><trkpt lat="45.66716995766264" lon="5.854194123436248"><ele>302.66666666666663</ele><time>2026-04-05T14:40:24Z</time></trkpt><trkpt lat="45.6669965537172" lon="5.854143673495246"><ele>307.0</ele><time>2026-04-05T14:40:25Z</time></trkpt><trkpt lat="45.66683253745753" lon="5.854095676184111"><ele>307.0</ele><time>2026-04-05T14:40:26Z</time></trkpt><trkpt lat="45.666672758074235" lon="5.854032912557191"><ele>307.0</ele><time>2026-04-05T14:40:27Z</time></trkpt><trkpt lat="45.66651081754373" lon="5.853992449050917"><ele>307.0</ele><time>2026-04-05T14:40:28Z</time></trkpt><trkpt lat="45.666351971365195" lon="5.853950210994549"><ele>307.0</ele><time>2026-04-05T14:40:29Z</time></trkpt><trkpt lat="45.66619201587086" lon="5.853922449936316"><ele>307.0</ele><time>2026-04-05T14:40:30Z</time></trkpt><trkpt lat="45.666030500951166" lon="5.853910525241174"><ele>307.0</ele><time>2026-04-05T14:40:31Z</time></trkpt><trkpt lat="45.665875976867056" lon="5.853890192737462"><ele>305.0</ele><time>2026-04-05T14:40:32Z</time></trkpt><trkpt lat="45.665723037105835" lon="5.8538098268266685"><ele>303.0</ele><time>2026-04-05T14:40:33Z</time></trkpt><trkpt lat="45.665569208044374" lon="5.853784885769993"><ele>301.0</ele><time>2026-04-05T14:40:34Z</time></trkpt><trkpt lat="45.66542103387521" lon="5.853790077782859"><ele>301.3333333333333</ele><time>2026-04-05T14:40:35Z</time></trkpt><trkpt lat="45.66527066205875" lon="5.853883164043163"><ele>301.6666666666667</ele><time>2026-04-05T14:40:36Z</time></trkpt><trkpt lat="45.66511647897701" lon="5.853955495891431"><ele>302.0</ele><time>2026-04-05T14:40:37Z</time></trkpt><trkpt lat="45.66497257887135" lon="5.854011563028235"><ele>302.0</ele><time>2026-04-05T14:40:38Z</time></trkpt><trkpt lat="45.66479925641587" lon="5.854073285863277"><ele>302.0</ele><time>2026-04-05T14:40:39Z</time></trkpt><trkpt lat="45.66467863147453" lon="5.854301491218172"><ele>302.0</ele><time>2026-04-05T14:40:40Z</time></trkpt><trkpt lat="45.6645195328876" lon="5.854218863791632"><ele>302.33333333333337</ele><time>2026-04-05T14:40:41Z</time></trkpt><trkpt lat="45.66435271642251" lon="5.854188321466709"><ele>302.6666666666667</ele><time>2026-04-05T14:40:42Z</time></trkpt><trkpt lat="45.6641998332992" lon="5.854193358377469"><ele>303.0</ele><time>2026-04-05T14:40:43Z</time></trkpt><trkpt lat="45.66405986651242" lon="5.854353612186589"><ele>300.5</ele><time>2026-04-05T14:40:44Z</time></trkpt><trkpt lat="45.66391586803388" lon="5.8544048277689695"><ele>298.0</ele><time>2026-04-05T14:40:45Z</time></trkpt><trkpt lat="45.663777289166596" lon="5.854453239943379"><ele>295.5</ele><time>2026-04-05T14:40:46Z</time></trkpt><trkpt lat="45.66364000885545" lon="5.854498037248562"><ele>293.0</ele><time>2026-04-05T14:40:47Z</time></trkpt><trkpt lat="45.66350154582855" lon="5.854554273771076"><ele>291.0</ele><time>2026-04-05T14:40:48Z</time></trkpt><trkpt lat="45.66336548217553" lon="5.854632737962428"><ele>289.0</ele><time>2026-04-05T14:40:49Z</time></trkpt><trkpt lat="45.66323064083987" lon="5.854726563472088"><ele>287.0</ele><time>2026-04-05T14:40:50Z</time></trkpt><trkpt lat="45.66309226402333" lon="5.854835094356349"><ele>287.0</ele><time>2026-04-05T14:40:51.001Z</time></trkpt><trkpt lat="45.662968477979305" lon="5.8549652440798905"><ele>287.0</ele><time>2026-04-05T14:40:52.001Z</time></trkpt><trkpt lat="45.66285353050223" lon="5.855108238066244"><ele>287.0</ele><time>2026-04-05T14:40:53.001Z</time></trkpt><trkpt lat="45.662751414321974" lon="5.855247268055619"><ele>287.0</ele><time>2026-04-05T14:40:54.001Z</time></trkpt><trkpt lat="45.6626468367923" lon="5.855376292146119"><ele>286.6666666666667</ele><time>2026-04-05T14:40:55.001Z</time></trkpt><trkpt lat="45.662543231023484" lon="5.855506425435797"><ele>286.3333333333333</ele><time>2026-04-05T14:40:56.001Z</time></trkpt><trkpt lat="45.66230834222051" lon="5.855742745841493"><ele>286.0</ele><time>2026-04-05T14:40:58.001Z</time></trkpt><trkpt lat="45.66217452571219" lon="5.855835369954132"><ele>286.0</ele><time>2026-04-05T14:40:59.001Z</time></trkpt><trkpt lat="45.66203456916985" lon="5.85591583649493"><ele>286.0</ele><time>2026-04-05T14:41:00.001Z</time></trkpt><trkpt lat="45.66188379366956" lon="5.855966686474989"><ele>286.0</ele><time>2026-04-05T14:41:01.001Z</time></trkpt><trkpt lat="45.661727733031476" lon="5.855978777574046"><ele>281.3333333333333</ele><time>2026-04-05T14:41:02.001Z</time></trkpt><trkpt lat="45.66157042633897" lon="5.855989181725208"><ele>276.6666666666667</ele><time>2026-04-05T14:41:03.001Z</time></trkpt><trkpt lat="45.661415057666424" lon="5.855986646030949"><ele>272.0</ele><time>2026-04-05T14:41:04.001Z</time></trkpt><trkpt lat="45.661257261831295" lon="5.855976440798168"><ele>270.33333333333337</ele><time>2026-04-05T14:41:05.001Z</time></trkpt><trkpt lat="45.66109709794955" lon="5.855984725012242"><ele>268.6666666666667</ele><time>2026-04-05T14:41:06.001Z</time></trkpt><trkpt lat="45.66094298945401" lon="5.855932386054962"><ele>267.0</ele><time>2026-04-05T14:41:07.001Z</time></trkpt><trkpt lat="45.66079166712466" lon="5.855849764014881"><ele>272.3333333333333</ele><time>2026-04-05T14:41:08.001Z</time></trkpt><trkpt lat="45.66064502572721" lon="5.855757239450833"><ele>277.66666666666663</ele><time>2026-04-05T14:41:09.001Z</time></trkpt><trkpt lat="45.66051064780209" lon="5.85561806344902"><ele>283.0</ele><time>2026-04-05T14:41:10.001Z</time></trkpt><trkpt lat="45.66036317684164" lon="5.855538020456657"><ele>280.75</ele><time>2026-04-05T14:41:11.001Z</time></trkpt><trkpt lat="45.660215224422515" lon="5.8554893534186405"><ele>278.5</ele><time>2026-04-05T14:41:12.001Z</time></trkpt><trkpt lat="45.660070168139505" lon="5.855475518400816"><ele>276.25</ele><time>2026-04-05T14:41:13.001Z</time></trkpt><trkpt lat="45.659926686394606" lon="5.855457176215354"><ele>274.0</ele><time>2026-04-05T14:41:14.001Z</time></trkpt><trkpt lat="45.65978968395505" lon="5.8554474278634245"><ele>274.0</ele><time>2026-04-05T14:41:15.001Z</time></trkpt><trkpt lat="45.65965407558259" lon="5.855446272037896"><ele>274.0</ele><time>2026-04-05T14:41:16.001Z</time></trkpt><trkpt lat="45.659520430151794" lon="5.855448294101003"><ele>274.0</ele><time>2026-04-05T14:41:17.001Z</time></trkpt><trkpt lat="45.65940097515031" lon="5.855424986550329"><ele>274.0</ele><time>2026-04-05T14:41:18.001Z</time></trkpt><trkpt lat="45.65915726277444" lon="5.855563996011145"><ele>273.2</ele><time>2026-04-05T14:41:20.001Z</time></trkpt><trkpt lat="45.659059241661424" lon="5.855630313856907"><ele>272.4</ele><time>2026-04-05T14:41:21.001Z</time></trkpt><trkpt lat="45.658960494161335" lon="5.855678784188033"><ele>271.6</ele><time>2026-04-05T14:41:22.001Z</time></trkpt><trkpt lat="45.65886266995282" lon="5.855723688299085"><ele>270.8</ele><time>2026-04-05T14:41:23.001Z</time></trkpt><trkpt lat="45.65876909321937" lon="5.855764014272728"><ele>270.0</ele><time>2026-04-05T14:41:24.001Z</time></trkpt><trkpt lat="45.65867422571154" lon="5.855809753482611"><ele>269.75</ele><time>2026-04-05T14:41:25.001Z</time></trkpt><trkpt lat="45.6585571314828" lon="5.855859269193436"><ele>269.5</ele><time>2026-04-05T14:41:26.001Z</time></trkpt><trkpt lat="45.658448777874774" lon="5.855897911716028"><ele>269.25</ele><time>2026-04-05T14:41:27.001Z</time></trkpt><trkpt lat="45.65833556583837" lon="5.8559444742405145"><ele>269.0</ele><time>2026-04-05T14:41:28.001Z</time></trkpt><trkpt lat="45.65822751022587" lon="5.85599577285457"><ele>266.25</ele><time>2026-04-05T14:41:29.001Z</time></trkpt><trkpt lat="45.65810876311982" lon="5.856032644710927"><ele>263.5</ele><time>2026-04-05T14:41:30.001Z</time></trkpt><trkpt lat="45.65799347026971" lon="5.856080771721425"><ele>260.75</ele><time>2026-04-05T14:41:31.001Z</time></trkpt><trkpt lat="45.65787305926378" lon="5.8561436627500925"><ele>258.0</ele><time>2026-04-05T14:41:32.001Z</time></trkpt><trkpt lat="45.65774579100265" lon="5.856189854268758"><ele>258.0</ele><time>2026-04-05T14:41:33.001Z</time></trkpt><trkpt lat="45.65761657434345" lon="5.856224131043154"><ele>258.0</ele><time>2026-04-05T14:41:34.001Z</time></trkpt><trkpt lat="45.6575077712948" lon="5.8563007246750445"><ele>258.0</ele><time>2026-04-05T14:41:35.001Z</time></trkpt><trkpt lat="45.65738749549962" lon="5.856358950253105"><ele>258.0</ele><time>2026-04-05T14:41:36.001Z</time></trkpt><trkpt lat="45.65726683157538" lon="5.856425933120368"><ele>258.0</ele><time>2026-04-05T14:41:37.001Z</time></trkpt><trkpt lat="45.657148422344584" lon="5.856502270788656"><ele>258.0</ele><time>2026-04-05T14:41:38.001Z</time></trkpt><trkpt lat="45.65703511752489" lon="5.856588856054458"><ele>258.0</ele><time>2026-04-05T14:41:39.001Z</time></trkpt><trkpt lat="45.656929903522055" lon="5.856686813243853"><ele>258.0</ele><time>2026-04-05T14:41:40.001Z</time></trkpt><trkpt lat="45.65683303130515" lon="5.85680155714453"><ele>255.5</ele><time>2026-04-05T14:41:41.001Z</time></trkpt><trkpt lat="45.656736587303605" lon="5.856911061343237"><ele>253.0</ele><time>2026-04-05T14:41:42.001Z</time></trkpt><trkpt lat="45.65662700173441" lon="5.85700448943976"><ele>250.5</ele><time>2026-04-05T14:41:43.001Z</time></trkpt><trkpt lat="45.656509565801436" lon="5.857106370501152"><ele>248.0</ele><time>2026-04-05T14:41:44.001Z</time></trkpt><trkpt lat="45.656391540464355" lon="5.857211538244979"><ele>248.0</ele><time>2026-04-05T14:41:45.001Z</time></trkpt><trkpt lat="45.65627402747348" lon="5.857318841518864"><ele>248.0</ele><time>2026-04-05T14:41:46.001Z</time></trkpt><trkpt lat="45.65616814940097" lon="5.85742060579443"><ele>248.0</ele><time>2026-04-05T14:41:47.001Z</time></trkpt><trkpt lat="45.65606582173765" lon="5.857513064903546"><ele>248.0</ele><time>2026-04-05T14:41:48.001Z</time></trkpt><trkpt lat="45.6559640914623" lon="5.85760342376876"><ele>247.25</ele><time>2026-04-05T14:41:49.001Z</time></trkpt><trkpt lat="45.655861652608074" lon="5.857697896591216"><ele>246.5</ele><time>2026-04-05T14:41:50.001Z</time></trkpt><trkpt lat="45.65576472293404" lon="5.8577872938617945"><ele>245.75</ele><time>2026-04-05T14:41:51.001Z</time></trkpt><trkpt lat="45.655669267650815" lon="5.857874638652156"><ele>245.0</ele><time>2026-04-05T14:41:52.001Z</time></trkpt><trkpt lat="45.655576216163766" lon="5.857960520383166"><ele>245.0</ele><time>2026-04-05T14:41:53.001Z</time></trkpt><trkpt lat="45.6554874817763" lon="5.858042673289389"><ele>245.0</ele><time>2026-04-05T14:41:54.001Z</time></trkpt><trkpt lat="45.655393999799955" lon="5.858133056548605"><ele>245.0</ele><time>2026-04-05T14:41:55.001Z</time></trkpt><trkpt lat="45.65530247871437" lon="5.858222411623611"><ele>245.0</ele><time>2026-04-05T14:41:56.002Z</time></trkpt><trkpt lat="45.65522033408531" lon="5.858300826063217"><ele>245.0</ele><time>2026-04-05T14:41:57.002Z</time></trkpt><trkpt lat="45.65513330138354" lon="5.858381169311438"><ele>243.6</ele><time>2026-04-05T14:41:58.002Z</time></trkpt><trkpt lat="45.65504219691889" lon="5.8584616924056485"><ele>242.2</ele><time>2026-04-05T14:41:59.002Z</time></trkpt><trkpt lat="45.654936305367116" lon="5.858529747455726"><ele>240.8</ele><time>2026-04-05T14:42:00.002Z</time></trkpt><trkpt lat="45.654830511145086" lon="5.858577979686157"><ele>239.4</ele><time>2026-04-05T14:42:01.002Z</time></trkpt><trkpt lat="45.654730906908085" lon="5.858597555821545"><ele>238.0</ele><time>2026-04-05T14:42:02.002Z</time></trkpt><trkpt lat="45.654635833321585" lon="5.858616486953382"><ele>237.99999999999997</ele><time>2026-04-05T14:42:03.002Z</time></trkpt><trkpt lat="45.6545468224266" lon="5.858642691412021"><ele>238.0</ele><time>2026-04-05T14:42:04.002Z</time></trkpt><trkpt lat="45.65446415033727" lon="5.858660740576541"><ele>238.0</ele><time>2026-04-05T14:42:05.002Z</time></trkpt><trkpt lat="45.65439044566954" lon="5.858681569280278"><ele>238.0</ele><time>2026-04-05T14:42:06.002Z</time></trkpt><trkpt lat="45.654313932714295" lon="5.858700294880173"><ele>237.99999999999997</ele><time>2026-04-05T14:42:07.002Z</time></trkpt><trkpt lat="45.65423730678297" lon="5.858720683885379"><ele>238.0</ele><time>2026-04-05T14:42:08.002Z</time></trkpt><trkpt lat="45.65416924811914" lon="5.8587396890202275"><ele>238.33333333333331</ele><time>2026-04-05T14:42:09.002Z</time></trkpt><trkpt lat="45.65410293573177" lon="5.858751845337147"><ele>238.66666666666666</ele><time>2026-04-05T14:42:10.002Z</time></trkpt><trkpt lat="45.65403131476322" lon="5.8587659166147"><ele>239.0</ele><time>2026-04-05T14:42:11.002Z</time></trkpt><trkpt lat="45.65394913304361" lon="5.858780142355437"><ele>239.33333333333331</ele><time>2026-04-05T14:42:12.002Z</time></trkpt><trkpt lat="45.65385510812092" lon="5.858799893088278"><ele>239.66666666666666</ele><time>2026-04-05T14:42:13.002Z</time></trkpt><trkpt lat="45.6537597543695" lon="5.858820707787628"><ele>240.0</ele><time>2026-04-05T14:42:14.002Z</time></trkpt><trkpt lat="45.65366844660515" lon="5.858805752573512"><ele>240.0</ele><time>2026-04-05T14:42:15.002Z</time></trkpt><trkpt lat="45.65358588555784" lon="5.8588782376754835"><ele>240.0</ele><time>2026-04-05T14:42:16.002Z</time></trkpt><trkpt lat="45.6534865250216" lon="5.858899091374904"><ele>240.0</ele><time>2026-04-05T14:42:17.002Z</time></trkpt><trkpt lat="45.653386985563365" lon="5.858922717429352"><ele>240.0</ele><time>2026-04-05T14:42:18.002Z</time></trkpt><trkpt lat="45.653292723052644" lon="5.85894811769843"><ele>240.0</ele><time>2026-04-05T14:42:19.002Z</time></trkpt><trkpt lat="45.65318979416717" lon="5.858978131232362"><ele>240.0</ele><time>2026-04-05T14:42:20.002Z</time></trkpt><trkpt lat="45.653083742126675" lon="5.859014054522008"><ele>240.0</ele><time>2026-04-05T14:42:21.002Z</time></trkpt><trkpt lat="45.65297754555861" lon="5.859056821630346"><ele>240.0</ele><time>2026-04-05T14:42:22.002Z</time></trkpt><trkpt lat="45.652867136230114" lon="5.8590926637800935"><ele>240.0</ele><time>2026-04-05T14:42:23.002Z</time></trkpt><trkpt lat="45.65275831713036" lon="5.859157599054521"><ele>240.25</ele><time>2026-04-05T14:42:24Z</time></trkpt><trkpt lat="45.65264725141055" lon="5.859232031199684"><ele>240.5</ele><time>2026-04-05T14:42:25Z</time></trkpt><trkpt lat="45.65253584860284" lon="5.859321087678925"><ele>240.75</ele><time>2026-04-05T14:42:26Z</time></trkpt><trkpt lat="45.65243348074786" lon="5.8594412645792735"><ele>241.0</ele><time>2026-04-05T14:42:27Z</time></trkpt><trkpt lat="45.652340179705654" lon="5.859571059642749"><ele>240.0</ele><time>2026-04-05T14:42:28Z</time></trkpt><trkpt lat="45.652251234401525" lon="5.85970861120789"><ele>239.0</ele><time>2026-04-05T14:42:29Z</time></trkpt><trkpt lat="45.652169929941536" lon="5.859853082880671"><ele>238.0</ele><time>2026-04-05T14:42:30Z</time></trkpt><trkpt lat="45.65209197050878" lon="5.860014683932792"><ele>237.0</ele><time>2026-04-05T14:42:31Z</time></trkpt><trkpt lat="45.65202536171005" lon="5.860202360048865"><ele>237.0</ele><time>2026-04-05T14:42:32Z</time></trkpt><trkpt lat="45.651952761496744" lon="5.860403178436591"><ele>237.0</ele><time>2026-04-05T14:42:33Z</time></trkpt><trkpt lat="45.65188465820329" lon="5.860548860620679"><ele>237.0</ele><time>2026-04-05T14:42:34Z</time></trkpt><trkpt lat="45.65182226713472" lon="5.860747752433056"><ele>237.0</ele><time>2026-04-05T14:42:35Z</time></trkpt><trkpt lat="45.6517745382906" lon="5.86094951077018"><ele>237.0</ele><time>2026-04-05T14:42:36Z</time></trkpt><trkpt lat="45.65173259129258" lon="5.8611474609613055"><ele>237.0</ele><time>2026-04-05T14:42:37Z</time></trkpt><trkpt lat="45.65169086282311" lon="5.861326925954869"><ele>237.0</ele><time>2026-04-05T14:42:38Z</time></trkpt><trkpt lat="45.65164118333118" lon="5.861508031109746"><ele>237.0</ele><time>2026-04-05T14:42:39Z</time></trkpt><trkpt lat="45.65160322530837" lon="5.861703137547098"><ele>237.0</ele><time>2026-04-05T14:42:40Z</time></trkpt><trkpt lat="45.65155213492015" lon="5.8618959901345695"><ele>237.0</ele><time>2026-04-05T14:42:41Z</time></trkpt><trkpt lat="45.651502893117325" lon="5.862092365267373"><ele>237.0</ele><time>2026-04-05T14:42:42Z</time></trkpt><trkpt lat="45.651452068193706" lon="5.862291667793172"><ele>237.0</ele><time>2026-04-05T14:42:43Z</time></trkpt><trkpt lat="45.65140105165369" lon="5.862478261489136"><ele>237.0</ele><time>2026-04-05T14:42:44Z</time></trkpt><trkpt lat="45.651350301509716" lon="5.86265247048505"><ele>237.0</ele><time>2026-04-05T14:42:45Z</time></trkpt><trkpt lat="45.65128812670606" lon="5.862832056967793"><ele>237.0</ele><time>2026-04-05T14:42:46Z</time></trkpt><trkpt lat="45.6512096784962" lon="5.863032991547161"><ele>237.0</ele><time>2026-04-05T14:42:47Z</time></trkpt><trkpt lat="45.651118292250786" lon="5.86324643349658"><ele>236.66666666666669</ele><time>2026-04-05T14:42:48Z</time></trkpt><trkpt lat="45.651007149037596" lon="5.863428114314344"><ele>236.33333333333334</ele><time>2026-04-05T14:42:49Z</time></trkpt><trkpt lat="45.65089223274161" lon="5.863617029583223"><ele>236.0</ele><time>2026-04-05T14:42:50Z</time></trkpt><trkpt lat="45.65076845409749" lon="5.863800142016213"><ele>236.33333333333334</ele><time>2026-04-05T14:42:51Z</time></trkpt><trkpt lat="45.650632655105525" lon="5.863972068303718"><ele>236.66666666666669</ele><time>2026-04-05T14:42:52Z</time></trkpt><trkpt lat="45.650486398201615" lon="5.864133728780078"><ele>237.0</ele><time>2026-04-05T14:42:53Z</time></trkpt><trkpt lat="45.650333520712124" lon="5.864281376230076"><ele>236.66666666666669</ele><time>2026-04-05T14:42:54Z</time></trkpt><trkpt lat="45.650173462297474" lon="5.864411915375137"><ele>236.33333333333334</ele><time>2026-04-05T14:42:55Z</time></trkpt><trkpt lat="45.65000573013903" lon="5.864530754515717"><ele>236.0</ele><time>2026-04-05T14:42:56Z</time></trkpt><trkpt lat="45.64982456012747" lon="5.8646425309309125"><ele>236.0</ele><time>2026-04-05T14:42:57Z</time></trkpt><trkpt lat="45.649656812278444" lon="5.864726059284128"><ele>236.0</ele><time>2026-04-05T14:42:58Z</time></trkpt><trkpt lat="45.649488260024164" lon="5.864783834691544"><ele>236.0</ele><time>2026-04-05T14:42:59Z</time></trkpt><trkpt lat="45.64932439747483" lon="5.864818267531495"><ele>235.75</ele><time>2026-04-05T14:43:00Z</time></trkpt><trkpt lat="45.64917175252225" lon="5.864842944558907"><ele>235.5</ele><time>2026-04-05T14:43:01Z</time></trkpt><trkpt lat="45.64903317692944" lon="5.864849014482758"><ele>235.25</ele><time>2026-04-05T14:43:02Z</time></trkpt><trkpt lat="45.648893249734535" lon="5.864827572793561"><ele>235.0</ele><time>2026-04-05T14:43:03Z</time></trkpt><trkpt lat="45.64876172524032" lon="5.864822665032521"><ele>235.0</ele><time>2026-04-05T14:43:04Z</time></trkpt><trkpt lat="45.64863954557742" lon="5.8648160878068865"><ele>235.0</ele><time>2026-04-05T14:43:05Z</time></trkpt><trkpt lat="45.64852732420171" lon="5.86479112242628"><ele>235.0</ele><time>2026-04-05T14:43:06Z</time></trkpt><trkpt lat="45.648420792680305" lon="5.864773491320858"><ele>235.0</ele><time>2026-04-05T14:43:07.001Z</time></trkpt><trkpt lat="45.64831874129392" lon="5.864747896933303"><ele>235.0</ele><time>2026-04-05T14:43:08.001Z</time></trkpt><trkpt lat="45.648224473380246" lon="5.864716081576397"><ele>234.6</ele><time>2026-04-05T14:43:09.001Z</time></trkpt><trkpt lat="45.648140852279134" lon="5.864682726051863"><ele>234.2</ele><time>2026-04-05T14:43:10.001Z</time></trkpt><trkpt lat="45.648074287858336" lon="5.864652045905968"><ele>233.8</ele><time>2026-04-05T14:43:11.001Z</time></trkpt><trkpt lat="45.6479679659042" lon="5.864586329440153"><ele>233.4</ele><time>2026-04-05T14:43:13.001Z</time></trkpt><trkpt lat="45.647904533418995" lon="5.864572339141713"><ele>233.0</ele><time>2026-04-05T14:43:14.001Z</time></trkpt><trkpt lat="45.64778103463501" lon="5.864608682170528"><ele>234.0</ele><time>2026-04-05T14:43:16.001Z</time></trkpt><trkpt lat="45.64769810385862" lon="5.864610642916968"><ele>235.0</ele><time>2026-04-05T14:43:17.001Z</time></trkpt><trkpt lat="45.6475920081176" lon="5.8646000913689385"><ele>236.0</ele><time>2026-04-05T14:43:18.001Z</time></trkpt><trkpt lat="45.647479732569636" lon="5.864542916984295"><ele>237.0</ele><time>2026-04-05T14:43:19.001Z</time></trkpt><trkpt lat="45.64734829670087" lon="5.864514928877943"><ele>238.0</ele><time>2026-04-05T14:43:20.001Z</time></trkpt><trkpt lat="45.64719464177653" lon="5.864503151070151"><ele>238.0</ele><time>2026-04-05T14:43:21.001Z</time></trkpt><trkpt lat="45.647024245176205" lon="5.864453354966779"><ele>238.0</ele><time>2026-04-05T14:43:22.001Z</time></trkpt><trkpt lat="45.64684871388007" lon="5.86440593974257"><ele>238.0</ele><time>2026-04-05T14:43:23.001Z</time></trkpt><trkpt lat="45.64666643985896" lon="5.864362024028355"><ele>238.66666666666666</ele><time>2026-04-05T14:43:24.001Z</time></trkpt><trkpt lat="45.64648951403715" lon="5.86431587144435"><ele>239.33333333333331</ele><time>2026-04-05T14:43:25.001Z</time></trkpt><trkpt lat="45.64632895686478" lon="5.864262389431712"><ele>240.0</ele><time>2026-04-05T14:43:26.001Z</time></trkpt><trkpt lat="45.64616750548732" lon="5.864226034337639"><ele>239.66666666666669</ele><time>2026-04-05T14:43:27.001Z</time></trkpt><trkpt lat="45.64600697327352" lon="5.864185044293183"><ele>239.33333333333334</ele><time>2026-04-05T14:43:28.001Z</time></trkpt><trkpt lat="45.64584997678222" lon="5.86414525261495"><ele>239.0</ele><time>2026-04-05T14:43:29.001Z</time></trkpt><trkpt lat="45.6456934365399" lon="5.864106824982744"><ele>239.0</ele><time>2026-04-05T14:43:30.001Z</time></trkpt><trkpt lat="45.645539297062605" lon="5.864060964424806"><ele>239.0</ele><time>2026-04-05T14:43:31.001Z</time></trkpt><trkpt lat="45.64538221275914" lon="5.863999932576338"><ele>239.0</ele><time>2026-04-05T14:43:32.001Z</time></trkpt><trkpt lat="45.645182637447085" lon="5.863859877472569"><ele>238.0</ele><time>2026-04-05T14:43:33.001Z</time></trkpt><trkpt lat="45.64492006296551" lon="5.863781598563133"><ele>237.0</ele><time>2026-04-05T14:43:34.001Z</time></trkpt><trkpt lat="45.644927529530605" lon="5.863890220168261"><ele>236.0</ele><time>2026-04-05T14:43:35.001Z</time></trkpt><trkpt lat="45.64478930516543" lon="5.86385453261095"><ele>236.0</ele><time>2026-04-05T14:43:36.001Z</time></trkpt><trkpt lat="45.64465807408886" lon="5.863821625107684"><ele>236.0</ele><time>2026-04-05T14:43:37.001Z</time></trkpt><trkpt lat="45.64452682110693" lon="5.863807739414855"><ele>236.0</ele><time>2026-04-05T14:43:38.001Z</time></trkpt><trkpt lat="45.644401476061695" lon="5.863769240106605"><ele>236.0</ele><time>2026-04-05T14:43:39.001Z</time></trkpt><trkpt lat="45.644282201355814" lon="5.863732177328599"><ele>236.75</ele><time>2026-04-05T14:43:40.001Z</time></trkpt><trkpt lat="45.64415692455548" lon="5.863699593250598"><ele>237.5</ele><time>2026-04-05T14:43:41.001Z</time></trkpt><trkpt lat="45.644029134303004" lon="5.863665299882993"><ele>238.25</ele><time>2026-04-05T14:43:42.001Z</time></trkpt><trkpt lat="45.6439094576964" lon="5.863635519576474"><ele>239.0</ele><time>2026-04-05T14:43:43.001Z</time></trkpt><trkpt lat="45.6437992344368" lon="5.863601335147759"><ele>239.0</ele><time>2026-04-05T14:43:44.001Z</time></trkpt><trkpt lat="45.64370102810022" lon="5.863566815706086"><ele>238.99999999999997</ele><time>2026-04-05T14:43:45.001Z</time></trkpt><trkpt lat="45.64360701202073" lon="5.863538610002418"><ele>238.99999999999997</ele><time>2026-04-05T14:43:46.001Z</time></trkpt><trkpt lat="45.643511174348625" lon="5.863507359963986"><ele>239.0</ele><time>2026-04-05T14:43:47.001Z</time></trkpt><trkpt lat="45.64341656562882" lon="5.863481041329632"><ele>239.0</ele><time>2026-04-05T14:43:48.001Z</time></trkpt><trkpt lat="45.643326270262406" lon="5.86347428884978"><ele>239.00000000000003</ele><time>2026-04-05T14:43:49.001Z</time></trkpt><trkpt lat="45.643244523065306" lon="5.863479092188771"><ele>239.0</ele><time>2026-04-05T14:43:50.001Z</time></trkpt><trkpt lat="45.64316766356263" lon="5.863453784538751"><ele>239.0</ele><time>2026-04-05T14:43:51.001Z</time></trkpt><trkpt lat="45.643094721446964" lon="5.863388527035571"><ele>239.0</ele><time>2026-04-05T14:43:52.001Z</time></trkpt><trkpt lat="45.6430365744474" lon="5.863291093826076"><ele>239.00000000000003</ele><time>2026-04-05T14:43:53.001Z</time></trkpt><trkpt lat="45.642975469839136" lon="5.863209900922554"><ele>239.0</ele><time>2026-04-05T14:43:54.001Z</time></trkpt><trkpt lat="45.64289991227373" lon="5.863166616224865"><ele>239.00000000000003</ele><time>2026-04-05T14:43:55.001Z</time></trkpt><trkpt lat="45.642811006468" lon="5.863164649467458"><ele>239.0</ele><time>2026-04-05T14:43:56.001Z</time></trkpt><trkpt lat="45.642735317148045" lon="5.863197967591592"><ele>239.0</ele><time>2026-04-05T14:43:57.001Z</time></trkpt><trkpt lat="45.64268146719804" lon="5.863288839933057"><ele>239.0</ele><time>2026-04-05T14:43:58.001Z</time></trkpt><trkpt lat="45.6426376241974" lon="5.863381556843837"><ele>239.00000000000003</ele><time>2026-04-05T14:43:59.001Z</time></trkpt><trkpt lat="45.642612020344075" lon="5.86346912677269"><ele>239.0</ele><time>2026-04-05T14:44:00.001Z</time></trkpt><trkpt lat="45.642609863994274" lon="5.863561165097534"><ele>239.50000000000003</ele><time>2026-04-05T14:44:01.001Z</time></trkpt><trkpt lat="45.64259551322179" lon="5.863656261981797"><ele>240.0</ele><time>2026-04-05T14:44:02.001Z</time></trkpt><trkpt lat="45.64249777456887" lon="5.863716968378424"><ele>240.5</ele><time>2026-04-05T14:44:03.001Z</time></trkpt><trkpt lat="45.64244532497658" lon="5.863776885495906"><ele>241.0</ele><time>2026-04-05T14:44:04.001Z</time></trkpt><trkpt lat="45.64238523400235" lon="5.863849372803381"><ele>241.50000000000003</ele><time>2026-04-05T14:44:05.001Z</time></trkpt><trkpt lat="45.64232167789098" lon="5.863936281076681"><ele>242.0</ele><time>2026-04-05T14:44:06.001Z</time></trkpt><trkpt lat="45.64225835780825" lon="5.8640316762038935"><ele>242.0</ele><time>2026-04-05T14:44:07.001Z</time></trkpt><trkpt lat="45.64219135075898" lon="5.864128423511286"><ele>242.0</ele><time>2026-04-05T14:44:08.001Z</time></trkpt><trkpt lat="45.64212702576268" lon="5.8642184336573875"><ele>242.0</ele><time>2026-04-05T14:44:09.001Z</time></trkpt><trkpt lat="45.64206168660219" lon="5.8643078767148324"><ele>242.0</ele><time>2026-04-05T14:44:10.001Z</time></trkpt><trkpt lat="45.641997129882114" lon="5.864395784705993"><ele>242.0</ele><time>2026-04-05T14:44:11.001Z</time></trkpt><trkpt lat="45.64193921686294" lon="5.864486473528803"><ele>241.66666666666669</ele><time>2026-04-05T14:44:12.001Z</time></trkpt><trkpt lat="45.64188206574321" lon="5.8645780643926235"><ele>241.33333333333334</ele><time>2026-04-05T14:44:13.002Z</time></trkpt><trkpt lat="45.641825722179306" lon="5.864672075585161"><ele>241.0</ele><time>2026-04-05T14:44:14.002Z</time></trkpt><trkpt lat="45.64176349890226" lon="5.864766548855824"><ele>240.66666666666669</ele><time>2026-04-05T14:44:15.002Z</time></trkpt><trkpt lat="45.64170655030687" lon="5.864859944113947"><ele>240.33333333333334</ele><time>2026-04-05T14:44:16.002Z</time></trkpt><trkpt lat="45.641656352748036" lon="5.864953288986053"><ele>240.0</ele><time>2026-04-05T14:44:17.002Z</time></trkpt><trkpt lat="45.641602439401495" lon="5.865045732974084"><ele>240.0</ele><time>2026-04-05T14:44:18.002Z</time></trkpt><trkpt lat="45.64153536020289" lon="5.86514986933098"><ele>240.0</ele><time>2026-04-05T14:44:19.002Z</time></trkpt><trkpt lat="45.64145906440359" lon="5.86527414484142"><ele>240.0</ele><time>2026-04-05T14:44:20.002Z</time></trkpt><trkpt lat="45.641376907813964" lon="5.865413377056305"><ele>240.0</ele><time>2026-04-05T14:44:21.002Z</time></trkpt><trkpt lat="45.64130779268627" lon="5.865552495299689"><ele>240.0</ele><time>2026-04-05T14:44:22.002Z</time></trkpt><trkpt lat="45.641225620945114" lon="5.8656805882852945"><ele>240.0</ele><time>2026-04-05T14:44:23.002Z</time></trkpt><trkpt lat="45.641141240880586" lon="5.8658133993783"><ele>240.0</ele><time>2026-04-05T14:44:24.002Z</time></trkpt><trkpt lat="45.641077140664905" lon="5.865948792816419"><ele>240.0</ele><time>2026-04-05T14:44:25.002Z</time></trkpt><trkpt lat="45.64099412766712" lon="5.8660936250615325"><ele>240.0</ele><time>2026-04-05T14:44:26.002Z</time></trkpt><trkpt lat="45.64090013040471" lon="5.866237229657965"><ele>240.0</ele><time>2026-04-05T14:44:27.002Z</time></trkpt><trkpt lat="45.640843640736364" lon="5.866374167062671"><ele>240.0</ele><time>2026-04-05T14:44:28.002Z</time></trkpt><trkpt lat="45.64079108042968" lon="5.866504119495844"><ele>240.0</ele><time>2026-04-05T14:44:29.002Z</time></trkpt><trkpt lat="45.64070314335579" lon="5.866619061231516"><ele>240.66666666666669</ele><time>2026-04-05T14:44:31Z</time></trkpt><trkpt lat="45.640601721808" lon="5.866797788915897"><ele>241.33333333333334</ele><time>2026-04-05T14:44:32Z</time></trkpt><trkpt lat="45.64050124040271" lon="5.866976918618048"><ele>242.0</ele><time>2026-04-05T14:44:33Z</time></trkpt><trkpt lat="45.64039318595354" lon="5.867151051287005"><ele>242.0</ele><time>2026-04-05T14:44:34Z</time></trkpt><trkpt lat="45.64030231535773" lon="5.8673055699833085"><ele>242.0</ele><time>2026-04-05T14:44:35Z</time></trkpt><trkpt lat="45.64026683239329" lon="5.867439697813514"><ele>242.0</ele><time>2026-04-05T14:44:36Z</time></trkpt><trkpt lat="45.640185592186214" lon="5.8675839764069115"><ele>242.0</ele><time>2026-04-05T14:44:37Z</time></trkpt><trkpt lat="45.64010834204466" lon="5.86772063915183"><ele>242.0</ele><time>2026-04-05T14:44:38Z</time></trkpt><trkpt lat="45.64004459112038" lon="5.8678474661576665"><ele>242.0</ele><time>2026-04-05T14:44:39Z</time></trkpt><trkpt lat="45.63998540231261" lon="5.8679568563698306"><ele>242.0</ele><time>2026-04-05T14:44:40Z</time></trkpt><trkpt lat="45.63992833359186" lon="5.8680608768109135"><ele>242.0</ele><time>2026-04-05T14:44:41Z</time></trkpt><trkpt lat="45.63987207665005" lon="5.868159883830772"><ele>242.0</ele><time>2026-04-05T14:44:42Z</time></trkpt><trkpt lat="45.6398067710946" lon="5.868268152703441"><ele>242.0</ele><time>2026-04-05T14:44:43Z</time></trkpt><trkpt lat="45.63974314672264" lon="5.868392688547852"><ele>242.0</ele><time>2026-04-05T14:44:44Z</time></trkpt><trkpt lat="45.63966921495325" lon="5.868527547680511"><ele>242.0</ele><time>2026-04-05T14:44:45Z</time></trkpt><trkpt lat="45.639591068177836" lon="5.86867404900359"><ele>242.0</ele><time>2026-04-05T14:44:46Z</time></trkpt><trkpt lat="45.63950649541351" lon="5.868821760676082"><ele>241.0</ele><time>2026-04-05T14:44:47Z</time></trkpt><trkpt lat="45.639416820884506" lon="5.86897236453534"><ele>240.0</ele><time>2026-04-05T14:44:48Z</time></trkpt><trkpt lat="45.63933153457424" lon="5.869136276557348"><ele>239.0</ele><time>2026-04-05T14:44:49Z</time></trkpt><trkpt lat="45.639240418108486" lon="5.869303042777941"><ele>238.0</ele><time>2026-04-05T14:44:50Z</time></trkpt><trkpt lat="45.63913905947617" lon="5.869473988560004"><ele>238.0</ele><time>2026-04-05T14:44:51Z</time></trkpt><trkpt lat="45.6390323153514" lon="5.8696504869025325"><ele>238.0</ele><time>2026-04-05T14:44:52Z</time></trkpt><trkpt lat="45.63892705028607" lon="5.86983014639875"><ele>238.0</ele><time>2026-04-05T14:44:53Z</time></trkpt><trkpt lat="45.638814123986855" lon="5.870014494715599"><ele>238.0</ele><time>2026-04-05T14:44:54Z</time></trkpt><trkpt lat="45.63870045076297" lon="5.870177523664281"><ele>238.0</ele><time>2026-04-05T14:44:55Z</time></trkpt><trkpt lat="45.638588884978354" lon="5.870331899157015"><ele>238.0</ele><time>2026-04-05T14:44:56Z</time></trkpt><trkpt lat="45.63846680844217" lon="5.870479361701815"><ele>238.33333333333331</ele><time>2026-04-05T14:44:57Z</time></trkpt><trkpt lat="45.63833929951268" lon="5.870597853788138"><ele>238.66666666666669</ele><time>2026-04-05T14:44:58Z</time></trkpt><trkpt lat="45.638207870195124" lon="5.8706818924083795"><ele>239.0</ele><time>2026-04-05T14:44:59Z</time></trkpt><trkpt lat="45.6381010908844" lon="5.870865904985254"><ele>238.33333333333334</ele><time>2026-04-05T14:45:00Z</time></trkpt><trkpt lat="45.637975048159774" lon="5.870986797713699"><ele>237.66666666666669</ele><time>2026-04-05T14:45:01Z</time></trkpt><trkpt lat="45.63785356094636" lon="5.8711172634877276"><ele>237.0</ele><time>2026-04-05T14:45:02Z</time></trkpt><trkpt lat="45.63771135495851" lon="5.871210841971615"><ele>237.0</ele><time>2026-04-05T14:45:03Z</time></trkpt><trkpt lat="45.63758543075623" lon="5.871307366858892"><ele>237.0</ele><time>2026-04-05T14:45:04Z</time></trkpt><trkpt lat="45.63746614819382" lon="5.871385354719285"><ele>237.0</ele><time>2026-04-05T14:45:05Z</time></trkpt><trkpt lat="45.63735915567866" lon="5.87145275474875"><ele>237.0</ele><time>2026-04-05T14:45:06Z</time></trkpt><trkpt lat="45.637279700439386" lon="5.871519515325411"><ele>237.0</ele><time>2026-04-05T14:45:07Z</time></trkpt><trkpt lat="45.63721948473046" lon="5.871561962044913"><ele>237.0</ele><time>2026-04-05T14:45:08Z</time></trkpt><trkpt lat="45.63714788344392" lon="5.871555742532531"><ele>237.0</ele><time>2026-04-05T14:45:10Z</time></trkpt><trkpt lat="45.637038051537054" lon="5.871474046594126"><ele>237.0</ele><time>2026-04-05T14:45:13Z</time></trkpt><trkpt lat="45.636957980008276" lon="5.871463325067559"><ele>237.0</ele><time>2026-04-05T14:45:14Z</time></trkpt><trkpt lat="45.63688853505023" lon="5.87149325638753"><ele>237.0</ele><time>2026-04-05T14:45:15Z</time></trkpt><trkpt lat="45.6368308539918" lon="5.871558329154503"><ele>236.83333333333334</ele><time>2026-04-05T14:45:16Z</time></trkpt><trkpt lat="45.636785196132045" lon="5.871650701805329"><ele>236.66666666666669</ele><time>2026-04-05T14:45:17Z</time></trkpt><trkpt lat="45.63674309034872" lon="5.871729230067406"><ele>236.5</ele><time>2026-04-05T14:45:18Z</time></trkpt><trkpt lat="45.63668589526574" lon="5.871797552682906"><ele>236.33333333333334</ele><time>2026-04-05T14:45:19Z</time></trkpt><trkpt lat="45.63660814650843" lon="5.871840179541952"><ele>236.16666666666669</ele><time>2026-04-05T14:45:20Z</time></trkpt><trkpt lat="45.63651372414901" lon="5.871843611071025"><ele>236.0</ele><time>2026-04-05T14:45:21Z</time></trkpt><trkpt lat="45.63641967306553" lon="5.8718813731628385"><ele>236.0</ele><time>2026-04-05T14:45:22Z</time></trkpt><trkpt lat="45.63630452654457" lon="5.871927605197519"><ele>236.0</ele><time>2026-04-05T14:45:23.001Z</time></trkpt><trkpt lat="45.63620107961689" lon="5.871969139776929"><ele>236.0</ele><time>2026-04-05T14:45:24.001Z</time></trkpt><trkpt lat="45.6360928492212" lon="5.872012700515645"><ele>236.0</ele><time>2026-04-05T14:45:25.001Z</time></trkpt><trkpt lat="45.63598437014089" lon="5.872057252183026"><ele>236.0</ele><time>2026-04-05T14:45:26.001Z</time></trkpt><trkpt lat="45.63585601958011" lon="5.872109964944372"><ele>236.0</ele><time>2026-04-05T14:45:27.001Z</time></trkpt><trkpt lat="45.63570611802393" lon="5.872170363955019"><ele>236.0</ele><time>2026-04-05T14:45:28.001Z</time></trkpt><trkpt lat="45.635532079341225" lon="5.872237964337533"><ele>236.0</ele><time>2026-04-05T14:45:29.001Z</time></trkpt><trkpt lat="45.63534297161755" lon="5.872311551395178"><ele>236.0</ele><time>2026-04-05T14:45:30.001Z</time></trkpt><trkpt lat="45.63515034635032" lon="5.872388649436585"><ele>236.0</ele><time>2026-04-05T14:45:31.001Z</time></trkpt><trkpt lat="45.634964776296606" lon="5.872483789499243"><ele>236.33333333333334</ele><time>2026-04-05T14:45:32.001Z</time></trkpt><trkpt lat="45.63478017753613" lon="5.872558345842435"><ele>236.66666666666669</ele><time>2026-04-05T14:45:33.001Z</time></trkpt><trkpt lat="45.63459390997419" lon="5.872612010338684"><ele>237.0</ele><time>2026-04-05T14:45:34.001Z</time></trkpt><trkpt lat="45.63440916846481" lon="5.872685301526985"><ele>237.33333333333331</ele><time>2026-04-05T14:45:35.001Z</time></trkpt><trkpt lat="45.634203043241385" lon="5.872765428127617"><ele>237.66666666666666</ele><time>2026-04-05T14:45:36.001Z</time></trkpt><trkpt lat="45.63397726546405" lon="5.872853168268253"><ele>238.0</ele><time>2026-04-05T14:45:37.001Z</time></trkpt><trkpt lat="45.633741910947315" lon="5.872944630049411"><ele>238.0</ele><time>2026-04-05T14:45:38.001Z</time></trkpt><trkpt lat="45.63350957183928" lon="5.873039879858681"><ele>238.0</ele><time>2026-04-05T14:45:39.001Z</time></trkpt><trkpt lat="45.63329254832268" lon="5.873143219227364"><ele>238.0</ele><time>2026-04-05T14:45:40.001Z</time></trkpt><trkpt lat="45.633093602079356" lon="5.8732739238680605"><ele>238.0</ele><time>2026-04-05T14:45:41.001Z</time></trkpt><trkpt lat="45.632890340330036" lon="5.873382757620586"><ele>238.0</ele><time>2026-04-05T14:45:42.001Z</time></trkpt><trkpt lat="45.632697668861596" lon="5.8735004825570725"><ele>238.0</ele><time>2026-04-05T14:45:43.001Z</time></trkpt><trkpt lat="45.63250137298437" lon="5.873615163071137"><ele>238.0</ele><time>2026-04-05T14:45:44.001Z</time></trkpt><trkpt lat="45.63230577404764" lon="5.873732962571085"><ele>238.0</ele><time>2026-04-05T14:45:45.001Z</time></trkpt><trkpt lat="45.63210857824185" lon="5.873846881688238"><ele>238.0</ele><time>2026-04-05T14:45:46.001Z</time></trkpt><trkpt lat="45.631917092797885" lon="5.873961965191981"><ele>238.0</ele><time>2026-04-05T14:45:47.001Z</time></trkpt><trkpt lat="45.631727346456216" lon="5.874074796763101"><ele>238.0</ele><time>2026-04-05T14:45:48.001Z</time></trkpt><trkpt lat="45.63153981394582" lon="5.874183483572274"><ele>238.0</ele><time>2026-04-05T14:45:49.001Z</time></trkpt><trkpt lat="45.63135238929157" lon="5.8742977692508695"><ele>238.0</ele><time>2026-04-05T14:45:50.001Z</time></trkpt><trkpt lat="45.63116937579186" lon="5.8744103292239345"><ele>238.0</ele><time>2026-04-05T14:45:51.001Z</time></trkpt><trkpt lat="45.63098976419635" lon="5.874521082168863"><ele>238.0</ele><time>2026-04-05T14:45:52.001Z</time></trkpt><trkpt lat="45.63080947932222" lon="5.874627886689367"><ele>238.0</ele><time>2026-04-05T14:45:53.001Z</time></trkpt><trkpt lat="45.63063269168477" lon="5.874732373913052"><ele>238.0</ele><time>2026-04-05T14:45:54.001Z</time></trkpt><trkpt lat="45.63045890588446" lon="5.874836422604871"><ele>238.0</ele><time>2026-04-05T14:45:55.001Z</time></trkpt><trkpt lat="45.630290420131864" lon="5.874938151556796"><ele>238.0</ele><time>2026-04-05T14:45:56.001Z</time></trkpt><trkpt lat="45.630120787176885" lon="5.875037060599287"><ele>238.0</ele><time>2026-04-05T14:45:57.001Z</time></trkpt><trkpt lat="45.629952276565746" lon="5.875130126686452"><ele>237.66666666666666</ele><time>2026-04-05T14:45:58.001Z</time></trkpt><trkpt lat="45.629781034943534" lon="5.875214019949647"><ele>237.33333333333331</ele><time>2026-04-05T14:45:59.001Z</time></trkpt><trkpt lat="45.629606717446094" lon="5.875289750871216"><ele>237.0</ele><time>2026-04-05T14:46:00.001Z</time></trkpt><trkpt lat="45.629430371293616" lon="5.875354147883427"><ele>237.0</ele><time>2026-04-05T14:46:01.001Z</time></trkpt><trkpt lat="45.6292538424074" lon="5.8754027243445055"><ele>237.0</ele><time>2026-04-05T14:46:02.001Z</time></trkpt><trkpt lat="45.629080794778424" lon="5.875432496769838"><ele>237.0</ele><time>2026-04-05T14:46:03.001Z</time></trkpt><trkpt lat="45.62890669093095" lon="5.875452660688364"><ele>237.0</ele><time>2026-04-05T14:46:04.001Z</time></trkpt><trkpt lat="45.628754612801764" lon="5.8754601130436015"><ele>237.0</ele><time>2026-04-05T14:46:05.001Z</time></trkpt><trkpt lat="45.6286047145817" lon="5.875467332411322"><ele>237.0</ele><time>2026-04-05T14:46:06.001Z</time></trkpt><trkpt lat="45.62840043214855" lon="5.875466161124006"><ele>237.0</ele><time>2026-04-05T14:46:07.001Z</time></trkpt><trkpt lat="45.62823235251162" lon="5.875483454495253"><ele>237.0</ele><time>2026-04-05T14:46:08.001Z</time></trkpt><trkpt lat="45.628066775409906" lon="5.8755004713678955"><ele>237.0</ele><time>2026-04-05T14:46:09.001Z</time></trkpt><trkpt lat="45.627902270260115" lon="5.8755217755204985"><ele>237.33333333333331</ele><time>2026-04-05T14:46:10.001Z</time></trkpt><trkpt lat="45.62774039281056" lon="5.875542624560288"><ele>237.66666666666666</ele><time>2026-04-05T14:46:11.001Z</time></trkpt><trkpt lat="45.627574657902116" lon="5.8755615862979464"><ele>238.0</ele><time>2026-04-05T14:46:12.001Z</time></trkpt><trkpt lat="45.62740903259988" lon="5.875585096757912"><ele>238.0</ele><time>2026-04-05T14:46:13.001Z</time></trkpt><trkpt lat="45.627249618628035" lon="5.8756113902118345"><ele>238.0</ele><time>2026-04-05T14:46:14.001Z</time></trkpt><trkpt lat="45.6270918158533" lon="5.875631659923887"><ele>238.0</ele><time>2026-04-05T14:46:15.001Z</time></trkpt><trkpt lat="45.626938072039664" lon="5.875646694871093"><ele>238.75</ele><time>2026-04-05T14:46:16.001Z</time></trkpt><trkpt lat="45.62679895892082" lon="5.875669766165292"><ele>239.5</ele><time>2026-04-05T14:46:17.001Z</time></trkpt><trkpt lat="45.62666739252925" lon="5.875695604811202"><ele>240.25</ele><time>2026-04-05T14:46:18.001Z</time></trkpt><trkpt lat="45.62654107417409" lon="5.875726957190376"><ele>241.0</ele><time>2026-04-05T14:46:19.001Z</time></trkpt><trkpt lat="45.62641922715558" lon="5.875758628240704"><ele>241.0</ele><time>2026-04-05T14:46:20.001Z</time></trkpt><trkpt lat="45.62630319037165" lon="5.875732223537651"><ele>241.0</ele><time>2026-04-05T14:46:21.001Z</time></trkpt><trkpt lat="45.62618311887191" lon="5.875738563158546"><ele>241.0</ele><time>2026-04-05T14:46:22.001Z</time></trkpt><trkpt lat="45.62605888369382" lon="5.8757903364204624"><ele>241.0</ele><time>2026-04-05T14:46:23.001Z</time></trkpt><trkpt lat="45.62578661488999" lon="5.875823385556327"><ele>241.0</ele><time>2026-04-05T14:46:25.002Z</time></trkpt><trkpt lat="45.62564589933987" lon="5.8758360009072526"><ele>241.0</ele><time>2026-04-05T14:46:26.002Z</time></trkpt><trkpt lat="45.62550089822504" lon="5.8758591165891785"><ele>241.0</ele><time>2026-04-05T14:46:27.002Z</time></trkpt><trkpt lat="45.62535840964653" lon="5.875886935952656"><ele>241.0</ele><time>2026-04-05T14:46:28.002Z</time></trkpt><trkpt lat="45.62521459369827" lon="5.875911596571221"><ele>240.66666666666666</ele><time>2026-04-05T14:46:29.002Z</time></trkpt><trkpt lat="45.62506521820507" lon="5.875925112086552"><ele>240.33333333333331</ele><time>2026-04-05T14:46:30.002Z</time></trkpt><trkpt lat="45.624907734684896" lon="5.875947376718674"><ele>240.0</ele><time>2026-04-05T14:46:31.002Z</time></trkpt><trkpt lat="45.62474741819529" lon="5.8759763743047415"><ele>240.0</ele><time>2026-04-05T14:46:32.002Z</time></trkpt><trkpt lat="45.62458637517716" lon="5.876010273073595"><ele>240.0</ele><time>2026-04-05T14:46:33.002Z</time></trkpt><trkpt lat="45.62443715505373" lon="5.87604467810579"><ele>240.0</ele><time>2026-04-05T14:46:34.002Z</time></trkpt><trkpt lat="45.62429855305845" lon="5.876081176657288"><ele>240.25</ele><time>2026-04-05T14:46:35.002Z</time></trkpt><trkpt lat="45.624167443060685" lon="5.876116061627916"><ele>240.5</ele><time>2026-04-05T14:46:35.999Z</time></trkpt><trkpt lat="45.6240412263894" lon="5.8761510716220835"><ele>240.75</ele><time>2026-04-05T14:46:36.999Z</time></trkpt><trkpt lat="45.62390908928755" lon="5.876192014520019"><ele>241.0</ele><time>2026-04-05T14:46:37.999Z</time></trkpt><trkpt lat="45.62377130065593" lon="5.876239935237519"><ele>241.0</ele><time>2026-04-05T14:46:38.999Z</time></trkpt><trkpt lat="45.62362991929618" lon="5.876291959271317"><ele>241.0</ele><time>2026-04-05T14:46:39.999Z</time></trkpt><trkpt lat="45.62348994615225" lon="5.876354510454149"><ele>241.0</ele><time>2026-04-05T14:46:40.999Z</time></trkpt><trkpt lat="45.62335056800482" lon="5.876418828753486"><ele>241.0</ele><time>2026-04-05T14:46:41.999Z</time></trkpt><trkpt lat="45.62321330156121" lon="5.876513781453029"><ele>241.0</ele><time>2026-04-05T14:46:42.999Z</time></trkpt><trkpt lat="45.62307821667361" lon="5.876609325564736"><ele>241.0</ele><time>2026-04-05T14:46:43.999Z</time></trkpt><trkpt lat="45.62294304513745" lon="5.876707273473948"><ele>241.0</ele><time>2026-04-05T14:46:44.999Z</time></trkpt><trkpt lat="45.622808701473616" lon="5.876813990694739"><ele>241.0</ele><time>2026-04-05T14:46:45.999Z</time></trkpt><trkpt lat="45.62267841274718" lon="5.876926312397711"><ele>241.0</ele><time>2026-04-05T14:46:46.999Z</time></trkpt><trkpt lat="45.622551150521716" lon="5.87704450648579"><ele>241.0</ele><time>2026-04-05T14:46:47.999Z</time></trkpt><trkpt lat="45.62242650760854" lon="5.877163787791881"><ele>241.0</ele><time>2026-04-05T14:46:48.999Z</time></trkpt><trkpt lat="45.62230461538233" lon="5.877288706054815"><ele>241.0</ele><time>2026-04-05T14:46:50Z</time></trkpt><trkpt lat="45.62218157561934" lon="5.8774143822040195"><ele>241.0</ele><time>2026-04-05T14:46:51Z</time></trkpt><trkpt lat="45.62205768811852" lon="5.877544329079142"><ele>240.66666666666666</ele><time>2026-04-05T14:46:52Z</time></trkpt><trkpt lat="45.62192987093022" lon="5.877674173693495"><ele>240.33333333333331</ele><time>2026-04-05T14:46:53Z</time></trkpt><trkpt lat="45.62180245158166" lon="5.87780495030681"><ele>240.0</ele><time>2026-04-05T14:46:54Z</time></trkpt><trkpt lat="45.621678097975746" lon="5.877941307252981"><ele>240.0</ele><time>2026-04-05T14:46:55Z</time></trkpt><trkpt lat="45.62154570215225" lon="5.878094853662145"><ele>240.0</ele><time>2026-04-05T14:46:56Z</time></trkpt><trkpt lat="45.62139174810675" lon="5.8782476084400255"><ele>240.0</ele><time>2026-04-05T14:46:57Z</time></trkpt><trkpt lat="45.62125700305017" lon="5.878373225539756"><ele>239.75</ele><time>2026-04-05T14:46:58Z</time></trkpt><trkpt lat="45.62115691090989" lon="5.878473849144797"><ele>239.5</ele><time>2026-04-05T14:46:59Z</time></trkpt><trkpt lat="45.62102982733139" lon="5.87853354292559"><ele>239.25</ele><time>2026-04-05T14:47:00Z</time></trkpt><trkpt lat="45.620898317320865" lon="5.878691808998094"><ele>239.0</ele><time>2026-04-05T14:47:01Z</time></trkpt><trkpt lat="45.62077526155708" lon="5.8788183107691205"><ele>240.0</ele><time>2026-04-05T14:47:02Z</time></trkpt><trkpt lat="45.62065233296162" lon="5.8789440413515"><ele>241.0</ele><time>2026-04-05T14:47:03Z</time></trkpt><trkpt lat="45.62052265337786" lon="5.879076468236787"><ele>242.0</ele><time>2026-04-05T14:47:04Z</time></trkpt><trkpt lat="45.62039696726864" lon="5.8792038585343676"><ele>242.33333333333334</ele><time>2026-04-05T14:47:05Z</time></trkpt><trkpt lat="45.62026778065547" lon="5.879325975763035"><ele>242.66666666666669</ele><time>2026-04-05T14:47:06Z</time></trkpt><trkpt lat="45.62014931265283" lon="5.879453332774694"><ele>243.0</ele><time>2026-04-05T14:47:07Z</time></trkpt><trkpt lat="45.62002577618638" lon="5.87957533095572"><ele>243.0</ele><time>2026-04-05T14:47:08Z</time></trkpt><trkpt lat="45.619900190560244" lon="5.87970704778652"><ele>243.0</ele><time>2026-04-05T14:47:09Z</time></trkpt><trkpt lat="45.619772991752114" lon="5.87984634177352"><ele>243.0</ele><time>2026-04-05T14:47:10Z</time></trkpt><trkpt lat="45.61964274517006" lon="5.879983617731991"><ele>243.0</ele><time>2026-04-05T14:47:11Z</time></trkpt><trkpt lat="45.61951259706184" lon="5.880122532639923"><ele>243.0</ele><time>2026-04-05T14:47:12Z</time></trkpt><trkpt lat="45.6193765269068" lon="5.88026099440465"><ele>243.0</ele><time>2026-04-05T14:47:13Z</time></trkpt><trkpt lat="45.61924439924405" lon="5.880402095163409"><ele>242.33333333333331</ele><time>2026-04-05T14:47:14Z</time></trkpt><trkpt lat="45.6191143140927" lon="5.880545197475986"><ele>241.66666666666666</ele><time>2026-04-05T14:47:15Z</time></trkpt><trkpt lat="45.61898087980291" lon="5.880686641943224"><ele>241.0</ele><time>2026-04-05T14:47:16Z</time></trkpt><trkpt lat="45.61884849726498" lon="5.880829432638628"><ele>241.0</ele><time>2026-04-05T14:47:17Z</time></trkpt><trkpt lat="45.618718718346535" lon="5.880967156671346"><ele>241.0</ele><time>2026-04-05T14:47:18Z</time></trkpt><trkpt lat="45.618586569885004" lon="5.881106507013726"><ele>241.0</ele><time>2026-04-05T14:47:19Z</time></trkpt><trkpt lat="45.618451431448925" lon="5.8812439962656775"><ele>241.0</ele><time>2026-04-05T14:47:20Z</time></trkpt><trkpt lat="45.61831625971034" lon="5.8813831462900374"><ele>241.0</ele><time>2026-04-05T14:47:21Z</time></trkpt><trkpt lat="45.61818294571324" lon="5.881526686889132"><ele>241.0</ele><time>2026-04-05T14:47:22Z</time></trkpt><trkpt lat="45.61804482159247" lon="5.881660885192823"><ele>240.66666666666666</ele><time>2026-04-05T14:47:23Z</time></trkpt><trkpt lat="45.617912061880354" lon="5.881798546352919"><ele>240.33333333333331</ele><time>2026-04-05T14:47:24Z</time></trkpt><trkpt lat="45.6177740380714" lon="5.881933516901478"><ele>240.0</ele><time>2026-04-05T14:47:25Z</time></trkpt><trkpt lat="45.61763751569595" lon="5.882070887304857"><ele>240.66666666666669</ele><time>2026-04-05T14:47:26Z</time></trkpt><trkpt lat="45.617501062184324" lon="5.882213695133857"><ele>241.33333333333334</ele><time>2026-04-05T14:47:27Z</time></trkpt><trkpt lat="45.61736207823955" lon="5.882357399538817"><ele>242.0</ele><time>2026-04-05T14:47:28Z</time></trkpt><trkpt lat="45.61722286424276" lon="5.8824966789736655"><ele>241.66666666666669</ele><time>2026-04-05T14:47:29Z</time></trkpt><trkpt lat="45.61708881178062" lon="5.882625348525757"><ele>241.33333333333331</ele><time>2026-04-05T14:47:30Z</time></trkpt><trkpt lat="45.616953175840095" lon="5.882744493375309"><ele>241.0</ele><time>2026-04-05T14:47:31Z</time></trkpt><trkpt lat="45.61682390479638" lon="5.882860763444582"><ele>241.66666666666666</ele><time>2026-04-05T14:47:32Z</time></trkpt><trkpt lat="45.6166932920915" lon="5.882998875977893"><ele>242.33333333333331</ele><time>2026-04-05T14:47:33Z</time></trkpt><trkpt lat="45.61659877255103" lon="5.883170905586356"><ele>243.0</ele><time>2026-04-05T14:47:34.001Z</time></trkpt><trkpt lat="45.61648203095995" lon="5.883324671566415"><ele>243.33333333333331</ele><time>2026-04-05T14:47:35.001Z</time></trkpt><trkpt lat="45.61636283380246" lon="5.883467682792013"><ele>243.66666666666666</ele><time>2026-04-05T14:47:36.001Z</time></trkpt><trkpt lat="45.61618160935152" lon="5.883506211714226"><ele>244.0</ele><time>2026-04-05T14:47:37.001Z</time></trkpt><trkpt lat="45.616011998263076" lon="5.883519937382477"><ele>244.0</ele><time>2026-04-05T14:47:38.001Z</time></trkpt><trkpt lat="45.615856715097046" lon="5.883569828436778"><ele>244.0</ele><time>2026-04-05T14:47:39.001Z</time></trkpt><trkpt lat="45.61571008686185" lon="5.88363253178704"><ele>244.0</ele><time>2026-04-05T14:47:40.001Z</time></trkpt><trkpt lat="45.61555635784935" lon="5.883675408026285"><ele>244.0</ele><time>2026-04-05T14:47:41.001Z</time></trkpt><trkpt lat="45.615399338652374" lon="5.8837045959833505"><ele>244.0</ele><time>2026-04-05T14:47:42.001Z</time></trkpt><trkpt lat="45.615250995809085" lon="5.883752987353397"><ele>244.0</ele><time>2026-04-05T14:47:43.001Z</time></trkpt><trkpt lat="45.61509505426171" lon="5.883812021703491"><ele>244.0</ele><time>2026-04-05T14:47:44.001Z</time></trkpt><trkpt lat="45.61494145122765" lon="5.883894656074809"><ele>244.0</ele><time>2026-04-05T14:47:45.001Z</time></trkpt><trkpt lat="45.614783891042094" lon="5.88399671302561"><ele>244.0</ele><time>2026-04-05T14:47:46.001Z</time></trkpt><trkpt lat="45.614634991956365" lon="5.88406178505085"><ele>244.0</ele><time>2026-04-05T14:47:47.001Z</time></trkpt><trkpt lat="45.61448231385491" lon="5.884156590154905"><ele>244.0</ele><time>2026-04-05T14:47:48.001Z</time></trkpt><trkpt lat="45.614328581378324" lon="5.884262188148987"><ele>244.0</ele><time>2026-04-05T14:47:49.001Z</time></trkpt><trkpt lat="45.61417558770445" lon="5.884368785015639"><ele>244.0</ele><time>2026-04-05T14:47:50.001Z</time></trkpt><trkpt lat="45.61402142653397" lon="5.884470098634368"><ele>244.0</ele><time>2026-04-05T14:47:51.001Z</time></trkpt><trkpt lat="45.613862415328256" lon="5.884580503694362"><ele>244.0</ele><time>2026-04-05T14:47:52.001Z</time></trkpt><trkpt lat="45.61370433118191" lon="5.884685654731984"><ele>243.66666666666666</ele><time>2026-04-05T14:47:53.001Z</time></trkpt><trkpt lat="45.61354691290743" lon="5.8847888384546465"><ele>243.33333333333331</ele><time>2026-04-05T14:47:54.001Z</time></trkpt><trkpt lat="45.61338252577544" lon="5.88490056709485"><ele>243.0</ele><time>2026-04-05T14:47:55.001Z</time></trkpt><trkpt lat="45.61321490635515" lon="5.885014906575498"><ele>243.33333333333331</ele><time>2026-04-05T14:47:56.001Z</time></trkpt><trkpt lat="45.613044949941916" lon="5.885122696754474"><ele>243.66666666666666</ele><time>2026-04-05T14:47:57.001Z</time></trkpt><trkpt lat="45.612877042266994" lon="5.885226973919061"><ele>244.0</ele><time>2026-04-05T14:47:58.001Z</time></trkpt><trkpt lat="45.612703364189194" lon="5.885334376217498"><ele>244.0</ele><time>2026-04-05T14:47:59.001Z</time></trkpt><trkpt lat="45.61252249156622" lon="5.885455663883651"><ele>244.0</ele><time>2026-04-05T14:48:00.001Z</time></trkpt><trkpt lat="45.612342619987174" lon="5.8855705487306516"><ele>244.0</ele><time>2026-04-05T14:48:01.001Z</time></trkpt><trkpt lat="45.61215437550285" lon="5.885678813756484"><ele>244.33333333333331</ele><time>2026-04-05T14:48:02.001Z</time></trkpt><trkpt lat="45.61196440479195" lon="5.885800994045755"><ele>244.66666666666669</ele><time>2026-04-05T14:48:03.001Z</time></trkpt><trkpt lat="45.61177054615172" lon="5.885927664176827"><ele>245.0</ele><time>2026-04-05T14:48:04.001Z</time></trkpt><trkpt lat="45.611569509305" lon="5.886017034464169"><ele>245.0</ele><time>2026-04-05T14:48:05.001Z</time></trkpt><trkpt lat="45.61137344922654" lon="5.886164329815014"><ele>245.0</ele><time>2026-04-05T14:48:06.001Z</time></trkpt><trkpt lat="45.61118195667371" lon="5.886288844658995"><ele>245.0</ele><time>2026-04-05T14:48:07.001Z</time></trkpt><trkpt lat="45.61098897749469" lon="5.886412271189852"><ele>245.0</ele><time>2026-04-05T14:48:08.001Z</time></trkpt><trkpt lat="45.6107977506104" lon="5.886535754124822"><ele>245.0</ele><time>2026-04-05T14:48:09.001Z</time></trkpt><trkpt lat="45.61061540286697" lon="5.886658936840583"><ele>245.0</ele><time>2026-04-05T14:48:10.001Z</time></trkpt><trkpt lat="45.61041440932084" lon="5.886783759136166"><ele>245.33333333333334</ele><time>2026-04-05T14:48:11.001Z</time></trkpt><trkpt lat="45.61022200705125" lon="5.886906460810438"><ele>245.66666666666669</ele><time>2026-04-05T14:48:12.001Z</time></trkpt><trkpt lat="45.61003240008299" lon="5.887033078350821"><ele>246.0</ele><time>2026-04-05T14:48:13.001Z</time></trkpt><trkpt lat="45.609841631940625" lon="5.887161900387477"><ele>246.0</ele><time>2026-04-05T14:48:14.001Z</time></trkpt><trkpt lat="45.60965157286768" lon="5.887286197432841"><ele>246.0</ele><time>2026-04-05T14:48:15.001Z</time></trkpt><trkpt lat="45.609456642900525" lon="5.8874120387316875"><ele>246.0</ele><time>2026-04-05T14:48:16.001Z</time></trkpt><trkpt lat="45.60926145008264" lon="5.887541113105695"><ele>246.0</ele><time>2026-04-05T14:48:17.001Z</time></trkpt><trkpt lat="45.60905791455125" lon="5.8876718464809725"><ele>246.0</ele><time>2026-04-05T14:48:18.001Z</time></trkpt><trkpt lat="45.60884989752745" lon="5.887790854033431"><ele>246.0</ele><time>2026-04-05T14:48:19.001Z</time></trkpt><trkpt lat="45.608642838482496" lon="5.887914826435314"><ele>246.0</ele><time>2026-04-05T14:48:20.001Z</time></trkpt><trkpt lat="45.60843750053866" lon="5.888041538079865"><ele>246.0</ele><time>2026-04-05T14:48:21.001Z</time></trkpt><trkpt lat="45.60823294620069" lon="5.888170830221721"><ele>246.0</ele><time>2026-04-05T14:48:22.001Z</time></trkpt><trkpt lat="45.608025513578795" lon="5.888298227360399"><ele>246.33333333333331</ele><time>2026-04-05T14:48:23.001Z</time></trkpt><trkpt lat="45.607819935287" lon="5.888420549601317"><ele>246.66666666666666</ele><time>2026-04-05T14:48:24.001Z</time></trkpt><trkpt lat="45.607610535873036" lon="5.888542376589109"><ele>247.0</ele><time>2026-04-05T14:48:25.001Z</time></trkpt><trkpt lat="45.607404754440275" lon="5.88866741416099"><ele>247.5</ele><time>2026-04-05T14:48:26.001Z</time></trkpt><trkpt lat="45.60719643597416" lon="5.888790347010441"><ele>248.0</ele><time>2026-04-05T14:48:27.001Z</time></trkpt><trkpt lat="45.60698683930773" lon="5.8889153090592465"><ele>248.0</ele><time>2026-04-05T14:48:28.001Z</time></trkpt><trkpt lat="45.606772267856904" lon="5.889010898364606"><ele>248.0</ele><time>2026-04-05T14:48:29.001Z</time></trkpt><trkpt lat="45.606574154380844" lon="5.889135600674444"><ele>248.0</ele><time>2026-04-05T14:48:30.002Z</time></trkpt><trkpt lat="45.60636392243787" lon="5.889291919532933"><ele>247.66666666666669</ele><time>2026-04-05T14:48:31.002Z</time></trkpt><trkpt lat="45.606158843942914" lon="5.8894194827468285"><ele>247.33333333333331</ele><time>2026-04-05T14:48:32.002Z</time></trkpt><trkpt lat="45.60595181780222" lon="5.88954644624773"><ele>247.0</ele><time>2026-04-05T14:48:33.002Z</time></trkpt><trkpt lat="45.605749462022" lon="5.889669382131923"><ele>247.0</ele><time>2026-04-05T14:48:34.002Z</time></trkpt><trkpt lat="45.60553712113728" lon="5.889801442707225"><ele>247.0</ele><time>2026-04-05T14:48:35.002Z</time></trkpt><trkpt lat="45.6053336220886" lon="5.889927836728243"><ele>247.5</ele><time>2026-04-05T14:48:36.002Z</time></trkpt><trkpt lat="45.60512594635475" lon="5.8900546500878885"><ele>248.0</ele><time>2026-04-05T14:48:37.002Z</time></trkpt><trkpt lat="45.604914071732594" lon="5.890179462737983"><ele>248.0</ele><time>2026-04-05T14:48:38.002Z</time></trkpt><trkpt lat="45.60470027461084" lon="5.890309274358788"><ele>248.0</ele><time>2026-04-05T14:48:39.002Z</time></trkpt><trkpt lat="45.60448396089797" lon="5.8904397956833385"><ele>247.5</ele><time>2026-04-05T14:48:40.002Z</time></trkpt><trkpt lat="45.604273905930235" lon="5.890577903785598"><ele>247.0</ele><time>2026-04-05T14:48:41.002Z</time></trkpt><trkpt lat="45.60407654578783" lon="5.890730781914472"><ele>247.0</ele><time>2026-04-05T14:48:41.999Z</time></trkpt><trkpt lat="45.603841403513755" lon="5.8908369271314545"><ele>247.0</ele><time>2026-04-05T14:48:42.999Z</time></trkpt><trkpt lat="45.60362439661288" lon="5.890970327409249"><ele>247.5</ele><time>2026-04-05T14:48:43.999Z</time></trkpt><trkpt lat="45.60341111163613" lon="5.891100134942566"><ele>248.0</ele><time>2026-04-05T14:48:44.999Z</time></trkpt><trkpt lat="45.6031912712957" lon="5.891231519189162"><ele>248.0</ele><time>2026-04-05T14:48:45.999Z</time></trkpt><trkpt lat="45.60297009528488" lon="5.8913611466085225"><ele>248.0</ele><time>2026-04-05T14:48:46.999Z</time></trkpt><trkpt lat="45.60274677025207" lon="5.891489842926609"><ele>248.5</ele><time>2026-04-05T14:48:47.999Z</time></trkpt><trkpt lat="45.602529782464224" lon="5.891617565152849"><ele>249.0</ele><time>2026-04-05T14:48:48.999Z</time></trkpt><trkpt lat="45.60230145218612" lon="5.89175614327046"><ele>248.5</ele><time>2026-04-05T14:48:49.999Z</time></trkpt><trkpt lat="45.60207539899151" lon="5.891869688485809"><ele>248.0</ele><time>2026-04-05T14:48:50.999Z</time></trkpt><trkpt lat="45.60184480529813" lon="5.891977373225351"><ele>248.0</ele><time>2026-04-05T14:48:51.999Z</time></trkpt><trkpt lat="45.601609811157225" lon="5.892077225389363"><ele>248.0</ele><time>2026-04-05T14:48:52.999Z</time></trkpt><trkpt lat="45.60137120430688" lon="5.892172192869368"><ele>248.5</ele><time>2026-04-05T14:48:53.999Z</time></trkpt><trkpt lat="45.60113590379735" lon="5.892255461695512"><ele>249.0</ele><time>2026-04-05T14:48:54.999Z</time></trkpt><trkpt lat="45.60089854974642" lon="5.892326071345112"><ele>249.0</ele><time>2026-04-05T14:48:55.999Z</time></trkpt><trkpt lat="45.6006660799731" lon="5.892382188711675"><ele>249.0</ele><time>2026-04-05T14:48:56.999Z</time></trkpt><trkpt lat="45.60043689107568" lon="5.892436168618463"><ele>249.5</ele><time>2026-04-05T14:48:58Z</time></trkpt><trkpt lat="45.60020382438637" lon="5.892486110639311"><ele>250.0</ele><time>2026-04-05T14:48:59Z</time></trkpt><trkpt lat="45.599969764235766" lon="5.89252491679754"><ele>250.0</ele><time>2026-04-05T14:49:00Z</time></trkpt><trkpt lat="45.59973603461145" lon="5.892561924542344"><ele>250.0</ele><time>2026-04-05T14:49:01Z</time></trkpt><trkpt lat="45.59949830134206" lon="5.892596553048218"><ele>250.5</ele><time>2026-04-05T14:49:02Z</time></trkpt><trkpt lat="45.59926482404934" lon="5.8926337641270665"><ele>251.0</ele><time>2026-04-05T14:49:03Z</time></trkpt><trkpt lat="45.59903746570342" lon="5.892680219970169"><ele>251.0</ele><time>2026-04-05T14:49:04Z</time></trkpt><trkpt lat="45.59880891572704" lon="5.892702772292009"><ele>251.0</ele><time>2026-04-05T14:49:05Z</time></trkpt><trkpt lat="45.59857548860763" lon="5.892737995349193"><ele>251.0</ele><time>2026-04-05T14:49:06Z</time></trkpt><trkpt lat="45.59833985956902" lon="5.89276988127152"><ele>251.0</ele><time>2026-04-05T14:49:07Z</time></trkpt><trkpt lat="45.598107600324205" lon="5.8928538562980055"><ele>251.0</ele><time>2026-04-05T14:49:08Z</time></trkpt><trkpt lat="45.59787460164945" lon="5.892914756913955"><ele>251.0</ele><time>2026-04-05T14:49:09Z</time></trkpt><trkpt lat="45.59764930499149" lon="5.892970183788943"><ele>252.0</ele><time>2026-04-05T14:49:10Z</time></trkpt><trkpt lat="45.59742857327766" lon="5.893040110191805"><ele>253.0</ele><time>2026-04-05T14:49:11Z</time></trkpt><trkpt lat="45.597206254352685" lon="5.893116053902919"><ele>253.0</ele><time>2026-04-05T14:49:12Z</time></trkpt><trkpt lat="45.59698307614354" lon="5.893200709708618"><ele>253.0</ele><time>2026-04-05T14:49:13Z</time></trkpt><trkpt lat="45.596761609472054" lon="5.893287399033237"><ele>253.0</ele><time>2026-04-05T14:49:14Z</time></trkpt><trkpt lat="45.59655041970604" lon="5.893376196999066"><ele>253.0</ele><time>2026-04-05T14:49:15Z</time></trkpt><trkpt lat="45.59634306012679" lon="5.89346788108046"><ele>253.0</ele><time>2026-04-05T14:49:16Z</time></trkpt><trkpt lat="45.596133199775274" lon="5.8935701033058345"><ele>254.0</ele><time>2026-04-05T14:49:17Z</time></trkpt><trkpt lat="45.59591920559159" lon="5.893674395530061"><ele>255.0</ele><time>2026-04-05T14:49:18Z</time></trkpt><trkpt lat="45.59570526891114" lon="5.893788795976296"><ele>255.0</ele><time>2026-04-05T14:49:19Z</time></trkpt><trkpt lat="45.59549180094322" lon="5.893911714996852"><ele>255.0</ele><time>2026-04-05T14:49:20Z</time></trkpt><trkpt lat="45.59527893460004" lon="5.894051824254977"><ele>255.0</ele><time>2026-04-05T14:49:21Z</time></trkpt><trkpt lat="45.59507134186084" lon="5.8941905894121795"><ele>255.0</ele><time>2026-04-05T14:49:22Z</time></trkpt><trkpt lat="45.594850223838534" lon="5.894346695975681"><ele>254.5</ele><time>2026-04-05T14:49:23Z</time></trkpt><trkpt lat="45.59465684563673" lon="5.894512653930263"><ele>254.0</ele><time>2026-04-05T14:49:24Z</time></trkpt><trkpt lat="45.594451380361726" lon="5.8946704424418925"><ele>252.5</ele><time>2026-04-05T14:49:25Z</time></trkpt><trkpt lat="45.5942501647177" lon="5.894836360457087"><ele>251.0</ele><time>2026-04-05T14:49:26Z</time></trkpt><trkpt lat="45.594050461799526" lon="5.895008656837765"><ele>252.0</ele><time>2026-04-05T14:49:27Z</time></trkpt><trkpt lat="45.59385186305067" lon="5.895185405126317"><ele>253.0</ele><time>2026-04-05T14:49:28Z</time></trkpt><trkpt lat="45.593662246118946" lon="5.895373315276587"><ele>253.5</ele><time>2026-04-05T14:49:29Z</time></trkpt><trkpt lat="45.593472310178825" lon="5.895559337882999"><ele>254.0</ele><time>2026-04-05T14:49:30Z</time></trkpt><trkpt lat="45.593285567446785" lon="5.895752035900117"><ele>253.5</ele><time>2026-04-05T14:49:31Z</time></trkpt><trkpt lat="45.59310386334819" lon="5.895950134963378"><ele>253.0</ele><time>2026-04-05T14:49:32Z</time></trkpt><trkpt lat="45.59292555379393" lon="5.896152359433092"><ele>254.5</ele><time>2026-04-05T14:49:33Z</time></trkpt><trkpt lat="45.592749303336" lon="5.896354133345445"><ele>256.0</ele><time>2026-04-05T14:49:34.001Z</time></trkpt><trkpt lat="45.59257513900014" lon="5.896556862725439"><ele>255.33333333333331</ele><time>2026-04-05T14:49:35.001Z</time></trkpt><trkpt lat="45.592401300399" lon="5.896760243098061"><ele>254.66666666666669</ele><time>2026-04-05T14:49:36.001Z</time></trkpt><trkpt lat="45.59222693929488" lon="5.896962946231723"><ele>254.0</ele><time>2026-04-05T14:49:37.001Z</time></trkpt><trkpt lat="45.592050853422066" lon="5.897164625215625"><ele>255.0</ele><time>2026-04-05T14:49:38.001Z</time></trkpt><trkpt lat="45.59187769009636" lon="5.897369191094283"><ele>256.0</ele><time>2026-04-05T14:49:39.001Z</time></trkpt><trkpt lat="45.591707176781014" lon="5.897579112560861"><ele>255.5</ele><time>2026-04-05T14:49:40.001Z</time></trkpt><trkpt lat="45.5915368030752" lon="5.897786716584926"><ele>255.0</ele><time>2026-04-05T14:49:41.001Z</time></trkpt><trkpt lat="45.59136179927842" lon="5.897990664282079"><ele>255.0</ele><time>2026-04-05T14:49:42.001Z</time></trkpt><trkpt lat="45.591187545591914" lon="5.898191808256201"><ele>255.0</ele><time>2026-04-05T14:49:43.001Z</time></trkpt><trkpt lat="45.59101337177075" lon="5.898394036672234"><ele>255.0</ele><time>2026-04-05T14:49:44.001Z</time></trkpt><trkpt lat="45.5908412970485" lon="5.898597336545907"><ele>255.0</ele><time>2026-04-05T14:49:45.001Z</time></trkpt><trkpt lat="45.590669145058676" lon="5.898801943472099"><ele>255.0</ele><time>2026-04-05T14:49:46.001Z</time></trkpt><trkpt lat="45.59050010091627" lon="5.899007091563682"><ele>255.0</ele><time>2026-04-05T14:49:47.001Z</time></trkpt><trkpt lat="45.59033297948556" lon="5.8992189132623745"><ele>256.0</ele><time>2026-04-05T14:49:48.001Z</time></trkpt><trkpt lat="45.59017007959222" lon="5.899433566078863"><ele>257.0</ele><time>2026-04-05T14:49:49.001Z</time></trkpt><trkpt lat="45.59000623013282" lon="5.8996507829844465"><ele>258.0</ele><time>2026-04-05T14:49:50.001Z</time></trkpt><trkpt lat="45.58984333012997" lon="5.899865638109174"><ele>257.6666666666667</ele><time>2026-04-05T14:49:51.001Z</time></trkpt><trkpt lat="45.58968032695223" lon="5.900083944859057"><ele>257.33333333333337</ele><time>2026-04-05T14:49:52.001Z</time></trkpt><trkpt lat="45.58951847547944" lon="5.900309027013363"><ele>257.0</ele><time>2026-04-05T14:49:53.001Z</time></trkpt><trkpt lat="45.58935922634253" lon="5.900539820519473"><ele>256.5</ele><time>2026-04-05T14:49:54.001Z</time></trkpt><trkpt lat="45.58920250763082" lon="5.900774409479689"><ele>256.0</ele><time>2026-04-05T14:49:55.001Z</time></trkpt><trkpt lat="45.589041451906425" lon="5.901012905211388"><ele>257.5</ele><time>2026-04-05T14:49:56.001Z</time></trkpt><trkpt lat="45.5888770971126" lon="5.901246572405702"><ele>259.0</ele><time>2026-04-05T14:49:57.001Z</time></trkpt><trkpt lat="45.58872791278186" lon="5.9014817349556346"><ele>260.5</ele><time>2026-04-05T14:49:58.001Z</time></trkpt><trkpt lat="45.58857264848428" lon="5.901717756823944"><ele>262.0</ele><time>2026-04-05T14:49:59.001Z</time></trkpt><trkpt lat="45.588415429472" lon="5.901954955144553"><ele>262.0</ele><time>2026-04-05T14:50:00.001Z</time></trkpt><trkpt lat="45.58826040553397" lon="5.902192181823243"><ele>262.0</ele><time>2026-04-05T14:50:01.001Z</time></trkpt><trkpt lat="45.58810610359188" lon="5.902427069058737"><ele>261.5</ele><time>2026-04-05T14:50:02.001Z</time></trkpt><trkpt lat="45.58794881384387" lon="5.902661982654418"><ele>261.0</ele><time>2026-04-05T14:50:03.001Z</time></trkpt><trkpt lat="45.58779336476973" lon="5.902898487065523"><ele>260.0</ele><time>2026-04-05T14:50:04.001Z</time></trkpt><trkpt lat="45.58762944523708" lon="5.903161134485456"><ele>259.0</ele><time>2026-04-05T14:50:05.001Z</time></trkpt><trkpt lat="45.58745600171922" lon="5.9034239836475"><ele>259.0</ele><time>2026-04-05T14:50:06.001Z</time></trkpt><trkpt lat="45.58729228668288" lon="5.903665682881439"><ele>259.0</ele><time>2026-04-05T14:50:07.001Z</time></trkpt><trkpt lat="45.587123620279485" lon="5.903886867038514"><ele>259.0</ele><time>2026-04-05T14:50:08.001Z</time></trkpt><trkpt lat="45.58696490015404" lon="5.904111209118054"><ele>259.0</ele><time>2026-04-05T14:50:09.001Z</time></trkpt><trkpt lat="45.586807633649094" lon="5.904346308794149"><ele>259.0</ele><time>2026-04-05T14:50:10.001Z</time></trkpt><trkpt lat="45.58665547754376" lon="5.904583521652642"><ele>259.0</ele><time>2026-04-05T14:50:11.001Z</time></trkpt><trkpt lat="45.58650483210325" lon="5.904821220355204"><ele>259.0</ele><time>2026-04-05T14:50:12.001Z</time></trkpt><trkpt lat="45.586358745036776" lon="5.905061212503353"><ele>259.0</ele><time>2026-04-05T14:50:13.001Z</time></trkpt><trkpt lat="45.58621852716698" lon="5.905309442407159"><ele>259.0</ele><time>2026-04-05T14:50:14.001Z</time></trkpt><trkpt lat="45.586081857389395" lon="5.905560786414019"><ele>259.0</ele><time>2026-04-05T14:50:15.001Z</time></trkpt><trkpt lat="45.58595507683063" lon="5.9058232608364"><ele>259.0</ele><time>2026-04-05T14:50:16.001Z</time></trkpt><trkpt lat="45.58583224890832" lon="5.906088597214785"><ele>259.0</ele><time>2026-04-05T14:50:17.001Z</time></trkpt><trkpt lat="45.585712440231376" lon="5.906356718641246"><ele>260.0</ele><time>2026-04-05T14:50:18.001Z</time></trkpt><trkpt lat="45.5855928859895" lon="5.90662350460949"><ele>261.0</ele><time>2026-04-05T14:50:19.001Z</time></trkpt><trkpt lat="45.58547500392501" lon="5.906889795266039"><ele>262.0</ele><time>2026-04-05T14:50:20.001Z</time></trkpt><trkpt lat="45.58535655768699" lon="5.907156222087122"><ele>262.66666666666663</ele><time>2026-04-05T14:50:21.001Z</time></trkpt><trkpt lat="45.58522050071514" lon="5.9074092778421035"><ele>263.3333333333333</ele><time>2026-04-05T14:50:22.001Z</time></trkpt><trkpt lat="45.585113765969325" lon="5.907686788165796"><ele>264.0</ele><time>2026-04-05T14:50:23.001Z</time></trkpt><trkpt lat="45.585000940101395" lon="5.907955525056461"><ele>264.0</ele><time>2026-04-05T14:50:24.002Z</time></trkpt><trkpt lat="45.58488570467542" lon="5.9082216696384"><ele>264.0</ele><time>2026-04-05T14:50:25.002Z</time></trkpt><trkpt lat="45.58476666712137" lon="5.9084895487372995"><ele>264.0</ele><time>2026-04-05T14:50:26.002Z</time></trkpt><trkpt lat="45.58465255618414" lon="5.908761940406819"><ele>264.5</ele><time>2026-04-05T14:50:27.002Z</time></trkpt><trkpt lat="45.58453691845686" lon="5.909035985877027"><ele>265.0</ele><time>2026-04-05T14:50:28.002Z</time></trkpt><trkpt lat="45.58441765682438" lon="5.909310477551133"><ele>267.5</ele><time>2026-04-05T14:50:29.002Z</time></trkpt><trkpt lat="45.58429560097308" lon="5.909579175900544"><ele>270.0</ele><time>2026-04-05T14:50:30.002Z</time></trkpt><trkpt lat="45.58416447662541" lon="5.909842836946073"><ele>274.0</ele><time>2026-04-05T14:50:31.002Z</time></trkpt><trkpt lat="45.5840232160702" lon="5.910090457099594"><ele>278.0</ele><time>2026-04-05T14:50:32.002Z</time></trkpt><trkpt lat="45.58386941975889" lon="5.910323327486937"><ele>282.0</ele><time>2026-04-05T14:50:33.002Z</time></trkpt><trkpt lat="45.58369316340152" lon="5.910525486421249"><ele>281.6666666666667</ele><time>2026-04-05T14:50:34.002Z</time></trkpt><trkpt lat="45.5835117133731" lon="5.910711740023606"><ele>281.33333333333337</ele><time>2026-04-05T14:50:35.002Z</time></trkpt><trkpt lat="45.58332062558401" lon="5.910878706693102"><ele>281.0</ele><time>2026-04-05T14:50:36.002Z</time></trkpt><trkpt lat="45.58312070022362" lon="5.9110290190907815"><ele>281.0</ele><time>2026-04-05T14:50:37.002Z</time></trkpt><trkpt lat="45.5829175204486" lon="5.91116034220194"><ele>281.0</ele><time>2026-04-05T14:50:38.002Z</time></trkpt><trkpt lat="45.582710806798275" lon="5.911288623841449"><ele>281.0</ele><time>2026-04-05T14:50:39.002Z</time></trkpt><trkpt lat="45.58250465541333" lon="5.911413577829009"><ele>282.33333333333337</ele><time>2026-04-05T14:50:40.002Z</time></trkpt><trkpt lat="45.5822977759174" lon="5.9115394316176815"><ele>283.6666666666667</ele><time>2026-04-05T14:50:41.002Z</time></trkpt><trkpt lat="45.58209126933108" lon="5.911660771638582"><ele>285.0</ele><time>2026-04-05T14:50:42.002Z</time></trkpt><trkpt lat="45.581886273447275" lon="5.911787822150049"><ele>285.0</ele><time>2026-04-05T14:50:43.002Z</time></trkpt><trkpt lat="45.58168148126785" lon="5.911921885012107"><ele>285.0</ele><time>2026-04-05T14:50:44.002Z</time></trkpt><trkpt lat="45.58148706443352" lon="5.912076784432956"><ele>285.0</ele><time>2026-04-05T14:50:45.002Z</time></trkpt><trkpt lat="45.58130481703938" lon="5.912259029065784"><ele>283.3333333333333</ele><time>2026-04-05T14:50:46.002Z</time></trkpt><trkpt lat="45.58112756807213" lon="5.912452071719992"><ele>281.66666666666663</ele><time>2026-04-05T14:50:47.002Z</time></trkpt><trkpt lat="45.580954910570604" lon="5.912654837317511"><ele>280.0</ele><time>2026-04-05T14:50:47.999Z</time></trkpt><trkpt lat="45.58078964282476" lon="5.912868135521885"><ele>280.0</ele><time>2026-04-05T14:50:48.999Z</time></trkpt><trkpt lat="45.5806351590282" lon="5.913095451301146"><ele>280.0</ele><time>2026-04-05T14:50:49.999Z</time></trkpt><trkpt lat="45.580488278744554" lon="5.913333027613321"><ele>280.0</ele><time>2026-04-05T14:50:50.999Z</time></trkpt><trkpt lat="45.58035045369389" lon="5.91358280229083"><ele>279.3333333333333</ele><time>2026-04-05T14:50:51.999Z</time></trkpt><trkpt lat="45.58021905598813" lon="5.913844246669196"><ele>278.6666666666667</ele><time>2026-04-05T14:50:52.999Z</time></trkpt><trkpt lat="45.580094844144575" lon="5.914109401765148"><ele>278.0</ele><time>2026-04-05T14:50:53.999Z</time></trkpt><trkpt lat="45.57997044530547" lon="5.914373653081861"><ele>278.0</ele><time>2026-04-05T14:50:54.999Z</time></trkpt><trkpt lat="45.57984986216306" lon="5.9146394481278"><ele>278.0</ele><time>2026-04-05T14:50:55.999Z</time></trkpt><trkpt lat="45.579728117498654" lon="5.914905886745145"><ele>278.0</ele><time>2026-04-05T14:50:56.999Z</time></trkpt><trkpt lat="45.57960641969287" lon="5.915170343155137"><ele>276.0</ele><time>2026-04-05T14:50:57.999Z</time></trkpt><trkpt lat="45.579487615588626" lon="5.915438910355039"><ele>274.0</ele><time>2026-04-05T14:50:58.999Z</time></trkpt><trkpt lat="45.579367725494954" lon="5.915707672269474"><ele>272.0</ele><time>2026-04-05T14:50:59.999Z</time></trkpt><trkpt lat="45.57924881357373" lon="5.915977465061883"><ele>272.0</ele><time>2026-04-05T14:51:00.999Z</time></trkpt><trkpt lat="45.5791259252959" lon="5.916243479782479"><ele>272.0</ele><time>2026-04-05T14:51:02Z</time></trkpt><trkpt lat="45.579002547021084" lon="5.916512195764259"><ele>272.0</ele><time>2026-04-05T14:51:03Z</time></trkpt><trkpt lat="45.57888000620666" lon="5.916780689372025"><ele>271.0</ele><time>2026-04-05T14:51:04Z</time></trkpt><trkpt lat="45.57875739243662" lon="5.917051829074824"><ele>270.0</ele><time>2026-04-05T14:51:05Z</time></trkpt><trkpt lat="45.57863794577228" lon="5.917320827443801"><ele>269.0</ele><time>2026-04-05T14:51:06Z</time></trkpt><trkpt lat="45.57851678759657" lon="5.91759090731878"><ele>269.0</ele><time>2026-04-05T14:51:07Z</time></trkpt><trkpt lat="45.57839929386516" lon="5.917864222002277"><ele>269.0</ele><time>2026-04-05T14:51:08Z</time></trkpt><trkpt lat="45.578282706921264" lon="5.918138383540964"><ele>269.0</ele><time>2026-04-05T14:51:09Z</time></trkpt><trkpt lat="45.57816879764689" lon="5.918413729374083"><ele>273.5</ele><time>2026-04-05T14:51:10Z</time></trkpt><trkpt lat="45.578053358379314" lon="5.9186889273754675"><ele>278.0</ele><time>2026-04-05T14:51:11Z</time></trkpt><trkpt lat="45.57793923047471" lon="5.918966662409002"><ele>275.0</ele><time>2026-04-05T14:51:12Z</time></trkpt><trkpt lat="45.577827053119826" lon="5.919245015834481"><ele>272.0</ele><time>2026-04-05T14:51:13Z</time></trkpt><trkpt lat="45.57772078283925" lon="5.919528023984135"><ele>272.0</ele><time>2026-04-05T14:51:14Z</time></trkpt><trkpt lat="45.57761749699299" lon="5.919809068816239"><ele>272.0</ele><time>2026-04-05T14:51:15Z</time></trkpt><trkpt lat="45.57751524340753" lon="5.9200935045028436"><ele>272.0</ele><time>2026-04-05T14:51:16Z</time></trkpt><trkpt lat="45.5774116322728" lon="5.920377214086895"><ele>272.5</ele><time>2026-04-05T14:51:17Z</time></trkpt><trkpt lat="45.577307407001925" lon="5.920658676023525"><ele>273.0</ele><time>2026-04-05T14:51:18Z</time></trkpt><trkpt lat="45.57710221146463" lon="5.921224269409379"><ele>272.6666666666667</ele><time>2026-04-05T14:51:20Z</time></trkpt><trkpt lat="45.57700390010196" lon="5.921509208605645"><ele>272.33333333333337</ele><time>2026-04-05T14:51:21Z</time></trkpt><trkpt lat="45.57690515595782" lon="5.921794914413289"><ele>272.0</ele><time>2026-04-05T14:51:22Z</time></trkpt><trkpt lat="45.57681062282895" lon="5.9220823138802"><ele>272.0</ele><time>2026-04-05T14:51:23Z</time></trkpt><trkpt lat="45.576715580676485" lon="5.922370069261957"><ele>272.0</ele><time>2026-04-05T14:51:24Z</time></trkpt><trkpt lat="45.57662422873501" lon="5.922659428522663"><ele>272.0</ele><time>2026-04-05T14:51:25Z</time></trkpt><trkpt lat="45.57653619161175" lon="5.92295030018353"><ele>276.0</ele><time>2026-04-05T14:51:26Z</time></trkpt><trkpt lat="45.576449701568286" lon="5.923242958000432"><ele>280.0</ele><time>2026-04-05T14:51:27Z</time></trkpt><trkpt lat="45.576361933398154" lon="5.923537834384477"><ele>284.0</ele><time>2026-04-05T14:51:28Z</time></trkpt><trkpt lat="45.57627939410437" lon="5.923832728000697"><ele>293.0</ele><time>2026-04-05T14:51:29Z</time></trkpt><trkpt lat="45.576198231598475" lon="5.924134779660183"><ele>302.0</ele><time>2026-04-05T14:51:30.02Z</time></trkpt><trkpt lat="45.57612113365662" lon="5.924431179852391"><ele>311.0</ele><time>2026-04-05T14:51:31.018Z</time></trkpt><trkpt lat="45.576042761520426" lon="5.924729022574735"><ele>320.0</ele><time>2026-04-05T14:51:32.02Z</time></trkpt><trkpt lat="45.57596293103789" lon="5.925025444938155"><ele>329.0</ele><time>2026-04-05T14:51:33.02Z</time></trkpt><trkpt lat="45.57588171105279" lon="5.925319345505663"><ele>338.0</ele><time>2026-04-05T14:51:34.016Z</time></trkpt><trkpt lat="45.575798720286976" lon="5.925615942137227"><ele>283.0</ele><time>2026-04-05T14:51:35.02Z</time></trkpt><trkpt lat="45.572959701573076" lon="5.934263812383575"><ele>280.5</ele><time>2026-04-05T14:52:05.001Z</time></trkpt><trkpt lat="45.57282836636815" lon="5.9345192175842945"><ele>278.0</ele><time>2026-04-05T14:52:06.001Z</time></trkpt><trkpt lat="45.57268904489944" lon="5.934795783707243"><ele>278.0</ele><time>2026-04-05T14:52:07.001Z</time></trkpt><trkpt lat="45.57254917113899" lon="5.9350320969574755"><ele>278.0</ele><time>2026-04-05T14:52:08.001Z</time></trkpt><trkpt lat="45.57241720758126" lon="5.935272197502352"><ele>278.0</ele><time>2026-04-05T14:52:09.001Z</time></trkpt><trkpt lat="45.57227201413819" lon="5.9355143279460245"><ele>278.6666666666667</ele><time>2026-04-05T14:52:10.001Z</time></trkpt><trkpt lat="45.57212356958331" lon="5.935755637284279"><ele>279.3333333333333</ele><time>2026-04-05T14:52:11.001Z</time></trkpt><trkpt lat="45.57197633709661" lon="5.9359959591648535"><ele>280.0</ele><time>2026-04-05T14:52:12.001Z</time></trkpt><trkpt lat="45.571825859404896" lon="5.936227330328916"><ele>280.66666666666663</ele><time>2026-04-05T14:52:13.001Z</time></trkpt><trkpt lat="45.571671627890076" lon="5.936452970418368"><ele>281.3333333333333</ele><time>2026-04-05T14:52:14.001Z</time></trkpt><trkpt lat="45.57151972796952" lon="5.936683634129798"><ele>282.0</ele><time>2026-04-05T14:52:15.001Z</time></trkpt><trkpt lat="45.57136406750892" lon="5.936912289986819"><ele>282.0</ele><time>2026-04-05T14:52:16.001Z</time></trkpt><trkpt lat="45.57120865412303" lon="5.9371430760621084"><ele>282.0</ele><time>2026-04-05T14:52:17.001Z</time></trkpt><trkpt lat="45.57105628951843" lon="5.937372866101613"><ele>282.0</ele><time>2026-04-05T14:52:18.001Z</time></trkpt><trkpt lat="45.57090240705572" lon="5.9376032983334515"><ele>282.0</ele><time>2026-04-05T14:52:19.001Z</time></trkpt><trkpt lat="45.570745599190154" lon="5.93783164082689"><ele>282.0</ele><time>2026-04-05T14:52:20.001Z</time></trkpt><trkpt lat="45.57058505699067" lon="5.93805574182153"><ele>282.0</ele><time>2026-04-05T14:52:21.001Z</time></trkpt><trkpt lat="45.57042421061278" lon="5.938282085046904"><ele>282.3333333333333</ele><time>2026-04-05T14:52:22.001Z</time></trkpt><trkpt lat="45.57026680111526" lon="5.938509352744281"><ele>282.66666666666663</ele><time>2026-04-05T14:52:23.001Z</time></trkpt><trkpt lat="45.570110475594795" lon="5.938739120630314"><ele>283.0</ele><time>2026-04-05T14:52:24.001Z</time></trkpt><trkpt lat="45.569959905651544" lon="5.938972400468329"><ele>283.0</ele><time>2026-04-05T14:52:25.002Z</time></trkpt><trkpt lat="45.569810156089666" lon="5.9392101938396"><ele>283.0</ele><time>2026-04-05T14:52:26.002Z</time></trkpt><trkpt lat="45.569663681990576" lon="5.939453007233189"><ele>283.0</ele><time>2026-04-05T14:52:27.002Z</time></trkpt><trkpt lat="45.569520300450904" lon="5.939699554224648"><ele>283.0</ele><time>2026-04-05T14:52:28.002Z</time></trkpt><trkpt lat="45.569379117448136" lon="5.939950023245518"><ele>283.0</ele><time>2026-04-05T14:52:29.002Z</time></trkpt><trkpt lat="45.56924029733764" lon="5.940201274960304"><ele>283.0</ele><time>2026-04-05T14:52:30.002Z</time></trkpt><trkpt lat="45.56910697933101" lon="5.940456372412976"><ele>283.3333333333333</ele><time>2026-04-05T14:52:31.002Z</time></trkpt><trkpt lat="45.56897921896619" lon="5.940717850312959"><ele>283.6666666666667</ele><time>2026-04-05T14:52:32.002Z</time></trkpt><trkpt lat="45.56885189892184" lon="5.940980598040216"><ele>284.0</ele><time>2026-04-05T14:52:33.002Z</time></trkpt><trkpt lat="45.56872629569115" lon="5.941244254598133"><ele>283.5</ele><time>2026-04-05T14:52:34.002Z</time></trkpt><trkpt lat="45.56860295755811" lon="5.941512193471152"><ele>283.0</ele><time>2026-04-05T14:52:35.002Z</time></trkpt><trkpt lat="45.56847682560682" lon="5.9417913079705045"><ele>284.0</ele><time>2026-04-05T14:52:36.002Z</time></trkpt><trkpt lat="45.568341092455995" lon="5.942072392858496"><ele>285.0</ele><time>2026-04-05T14:52:37.002Z</time></trkpt><trkpt lat="45.568192675694355" lon="5.9423560719894635"><ele>285.0</ele><time>2026-04-05T14:52:38.002Z</time></trkpt><trkpt lat="45.56802716131418" lon="5.942625661122521"><ele>285.0</ele><time>2026-04-05T14:52:39.002Z</time></trkpt><trkpt lat="45.567848415048715" lon="5.942886771282444"><ele>284.0</ele><time>2026-04-05T14:52:40.002Z</time></trkpt><trkpt lat="45.567659536881095" lon="5.943143899092849"><ele>283.0</ele><time>2026-04-05T14:52:41.002Z</time></trkpt><trkpt lat="45.56763836542721" lon="5.9435504479038395"><ele>283.0</ele><time>2026-04-05T14:52:42.002Z</time></trkpt><trkpt lat="45.56749743643547" lon="5.943879036418809"><ele>283.0</ele><time>2026-04-05T14:52:43.002Z</time></trkpt><trkpt lat="45.56733720342295" lon="5.944175572406009"><ele>284.0</ele><time>2026-04-05T14:52:44.002Z</time></trkpt><trkpt lat="45.567211166639055" lon="5.944445828617677"><ele>285.0</ele><time>2026-04-05T14:52:45.002Z</time></trkpt><trkpt lat="45.567057342910815" lon="5.9447534335047045"><ele>285.0</ele><time>2026-04-05T14:52:46.002Z</time></trkpt><trkpt lat="45.56713328274678" lon="5.944829484910579"><ele>285.0</ele><time>2026-04-05T14:52:47.002Z</time></trkpt><trkpt lat="45.56700481344861" lon="5.9450713606171846"><ele>285.0</ele><time>2026-04-05T14:52:48.002Z</time></trkpt><trkpt lat="45.566861352686445" lon="5.945314131024753"><ele>285.3333333333333</ele><time>2026-04-05T14:52:49.002Z</time></trkpt><trkpt lat="45.566707735782245" lon="5.94554775170003"><ele>285.66666666666663</ele><time>2026-04-05T14:52:50.002Z</time></trkpt><trkpt lat="45.56654970078531" lon="5.945774972811734"><ele>286.0</ele><time>2026-04-05T14:52:51.002Z</time></trkpt><trkpt lat="45.566387348132274" lon="5.945995020658912"><ele>286.0</ele><time>2026-04-05T14:52:52.002Z</time></trkpt><trkpt lat="45.5662127805081" lon="5.946204561968923"><ele>286.0</ele><time>2026-04-05T14:52:53.002Z</time></trkpt><trkpt lat="45.56602830060196" lon="5.946397428113755"><ele>285.5</ele><time>2026-04-05T14:52:54Z</time></trkpt><trkpt lat="45.56584122523478" lon="5.946583175038795"><ele>285.0</ele><time>2026-04-05T14:52:55Z</time></trkpt><trkpt lat="45.56564444633786" lon="5.9467631116013795"><ele>285.0</ele><time>2026-04-05T14:52:56Z</time></trkpt><trkpt lat="45.565441975367136" lon="5.946920389230141"><ele>285.0</ele><time>2026-04-05T14:52:57Z</time></trkpt><trkpt lat="45.565232147484345" lon="5.947065614889156"><ele>285.5</ele><time>2026-04-05T14:52:58Z</time></trkpt><trkpt lat="45.56501342723782" lon="5.947196828222268"><ele>286.0</ele><time>2026-04-05T14:52:59Z</time></trkpt><trkpt lat="45.564796504759684" lon="5.947317796855251"><ele>286.0</ele><time>2026-04-05T14:53:00Z</time></trkpt><trkpt lat="45.56457630299337" lon="5.947439792811157"><ele>286.0</ele><time>2026-04-05T14:53:01Z</time></trkpt><trkpt lat="45.56436039228139" lon="5.947563768669968"><ele>286.0</ele><time>2026-04-05T14:53:02Z</time></trkpt><trkpt lat="45.564149665953074" lon="5.947670959195731"><ele>286.0</ele><time>2026-04-05T14:53:03Z</time></trkpt><trkpt lat="45.56394152162577" lon="5.947778235897864"><ele>286.0</ele><time>2026-04-05T14:53:04Z</time></trkpt><trkpt lat="45.563736598629845" lon="5.947889274116267"><ele>285.66666666666663</ele><time>2026-04-05T14:53:05Z</time></trkpt><trkpt lat="45.56353286275717" lon="5.948003440242831"><ele>285.3333333333333</ele><time>2026-04-05T14:53:06Z</time></trkpt><trkpt lat="45.56332512985306" lon="5.94811632327355"><ele>285.0</ele><time>2026-04-05T14:53:07Z</time></trkpt><trkpt lat="45.56311780707476" lon="5.948220389121646"><ele>285.0</ele><time>2026-04-05T14:53:08Z</time></trkpt><trkpt lat="45.56290592002884" lon="5.948297797445818"><ele>285.0</ele><time>2026-04-05T14:53:09Z</time></trkpt><trkpt lat="45.5626892891004" lon="5.948374464388559"><ele>285.0</ele><time>2026-04-05T14:53:10Z</time></trkpt><trkpt lat="45.56246327508501" lon="5.948439978837292"><ele>285.5</ele><time>2026-04-05T14:53:11Z</time></trkpt><trkpt lat="45.56223288513089" lon="5.948488452154343"><ele>286.0</ele><time>2026-04-05T14:53:12Z</time></trkpt><trkpt lat="45.56200866944479" lon="5.948527325044532"><ele>286.0</ele><time>2026-04-05T14:53:13Z</time></trkpt><trkpt lat="45.561788184301406" lon="5.948557766444572"><ele>286.0</ele><time>2026-04-05T14:53:14Z</time></trkpt><trkpt lat="45.561563066698554" lon="5.948572654634826"><ele>286.0</ele><time>2026-04-05T14:53:15Z</time></trkpt><trkpt lat="45.561335549893855" lon="5.948581801304295"><ele>286.0</ele><time>2026-04-05T14:53:16Z</time></trkpt><trkpt lat="45.56110361092063" lon="5.948584546941151"><ele>286.0</ele><time>2026-04-05T14:53:17Z</time></trkpt><trkpt lat="45.56087101342987" lon="5.948585092472609"><ele>286.0</ele><time>2026-04-05T14:53:18Z</time></trkpt><trkpt lat="45.56063939126784" lon="5.948584206861712"><ele>286.0</ele><time>2026-04-05T14:53:19Z</time></trkpt><trkpt lat="45.56040966537715" lon="5.948600095910847"><ele>287.5</ele><time>2026-04-05T14:53:20Z</time></trkpt><trkpt lat="45.560183165603554" lon="5.948642004355136"><ele>289.0</ele><time>2026-04-05T14:53:21Z</time></trkpt><trkpt lat="45.559953566068735" lon="5.948698856615143"><ele>289.0</ele><time>2026-04-05T14:53:22Z</time></trkpt><trkpt lat="45.55972537931995" lon="5.948768577212765"><ele>289.0</ele><time>2026-04-05T14:53:23Z</time></trkpt><trkpt lat="45.55950342238127" lon="5.94884681819173"><ele>288.0</ele><time>2026-04-05T14:53:24Z</time></trkpt><trkpt lat="45.559281672355525" lon="5.948945753816637"><ele>287.0</ele><time>2026-04-05T14:53:25Z</time></trkpt><trkpt lat="45.55904530515636" lon="5.9490521709781"><ele>287.0</ele><time>2026-04-05T14:53:26Z</time></trkpt><trkpt lat="45.55884149610761" lon="5.949149368935959"><ele>287.0</ele><time>2026-04-05T14:53:27Z</time></trkpt><trkpt lat="45.55868982517112" lon="5.949241760790515"><ele>287.0</ele><time>2026-04-05T14:53:28Z</time></trkpt><trkpt lat="45.55851471862377" lon="5.949323652192825"><ele>287.5</ele><time>2026-04-05T14:53:29Z</time></trkpt><trkpt lat="45.558211703392246" lon="5.949585464487957"><ele>288.0</ele><time>2026-04-05T14:53:30Z</time></trkpt><trkpt lat="45.55800501025501" lon="5.949761533292199"><ele>288.0</ele><time>2026-04-05T14:53:31Z</time></trkpt><trkpt lat="45.55780405587081" lon="5.949946726317797"><ele>288.0</ele><time>2026-04-05T14:53:32Z</time></trkpt><trkpt lat="45.55760665014833" lon="5.950137360022874"><ele>288.0</ele><time>2026-04-05T14:53:33Z</time></trkpt><trkpt lat="45.557413641080956" lon="5.9503325056116845"><ele>288.0</ele><time>2026-04-05T14:53:34Z</time></trkpt><trkpt lat="45.557225059085795" lon="5.950545123941203"><ele>288.0</ele><time>2026-04-05T14:53:35Z</time></trkpt><trkpt lat="45.55704556633869" lon="5.950759993080754"><ele>288.0</ele><time>2026-04-05T14:53:36Z</time></trkpt><trkpt lat="45.55686253047084" lon="5.9509726378279195"><ele>285.5</ele><time>2026-04-05T14:53:37Z</time></trkpt><trkpt lat="45.55667468439442" lon="5.9511947896685236"><ele>283.0</ele><time>2026-04-05T14:53:38.001Z</time></trkpt><trkpt lat="45.5564857351363" lon="5.95143410845479"><ele>283.0</ele><time>2026-04-05T14:53:39.001Z</time></trkpt><trkpt lat="45.556291812866114" lon="5.951692339185682"><ele>283.0</ele><time>2026-04-05T14:53:40.001Z</time></trkpt><trkpt lat="45.55609998789481" lon="5.951972751874405"><ele>284.0</ele><time>2026-04-05T14:53:41.001Z</time></trkpt><trkpt lat="45.555923973686916" lon="5.952272478513291"><ele>285.0</ele><time>2026-04-05T14:53:42.001Z</time></trkpt><trkpt lat="45.55575901998996" lon="5.95259490688826"><ele>285.5</ele><time>2026-04-05T14:53:43.001Z</time></trkpt><trkpt lat="45.55559809689697" lon="5.952923777408924"><ele>286.0</ele><time>2026-04-05T14:53:44.001Z</time></trkpt><trkpt lat="45.555437243055245" lon="5.953244591961807"><ele>286.5</ele><time>2026-04-05T14:53:45.001Z</time></trkpt><trkpt lat="45.555264200519176" lon="5.953562949136935"><ele>287.0</ele><time>2026-04-05T14:53:46.001Z</time></trkpt><trkpt lat="45.55507777824319" lon="5.953854235165087"><ele>287.0</ele><time>2026-04-05T14:53:47.001Z</time></trkpt><trkpt lat="45.55487337375233" lon="5.95411711917024"><ele>287.0</ele><time>2026-04-05T14:53:48.001Z</time></trkpt><trkpt lat="45.55466394694273" lon="5.954362540222956"><ele>287.0</ele><time>2026-04-05T14:53:49.001Z</time></trkpt><trkpt lat="45.55445176120835" lon="5.9546061784979525"><ele>287.0</ele><time>2026-04-05T14:53:50.001Z</time></trkpt><trkpt lat="45.55424278157382" lon="5.954848510643879"><ele>287.0</ele><time>2026-04-05T14:53:51.001Z</time></trkpt><trkpt lat="45.55402487172827" lon="5.955089720225686"><ele>287.0</ele><time>2026-04-05T14:53:52.001Z</time></trkpt><trkpt lat="45.553810466708434" lon="5.955317691835289"><ele>287.0</ele><time>2026-04-05T14:53:53.001Z</time></trkpt><trkpt lat="45.55359517015241" lon="5.955553202672065"><ele>287.0</ele><time>2026-04-05T14:53:54.001Z</time></trkpt><trkpt lat="45.55337930497355" lon="5.955794782104973"><ele>287.5</ele><time>2026-04-05T14:53:55.001Z</time></trkpt><trkpt lat="45.553165352188344" lon="5.956036374770735"><ele>288.0</ele><time>2026-04-05T14:53:56.001Z</time></trkpt><trkpt lat="45.552946995302854" lon="5.9562825686318766"><ele>288.5</ele><time>2026-04-05T14:53:57.001Z</time></trkpt><trkpt lat="45.55272735062069" lon="5.956526380890546"><ele>289.0</ele><time>2026-04-05T14:53:58.001Z</time></trkpt><trkpt lat="45.55250974781482" lon="5.9567675657725"><ele>289.0</ele><time>2026-04-05T14:53:59.001Z</time></trkpt><trkpt lat="45.55229137703668" lon="5.9570096312374865"><ele>289.0</ele><time>2026-04-05T14:54:00.001Z</time></trkpt><trkpt lat="45.552072371289086" lon="5.957250520889807"><ele>289.5</ele><time>2026-04-05T14:54:01.001Z</time></trkpt><trkpt lat="45.551846527613804" lon="5.957479078784175"><ele>290.0</ele><time>2026-04-05T14:54:02.001Z</time></trkpt><trkpt lat="45.55160770874256" lon="5.957678820161087"><ele>290.0</ele><time>2026-04-05T14:54:03.001Z</time></trkpt><trkpt lat="45.55135814688009" lon="5.957853757033775"><ele>290.0</ele><time>2026-04-05T14:54:04.001Z</time></trkpt><trkpt lat="45.5511001806934" lon="5.95801374011767"><ele>290.0</ele><time>2026-04-05T14:54:05.001Z</time></trkpt><trkpt lat="45.55083683167108" lon="5.958164096012983"><ele>290.0</ele><time>2026-04-05T14:54:06.001Z</time></trkpt><trkpt lat="45.55056951545537" lon="5.958301913430918"><ele>291.0</ele><time>2026-04-05T14:54:07.001Z</time></trkpt><trkpt lat="45.55029794590658" lon="5.958428093483144"><ele>292.0</ele><time>2026-04-05T14:54:08.001Z</time></trkpt><trkpt lat="45.55002381021247" lon="5.9585266155589665"><ele>292.0</ele><time>2026-04-05T14:54:09.001Z</time></trkpt><trkpt lat="45.54974703107614" lon="5.9586146249064225"><ele>292.0</ele><time>2026-04-05T14:54:10.001Z</time></trkpt><trkpt lat="45.54946958299374" lon="5.958707235403003"><ele>292.5</ele><time>2026-04-05T14:54:11.001Z</time></trkpt><trkpt lat="45.549192069819156" lon="5.958800413212047"><ele>293.0</ele><time>2026-04-05T14:54:12.001Z</time></trkpt><trkpt lat="45.548918090642225" lon="5.958901365583959"><ele>291.5</ele><time>2026-04-05T14:54:13.001Z</time></trkpt><trkpt lat="45.54864749063722" lon="5.959000090036"><ele>290.0</ele><time>2026-04-05T14:54:14.001Z</time></trkpt><trkpt lat="45.54837923834059" lon="5.959136498149084"><ele>291.5</ele><time>2026-04-05T14:54:15.001Z</time></trkpt><trkpt lat="45.548110544313325" lon="5.959283647436284"><ele>293.0</ele><time>2026-04-05T14:54:16.001Z</time></trkpt><trkpt lat="45.54784389006913" lon="5.959430746198602"><ele>293.0</ele><time>2026-04-05T14:54:17.001Z</time></trkpt><trkpt lat="45.547577123375845" lon="5.959585866231033"><ele>293.0</ele><time>2026-04-05T14:54:18.001Z</time></trkpt><trkpt lat="45.54730992536414" lon="5.959746552763546"><ele>292.5</ele><time>2026-04-05T14:54:19.001Z</time></trkpt><trkpt lat="45.54703600408794" lon="5.959908654624384"><ele>292.0</ele><time>2026-04-05T14:54:20.001Z</time></trkpt><trkpt lat="45.54676270988064" lon="5.960070703201402"><ele>296.5</ele><time>2026-04-05T14:54:21.001Z</time></trkpt><trkpt lat="45.54649211133803" lon="5.960234160592733"><ele>301.0</ele><time>2026-04-05T14:54:22.001Z</time></trkpt><trkpt lat="45.546223384487355" lon="5.960402242902101"><ele>298.0</ele><time>2026-04-05T14:54:23.002Z</time></trkpt><trkpt lat="45.54595480609845" lon="5.960571647772471"><ele>295.0</ele><time>2026-04-05T14:54:24.002Z</time></trkpt><trkpt lat="45.545684378059285" lon="5.960738200472126"><ele>298.5</ele><time>2026-04-05T14:54:25.002Z</time></trkpt><trkpt lat="45.54541354626109" lon="5.960897148996554"><ele>302.0</ele><time>2026-04-05T14:54:26.002Z</time></trkpt><trkpt lat="45.54514356196067" lon="5.961058426540746"><ele>302.0</ele><time>2026-04-05T14:54:27.002Z</time></trkpt><trkpt lat="45.544873223680845" lon="5.961220905489562"><ele>302.0</ele><time>2026-04-05T14:54:28.002Z</time></trkpt><trkpt lat="45.544606690898654" lon="5.961381108304012"><ele>304.5</ele><time>2026-04-05T14:54:29.002Z</time></trkpt><trkpt lat="45.544340157035165" lon="5.961545488209092"><ele>307.0</ele><time>2026-04-05T14:54:30.002Z</time></trkpt><trkpt lat="45.544077516348736" lon="5.961719344624541"><ele>307.0</ele><time>2026-04-05T14:54:31.002Z</time></trkpt><trkpt lat="45.54381528662667" lon="5.961899037513261"><ele>307.0</ele><time>2026-04-05T14:54:32.002Z</time></trkpt><trkpt lat="45.54355800406162" lon="5.962084312939441"><ele>303.0</ele><time>2026-04-05T14:54:33.002Z</time></trkpt><trkpt lat="45.54330412140356" lon="5.962269662407529"><ele>299.0</ele><time>2026-04-05T14:54:34.002Z</time></trkpt><trkpt lat="45.54304845740647" lon="5.9624586542958085"><ele>302.0</ele><time>2026-04-05T14:54:35.002Z</time></trkpt><trkpt lat="45.54279073490488" lon="5.962651712301132"><ele>305.0</ele><time>2026-04-05T14:54:36.002Z</time></trkpt><trkpt lat="45.542530624100614" lon="5.9628506672660855"><ele>305.0</ele><time>2026-04-05T14:54:37.002Z</time></trkpt><trkpt lat="45.542263569955786" lon="5.9630555195054455"><ele>305.0</ele><time>2026-04-05T14:54:38.002Z</time></trkpt><trkpt lat="45.54199161917888" lon="5.963266226679099"><ele>304.0</ele><time>2026-04-05T14:54:39.002Z</time></trkpt><trkpt lat="45.54171598998226" lon="5.963489485443307"><ele>303.0</ele><time>2026-04-05T14:54:40.002Z</time></trkpt><trkpt lat="45.54143154993198" lon="5.963732556738126"><ele>303.0</ele><time>2026-04-05T14:54:41.002Z</time></trkpt><trkpt lat="45.5411275534731" lon="5.963988475171791"><ele>303.0</ele><time>2026-04-05T14:54:42.002Z</time></trkpt><trkpt lat="45.54082464757591" lon="5.964247521892065"><ele>303.0</ele><time>2026-04-05T14:54:43.002Z</time></trkpt><trkpt lat="45.54058353095744" lon="5.964533816225769"><ele>303.0</ele><time>2026-04-05T14:54:44.002Z</time></trkpt><trkpt lat="45.540218682176665" lon="5.964862936826071"><ele>304.0</ele><time>2026-04-05T14:54:45.002Z</time></trkpt><trkpt lat="45.539919302400534" lon="5.965086773491656"><ele>305.0</ele><time>2026-04-05T14:54:46.002Z</time></trkpt><trkpt lat="45.539643875040774" lon="5.965333715104589"><ele>303.0</ele><time>2026-04-05T14:54:47.002Z</time></trkpt><trkpt lat="45.539378557270176" lon="5.965552480053395"><ele>301.0</ele><time>2026-04-05T14:54:48.002Z</time></trkpt><trkpt lat="45.53912095925377" lon="5.965773463897144"><ele>301.5</ele><time>2026-04-05T14:54:49.002Z</time></trkpt><trkpt lat="45.53887911588085" lon="5.965996425544015"><ele>302.0</ele><time>2026-04-05T14:54:50.002Z</time></trkpt><trkpt lat="45.538645177827256" lon="5.9662114582420145"><ele>302.0</ele><time>2026-04-05T14:54:51.002Z</time></trkpt><trkpt lat="45.53841584436251" lon="5.966418485765821"><ele>302.0</ele><time>2026-04-05T14:54:52.002Z</time></trkpt><trkpt lat="45.53818059150598" lon="5.9666235883661995"><ele>304.5</ele><time>2026-04-05T14:54:53.002Z</time></trkpt><trkpt lat="45.53795485036467" lon="5.966821096719507"><ele>307.0</ele><time>2026-04-05T14:54:54.002Z</time></trkpt><trkpt lat="45.53775321449924" lon="5.967002716020916"><ele>307.0</ele><time>2026-04-05T14:54:55.002Z</time></trkpt><trkpt lat="45.53755624783957" lon="5.967173736772665"><ele>307.0</ele><time>2026-04-05T14:54:56.002Z</time></trkpt><trkpt lat="45.53737056171684" lon="5.967329867309481"><ele>307.0</ele><time>2026-04-05T14:54:57.002Z</time></trkpt><trkpt lat="45.53719231328229" lon="5.967473933015959"><ele>305.66666666666663</ele><time>2026-04-05T14:54:58.002Z</time></trkpt><trkpt lat="45.53702537686656" lon="5.967607836171608"><ele>304.3333333333333</ele><time>2026-04-05T14:54:59.002Z</time></trkpt><trkpt lat="45.536862256974594" lon="5.9677327247448755"><ele>303.0</ele><time>2026-04-05T14:55:00Z</time></trkpt><trkpt lat="45.536690248660776" lon="5.9678397364960105"><ele>303.0</ele><time>2026-04-05T14:55:01Z</time></trkpt><trkpt lat="45.53651038330905" lon="5.967921833765818"><ele>303.0</ele><time>2026-04-05T14:55:02Z</time></trkpt><trkpt lat="45.53633438337857" lon="5.9679412011278465"><ele>303.0</ele><time>2026-04-05T14:55:03Z</time></trkpt><trkpt lat="45.5361811467243" lon="5.9678764063219445"><ele>303.3333333333333</ele><time>2026-04-05T14:55:04Z</time></trkpt><trkpt lat="45.536060041120365" lon="5.967730859941705"><ele>303.66666666666663</ele><time>2026-04-05T14:55:05Z</time></trkpt><trkpt lat="45.53599656449302" lon="5.967538036825153"><ele>304.0</ele><time>2026-04-05T14:55:06Z</time></trkpt><trkpt lat="45.53598738771628" lon="5.9673140820351565"><ele>304.0</ele><time>2026-04-05T14:55:07Z</time></trkpt><trkpt lat="45.536023061942096" lon="5.967110011790414"><ele>304.0</ele><time>2026-04-05T14:55:08Z</time></trkpt><trkpt lat="45.53609393482418" lon="5.9669599760749"><ele>304.0</ele><time>2026-04-05T14:55:09Z</time></trkpt><trkpt lat="45.53617171601027" lon="5.966838729465972"><ele>304.0</ele><time>2026-04-05T14:55:10Z</time></trkpt><trkpt lat="45.53625189378123" lon="5.966745728219193"><ele>303.59999999999997</ele><time>2026-04-05T14:55:11Z</time></trkpt><trkpt lat="45.53632655835615" lon="5.966666569173346"><ele>303.2</ele><time>2026-04-05T14:55:12Z</time></trkpt><trkpt lat="45.5363746636114" lon="5.966580632393552"><ele>302.79999999999995</ele><time>2026-04-05T14:55:13Z</time></trkpt><trkpt lat="45.536441027315846" lon="5.9664836221870186"><ele>302.4</ele><time>2026-04-05T14:55:15Z</time></trkpt><trkpt lat="45.53650221661125" lon="5.966435377146268"><ele>302.0</ele><time>2026-04-05T14:55:17Z</time></trkpt><trkpt lat="45.53662078541386" lon="5.966400595169536"><ele>302.0</ele><time>2026-04-05T14:55:19Z</time></trkpt><trkpt lat="45.53669321709421" lon="5.96650644323017"><ele>302.0</ele><time>2026-04-05T14:55:20Z</time></trkpt><trkpt lat="45.53675497822969" lon="5.966589387467771"><ele>302.0</ele><time>2026-04-05T14:55:21Z</time></trkpt><trkpt lat="45.536818283710296" lon="5.9667060545615485"><ele>302.0</ele><time>2026-04-05T14:55:22Z</time></trkpt><trkpt lat="45.536870222290176" lon="5.9668158137739"><ele>302.0</ele><time>2026-04-05T14:55:23Z</time></trkpt><trkpt lat="45.536930358660335" lon="5.966944800157899"><ele>302.0</ele><time>2026-04-05T14:55:24Z</time></trkpt><trkpt lat="45.53699723986702" lon="5.9670861393043"><ele>302.0</ele><time>2026-04-05T14:55:25Z</time></trkpt><trkpt lat="45.53706367642478" lon="5.9672231799137085"><ele>302.0</ele><time>2026-04-05T14:55:26Z</time></trkpt><trkpt lat="45.53713399832895" lon="5.967358434792806"><ele>302.0</ele><time>2026-04-05T14:55:27Z</time></trkpt><trkpt lat="45.53719182216747" lon="5.9674710383518"><ele>303.33333333333337</ele><time>2026-04-05T14:55:28Z</time></trkpt><trkpt lat="45.53724032822661" lon="5.967578270047369"><ele>304.6666666666667</ele><time>2026-04-05T14:55:29.001Z</time></trkpt><trkpt lat="45.53728967675055" lon="5.967681582539685"><ele>306.0</ele><time>2026-04-05T14:55:30.001Z</time></trkpt><trkpt lat="45.53734321104795" lon="5.967783680776858"><ele>307.3333333333333</ele><time>2026-04-05T14:55:31.001Z</time></trkpt><trkpt lat="45.5373943321156" lon="5.967884617515486"><ele>308.66666666666663</ele><time>2026-04-05T14:55:32.001Z</time></trkpt><trkpt lat="45.53743433147271" lon="5.967988347188485"><ele>310.0</ele><time>2026-04-05T14:55:33.001Z</time></trkpt><trkpt lat="45.53745731182979" lon="5.968116080598224"><ele>310.0</ele><time>2026-04-05T14:55:34.001Z</time></trkpt><trkpt lat="45.53744503648578" lon="5.968249922939828"><ele>310.0</ele><time>2026-04-05T14:55:35.001Z</time></trkpt><trkpt lat="45.53744221114061" lon="5.968369518061119"><ele>310.0</ele><time>2026-04-05T14:55:36.001Z</time></trkpt><trkpt lat="45.53750164171311" lon="5.968456301170714"><ele>310.0</ele><time>2026-04-05T14:55:37.001Z</time></trkpt><trkpt lat="45.5375912880004" lon="5.968488670361227"><ele>310.0</ele><time>2026-04-05T14:55:38.001Z</time></trkpt><trkpt lat="45.53770317051058" lon="5.968452464226771"><ele>310.25</ele><time>2026-04-05T14:55:39.001Z</time></trkpt><trkpt lat="45.53781981544537" lon="5.96841727683895"><ele>310.5</ele><time>2026-04-05T14:55:40.001Z</time></trkpt><trkpt lat="45.53794140856445" lon="5.968453449621352"><ele>310.75</ele><time>2026-04-05T14:55:41.001Z</time></trkpt><trkpt lat="45.53807434469346" lon="5.968454247853968"><ele>311.0</ele><time>2026-04-05T14:55:42.001Z</time></trkpt><trkpt lat="45.53821803739541" lon="5.968393805999097"><ele>311.75</ele><time>2026-04-05T14:55:43.001Z</time></trkpt><trkpt lat="45.53836390673684" lon="5.968359357202425"><ele>312.5</ele><time>2026-04-05T14:55:44.001Z</time></trkpt><trkpt lat="45.53850623798597" lon="5.968310354543912"><ele>313.25</ele><time>2026-04-05T14:55:45.001Z</time></trkpt><trkpt lat="45.53865332231902" lon="5.968286823091016"><ele>314.0</ele><time>2026-04-05T14:55:46.001Z</time></trkpt><trkpt lat="45.53879974482438" lon="5.968278764562832"><ele>314.33333333333337</ele><time>2026-04-05T14:55:47.001Z</time></trkpt><trkpt lat="45.53894377841215" lon="5.968276869984118"><ele>314.6666666666667</ele><time>2026-04-05T14:55:48.001Z</time></trkpt><trkpt lat="45.53909638632816" lon="5.968263137943016"><ele>315.0</ele><time>2026-04-05T14:55:49.001Z</time></trkpt><trkpt lat="45.53925718165209" lon="5.968245638912843"><ele>315.0</ele><time>2026-04-05T14:55:50.001Z</time></trkpt><trkpt lat="45.53941029552399" lon="5.968271191402284"><ele>315.0</ele><time>2026-04-05T14:55:51.001Z</time></trkpt><trkpt lat="45.53957059250376" lon="5.968286448264527"><ele>315.0</ele><time>2026-04-05T14:55:52.001Z</time></trkpt><trkpt lat="45.53974693641058" lon="5.968296784822551"><ele>315.6666666666667</ele><time>2026-04-05T14:55:53.001Z</time></trkpt><trkpt lat="45.53991053172283" lon="5.968319961615373"><ele>316.33333333333337</ele><time>2026-04-05T14:55:54.001Z</time></trkpt><trkpt lat="45.54007746320538" lon="5.968346402942638"><ele>317.0</ele><time>2026-04-05T14:55:55.001Z</time></trkpt><trkpt lat="45.54024460218995" lon="5.968389036392241"><ele>317.6666666666667</ele><time>2026-04-05T14:55:56.001Z</time></trkpt><trkpt lat="45.54041328747324" lon="5.968427618331521"><ele>318.3333333333333</ele><time>2026-04-05T14:55:57.001Z</time></trkpt><trkpt lat="45.540576063145636" lon="5.9684950186857275"><ele>319.0</ele><time>2026-04-05T14:55:58.001Z</time></trkpt><trkpt lat="45.540720384874604" lon="5.968569934862982"><ele>319.0</ele><time>2026-04-05T14:55:59.001Z</time></trkpt><trkpt lat="45.540865142091505" lon="5.968636477948218"><ele>319.0</ele><time>2026-04-05T14:56:00.001Z</time></trkpt><trkpt lat="45.541002765466146" lon="5.9687017852350275"><ele>319.0</ele><time>2026-04-05T14:56:01.001Z</time></trkpt><trkpt lat="45.54115184401707" lon="5.968770150625881"><ele>319.0</ele><time>2026-04-05T14:56:02.001Z</time></trkpt><trkpt lat="45.541285557216156" lon="5.968832277362902"><ele>319.0</ele><time>2026-04-05T14:56:03.001Z</time></trkpt><trkpt lat="45.54142244707157" lon="5.968946945607949"><ele>319.0</ele><time>2026-04-05T14:56:04.001Z</time></trkpt><trkpt lat="45.541537838635385" lon="5.9690878323135586"><ele>318.66666666666663</ele><time>2026-04-05T14:56:05.001Z</time></trkpt><trkpt lat="45.54163955151766" lon="5.969251919975688"><ele>318.3333333333333</ele><time>2026-04-05T14:56:06.001Z</time></trkpt><trkpt lat="45.541737266082436" lon="5.9694260487662225"><ele>318.0</ele><time>2026-04-05T14:56:07.001Z</time></trkpt><trkpt lat="45.54183721457858" lon="5.969625054790446"><ele>318.0</ele><time>2026-04-05T14:56:08.001Z</time></trkpt><trkpt lat="45.541936942420165" lon="5.9698798869979015"><ele>318.0</ele><time>2026-04-05T14:56:09.001Z</time></trkpt><trkpt lat="45.542093314689275" lon="5.970068204167384"><ele>318.0</ele><time>2026-04-05T14:56:10.001Z</time></trkpt><trkpt lat="45.542261509335866" lon="5.970175902557798"><ele>317.75</ele><time>2026-04-05T14:56:12.001Z</time></trkpt><trkpt lat="45.5423763980972" lon="5.9702563563582265"><ele>317.5</ele><time>2026-04-05T14:56:13.001Z</time></trkpt><trkpt lat="45.54249546139268" lon="5.970310180120429"><ele>317.25</ele><time>2026-04-05T14:56:14.001Z</time></trkpt><trkpt lat="45.54260756764218" lon="5.970376230963625"><ele>317.0</ele><time>2026-04-05T14:56:15.002Z</time></trkpt><trkpt lat="45.54271673361365" lon="5.97047195941879"><ele>317.0</ele><time>2026-04-05T14:56:16.002Z</time></trkpt><trkpt lat="45.54282486431772" lon="5.970587942761063"><ele>317.0</ele><time>2026-04-05T14:56:17.002Z</time></trkpt><trkpt lat="45.54292985277608" lon="5.9707164261762715"><ele>317.0</ele><time>2026-04-05T14:56:18.002Z</time></trkpt><trkpt lat="45.54301726129137" lon="5.970869858214789"><ele>317.0</ele><time>2026-04-05T14:56:19.002Z</time></trkpt><trkpt lat="45.54310576840024" lon="5.970995634706446"><ele>315.75</ele><time>2026-04-05T14:56:20.002Z</time></trkpt><trkpt lat="45.543184531872605" lon="5.971123569223518"><ele>314.5</ele><time>2026-04-05T14:56:21.002Z</time></trkpt><trkpt lat="45.54326229475263" lon="5.97125256004485"><ele>313.25</ele><time>2026-04-05T14:56:22.002Z</time></trkpt><trkpt lat="45.54333883017587" lon="5.971382514918879"><ele>312.0</ele><time>2026-04-05T14:56:23.002Z</time></trkpt><trkpt lat="45.54340763761914" lon="5.971540091434448"><ele>312.0</ele><time>2026-04-05T14:56:24.002Z</time></trkpt><trkpt lat="45.543482393582714" lon="5.971677018106864"><ele>312.0</ele><time>2026-04-05T14:56:25.002Z</time></trkpt><trkpt lat="45.54356800028121" lon="5.971821103740808"><ele>312.0</ele><time>2026-04-05T14:56:26.002Z</time></trkpt><trkpt lat="45.543630501684916" lon="5.971988602457301"><ele>312.0</ele><time>2026-04-05T14:56:27.002Z</time></trkpt><trkpt lat="45.54371843843463" lon="5.972155536805235"><ele>312.0</ele><time>2026-04-05T14:56:28.002Z</time></trkpt><trkpt lat="45.54376751162566" lon="5.972292066776406"><ele>312.0</ele><time>2026-04-05T14:56:29.002Z</time></trkpt><trkpt lat="45.54384510473852" lon="5.9723924809211635"><ele>312.0</ele><time>2026-04-05T14:56:30.002Z</time></trkpt><trkpt lat="45.54390452063565" lon="5.972512785567185"><ele>312.0</ele><time>2026-04-05T14:56:31.002Z</time></trkpt><trkpt lat="45.54395673592499" lon="5.972615353504613"><ele>312.0</ele><time>2026-04-05T14:56:32.002Z</time></trkpt><trkpt lat="45.54400204271289" lon="5.9727036287785555"><ele>312.0</ele><time>2026-04-05T14:56:33.002Z</time></trkpt><trkpt lat="45.54404550119219" lon="5.9727964953362465"><ele>312.0</ele><time>2026-04-05T14:56:34.002Z</time></trkpt><trkpt lat="45.54409127337423" lon="5.972886934065712"><ele>312.0</ele><time>2026-04-05T14:56:35.002Z</time></trkpt><trkpt lat="45.54413468869253" lon="5.972966338981315"><ele>312.0</ele><time>2026-04-05T14:56:36.002Z</time></trkpt><trkpt lat="45.54415866262959" lon="5.973052950304295"><ele>312.0</ele><time>2026-04-05T14:56:37.002Z</time></trkpt><trkpt lat="45.54419086497836" lon="5.973131654578514"><ele>312.0</ele><time>2026-04-05T14:56:38.002Z</time></trkpt><trkpt lat="45.54422838193276" lon="5.973213609550916"><ele>312.0</ele><time>2026-04-05T14:56:39.002Z</time></trkpt><trkpt lat="45.5442684004348" lon="5.97328806314394"><ele>311.7142857142857</ele><time>2026-04-05T14:56:40.002Z</time></trkpt><trkpt lat="45.54430744528516" lon="5.973364802613463"><ele>311.4285714285714</ele><time>2026-04-05T14:56:41.002Z</time></trkpt><trkpt lat="45.5443495757084" lon="5.973432639715949"><ele>311.1428571428571</ele><time>2026-04-05T14:56:42.002Z</time></trkpt><trkpt lat="45.54439484423388" lon="5.973500684641936"><ele>310.8571428571429</ele><time>2026-04-05T14:56:43.002Z</time></trkpt><trkpt lat="45.544436821630235" lon="5.97357346562908"><ele>310.57142857142856</ele><time>2026-04-05T14:56:44.002Z</time></trkpt><trkpt lat="45.54451310052217" lon="5.97371020623458"><ele>310.2857142857143</ele><time>2026-04-05T14:56:46.002Z</time></trkpt><trkpt lat="45.544539963143926" lon="5.9737923054690425"><ele>310.0</ele><time>2026-04-05T14:56:47.002Z</time></trkpt><trkpt lat="45.54462910763837" lon="5.97393734152733"><ele>310.0</ele><time>2026-04-05T14:56:49.002Z</time></trkpt><trkpt lat="45.54466630437244" lon="5.974030514386426"><ele>310.0</ele><time>2026-04-05T14:56:50.002Z</time></trkpt><trkpt lat="45.54470866571507" lon="5.974130472381943"><ele>310.0</ele><time>2026-04-05T14:56:51.002Z</time></trkpt><trkpt lat="45.54475858933595" lon="5.974216246152033"><ele>310.0</ele><time>2026-04-05T14:56:52.002Z</time></trkpt><trkpt lat="45.544798918116214" lon="5.974294091266559"><ele>310.0</ele><time>2026-04-05T14:56:53.002Z</time></trkpt><trkpt lat="45.54484455998943" lon="5.974368480818053"><ele>310.0</ele><time>2026-04-05T14:56:54.002Z</time></trkpt><trkpt lat="45.54490274757436" lon="5.974442271959197"><ele>310.4</ele><time>2026-04-05T14:56:55.002Z</time></trkpt><trkpt lat="45.54499089435283" lon="5.974517434256664"><ele>310.8</ele><time>2026-04-05T14:56:57.002Z</time></trkpt><trkpt lat="45.5450630963962" lon="5.9746060659824245"><ele>311.2</ele><time>2026-04-05T14:56:59.002Z</time></trkpt><trkpt lat="45.54512621311002" lon="5.9746791580972065"><ele>311.6</ele><time>2026-04-05T14:57:01.003Z</time></trkpt><trkpt lat="45.545194929412695" lon="5.974757007960927"><ele>312.0</ele><time>2026-04-05T14:57:03.003Z</time></trkpt><trkpt lat="45.545253966412965" lon="5.974851590860304"><ele>312.0</ele><time>2026-04-05T14:57:05.003Z</time></trkpt><trkpt lat="45.54530732313666" lon="5.975018378062403"><ele>312.0</ele><time>2026-04-05T14:57:07Z</time></trkpt><trkpt lat="45.545323222346084" lon="5.9751363231745005"><ele>312.0</ele><time>2026-04-05T14:57:08Z</time></trkpt><trkpt lat="45.545327877899624" lon="5.9752472297689705"><ele>312.0</ele><time>2026-04-05T14:57:09Z</time></trkpt><trkpt lat="45.545290967519094" lon="5.975385407591142"><ele>312.0</ele><time>2026-04-05T14:57:10Z</time></trkpt><trkpt lat="45.54524386448208" lon="5.9755431220039315"><ele>311.75</ele><time>2026-04-05T14:57:11Z</time></trkpt><trkpt lat="45.545197646654934" lon="5.975699597462616"><ele>311.5</ele><time>2026-04-05T14:57:12Z</time></trkpt><trkpt lat="45.54515766858759" lon="5.97584654747001"><ele>311.25</ele><time>2026-04-05T14:57:13Z</time></trkpt><trkpt lat="45.54511019730623" lon="5.975992614328708"><ele>311.0</ele><time>2026-04-05T14:57:14Z</time></trkpt><trkpt lat="45.54506261984543" lon="5.976141322306853"><ele>309.5</ele><time>2026-04-05T14:57:15Z</time></trkpt><trkpt lat="45.54500801527578" lon="5.976297483975358"><ele>308.0</ele><time>2026-04-05T14:57:16Z</time></trkpt><trkpt lat="45.54495009242316" lon="5.9764580963138165"><ele>306.5</ele><time>2026-04-05T14:57:17Z</time></trkpt><trkpt lat="45.54488789664375" lon="5.976617703965038"><ele>305.0</ele><time>2026-04-05T14:57:18Z</time></trkpt><trkpt lat="45.54483467251378" lon="5.976776682714544"><ele>304.8</ele><time>2026-04-05T14:57:19Z</time></trkpt><trkpt lat="45.544782777478204" lon="5.976917457338956"><ele>304.6</ele><time>2026-04-05T14:57:20Z</time></trkpt><trkpt lat="45.544731598956695" lon="5.977051356656668"><ele>304.4</ele><time>2026-04-05T14:57:21Z</time></trkpt><trkpt lat="45.544677453953135" lon="5.977179150046415"><ele>304.2</ele><time>2026-04-05T14:57:22Z</time></trkpt><trkpt lat="45.54463130842" lon="5.977299230724819"><ele>304.0</ele><time>2026-04-05T14:57:23Z</time></trkpt><trkpt lat="45.54458329343322" lon="5.977412211728241"><ele>305.2</ele><time>2026-04-05T14:57:24Z</time></trkpt><trkpt lat="45.54453820811705" lon="5.9775232784437975"><ele>306.4</ele><time>2026-04-05T14:57:25Z</time></trkpt><trkpt lat="45.54449231234592" lon="5.977632271084232"><ele>307.6</ele><time>2026-04-05T14:57:26Z</time></trkpt><trkpt lat="45.544445112779094" lon="5.977745962457293"><ele>308.8</ele><time>2026-04-05T14:57:27Z</time></trkpt><trkpt lat="45.54439648251743" lon="5.97786849055434"><ele>310.0</ele><time>2026-04-05T14:57:28Z</time></trkpt><trkpt lat="45.54434451379894" lon="5.977997229753231"><ele>310.0</ele><time>2026-04-05T14:57:29Z</time></trkpt><trkpt lat="45.54428809133906" lon="5.978124411696673"><ele>310.0</ele><time>2026-04-05T14:57:30Z</time></trkpt><trkpt lat="45.544231634126426" lon="5.978256731546239"><ele>310.0</ele><time>2026-04-05T14:57:31Z</time></trkpt><trkpt lat="45.544175610665185" lon="5.978386555627098"><ele>310.0</ele><time>2026-04-05T14:57:32Z</time></trkpt><trkpt lat="45.544124031442706" lon="5.978520294561803"><ele>310.0</ele><time>2026-04-05T14:57:33Z</time></trkpt><trkpt lat="45.54407151172195" lon="5.978654884762913"><ele>310.4</ele><time>2026-04-05T14:57:34.001Z</time></trkpt><trkpt lat="45.54401655549195" lon="5.978784725293416"><ele>310.8</ele><time>2026-04-05T14:57:35.001Z</time></trkpt><trkpt lat="45.543963105200504" lon="5.978914457192961"><ele>311.2</ele><time>2026-04-05T14:57:36.001Z</time></trkpt><trkpt lat="45.54390901574596" lon="5.979045532629924"><ele>311.6</ele><time>2026-04-05T14:57:37.001Z</time></trkpt><trkpt lat="45.543853974923806" lon="5.979178274694918"><ele>312.0</ele><time>2026-04-05T14:57:38.001Z</time></trkpt><trkpt lat="45.54380154796323" lon="5.9793213536413505"><ele>312.75</ele><time>2026-04-05T14:57:39.001Z</time></trkpt><trkpt lat="45.54376480803484" lon="5.979483344193136"><ele>313.5</ele><time>2026-04-05T14:57:40.001Z</time></trkpt><trkpt lat="45.543733983933784" lon="5.979653176409955"><ele>314.25</ele><time>2026-04-05T14:57:41.001Z</time></trkpt><trkpt lat="45.54371423687238" lon="5.979825023692841"><ele>315.0</ele><time>2026-04-05T14:57:42.001Z</time></trkpt><trkpt lat="45.54369082461115" lon="5.979991362366048"><ele>316.0</ele><time>2026-04-05T14:57:43.001Z</time></trkpt><trkpt lat="45.543674018733334" lon="5.9801548749899505"><ele>317.0</ele><time>2026-04-05T14:57:44.001Z</time></trkpt><trkpt lat="45.543655454835246" lon="5.9803060255142615"><ele>318.0</ele><time>2026-04-05T14:57:45.001Z</time></trkpt><trkpt lat="45.5436594331047" lon="5.980456033938355"><ele>319.0</ele><time>2026-04-05T14:57:46.001Z</time></trkpt><trkpt lat="45.54366518870797" lon="5.980599791534255"><ele>320.0</ele><time>2026-04-05T14:57:47.001Z</time></trkpt><trkpt lat="45.543675721025274" lon="5.98074099904564"><ele>320.4</ele><time>2026-04-05T14:57:48.001Z</time></trkpt><trkpt lat="45.54369157733203" lon="5.980881964769576"><ele>320.8</ele><time>2026-04-05T14:57:49.001Z</time></trkpt><trkpt lat="45.54370804578298" lon="5.981021551333668"><ele>321.20000000000005</ele><time>2026-04-05T14:57:50.001Z</time></trkpt><trkpt lat="45.543726441986884" lon="5.9811607028552665"><ele>321.6</ele><time>2026-04-05T14:57:51.001Z</time></trkpt><trkpt lat="45.5437504683863" lon="5.9813018991167155"><ele>322.0</ele><time>2026-04-05T14:57:52.001Z</time></trkpt><trkpt lat="45.54378490156353" lon="5.981456442197121"><ele>322.0</ele><time>2026-04-05T14:57:53.001Z</time></trkpt><trkpt lat="45.54381795343237" lon="5.981603065803685"><ele>322.0</ele><time>2026-04-05T14:57:54.001Z</time></trkpt><trkpt lat="45.5438469700265" lon="5.9817427535798435"><ele>322.0</ele><time>2026-04-05T14:57:55.001Z</time></trkpt><trkpt lat="45.5438656971293" lon="5.981883148077236"><ele>322.0</ele><time>2026-04-05T14:57:56.001Z</time></trkpt><trkpt lat="45.54389297834607" lon="5.98203131967922"><ele>322.0</ele><time>2026-04-05T14:57:57.001Z</time></trkpt><trkpt lat="45.54392127055249" lon="5.982185461618195"><ele>322.0</ele><time>2026-04-05T14:57:58.001Z</time></trkpt><trkpt lat="45.543950951842504" lon="5.982340784525119"><ele>322.0</ele><time>2026-04-05T14:57:59.001Z</time></trkpt><trkpt lat="45.54396525722018" lon="5.982501910860726"><ele>322.0</ele><time>2026-04-05T14:58:00.001Z</time></trkpt><trkpt lat="45.54396732228864" lon="5.982663454948026"><ele>322.0</ele><time>2026-04-05T14:58:01.001Z</time></trkpt><trkpt lat="45.54395831727184" lon="5.98282152077689"><ele>322.0</ele><time>2026-04-05T14:58:02.001Z</time></trkpt><trkpt lat="45.54394415574748" lon="5.9829775955759175"><ele>322.0</ele><time>2026-04-05T14:58:03.001Z</time></trkpt><trkpt lat="45.543928153550226" lon="5.983128039223763"><ele>322.0</ele><time>2026-04-05T14:58:04.001Z</time></trkpt><trkpt lat="45.54390614998665" lon="5.9832789053247755"><ele>322.0</ele><time>2026-04-05T14:58:05.001Z</time></trkpt><trkpt lat="45.54386877709883" lon="5.9834284994583"><ele>322.0</ele><time>2026-04-05T14:58:06.001Z</time></trkpt><trkpt lat="45.543820761567844" lon="5.983570436617007"><ele>321.8</ele><time>2026-04-05T14:58:07.001Z</time></trkpt><trkpt lat="45.54376990508839" lon="5.983708804516898"><ele>321.6</ele><time>2026-04-05T14:58:08.001Z</time></trkpt><trkpt lat="45.54371604396451" lon="5.9838468245815"><ele>321.40000000000003</ele><time>2026-04-05T14:58:09.001Z</time></trkpt><trkpt lat="45.543646392060445" lon="5.9839600095860135"><ele>321.20000000000005</ele><time>2026-04-05T14:58:10.001Z</time></trkpt><trkpt lat="45.54356921833607" lon="5.98406944477523"><ele>321.0</ele><time>2026-04-05T14:58:11.001Z</time></trkpt><trkpt lat="45.543483366975174" lon="5.984178710159683"><ele>319.75</ele><time>2026-04-05T14:58:12.001Z</time></trkpt><trkpt lat="45.5433992848102" lon="5.984291953759151"><ele>318.5</ele><time>2026-04-05T14:58:13.001Z</time></trkpt><trkpt lat="45.54331004133338" lon="5.984417738561796"><ele>317.25</ele><time>2026-04-05T14:58:14.001Z</time></trkpt><trkpt lat="45.543227281661544" lon="5.98453828332331"><ele>316.0</ele><time>2026-04-05T14:58:15.001Z</time></trkpt><trkpt lat="45.54315328531296" lon="5.984636187842377"><ele>316.0</ele><time>2026-04-05T14:58:16.001Z</time></trkpt><trkpt lat="45.543061313663486" lon="5.98476562374177"><ele>316.0</ele><time>2026-04-05T14:58:17.001Z</time></trkpt><trkpt lat="45.543009622344826" lon="5.984860224906376"><ele>316.0</ele><time>2026-04-05T14:58:18.001Z</time></trkpt><trkpt lat="45.54294319774717" lon="5.98495798632043"><ele>316.0</ele><time>2026-04-05T14:58:19.001Z</time></trkpt><trkpt lat="45.54287195533849" lon="5.985057671829658"><ele>316.0</ele><time>2026-04-05T14:58:20.001Z</time></trkpt><trkpt lat="45.542800041144496" lon="5.985141772722558"><ele>315.75</ele><time>2026-04-05T14:58:21.001Z</time></trkpt><trkpt lat="45.54271624821139" lon="5.98528283662951"><ele>315.5</ele><time>2026-04-05T14:58:22.001Z</time></trkpt><trkpt lat="45.54262524792284" lon="5.98540623243212"><ele>315.25</ele><time>2026-04-05T14:58:23.001Z</time></trkpt><trkpt lat="45.54253262588694" lon="5.985537326673217"><ele>315.0</ele><time>2026-04-05T14:58:24.001Z</time></trkpt><trkpt lat="45.54243273482826" lon="5.98567957121252"><ele>315.0</ele><time>2026-04-05T14:58:25.001Z</time></trkpt><trkpt lat="45.542337655817576" lon="5.985829077888824"><ele>315.0</ele><time>2026-04-05T14:58:26.002Z</time></trkpt><trkpt lat="45.5422389844556" lon="5.985977669568744"><ele>315.0</ele><time>2026-04-05T14:58:27.002Z</time></trkpt><trkpt lat="45.54212564178176" lon="5.986116407575193"><ele>315.0</ele><time>2026-04-05T14:58:28.002Z</time></trkpt><trkpt lat="45.54202077170139" lon="5.986265661337313"><ele>315.25</ele><time>2026-04-05T14:58:29.002Z</time></trkpt><trkpt lat="45.541925221238294" lon="5.986419980346405"><ele>315.5</ele><time>2026-04-05T14:58:30.002Z</time></trkpt><trkpt lat="45.54182151574305" lon="5.986570537575591"><ele>315.75</ele><time>2026-04-05T14:58:31.002Z</time></trkpt><trkpt lat="45.541722928019986" lon="5.9867183661800665"><ele>316.0</ele><time>2026-04-05T14:58:32.002Z</time></trkpt><trkpt lat="45.54162337028864" lon="5.986860436089926"><ele>316.0</ele><time>2026-04-05T14:58:33.002Z</time></trkpt><trkpt lat="45.54152656589118" lon="5.987008026111922"><ele>316.0</ele><time>2026-04-05T14:58:34.002Z</time></trkpt><trkpt lat="45.54143159111212" lon="5.987151953052876"><ele>316.0</ele><time>2026-04-05T14:58:35.002Z</time></trkpt><trkpt lat="45.54133873985352" lon="5.987283963358875"><ele>316.0</ele><time>2026-04-05T14:58:36.002Z</time></trkpt><trkpt lat="45.541253774831965" lon="5.9874105070317505"><ele>316.5</ele><time>2026-04-05T14:58:37.002Z</time></trkpt><trkpt lat="45.54116119137333" lon="5.987515311254266"><ele>317.0</ele><time>2026-04-05T14:58:38.002Z</time></trkpt><trkpt lat="45.54108301460703" lon="5.987631040142676"><ele>317.5</ele><time>2026-04-05T14:58:39.002Z</time></trkpt><trkpt lat="45.54100638852167" lon="5.987752691394868"><ele>318.0</ele><time>2026-04-05T14:58:40.002Z</time></trkpt><trkpt lat="45.54093204837651" lon="5.9878661061517695"><ele>318.0</ele><time>2026-04-05T14:58:41.002Z</time></trkpt><trkpt lat="45.54085763850775" lon="5.9879798712945"><ele>318.0</ele><time>2026-04-05T14:58:42.002Z</time></trkpt><trkpt lat="45.540782765080856" lon="5.988091259125006"><ele>318.0</ele><time>2026-04-05T14:58:43.002Z</time></trkpt><trkpt lat="45.5407054103655" lon="5.988199461445115"><ele>318.0</ele><time>2026-04-05T14:58:44.002Z</time></trkpt><trkpt lat="45.54063209257425" lon="5.988305037178343"><ele>318.0</ele><time>2026-04-05T14:58:45.002Z</time></trkpt><trkpt lat="45.54056271126462" lon="5.988409377945606"><ele>318.4</ele><time>2026-04-05T14:58:46.002Z</time></trkpt><trkpt lat="45.540487348593366" lon="5.988507235616166"><ele>318.8</ele><time>2026-04-05T14:58:47.002Z</time></trkpt><trkpt lat="45.54041066005339" lon="5.98861709872149"><ele>319.2</ele><time>2026-04-05T14:58:48.002Z</time></trkpt><trkpt lat="45.54033250891003" lon="5.988735902134253"><ele>319.6</ele><time>2026-04-05T14:58:49.002Z</time></trkpt><trkpt lat="45.54025649528846" lon="5.988848504872694"><ele>320.0</ele><time>2026-04-05T14:58:50.002Z</time></trkpt><trkpt lat="45.54017889089924" lon="5.988953910215017"><ele>320.1666666666667</ele><time>2026-04-05T14:58:51.002Z</time></trkpt><trkpt lat="45.540104428234166" lon="5.9890576345812825"><ele>320.33333333333337</ele><time>2026-04-05T14:58:52.002Z</time></trkpt><trkpt lat="45.540028409707524" lon="5.989146140037264"><ele>320.5</ele><time>2026-04-05T14:58:53.002Z</time></trkpt><trkpt lat="45.539960798516084" lon="5.989236142748225"><ele>320.6666666666667</ele><time>2026-04-05T14:58:54.002Z</time></trkpt><trkpt lat="45.53990966230081" lon="5.9893135877621635"><ele>320.8333333333333</ele><time>2026-04-05T14:58:55.002Z</time></trkpt><trkpt lat="45.53985955435554" lon="5.989392291131562"><ele>321.0</ele><time>2026-04-05T14:58:56.002Z</time></trkpt><trkpt lat="45.53980473279601" lon="5.989441099841571"><ele>321.8</ele><time>2026-04-05T14:58:57.002Z</time></trkpt><trkpt lat="45.53978150715475" lon="5.989548908520628"><ele>322.6</ele><time>2026-04-05T14:58:58.002Z</time></trkpt><trkpt lat="45.539682253157665" lon="5.9896741118384815"><ele>323.4</ele><time>2026-04-05T14:59:00.002Z</time></trkpt><trkpt lat="45.539617009366324" lon="5.989725875865103"><ele>324.2</ele><time>2026-04-05T14:59:01.002Z</time></trkpt><trkpt lat="45.539596853528934" lon="5.989825547328799"><ele>325.0</ele><time>2026-04-05T14:59:02.002Z</time></trkpt><trkpt lat="45.53957168784286" lon="5.989958358887476"><ele>325.0</ele><time>2026-04-05T14:59:03.002Z</time></trkpt><trkpt lat="45.53946506322021" lon="5.990097044800965"><ele>325.0</ele><time>2026-04-05T14:59:04.002Z</time></trkpt><trkpt lat="45.53937427160933" lon="5.990168623665623"><ele>325.0</ele><time>2026-04-05T14:59:05.002Z</time></trkpt><trkpt lat="45.5392708499553" lon="5.990215078552358"><ele>325.0</ele><time>2026-04-05T14:59:06.002Z</time></trkpt><trkpt lat="45.5391694799207" lon="5.990262869954558"><ele>325.0</ele><time>2026-04-05T14:59:07.002Z</time></trkpt><trkpt lat="45.53907431118308" lon="5.9903180304587"><ele>325.0</ele><time>2026-04-05T14:59:08.002Z</time></trkpt><trkpt lat="45.53897819947323" lon="5.990376126828543"><ele>325.0</ele><time>2026-04-05T14:59:09.002Z</time></trkpt><trkpt lat="45.53888651996226" lon="5.990430488940423"><ele>325.0</ele><time>2026-04-05T14:59:10.002Z</time></trkpt><trkpt lat="45.53880011460808" lon="5.990476117639079"><ele>325.0</ele><time>2026-04-05T14:59:11.002Z</time></trkpt><trkpt lat="45.538714472599835" lon="5.990521336753399"><ele>325.4</ele><time>2026-04-05T14:59:12Z</time></trkpt><trkpt lat="45.53862918084422" lon="5.990566185664378"><ele>325.8</ele><time>2026-04-05T14:59:13Z</time></trkpt><trkpt lat="45.53854178355083" lon="5.990613150642213"><ele>326.20000000000005</ele><time>2026-04-05T14:59:14Z</time></trkpt><trkpt lat="45.538451335499204" lon="5.990661838518461"><ele>326.6</ele><time>2026-04-05T14:59:15Z</time></trkpt><trkpt lat="45.53836664831921" lon="5.990712347136541"><ele>327.0</ele><time>2026-04-05T14:59:16Z</time></trkpt><trkpt lat="45.5382806707724" lon="5.990759882045079"><ele>327.0</ele><time>2026-04-05T14:59:17Z</time></trkpt><trkpt lat="45.53819531615306" lon="5.990806580780763"><ele>327.0</ele><time>2026-04-05T14:59:18Z</time></trkpt><trkpt lat="45.53811183851627" lon="5.990846550819681"><ele>327.0</ele><time>2026-04-05T14:59:19Z</time></trkpt><trkpt lat="45.53802686430848" lon="5.990885756055926"><ele>327.0</ele><time>2026-04-05T14:59:20Z</time></trkpt><trkpt lat="45.53794294113484" lon="5.990919211721076"><ele>327.0</ele><time>2026-04-05T14:59:21Z</time></trkpt><trkpt lat="45.53787564188253" lon="5.990942354392781"><ele>327.0</ele><time>2026-04-05T14:59:22Z</time></trkpt><trkpt lat="45.53778846137752" lon="5.990977739287044"><ele>327.6</ele><time>2026-04-05T14:59:24Z</time></trkpt><trkpt lat="45.5376835328179" lon="5.99105532995117"><ele>328.20000000000005</ele><time>2026-04-05T14:59:32Z</time></trkpt><trkpt lat="45.53761318798809" lon="5.991095913814899"><ele>328.8</ele><time>2026-04-05T14:59:33Z</time></trkpt><trkpt lat="45.53750123856742" lon="5.991158878256001"><ele>329.4</ele><time>2026-04-05T14:59:35Z</time></trkpt><trkpt lat="45.537404968317595" lon="5.991200227077638"><ele>330.0</ele><time>2026-04-05T14:59:37Z</time></trkpt><trkpt lat="45.537321607621486" lon="5.991261212576512"><ele>330.0</ele><time>2026-04-05T14:59:39Z</time></trkpt><trkpt lat="45.5372378417497" lon="5.991299539809835"><ele>330.0</ele><time>2026-04-05T14:59:41Z</time></trkpt><trkpt lat="45.537160299360835" lon="5.991339069454809"><ele>330.0</ele><time>2026-04-05T14:59:43Z</time></trkpt><trkpt lat="45.53709107450104" lon="5.991384171049105"><ele>330.0</ele><time>2026-04-05T14:59:45.001Z</time></trkpt><trkpt lat="45.53702518330433" lon="5.991411926725243"><ele>330.0</ele><time>2026-04-05T14:59:47.001Z</time></trkpt><trkpt lat="45.53695459895582" lon="5.991441958189243"><ele>330.0</ele><time>2026-04-05T14:59:49.001Z</time></trkpt><trkpt lat="45.53688281697314" lon="5.9914848174302175"><ele>329.6</ele><time>2026-04-05T14:59:51.001Z</time></trkpt><trkpt lat="45.536766664868985" lon="5.99154825412413"><ele>329.2</ele><time>2026-04-05T14:59:53.001Z</time></trkpt><trkpt lat="45.53669611776572" lon="5.9915847450950315"><ele>328.79999999999995</ele><time>2026-04-05T14:59:54.001Z</time></trkpt><trkpt lat="45.53660832104593" lon="5.991629119042344"><ele>328.4</ele><time>2026-04-05T14:59:55.001Z</time></trkpt><trkpt lat="45.53651468281661" lon="5.991688551790374"><ele>328.0</ele><time>2026-04-05T14:59:56.001Z</time></trkpt><trkpt lat="45.53641550849001" lon="5.991733716620604"><ele>328.0</ele><time>2026-04-05T14:59:57.001Z</time></trkpt><trkpt lat="45.53630919917222" lon="5.991775631945213"><ele>328.0</ele><time>2026-04-05T14:59:58.001Z</time></trkpt><trkpt lat="45.536207925370825" lon="5.991830293643614"><ele>328.0</ele><time>2026-04-05T14:59:59.001Z</time></trkpt><trkpt lat="45.53610660165506" lon="5.991878893568949"><ele>328.0</ele><time>2026-04-05T15:00:00.001Z</time></trkpt><trkpt lat="45.53600046168381" lon="5.991937760226343"><ele>328.0</ele><time>2026-04-05T15:00:01.001Z</time></trkpt><trkpt lat="45.53589627867992" lon="5.9920026188295195"><ele>328.0</ele><time>2026-04-05T15:00:02.001Z</time></trkpt><trkpt lat="45.53578679912653" lon="5.9920637941299715"><ele>328.0</ele><time>2026-04-05T15:00:03.001Z</time></trkpt><trkpt lat="45.535679842019036" lon="5.992116220481703"><ele>328.0</ele><time>2026-04-05T15:00:04.001Z</time></trkpt><trkpt lat="45.535569204649725" lon="5.992173798317595"><ele>328.0</ele><time>2026-04-05T15:00:05.001Z</time></trkpt><trkpt lat="45.5354599676303" lon="5.992234571479875"><ele>328.75</ele><time>2026-04-05T15:00:06.001Z</time></trkpt><trkpt lat="45.53535016351783" lon="5.9922908453140735"><ele>329.5</ele><time>2026-04-05T15:00:07.001Z</time></trkpt><trkpt lat="45.535231217734385" lon="5.9923280391462885"><ele>330.25</ele><time>2026-04-05T15:00:08.001Z</time></trkpt><trkpt lat="45.535110052873364" lon="5.992355684348999"><ele>331.0</ele><time>2026-04-05T15:00:09.001Z</time></trkpt><trkpt lat="45.53498164178061" lon="5.992374487578875"><ele>331.0</ele><time>2026-04-05T15:00:10.001Z</time></trkpt><trkpt lat="45.53485534920949" lon="5.992386841917689"><ele>331.0</ele><time>2026-04-05T15:00:11.001Z</time></trkpt><trkpt lat="45.53477133654621" lon="5.992373026549109"><ele>331.0</ele><time>2026-04-05T15:00:12.001Z</time></trkpt><trkpt lat="45.534620285517825" lon="5.992368531321185"><ele>331.0</ele><time>2026-04-05T15:00:13.001Z</time></trkpt><trkpt lat="45.53448978638032" lon="5.99232957462725"><ele>331.25</ele><time>2026-04-05T15:00:14.001Z</time></trkpt><trkpt lat="45.53435805166435" lon="5.992297202324877"><ele>331.5</ele><time>2026-04-05T15:00:15.001Z</time></trkpt><trkpt lat="45.534229380455834" lon="5.99223980589512"><ele>331.75</ele><time>2026-04-05T15:00:16.001Z</time></trkpt><trkpt lat="45.53410528268541" lon="5.992203375807614"><ele>332.0</ele><time>2026-04-05T15:00:17.001Z</time></trkpt><trkpt lat="45.53396067470873" lon="5.992169997245743"><ele>332.0</ele><time>2026-04-05T15:00:18.001Z</time></trkpt><trkpt lat="45.533849847778065" lon="5.9921316540026295"><ele>332.0</ele><time>2026-04-05T15:00:19.001Z</time></trkpt><trkpt lat="45.533738983242166" lon="5.992099279771093"><ele>332.0</ele><time>2026-04-05T15:00:20.001Z</time></trkpt><trkpt lat="45.533633484295734" lon="5.992059339533143"><ele>332.0</ele><time>2026-04-05T15:00:21.001Z</time></trkpt><trkpt lat="45.5335391041266" lon="5.992050317930126"><ele>332.0</ele><time>2026-04-05T15:00:22.001Z</time></trkpt><trkpt lat="45.53343914644497" lon="5.992036779694798"><ele>331.5</ele><time>2026-04-05T15:00:23.001Z</time></trkpt><trkpt lat="45.53334445976325" lon="5.99202919572004"><ele>331.0</ele><time>2026-04-05T15:00:24.001Z</time></trkpt><trkpt lat="45.533258773731184" lon="5.992029746162449"><ele>330.5</ele><time>2026-04-05T15:00:25.001Z</time></trkpt><trkpt lat="45.533181227644604" lon="5.992034346331466"><ele>330.0</ele><time>2026-04-05T15:00:26.001Z</time></trkpt><trkpt lat="45.53311298190446" lon="5.9920399747209645"><ele>329.5</ele><time>2026-04-05T15:00:27.001Z</time></trkpt><trkpt lat="45.533009097304074" lon="5.992064826437924"><ele>329.0</ele><time>2026-04-05T15:00:29.001Z</time></trkpt><trkpt lat="45.53296053362151" lon="5.992122774246908"><ele>327.79999999999995</ele><time>2026-04-05T15:01:00.002Z</time></trkpt><trkpt lat="45.53282953797484" lon="5.992157284969462"><ele>326.59999999999997</ele><time>2026-04-05T15:01:02.002Z</time></trkpt><trkpt lat="45.53274631194871" lon="5.992183611801674"><ele>325.4</ele><time>2026-04-05T15:01:03.002Z</time></trkpt><trkpt lat="45.532654903662994" lon="5.992205316339286"><ele>324.2</ele><time>2026-04-05T15:01:04.002Z</time></trkpt><trkpt lat="45.532555912717044" lon="5.992214246901794"><ele>323.0</ele><time>2026-04-05T15:01:05.002Z</time></trkpt><trkpt lat="45.53245484164418" lon="5.992231081380496"><ele>323.0</ele><time>2026-04-05T15:01:06.002Z</time></trkpt><trkpt lat="45.53233997070236" lon="5.99224921668617"><ele>323.0</ele><time>2026-04-05T15:01:07.002Z</time></trkpt><trkpt lat="45.53222309071351" lon="5.99226306111689"><ele>323.0</ele><time>2026-04-05T15:01:08.002Z</time></trkpt><trkpt lat="45.53209165226507" lon="5.99226973312753"><ele>323.0</ele><time>2026-04-05T15:01:09.002Z</time></trkpt><trkpt lat="45.53195408201024" lon="5.992279621947894"><ele>322.25</ele><time>2026-04-05T15:01:10.002Z</time></trkpt><trkpt lat="45.531815547777384" lon="5.992290183687886"><ele>321.5</ele><time>2026-04-05T15:01:11.002Z</time></trkpt><trkpt lat="45.53167611281137" lon="5.992305035874505"><ele>320.75</ele><time>2026-04-05T15:01:12.002Z</time></trkpt><trkpt lat="45.53152815835936" lon="5.992326021228579"><ele>320.0</ele><time>2026-04-05T15:01:13.002Z</time></trkpt><trkpt lat="45.53137187571292" lon="5.99234376837347"><ele>319.0</ele><time>2026-04-05T15:01:14.002Z</time></trkpt><trkpt lat="45.5312158047277" lon="5.992364425709117"><ele>318.0</ele><time>2026-04-05T15:01:15.002Z</time></trkpt><trkpt lat="45.53106316382881" lon="5.99238452396651"><ele>317.0</ele><time>2026-04-05T15:01:16.002Z</time></trkpt><trkpt lat="45.53090670003744" lon="5.992409309425575"><ele>317.0</ele><time>2026-04-05T15:01:17.002Z</time></trkpt><trkpt lat="45.530745662136994" lon="5.992436085072337"><ele>317.0</ele><time>2026-04-05T15:01:18Z</time></trkpt><trkpt lat="45.5305826155283" lon="5.992467589051425"><ele>317.0</ele><time>2026-04-05T15:01:19Z</time></trkpt><trkpt lat="45.530421082987885" lon="5.992494788025095"><ele>320.6666666666667</ele><time>2026-04-05T15:01:20Z</time></trkpt><trkpt lat="45.53025542594928" lon="5.992516885016655"><ele>324.3333333333333</ele><time>2026-04-05T15:01:21Z</time></trkpt><trkpt lat="45.53008793901834" lon="5.9925371879209175"><ele>328.0</ele><time>2026-04-05T15:01:22Z</time></trkpt><trkpt lat="45.529912316379196" lon="5.992555062988923"><ele>328.0</ele><time>2026-04-05T15:01:23Z</time></trkpt><trkpt lat="45.529735175545134" lon="5.992566648337249"><ele>328.0</ele><time>2026-04-05T15:01:24Z</time></trkpt><trkpt lat="45.52955423772933" lon="5.9925767209529575"><ele>328.0</ele><time>2026-04-05T15:01:25Z</time></trkpt><trkpt lat="45.52937662278612" lon="5.992589182300512"><ele>325.66666666666663</ele><time>2026-04-05T15:01:26Z</time></trkpt><trkpt lat="45.52920761823827" lon="5.992596559721235"><ele>323.3333333333333</ele><time>2026-04-05T15:01:27Z</time></trkpt><trkpt lat="45.529036686145126" lon="5.9926081235506645"><ele>321.0</ele><time>2026-04-05T15:01:28Z</time></trkpt><trkpt lat="45.52886244267861" lon="5.992620959142569"><ele>320.0</ele><time>2026-04-05T15:01:29Z</time></trkpt><trkpt lat="45.528690486688085" lon="5.9926411448219"><ele>319.0</ele><time>2026-04-05T15:01:30Z</time></trkpt><trkpt lat="45.52851619163904" lon="5.992653859633247"><ele>318.0</ele><time>2026-04-05T15:01:31Z</time></trkpt><trkpt lat="45.52833942292241" lon="5.9926693884812385"><ele>318.0</ele><time>2026-04-05T15:01:32Z</time></trkpt><trkpt lat="45.52816201690768" lon="5.992681081796074"><ele>318.0</ele><time>2026-04-05T15:01:33Z</time></trkpt><trkpt lat="45.52798277525825" lon="5.992693493766375"><ele>318.0</ele><time>2026-04-05T15:01:34Z</time></trkpt><trkpt lat="45.527797749549244" lon="5.992707611267938"><ele>317.0</ele><time>2026-04-05T15:01:35Z</time></trkpt><trkpt lat="45.52760601750725" lon="5.992722962199947"><ele>316.0</ele><time>2026-04-05T15:01:36Z</time></trkpt><trkpt lat="45.52740745984161" lon="5.992743911318073"><ele>315.0</ele><time>2026-04-05T15:01:37Z</time></trkpt><trkpt lat="45.52720536085361" lon="5.9927731568424205"><ele>314.6666666666667</ele><time>2026-04-05T15:01:38Z</time></trkpt><trkpt lat="45.52700453317557" lon="5.992813364274501"><ele>314.33333333333337</ele><time>2026-04-05T15:01:39Z</time></trkpt><trkpt lat="45.52680694577367" lon="5.992866606699323"><ele>314.0</ele><time>2026-04-05T15:01:40Z</time></trkpt><trkpt lat="45.52660726590798" lon="5.992926818948891"><ele>314.0</ele><time>2026-04-05T15:01:41Z</time></trkpt><trkpt lat="45.526412525402705" lon="5.992987153597063"><ele>314.0</ele><time>2026-04-05T15:01:42Z</time></trkpt><trkpt lat="45.526222273219965" lon="5.993066401329372"><ele>314.0</ele><time>2026-04-05T15:01:43Z</time></trkpt><trkpt lat="45.52602895684561" lon="5.993152828891258"><ele>314.0</ele><time>2026-04-05T15:01:44Z</time></trkpt><trkpt lat="45.525836507807675" lon="5.993251485889433"><ele>314.0</ele><time>2026-04-05T15:01:45Z</time></trkpt><trkpt lat="45.52564676271246" lon="5.993362863738319"><ele>314.0</ele><time>2026-04-05T15:01:46Z</time></trkpt><trkpt lat="45.52546133432512" lon="5.9934738012590305"><ele>312.33333333333337</ele><time>2026-04-05T15:01:47Z</time></trkpt><trkpt lat="45.52527517538288" lon="5.993588579711129"><ele>310.6666666666667</ele><time>2026-04-05T15:01:48Z</time></trkpt><trkpt lat="45.525088918050926" lon="5.993706355019212"><ele>309.0</ele><time>2026-04-05T15:01:49Z</time></trkpt><trkpt lat="45.524898125582766" lon="5.993827531685445"><ele>309.0</ele><time>2026-04-05T15:01:50Z</time></trkpt><trkpt lat="45.52470631381461" lon="5.993948729860599"><ele>309.0</ele><time>2026-04-05T15:01:51Z</time></trkpt><trkpt lat="45.52451622517166" lon="5.994071383861921"><ele>309.0</ele><time>2026-04-05T15:01:52Z</time></trkpt><trkpt lat="45.5243195442851" lon="5.994190323049161"><ele>309.0</ele><time>2026-04-05T15:01:53.001Z</time></trkpt><trkpt lat="45.52412406305943" lon="5.994311751731596"><ele>309.0</ele><time>2026-04-05T15:01:54.001Z</time></trkpt><trkpt lat="45.52392672362697" lon="5.9944406474077"><ele>309.0</ele><time>2026-04-05T15:01:55.001Z</time></trkpt><trkpt lat="45.523727631758945" lon="5.9945647428360465"><ele>307.6666666666667</ele><time>2026-04-05T15:01:56.001Z</time></trkpt><trkpt lat="45.523529538238385" lon="5.994688941649384"><ele>306.33333333333337</ele><time>2026-04-05T15:01:57.001Z</time></trkpt><trkpt lat="45.52333306090432" lon="5.9948103604296"><ele>305.0</ele><time>2026-04-05T15:01:58.001Z</time></trkpt><trkpt lat="45.52315464761817" lon="5.994929770450649"><ele>305.0</ele><time>2026-04-05T15:01:59.001Z</time></trkpt><trkpt lat="45.522986222147324" lon="5.9950380989320395"><ele>305.0</ele><time>2026-04-05T15:02:00.001Z</time></trkpt><trkpt lat="45.52281352098081" lon="5.995144879257436"><ele>305.0</ele><time>2026-04-05T15:02:01.001Z</time></trkpt><trkpt lat="45.522634575265904" lon="5.9952696693495335"><ele>305.0</ele><time>2026-04-05T15:02:02.001Z</time></trkpt><trkpt lat="45.52245650939716" lon="5.995413823034931"><ele>305.0</ele><time>2026-04-05T15:02:03.001Z</time></trkpt><trkpt lat="45.52228111143036" lon="5.995576767227838"><ele>305.0</ele><time>2026-04-05T15:02:04.001Z</time></trkpt><trkpt lat="45.522097595233035" lon="5.995747981369533"><ele>304.0</ele><time>2026-04-05T15:02:05.001Z</time></trkpt><trkpt lat="45.521919161891084" lon="5.995940334854426"><ele>303.0</ele><time>2026-04-05T15:02:06.001Z</time></trkpt><trkpt lat="45.52174508973629" lon="5.996141926888539"><ele>302.0</ele><time>2026-04-05T15:02:07.001Z</time></trkpt><trkpt lat="45.52157473922878" lon="5.996353005124488"><ele>302.0</ele><time>2026-04-05T15:02:08.001Z</time></trkpt><trkpt lat="45.521406685762734" lon="5.996575060674881"><ele>302.0</ele><time>2026-04-05T15:02:09.001Z</time></trkpt><trkpt lat="45.52124346803723" lon="5.9968067098901505"><ele>301.0</ele><time>2026-04-05T15:02:10.001Z</time></trkpt><trkpt lat="45.52108241128375" lon="5.99703682801761"><ele>300.0</ele><time>2026-04-05T15:02:11.001Z</time></trkpt><trkpt lat="45.520924363017286" lon="5.997262489148825"><ele>300.0</ele><time>2026-04-05T15:02:12.001Z</time></trkpt><trkpt lat="45.52077012338605" lon="5.9974841530863765"><ele>300.0</ele><time>2026-04-05T15:02:13.001Z</time></trkpt><trkpt lat="45.52062286980225" lon="5.997699398615226"><ele>300.0</ele><time>2026-04-05T15:02:14.001Z</time></trkpt><trkpt lat="45.520467454874264" lon="5.997916000396509"><ele>299.0</ele><time>2026-04-05T15:02:15.001Z</time></trkpt><trkpt lat="45.52031941551973" lon="5.998128437157197"><ele>298.0</ele><time>2026-04-05T15:02:16.001Z</time></trkpt><trkpt lat="45.520172945258196" lon="5.998339249654057"><ele>297.0</ele><time>2026-04-05T15:02:17.001Z</time></trkpt><trkpt lat="45.52003209584794" lon="5.998545815116652"><ele>296.6666666666667</ele><time>2026-04-05T15:02:18.001Z</time></trkpt><trkpt lat="45.5198938794728" lon="5.998754922750895"><ele>296.33333333333337</ele><time>2026-04-05T15:02:19.001Z</time></trkpt><trkpt lat="45.51975612408032" lon="5.998954038381519"><ele>296.0</ele><time>2026-04-05T15:02:20.001Z</time></trkpt><trkpt lat="45.51961922398893" lon="5.999140262398367"><ele>296.6666666666667</ele><time>2026-04-05T15:02:21.001Z</time></trkpt><trkpt lat="45.519491730184654" lon="5.999313361216141"><ele>297.3333333333333</ele><time>2026-04-05T15:02:22.001Z</time></trkpt><trkpt lat="45.51935929947453" lon="5.999480169358291"><ele>298.0</ele><time>2026-04-05T15:02:23.001Z</time></trkpt><trkpt lat="45.51918493548194" lon="5.99966442676185"><ele>298.0</ele><time>2026-04-05T15:02:24.001Z</time></trkpt><trkpt lat="45.51902424269048" lon="5.99987899112066"><ele>298.0</ele><time>2026-04-05T15:02:25.001Z</time></trkpt><trkpt lat="45.51902502798176" lon="5.999975703061244"><ele>298.0</ele><time>2026-04-05T15:02:26.001Z</time></trkpt><trkpt lat="45.51892102610816" lon="6.000115177123985"><ele>298.0</ele><time>2026-04-05T15:02:27.001Z</time></trkpt><trkpt lat="45.51882581237735" lon="6.000248410747842"><ele>298.0</ele><time>2026-04-05T15:02:28.001Z</time></trkpt><trkpt lat="45.518741427633415" lon="6.000374113680346"><ele>298.0</ele><time>2026-04-05T15:02:29.001Z</time></trkpt><trkpt lat="45.51867161363021" lon="6.000480416880519"><ele>298.0</ele><time>2026-04-05T15:02:30.001Z</time></trkpt><trkpt lat="45.518607156434186" lon="6.000575176423561"><ele>298.0</ele><time>2026-04-05T15:02:31.001Z</time></trkpt><trkpt lat="45.5185540920001" lon="6.000642860983922"><ele>298.0</ele><time>2026-04-05T15:02:32.001Z</time></trkpt><trkpt lat="45.51849097828862" lon="6.000741956304021"><ele>298.0</ele><time>2026-04-05T15:02:34.001Z</time></trkpt><trkpt lat="45.51842467747923" lon="6.0008332777249365"><ele>298.0</ele><time>2026-04-05T15:02:41.001Z</time></trkpt><trkpt lat="45.51837367339913" lon="6.000899823816594"><ele>298.0</ele><time>2026-04-05T15:02:42.001Z</time></trkpt><trkpt lat="45.518303830344465" lon="6.000988036477375"><ele>298.0</ele><time>2026-04-05T15:02:43.001Z</time></trkpt><trkpt lat="45.51823129075573" lon="6.001095358153113"><ele>298.0</ele><time>2026-04-05T15:02:44.002Z</time></trkpt><trkpt lat="45.51815713855425" lon="6.001206378836499"><ele>298.0</ele><time>2026-04-05T15:02:45.002Z</time></trkpt><trkpt lat="45.51807717319653" lon="6.001339287966857"><ele>298.0</ele><time>2026-04-05T15:02:46.002Z</time></trkpt><trkpt lat="45.5179775292383" lon="6.00147532243721"><ele>298.0</ele><time>2026-04-05T15:02:47.002Z</time></trkpt><trkpt lat="45.51787793327231" lon="6.0016344312718335"><ele>298.0</ele><time>2026-04-05T15:02:48.002Z</time></trkpt><trkpt lat="45.517779436493576" lon="6.001779416882865"><ele>297.66666666666663</ele><time>2026-04-05T15:02:49.002Z</time></trkpt><trkpt lat="45.517672477425826" lon="6.00193358038837"><ele>297.3333333333333</ele><time>2026-04-05T15:02:50.002Z</time></trkpt><trkpt lat="45.5175698308593" lon="6.00208236262236"><ele>297.0</ele><time>2026-04-05T15:02:51.002Z</time></trkpt><trkpt lat="45.51745721255392" lon="6.002230912643952"><ele>297.0</ele><time>2026-04-05T15:02:52.002Z</time></trkpt><trkpt lat="45.51734531594111" lon="6.002383244190074"><ele>297.0</ele><time>2026-04-05T15:02:53.002Z</time></trkpt><trkpt lat="45.517228760032914" lon="6.002545306686908"><ele>297.0</ele><time>2026-04-05T15:02:54.002Z</time></trkpt><trkpt lat="45.51711099779623" lon="6.002714914531488"><ele>297.3333333333333</ele><time>2026-04-05T15:02:55.002Z</time></trkpt><trkpt lat="45.51699387562224" lon="6.002883531162848"><ele>297.66666666666663</ele><time>2026-04-05T15:02:56.002Z</time></trkpt><trkpt lat="45.51687478181418" lon="6.003050872782191"><ele>298.0</ele><time>2026-04-05T15:02:57.002Z</time></trkpt><trkpt lat="45.51675648823112" lon="6.00321042147852"><ele>298.0</ele><time>2026-04-05T15:02:58.002Z</time></trkpt><trkpt lat="45.51665037260737" lon="6.003355911020629"><ele>298.0</ele><time>2026-04-05T15:02:59.002Z</time></trkpt><trkpt lat="45.51655580494991" lon="6.003495184209549"><ele>298.0</ele><time>2026-04-05T15:03:00.002Z</time></trkpt><trkpt lat="45.51646063870223" lon="6.003637885387052"><ele>298.0</ele><time>2026-04-05T15:03:01.002Z</time></trkpt><trkpt lat="45.51635561140563" lon="6.003780187390002"><ele>298.0</ele><time>2026-04-05T15:03:02.002Z</time></trkpt><trkpt lat="45.516249299627574" lon="6.003915719283928"><ele>298.0</ele><time>2026-04-05T15:03:03.002Z</time></trkpt><trkpt lat="45.51615296152943" lon="6.004063988754923"><ele>298.0</ele><time>2026-04-05T15:03:04.002Z</time></trkpt><trkpt lat="45.51606099213789" lon="6.004209143035519"><ele>298.0</ele><time>2026-04-05T15:03:05.002Z</time></trkpt><trkpt lat="45.51597017048249" lon="6.004385551361217"><ele>298.0</ele><time>2026-04-05T15:03:06.002Z</time></trkpt><trkpt lat="45.515894920638736" lon="6.0045706841646735"><ele>298.0</ele><time>2026-04-05T15:03:07.002Z</time></trkpt><trkpt lat="45.51582449918498" lon="6.004757094409503"><ele>298.0</ele><time>2026-04-05T15:03:08.002Z</time></trkpt><trkpt lat="45.515764407566294" lon="6.004958576801652"><ele>298.0</ele><time>2026-04-05T15:03:09.002Z</time></trkpt><trkpt lat="45.515713297004716" lon="6.00516945191789"><ele>298.0</ele><time>2026-04-05T15:03:10.002Z</time></trkpt><trkpt lat="45.515663338864556" lon="6.005371261459412"><ele>298.0</ele><time>2026-04-05T15:03:11.002Z</time></trkpt><trkpt lat="45.51559610119806" lon="6.005567840140902"><ele>298.0</ele><time>2026-04-05T15:03:12.002Z</time></trkpt><trkpt lat="45.51550777979058" lon="6.005751313650607"><ele>298.0</ele><time>2026-04-05T15:03:13.002Z</time></trkpt><trkpt lat="45.51540942886821" lon="6.005920753187116"><ele>298.0</ele><time>2026-04-05T15:03:14.002Z</time></trkpt><trkpt lat="45.51529389061229" lon="6.006070972135569"><ele>297.66666666666663</ele><time>2026-04-05T15:03:15.002Z</time></trkpt><trkpt lat="45.515173780125046" lon="6.006212141492541"><ele>297.3333333333333</ele><time>2026-04-05T15:03:16.002Z</time></trkpt><trkpt lat="45.515050396942975" lon="6.006342279011988"><ele>297.0</ele><time>2026-04-05T15:03:17.002Z</time></trkpt><trkpt lat="45.51492780193999" lon="6.006470570440393"><ele>297.0</ele><time>2026-04-05T15:03:18.002Z</time></trkpt><trkpt lat="45.51480402549209" lon="6.00660527865132"><ele>297.0</ele><time>2026-04-05T15:03:19.002Z</time></trkpt><trkpt lat="45.51467240666134" lon="6.006738382339539"><ele>297.0</ele><time>2026-04-05T15:03:20.002Z</time></trkpt><trkpt lat="45.514530251568665" lon="6.006902104864194"><ele>297.0</ele><time>2026-04-05T15:03:21.002Z</time></trkpt><trkpt lat="45.5143976909494" lon="6.007081747868963"><ele>297.0</ele><time>2026-04-05T15:03:22.002Z</time></trkpt><trkpt lat="45.51430482912367" lon="6.007224920309763"><ele>297.0</ele><time>2026-04-05T15:03:23.002Z</time></trkpt><trkpt lat="45.51421373762623" lon="6.007368765373452"><ele>297.0</ele><time>2026-04-05T15:03:24Z</time></trkpt><trkpt lat="45.51411585671022" lon="6.007478269174298"><ele>297.0</ele><time>2026-04-05T15:03:25Z</time></trkpt><trkpt lat="45.5140153510754" lon="6.007677030135932"><ele>297.0</ele><time>2026-04-05T15:03:26Z</time></trkpt><trkpt lat="45.513945556920476" lon="6.007855325043481"><ele>297.0</ele><time>2026-04-05T15:03:27Z</time></trkpt><trkpt lat="45.51386662992165" lon="6.0080056168342395"><ele>297.0</ele><time>2026-04-05T15:03:28Z</time></trkpt><trkpt lat="45.51375236818472" lon="6.008092389660065"><ele>297.0</ele><time>2026-04-05T15:03:29Z</time></trkpt><trkpt lat="45.51365885535605" lon="6.008203518206179"><ele>297.0</ele><time>2026-04-05T15:03:30Z</time></trkpt><trkpt lat="45.513554205187624" lon="6.0082783453722755"><ele>297.0</ele><time>2026-04-05T15:03:31Z</time></trkpt><trkpt lat="45.513457154192636" lon="6.0083428573251725"><ele>297.0</ele><time>2026-04-05T15:03:32Z</time></trkpt><trkpt lat="45.5133698477741" lon="6.008391668874351"><ele>297.0</ele><time>2026-04-05T15:03:33Z</time></trkpt><trkpt lat="45.51327755211203" lon="6.008397939144771"><ele>297.0</ele><time>2026-04-05T15:03:34Z</time></trkpt><trkpt lat="45.51317888129467" lon="6.008350255268627"><ele>297.0</ele><time>2026-04-05T15:03:35Z</time></trkpt><trkpt lat="45.51307852811989" lon="6.008303151826892"><ele>297.0</ele><time>2026-04-05T15:03:36Z</time></trkpt><trkpt lat="45.512972632085436" lon="6.008297338460487"><ele>296.25</ele><time>2026-04-05T15:03:37Z</time></trkpt><trkpt lat="45.512870125541426" lon="6.008352169554854"><ele>295.5</ele><time>2026-04-05T15:03:38Z</time></trkpt><trkpt lat="45.5127823005512" lon="6.008465433791352"><ele>294.75</ele><time>2026-04-05T15:03:39Z</time></trkpt><trkpt lat="45.51271957071557" lon="6.008620265085277"><ele>294.0</ele><time>2026-04-05T15:03:40Z</time></trkpt><trkpt lat="45.512701585505226" lon="6.008798194436418"><ele>294.0</ele><time>2026-04-05T15:03:41Z</time></trkpt><trkpt lat="45.51272301064123" lon="6.008982610303468"><ele>294.0</ele><time>2026-04-05T15:03:42Z</time></trkpt><trkpt lat="45.51278885348097" lon="6.009153220060849"><ele>294.0</ele><time>2026-04-05T15:03:43Z</time></trkpt><trkpt lat="45.51285664179505" lon="6.0092991183536615"><ele>294.0</ele><time>2026-04-05T15:03:44Z</time></trkpt><trkpt lat="45.51285600899403" lon="6.009479733017382"><ele>294.0</ele><time>2026-04-05T15:03:45Z</time></trkpt><trkpt lat="45.512810526412046" lon="6.009668723269658"><ele>294.0</ele><time>2026-04-05T15:03:46Z</time></trkpt><trkpt lat="45.512756295662335" lon="6.0098475429329845"><ele>294.0</ele><time>2026-04-05T15:03:47Z</time></trkpt><trkpt lat="45.51267514957657" lon="6.010032169336256"><ele>294.0</ele><time>2026-04-05T15:03:48Z</time></trkpt><trkpt lat="45.512584736911954" lon="6.010226519496864"><ele>294.0</ele><time>2026-04-05T15:03:49Z</time></trkpt><trkpt lat="45.51249474228755" lon="6.0104360026257995"><ele>294.0</ele><time>2026-04-05T15:03:50Z</time></trkpt><trkpt lat="45.512398858856365" lon="6.010662690137884"><ele>294.0</ele><time>2026-04-05T15:03:51Z</time></trkpt><trkpt lat="45.51229266588613" lon="6.010897875916086"><ele>293.6666666666667</ele><time>2026-04-05T15:03:52Z</time></trkpt><trkpt lat="45.512185694086234" lon="6.011129499013957"><ele>293.33333333333337</ele><time>2026-04-05T15:03:53Z</time></trkpt><trkpt lat="45.512081967202086" lon="6.011362405305302"><ele>293.0</ele><time>2026-04-05T15:03:54Z</time></trkpt><trkpt lat="45.51197499372818" lon="6.011600292205908"><ele>292.33333333333337</ele><time>2026-04-05T15:03:55Z</time></trkpt><trkpt lat="45.511882122123765" lon="6.011833969687053"><ele>291.6666666666667</ele><time>2026-04-05T15:03:56Z</time></trkpt><trkpt lat="45.51176102473574" lon="6.012080870108864"><ele>291.0</ele><time>2026-04-05T15:03:57Z</time></trkpt><trkpt lat="45.51164219262799" lon="6.01232994095394"><ele>291.0</ele><time>2026-04-05T15:03:58Z</time></trkpt><trkpt lat="45.51150698261145" lon="6.01257405858635"><ele>291.0</ele><time>2026-04-05T15:03:59Z</time></trkpt><trkpt lat="45.511363655502386" lon="6.0128276318001355"><ele>291.0</ele><time>2026-04-05T15:04:00.001Z</time></trkpt><trkpt lat="45.51122899139192" lon="6.013076256766674"><ele>291.0</ele><time>2026-04-05T15:04:01.001Z</time></trkpt><trkpt lat="45.51114381927071" lon="6.013309809933694"><ele>291.0</ele><time>2026-04-05T15:04:02.001Z</time></trkpt><trkpt lat="45.51103016247849" lon="6.013548254663765"><ele>291.0</ele><time>2026-04-05T15:04:03.001Z</time></trkpt><trkpt lat="45.510915105445484" lon="6.0137854104060615"><ele>291.3333333333333</ele><time>2026-04-05T15:04:04.001Z</time></trkpt><trkpt lat="45.510791721911815" lon="6.0140267183462415"><ele>291.66666666666663</ele><time>2026-04-05T15:04:05.001Z</time></trkpt><trkpt lat="45.51066681515699" lon="6.014273546949662"><ele>292.0</ele><time>2026-04-05T15:04:06.001Z</time></trkpt><trkpt lat="45.51053695495254" lon="6.014525683171498"><ele>291.66666666666663</ele><time>2026-04-05T15:04:07.001Z</time></trkpt><trkpt lat="45.510402766497535" lon="6.014776757915918"><ele>291.3333333333333</ele><time>2026-04-05T15:04:08.001Z</time></trkpt><trkpt lat="45.5102697708405" lon="6.015030164407012"><ele>291.0</ele><time>2026-04-05T15:04:09.001Z</time></trkpt><trkpt lat="45.510137463893386" lon="6.0152861797747015"><ele>291.0</ele><time>2026-04-05T15:04:10.001Z</time></trkpt><trkpt lat="45.51000666539378" lon="6.015547857383119"><ele>291.0</ele><time>2026-04-05T15:04:11.001Z</time></trkpt><trkpt lat="45.50987348535898" lon="6.015804547584561"><ele>291.0</ele><time>2026-04-05T15:04:12.001Z</time></trkpt><trkpt lat="45.50974575563562" lon="6.016057163090701"><ele>290.0</ele><time>2026-04-05T15:04:13.001Z</time></trkpt><trkpt lat="45.50961243693158" lon="6.016318978798951"><ele>289.0</ele><time>2026-04-05T15:04:14.001Z</time></trkpt><trkpt lat="45.50947253482552" lon="6.016583661679752"><ele>289.5</ele><time>2026-04-05T15:04:15.001Z</time></trkpt><trkpt lat="45.50933789968368" lon="6.016845930489867"><ele>290.0</ele><time>2026-04-05T15:04:16.001Z</time></trkpt><trkpt lat="45.509207618248126" lon="6.0171063749483595"><ele>290.0</ele><time>2026-04-05T15:04:17.001Z</time></trkpt><trkpt lat="45.509070533792496" lon="6.017369745248793"><ele>290.0</ele><time>2026-04-05T15:04:18.001Z</time></trkpt><trkpt lat="45.508943148682" lon="6.0176289514416945"><ele>289.5</ele><time>2026-04-05T15:04:19.001Z</time></trkpt><trkpt lat="45.508813030952304" lon="6.017890361985307"><ele>289.0</ele><time>2026-04-05T15:04:20.001Z</time></trkpt><trkpt lat="45.50867968830867" lon="6.018156314525337"><ele>287.5</ele><time>2026-04-05T15:04:21.001Z</time></trkpt><trkpt lat="45.5085498864936" lon="6.018426928851694"><ele>286.0</ele><time>2026-04-05T15:04:22.001Z</time></trkpt><trkpt lat="45.508427930356746" lon="6.018709176952513"><ele>286.0</ele><time>2026-04-05T15:04:23.001Z</time></trkpt><trkpt lat="45.50831728485798" lon="6.019005127688045"><ele>286.0</ele><time>2026-04-05T15:04:24.001Z</time></trkpt><trkpt lat="45.50821028159004" lon="6.019300280741331"><ele>287.5</ele><time>2026-04-05T15:04:25.001Z</time></trkpt><trkpt lat="45.50812595281784" lon="6.019599071539125"><ele>289.0</ele><time>2026-04-05T15:04:26.001Z</time></trkpt><trkpt lat="45.50805078811933" lon="6.019902846783054"><ele>288.66666666666663</ele><time>2026-04-05T15:04:27.001Z</time></trkpt><trkpt lat="45.50798458867118" lon="6.02020509126202"><ele>288.3333333333333</ele><time>2026-04-05T15:04:28.001Z</time></trkpt><trkpt lat="45.50789910539597" lon="6.020502830346389"><ele>288.0</ele><time>2026-04-05T15:04:29.001Z</time></trkpt><trkpt lat="45.507825131881745" lon="6.020811390920134"><ele>288.3333333333333</ele><time>2026-04-05T15:04:30.001Z</time></trkpt><trkpt lat="45.50780334220253" lon="6.021120585197814"><ele>288.66666666666663</ele><time>2026-04-05T15:04:31.001Z</time></trkpt><trkpt lat="45.50774329454021" lon="6.021419485658019"><ele>289.0</ele><time>2026-04-05T15:04:32.001Z</time></trkpt><trkpt lat="45.507686697595226" lon="6.021720409280576"><ele>289.0</ele><time>2026-04-05T15:04:33.001Z</time></trkpt><trkpt lat="45.50762562400226" lon="6.022021484968675"><ele>289.0</ele><time>2026-04-05T15:04:34.001Z</time></trkpt><trkpt lat="45.50756708437181" lon="6.022337201006666"><ele>289.0</ele><time>2026-04-05T15:04:35.001Z</time></trkpt><trkpt lat="45.507507809688725" lon="6.022621296708147"><ele>288.0</ele><time>2026-04-05T15:04:36.001Z</time></trkpt><trkpt lat="45.50745439699225" lon="6.0229044562046585"><ele>287.0</ele><time>2026-04-05T15:04:37.001Z</time></trkpt><trkpt lat="45.50739247016054" lon="6.0231824973952826"><ele>286.0</ele><time>2026-04-05T15:04:38.001Z</time></trkpt><trkpt lat="45.50733659122107" lon="6.023460191594343"><ele>286.0</ele><time>2026-04-05T15:04:39.001Z</time></trkpt><trkpt lat="45.5072829150112" lon="6.023742780422516"><ele>286.0</ele><time>2026-04-05T15:04:40.001Z</time></trkpt><trkpt lat="45.5072279399363" lon="6.02402590035762"><ele>286.0</ele><time>2026-04-05T15:04:41.001Z</time></trkpt><trkpt lat="45.50716926420661" lon="6.024307540739749"><ele>286.0</ele><time>2026-04-05T15:04:42.001Z</time></trkpt><trkpt lat="45.507110522344696" lon="6.024585452340746"><ele>286.0</ele><time>2026-04-05T15:04:43.001Z</time></trkpt><trkpt lat="45.507050764061894" lon="6.02486196397925"><ele>286.0</ele><time>2026-04-05T15:04:44.001Z</time></trkpt><trkpt lat="45.50699026721119" lon="6.025135440610055"><ele>286.66666666666663</ele><time>2026-04-05T15:04:45.001Z</time></trkpt><trkpt lat="45.506930335780844" lon="6.025406948151371"><ele>287.3333333333333</ele><time>2026-04-05T15:04:46.001Z</time></trkpt><trkpt lat="45.50687397016691" lon="6.025678582926292"><ele>288.0</ele><time>2026-04-05T15:04:47.001Z</time></trkpt><trkpt lat="45.50681589915744" lon="6.025950146711428"><ele>288.3333333333333</ele><time>2026-04-05T15:04:48.001Z</time></trkpt><trkpt lat="45.506759393682806" lon="6.026214847390501"><ele>288.66666666666663</ele><time>2026-04-05T15:04:49.001Z</time></trkpt><trkpt lat="45.50670026358497" lon="6.026473344906989"><ele>289.0</ele><time>2026-04-05T15:04:50.001Z</time></trkpt><trkpt lat="45.50663930943084" lon="6.026733772348253"><ele>289.3333333333333</ele><time>2026-04-05T15:04:51.002Z</time></trkpt><trkpt lat="45.50658506648398" lon="6.026997398664689"><ele>289.6666666666667</ele><time>2026-04-05T15:04:52.002Z</time></trkpt><trkpt lat="45.50653657841989" lon="6.02726081705169"><ele>290.0</ele><time>2026-04-05T15:04:53.002Z</time></trkpt><trkpt lat="45.50648596925945" lon="6.027526543879131"><ele>289.33333333333337</ele><time>2026-04-05T15:04:54.002Z</time></trkpt><trkpt lat="45.50644312600518" lon="6.027789531588812"><ele>288.6666666666667</ele><time>2026-04-05T15:04:55.002Z</time></trkpt><trkpt lat="45.506393374538824" lon="6.0280577984126715"><ele>288.0</ele><time>2026-04-05T15:04:56.002Z</time></trkpt><trkpt lat="45.50632226728906" lon="6.028321063318217"><ele>287.3333333333333</ele><time>2026-04-05T15:04:57.002Z</time></trkpt><trkpt lat="45.50626394036598" lon="6.028584180785297"><ele>286.66666666666663</ele><time>2026-04-05T15:04:58.002Z</time></trkpt><trkpt lat="45.50621182044998" lon="6.028851466305391"><ele>286.0</ele><time>2026-04-05T15:04:59.002Z</time></trkpt><trkpt lat="45.506155509435686" lon="6.029127098277719"><ele>285.0</ele><time>2026-04-05T15:05:00.002Z</time></trkpt><trkpt lat="45.50609767887696" lon="6.029398441356356"><ele>284.0</ele><time>2026-04-05T15:05:01.002Z</time></trkpt><trkpt lat="45.50604205961418" lon="6.0296720426128045"><ele>283.0</ele><time>2026-04-05T15:05:02.002Z</time></trkpt><trkpt lat="45.50598398167666" lon="6.029946979183469"><ele>283.0</ele><time>2026-04-05T15:05:03.002Z</time></trkpt><trkpt lat="45.505927905619686" lon="6.030222020543162"><ele>283.0</ele><time>2026-04-05T15:05:04.002Z</time></trkpt><trkpt lat="45.50587463641046" lon="6.030499848712415"><ele>283.0</ele><time>2026-04-05T15:05:05.002Z</time></trkpt><trkpt lat="45.50582025213459" lon="6.030774946622847"><ele>283.0</ele><time>2026-04-05T15:05:06.002Z</time></trkpt><trkpt lat="45.5057651629975" lon="6.031043846680444"><ele>283.0</ele><time>2026-04-05T15:05:07.002Z</time></trkpt><trkpt lat="45.505708104852076" lon="6.0313113889467065"><ele>283.0</ele><time>2026-04-05T15:05:08.002Z</time></trkpt><trkpt lat="45.50564762124521" lon="6.031588817467428"><ele>283.66666666666663</ele><time>2026-04-05T15:05:09.002Z</time></trkpt><trkpt lat="45.50558787043435" lon="6.031869117726918"><ele>284.3333333333333</ele><time>2026-04-05T15:05:10.002Z</time></trkpt><trkpt lat="45.50553326030375" lon="6.032131635787629"><ele>285.0</ele><time>2026-04-05T15:05:11.002Z</time></trkpt><trkpt lat="45.505481742058066" lon="6.032382180854272"><ele>285.0</ele><time>2026-04-05T15:05:12.002Z</time></trkpt><trkpt lat="45.505428867163836" lon="6.032632035259834"><ele>285.0</ele><time>2026-04-05T15:05:13.002Z</time></trkpt><trkpt lat="45.505374647852854" lon="6.0328819433293726"><ele>285.0</ele><time>2026-04-05T15:05:14.002Z</time></trkpt><trkpt lat="45.50532377330039" lon="6.033131614057273"><ele>284.0</ele><time>2026-04-05T15:05:15.002Z</time></trkpt><trkpt lat="45.5052759627189" lon="6.033380922766417"><ele>283.0</ele><time>2026-04-05T15:05:16.002Z</time></trkpt><trkpt lat="45.50522686918054" lon="6.0336300949822625"><ele>282.0</ele><time>2026-04-05T15:05:17.002Z</time></trkpt><trkpt lat="45.50517870173839" lon="6.033878671160834"><ele>282.0</ele><time>2026-04-05T15:05:18.002Z</time></trkpt><trkpt lat="45.50512875825151" lon="6.0341257125846"><ele>282.0</ele><time>2026-04-05T15:05:19.002Z</time></trkpt><trkpt lat="45.50507872426554" lon="6.034371822490158"><ele>282.0</ele><time>2026-04-05T15:05:20.002Z</time></trkpt><trkpt lat="45.50502757403974" lon="6.034614911942167"><ele>282.3333333333333</ele><time>2026-04-05T15:05:21.002Z</time></trkpt><trkpt lat="45.50497955133146" lon="6.034858097998216"><ele>282.66666666666663</ele><time>2026-04-05T15:05:22.002Z</time></trkpt><trkpt lat="45.50493278209034" lon="6.035100784496214"><ele>283.0</ele><time>2026-04-05T15:05:23.002Z</time></trkpt><trkpt lat="45.50489726800812" lon="6.035342084900009"><ele>283.3333333333333</ele><time>2026-04-05T15:05:24.002Z</time></trkpt><trkpt lat="45.50489005152815" lon="6.035589693396147"><ele>283.6666666666667</ele><time>2026-04-05T15:05:25.002Z</time></trkpt><trkpt lat="45.50492975208852" lon="6.03585452678629"><ele>284.0</ele><time>2026-04-05T15:05:26.002Z</time></trkpt><trkpt lat="45.50498469540541" lon="6.036126447661022"><ele>284.0</ele><time>2026-04-05T15:05:27.002Z</time></trkpt><trkpt lat="45.505076606539326" lon="6.036411845175451"><ele>284.0</ele><time>2026-04-05T15:05:28.002Z</time></trkpt><trkpt lat="45.50518339346205" lon="6.036675118828905"><ele>284.0</ele><time>2026-04-05T15:05:29.002Z</time></trkpt><trkpt lat="45.50463021150081" lon="6.036672596405089"><ele>284.5</ele><time>2026-04-05T15:05:30Z</time></trkpt><trkpt lat="45.5045904485126" lon="6.036871936455031"><ele>285.0</ele><time>2026-04-05T15:05:31Z</time></trkpt><trkpt lat="45.504548531663666" lon="6.037080721716925"><ele>285.5</ele><time>2026-04-05T15:05:32Z</time></trkpt><trkpt lat="45.504510333093315" lon="6.037279057612343"><ele>286.0</ele><time>2026-04-05T15:05:33Z</time></trkpt><trkpt lat="45.504474222219386" lon="6.0374626924332455"><ele>284.75</ele><time>2026-04-05T15:05:34Z</time></trkpt><trkpt lat="45.50443850428156" lon="6.037641382180222"><ele>283.5</ele><time>2026-04-05T15:05:35Z</time></trkpt><trkpt lat="45.50440893001749" lon="6.037816240085391"><ele>282.25</ele><time>2026-04-05T15:05:36Z</time></trkpt><trkpt lat="45.50437635867354" lon="6.037971325594718"><ele>281.0</ele><time>2026-04-05T15:05:37Z</time></trkpt><trkpt lat="45.5043510628035" lon="6.038121587026884"><ele>281.0</ele><time>2026-04-05T15:05:38Z</time></trkpt><trkpt lat="45.50432642802772" lon="6.038265139238191"><ele>281.0</ele><time>2026-04-05T15:05:39Z</time></trkpt><trkpt lat="45.50430618094685" lon="6.038381000500347"><ele>281.0</ele><time>2026-04-05T15:05:40Z</time></trkpt><trkpt lat="45.50426446364313" lon="6.038512081358775"><ele>281.0</ele><time>2026-04-05T15:05:42Z</time></trkpt><trkpt lat="45.504221489127815" lon="6.03861374413733"><ele>281.0</ele><time>2026-04-05T15:05:44Z</time></trkpt><trkpt lat="45.50415447789997" lon="6.038690673396153"><ele>281.2</ele><time>2026-04-05T15:05:47Z</time></trkpt><trkpt lat="45.50406810493693" lon="6.03875534411457"><ele>281.40000000000003</ele><time>2026-04-05T15:05:49Z</time></trkpt><trkpt lat="45.503919314765945" lon="6.0387873869111734"><ele>281.6</ele><time>2026-04-05T15:05:51Z</time></trkpt><trkpt lat="45.50383536350904" lon="6.038823548793657"><ele>281.8</ele><time>2026-04-05T15:05:52Z</time></trkpt><trkpt lat="45.503776049734164" lon="6.038895156039867"><ele>282.0</ele><time>2026-04-05T15:05:53Z</time></trkpt><trkpt lat="45.50373984209025" lon="6.03900703025227"><ele>282.0</ele><time>2026-04-05T15:05:54Z</time></trkpt><trkpt lat="45.50369789642286" lon="6.0390979577731985"><ele>282.0</ele><time>2026-04-05T15:05:55Z</time></trkpt><trkpt lat="45.503671283784065" lon="6.0391955853744435"><ele>282.0</ele><time>2026-04-05T15:05:56Z</time></trkpt><trkpt lat="45.50356289280436" lon="6.039213957946094"><ele>282.0</ele><time>2026-04-05T15:05:57Z</time></trkpt><trkpt lat="45.50349622528149" lon="6.0392297983903305"><ele>282.0</ele><time>2026-04-05T15:05:58Z</time></trkpt><trkpt lat="45.503432141069965" lon="6.039226986858298"><ele>282.0</ele><time>2026-04-05T15:05:59Z</time></trkpt><trkpt lat="45.503358841445724" lon="6.039190213012284"><ele>282.0</ele><time>2026-04-05T15:06:00Z</time></trkpt><trkpt lat="45.50327954395442" lon="6.039144265371245"><ele>282.0</ele><time>2026-04-05T15:06:01Z</time></trkpt><trkpt lat="45.503195471309304" lon="6.039073531609398"><ele>282.0</ele><time>2026-04-05T15:06:02Z</time></trkpt><trkpt lat="45.50310777124745" lon="6.03896153705806"><ele>282.0</ele><time>2026-04-05T15:06:03Z</time></trkpt><trkpt lat="45.503021018699144" lon="6.0388247004790685"><ele>282.0</ele><time>2026-04-05T15:06:04Z</time></trkpt><trkpt lat="45.5029577439842" lon="6.038669708801335"><ele>282.5</ele><time>2026-04-05T15:06:05Z</time></trkpt><trkpt lat="45.502873171299086" lon="6.0385572002818275"><ele>283.0</ele><time>2026-04-05T15:06:06Z</time></trkpt><trkpt lat="45.502801444862065" lon="6.038427268490755"><ele>283.5</ele><time>2026-04-05T15:06:07.001Z</time></trkpt><trkpt lat="45.502720985517726" lon="6.03829788697612"><ele>284.0</ele><time>2026-04-05T15:06:08.001Z</time></trkpt><trkpt lat="45.50266815441507" lon="6.038140645547601"><ele>284.0</ele><time>2026-04-05T15:06:09.001Z</time></trkpt><trkpt lat="45.50260839367723" lon="6.037990487394943"><ele>284.0</ele><time>2026-04-05T15:06:10.001Z</time></trkpt><trkpt lat="45.502616215713" lon="6.037815313776314"><ele>284.0</ele><time>2026-04-05T15:06:11.001Z</time></trkpt><trkpt lat="45.50260736882326" lon="6.037629617032844"><ele>284.0</ele><time>2026-04-05T15:06:12.001Z</time></trkpt><trkpt lat="45.5026092680449" lon="6.037426564621068"><ele>284.0</ele><time>2026-04-05T15:06:13.001Z</time></trkpt><trkpt lat="45.50262297896083" lon="6.037211785056253"><ele>284.0</ele><time>2026-04-05T15:06:14.001Z</time></trkpt><trkpt lat="45.5026408497933" lon="6.037007772663726"><ele>284.0</ele><time>2026-04-05T15:06:15.001Z</time></trkpt><trkpt lat="45.502656043655065" lon="6.036822685467194"><ele>284.0</ele><time>2026-04-05T15:06:16.001Z</time></trkpt><trkpt lat="45.502669908912324" lon="6.036631586887731"><ele>284.0</ele><time>2026-04-05T15:06:17.001Z</time></trkpt><trkpt lat="45.502676423332936" lon="6.036411703906435"><ele>284.0</ele><time>2026-04-05T15:06:18.001Z</time></trkpt><trkpt lat="45.50266396153713" lon="6.036204326918947"><ele>284.0</ele><time>2026-04-05T15:06:19.001Z</time></trkpt><trkpt lat="45.50265423783043" lon="6.035994619464244"><ele>284.0</ele><time>2026-04-05T15:06:20.001Z</time></trkpt><trkpt lat="45.50262358851567" lon="6.035798735547214"><ele>283.33333333333337</ele><time>2026-04-05T15:06:21.001Z</time></trkpt><trkpt lat="45.50258431753133" lon="6.0355956386401335"><ele>282.6666666666667</ele><time>2026-04-05T15:06:22.001Z</time></trkpt><trkpt lat="45.50253019880125" lon="6.035392357990399"><ele>282.0</ele><time>2026-04-05T15:06:23.001Z</time></trkpt><trkpt lat="45.502475822014105" lon="6.035178199358379"><ele>282.0</ele><time>2026-04-05T15:06:24.001Z</time></trkpt><trkpt lat="45.50239643518783" lon="6.034976238577769"><ele>282.0</ele><time>2026-04-05T15:06:25.001Z</time></trkpt><trkpt lat="45.50231014438865" lon="6.034772820441761"><ele>282.0</ele><time>2026-04-05T15:06:26.001Z</time></trkpt><trkpt lat="45.50222954604888" lon="6.034586204282382"><ele>282.75</ele><time>2026-04-05T15:06:27.001Z</time></trkpt><trkpt lat="45.50215810996376" lon="6.034420802262555"><ele>283.5</ele><time>2026-04-05T15:06:28.001Z</time></trkpt><trkpt lat="45.50208291161811" lon="6.034282859634037"><ele>284.25</ele><time>2026-04-05T15:06:29.001Z</time></trkpt><trkpt lat="45.50205721682313" lon="6.0341356498581655"><ele>285.0</ele><time>2026-04-05T15:06:30.001Z</time></trkpt><trkpt lat="45.50196045872936" lon="6.0340067435570095"><ele>285.2</ele><time>2026-04-05T15:06:31.001Z</time></trkpt><trkpt lat="45.501914780653685" lon="6.033865241754732"><ele>285.4</ele><time>2026-04-05T15:06:32.001Z</time></trkpt><trkpt lat="45.50184917457715" lon="6.033751376580085"><ele>285.6</ele><time>2026-04-05T15:06:33.001Z</time></trkpt><trkpt lat="45.50179906850886" lon="6.033635562126074"><ele>285.8</ele><time>2026-04-05T15:06:34.001Z</time></trkpt><trkpt lat="45.50176015270861" lon="6.0335197692346565"><ele>286.0</ele><time>2026-04-05T15:06:35.001Z</time></trkpt><trkpt lat="45.50176906127954" lon="6.0333874813189246"><ele>286.2</ele><time>2026-04-05T15:06:36.001Z</time></trkpt><trkpt lat="45.501797122264534" lon="6.033254387162891"><ele>286.40000000000003</ele><time>2026-04-05T15:06:37.001Z</time></trkpt><trkpt lat="45.50177356823104" lon="6.03312788377202"><ele>286.6</ele><time>2026-04-05T15:06:38.001Z</time></trkpt><trkpt lat="45.50173058681994" lon="6.032991945785192"><ele>286.8</ele><time>2026-04-05T15:06:39.001Z</time></trkpt><trkpt lat="45.50174497978417" lon="6.03282954024298"><ele>287.0</ele><time>2026-04-05T15:06:40.001Z</time></trkpt><trkpt lat="45.501761294462085" lon="6.032640501220518"><ele>287.0</ele><time>2026-04-05T15:06:41.001Z</time></trkpt><trkpt lat="45.50176516782394" lon="6.032457879761157"><ele>287.0</ele><time>2026-04-05T15:06:42.001Z</time></trkpt><trkpt lat="45.50176274240678" lon="6.0322659120008"><ele>287.0</ele><time>2026-04-05T15:06:43.001Z</time></trkpt><trkpt lat="45.501765913953925" lon="6.0320459322124576"><ele>287.0</ele><time>2026-04-05T15:06:44.001Z</time></trkpt><trkpt lat="45.50176487245755" lon="6.031793464724294"><ele>287.33333333333337</ele><time>2026-04-05T15:06:45.001Z</time></trkpt><trkpt lat="45.50177866117702" lon="6.031543245173214"><ele>287.6666666666667</ele><time>2026-04-05T15:06:46.001Z</time></trkpt><trkpt lat="45.50178078148876" lon="6.03129187736996"><ele>288.0</ele><time>2026-04-05T15:06:47.001Z</time></trkpt><trkpt lat="45.501770626881964" lon="6.0310641190756815"><ele>288.0</ele><time>2026-04-05T15:06:48.001Z</time></trkpt><trkpt lat="45.50178042522651" lon="6.030855843292469"><ele>288.0</ele><time>2026-04-05T15:06:49.001Z</time></trkpt><trkpt lat="45.501796514032705" lon="6.0306531621931185"><ele>288.0</ele><time>2026-04-05T15:06:50.001Z</time></trkpt><trkpt lat="45.50181554772469" lon="6.03045139680055"><ele>288.0</ele><time>2026-04-05T15:06:51.001Z</time></trkpt><trkpt lat="45.50183017687622" lon="6.030250980979384"><ele>287.6666666666667</ele><time>2026-04-05T15:06:52.001Z</time></trkpt><trkpt lat="45.50183635055569" lon="6.030048321493348"><ele>287.33333333333337</ele><time>2026-04-05T15:06:53.001Z</time></trkpt><trkpt lat="45.50182329198436" lon="6.029836196056492"><ele>287.0</ele><time>2026-04-05T15:06:54.001Z</time></trkpt><trkpt lat="45.50178773855425" lon="6.029612275782705"><ele>287.0</ele><time>2026-04-05T15:06:55.001Z</time></trkpt><trkpt lat="45.50173714372358" lon="6.029384279028941"><ele>287.0</ele><time>2026-04-05T15:06:56.001Z</time></trkpt><trkpt lat="45.5016726115508" lon="6.029137670771162"><ele>287.0</ele><time>2026-04-05T15:06:57.002Z</time></trkpt><trkpt lat="45.501616755054314" lon="6.028924207818182"><ele>286.75</ele><time>2026-04-05T15:06:58.002Z</time></trkpt><trkpt lat="45.501561791237016" lon="6.028735684406172"><ele>286.5</ele><time>2026-04-05T15:06:59.002Z</time></trkpt><trkpt lat="45.50150490859101" lon="6.0285675521133415"><ele>286.25</ele><time>2026-04-05T15:07:00.002Z</time></trkpt><trkpt lat="45.50144084725879" lon="6.028424959272913"><ele>286.0</ele><time>2026-04-05T15:07:01.002Z</time></trkpt><trkpt lat="45.50137471595871" lon="6.02829346049254"><ele>285.8</ele><time>2026-04-05T15:07:02.002Z</time></trkpt><trkpt lat="45.50135792967118" lon="6.028141099704561"><ele>285.6</ele><time>2026-04-05T15:07:03.002Z</time></trkpt><trkpt lat="45.50132414954905" lon="6.02801510183038"><ele>285.4</ele><time>2026-04-05T15:07:04.002Z</time></trkpt><trkpt lat="45.50133268307269" lon="6.027881483558025"><ele>285.2</ele><time>2026-04-05T15:07:05.002Z</time></trkpt><trkpt lat="45.50134190566282" lon="6.027763716470429"><ele>285.0</ele><time>2026-04-05T15:07:06.002Z</time></trkpt><trkpt lat="45.501303143825034" lon="6.0276664310996235"><ele>285.4</ele><time>2026-04-05T15:07:07.002Z</time></trkpt><trkpt lat="45.50120125502873" lon="6.027614622172314"><ele>285.8</ele><time>2026-04-05T15:07:08.002Z</time></trkpt><trkpt lat="45.50111560250794" lon="6.027556417094093"><ele>286.2</ele><time>2026-04-05T15:07:09.002Z</time></trkpt><trkpt lat="45.5010479054966" lon="6.027420576172655"><ele>286.6</ele><time>2026-04-05T15:07:10.002Z</time></trkpt><trkpt lat="45.50099318138595" lon="6.027253647441043"><ele>287.0</ele><time>2026-04-05T15:07:11.002Z</time></trkpt><trkpt lat="45.5009569156804" lon="6.02707387213897"><ele>287.0</ele><time>2026-04-05T15:07:12.002Z</time></trkpt><trkpt lat="45.500899169929205" lon="6.0269182479726835"><ele>287.0</ele><time>2026-04-05T15:07:13.002Z</time></trkpt><trkpt lat="45.50084724436267" lon="6.02677830934264"><ele>287.0</ele><time>2026-04-05T15:07:14.002Z</time></trkpt><trkpt lat="45.50079093894412" lon="6.026667751852402"><ele>287.0</ele><time>2026-04-05T15:07:15.002Z</time></trkpt><trkpt lat="45.50076324393901" lon="6.02656639951071"><ele>287.0</ele><time>2026-04-05T15:07:16.002Z</time></trkpt><trkpt lat="45.50072613594352" lon="6.026445510800489"><ele>287.6</ele><time>2026-04-05T15:07:18.002Z</time></trkpt><trkpt lat="45.50069272664693" lon="6.026262217051811"><ele>288.2</ele><time>2026-04-05T15:07:20.002Z</time></trkpt><trkpt lat="45.50064849249099" lon="6.0261522474253075"><ele>288.8</ele><time>2026-04-05T15:07:21.002Z</time></trkpt><trkpt lat="45.500622270198605" lon="6.026013206123693"><ele>289.4</ele><time>2026-04-05T15:07:22.002Z</time></trkpt><trkpt lat="45.50058414716718" lon="6.025858133699277"><ele>290.0</ele><time>2026-04-05T15:07:23.002Z</time></trkpt><trkpt lat="45.50055514571312" lon="6.0256920035923285"><ele>290.4</ele><time>2026-04-05T15:07:24.002Z</time></trkpt><trkpt lat="45.500507247371914" lon="6.025549939261532"><ele>290.8</ele><time>2026-04-05T15:07:25.002Z</time></trkpt><trkpt lat="45.50048046579258" lon="6.0254095109353685"><ele>291.2</ele><time>2026-04-05T15:07:26.002Z</time></trkpt><trkpt lat="45.50047306749324" lon="6.0252692811755795"><ele>291.6</ele><time>2026-04-05T15:07:27.002Z</time></trkpt><trkpt lat="45.50045436930815" lon="6.025132933079305"><ele>292.0</ele><time>2026-04-05T15:07:28.002Z</time></trkpt><trkpt lat="45.500412863898696" lon="6.025007543355415"><ele>292.16666666666663</ele><time>2026-04-05T15:07:29.002Z</time></trkpt><trkpt lat="45.50039599589483" lon="6.024876451923115"><ele>292.3333333333333</ele><time>2026-04-05T15:07:30.002Z</time></trkpt><trkpt lat="45.50036959305646" lon="6.024769221415789"><ele>292.5</ele><time>2026-04-05T15:07:31.002Z</time></trkpt><trkpt lat="45.50034592364219" lon="6.024673092177695"><ele>292.6666666666667</ele><time>2026-04-05T15:07:32.002Z</time></trkpt><trkpt lat="45.500322135358296" lon="6.024580547653987"><ele>292.83333333333337</ele><time>2026-04-05T15:07:33.002Z</time></trkpt><trkpt lat="45.50029267564796" lon="6.0244911068811575"><ele>293.0</ele><time>2026-04-05T15:07:34.002Z</time></trkpt><trkpt lat="45.50024657095315" lon="6.024398055039976"><ele>293.0</ele><time>2026-04-05T15:07:35.002Z</time></trkpt><trkpt lat="45.50020213014272" lon="6.024286960022841"><ele>293.0</ele><time>2026-04-05T15:07:36Z</time></trkpt><trkpt lat="45.50018392190733" lon="6.024168632593756"><ele>293.0</ele><time>2026-04-05T15:07:37Z</time></trkpt><trkpt lat="45.50015652910797" lon="6.024057909435837"><ele>293.0</ele><time>2026-04-05T15:07:38Z</time></trkpt><trkpt lat="45.5001280219379" lon="6.023942643416674"><ele>293.0</ele><time>2026-04-05T15:07:39Z</time></trkpt><trkpt lat="45.500092424614714" lon="6.023797495206268"><ele>292.8</ele><time>2026-04-05T15:07:40Z</time></trkpt><trkpt lat="45.50005339691305" lon="6.023637445576233"><ele>292.6</ele><time>2026-04-05T15:07:41Z</time></trkpt><trkpt lat="45.5000043802377" lon="6.023499143199398"><ele>292.4</ele><time>2026-04-05T15:07:42Z</time></trkpt><trkpt lat="45.499984709419685" lon="6.023369296814848"><ele>292.2</ele><time>2026-04-05T15:07:43Z</time></trkpt><trkpt lat="45.499962852823316" lon="6.0232541200255385"><ele>292.0</ele><time>2026-04-05T15:07:44Z</time></trkpt><trkpt lat="45.49994529251979" lon="6.02314535269918"><ele>292.4</ele><time>2026-04-05T15:07:45Z</time></trkpt><trkpt lat="45.49992231905575" lon="6.022997177552377"><ele>292.79999999999995</ele><time>2026-04-05T15:07:47Z</time></trkpt><trkpt lat="45.49991143219141" lon="6.02281742122391"><ele>293.2</ele><time>2026-04-05T15:07:49Z</time></trkpt><trkpt lat="45.49991184519728" lon="6.022689219926176"><ele>293.59999999999997</ele><time>2026-04-05T15:07:50Z</time></trkpt><trkpt lat="45.499910459068964" lon="6.022537413979341"><ele>294.0</ele><time>2026-04-05T15:07:51Z</time></trkpt><trkpt lat="45.499916978123935" lon="6.022362384528683"><ele>294.0</ele><time>2026-04-05T15:07:52Z</time></trkpt><trkpt lat="45.49993543117571" lon="6.022171671513847"><ele>294.0</ele><time>2026-04-05T15:07:53Z</time></trkpt><trkpt lat="45.49996524156939" lon="6.021953348636734"><ele>294.0</ele><time>2026-04-05T15:07:54Z</time></trkpt><trkpt lat="45.49998905721656" lon="6.021721981308278"><ele>293.3333333333333</ele><time>2026-04-05T15:07:55Z</time></trkpt><trkpt lat="45.499997198310275" lon="6.021483433416698"><ele>292.66666666666663</ele><time>2026-04-05T15:07:56Z</time></trkpt><trkpt lat="45.49999496743591" lon="6.021260751538496"><ele>292.0</ele><time>2026-04-05T15:07:57Z</time></trkpt><trkpt lat="45.499989313117844" lon="6.02102900863677"><ele>292.3333333333333</ele><time>2026-04-05T15:07:58Z</time></trkpt><trkpt lat="45.49997751119212" lon="6.020782826915268"><ele>292.6666666666667</ele><time>2026-04-05T15:07:59Z</time></trkpt><trkpt lat="45.499938486605686" lon="6.020522415105777"><ele>293.0</ele><time>2026-04-05T15:08:00Z</time></trkpt><trkpt lat="45.499879865894776" lon="6.020261531764384"><ele>293.0</ele><time>2026-04-05T15:08:01Z</time></trkpt><trkpt lat="45.49980983366935" lon="6.020005785827603"><ele>293.0</ele><time>2026-04-05T15:08:02Z</time></trkpt><trkpt lat="45.49970914214024" lon="6.019741819881999"><ele>293.0</ele><time>2026-04-05T15:08:03Z</time></trkpt><trkpt lat="45.499625122190686" lon="6.01946640932474"><ele>292.0</ele><time>2026-04-05T15:08:04Z</time></trkpt><trkpt lat="45.49954454611058" lon="6.019209799598873"><ele>291.0</ele><time>2026-04-05T15:08:05Z</time></trkpt><trkpt lat="45.49945834763233" lon="6.018990150667313"><ele>290.0</ele><time>2026-04-05T15:08:06Z</time></trkpt><trkpt lat="45.49938526892295" lon="6.018766620142335"><ele>293.33333333333337</ele><time>2026-04-05T15:08:07Z</time></trkpt><trkpt lat="45.49932356143577" lon="6.018519400695214"><ele>296.6666666666667</ele><time>2026-04-05T15:08:08Z</time></trkpt><trkpt lat="45.49925904438884" lon="6.018278000898441"><ele>300.0</ele><time>2026-04-05T15:08:09Z</time></trkpt><trkpt lat="45.49921454385827" lon="6.018032830298257"><ele>301.0</ele><time>2026-04-05T15:08:10Z</time></trkpt><trkpt lat="45.499169664444246" lon="6.017781349769774"><ele>302.0</ele><time>2026-04-05T15:08:11Z</time></trkpt><trkpt lat="45.49915709584899" lon="6.017528461443984"><ele>303.0</ele><time>2026-04-05T15:08:12Z</time></trkpt><trkpt lat="45.49915450292297" lon="6.017281358250246"><ele>304.0</ele><time>2026-04-05T15:08:13Z</time></trkpt><trkpt lat="45.499171749456735" lon="6.017046024435623"><ele>305.0</ele><time>2026-04-05T15:08:14Z</time></trkpt><trkpt lat="45.49921043779016" lon="6.016813855943622"><ele>306.0</ele><time>2026-04-05T15:08:15Z</time></trkpt><trkpt lat="45.49926167806308" lon="6.016590832590917"><ele>306.0</ele><time>2026-04-05T15:08:16Z</time></trkpt><trkpt lat="45.49932400564595" lon="6.01637675794417"><ele>306.0</ele><time>2026-04-05T15:08:17Z</time></trkpt><trkpt lat="45.49939987090099" lon="6.016180468577513"><ele>306.0</ele><time>2026-04-05T15:08:18Z</time></trkpt><trkpt lat="45.49948370171991" lon="6.01599904009558"><ele>306.0</ele><time>2026-04-05T15:08:19Z</time></trkpt><trkpt lat="45.49957791865057" lon="6.01583467689515"><ele>306.0</ele><time>2026-04-05T15:08:20Z</time></trkpt><trkpt lat="45.49967659852337" lon="6.015660677125796"><ele>306.0</ele><time>2026-04-05T15:08:21Z</time></trkpt><trkpt lat="45.4997787734274" lon="6.015493219387892"><ele>306.75</ele><time>2026-04-05T15:08:22Z</time></trkpt><trkpt lat="45.49983504606303" lon="6.015324007076525"><ele>307.5</ele><time>2026-04-05T15:08:23Z</time></trkpt><trkpt lat="45.49988429778087" lon="6.015152187245605"><ele>308.25</ele><time>2026-04-05T15:08:24.001Z</time></trkpt><trkpt lat="45.49994394292983" lon="6.014964730924306"><ele>309.0</ele><time>2026-04-05T15:08:25.001Z</time></trkpt><trkpt lat="45.49999590776409" lon="6.014773414766657"><ele>309.0</ele><time>2026-04-05T15:08:26.001Z</time></trkpt><trkpt lat="45.5000428246152" lon="6.014551700964442"><ele>309.0</ele><time>2026-04-05T15:08:27.001Z</time></trkpt><trkpt lat="45.500086710841614" lon="6.014307195475572"><ele>309.0</ele><time>2026-04-05T15:08:28.001Z</time></trkpt><trkpt lat="45.50013354440366" lon="6.014055404854186"><ele>308.0</ele><time>2026-04-05T15:08:29.001Z</time></trkpt><trkpt lat="45.50018742930362" lon="6.013808033586883"><ele>307.0</ele><time>2026-04-05T15:08:30.001Z</time></trkpt><trkpt lat="45.50026175442745" lon="6.01356653555437"><ele>306.0</ele><time>2026-04-05T15:08:31.001Z</time></trkpt><trkpt lat="45.50033386593802" lon="6.0133107477903005"><ele>307.0</ele><time>2026-04-05T15:08:32.001Z</time></trkpt><trkpt lat="45.500414562005325" lon="6.013048963319019"><ele>308.0</ele><time>2026-04-05T15:08:33.001Z</time></trkpt><trkpt lat="45.50049566600137" lon="6.012789091377836"><ele>309.0</ele><time>2026-04-05T15:08:34.001Z</time></trkpt><trkpt lat="45.500577977134746" lon="6.012525351758642"><ele>308.3333333333333</ele><time>2026-04-05T15:08:35.001Z</time></trkpt><trkpt lat="45.50064527344363" lon="6.012255777061637"><ele>307.66666666666663</ele><time>2026-04-05T15:08:36.001Z</time></trkpt><trkpt lat="45.50073104053391" lon="6.0120026942475535"><ele>307.0</ele><time>2026-04-05T15:08:37.001Z</time></trkpt><trkpt lat="45.50079998764812" lon="6.011737520513408"><ele>305.66666666666663</ele><time>2026-04-05T15:08:38.001Z</time></trkpt><trkpt lat="45.50085833454182" lon="6.011464092941386"><ele>304.3333333333333</ele><time>2026-04-05T15:08:39.001Z</time></trkpt><trkpt lat="45.5008898198001" lon="6.0111810918094495"><ele>303.0</ele><time>2026-04-05T15:08:40.001Z</time></trkpt><trkpt lat="45.50088957776084" lon="6.010880824302579"><ele>303.3333333333333</ele><time>2026-04-05T15:08:41.001Z</time></trkpt><trkpt lat="45.500881370480215" lon="6.010579993838312"><ele>303.66666666666663</ele><time>2026-04-05T15:08:42.001Z</time></trkpt><trkpt lat="45.50090065380704" lon="6.010282380506392"><ele>304.0</ele><time>2026-04-05T15:08:43.001Z</time></trkpt><trkpt lat="45.50094411258672" lon="6.0099879554663715"><ele>304.66666666666663</ele><time>2026-04-05T15:08:44.001Z</time></trkpt><trkpt lat="45.501005840080055" lon="6.009698283731992"><ele>305.3333333333333</ele><time>2026-04-05T15:08:45.001Z</time></trkpt><trkpt lat="45.50105877031273" lon="6.009402506246742"><ele>306.0</ele><time>2026-04-05T15:08:46.001Z</time></trkpt><trkpt lat="45.50111180266515" lon="6.009121737898258"><ele>307.0</ele><time>2026-04-05T15:08:47.001Z</time></trkpt><trkpt lat="45.501156377547915" lon="6.008881393216174"><ele>308.0</ele><time>2026-04-05T15:08:48.001Z</time></trkpt><trkpt lat="45.50117417642199" lon="6.008640703587947"><ele>309.0</ele><time>2026-04-05T15:08:49.001Z</time></trkpt><trkpt lat="45.5011669423355" lon="6.008414209079585"><ele>309.25</ele><time>2026-04-05T15:08:50.001Z</time></trkpt><trkpt lat="45.501150588552626" lon="6.008204788295322"><ele>309.5</ele><time>2026-04-05T15:08:51.001Z</time></trkpt><trkpt lat="45.50112995372027" lon="6.008008537505212"><ele>309.75</ele><time>2026-04-05T15:08:52.001Z</time></trkpt><trkpt lat="45.501106170571575" lon="6.007825385524455"><ele>310.0</ele><time>2026-04-05T15:08:53.001Z</time></trkpt><trkpt lat="45.50107926963069" lon="6.007670651366144"><ele>310.0</ele><time>2026-04-05T15:08:54.001Z</time></trkpt><trkpt lat="45.501076095662306" lon="6.00756565899377"><ele>310.0</ele><time>2026-04-05T15:08:55.001Z</time></trkpt><trkpt lat="45.50104211232096" lon="6.007472907691673"><ele>310.0</ele><time>2026-04-05T15:08:56.001Z</time></trkpt><trkpt lat="45.50100477165232" lon="6.007321509388477"><ele>310.0</ele><time>2026-04-05T15:08:58.001Z</time></trkpt><trkpt lat="45.500986550244704" lon="6.007226990471171"><ele>310.0</ele><time>2026-04-05T15:08:59.001Z</time></trkpt><trkpt lat="45.50096050159556" lon="6.007122505053816"><ele>310.0</ele><time>2026-04-05T15:09:00.001Z</time></trkpt><trkpt lat="45.500925452992405" lon="6.007009700812503"><ele>310.0</ele><time>2026-04-05T15:09:01.001Z</time></trkpt><trkpt lat="45.50090005899595" lon="6.006881215394889"><ele>310.0</ele><time>2026-04-05T15:09:02.001Z</time></trkpt><trkpt lat="45.50087075739113" lon="6.006747530856033"><ele>310.0</ele><time>2026-04-05T15:09:03.001Z</time></trkpt><trkpt lat="45.50085230096206" lon="6.006605330928552"><ele>310.0</ele><time>2026-04-05T15:09:04.001Z</time></trkpt><trkpt lat="45.500867967244716" lon="6.006456552305667"><ele>310.0</ele><time>2026-04-05T15:09:05.001Z</time></trkpt><trkpt lat="45.500873336415594" lon="6.006313754945479"><ele>308.6</ele><time>2026-04-05T15:09:06.001Z</time></trkpt><trkpt lat="45.50086567173921" lon="6.006170960021144"><ele>307.2</ele><time>2026-04-05T15:09:07.001Z</time></trkpt><trkpt lat="45.50089296742785" lon="6.006029066613943"><ele>305.8</ele><time>2026-04-05T15:09:08.001Z</time></trkpt><trkpt lat="45.50091095852076" lon="6.005867923848709"><ele>304.4</ele><time>2026-04-05T15:09:09.001Z</time></trkpt><trkpt lat="45.50092770477521" lon="6.00569781805332"><ele>303.0</ele><time>2026-04-05T15:09:10.001Z</time></trkpt><trkpt lat="45.50094074237839" lon="6.005518571774626"><ele>302.25</ele><time>2026-04-05T15:09:11.002Z</time></trkpt><trkpt lat="45.50093352399377" lon="6.005331685933751"><ele>301.5</ele><time>2026-04-05T15:09:12.002Z</time></trkpt><trkpt lat="45.50095866433879" lon="6.00514777970312"><ele>300.75</ele><time>2026-04-05T15:09:13.002Z</time></trkpt><trkpt lat="45.50096345034896" lon="6.004962521791069"><ele>300.0</ele><time>2026-04-05T15:09:14.002Z</time></trkpt><trkpt lat="45.500954273794584" lon="6.0047724013758685"><ele>300.0</ele><time>2026-04-05T15:09:15.002Z</time></trkpt><trkpt lat="45.5009267758337" lon="6.004583567257356"><ele>300.0</ele><time>2026-04-05T15:09:16.002Z</time></trkpt><trkpt lat="45.500889818096965" lon="6.004407790534152"><ele>300.0</ele><time>2026-04-05T15:09:17.002Z</time></trkpt><trkpt lat="45.50084032471817" lon="6.0042535528774446"><ele>300.0</ele><time>2026-04-05T15:09:18.002Z</time></trkpt><trkpt lat="45.50077461674592" lon="6.004109019155101"><ele>301.0</ele><time>2026-04-05T15:09:19.002Z</time></trkpt><trkpt lat="45.50070170146724" lon="6.003974683598497"><ele>302.0</ele><time>2026-04-05T15:09:20.002Z</time></trkpt><trkpt lat="45.500640854839304" lon="6.003836881584945"><ele>303.0</ele><time>2026-04-05T15:09:21.002Z</time></trkpt><trkpt lat="45.50057699444051" lon="6.003693862097307"><ele>304.0</ele><time>2026-04-05T15:09:22.002Z</time></trkpt><trkpt lat="45.500515208561616" lon="6.003549531211106"><ele>304.0</ele><time>2026-04-05T15:09:23.002Z</time></trkpt><trkpt lat="45.500456944694065" lon="6.003409825863764"><ele>304.0</ele><time>2026-04-05T15:09:24.002Z</time></trkpt><trkpt lat="45.50040218978651" lon="6.003278199106457"><ele>304.0</ele><time>2026-04-05T15:09:25.002Z</time></trkpt><trkpt lat="45.50035447448631" lon="6.00316312587302"><ele>304.0</ele><time>2026-04-05T15:09:26.002Z</time></trkpt><trkpt lat="45.50029985638166" lon="6.0030776119450335"><ele>304.0</ele><time>2026-04-05T15:09:27.002Z</time></trkpt><trkpt lat="45.50026588768347" lon="6.002986429106254"><ele>304.66666666666663</ele><time>2026-04-05T15:09:28.002Z</time></trkpt><trkpt lat="45.50025445444519" lon="6.002817596267109"><ele>305.3333333333333</ele><time>2026-04-05T15:09:30.002Z</time></trkpt><trkpt lat="45.50024154098548" lon="6.002729333828142"><ele>306.0</ele><time>2026-04-05T15:09:31.002Z</time></trkpt><trkpt lat="45.50028318297866" lon="6.002636367072916"><ele>306.6666666666667</ele><time>2026-04-05T15:09:32.002Z</time></trkpt><trkpt lat="45.50030656090763" lon="6.002551832466562"><ele>307.33333333333337</ele><time>2026-04-05T15:09:33.002Z</time></trkpt><trkpt lat="45.50035432702141" lon="6.002395111650458"><ele>308.0</ele><time>2026-04-05T15:09:35.002Z</time></trkpt><trkpt lat="45.50038600597078" lon="6.002292079186482"><ele>309.0</ele><time>2026-04-05T15:09:36.002Z</time></trkpt><trkpt lat="45.50042529574821" lon="6.002166929131559"><ele>310.0</ele><time>2026-04-05T15:09:37.002Z</time></trkpt><trkpt lat="45.500454239997914" lon="6.002018399038731"><ele>311.0</ele><time>2026-04-05T15:09:38.002Z</time></trkpt><trkpt lat="45.50051449276744" lon="6.001882808347742"><ele>312.0</ele><time>2026-04-05T15:09:39.002Z</time></trkpt><trkpt lat="45.50053442393015" lon="6.0017420718328625"><ele>313.0</ele><time>2026-04-05T15:09:40.002Z</time></trkpt><trkpt lat="45.50055633542533" lon="6.001635865835673"><ele>313.0</ele><time>2026-04-05T15:09:41.002Z</time></trkpt><trkpt lat="45.50054925884749" lon="6.001475368569977"><ele>313.0</ele><time>2026-04-05T15:09:43Z</time></trkpt><trkpt lat="45.50049735898982" lon="6.00136525602911"><ele>313.0</ele><time>2026-04-05T15:09:45Z</time></trkpt><trkpt lat="45.50045203694965" lon="6.001301331998551"><ele>313.0</ele><time>2026-04-05T15:09:46Z</time></trkpt><trkpt lat="45.50041563292584" lon="6.001201296711286"><ele>313.0</ele><time>2026-04-05T15:09:47Z</time></trkpt><trkpt lat="45.50036256247028" lon="6.001105427055809"><ele>313.0</ele><time>2026-04-05T15:09:48Z</time></trkpt><trkpt lat="45.50029343645362" lon="6.001022980499207"><ele>313.3333333333333</ele><time>2026-04-05T15:09:49Z</time></trkpt><trkpt lat="45.5002345396089" lon="6.000920646166226"><ele>313.66666666666663</ele><time>2026-04-05T15:09:50Z</time></trkpt><trkpt lat="45.50017622529797" lon="6.000829948760301"><ele>314.0</ele><time>2026-04-05T15:09:51Z</time></trkpt><trkpt lat="45.500109902370454" lon="6.000750379371268"><ele>314.3333333333333</ele><time>2026-04-05T15:09:52Z</time></trkpt><trkpt lat="45.50003775126091" lon="6.000705507499388"><ele>314.6666666666667</ele><time>2026-04-05T15:09:53Z</time></trkpt><trkpt lat="45.49995713167162" lon="6.000655561078267"><ele>315.0</ele><time>2026-04-05T15:09:54Z</time></trkpt><trkpt lat="45.49987862932866" lon="6.000654227813935"><ele>316.0</ele><time>2026-04-05T15:09:55Z</time></trkpt><trkpt lat="45.49979828604998" lon="6.000671871319004"><ele>317.0</ele><time>2026-04-05T15:09:56Z</time></trkpt><trkpt lat="45.499715041479355" lon="6.000696149911133"><ele>318.0</ele><time>2026-04-05T15:09:57Z</time></trkpt><trkpt lat="45.49962380112111" lon="6.000738213648692"><ele>319.0</ele><time>2026-04-05T15:09:58Z</time></trkpt><trkpt lat="45.4995309346776" lon="6.000769321460805"><ele>320.0</ele><time>2026-04-05T15:09:59Z</time></trkpt><trkpt lat="45.49944192091784" lon="6.000845320228088"><ele>320.0</ele><time>2026-04-05T15:10:00Z</time></trkpt><trkpt lat="45.499344279392815" lon="6.000890705029149"><ele>320.0</ele><time>2026-04-05T15:10:01Z</time></trkpt><trkpt lat="45.49926456406874" lon="6.000957563453922"><ele>320.0</ele><time>2026-04-05T15:10:02Z</time></trkpt><trkpt lat="45.4991814380226" lon="6.001004512336902"><ele>320.0</ele><time>2026-04-05T15:10:03Z</time></trkpt><trkpt lat="45.49910535843916" lon="6.001039975686175"><ele>320.0</ele><time>2026-04-05T15:10:04Z</time></trkpt><trkpt lat="45.49902968079102" lon="6.001043601562183"><ele>320.0</ele><time>2026-04-05T15:10:05Z</time></trkpt><trkpt lat="45.498960201331215" lon="6.001015519171152"><ele>320.0</ele><time>2026-04-05T15:10:06Z</time></trkpt><trkpt lat="45.498897554054345" lon="6.000957808383879"><ele>320.0</ele><time>2026-04-05T15:10:07Z</time></trkpt><trkpt lat="45.49884351618152" lon="6.000891692989224"><ele>320.0</ele><time>2026-04-05T15:10:08Z</time></trkpt><trkpt lat="45.49882262431395" lon="6.000799868452143"><ele>320.0</ele><time>2026-04-05T15:10:09Z</time></trkpt><trkpt lat="45.498801753748324" lon="6.000703463070605"><ele>320.0</ele><time>2026-04-05T15:10:12Z</time></trkpt><trkpt lat="45.49881034236053" lon="6.000608027087901"><ele>320.0</ele><time>2026-04-05T15:10:14Z</time></trkpt><trkpt lat="45.49882734522756" lon="6.0004838210236215"><ele>320.0</ele><time>2026-04-05T15:10:16Z</time></trkpt><trkpt lat="45.49874745539395" lon="6.000396345831573"><ele>319.83333333333337</ele><time>2026-04-05T15:10:18.001Z</time></trkpt><trkpt lat="45.49863815907867" lon="6.000450886254717"><ele>319.6666666666667</ele><time>2026-04-05T15:10:20.001Z</time></trkpt><trkpt lat="45.49858794584447" lon="6.0005060341349274"><ele>319.5</ele><time>2026-04-05T15:10:21.001Z</time></trkpt><trkpt lat="45.49852918630004" lon="6.000547668069934"><ele>319.3333333333333</ele><time>2026-04-05T15:10:22.001Z</time></trkpt><trkpt lat="45.49845835052946" lon="6.000561714343253"><ele>319.16666666666663</ele><time>2026-04-05T15:10:23.001Z</time></trkpt><trkpt lat="45.49838433899604" lon="6.000547748538579"><ele>319.0</ele><time>2026-04-05T15:10:24.001Z</time></trkpt><trkpt lat="45.498308050015744" lon="6.000515963798335"><ele>319.0</ele><time>2026-04-05T15:10:25.001Z</time></trkpt><trkpt lat="45.49823264595491" lon="6.000484946603734"><ele>319.0</ele><time>2026-04-05T15:10:26.001Z</time></trkpt><trkpt lat="45.49815477779473" lon="6.000461703670111"><ele>319.0</ele><time>2026-04-05T15:10:27.001Z</time></trkpt><trkpt lat="45.49806840466546" lon="6.000458001485173"><ele>319.0</ele><time>2026-04-05T15:10:28.001Z</time></trkpt><trkpt lat="45.49798185639003" lon="6.000489469420525"><ele>319.0</ele><time>2026-04-05T15:10:29.001Z</time></trkpt><trkpt lat="45.4978938649181" lon="6.00055783912605"><ele>319.0</ele><time>2026-04-05T15:10:30.001Z</time></trkpt><trkpt lat="45.497808026394694" lon="6.000638265143138"><ele>319.25</ele><time>2026-04-05T15:10:31.001Z</time></trkpt><trkpt lat="45.4977060361989" lon="6.000722628231473"><ele>319.5</ele><time>2026-04-05T15:10:32.001Z</time></trkpt><trkpt lat="45.49759810563698" lon="6.00080732569747"><ele>319.75</ele><time>2026-04-05T15:10:33.001Z</time></trkpt><trkpt lat="45.497485222744004" lon="6.000897283644718"><ele>320.0</ele><time>2026-04-05T15:10:34.001Z</time></trkpt><trkpt lat="45.49737637689178" lon="6.000991884983237"><ele>320.0</ele><time>2026-04-05T15:10:35.001Z</time></trkpt><trkpt lat="45.49727198477308" lon="6.001056197178169"><ele>320.0</ele><time>2026-04-05T15:10:36.001Z</time></trkpt><trkpt lat="45.497179552945894" lon="6.001138949157501"><ele>320.0</ele><time>2026-04-05T15:10:37.001Z</time></trkpt><trkpt lat="45.497083877057605" lon="6.001201757590134"><ele>320.0</ele><time>2026-04-05T15:10:38.001Z</time></trkpt><trkpt lat="45.49699493132104" lon="6.001267218541363"><ele>320.0</ele><time>2026-04-05T15:10:39.001Z</time></trkpt><trkpt lat="45.49691734926347" lon="6.001332566866395"><ele>319.5</ele><time>2026-04-05T15:10:40.001Z</time></trkpt><trkpt lat="45.496859206040185" lon="6.001384248273217"><ele>319.0</ele><time>2026-04-05T15:10:41.001Z</time></trkpt><trkpt lat="45.4968040338307" lon="6.001427850483285"><ele>318.5</ele><time>2026-04-05T15:10:42.001Z</time></trkpt><trkpt lat="45.49674219871311" lon="6.001471336269173"><ele>318.0</ele><time>2026-04-05T15:10:43.001Z</time></trkpt><trkpt lat="45.49666569867221" lon="6.001523750057626"><ele>317.5</ele><time>2026-04-05T15:10:44.001Z</time></trkpt><trkpt lat="45.496574950665305" lon="6.0015919259873085"><ele>317.0</ele><time>2026-04-05T15:10:45.001Z</time></trkpt><trkpt lat="45.496471861081524" lon="6.001668274114892"><ele>317.0</ele><time>2026-04-05T15:10:46.001Z</time></trkpt><trkpt lat="45.49636492859859" lon="6.001720688703328"><ele>317.0</ele><time>2026-04-05T15:10:47.001Z</time></trkpt><trkpt lat="45.49623551897787" lon="6.0017160042184505"><ele>317.0</ele><time>2026-04-05T15:10:48.001Z</time></trkpt><trkpt lat="45.49609375046852" lon="6.001654388748337"><ele>317.0</ele><time>2026-04-05T15:10:49.001Z</time></trkpt><trkpt lat="45.49594601544798" lon="6.00157214690296"><ele>313.6666666666667</ele><time>2026-04-05T15:10:50.001Z</time></trkpt><trkpt lat="45.49578965488714" lon="6.001498811271009"><ele>310.3333333333333</ele><time>2026-04-05T15:10:51.001Z</time></trkpt><trkpt lat="45.49562233620499" lon="6.001431849444493"><ele>307.0</ele><time>2026-04-05T15:10:52.001Z</time></trkpt><trkpt lat="45.49545731113118" lon="6.001368974988912"><ele>306.66666666666663</ele><time>2026-04-05T15:10:53.001Z</time></trkpt><trkpt lat="45.49529568213723" lon="6.00130220853565"><ele>306.3333333333333</ele><time>2026-04-05T15:10:54.001Z</time></trkpt><trkpt lat="45.49513340169008" lon="6.001231267962354"><ele>306.0</ele><time>2026-04-05T15:10:55.001Z</time></trkpt><trkpt lat="45.4949690890903" lon="6.001161006599658"><ele>306.0</ele><time>2026-04-05T15:10:56.001Z</time></trkpt><trkpt lat="45.494804744151324" lon="6.00109492260519"><ele>306.0</ele><time>2026-04-05T15:10:57.001Z</time></trkpt><trkpt lat="45.494646596352524" lon="6.001028745109289"><ele>306.0</ele><time>2026-04-05T15:10:58.001Z</time></trkpt><trkpt lat="45.49449112468787" lon="6.000952595206964"><ele>305.6666666666667</ele><time>2026-04-05T15:10:59.001Z</time></trkpt><trkpt lat="45.494340877116294" lon="6.000857019397704"><ele>305.33333333333337</ele><time>2026-04-05T15:11:00.001Z</time></trkpt><trkpt lat="45.494198522631066" lon="6.000735955829524"><ele>305.0</ele><time>2026-04-05T15:11:01.001Z</time></trkpt><trkpt lat="45.49406060413787" lon="6.0006111446222254"><ele>305.0</ele><time>2026-04-05T15:11:02.001Z</time></trkpt><trkpt lat="45.493917528863506" lon="6.000487656107716"><ele>305.0</ele><time>2026-04-05T15:11:03.001Z</time></trkpt><trkpt lat="45.493772281966365" lon="6.000363106987763"><ele>305.0</ele><time>2026-04-05T15:11:04.001Z</time></trkpt><trkpt lat="45.493625654504434" lon="6.000231819484861"><ele>305.0</ele><time>2026-04-05T15:11:05.001Z</time></trkpt><trkpt lat="45.49347769738729" lon="6.000097100657822"><ele>305.0</ele><time>2026-04-05T15:11:06.002Z</time></trkpt><trkpt lat="45.49332618113601" lon="5.999955419098727"><ele>305.0</ele><time>2026-04-05T15:11:07.002Z</time></trkpt><trkpt lat="45.49317057205064" lon="5.999813913980119"><ele>305.0</ele><time>2026-04-05T15:11:08.002Z</time></trkpt><trkpt lat="45.49301269430595" lon="5.99967313584149"><ele>305.0</ele><time>2026-04-05T15:11:09.002Z</time></trkpt><trkpt lat="45.49284900209116" lon="5.999532449643067"><ele>305.0</ele><time>2026-04-05T15:11:10.002Z</time></trkpt><trkpt lat="45.49268756310057" lon="5.999386460764012"><ele>304.33333333333337</ele><time>2026-04-05T15:11:11.002Z</time></trkpt><trkpt lat="45.49252325718075" lon="5.999230404031746"><ele>303.6666666666667</ele><time>2026-04-05T15:11:12.002Z</time></trkpt><trkpt lat="45.49234462707951" lon="5.999067829102152"><ele>303.0</ele><time>2026-04-05T15:11:13.002Z</time></trkpt><trkpt lat="45.49215720656968" lon="5.998900894481696"><ele>301.3333333333333</ele><time>2026-04-05T15:11:14.002Z</time></trkpt><trkpt lat="45.49196448183511" lon="5.9987290002653655"><ele>299.66666666666663</ele><time>2026-04-05T15:11:15.002Z</time></trkpt><trkpt lat="45.491778255581785" lon="5.998560380153385"><ele>298.0</ele><time>2026-04-05T15:11:16.002Z</time></trkpt><trkpt lat="45.4915922058718" lon="5.998396694797751"><ele>297.0</ele><time>2026-04-05T15:11:17.002Z</time></trkpt><trkpt lat="45.49140154478022" lon="5.99823433503634"><ele>296.0</ele><time>2026-04-05T15:11:18.002Z</time></trkpt><trkpt lat="45.49119551870187" lon="5.998064587610835"><ele>294.5</ele><time>2026-04-05T15:11:19.002Z</time></trkpt><trkpt lat="45.49098203373352" lon="5.997877421462324"><ele>293.0</ele><time>2026-04-05T15:11:20.002Z</time></trkpt><trkpt lat="45.49077692212075" lon="5.997701849017676"><ele>293.0</ele><time>2026-04-05T15:11:21.002Z</time></trkpt><trkpt lat="45.49057565211247" lon="5.997519715587603"><ele>293.0</ele><time>2026-04-05T15:11:22.002Z</time></trkpt><trkpt lat="45.49036413149925" lon="5.997377540210606"><ele>292.5</ele><time>2026-04-05T15:11:23.002Z</time></trkpt><trkpt lat="45.49015450178236" lon="5.9972300886178616"><ele>292.0</ele><time>2026-04-05T15:11:24.002Z</time></trkpt><trkpt lat="45.48994234463699" lon="5.99707850574366"><ele>292.0</ele><time>2026-04-05T15:11:25.002Z</time></trkpt><trkpt lat="45.48972579641845" lon="5.996943121542477"><ele>292.0</ele><time>2026-04-05T15:11:26.002Z</time></trkpt><trkpt lat="45.489528891581024" lon="5.996774051453436"><ele>290.66666666666663</ele><time>2026-04-05T15:11:27.002Z</time></trkpt><trkpt lat="45.48933234809392" lon="5.99662740048813"><ele>289.3333333333333</ele><time>2026-04-05T15:11:28.002Z</time></trkpt><trkpt lat="45.48913310106344" lon="5.996475727114412"><ele>288.0</ele><time>2026-04-05T15:11:29.002Z</time></trkpt><trkpt lat="45.48890005383554" lon="5.996280625049349"><ele>285.5</ele><time>2026-04-05T15:11:30.002Z</time></trkpt><trkpt lat="45.488687141346844" lon="5.996117537650141"><ele>283.0</ele><time>2026-04-05T15:11:31.002Z</time></trkpt><trkpt lat="45.48847143948174" lon="5.995953692987701"><ele>284.0</ele><time>2026-04-05T15:11:32.002Z</time></trkpt><trkpt lat="45.48826669183531" lon="5.995793480111791"><ele>285.0</ele><time>2026-04-05T15:11:33.002Z</time></trkpt><trkpt lat="45.48806145300194" lon="5.995623004852582"><ele>283.3333333333333</ele><time>2026-04-05T15:11:34.002Z</time></trkpt><trkpt lat="45.48786629777565" lon="5.995480138363415"><ele>281.66666666666663</ele><time>2026-04-05T15:11:35.002Z</time></trkpt><trkpt lat="45.48766845581046" lon="5.995336647937018"><ele>280.0</ele><time>2026-04-05T15:11:36.002Z</time></trkpt><trkpt lat="45.48747298235277" lon="5.995184097017356"><ele>280.0</ele><time>2026-04-05T15:11:37.002Z</time></trkpt><trkpt lat="45.48727462805639" lon="5.995031798681239"><ele>280.0</ele><time>2026-04-05T15:11:38.002Z</time></trkpt><trkpt lat="45.4870713280936" lon="5.994867198749288"><ele>280.0</ele><time>2026-04-05T15:11:39.002Z</time></trkpt><trkpt lat="45.486866186692396" lon="5.994706292452615"><ele>280.0</ele><time>2026-04-05T15:11:40.002Z</time></trkpt><trkpt lat="45.486649149555845" lon="5.99454329316997"><ele>280.0</ele><time>2026-04-05T15:11:41.002Z</time></trkpt><trkpt lat="45.48643362798713" lon="5.994379798409481"><ele>280.0</ele><time>2026-04-05T15:11:42.002Z</time></trkpt><trkpt lat="45.48621682468852" lon="5.994212490288597"><ele>279.0</ele><time>2026-04-05T15:11:43.002Z</time></trkpt><trkpt lat="45.486004963869526" lon="5.994049136415434"><ele>278.0</ele><time>2026-04-05T15:11:44.002Z</time></trkpt><trkpt lat="45.485795195132205" lon="5.993885758388622"><ele>278.0</ele><time>2026-04-05T15:11:45.002Z</time></trkpt><trkpt lat="45.48559198137714" lon="5.993731426861979"><ele>278.0</ele><time>2026-04-05T15:11:46.002Z</time></trkpt><trkpt lat="45.48539058806092" lon="5.9935742804343946"><ele>277.5</ele><time>2026-04-05T15:11:47.002Z</time></trkpt><trkpt lat="45.48518425909875" lon="5.993411590328961"><ele>277.0</ele><time>2026-04-05T15:11:48Z</time></trkpt><trkpt lat="45.48497885074732" lon="5.993256057175476"><ele>278.0</ele><time>2026-04-05T15:11:49Z</time></trkpt><trkpt lat="45.48476761452216" lon="5.99309707994214"><ele>279.0</ele><time>2026-04-05T15:11:50Z</time></trkpt><trkpt lat="45.48456048490829" lon="5.992938424320846"><ele>279.0</ele><time>2026-04-05T15:11:51Z</time></trkpt><trkpt lat="45.48434765148335" lon="5.992779168114823"><ele>279.0</ele><time>2026-04-05T15:11:52Z</time></trkpt><trkpt lat="45.48414924446275" lon="5.992641615497007"><ele>278.3333333333333</ele><time>2026-04-05T15:11:53Z</time></trkpt><trkpt lat="45.483971720724114" lon="5.992495763025874"><ele>277.66666666666663</ele><time>2026-04-05T15:11:54Z</time></trkpt><trkpt lat="45.48379773820343" lon="5.992342422014891"><ele>277.0</ele><time>2026-04-05T15:11:55Z</time></trkpt><trkpt lat="45.483621798919614" lon="5.992202992244634"><ele>276.0</ele><time>2026-04-05T15:11:56Z</time></trkpt><trkpt lat="45.48344294533246" lon="5.9920682867519295"><ele>275.0</ele><time>2026-04-05T15:11:57Z</time></trkpt><trkpt lat="45.48326745235621" lon="5.991927461020421"><ele>274.0</ele><time>2026-04-05T15:11:58Z</time></trkpt><trkpt lat="45.48309053994231" lon="5.991793853788591"><ele>273.0</ele><time>2026-04-05T15:11:59Z</time></trkpt><trkpt lat="45.48291146063698" lon="5.9916562212907225"><ele>272.0</ele><time>2026-04-05T15:12:00Z</time></trkpt><trkpt lat="45.482730373126856" lon="5.991518469019022"><ele>271.0</ele><time>2026-04-05T15:12:01Z</time></trkpt><trkpt lat="45.48254514213986" lon="5.991376789961594"><ele>271.0</ele><time>2026-04-05T15:12:02Z</time></trkpt><trkpt lat="45.482370549535474" lon="5.991235938674838"><ele>271.0</ele><time>2026-04-05T15:12:03Z</time></trkpt><trkpt lat="45.482194059963696" lon="5.991094550222112"><ele>271.0</ele><time>2026-04-05T15:12:04Z</time></trkpt><trkpt lat="45.4820001741119" lon="5.99094597106592"><ele>272.0</ele><time>2026-04-05T15:12:05Z</time></trkpt><trkpt lat="45.48179173223706" lon="5.990794045499343"><ele>273.0</ele><time>2026-04-05T15:12:06Z</time></trkpt><trkpt lat="45.48156199124071" lon="5.990630439912907"><ele>273.0</ele><time>2026-04-05T15:12:07Z</time></trkpt><trkpt lat="45.481338938250886" lon="5.990448219576029"><ele>273.0</ele><time>2026-04-05T15:12:08Z</time></trkpt><trkpt lat="45.48113163502035" lon="5.990281415380624"><ele>272.0</ele><time>2026-04-05T15:12:09Z</time></trkpt><trkpt lat="45.48092976629373" lon="5.990115202187637"><ele>271.0</ele><time>2026-04-05T15:12:10Z</time></trkpt><trkpt lat="45.48074219220245" lon="5.9899562078325355"><ele>271.0</ele><time>2026-04-05T15:12:11Z</time></trkpt><trkpt lat="45.48055809529882" lon="5.9898080316356515"><ele>271.0</ele><time>2026-04-05T15:12:12Z</time></trkpt><trkpt lat="45.4803740601778" lon="5.989663802522725"><ele>271.0</ele><time>2026-04-05T15:12:13Z</time></trkpt><trkpt lat="45.48020212535701" lon="5.9895190325617955"><ele>270.3333333333333</ele><time>2026-04-05T15:12:14Z</time></trkpt><trkpt lat="45.480041635216104" lon="5.989378320144636"><ele>269.6666666666667</ele><time>2026-04-05T15:12:15Z</time></trkpt><trkpt lat="45.47988674930529" lon="5.989240161267893"><ele>269.0</ele><time>2026-04-05T15:12:16Z</time></trkpt><trkpt lat="45.4797295518029" lon="5.989106156126448"><ele>269.0</ele><time>2026-04-05T15:12:17.001Z</time></trkpt><trkpt lat="45.47957252168729" lon="5.988976604923361"><ele>269.0</ele><time>2026-04-05T15:12:18.001Z</time></trkpt><trkpt lat="45.479422279445444" lon="5.988860616441212"><ele>269.0</ele><time>2026-04-05T15:12:19.001Z</time></trkpt><trkpt lat="45.4792750350216" lon="5.988746829867379"><ele>269.0</ele><time>2026-04-05T15:12:20.001Z</time></trkpt><trkpt lat="45.47911367200314" lon="5.988636897027907"><ele>269.0</ele><time>2026-04-05T15:12:21.001Z</time></trkpt><trkpt lat="45.47889702853509" lon="5.988546016606156"><ele>269.0</ele><time>2026-04-05T15:12:22.001Z</time></trkpt><trkpt lat="45.47864711614303" lon="5.9884189767767975"><ele>268.6666666666667</ele><time>2026-04-05T15:12:23.001Z</time></trkpt><trkpt lat="45.47848752364068" lon="5.988252213688152"><ele>268.3333333333333</ele><time>2026-04-05T15:12:25.001Z</time></trkpt><trkpt lat="45.478333804673646" lon="5.98816638544371"><ele>268.0</ele><time>2026-04-05T15:12:26.001Z</time></trkpt><trkpt lat="45.47817509360683" lon="5.988079671823095"><ele>268.0</ele><time>2026-04-05T15:12:27.001Z</time></trkpt><trkpt lat="45.47800366526576" lon="5.988003106500041"><ele>268.0</ele><time>2026-04-05T15:12:28.001Z</time></trkpt><trkpt lat="45.47782365996017" lon="5.987934301557219"><ele>268.0</ele><time>2026-04-05T15:12:29.001Z</time></trkpt><trkpt lat="45.47763510348487" lon="5.987879857392054"><ele>268.0</ele><time>2026-04-05T15:12:30.001Z</time></trkpt><trkpt lat="45.47743577074068" lon="5.987832889422407"><ele>268.0</ele><time>2026-04-05T15:12:31.001Z</time></trkpt><trkpt lat="45.47723366123706" lon="5.987812850699387"><ele>268.0</ele><time>2026-04-05T15:12:32.001Z</time></trkpt><trkpt lat="45.477016350313605" lon="5.987787584485372"><ele>268.0</ele><time>2026-04-05T15:12:33.001Z</time></trkpt><trkpt lat="45.476799673032566" lon="5.987775526253501"><ele>268.0</ele><time>2026-04-05T15:12:34.001Z</time></trkpt><trkpt lat="45.47658643128334" lon="5.987779351635038"><ele>268.0</ele><time>2026-04-05T15:12:35.001Z</time></trkpt><trkpt lat="45.47637729158262" lon="5.987796466373485"><ele>267.0</ele><time>2026-04-05T15:12:36.001Z</time></trkpt><trkpt lat="45.47617097839183" lon="5.987829747134138"><ele>266.0</ele><time>2026-04-05T15:12:37.001Z</time></trkpt><trkpt lat="45.475966163241" lon="5.987872499082493"><ele>265.0</ele><time>2026-04-05T15:12:38.001Z</time></trkpt><trkpt lat="45.47576139527395" lon="5.987923454288377"><ele>265.0</ele><time>2026-04-05T15:12:39.001Z</time></trkpt><trkpt lat="45.47555461115283" lon="5.987996304931694"><ele>265.0</ele><time>2026-04-05T15:12:40.001Z</time></trkpt><trkpt lat="45.475347960718196" lon="5.988072102077157"><ele>265.0</ele><time>2026-04-05T15:12:41.001Z</time></trkpt><trkpt lat="45.475140931441366" lon="5.988168743954983"><ele>265.0</ele><time>2026-04-05T15:12:42.001Z</time></trkpt><trkpt lat="45.4749413019573" lon="5.988270728316841"><ele>265.0</ele><time>2026-04-05T15:12:43.001Z</time></trkpt><trkpt lat="45.474756873306696" lon="5.988370527324162"><ele>265.0</ele><time>2026-04-05T15:12:44.001Z</time></trkpt><trkpt lat="45.474585597247476" lon="5.9884606710730655"><ele>264.3333333333333</ele><time>2026-04-05T15:12:45.001Z</time></trkpt><trkpt lat="45.47441479591765" lon="5.9885495828739295"><ele>263.6666666666667</ele><time>2026-04-05T15:12:46.001Z</time></trkpt><trkpt lat="45.47423555234933" lon="5.98863176961065"><ele>263.0</ele><time>2026-04-05T15:12:47.001Z</time></trkpt><trkpt lat="45.47404930756839" lon="5.988729648926541"><ele>263.0</ele><time>2026-04-05T15:12:48.001Z</time></trkpt><trkpt lat="45.473862626567005" lon="5.988825040686092"><ele>263.0</ele><time>2026-04-05T15:12:49.001Z</time></trkpt><trkpt lat="45.473671230443806" lon="5.988925229864887"><ele>263.0</ele><time>2026-04-05T15:12:50.001Z</time></trkpt><trkpt lat="45.47347359939511" lon="5.989029283976364"><ele>263.0</ele><time>2026-04-05T15:12:51.001Z</time></trkpt><trkpt lat="45.47326811523459" lon="5.989122819033158"><ele>263.0</ele><time>2026-04-05T15:12:52.001Z</time></trkpt><trkpt lat="45.47306712800513" lon="5.989219745592366"><ele>263.0</ele><time>2026-04-05T15:12:53.001Z</time></trkpt><trkpt lat="45.472872530371355" lon="5.98931431501119"><ele>263.33333333333337</ele><time>2026-04-05T15:12:54.001Z</time></trkpt><trkpt lat="45.47267664981033" lon="5.989415695993511"><ele>263.6666666666667</ele><time>2026-04-05T15:12:55.001Z</time></trkpt><trkpt lat="45.47247290592824" lon="5.989517676474461"><ele>264.0</ele><time>2026-04-05T15:12:56.001Z</time></trkpt><trkpt lat="45.47228178672937" lon="5.989611362022974"><ele>264.3333333333333</ele><time>2026-04-05T15:12:57.001Z</time></trkpt><trkpt lat="45.472106541226374" lon="5.989683633084879"><ele>264.66666666666663</ele><time>2026-04-05T15:12:58.001Z</time></trkpt><trkpt lat="45.47191858428467" lon="5.989769502641681"><ele>265.0</ele><time>2026-04-05T15:12:59.001Z</time></trkpt><trkpt lat="45.471726545016" lon="5.989855691824489"><ele>265.0</ele><time>2026-04-05T15:13:00.001Z</time></trkpt><trkpt lat="45.47152857106201" lon="5.989942802935005"><ele>265.0</ele><time>2026-04-05T15:13:01.001Z</time></trkpt><trkpt lat="45.47132893181712" lon="5.990038196817963"><ele>265.0</ele><time>2026-04-05T15:13:02.001Z</time></trkpt><trkpt lat="45.47112834234053" lon="5.9901375408428565"><ele>265.3333333333333</ele><time>2026-04-05T15:13:03.001Z</time></trkpt><trkpt lat="45.47093479527822" lon="5.990237611895385"><ele>265.6666666666667</ele><time>2026-04-05T15:13:04.001Z</time></trkpt><trkpt lat="45.470751266951005" lon="5.990328745645244"><ele>266.0</ele><time>2026-04-05T15:13:05.001Z</time></trkpt><trkpt lat="45.47057259353169" lon="5.990424234346277"><ele>267.33333333333337</ele><time>2026-04-05T15:13:06.001Z</time></trkpt><trkpt lat="45.470389917263695" lon="5.9905175865498395"><ele>268.6666666666667</ele><time>2026-04-05T15:13:07.002Z</time></trkpt><trkpt lat="45.470203535032645" lon="5.990605110347257"><ele>270.0</ele><time>2026-04-05T15:13:08.002Z</time></trkpt><trkpt lat="45.47001845164786" lon="5.9906915751976895"><ele>270.0</ele><time>2026-04-05T15:13:09.002Z</time></trkpt><trkpt lat="45.469849063248994" lon="5.990778586576734"><ele>270.0</ele><time>2026-04-05T15:13:10.002Z</time></trkpt><trkpt lat="45.469686949419206" lon="5.990855882836089"><ele>270.0</ele><time>2026-04-05T15:13:11.002Z</time></trkpt><trkpt lat="45.4695280315656" lon="5.99093265873505"><ele>270.3333333333333</ele><time>2026-04-05T15:13:12.002Z</time></trkpt><trkpt lat="45.46937397087596" lon="5.991018204438376"><ele>270.66666666666663</ele><time>2026-04-05T15:13:13.002Z</time></trkpt><trkpt lat="45.469215801666415" lon="5.99111026795173"><ele>271.0</ele><time>2026-04-05T15:13:14.002Z</time></trkpt><trkpt lat="45.46905402292499" lon="5.991207971707507"><ele>271.0</ele><time>2026-04-05T15:13:15.002Z</time></trkpt><trkpt lat="45.4688916840897" lon="5.991301842211104"><ele>271.0</ele><time>2026-04-05T15:13:16.002Z</time></trkpt><trkpt lat="45.46873180123729" lon="5.991390516530366"><ele>271.0</ele><time>2026-04-05T15:13:17.002Z</time></trkpt><trkpt lat="45.46856816986332" lon="5.9914686043376895"><ele>271.0</ele><time>2026-04-05T15:13:18.002Z</time></trkpt><trkpt lat="45.468406215636584" lon="5.9915392649561445"><ele>271.0</ele><time>2026-04-05T15:13:19.002Z</time></trkpt><trkpt lat="45.468244813389916" lon="5.991620595257432"><ele>271.0</ele><time>2026-04-05T15:13:20.002Z</time></trkpt><trkpt lat="45.4680865239112" lon="5.991703373369115"><ele>271.66666666666663</ele><time>2026-04-05T15:13:21.002Z</time></trkpt><trkpt lat="45.46792938484484" lon="5.9917853786670054"><ele>272.3333333333333</ele><time>2026-04-05T15:13:22.002Z</time></trkpt><trkpt lat="45.467776212735195" lon="5.991860805354637"><ele>273.0</ele><time>2026-04-05T15:13:23.002Z</time></trkpt><trkpt lat="45.467628053617254" lon="5.991934972019746"><ele>273.0</ele><time>2026-04-05T15:13:24.002Z</time></trkpt><trkpt lat="45.46747949056718" lon="5.992007369687537"><ele>273.0</ele><time>2026-04-05T15:13:25.002Z</time></trkpt><trkpt lat="45.46733529961982" lon="5.992077851757616"><ele>273.0</ele><time>2026-04-05T15:13:26.002Z</time></trkpt><trkpt lat="45.4671899298927" lon="5.992145295806357"><ele>273.6666666666667</ele><time>2026-04-05T15:13:27.002Z</time></trkpt><trkpt lat="45.467045748505" lon="5.992216600191491"><ele>274.33333333333337</ele><time>2026-04-05T15:13:28.002Z</time></trkpt><trkpt lat="45.46690117687472" lon="5.99228993567512"><ele>275.0</ele><time>2026-04-05T15:13:29.002Z</time></trkpt><trkpt lat="45.46675642799111" lon="5.992362763254915"><ele>275.0</ele><time>2026-04-05T15:13:30.002Z</time></trkpt><trkpt lat="45.4666123140335" lon="5.992432745098976"><ele>275.0</ele><time>2026-04-05T15:13:31.002Z</time></trkpt><trkpt lat="45.4664658593643" lon="5.992500997496827"><ele>275.0</ele><time>2026-04-05T15:13:32.002Z</time></trkpt><trkpt lat="45.46631816440673" lon="5.992574608297184"><ele>275.6666666666667</ele><time>2026-04-05T15:13:33.002Z</time></trkpt><trkpt lat="45.46617215840745" lon="5.992648834669422"><ele>276.3333333333333</ele><time>2026-04-05T15:13:34.002Z</time></trkpt><trkpt lat="45.46602290587834" lon="5.992725839025904"><ele>277.0</ele><time>2026-04-05T15:13:35.002Z</time></trkpt><trkpt lat="45.46586808052009" lon="5.992797760681197"><ele>277.0</ele><time>2026-04-05T15:13:36.002Z</time></trkpt><trkpt lat="45.465706414739415" lon="5.992865701714531"><ele>277.0</ele><time>2026-04-05T15:13:37.002Z</time></trkpt><trkpt lat="45.46554654670161" lon="5.992936105877289"><ele>277.0</ele><time>2026-04-05T15:13:38.002Z</time></trkpt><trkpt lat="45.46539461312434" lon="5.9930127008356715"><ele>278.66666666666663</ele><time>2026-04-05T15:13:39.002Z</time></trkpt><trkpt lat="45.465252677823734" lon="5.993095280432233"><ele>280.3333333333333</ele><time>2026-04-05T15:13:40.002Z</time></trkpt><trkpt lat="45.46511438121631" lon="5.9931881871687525"><ele>282.0</ele><time>2026-04-05T15:13:41.002Z</time></trkpt><trkpt lat="45.464980851989026" lon="5.993286921312422"><ele>281.25</ele><time>2026-04-05T15:13:42.002Z</time></trkpt><trkpt lat="45.464855618865656" lon="5.99337143765754"><ele>280.5</ele><time>2026-04-05T15:13:43.002Z</time></trkpt><trkpt lat="45.4647276129929" lon="5.993454053726142"><ele>279.75</ele><time>2026-04-05T15:13:44.002Z</time></trkpt><trkpt lat="45.46459523382626" lon="5.9935437068719635"><ele>279.0</ele><time>2026-04-05T15:13:45.002Z</time></trkpt><trkpt lat="45.46445383008041" lon="5.9936482583529775"><ele>279.0</ele><time>2026-04-05T15:13:46.002Z</time></trkpt><trkpt lat="45.46428567108875" lon="5.993742832975483"><ele>279.0</ele><time>2026-04-05T15:13:47.002Z</time></trkpt><trkpt lat="45.464115191657925" lon="5.993869718049357"><ele>279.0</ele><time>2026-04-05T15:13:48.002Z</time></trkpt><trkpt lat="45.46394556683614" lon="5.993978554890767"><ele>279.3333333333333</ele><time>2026-04-05T15:13:49.002Z</time></trkpt><trkpt lat="45.4637782022661" lon="5.994095734924857"><ele>279.66666666666663</ele><time>2026-04-05T15:13:50.002Z</time></trkpt><trkpt lat="45.463600360187364" lon="5.994200236840014"><ele>280.0</ele><time>2026-04-05T15:13:51.002Z</time></trkpt><trkpt lat="45.46341012080006" lon="5.994328959920588"><ele>280.0</ele><time>2026-04-05T15:13:52.002Z</time></trkpt><trkpt lat="45.46320653087315" lon="5.994466189524163"><ele>280.0</ele><time>2026-04-05T15:13:53.002Z</time></trkpt><trkpt lat="45.46301139299411" lon="5.99459766303979"><ele>280.0</ele><time>2026-04-05T15:13:54Z</time></trkpt><trkpt lat="45.46282943521882" lon="5.99472766989819"><ele>280.3333333333333</ele><time>2026-04-05T15:13:55Z</time></trkpt><trkpt lat="45.462648303226395" lon="5.994840507666808"><ele>280.6666666666667</ele><time>2026-04-05T15:13:56Z</time></trkpt><trkpt lat="45.462470005764175" lon="5.994961728444536"><ele>281.0</ele><time>2026-04-05T15:13:57Z</time></trkpt><trkpt lat="45.46229161068337" lon="5.995083682681221"><ele>282.0</ele><time>2026-04-05T15:13:58Z</time></trkpt><trkpt lat="45.462110864496665" lon="5.995205050453608"><ele>283.0</ele><time>2026-04-05T15:13:59Z</time></trkpt><trkpt lat="45.46192770275679" lon="5.995327569554598"><ele>284.0</ele><time>2026-04-05T15:14:00Z</time></trkpt><trkpt lat="45.46174577500923" lon="5.995446363417162"><ele>284.0</ele><time>2026-04-05T15:14:01Z</time></trkpt><trkpt lat="45.4615674193731" lon="5.995567388378615"><ele>284.0</ele><time>2026-04-05T15:14:02Z</time></trkpt><trkpt lat="45.46139373734194" lon="5.995687310157757"><ele>284.0</ele><time>2026-04-05T15:14:03Z</time></trkpt><trkpt lat="45.46122013379984" lon="5.9958049440263"><ele>284.0</ele><time>2026-04-05T15:14:04Z</time></trkpt><trkpt lat="45.46104991519561" lon="5.995915585440574"><ele>284.0</ele><time>2026-04-05T15:14:05Z</time></trkpt><trkpt lat="45.460878429284996" lon="5.996021500403188"><ele>284.0</ele><time>2026-04-05T15:14:06Z</time></trkpt><trkpt lat="45.46070661413395" lon="5.9961291166357995"><ele>284.0</ele><time>2026-04-05T15:14:07Z</time></trkpt><trkpt lat="45.46053766303389" lon="5.996239039075892"><ele>284.0</ele><time>2026-04-05T15:14:08Z</time></trkpt><trkpt lat="45.460367069093145" lon="5.996351962860554"><ele>284.0</ele><time>2026-04-05T15:14:09Z</time></trkpt><trkpt lat="45.46019560388257" lon="5.996465213106908"><ele>284.0</ele><time>2026-04-05T15:14:10Z</time></trkpt><trkpt lat="45.46001832701843" lon="5.9965823033929215"><ele>284.0</ele><time>2026-04-05T15:14:11Z</time></trkpt><trkpt lat="45.45983941766401" lon="5.996701171026055"><ele>284.0</ele><time>2026-04-05T15:14:12Z</time></trkpt><trkpt lat="45.459664749412205" lon="5.996816092793646"><ele>285.0</ele><time>2026-04-05T15:14:13Z</time></trkpt><trkpt lat="45.45949547364945" lon="5.996935144689303"><ele>286.0</ele><time>2026-04-05T15:14:14Z</time></trkpt><trkpt lat="45.45932753836139" lon="5.997053084035007"><ele>287.0</ele><time>2026-04-05T15:14:15Z</time></trkpt><trkpt lat="45.45916145641601" lon="5.997168822508988"><ele>287.0</ele><time>2026-04-05T15:14:16Z</time></trkpt><trkpt lat="45.458993501616305" lon="5.997297570994898"><ele>287.0</ele><time>2026-04-05T15:14:17Z</time></trkpt><trkpt lat="45.458831966522986" lon="5.997437337275333"><ele>287.0</ele><time>2026-04-05T15:14:18Z</time></trkpt><trkpt lat="45.4586696975973" lon="5.997580030915864"><ele>286.33333333333337</ele><time>2026-04-05T15:14:19Z</time></trkpt><trkpt lat="45.458510065647" lon="5.997719627646127"><ele>285.6666666666667</ele><time>2026-04-05T15:14:20Z</time></trkpt><trkpt lat="45.45835209526039" lon="5.997860048952549"><ele>285.0</ele><time>2026-04-05T15:14:21Z</time></trkpt><trkpt lat="45.458194149232376" lon="5.998004827966899"><ele>285.0</ele><time>2026-04-05T15:14:22Z</time></trkpt><trkpt lat="45.458034766944266" lon="5.998147665728679"><ele>285.0</ele><time>2026-04-05T15:14:23Z</time></trkpt><trkpt lat="45.45787166010275" lon="5.998292904930713"><ele>285.0</ele><time>2026-04-05T15:14:24.001Z</time></trkpt><trkpt lat="45.457711456213396" lon="5.998446576203015"><ele>284.6666666666667</ele><time>2026-04-05T15:14:25.001Z</time></trkpt><trkpt lat="45.45754361209806" lon="5.998590378808492"><ele>284.33333333333337</ele><time>2026-04-05T15:14:26.001Z</time></trkpt><trkpt lat="45.45738243622475" lon="5.998746126824585"><ele>284.0</ele><time>2026-04-05T15:14:27.001Z</time></trkpt><trkpt lat="45.4572166196695" lon="5.99890250077545"><ele>284.0</ele><time>2026-04-05T15:14:28.001Z</time></trkpt><trkpt lat="45.45703319070464" lon="5.999072034024052"><ele>284.0</ele><time>2026-04-05T15:14:29.001Z</time></trkpt><trkpt lat="45.45686337661191" lon="5.9992120029732625"><ele>284.0</ele><time>2026-04-05T15:14:30.001Z</time></trkpt><trkpt lat="45.456688862438945" lon="5.9993661208590305"><ele>283.0</ele><time>2026-04-05T15:14:31.001Z</time></trkpt><trkpt lat="45.45650852694321" lon="5.999522984568704"><ele>282.0</ele><time>2026-04-05T15:14:32.001Z</time></trkpt><trkpt lat="45.45632939141249" lon="5.999679139672201"><ele>281.0</ele><time>2026-04-05T15:14:33.001Z</time></trkpt><trkpt lat="45.45614637376195" lon="5.99983570382104"><ele>281.0</ele><time>2026-04-05T15:14:34.001Z</time></trkpt><trkpt lat="45.45596507610212" lon="5.9999968315067695"><ele>281.0</ele><time>2026-04-05T15:14:35.001Z</time></trkpt><trkpt lat="45.4557806535754" lon="6.000154848277383"><ele>281.0</ele><time>2026-04-05T15:14:36.001Z</time></trkpt><trkpt lat="45.45559751048684" lon="6.000316091661668"><ele>281.33333333333337</ele><time>2026-04-05T15:14:37.001Z</time></trkpt><trkpt lat="45.455412518999765" lon="6.0004803950031"><ele>281.6666666666667</ele><time>2026-04-05T15:14:38.001Z</time></trkpt><trkpt lat="45.455229876196356" lon="6.000642302037876"><ele>282.0</ele><time>2026-04-05T15:14:39.001Z</time></trkpt><trkpt lat="45.455042596991966" lon="6.00080014337059"><ele>281.5</ele><time>2026-04-05T15:14:40.001Z</time></trkpt><trkpt lat="45.45485782765916" lon="6.000966882341647"><ele>281.0</ele><time>2026-04-05T15:14:41.001Z</time></trkpt><trkpt lat="45.45449418504815" lon="6.001282002404395"><ele>281.0</ele><time>2026-04-05T15:14:43.001Z</time></trkpt><trkpt lat="45.454306626182465" lon="6.0014338281367"><ele>281.0</ele><time>2026-04-05T15:14:44.001Z</time></trkpt><trkpt lat="45.45412649979339" lon="6.0015412186219"><ele>281.0</ele><time>2026-04-05T15:14:45.001Z</time></trkpt><trkpt lat="45.4539225589518" lon="6.0015837985601905"><ele>282.33333333333337</ele><time>2026-04-05T15:14:46.001Z</time></trkpt><trkpt lat="45.453722650665576" lon="6.001602631503799"><ele>283.6666666666667</ele><time>2026-04-05T15:14:47.001Z</time></trkpt><trkpt lat="45.453526598570974" lon="6.00156904435955"><ele>285.0</ele><time>2026-04-05T15:14:48.001Z</time></trkpt><trkpt lat="45.453325740761734" lon="6.001488335301626"><ele>285.0</ele><time>2026-04-05T15:14:49.001Z</time></trkpt><trkpt lat="45.453128188087916" lon="6.001391643298093"><ele>285.0</ele><time>2026-04-05T15:14:50.001Z</time></trkpt><trkpt lat="45.452923067300276" lon="6.001304300752127"><ele>285.0</ele><time>2026-04-05T15:14:51.001Z</time></trkpt><trkpt lat="45.45271666427146" lon="6.0012018726251535"><ele>284.0</ele><time>2026-04-05T15:14:52.001Z</time></trkpt><trkpt lat="45.452513739223484" lon="6.001091532835312"><ele>283.0</ele><time>2026-04-05T15:14:53.001Z</time></trkpt><trkpt lat="45.452307951205874" lon="6.000987334676048"><ele>282.0</ele><time>2026-04-05T15:14:54.001Z</time></trkpt><trkpt lat="45.45210384974611" lon="6.0008838667744735"><ele>286.0</ele><time>2026-04-05T15:14:55.001Z</time></trkpt><trkpt lat="45.45190683596241" lon="6.0007799899004555"><ele>290.0</ele><time>2026-04-05T15:14:56.001Z</time></trkpt><trkpt lat="45.451711744101594" lon="6.0006788352027005"><ele>294.0</ele><time>2026-04-05T15:14:57.001Z</time></trkpt><trkpt lat="45.45152137269771" lon="6.000579865341301"><ele>294.0</ele><time>2026-04-05T15:14:58.001Z</time></trkpt><trkpt lat="45.45133111182639" lon="6.000483434491485"><ele>294.0</ele><time>2026-04-05T15:14:59.001Z</time></trkpt><trkpt lat="45.451141618973814" lon="6.00038812120964"><ele>294.0</ele><time>2026-04-05T15:15:00.001Z</time></trkpt><trkpt lat="45.450955036582435" lon="6.00028545462199"><ele>293.0</ele><time>2026-04-05T15:15:01.001Z</time></trkpt><trkpt lat="45.450760251778156" lon="6.000195648187508"><ele>292.0</ele><time>2026-04-05T15:15:02.001Z</time></trkpt><trkpt lat="45.45056717136504" lon="6.000074672212289"><ele>291.0</ele><time>2026-04-05T15:15:03.001Z</time></trkpt><trkpt lat="45.45036741160331" lon="5.999973746347728"><ele>286.3333333333333</ele><time>2026-04-05T15:15:04.001Z</time></trkpt><trkpt lat="45.450169558055464" lon="5.99987346660092"><ele>281.66666666666663</ele><time>2026-04-05T15:15:05.001Z</time></trkpt><trkpt lat="45.449972824988386" lon="5.999794200378004"><ele>277.0</ele><time>2026-04-05T15:15:06.001Z</time></trkpt><trkpt lat="45.449787936514404" lon="5.999693917349327"><ele>272.66666666666663</ele><time>2026-04-05T15:15:07.001Z</time></trkpt><trkpt lat="45.44960424566028" lon="5.999593305703167"><ele>268.3333333333333</ele><time>2026-04-05T15:15:08.001Z</time></trkpt><trkpt lat="45.44942326188515" lon="5.999498089475481"><ele>264.0</ele><time>2026-04-05T15:15:09.001Z</time></trkpt><trkpt lat="45.449258507513626" lon="5.999399681317583"><ele>264.0</ele><time>2026-04-05T15:15:10.001Z</time></trkpt><trkpt lat="45.44909744741116" lon="5.999303340330528"><ele>264.0</ele><time>2026-04-05T15:15:11.001Z</time></trkpt><trkpt lat="45.44894417186161" lon="5.9991791232205065"><ele>264.0</ele><time>2026-04-05T15:15:12.001Z</time></trkpt><trkpt lat="45.4487971217762" lon="5.9990189316016025"><ele>266.6666666666667</ele><time>2026-04-05T15:15:13.001Z</time></trkpt><trkpt lat="45.44861872819904" lon="5.998953542725834"><ele>269.33333333333337</ele><time>2026-04-05T15:15:14.001Z</time></trkpt><trkpt lat="45.448440747346226" lon="5.998884978124874"><ele>272.0</ele><time>2026-04-05T15:15:15.001Z</time></trkpt><trkpt lat="45.44827302058899" lon="5.9989457442031515"><ele>272.0</ele><time>2026-04-05T15:15:16.001Z</time></trkpt><trkpt lat="45.44810902528995" lon="5.998929981621057"><ele>272.0</ele><time>2026-04-05T15:15:17.002Z</time></trkpt><trkpt lat="45.44794045292483" lon="5.998936655257394"><ele>272.0</ele><time>2026-04-05T15:15:18.002Z</time></trkpt><trkpt lat="45.44777359414207" lon="5.9989654066792175"><ele>271.33333333333337</ele><time>2026-04-05T15:15:19.002Z</time></trkpt><trkpt lat="45.44761342897711" lon="5.999010945134645"><ele>270.6666666666667</ele><time>2026-04-05T15:15:20.002Z</time></trkpt><trkpt lat="45.44745641390518" lon="5.999078001524861"><ele>270.0</ele><time>2026-04-05T15:15:21.002Z</time></trkpt><trkpt lat="45.447300112600146" lon="5.999129982200705"><ele>270.3333333333333</ele><time>2026-04-05T15:15:22.002Z</time></trkpt><trkpt lat="45.44713502020269" lon="5.999174865892538"><ele>270.66666666666663</ele><time>2026-04-05T15:15:23.002Z</time></trkpt><trkpt lat="45.4469751129036" lon="5.999225481890315"><ele>271.0</ele><time>2026-04-05T15:15:24.002Z</time></trkpt><trkpt lat="45.446828890294846" lon="5.999280217578644"><ele>271.0</ele><time>2026-04-05T15:15:25.002Z</time></trkpt><trkpt lat="45.44669027580998" lon="5.999352852689424"><ele>271.0</ele><time>2026-04-05T15:15:26.002Z</time></trkpt><trkpt lat="45.446570007962954" lon="5.999487753981868"><ele>271.0</ele><time>2026-04-05T15:15:27.002Z</time></trkpt><trkpt lat="45.44647396311944" lon="5.999642363722756"><ele>271.0</ele><time>2026-04-05T15:15:28.002Z</time></trkpt><trkpt lat="45.44638999447715" lon="5.999811153100212"><ele>271.0</ele><time>2026-04-05T15:15:29.002Z</time></trkpt><trkpt lat="45.44630878482747" lon="5.999999423276738"><ele>271.0</ele><time>2026-04-05T15:15:30.002Z</time></trkpt><trkpt lat="45.446222081190705" lon="6.000197113681559"><ele>271.0</ele><time>2026-04-05T15:15:31.002Z</time></trkpt><trkpt lat="45.44611641949225" lon="6.000392425624034"><ele>274.66666666666663</ele><time>2026-04-05T15:15:32.002Z</time></trkpt><trkpt lat="45.445971979058484" lon="6.000531272382133"><ele>278.3333333333333</ele><time>2026-04-05T15:15:33.002Z</time></trkpt><trkpt lat="45.44581445473859" lon="6.000637673915963"><ele>282.0</ele><time>2026-04-05T15:15:34.002Z</time></trkpt><trkpt lat="45.4456376893089" lon="6.000709952968723"><ele>283.3333333333333</ele><time>2026-04-05T15:15:35.002Z</time></trkpt><trkpt lat="45.445455770176544" lon="6.000765301318743"><ele>284.66666666666663</ele><time>2026-04-05T15:15:36.002Z</time></trkpt><trkpt lat="45.445267104100004" lon="6.0008190559882"><ele>286.0</ele><time>2026-04-05T15:15:37.002Z</time></trkpt><trkpt lat="45.44507827980105" lon="6.000882747135148"><ele>283.66666666666663</ele><time>2026-04-05T15:15:38.002Z</time></trkpt><trkpt lat="45.444882484529096" lon="6.000958207599489"><ele>281.3333333333333</ele><time>2026-04-05T15:15:39.002Z</time></trkpt><trkpt lat="45.444695771672635" lon="6.001050826270556"><ele>279.0</ele><time>2026-04-05T15:15:40.002Z</time></trkpt><trkpt lat="45.444517896856354" lon="6.001158177255345"><ele>279.0</ele><time>2026-04-05T15:15:41.002Z</time></trkpt><trkpt lat="45.444344780166944" lon="6.001270303386997"><ele>279.0</ele><time>2026-04-05T15:15:42.002Z</time></trkpt><trkpt lat="45.444174866159685" lon="6.0013831058893246"><ele>279.0</ele><time>2026-04-05T15:15:43.002Z</time></trkpt><trkpt lat="45.444014807310765" lon="6.001511318768367"><ele>274.6666666666667</ele><time>2026-04-05T15:15:44.002Z</time></trkpt><trkpt lat="45.44387291618418" lon="6.001670779079807"><ele>270.33333333333337</ele><time>2026-04-05T15:15:45.002Z</time></trkpt><trkpt lat="45.443736909239625" lon="6.00184330420783"><ele>266.0</ele><time>2026-04-05T15:15:46.002Z</time></trkpt><trkpt lat="45.443609714143086" lon="6.002035944980738"><ele>265.6666666666667</ele><time>2026-04-05T15:15:47.002Z</time></trkpt><trkpt lat="45.44349413156091" lon="6.002240061166487"><ele>265.3333333333333</ele><time>2026-04-05T15:15:48.002Z</time></trkpt><trkpt lat="45.443392763992485" lon="6.002459876920437"><ele>265.0</ele><time>2026-04-05T15:15:49.002Z</time></trkpt><trkpt lat="45.443295695199325" lon="6.002667390121173"><ele>263.3333333333333</ele><time>2026-04-05T15:15:50.002Z</time></trkpt><trkpt lat="45.443165744227436" lon="6.002830326554254"><ele>261.6666666666667</ele><time>2026-04-05T15:15:51.002Z</time></trkpt><trkpt lat="45.44302899527838" lon="6.002981525179289"><ele>260.0</ele><time>2026-04-05T15:15:52.002Z</time></trkpt><trkpt lat="45.44287032564668" lon="6.003111291395616"><ele>260.0</ele><time>2026-04-05T15:15:53.002Z</time></trkpt><trkpt lat="45.44270135336683" lon="6.0031949939385925"><ele>260.0</ele><time>2026-04-05T15:15:54.002Z</time></trkpt><trkpt lat="45.442513932710305" lon="6.003255649636258"><ele>260.0</ele><time>2026-04-05T15:15:55.002Z</time></trkpt><trkpt lat="45.44230592179745" lon="6.003304869759579"><ele>260.5</ele><time>2026-04-05T15:15:56.002Z</time></trkpt><trkpt lat="45.44208231176461" lon="6.003331342688315"><ele>261.0</ele><time>2026-04-05T15:15:57.002Z</time></trkpt><trkpt lat="45.44185297106358" lon="6.003354109823171"><ele>261.0</ele><time>2026-04-05T15:15:58.002Z</time></trkpt><trkpt lat="45.44162839488857" lon="6.003390803203289"><ele>261.0</ele><time>2026-04-05T15:15:59.002Z</time></trkpt><trkpt lat="45.44140680880044" lon="6.003410084704919"><ele>261.0</ele><time>2026-04-05T15:16:00Z</time></trkpt><trkpt lat="45.44118060589637" lon="6.003422519341584"><ele>262.5</ele><time>2026-04-05T15:16:01Z</time></trkpt><trkpt lat="45.44094970019872" lon="6.003427400512738"><ele>264.0</ele><time>2026-04-05T15:16:02Z</time></trkpt><trkpt lat="45.4407228733859" lon="6.003427072791275"><ele>264.0</ele><time>2026-04-05T15:16:03Z</time></trkpt><trkpt lat="45.44048193620616" lon="6.003424845310377"><ele>264.0</ele><time>2026-04-05T15:16:04Z</time></trkpt><trkpt lat="45.44024736589965" lon="6.003440811356735"><ele>264.5</ele><time>2026-04-05T15:16:05Z</time></trkpt><trkpt lat="45.440015753965824" lon="6.0034414784608074"><ele>265.0</ele><time>2026-04-05T15:16:06Z</time></trkpt><trkpt lat="45.43978317048402" lon="6.003437275911415"><ele>266.0</ele><time>2026-04-05T15:16:07Z</time></trkpt><trkpt lat="45.43955084953085" lon="6.003429762004887"><ele>267.0</ele><time>2026-04-05T15:16:08Z</time></trkpt><trkpt lat="45.43931836512628" lon="6.0034188603019665"><ele>267.0</ele><time>2026-04-05T15:16:09Z</time></trkpt><trkpt lat="45.439088552038136" lon="6.003414859134633"><ele>267.0</ele><time>2026-04-05T15:16:10Z</time></trkpt><trkpt lat="45.43885889284479" lon="6.003399795865528"><ele>265.5</ele><time>2026-04-05T15:16:11Z</time></trkpt><trkpt lat="45.438622885648336" lon="6.003383839442434"><ele>264.0</ele><time>2026-04-05T15:16:12Z</time></trkpt><trkpt lat="45.43839164969056" lon="6.0033615025050855"><ele>263.5</ele><time>2026-04-05T15:16:13Z</time></trkpt><trkpt lat="45.43816015467891" lon="6.0033283605359316"><ele>263.0</ele><time>2026-04-05T15:16:14Z</time></trkpt><trkpt lat="45.437935822860865" lon="6.003284650368428"><ele>263.0</ele><time>2026-04-05T15:16:15Z</time></trkpt><trkpt lat="45.4377278762064" lon="6.003239868624299"><ele>263.0</ele><time>2026-04-05T15:16:16Z</time></trkpt><trkpt lat="45.437529000150214" lon="6.003188752740482"><ele>263.0</ele><time>2026-04-05T15:16:17Z</time></trkpt><trkpt lat="45.43733828357378" lon="6.003137245519109"><ele>263.0</ele><time>2026-04-05T15:16:18Z</time></trkpt><trkpt lat="45.437157033839966" lon="6.003079927736974"><ele>263.0</ele><time>2026-04-05T15:16:19Z</time></trkpt><trkpt lat="45.436982780367806" lon="6.00302972840863"><ele>263.0</ele><time>2026-04-05T15:16:20Z</time></trkpt><trkpt lat="45.43681684524726" lon="6.002981086394719"><ele>261.0</ele><time>2026-04-05T15:16:21Z</time></trkpt><trkpt lat="45.436656458156264" lon="6.002937587345974"><ele>259.0</ele><time>2026-04-05T15:16:22Z</time></trkpt><trkpt lat="45.43650412497167" lon="6.002889132748462"><ele>257.0</ele><time>2026-04-05T15:16:23Z</time></trkpt><trkpt lat="45.436365523464126" lon="6.002829983612577"><ele>256.6</ele><time>2026-04-05T15:16:24Z</time></trkpt><trkpt lat="45.43624023174413" lon="6.002752439758506"><ele>256.2</ele><time>2026-04-05T15:16:25Z</time></trkpt><trkpt lat="45.436138849707326" lon="6.002681921110277"><ele>255.8</ele><time>2026-04-05T15:16:26Z</time></trkpt><trkpt lat="45.43606289785113" lon="6.002622091761632"><ele>255.4</ele><time>2026-04-05T15:16:27Z</time></trkpt><trkpt lat="45.43598842691487" lon="6.002565677195108"><ele>255.0</ele><time>2026-04-05T15:16:28Z</time></trkpt><trkpt lat="45.435924458575876" lon="6.002510983082062"><ele>254.83333333333334</ele><time>2026-04-05T15:16:29.001Z</time></trkpt><trkpt lat="45.43583389140561" lon="6.002384826021681"><ele>254.66666666666669</ele><time>2026-04-05T15:16:31.001Z</time></trkpt><trkpt lat="45.43580731907679" lon="6.002300455444414"><ele>254.5</ele><time>2026-04-05T15:16:32.001Z</time></trkpt><trkpt lat="45.43576677456004" lon="6.002227614506709"><ele>254.33333333333334</ele><time>2026-04-05T15:16:33.001Z</time></trkpt><trkpt lat="45.43570363656828" lon="6.002205759655898"><ele>254.16666666666669</ele><time>2026-04-05T15:16:34.001Z</time></trkpt><trkpt lat="45.43562981119483" lon="6.002209680477756"><ele>254.0</ele><time>2026-04-05T15:16:35.001Z</time></trkpt><trkpt lat="45.43555032195337" lon="6.002194519444406"><ele>253.79999999999998</ele><time>2026-04-05T15:16:36.001Z</time></trkpt><trkpt lat="45.435458756183486" lon="6.002125685235615"><ele>253.59999999999997</ele><time>2026-04-05T15:16:37.001Z</time></trkpt><trkpt lat="45.43536945023114" lon="6.00202079279344"><ele>253.4</ele><time>2026-04-05T15:16:38.001Z</time></trkpt><trkpt lat="45.43528011540382" lon="6.001902428743254"><ele>253.2</ele><time>2026-04-05T15:16:39.001Z</time></trkpt><trkpt lat="45.43521431720386" lon="6.001802487638188"><ele>253.0</ele><time>2026-04-05T15:16:40.001Z</time></trkpt><trkpt lat="45.43518426329417" lon="6.001688657671357"><ele>253.0</ele><time>2026-04-05T15:16:41.001Z</time></trkpt><trkpt lat="45.435180037268566" lon="6.0015555289231095"><ele>253.0</ele><time>2026-04-05T15:16:42.001Z</time></trkpt><trkpt lat="45.43518181589094" lon="6.0014236629817"><ele>253.0</ele><time>2026-04-05T15:16:43.001Z</time></trkpt><trkpt lat="45.43511404397803" lon="6.001342905354343"><ele>253.0</ele><time>2026-04-05T15:16:44.001Z</time></trkpt><trkpt lat="45.43499555873151" lon="6.001338525970577"><ele>253.0</ele><time>2026-04-05T15:16:45.001Z</time></trkpt><trkpt lat="45.43488225397448" lon="6.001393597636048"><ele>253.0</ele><time>2026-04-05T15:16:46.001Z</time></trkpt><trkpt lat="45.4347734700712" lon="6.00145969627055"><ele>253.0</ele><time>2026-04-05T15:16:47.001Z</time></trkpt><trkpt lat="45.43467461642609" lon="6.001394661430014"><ele>253.0</ele><time>2026-04-05T15:16:48.001Z</time></trkpt><trkpt lat="45.43456755062599" lon="6.001329799723049"><ele>253.0</ele><time>2026-04-05T15:16:49.001Z</time></trkpt><trkpt lat="45.43447665930502" lon="6.001237067748868"><ele>253.0</ele><time>2026-04-05T15:16:50.001Z</time></trkpt><trkpt lat="45.43437778131702" lon="6.001142460195781"><ele>253.0</ele><time>2026-04-05T15:16:51.001Z</time></trkpt><trkpt lat="45.43427235109567" lon="6.0010490466522795"><ele>253.0</ele><time>2026-04-05T15:16:52.001Z</time></trkpt><trkpt lat="45.434167248325636" lon="6.000944461084385"><ele>253.0</ele><time>2026-04-05T15:16:53.001Z</time></trkpt><trkpt lat="45.43405356243942" lon="6.000839760656774"><ele>253.0</ele><time>2026-04-05T15:16:54.001Z</time></trkpt><trkpt lat="45.43393187729388" lon="6.000724878244685"><ele>253.0</ele><time>2026-04-05T15:16:55.001Z</time></trkpt><trkpt lat="45.433802506457624" lon="6.000608786269607"><ele>253.0</ele><time>2026-04-05T15:16:56.001Z</time></trkpt><trkpt lat="45.43366306442738" lon="6.000491071824168"><ele>253.0</ele><time>2026-04-05T15:16:57.001Z</time></trkpt><trkpt lat="45.433524368572925" lon="6.00036417951962"><ele>253.0</ele><time>2026-04-05T15:16:58.001Z</time></trkpt><trkpt lat="45.433384470124956" lon="6.000229253532006"><ele>253.0</ele><time>2026-04-05T15:16:59.001Z</time></trkpt><trkpt lat="45.43324161017921" lon="6.000095928254156"><ele>253.0</ele><time>2026-04-05T15:17:00.001Z</time></trkpt><trkpt lat="45.433090445707144" lon="5.9999639642402"><ele>253.0</ele><time>2026-04-05T15:17:01.001Z</time></trkpt><trkpt lat="45.432940850457626" lon="5.999830216289728"><ele>253.0</ele><time>2026-04-05T15:17:02.001Z</time></trkpt><trkpt lat="45.43279596555995" lon="5.999689849939598"><ele>253.0</ele><time>2026-04-05T15:17:03.001Z</time></trkpt><trkpt lat="45.43264997167708" lon="5.999552115665845"><ele>253.0</ele><time>2026-04-05T15:17:04.001Z</time></trkpt><trkpt lat="45.43250101887756" lon="5.999423584615194"><ele>253.0</ele><time>2026-04-05T15:17:05.001Z</time></trkpt><trkpt lat="45.432351655797156" lon="5.999286419322443"><ele>253.0</ele><time>2026-04-05T15:17:06.001Z</time></trkpt><trkpt lat="45.432202336712415" lon="5.9991471437336825"><ele>253.0</ele><time>2026-04-05T15:17:07.001Z</time></trkpt><trkpt lat="45.43204930905503" lon="5.999012640146433"><ele>253.0</ele><time>2026-04-05T15:17:08.001Z</time></trkpt><trkpt lat="45.43189643459344" lon="5.998871962355433"><ele>253.0</ele><time>2026-04-05T15:17:09.001Z</time></trkpt><trkpt lat="45.431743577035206" lon="5.998732645073355"><ele>253.0</ele><time>2026-04-05T15:17:10.001Z</time></trkpt><trkpt lat="45.431589615136076" lon="5.998592860738068"><ele>253.0</ele><time>2026-04-05T15:17:11.001Z</time></trkpt><trkpt lat="45.43143518970125" lon="5.998447006903994"><ele>252.66666666666666</ele><time>2026-04-05T15:17:12.001Z</time></trkpt><trkpt lat="45.43127416459391" lon="5.998301811491999"><ele>252.33333333333331</ele><time>2026-04-05T15:17:13.001Z</time></trkpt><trkpt lat="45.43111591761429" lon="5.998151232517763"><ele>252.0</ele><time>2026-04-05T15:17:14.001Z</time></trkpt><trkpt lat="45.43095961039915" lon="5.9979956214741605"><ele>252.0</ele><time>2026-04-05T15:17:15.001Z</time></trkpt><trkpt lat="45.43079941148085" lon="5.997843752984798"><ele>252.0</ele><time>2026-04-05T15:17:16.001Z</time></trkpt><trkpt lat="45.43063972788648" lon="5.997694779767936"><ele>252.0</ele><time>2026-04-05T15:17:17.001Z</time></trkpt><trkpt lat="45.430478262746064" lon="5.9975449659294515"><ele>252.0</ele><time>2026-04-05T15:17:18.001Z</time></trkpt><trkpt lat="45.43031650541339" lon="5.997397191144365"><ele>252.0</ele><time>2026-04-05T15:17:19.001Z</time></trkpt><trkpt lat="45.43016059888346" lon="5.997253449670795"><ele>252.0</ele><time>2026-04-05T15:17:20.001Z</time></trkpt><trkpt lat="45.43000888537899" lon="5.997113020666807"><ele>252.0</ele><time>2026-04-05T15:17:21.001Z</time></trkpt><trkpt lat="45.429863316445356" lon="5.996973394581289"><ele>252.0</ele><time>2026-04-05T15:17:22.002Z</time></trkpt><trkpt lat="45.429714687487575" lon="5.996830039737101"><ele>252.0</ele><time>2026-04-05T15:17:23.002Z</time></trkpt><trkpt lat="45.4295683107142" lon="5.9966905327152515"><ele>252.0</ele><time>2026-04-05T15:17:24.002Z</time></trkpt><trkpt lat="45.42941817224681" lon="5.996554540536414"><ele>252.0</ele><time>2026-04-05T15:17:25.002Z</time></trkpt><trkpt lat="45.4292722999751" lon="5.996417315078816"><ele>252.0</ele><time>2026-04-05T15:17:26.002Z</time></trkpt><trkpt lat="45.42911718025872" lon="5.996285433896942"><ele>252.0</ele><time>2026-04-05T15:17:27.002Z</time></trkpt><trkpt lat="45.42896307931316" lon="5.996144028277514"><ele>252.0</ele><time>2026-04-05T15:17:28.002Z</time></trkpt><trkpt lat="45.428820251821044" lon="5.996018965658145"><ele>252.0</ele><time>2026-04-05T15:17:29.002Z</time></trkpt><trkpt lat="45.428668334302714" lon="5.995896856558556"><ele>252.33333333333331</ele><time>2026-04-05T15:17:30.002Z</time></trkpt><trkpt lat="45.42852087546928" lon="5.995769211838584"><ele>252.66666666666666</ele><time>2026-04-05T15:17:31.002Z</time></trkpt><trkpt lat="45.42837832893422" lon="5.995626808409789"><ele>253.0</ele><time>2026-04-05T15:17:32.002Z</time></trkpt><trkpt lat="45.42826367041263" lon="5.995463237307087"><ele>253.0</ele><time>2026-04-05T15:17:33.002Z</time></trkpt><trkpt lat="45.42808539813164" lon="5.995346396814619"><ele>253.0</ele><time>2026-04-05T15:17:34.002Z</time></trkpt><trkpt lat="45.42792561332282" lon="5.995213449020193"><ele>253.0</ele><time>2026-04-05T15:17:35.002Z</time></trkpt><trkpt lat="45.42775533002332" lon="5.994974499824844"><ele>253.33333333333331</ele><time>2026-04-05T15:17:36.002Z</time></trkpt><trkpt lat="45.4275986877292" lon="5.994790838005433"><ele>253.66666666666669</ele><time>2026-04-05T15:17:37.002Z</time></trkpt><trkpt lat="45.42740900649786" lon="5.994624707201314"><ele>254.0</ele><time>2026-04-05T15:17:38.002Z</time></trkpt><trkpt lat="45.42732561376426" lon="5.994672409133823"><ele>254.0</ele><time>2026-04-05T15:17:39.002Z</time></trkpt><trkpt lat="45.427174480160076" lon="5.994537201852699"><ele>254.0</ele><time>2026-04-05T15:17:40.002Z</time></trkpt><trkpt lat="45.427021030128984" lon="5.994403289738419"><ele>254.0</ele><time>2026-04-05T15:17:41.002Z</time></trkpt><trkpt lat="45.426878681683945" lon="5.994266852061228"><ele>253.0</ele><time>2026-04-05T15:17:42.002Z</time></trkpt><trkpt lat="45.426729244454116" lon="5.994131083535361"><ele>252.0</ele><time>2026-04-05T15:17:43.002Z</time></trkpt><trkpt lat="45.42657602138576" lon="5.993993693237353"><ele>251.0</ele><time>2026-04-05T15:17:44.002Z</time></trkpt><trkpt lat="45.42642397791131" lon="5.9938517775752365"><ele>251.33333333333334</ele><time>2026-04-05T15:17:45.002Z</time></trkpt><trkpt lat="45.42627283803842" lon="5.993707067404888"><ele>251.66666666666669</ele><time>2026-04-05T15:17:46.002Z</time></trkpt><trkpt lat="45.42611705186367" lon="5.993566635924596"><ele>252.0</ele><time>2026-04-05T15:17:47.002Z</time></trkpt><trkpt lat="45.42596161664807" lon="5.993424789582191"><ele>251.66666666666669</ele><time>2026-04-05T15:17:48.002Z</time></trkpt><trkpt lat="45.425806933189904" lon="5.993285358179017"><ele>251.33333333333334</ele><time>2026-04-05T15:17:49.002Z</time></trkpt><trkpt lat="45.425648633592914" lon="5.993135897171463"><ele>251.0</ele><time>2026-04-05T15:17:50.002Z</time></trkpt><trkpt lat="45.42547815847273" lon="5.992976728265715"><ele>251.0</ele><time>2026-04-05T15:17:51.002Z</time></trkpt><trkpt lat="45.42529066618968" lon="5.992802914664523"><ele>251.0</ele><time>2026-04-05T15:17:52.002Z</time></trkpt><trkpt lat="45.425078243999224" lon="5.992612263912809"><ele>251.0</ele><time>2026-04-05T15:17:53.002Z</time></trkpt><trkpt lat="45.424872601043404" lon="5.992417810452576"><ele>251.0</ele><time>2026-04-05T15:17:54.002Z</time></trkpt><trkpt lat="45.42467825485101" lon="5.992231039492079"><ele>251.5</ele><time>2026-04-05T15:17:55.002Z</time></trkpt><trkpt lat="45.42448508224383" lon="5.992046802980047"><ele>252.0</ele><time>2026-04-05T15:17:56.002Z</time></trkpt><trkpt lat="45.42429372096114" lon="5.991861573569442"><ele>252.0</ele><time>2026-04-05T15:17:57.002Z</time></trkpt><trkpt lat="45.424093587376184" lon="5.991679203888131"><ele>252.0</ele><time>2026-04-05T15:17:58.002Z</time></trkpt><trkpt lat="45.423889221748915" lon="5.99150279375885"><ele>252.5</ele><time>2026-04-05T15:17:59.002Z</time></trkpt><trkpt lat="45.42367896534355" lon="5.991313725689117"><ele>253.0</ele><time>2026-04-05T15:18:00.002Z</time></trkpt><trkpt lat="45.42346356289125" lon="5.991130179772478"><ele>253.0</ele><time>2026-04-05T15:18:01.002Z</time></trkpt><trkpt lat="45.42325301693484" lon="5.990932706880105"><ele>253.0</ele><time>2026-04-05T15:18:02.002Z</time></trkpt><trkpt lat="45.42304137272768" lon="5.990734441456989"><ele>251.5</ele><time>2026-04-05T15:18:03.002Z</time></trkpt><trkpt lat="45.42282716306167" lon="5.990538996181315"><ele>250.0</ele><time>2026-04-05T15:18:04.002Z</time></trkpt><trkpt lat="45.42261130346376" lon="5.99034625463577"><ele>250.0</ele><time>2026-04-05T15:18:05.002Z</time></trkpt><trkpt lat="45.42239784416915" lon="5.9901437664756"><ele>250.0</ele><time>2026-04-05T15:18:06Z</time></trkpt><trkpt lat="45.42218396100624" lon="5.989944171590726"><ele>249.5</ele><time>2026-04-05T15:18:07Z</time></trkpt><trkpt lat="45.42196639607622" lon="5.989748540116604"><ele>249.0</ele><time>2026-04-05T15:18:08Z</time></trkpt><trkpt lat="45.42175070844957" lon="5.989554612209304"><ele>249.0</ele><time>2026-04-05T15:18:09Z</time></trkpt><trkpt lat="45.421537633992564" lon="5.9893569794027774"><ele>249.0</ele><time>2026-04-05T15:18:10Z</time></trkpt><trkpt lat="45.42132239850515" lon="5.989161885481852"><ele>250.0</ele><time>2026-04-05T15:18:11Z</time></trkpt><trkpt lat="45.421109058564795" lon="5.988965853316814"><ele>251.0</ele><time>2026-04-05T15:18:12Z</time></trkpt><trkpt lat="45.42089479214731" lon="5.988776622637634"><ele>251.0</ele><time>2026-04-05T15:18:13Z</time></trkpt><trkpt lat="45.42068149736308" lon="5.988580254148676"><ele>251.0</ele><time>2026-04-05T15:18:14Z</time></trkpt><trkpt lat="45.42047178918173" lon="5.9883770899586475"><ele>250.5</ele><time>2026-04-05T15:18:15Z</time></trkpt><trkpt lat="45.420262129682285" lon="5.988179485680045"><ele>250.0</ele><time>2026-04-05T15:18:16Z</time></trkpt><trkpt lat="45.420053797629535" lon="5.987989114087082"><ele>250.0</ele><time>2026-04-05T15:18:17Z</time></trkpt><trkpt lat="45.419851452148734" lon="5.987805414637918"><ele>250.0</ele><time>2026-04-05T15:18:18Z</time></trkpt><trkpt lat="45.41965375535062" lon="5.987635259221403"><ele>250.5</ele><time>2026-04-05T15:18:19Z</time></trkpt><trkpt lat="45.41946814473108" lon="5.987453946333011"><ele>251.0</ele><time>2026-04-05T15:18:20Z</time></trkpt><trkpt lat="45.41927501882545" lon="5.987273289475104"><ele>251.0</ele><time>2026-04-05T15:18:21Z</time></trkpt><trkpt lat="45.41907556215024" lon="5.987102290292375"><ele>251.0</ele><time>2026-04-05T15:18:22Z</time></trkpt><trkpt lat="45.418898828627796" lon="5.986929667218544"><ele>251.0</ele><time>2026-04-05T15:18:23Z</time></trkpt><trkpt lat="45.41872750368763" lon="5.9867378650956"><ele>251.66666666666669</ele><time>2026-04-05T15:18:24Z</time></trkpt><trkpt lat="45.41855100165797" lon="5.986574160985491"><ele>252.33333333333331</ele><time>2026-04-05T15:18:25Z</time></trkpt><trkpt lat="45.41836919155386" lon="5.986493935482294"><ele>253.0</ele><time>2026-04-05T15:18:26Z</time></trkpt><trkpt lat="45.41819348460099" lon="5.986376353535086"><ele>253.0</ele><time>2026-04-05T15:18:27Z</time></trkpt><trkpt lat="45.41801489638195" lon="5.986264067117975"><ele>253.0</ele><time>2026-04-05T15:18:28Z</time></trkpt><trkpt lat="45.41781754928681" lon="5.98615048026432"><ele>253.0</ele><time>2026-04-05T15:18:29Z</time></trkpt><trkpt lat="45.417586626265" lon="5.986030375443238"><ele>252.0</ele><time>2026-04-05T15:18:30Z</time></trkpt><trkpt lat="45.41734798868065" lon="5.985909363808447"><ele>251.0</ele><time>2026-04-05T15:18:31Z</time></trkpt><trkpt lat="45.41710717637607" lon="5.985792371031615"><ele>250.5</ele><time>2026-04-05T15:18:32Z</time></trkpt><trkpt lat="45.41686447651964" lon="5.985677265175461"><ele>250.0</ele><time>2026-04-05T15:18:33Z</time></trkpt><trkpt lat="45.416621082376274" lon="5.9855613486055"><ele>250.0</ele><time>2026-04-05T15:18:34.001Z</time></trkpt><trkpt lat="45.41637830737977" lon="5.98545473332678"><ele>250.0</ele><time>2026-04-05T15:18:35.001Z</time></trkpt><trkpt lat="45.41613708701089" lon="5.98535401903905"><ele>250.0</ele><time>2026-04-05T15:18:36.001Z</time></trkpt><trkpt lat="45.41589894053702" lon="5.985257660824589"><ele>250.0</ele><time>2026-04-05T15:18:37.001Z</time></trkpt><trkpt lat="45.415663604501894" lon="5.985160730652419"><ele>249.5</ele><time>2026-04-05T15:18:38.001Z</time></trkpt><trkpt lat="45.415433439132386" lon="5.985060219802214"><ele>249.0</ele><time>2026-04-05T15:18:39.001Z</time></trkpt><trkpt lat="45.41520875577496" lon="5.984956574057615"><ele>249.0</ele><time>2026-04-05T15:18:40.001Z</time></trkpt><trkpt lat="45.41498521656524" lon="5.984852431974873"><ele>249.0</ele><time>2026-04-05T15:18:41.001Z</time></trkpt><trkpt lat="45.414761553847946" lon="5.984757448043469"><ele>249.5</ele><time>2026-04-05T15:18:42.001Z</time></trkpt><trkpt lat="45.41453487042074" lon="5.98465418938774"><ele>250.0</ele><time>2026-04-05T15:18:43.001Z</time></trkpt><trkpt lat="45.41430401401159" lon="5.984563802652035"><ele>250.0</ele><time>2026-04-05T15:18:44.001Z</time></trkpt><trkpt lat="45.41407177789974" lon="5.984456631931359"><ele>250.0</ele><time>2026-04-05T15:18:45.001Z</time></trkpt><trkpt lat="45.41384203544023" lon="5.984353605145121"><ele>250.0</ele><time>2026-04-05T15:18:46.001Z</time></trkpt><trkpt lat="45.41361022775013" lon="5.984255457062782"><ele>250.0</ele><time>2026-04-05T15:18:47.001Z</time></trkpt><trkpt lat="45.41337814893253" lon="5.984159797729069"><ele>250.0</ele><time>2026-04-05T15:18:48.001Z</time></trkpt><trkpt lat="45.41314903294085" lon="5.984063655891753"><ele>250.0</ele><time>2026-04-05T15:18:49.001Z</time></trkpt><trkpt lat="45.41292084418846" lon="5.9839656987461005"><ele>250.0</ele><time>2026-04-05T15:18:50.001Z</time></trkpt><trkpt lat="45.41269779647775" lon="5.983864958726537"><ele>250.0</ele><time>2026-04-05T15:18:51.001Z</time></trkpt><trkpt lat="45.41248042397434" lon="5.983764230223774"><ele>250.0</ele><time>2026-04-05T15:18:52.001Z</time></trkpt><trkpt lat="45.41226278139265" lon="5.983687955804955"><ele>250.0</ele><time>2026-04-05T15:18:53.001Z</time></trkpt><trkpt lat="45.41205630726521" lon="5.983606371588142"><ele>250.0</ele><time>2026-04-05T15:18:54.001Z</time></trkpt><trkpt lat="45.41185522378206" lon="5.983518954590515"><ele>249.33333333333331</ele><time>2026-04-05T15:18:55.001Z</time></trkpt><trkpt lat="45.411656206761585" lon="5.983435597166666"><ele>248.66666666666669</ele><time>2026-04-05T15:18:56.001Z</time></trkpt><trkpt lat="45.4114543131966" lon="5.983341353828286"><ele>248.0</ele><time>2026-04-05T15:18:57.001Z</time></trkpt><trkpt lat="45.411249069192635" lon="5.983249939978575"><ele>248.0</ele><time>2026-04-05T15:18:58.001Z</time></trkpt><trkpt lat="45.411038583000426" lon="5.98316127156267"><ele>248.0</ele><time>2026-04-05T15:18:59.001Z</time></trkpt><trkpt lat="45.4108267822079" lon="5.983067662997735"><ele>248.0</ele><time>2026-04-05T15:19:00.001Z</time></trkpt><trkpt lat="45.41061616766723" lon="5.982975981445468"><ele>248.66666666666669</ele><time>2026-04-05T15:19:01.001Z</time></trkpt><trkpt lat="45.41041532406521" lon="5.982892532838311"><ele>249.33333333333331</ele><time>2026-04-05T15:19:02.001Z</time></trkpt><trkpt lat="45.41021409034205" lon="5.9828066459221425"><ele>250.0</ele><time>2026-04-05T15:19:03.001Z</time></trkpt><trkpt lat="45.41000433527383" lon="5.982719126239305"><ele>250.0</ele><time>2026-04-05T15:19:04.001Z</time></trkpt><trkpt lat="45.409785675771275" lon="5.982628062243381"><ele>250.0</ele><time>2026-04-05T15:19:05.001Z</time></trkpt><trkpt lat="45.409578315865225" lon="5.9825337241229315"><ele>250.0</ele><time>2026-04-05T15:19:06.001Z</time></trkpt><trkpt lat="45.40939602576091" lon="5.982438192042256"><ele>250.33333333333331</ele><time>2026-04-05T15:19:07.001Z</time></trkpt><trkpt lat="45.409226900959034" lon="5.982337374278904"><ele>250.66666666666669</ele><time>2026-04-05T15:19:08.001Z</time></trkpt><trkpt lat="45.40906879457693" lon="5.982268281251062"><ele>251.0</ele><time>2026-04-05T15:19:09.001Z</time></trkpt><trkpt lat="45.4089213462939" lon="5.9822141030763465"><ele>251.75</ele><time>2026-04-05T15:19:10.001Z</time></trkpt><trkpt lat="45.40878314127006" lon="5.982149904060266"><ele>252.5</ele><time>2026-04-05T15:19:11.001Z</time></trkpt><trkpt lat="45.40864297351549" lon="5.982075811532864"><ele>253.25</ele><time>2026-04-05T15:19:12.001Z</time></trkpt><trkpt lat="45.40850098120391" lon="5.982009549753072"><ele>254.0</ele><time>2026-04-05T15:19:13.001Z</time></trkpt><trkpt lat="45.408354454667055" lon="5.981954131463897"><ele>254.0</ele><time>2026-04-05T15:19:14.001Z</time></trkpt><trkpt lat="45.40820218427924" lon="5.981906276779742"><ele>254.0</ele><time>2026-04-05T15:19:15.001Z</time></trkpt><trkpt lat="45.40805312129678" lon="5.9818543656487115"><ele>254.0</ele><time>2026-04-05T15:19:16.001Z</time></trkpt><trkpt lat="45.40790874980841" lon="5.98179346187927"><ele>253.75</ele><time>2026-04-05T15:19:17.001Z</time></trkpt><trkpt lat="45.40776849304678" lon="5.9817284801649455"><ele>253.5</ele><time>2026-04-05T15:19:18.001Z</time></trkpt><trkpt lat="45.40762623851546" lon="5.9816616420352196"><ele>253.25</ele><time>2026-04-05T15:19:19.001Z</time></trkpt><trkpt lat="45.40749103620346" lon="5.981603390739448"><ele>253.0</ele><time>2026-04-05T15:19:20.001Z</time></trkpt><trkpt lat="45.40735121427517" lon="5.981547016132822"><ele>254.0</ele><time>2026-04-05T15:19:21.001Z</time></trkpt><trkpt lat="45.4071941305572" lon="5.981482089024797"><ele>255.0</ele><time>2026-04-05T15:19:22.001Z</time></trkpt><trkpt lat="45.407016276032984" lon="5.981405504569785"><ele>256.0</ele><time>2026-04-05T15:19:23.001Z</time></trkpt><trkpt lat="45.406811947939644" lon="5.981318682818091"><ele>256.5</ele><time>2026-04-05T15:19:24.001Z</time></trkpt><trkpt lat="45.40658871146295" lon="5.981222814026796"><ele>257.0</ele><time>2026-04-05T15:19:25.001Z</time></trkpt><trkpt lat="45.40636157669536" lon="5.981109703406737"><ele>255.5</ele><time>2026-04-05T15:19:26.001Z</time></trkpt><trkpt lat="45.406130535966625" lon="5.980999011415776"><ele>254.0</ele><time>2026-04-05T15:19:27.001Z</time></trkpt><trkpt lat="45.40589845115422" lon="5.980892947794112"><ele>254.5</ele><time>2026-04-05T15:19:28.001Z</time></trkpt><trkpt lat="45.40566929253148" lon="5.980791711670226"><ele>255.0</ele><time>2026-04-05T15:19:29.001Z</time></trkpt><trkpt lat="45.4054537055185" lon="5.980683344583241"><ele>255.66666666666669</ele><time>2026-04-05T15:19:30.001Z</time></trkpt><trkpt lat="45.40524573206416" lon="5.98059015724093"><ele>256.33333333333337</ele><time>2026-04-05T15:19:31.001Z</time></trkpt><trkpt lat="45.405036980941816" lon="5.980514428343573"><ele>257.0</ele><time>2026-04-05T15:19:32.001Z</time></trkpt><trkpt lat="45.4048314419196" lon="5.980427520633637"><ele>257.33333333333337</ele><time>2026-04-05T15:19:33.002Z</time></trkpt><trkpt lat="45.404630817972404" lon="5.9803323874730205"><ele>257.6666666666667</ele><time>2026-04-05T15:19:34.002Z</time></trkpt><trkpt lat="45.40443227687879" lon="5.9802389787093695"><ele>258.0</ele><time>2026-04-05T15:19:35.002Z</time></trkpt><trkpt lat="45.40423389329608" lon="5.980154055499071"><ele>258.0</ele><time>2026-04-05T15:19:36.002Z</time></trkpt><trkpt lat="45.40404486363684" lon="5.980075045985804"><ele>258.0</ele><time>2026-04-05T15:19:37.002Z</time></trkpt><trkpt lat="45.4038720922423" lon="5.980002313643159"><ele>258.0</ele><time>2026-04-05T15:19:38.002Z</time></trkpt><trkpt lat="45.403710100035056" lon="5.97992268072682"><ele>259.6666666666667</ele><time>2026-04-05T15:19:39.002Z</time></trkpt><trkpt lat="45.40354615937329" lon="5.979827887805407"><ele>261.33333333333337</ele><time>2026-04-05T15:19:40.002Z</time></trkpt><trkpt lat="45.403339912521204" lon="5.9796897964581275"><ele>263.0</ele><time>2026-04-05T15:19:41.002Z</time></trkpt><trkpt lat="45.40314336150408" lon="5.979576510721939"><ele>261.0</ele><time>2026-04-05T15:19:42.002Z</time></trkpt><trkpt lat="45.40294919521926" lon="5.979437982710639"><ele>259.0</ele><time>2026-04-05T15:19:43.002Z</time></trkpt><trkpt lat="45.40287955157287" lon="5.979568559085179"><ele>257.0</ele><time>2026-04-05T15:19:44.002Z</time></trkpt><trkpt lat="45.40271436158519" lon="5.979489248861426"><ele>257.0</ele><time>2026-04-05T15:19:45.002Z</time></trkpt><trkpt lat="45.402552525554626" lon="5.979412116691366"><ele>257.0</ele><time>2026-04-05T15:19:46.002Z</time></trkpt><trkpt lat="45.402387105230474" lon="5.979339947114129"><ele>257.0</ele><time>2026-04-05T15:19:47.002Z</time></trkpt><trkpt lat="45.40222003349177" lon="5.979264982472639"><ele>257.33333333333337</ele><time>2026-04-05T15:19:48.002Z</time></trkpt><trkpt lat="45.40204976794587" lon="5.979180535823554"><ele>257.6666666666667</ele><time>2026-04-05T15:19:49.002Z</time></trkpt><trkpt lat="45.40188281549195" lon="5.97910068291835"><ele>258.0</ele><time>2026-04-05T15:19:50.002Z</time></trkpt><trkpt lat="45.401708566002384" lon="5.979020346632132"><ele>258.0</ele><time>2026-04-05T15:19:51.002Z</time></trkpt><trkpt lat="45.40153284096043" lon="5.978938629543687"><ele>258.0</ele><time>2026-04-05T15:19:52.002Z</time></trkpt><trkpt lat="45.40135444234462" lon="5.978865508091065"><ele>258.0</ele><time>2026-04-05T15:19:53.002Z</time></trkpt><trkpt lat="45.40117256009902" lon="5.978789956881631"><ele>257.0</ele><time>2026-04-05T15:19:54.002Z</time></trkpt><trkpt lat="45.400982403916636" lon="5.978716900845949"><ele>256.0</ele><time>2026-04-05T15:19:55.002Z</time></trkpt><trkpt lat="45.400791736376895" lon="5.978641780111134"><ele>255.0</ele><time>2026-04-05T15:19:56.002Z</time></trkpt><trkpt lat="45.40060407036448" lon="5.978567867500001"><ele>254.0</ele><time>2026-04-05T15:19:57.002Z</time></trkpt><trkpt lat="45.40042157121466" lon="5.97848991964612"><ele>253.0</ele><time>2026-04-05T15:19:58.002Z</time></trkpt><trkpt lat="45.40023789747975" lon="5.9784098408118"><ele>252.0</ele><time>2026-04-05T15:19:59.002Z</time></trkpt><trkpt lat="45.40004960458022" lon="5.978325619445583"><ele>252.0</ele><time>2026-04-05T15:20:00.002Z</time></trkpt><trkpt lat="45.39986577598389" lon="5.9782420520908435"><ele>252.0</ele><time>2026-04-05T15:20:01.002Z</time></trkpt><trkpt lat="45.39968009140763" lon="5.978158029481525"><ele>252.0</ele><time>2026-04-05T15:20:02.002Z</time></trkpt><trkpt lat="45.39949364607809" lon="5.97807398898673"><ele>251.66666666666669</ele><time>2026-04-05T15:20:03.002Z</time></trkpt><trkpt lat="45.39930230583506" lon="5.977986111805738"><ele>251.33333333333334</ele><time>2026-04-05T15:20:04.002Z</time></trkpt><trkpt lat="45.39911311076674" lon="5.97790146316052"><ele>251.0</ele><time>2026-04-05T15:20:05.002Z</time></trkpt><trkpt lat="45.39892078672748" lon="5.977806718574387"><ele>249.66666666666669</ele><time>2026-04-05T15:20:06.002Z</time></trkpt><trkpt lat="45.398728114064525" lon="5.977721302663372"><ele>248.33333333333331</ele><time>2026-04-05T15:20:07.002Z</time></trkpt><trkpt lat="45.398534339514185" lon="5.977634462262657"><ele>247.0</ele><time>2026-04-05T15:20:08.002Z</time></trkpt><trkpt lat="45.39834007063214" lon="5.9775493423143695"><ele>247.0</ele><time>2026-04-05T15:20:09.002Z</time></trkpt><trkpt lat="45.39813947325651" lon="5.977463353054312"><ele>247.0</ele><time>2026-04-05T15:20:10.002Z</time></trkpt><trkpt lat="45.397924098012965" lon="5.977373276591069"><ele>247.0</ele><time>2026-04-05T15:20:11.002Z</time></trkpt><trkpt lat="45.3976972950953" lon="5.977278816474356"><ele>247.0</ele><time>2026-04-05T15:20:12Z</time></trkpt><trkpt lat="45.39746897529086" lon="5.977189745063352"><ele>247.0</ele><time>2026-04-05T15:20:13Z</time></trkpt><trkpt lat="45.397235142294754" lon="5.97709700931244"><ele>247.0</ele><time>2026-04-05T15:20:14Z</time></trkpt><trkpt lat="45.39699193986682" lon="5.976996636144424"><ele>247.0</ele><time>2026-04-05T15:20:15Z</time></trkpt><trkpt lat="45.39674767282624" lon="5.97688231040436"><ele>247.0</ele><time>2026-04-05T15:20:16Z</time></trkpt><trkpt lat="45.396499093854594" lon="5.976761382765927"><ele>247.0</ele><time>2026-04-05T15:20:17Z</time></trkpt><trkpt lat="45.39624573741478" lon="5.97664751287621"><ele>247.5</ele><time>2026-04-05T15:20:18Z</time></trkpt><trkpt lat="45.3959921471225" lon="5.976538197096317"><ele>248.0</ele><time>2026-04-05T15:20:19Z</time></trkpt><trkpt lat="45.395740478723454" lon="5.976434574827205"><ele>247.5</ele><time>2026-04-05T15:20:20Z</time></trkpt><trkpt lat="45.39549354696537" lon="5.976328763801626"><ele>247.0</ele><time>2026-04-05T15:20:21Z</time></trkpt><trkpt lat="45.395250748756006" lon="5.97622196435734"><ele>247.0</ele><time>2026-04-05T15:20:22Z</time></trkpt><trkpt lat="45.395003759224" lon="5.97611237747582"><ele>247.0</ele><time>2026-04-05T15:20:23Z</time></trkpt><trkpt lat="45.3947517516685" lon="5.976001302516059"><ele>247.0</ele><time>2026-04-05T15:20:24Z</time></trkpt><trkpt lat="45.39449739249685" lon="5.975899568695763"><ele>247.0</ele><time>2026-04-05T15:20:25Z</time></trkpt><trkpt lat="45.394250580361785" lon="5.9757875867990755"><ele>247.0</ele><time>2026-04-05T15:20:26Z</time></trkpt><trkpt lat="45.39399846428867" lon="5.975677413311551"><ele>247.0</ele><time>2026-04-05T15:20:27Z</time></trkpt><trkpt lat="45.3937445499298" lon="5.975565263243904"><ele>247.0</ele><time>2026-04-05T15:20:28Z</time></trkpt><trkpt lat="45.39348638362514" lon="5.975454413543808"><ele>247.0</ele><time>2026-04-05T15:20:29Z</time></trkpt><trkpt lat="45.393235052347464" lon="5.975343748976616"><ele>247.0</ele><time>2026-04-05T15:20:30Z</time></trkpt><trkpt lat="45.392991065767134" lon="5.975232878691556"><ele>247.0</ele><time>2026-04-05T15:20:31Z</time></trkpt><trkpt lat="45.39274747240992" lon="5.975122353429732"><ele>247.0</ele><time>2026-04-05T15:20:32Z</time></trkpt><trkpt lat="45.39250326922583" lon="5.975015994691105"><ele>247.0</ele><time>2026-04-05T15:20:33Z</time></trkpt><trkpt lat="45.39226511920181" lon="5.974908366916699"><ele>247.5</ele><time>2026-04-05T15:20:34Z</time></trkpt><trkpt lat="45.39202106998685" lon="5.974804728238651"><ele>248.0</ele><time>2026-04-05T15:20:35Z</time></trkpt><trkpt lat="45.391770272721416" lon="5.974701585882028"><ele>248.0</ele><time>2026-04-05T15:20:36Z</time></trkpt><trkpt lat="45.39153845184113" lon="5.974602706831233"><ele>248.0</ele><time>2026-04-05T15:20:37Z</time></trkpt><trkpt lat="45.39130638687313" lon="5.974493300264779"><ele>247.0</ele><time>2026-04-05T15:20:38.001Z</time></trkpt><trkpt lat="45.39107389579556" lon="5.974392548904417"><ele>246.0</ele><time>2026-04-05T15:20:39.001Z</time></trkpt><trkpt lat="45.390840071242096" lon="5.974291620452251"><ele>246.0</ele><time>2026-04-05T15:20:40.001Z</time></trkpt><trkpt lat="45.390608050111304" lon="5.974193673801135"><ele>246.0</ele><time>2026-04-05T15:20:41.001Z</time></trkpt><trkpt lat="45.390376468427526" lon="5.974094889331297"><ele>247.0</ele><time>2026-04-05T15:20:42.001Z</time></trkpt><trkpt lat="45.390147688823134" lon="5.973997578740342"><ele>248.0</ele><time>2026-04-05T15:20:43.001Z</time></trkpt><trkpt lat="45.3899229141505" lon="5.973898981835568"><ele>248.0</ele><time>2026-04-05T15:20:44.001Z</time></trkpt><trkpt lat="45.38969687226378" lon="5.973803380530433"><ele>248.0</ele><time>2026-04-05T15:20:45.001Z</time></trkpt><trkpt lat="45.3894728647516" lon="5.973702267492189"><ele>248.0</ele><time>2026-04-05T15:20:46.001Z</time></trkpt><trkpt lat="45.389249431085915" lon="5.9736009431456"><ele>248.0</ele><time>2026-04-05T15:20:47.001Z</time></trkpt><trkpt lat="45.38902187209734" lon="5.9735203598486875"><ele>247.5</ele><time>2026-04-05T15:20:48.001Z</time></trkpt><trkpt lat="45.38879206989149" lon="5.973420733978684"><ele>247.0</ele><time>2026-04-05T15:20:49.001Z</time></trkpt><trkpt lat="45.38855952864122" lon="5.973313643740882"><ele>248.0</ele><time>2026-04-05T15:20:50.001Z</time></trkpt><trkpt lat="45.38832369257235" lon="5.973206795251631"><ele>249.0</ele><time>2026-04-05T15:20:51.001Z</time></trkpt><trkpt lat="45.388087785298" lon="5.973100922229345"><ele>246.5</ele><time>2026-04-05T15:20:52.001Z</time></trkpt><trkpt lat="45.3878509243616" lon="5.972992972345752"><ele>244.0</ele><time>2026-04-05T15:20:53.001Z</time></trkpt><trkpt lat="45.38761883595738" lon="5.9728876285881105"><ele>244.0</ele><time>2026-04-05T15:20:54.001Z</time></trkpt><trkpt lat="45.38739509240319" lon="5.972774954180148"><ele>244.0</ele><time>2026-04-05T15:20:55.001Z</time></trkpt><trkpt lat="45.3871698586921" lon="5.972689384773762"><ele>244.5</ele><time>2026-04-05T15:20:56.001Z</time></trkpt><trkpt lat="45.38694999367031" lon="5.972599752148353"><ele>245.0</ele><time>2026-04-05T15:20:57.001Z</time></trkpt><trkpt lat="45.386729259351945" lon="5.972499643896626"><ele>245.5</ele><time>2026-04-05T15:20:58.001Z</time></trkpt><trkpt lat="45.38650608246283" lon="5.972385787030251"><ele>246.0</ele><time>2026-04-05T15:20:59.001Z</time></trkpt><trkpt lat="45.386276608094825" lon="5.972276455596257"><ele>246.5</ele><time>2026-04-05T15:21:00.001Z</time></trkpt><trkpt lat="45.386047433739634" lon="5.972197199823644"><ele>247.0</ele><time>2026-04-05T15:21:01.001Z</time></trkpt><trkpt lat="45.385835907353275" lon="5.972110453713647"><ele>247.0</ele><time>2026-04-05T15:21:02.001Z</time></trkpt><trkpt lat="45.38563905753724" lon="5.972027257397662"><ele>247.0</ele><time>2026-04-05T15:21:03.001Z</time></trkpt><trkpt lat="45.38544974143157" lon="5.971945692697215"><ele>247.0</ele><time>2026-04-05T15:21:04.001Z</time></trkpt><trkpt lat="45.38526253960872" lon="5.97186045289812"><ele>247.0</ele><time>2026-04-05T15:21:05.001Z</time></trkpt><trkpt lat="45.38508581383519" lon="5.971788593082453"><ele>247.0</ele><time>2026-04-05T15:21:06.001Z</time></trkpt><trkpt lat="45.38491966569647" lon="5.971708094904047"><ele>247.0</ele><time>2026-04-05T15:21:07.001Z</time></trkpt><trkpt lat="45.384765388394044" lon="5.9716369960593525"><ele>247.0</ele><time>2026-04-05T15:21:08.001Z</time></trkpt><trkpt lat="45.384618954676576" lon="5.971578850243349"><ele>247.0</ele><time>2026-04-05T15:21:09.001Z</time></trkpt><trkpt lat="45.38448125625913" lon="5.97151985634464"><ele>247.0</ele><time>2026-04-05T15:21:10.001Z</time></trkpt><trkpt lat="45.38435573637279" lon="5.971476092186232"><ele>247.0</ele><time>2026-04-05T15:21:11.001Z</time></trkpt><trkpt lat="45.384227439138535" lon="5.971466186852601"><ele>247.0</ele><time>2026-04-05T15:21:12.001Z</time></trkpt><trkpt lat="45.38412393056167" lon="5.9713932907668035"><ele>247.0</ele><time>2026-04-05T15:21:13.001Z</time></trkpt><trkpt lat="45.38402438141544" lon="5.971331858905519"><ele>247.0</ele><time>2026-04-05T15:21:14.001Z</time></trkpt><trkpt lat="45.38393234231138" lon="5.971285315723196"><ele>247.0</ele><time>2026-04-05T15:21:15.001Z</time></trkpt><trkpt lat="45.38384397844115" lon="5.971245525902817"><ele>247.0</ele><time>2026-04-05T15:21:16.001Z</time></trkpt><trkpt lat="45.38376298212342" lon="5.971210065569619"><ele>246.99999999999997</ele><time>2026-04-05T15:21:17.001Z</time></trkpt><trkpt lat="45.38368794992432" lon="5.971179606119868"><ele>247.0</ele><time>2026-04-05T15:21:18.001Z</time></trkpt><trkpt lat="45.38362031310618" lon="5.971150577926385"><ele>247.0</ele><time>2026-04-05T15:21:19.001Z</time></trkpt><trkpt lat="45.38355324570687" lon="5.971122738055807"><ele>247.0</ele><time>2026-04-05T15:21:20.001Z</time></trkpt><trkpt lat="45.38348352070961" lon="5.971094023043757"><ele>246.99999999999997</ele><time>2026-04-05T15:21:21.001Z</time></trkpt><trkpt lat="45.38338882879115" lon="5.971052288023288"><ele>247.0</ele><time>2026-04-05T15:21:22.001Z</time></trkpt><trkpt lat="45.383284491710796" lon="5.970988230159051"><ele>247.0</ele><time>2026-04-05T15:21:23.001Z</time></trkpt><trkpt lat="45.38318799525294" lon="5.9709165232415575"><ele>247.0</ele><time>2026-04-05T15:21:24.001Z</time></trkpt><trkpt lat="45.38310337732145" lon="5.970842889597782"><ele>247.0</ele><time>2026-04-05T15:21:25.001Z</time></trkpt><trkpt lat="45.38302709173716" lon="5.970763464980556"><ele>247.0</ele><time>2026-04-05T15:21:26.001Z</time></trkpt><trkpt lat="45.38296300790992" lon="5.970689369727508"><ele>247.0</ele><time>2026-04-05T15:21:27.001Z</time></trkpt><trkpt lat="45.38290057571281" lon="5.970618554115521"><ele>248.0</ele><time>2026-04-05T15:21:28.001Z</time></trkpt><trkpt lat="45.382829153278195" lon="5.970542558556644"><ele>249.0</ele><time>2026-04-05T15:21:29.001Z</time></trkpt><trkpt lat="45.382759950653764" lon="5.970456752588857"><ele>250.0</ele><time>2026-04-05T15:21:30.001Z</time></trkpt><trkpt lat="45.382686123299266" lon="5.970363620839361"><ele>251.0</ele><time>2026-04-05T15:21:31.001Z</time></trkpt><trkpt lat="45.382612291989105" lon="5.97027217568282"><ele>252.0</ele><time>2026-04-05T15:21:32.001Z</time></trkpt><trkpt lat="45.38253783347022" lon="5.970170786114544"><ele>252.0</ele><time>2026-04-05T15:21:33.001Z</time></trkpt><trkpt lat="45.38245953177512" lon="5.970062364013848"><ele>252.0</ele><time>2026-04-05T15:21:34.001Z</time></trkpt><trkpt lat="45.38237601006239" lon="5.969958977973348"><ele>252.0</ele><time>2026-04-05T15:21:35.001Z</time></trkpt><trkpt lat="45.382290837019774" lon="5.969861246880283"><ele>252.0</ele><time>2026-04-05T15:21:36.001Z</time></trkpt><trkpt lat="45.38220051548791" lon="5.969758887316181"><ele>252.0</ele><time>2026-04-05T15:21:37.001Z</time></trkpt><trkpt lat="45.382111439057056" lon="5.969647509390632"><ele>253.5</ele><time>2026-04-05T15:21:38.002Z</time></trkpt><trkpt lat="45.38202192828546" lon="5.969536514086332"><ele>255.0</ele><time>2026-04-05T15:21:39.002Z</time></trkpt><trkpt lat="45.38193242048303" lon="5.969428995008319"><ele>256.5</ele><time>2026-04-05T15:21:40.002Z</time></trkpt><trkpt lat="45.381841046810436" lon="5.969322171079911"><ele>258.0</ele><time>2026-04-05T15:21:41.002Z</time></trkpt><trkpt lat="45.38175069242063" lon="5.969210125215684"><ele>258.5</ele><time>2026-04-05T15:21:42.002Z</time></trkpt><trkpt lat="45.38165043934584" lon="5.969105542027628"><ele>259.0</ele><time>2026-04-05T15:21:43.002Z</time></trkpt><trkpt lat="45.38153910030006" lon="5.969039347450865"><ele>259.5</ele><time>2026-04-05T15:21:44.002Z</time></trkpt><trkpt lat="45.381458241047234" lon="5.968869425770447"><ele>260.0</ele><time>2026-04-05T15:21:45.002Z</time></trkpt><trkpt lat="45.381375361367624" lon="5.968742009294653"><ele>260.0</ele><time>2026-04-05T15:21:46.002Z</time></trkpt><trkpt lat="45.38129575161298" lon="5.968634627486539"><ele>260.0</ele><time>2026-04-05T15:21:47.002Z</time></trkpt><trkpt lat="45.38122460006065" lon="5.968542680531239"><ele>260.0</ele><time>2026-04-05T15:21:48.002Z</time></trkpt><trkpt lat="45.381169087086846" lon="5.968437981255772"><ele>260.0</ele><time>2026-04-05T15:21:49.002Z</time></trkpt><trkpt lat="45.38110128928015" lon="5.968353121552719"><ele>260.0</ele><time>2026-04-05T15:21:50.002Z</time></trkpt><trkpt lat="45.38103137508954" lon="5.96826626582794"><ele>260.6</ele><time>2026-04-05T15:21:51.002Z</time></trkpt><trkpt lat="45.38095988537154" lon="5.968177761655815"><ele>261.2</ele><time>2026-04-05T15:21:52.002Z</time></trkpt><trkpt lat="45.380873705674205" lon="5.96810008362143"><ele>261.8</ele><time>2026-04-05T15:21:53.002Z</time></trkpt><trkpt lat="45.380796093640804" lon="5.967998305110515"><ele>262.4</ele><time>2026-04-05T15:21:54.002Z</time></trkpt><trkpt lat="45.38072108093423" lon="5.967891648901518"><ele>263.0</ele><time>2026-04-05T15:21:55.002Z</time></trkpt><trkpt lat="45.38064687503" lon="5.96779604574123"><ele>263.0</ele><time>2026-04-05T15:21:56.002Z</time></trkpt><trkpt lat="45.38057924742814" lon="5.967706630522344"><ele>263.0</ele><time>2026-04-05T15:21:57.002Z</time></trkpt><trkpt lat="45.38051349357019" lon="5.967630419986443"><ele>263.0</ele><time>2026-04-05T15:21:58.002Z</time></trkpt><trkpt lat="45.38045738542422" lon="5.967548859793628"><ele>263.0</ele><time>2026-04-05T15:21:59.002Z</time></trkpt><trkpt lat="45.38039732455517" lon="5.967473745029097"><ele>263.0</ele><time>2026-04-05T15:22:00.002Z</time></trkpt><trkpt lat="45.38033634212701" lon="5.967397477721147"><ele>263.0</ele><time>2026-04-05T15:22:01.002Z</time></trkpt><trkpt lat="45.38027435517869" lon="5.9673199541188495"><ele>263.4</ele><time>2026-04-05T15:22:02.002Z</time></trkpt><trkpt lat="45.38020641328981" lon="5.967234983001987"><ele>263.8</ele><time>2026-04-05T15:22:03.002Z</time></trkpt><trkpt lat="45.38013311987574" lon="5.967143878366034"><ele>264.2</ele><time>2026-04-05T15:22:04.002Z</time></trkpt><trkpt lat="45.38005764702118" lon="5.967054118327421"><ele>264.6</ele><time>2026-04-05T15:22:05.002Z</time></trkpt><trkpt lat="45.379982394006255" lon="5.966966481531081"><ele>265.0</ele><time>2026-04-05T15:22:06.002Z</time></trkpt><trkpt lat="45.37990540705316" lon="5.966884693702573"><ele>265.0</ele><time>2026-04-05T15:22:07.002Z</time></trkpt><trkpt lat="45.37982938857285" lon="5.966782639134872"><ele>265.0</ele><time>2026-04-05T15:22:08.002Z</time></trkpt><trkpt lat="45.379747556568994" lon="5.966694653604821"><ele>265.0</ele><time>2026-04-05T15:22:09.002Z</time></trkpt><trkpt lat="45.37966449250161" lon="5.9666136199534066"><ele>265.0</ele><time>2026-04-05T15:22:10.002Z</time></trkpt><trkpt lat="45.37959537957259" lon="5.966525035071777"><ele>265.0</ele><time>2026-04-05T15:22:11.002Z</time></trkpt><trkpt lat="45.37952397864678" lon="5.96644953383945"><ele>265.2</ele><time>2026-04-05T15:22:12.002Z</time></trkpt><trkpt lat="45.379449755718866" lon="5.966366256744868"><ele>265.4</ele><time>2026-04-05T15:22:13.002Z</time></trkpt><trkpt lat="45.37936529432449" lon="5.966284663215847"><ele>265.6</ele><time>2026-04-05T15:22:14.002Z</time></trkpt><trkpt lat="45.379285106718484" lon="5.9662048986417515"><ele>265.8</ele><time>2026-04-05T15:22:15.002Z</time></trkpt><trkpt lat="45.379216950721904" lon="5.966149270200112"><ele>266.0</ele><time>2026-04-05T15:22:16.002Z</time></trkpt><trkpt lat="45.37915103988756" lon="5.966080774455145"><ele>266.0</ele><time>2026-04-05T15:22:17.002Z</time></trkpt><trkpt lat="45.3790859883336" lon="5.966019125928787"><ele>266.0</ele><time>2026-04-05T15:22:18Z</time></trkpt><trkpt lat="45.379025528813564" lon="5.965976357173712"><ele>266.0</ele><time>2026-04-05T15:22:19Z</time></trkpt><trkpt lat="45.37893849638825" lon="5.965871779739569"><ele>266.0</ele><time>2026-04-05T15:22:21Z</time></trkpt><trkpt lat="45.378859152446346" lon="5.965779604582867"><ele>266.0</ele><time>2026-04-05T15:22:23Z</time></trkpt><trkpt lat="45.37877566877427" lon="5.965696842681005"><ele>266.33333333333337</ele><time>2026-04-05T15:22:25Z</time></trkpt><trkpt lat="45.378698944321634" lon="5.965647501473512"><ele>266.6666666666667</ele><time>2026-04-05T15:22:26Z</time></trkpt><trkpt lat="45.378619850225654" lon="5.965597526066146"><ele>267.0</ele><time>2026-04-05T15:22:27Z</time></trkpt><trkpt lat="45.37854951956351" lon="5.965542140176872"><ele>267.3333333333333</ele><time>2026-04-05T15:22:28Z</time></trkpt><trkpt lat="45.3784663140144" lon="5.965481121890605"><ele>267.66666666666663</ele><time>2026-04-05T15:22:29Z</time></trkpt><trkpt lat="45.378374958728635" lon="5.965418814273432"><ele>268.0</ele><time>2026-04-05T15:22:30Z</time></trkpt><trkpt lat="45.3782896690091" lon="5.965333604087199"><ele>268.0</ele><time>2026-04-05T15:22:31Z</time></trkpt><trkpt lat="45.37818879855011" lon="5.965259772514711"><ele>268.0</ele><time>2026-04-05T15:22:32Z</time></trkpt><trkpt lat="45.3780757045125" lon="5.965176993961544"><ele>268.0</ele><time>2026-04-05T15:22:33Z</time></trkpt><trkpt lat="45.37795306270916" lon="5.965089215715195"><ele>268.0</ele><time>2026-04-05T15:22:34Z</time></trkpt><trkpt lat="45.37784455584857" lon="5.965007203667027"><ele>268.25</ele><time>2026-04-05T15:22:35Z</time></trkpt><trkpt lat="45.377709965743215" lon="5.964945168386068"><ele>268.5</ele><time>2026-04-05T15:22:36Z</time></trkpt><trkpt lat="45.37758155616473" lon="5.964848568821391"><ele>268.75</ele><time>2026-04-05T15:22:37Z</time></trkpt><trkpt lat="45.37744323756797" lon="5.964747772928495"><ele>269.0</ele><time>2026-04-05T15:22:38Z</time></trkpt><trkpt lat="45.37730602000019" lon="5.964645833128112"><ele>269.0</ele><time>2026-04-05T15:22:39Z</time></trkpt><trkpt lat="45.37718451195807" lon="5.964517533951228"><ele>269.0</ele><time>2026-04-05T15:22:40Z</time></trkpt><trkpt lat="45.37704562649109" lon="5.964414345511233"><ele>269.0</ele><time>2026-04-05T15:22:41Z</time></trkpt><trkpt lat="45.37690666282765" lon="5.964311098971755"><ele>269.0</ele><time>2026-04-05T15:22:42Z</time></trkpt><trkpt lat="45.37677080575718" lon="5.964210160553588"><ele>269.0</ele><time>2026-04-05T15:22:43Z</time></trkpt><trkpt lat="45.37663749186004" lon="5.964109144831936"><ele>269.0</ele><time>2026-04-05T15:22:44Z</time></trkpt><trkpt lat="45.37650000063493" lon="5.964004640921312"><ele>270.0</ele><time>2026-04-05T15:22:45Z</time></trkpt><trkpt lat="45.376359529201856" lon="5.9638978716105475"><ele>271.0</ele><time>2026-04-05T15:22:46Z</time></trkpt><trkpt lat="45.376214850092126" lon="5.963788056821223"><ele>272.0</ele><time>2026-04-05T15:22:47Z</time></trkpt><trkpt lat="45.376062660658455" lon="5.9636733372184985"><ele>272.0</ele><time>2026-04-05T15:22:48Z</time></trkpt><trkpt lat="45.37589663754953" lon="5.963570111302824"><ele>272.0</ele><time>2026-04-05T15:22:49.001Z</time></trkpt><trkpt lat="45.375725496176415" lon="5.963419184397196"><ele>272.0</ele><time>2026-04-05T15:22:50.001Z</time></trkpt><trkpt lat="45.375532720699354" lon="5.963273871234422"><ele>272.6666666666667</ele><time>2026-04-05T15:22:51.001Z</time></trkpt><trkpt lat="45.37533664850497" lon="5.963126073019858"><ele>273.3333333333333</ele><time>2026-04-05T15:22:52.001Z</time></trkpt><trkpt lat="45.37513589991642" lon="5.962974808975283"><ele>274.0</ele><time>2026-04-05T15:22:53.001Z</time></trkpt><trkpt lat="45.374930958185296" lon="5.962821219182475"><ele>274.0</ele><time>2026-04-05T15:22:54.001Z</time></trkpt><trkpt lat="45.374715254657225" lon="5.962659844511535"><ele>274.0</ele><time>2026-04-05T15:22:55.001Z</time></trkpt><trkpt lat="45.37450015803067" lon="5.96249892375441"><ele>277.0</ele><time>2026-04-05T15:22:56.001Z</time></trkpt><trkpt lat="45.374279710201876" lon="5.9623339996224045"><ele>280.0</ele><time>2026-04-05T15:22:57.001Z</time></trkpt><trkpt lat="45.3740438226938" lon="5.962169205798085"><ele>280.0</ele><time>2026-04-05T15:22:58.001Z</time></trkpt><trkpt lat="45.37383373534738" lon="5.962006928744263"><ele>280.0</ele><time>2026-04-05T15:22:59.001Z</time></trkpt><trkpt lat="45.37362693933896" lon="5.961853802082853"><ele>280.0</ele><time>2026-04-05T15:23:00.001Z</time></trkpt><trkpt lat="45.37342009943142" lon="5.961703590529778"><ele>280.0</ele><time>2026-04-05T15:23:01.001Z</time></trkpt><trkpt lat="45.37321459026078" lon="5.961551837903804"><ele>281.5</ele><time>2026-04-05T15:23:02.001Z</time></trkpt><trkpt lat="45.37301315442758" lon="5.961403962675029"><ele>283.0</ele><time>2026-04-05T15:23:03.001Z</time></trkpt><trkpt lat="45.37280961016317" lon="5.961251547335494"><ele>283.0</ele><time>2026-04-05T15:23:04.001Z</time></trkpt><trkpt lat="45.37260845350795" lon="5.96109403848239"><ele>283.0</ele><time>2026-04-05T15:23:05.001Z</time></trkpt><trkpt lat="45.372411117877675" lon="5.960940174422211"><ele>284.0</ele><time>2026-04-05T15:23:06.001Z</time></trkpt><trkpt lat="45.372206821629675" lon="5.960783979857302"><ele>285.0</ele><time>2026-04-05T15:23:07.001Z</time></trkpt><trkpt lat="45.37199757276926" lon="5.960626121910942"><ele>285.0</ele><time>2026-04-05T15:23:08.001Z</time></trkpt><trkpt lat="45.371790906983534" lon="5.960468189237354"><ele>285.0</ele><time>2026-04-05T15:23:09.001Z</time></trkpt><trkpt lat="45.37158199471172" lon="5.96031197032487"><ele>285.0</ele><time>2026-04-05T15:23:10.001Z</time></trkpt><trkpt lat="45.37137530141974" lon="5.960155068125707"><ele>285.0</ele><time>2026-04-05T15:23:11.001Z</time></trkpt><trkpt lat="45.37116710962143" lon="5.959998326080704"><ele>286.0</ele><time>2026-04-05T15:23:12.001Z</time></trkpt><trkpt lat="45.37095857220244" lon="5.959839083802697"><ele>287.0</ele><time>2026-04-05T15:23:13.001Z</time></trkpt><trkpt lat="45.37075103252887" lon="5.959679922613689"><ele>287.0</ele><time>2026-04-05T15:23:14.001Z</time></trkpt><trkpt lat="45.370539286092246" lon="5.959521381864133"><ele>287.0</ele><time>2026-04-05T15:23:15.001Z</time></trkpt><trkpt lat="45.37032532218665" lon="5.9593626035861975"><ele>287.5</ele><time>2026-04-05T15:23:16.001Z</time></trkpt><trkpt lat="45.37011062247935" lon="5.959203658565486"><ele>288.0</ele><time>2026-04-05T15:23:17.001Z</time></trkpt><trkpt lat="45.3698915611071" lon="5.959046468975029"><ele>289.0</ele><time>2026-04-05T15:23:18.001Z</time></trkpt><trkpt lat="45.36967475214039" lon="5.95888099117651"><ele>290.0</ele><time>2026-04-05T15:23:19.001Z</time></trkpt><trkpt lat="45.36945628472544" lon="5.958717422183228"><ele>290.0</ele><time>2026-04-05T15:23:20.001Z</time></trkpt><trkpt lat="45.36924004193929" lon="5.958560959856482"><ele>290.0</ele><time>2026-04-05T15:23:21.001Z</time></trkpt><trkpt lat="45.369031663791496" lon="5.958415610081733"><ele>292.0</ele><time>2026-04-05T15:23:22.001Z</time></trkpt><trkpt lat="45.36883083463825" lon="5.958284504647888"><ele>294.0</ele><time>2026-04-05T15:23:23.001Z</time></trkpt><trkpt lat="45.36864092607115" lon="5.958161652164996"><ele>296.0</ele><time>2026-04-05T15:23:24.001Z</time></trkpt><trkpt lat="45.3684589121009" lon="5.9580185178754395"><ele>296.0</ele><time>2026-04-05T15:23:25.001Z</time></trkpt><trkpt lat="45.36826486947887" lon="5.957905077327545"><ele>296.0</ele><time>2026-04-05T15:23:26.001Z</time></trkpt><trkpt lat="45.36807845208297" lon="5.957790105275701"><ele>296.0</ele><time>2026-04-05T15:23:27.001Z</time></trkpt><trkpt lat="45.36788246094256" lon="5.95769920571966"><ele>296.0</ele><time>2026-04-05T15:23:28.001Z</time></trkpt><trkpt lat="45.36768669004116" lon="5.957570564588344"><ele>296.0</ele><time>2026-04-05T15:23:29.001Z</time></trkpt><trkpt lat="45.36748835922412" lon="5.957463282673039"><ele>296.0</ele><time>2026-04-05T15:23:30.001Z</time></trkpt><trkpt lat="45.36728599591924" lon="5.957359742956121"><ele>295.0</ele><time>2026-04-05T15:23:31.001Z</time></trkpt><trkpt lat="45.36708148784449" lon="5.957245321676659"><ele>294.0</ele><time>2026-04-05T15:23:32.001Z</time></trkpt><trkpt lat="45.36687353238875" lon="5.957121392212044"><ele>293.0</ele><time>2026-04-05T15:23:33.001Z</time></trkpt><trkpt lat="45.36666444836509" lon="5.956998914808897"><ele>293.0</ele><time>2026-04-05T15:23:34.001Z</time></trkpt><trkpt lat="45.36645794407234" lon="5.956876208602469"><ele>293.0</ele><time>2026-04-05T15:23:35.001Z</time></trkpt><trkpt lat="45.3662512641281" lon="5.9567569358501515"><ele>293.0</ele><time>2026-04-05T15:23:36.001Z</time></trkpt><trkpt lat="45.3660467233405" lon="5.9566343040037175"><ele>293.33333333333337</ele><time>2026-04-05T15:23:37.001Z</time></trkpt><trkpt lat="45.36584302157534" lon="5.956512968389602"><ele>293.6666666666667</ele><time>2026-04-05T15:23:38.001Z</time></trkpt><trkpt lat="45.36564337436587" lon="5.9563976334185185"><ele>294.0</ele><time>2026-04-05T15:23:39.001Z</time></trkpt><trkpt lat="45.36544875655557" lon="5.956281484601893"><ele>294.0</ele><time>2026-04-05T15:23:40.001Z</time></trkpt><trkpt lat="45.36526202014511" lon="5.956162591980071"><ele>294.0</ele><time>2026-04-05T15:23:41.001Z</time></trkpt><trkpt lat="45.36508034851259" lon="5.956053564381237"><ele>294.0</ele><time>2026-04-05T15:23:42.001Z</time></trkpt><trkpt lat="45.36490227008431" lon="5.9559453935083475"><ele>293.6666666666667</ele><time>2026-04-05T15:23:43.001Z</time></trkpt><trkpt lat="45.36472561688185" lon="5.955840744651414"><ele>293.33333333333337</ele><time>2026-04-05T15:23:44.001Z</time></trkpt><trkpt lat="45.364549070643385" lon="5.955745611113547"><ele>293.0</ele><time>2026-04-05T15:23:45.001Z</time></trkpt><trkpt lat="45.36437152844294" lon="5.9556570771264346"><ele>293.0</ele><time>2026-04-05T15:23:46.001Z</time></trkpt><trkpt lat="45.36419426672934" lon="5.955574494838224"><ele>293.0</ele><time>2026-04-05T15:23:47.001Z</time></trkpt><trkpt lat="45.36402061192984" lon="5.955506483906537"><ele>293.0</ele><time>2026-04-05T15:23:48.001Z</time></trkpt><trkpt lat="45.36383640773925" lon="5.955457674757376"><ele>291.0</ele><time>2026-04-05T15:23:49.001Z</time></trkpt><trkpt lat="45.36366948117286" lon="5.955404440692526"><ele>289.0</ele><time>2026-04-05T15:23:50.001Z</time></trkpt><trkpt lat="45.36349943716829" lon="5.955368596703295"><ele>287.0</ele><time>2026-04-05T15:23:51.001Z</time></trkpt><trkpt lat="45.36333558359709" lon="5.955339341886141"><ele>287.0</ele><time>2026-04-05T15:23:52.001Z</time></trkpt><trkpt lat="45.36317898778723" lon="5.955319670933359"><ele>287.0</ele><time>2026-04-05T15:23:53.001Z</time></trkpt><trkpt lat="45.363023526335034" lon="5.955302214562347"><ele>287.0</ele><time>2026-04-05T15:23:54.001Z</time></trkpt><trkpt lat="45.362862836749215" lon="5.955299894946928"><ele>286.75</ele><time>2026-04-05T15:23:55.002Z</time></trkpt><trkpt lat="45.3627309022808" lon="5.955333303314143"><ele>286.5</ele><time>2026-04-05T15:23:56.002Z</time></trkpt><trkpt lat="45.36258368213555" lon="5.955348764148419"><ele>286.25</ele><time>2026-04-05T15:23:57.002Z</time></trkpt><trkpt lat="45.36242884757735" lon="5.955366878331847"><ele>286.0</ele><time>2026-04-05T15:23:58.002Z</time></trkpt><trkpt lat="45.36227287321101" lon="5.955387568629801"><ele>284.3333333333333</ele><time>2026-04-05T15:23:59.002Z</time></trkpt><trkpt lat="45.362120664651" lon="5.955411644273926"><ele>282.6666666666667</ele><time>2026-04-05T15:24:00.002Z</time></trkpt><trkpt lat="45.36197092872588" lon="5.955436224271443"><ele>281.0</ele><time>2026-04-05T15:24:01.002Z</time></trkpt><trkpt lat="45.36182123841577" lon="5.955460842085273"><ele>281.0</ele><time>2026-04-05T15:24:02.002Z</time></trkpt><trkpt lat="45.361671799635644" lon="5.9554888548265215"><ele>281.0</ele><time>2026-04-05T15:24:03.002Z</time></trkpt><trkpt lat="45.36152277045846" lon="5.955513577916289"><ele>281.0</ele><time>2026-04-05T15:24:04.002Z</time></trkpt><trkpt lat="45.36137684437074" lon="5.955536444783417"><ele>281.0</ele><time>2026-04-05T15:24:05.002Z</time></trkpt><trkpt lat="45.361228341659356" lon="5.955558196453006"><ele>279.6666666666667</ele><time>2026-04-05T15:24:06.002Z</time></trkpt><trkpt lat="45.361073575246266" lon="5.955582961001957"><ele>278.3333333333333</ele><time>2026-04-05T15:24:07.002Z</time></trkpt><trkpt lat="45.36091384615919" lon="5.9556250860909925"><ele>277.0</ele><time>2026-04-05T15:24:08.002Z</time></trkpt><trkpt lat="45.36074576099375" lon="5.955624614747713"><ele>277.0</ele><time>2026-04-05T15:24:09.002Z</time></trkpt><trkpt lat="45.36055089859773" lon="5.955574724813714"><ele>277.0</ele><time>2026-04-05T15:24:10.002Z</time></trkpt><trkpt lat="45.36036787208769" lon="5.955553054931144"><ele>277.0</ele><time>2026-04-05T15:24:11.002Z</time></trkpt><trkpt lat="45.360170155257876" lon="5.955497685688214"><ele>274.66666666666663</ele><time>2026-04-05T15:24:12.002Z</time></trkpt><trkpt lat="45.360184970432464" lon="5.9557265184467605"><ele>272.3333333333333</ele><time>2026-04-05T15:24:13.002Z</time></trkpt><trkpt lat="45.36003613741793" lon="5.955739233869283"><ele>270.0</ele><time>2026-04-05T15:24:14.002Z</time></trkpt><trkpt lat="45.359888572881715" lon="5.9557515152337395"><ele>270.0</ele><time>2026-04-05T15:24:15.002Z</time></trkpt><trkpt lat="45.3597401315087" lon="5.955762904763344"><ele>270.0</ele><time>2026-04-05T15:24:16.002Z</time></trkpt><trkpt lat="45.35958303184108" lon="5.955763880767529"><ele>270.0</ele><time>2026-04-05T15:24:17.002Z</time></trkpt><trkpt lat="45.35942316383204" lon="5.955749031124241"><ele>269.0</ele><time>2026-04-05T15:24:18.002Z</time></trkpt><trkpt lat="45.359258304245756" lon="5.955730591049086"><ele>268.0</ele><time>2026-04-05T15:24:19.002Z</time></trkpt><trkpt lat="45.35909277729071" lon="5.955705876345968"><ele>267.0</ele><time>2026-04-05T15:24:20.002Z</time></trkpt><trkpt lat="45.35892788390289" lon="5.9556790893531675"><ele>266.6666666666667</ele><time>2026-04-05T15:24:21.002Z</time></trkpt><trkpt lat="45.358766805364766" lon="5.9556536349985425"><ele>266.33333333333337</ele><time>2026-04-05T15:24:22.002Z</time></trkpt><trkpt lat="45.35861621269316" lon="5.955614305041334"><ele>266.0</ele><time>2026-04-05T15:24:23.002Z</time></trkpt><trkpt lat="45.35846985915701" lon="5.955575906191496"><ele>266.0</ele><time>2026-04-05T15:24:24Z</time></trkpt><trkpt lat="45.358324494615424" lon="5.9555431794059785"><ele>266.0</ele><time>2026-04-05T15:24:25Z</time></trkpt><trkpt lat="45.358194818548455" lon="5.9554908451355795"><ele>266.0</ele><time>2026-04-05T15:24:26Z</time></trkpt><trkpt lat="45.35807723830544" lon="5.955436244662374"><ele>266.0</ele><time>2026-04-05T15:24:27Z</time></trkpt><trkpt lat="45.357976479418966" lon="5.955376348290512"><ele>265.0</ele><time>2026-04-05T15:24:28Z</time></trkpt><trkpt lat="45.357885685868354" lon="5.9553180929445"><ele>264.0</ele><time>2026-04-05T15:24:29Z</time></trkpt><trkpt lat="45.357818990785" lon="5.955271512774358"><ele>263.0</ele><time>2026-04-05T15:24:30Z</time></trkpt><trkpt lat="45.35774816240359" lon="5.955236504616977"><ele>262.0</ele><time>2026-04-05T15:24:31Z</time></trkpt><trkpt lat="45.357680279705384" lon="5.955194543129806"><ele>261.0</ele><time>2026-04-05T15:24:32Z</time></trkpt><trkpt lat="45.357582941631584" lon="5.955148335188079"><ele>260.0</ele><time>2026-04-05T15:24:34Z</time></trkpt><trkpt lat="45.35749551128075" lon="5.955086235087712"><ele>260.1666666666667</ele><time>2026-04-05T15:24:37Z</time></trkpt><trkpt lat="45.35744979171655" lon="5.955016941313904"><ele>260.33333333333337</ele><time>2026-04-05T15:24:38Z</time></trkpt><trkpt lat="45.35739111194954" lon="5.954948732538928"><ele>260.5</ele><time>2026-04-05T15:24:39Z</time></trkpt><trkpt lat="45.35732768656847" lon="5.954908182405906"><ele>260.6666666666667</ele><time>2026-04-05T15:24:40Z</time></trkpt><trkpt lat="45.35725381230077" lon="5.954887112329903"><ele>260.8333333333333</ele><time>2026-04-05T15:24:41Z</time></trkpt><trkpt lat="45.357167903786774" lon="5.954861413614416"><ele>261.0</ele><time>2026-04-05T15:24:42Z</time></trkpt><trkpt lat="45.357071417754874" lon="5.954790620722322"><ele>259.5</ele><time>2026-04-05T15:24:43Z</time></trkpt><trkpt lat="45.356974436135786" lon="5.9546951763862985"><ele>258.0</ele><time>2026-04-05T15:24:44Z</time></trkpt><trkpt lat="45.35687707573485" lon="5.954596630248644"><ele>256.5</ele><time>2026-04-05T15:24:45Z</time></trkpt><trkpt lat="45.356769173749214" lon="5.954489126607367"><ele>255.0</ele><time>2026-04-05T15:24:46Z</time></trkpt><trkpt lat="45.35666119782762" lon="5.9543655807961295"><ele>255.0</ele><time>2026-04-05T15:24:47Z</time></trkpt><trkpt lat="45.356551328095364" lon="5.954239084024813"><ele>255.0</ele><time>2026-04-05T15:24:48Z</time></trkpt><trkpt lat="45.35643652586719" lon="5.954064855702719"><ele>255.0</ele><time>2026-04-05T15:24:49Z</time></trkpt><trkpt lat="45.35632961907333" lon="5.953911293772835"><ele>253.66666666666669</ele><time>2026-04-05T15:24:50Z</time></trkpt><trkpt lat="45.35621661072275" lon="5.953747862652035"><ele>252.33333333333334</ele><time>2026-04-05T15:24:51Z</time></trkpt><trkpt lat="45.35609881185369" lon="5.953577503548965"><ele>251.0</ele><time>2026-04-05T15:24:52Z</time></trkpt><trkpt lat="45.35597869133884" lon="5.9534037869146355"><ele>251.33333333333334</ele><time>2026-04-05T15:24:53Z</time></trkpt><trkpt lat="45.35585330125916" lon="5.9532224495235875"><ele>251.66666666666669</ele><time>2026-04-05T15:24:54Z</time></trkpt><trkpt lat="45.35571239734457" lon="5.953016805502195"><ele>252.0</ele><time>2026-04-05T15:24:55Z</time></trkpt><trkpt lat="45.3555495125708" lon="5.952778934321264"><ele>252.0</ele><time>2026-04-05T15:24:56Z</time></trkpt><trkpt lat="45.35537436731811" lon="5.952524202368954"><ele>252.0</ele><time>2026-04-05T15:24:57Z</time></trkpt><trkpt lat="45.35518697483964" lon="5.952279245883069"><ele>252.0</ele><time>2026-04-05T15:24:58Z</time></trkpt><trkpt lat="45.35501332122765" lon="5.952003222980302"><ele>252.0</ele><time>2026-04-05T15:24:59Z</time></trkpt><trkpt lat="45.35483061404134" lon="5.951731695752908"><ele>248.0</ele><time>2026-04-05T15:25:00.001Z</time></trkpt><trkpt lat="45.35464631772795" lon="5.951463740400614"><ele>244.0</ele><time>2026-04-05T15:25:01.001Z</time></trkpt><trkpt lat="45.35446349881851" lon="5.951199552685539"><ele>244.0</ele><time>2026-04-05T15:25:02.001Z</time></trkpt><trkpt lat="45.354279410781224" lon="5.9509347867569735"><ele>244.0</ele><time>2026-04-05T15:25:03.001Z</time></trkpt><trkpt lat="45.354096419771366" lon="5.950672023473912"><ele>244.0</ele><time>2026-04-05T15:25:04.001Z</time></trkpt><trkpt lat="45.35391207033186" lon="5.950413809975609"><ele>244.0</ele><time>2026-04-05T15:25:05.001Z</time></trkpt><trkpt lat="45.35373141997526" lon="5.950153470517062"><ele>242.5</ele><time>2026-04-05T15:25:06.001Z</time></trkpt><trkpt lat="45.353553511588636" lon="5.9498947970862615"><ele>241.0</ele><time>2026-04-05T15:25:07.001Z</time></trkpt><trkpt lat="45.353378969893825" lon="5.949636402412128"><ele>241.0</ele><time>2026-04-05T15:25:08.001Z</time></trkpt><trkpt lat="45.35320602817191" lon="5.949379158869904"><ele>241.0</ele><time>2026-04-05T15:25:09.001Z</time></trkpt><trkpt lat="45.353038069300034" lon="5.949129403882124"><ele>241.0</ele><time>2026-04-05T15:25:10.001Z</time></trkpt><trkpt lat="45.35287994818888" lon="5.948901327234333"><ele>241.0</ele><time>2026-04-05T15:25:11.001Z</time></trkpt><trkpt lat="45.352734757832835" lon="5.9486818462168225"><ele>241.0</ele><time>2026-04-05T15:25:12.001Z</time></trkpt><trkpt lat="45.35259712574096" lon="5.94847555568287"><ele>241.0</ele><time>2026-04-05T15:25:13.001Z</time></trkpt><trkpt lat="45.3524635881403" lon="5.948285267740653"><ele>241.0</ele><time>2026-04-05T15:25:14.001Z</time></trkpt><trkpt lat="45.352329673405166" lon="5.948108713738754"><ele>241.0</ele><time>2026-04-05T15:25:15.001Z</time></trkpt><trkpt lat="45.35218694649791" lon="5.947940743422289"><ele>241.33333333333331</ele><time>2026-04-05T15:25:16.001Z</time></trkpt><trkpt lat="45.352041013260525" lon="5.947781003394052"><ele>241.66666666666669</ele><time>2026-04-05T15:25:17.001Z</time></trkpt><trkpt lat="45.351895087705934" lon="5.947643216159131"><ele>242.0</ele><time>2026-04-05T15:25:18.001Z</time></trkpt><trkpt lat="45.351749281887315" lon="5.947506286946947"><ele>242.33333333333334</ele><time>2026-04-05T15:25:19.001Z</time></trkpt><trkpt lat="45.35160115356362" lon="5.947380060838689"><ele>242.66666666666669</ele><time>2026-04-05T15:25:20.001Z</time></trkpt><trkpt lat="45.35145039809145" lon="5.947254683968078"><ele>243.0</ele><time>2026-04-05T15:25:21.001Z</time></trkpt><trkpt lat="45.35129391557921" lon="5.9471444304055385"><ele>243.33333333333331</ele><time>2026-04-05T15:25:22.001Z</time></trkpt><trkpt lat="45.3511117399803" lon="5.947086507204797"><ele>243.66666666666666</ele><time>2026-04-05T15:25:23.001Z</time></trkpt><trkpt lat="45.350896846457836" lon="5.947050758399789"><ele>244.0</ele><time>2026-04-05T15:25:24.001Z</time></trkpt><trkpt lat="45.350713314622055" lon="5.9470310750183595"><ele>244.0</ele><time>2026-04-05T15:25:25.001Z</time></trkpt><trkpt lat="45.35061113066293" lon="5.94681019179227"><ele>244.0</ele><time>2026-04-05T15:25:26.001Z</time></trkpt><trkpt lat="45.3504650561496" lon="5.946760184819554"><ele>244.0</ele><time>2026-04-05T15:25:27.001Z</time></trkpt><trkpt lat="45.350332480793305" lon="5.94666096987158"><ele>243.33333333333331</ele><time>2026-04-05T15:25:28.001Z</time></trkpt><trkpt lat="45.3501844272838" lon="5.946583505211912"><ele>242.66666666666669</ele><time>2026-04-05T15:25:29.001Z</time></trkpt><trkpt lat="45.35002004552157" lon="5.946546894509863"><ele>242.0</ele><time>2026-04-05T15:25:30.001Z</time></trkpt><trkpt lat="45.349855999482635" lon="5.946483051649342"><ele>241.33333333333334</ele><time>2026-04-05T15:25:31.001Z</time></trkpt><trkpt lat="45.34968374510711" lon="5.946415485167882"><ele>240.66666666666669</ele><time>2026-04-05T15:25:32.001Z</time></trkpt><trkpt lat="45.34950708650337" lon="5.946341657689698"><ele>240.0</ele><time>2026-04-05T15:25:33.001Z</time></trkpt><trkpt lat="45.349323852863144" lon="5.946274887483827"><ele>240.0</ele><time>2026-04-05T15:25:34.001Z</time></trkpt><trkpt lat="45.34914232836901" lon="5.94620675985675"><ele>240.0</ele><time>2026-04-05T15:25:35.001Z</time></trkpt><trkpt lat="45.348971051977" lon="5.946112455132779"><ele>240.0</ele><time>2026-04-05T15:25:36.001Z</time></trkpt><trkpt lat="45.348789887990804" lon="5.946064866739824"><ele>239.33333333333331</ele><time>2026-04-05T15:25:37.001Z</time></trkpt><trkpt lat="45.34861146574609" lon="5.945985607338129"><ele>238.66666666666666</ele><time>2026-04-05T15:25:38.001Z</time></trkpt><trkpt lat="45.34842939075422" lon="5.945906485869572"><ele>238.0</ele><time>2026-04-05T15:25:39.001Z</time></trkpt><trkpt lat="45.34824618782664" lon="5.945831740842902"><ele>239.0</ele><time>2026-04-05T15:25:40.001Z</time></trkpt><trkpt lat="45.34806654586382" lon="5.945757183167734"><ele>240.0</ele><time>2026-04-05T15:25:41.001Z</time></trkpt><trkpt lat="45.34788827146023" lon="5.945684959956324"><ele>241.0</ele><time>2026-04-05T15:25:42.001Z</time></trkpt><trkpt lat="45.34770593445339" lon="5.94560691252104"><ele>241.0</ele><time>2026-04-05T15:25:43.001Z</time></trkpt><trkpt lat="45.34752661324925" lon="5.945528250370667"><ele>241.0</ele><time>2026-04-05T15:25:44.001Z</time></trkpt><trkpt lat="45.347348279833156" lon="5.945450398516754"><ele>241.0</ele><time>2026-04-05T15:25:45.001Z</time></trkpt><trkpt lat="45.347168573200065" lon="5.945371930477239"><ele>240.0</ele><time>2026-04-05T15:25:46.001Z</time></trkpt><trkpt lat="45.34698696433579" lon="5.945295305513296"><ele>239.0</ele><time>2026-04-05T15:25:47.001Z</time></trkpt><trkpt lat="45.34680098348747" lon="5.945219946296021"><ele>238.0</ele><time>2026-04-05T15:25:48.001Z</time></trkpt><trkpt lat="45.34661695898115" lon="5.945145860921252"><ele>238.0</ele><time>2026-04-05T15:25:49.001Z</time></trkpt><trkpt lat="45.34644114185292" lon="5.945071240129443"><ele>238.0</ele><time>2026-04-05T15:25:50.001Z</time></trkpt><trkpt lat="45.34627351817922" lon="5.9450130186421895"><ele>238.0</ele><time>2026-04-05T15:25:51.001Z</time></trkpt><trkpt lat="45.34610211532194" lon="5.94495600597033"><ele>238.66666666666666</ele><time>2026-04-05T15:25:52.001Z</time></trkpt><trkpt lat="45.34593678773266" lon="5.9449417042544805"><ele>239.33333333333331</ele><time>2026-04-05T15:25:53.001Z</time></trkpt><trkpt lat="45.34577487418362" lon="5.9449617989795565"><ele>240.0</ele><time>2026-04-05T15:25:54.001Z</time></trkpt><trkpt lat="45.34561529453686" lon="5.944992662259026"><ele>240.5</ele><time>2026-04-05T15:25:55.001Z</time></trkpt><trkpt lat="45.34536442103389" lon="5.94476397502513"><ele>241.0</ele><time>2026-04-05T15:25:56.001Z</time></trkpt><trkpt lat="45.34516235900827" lon="5.944708231580624"><ele>241.0</ele><time>2026-04-05T15:25:57.001Z</time></trkpt><trkpt lat="45.34496100662737" lon="5.944691403168086"><ele>241.0</ele><time>2026-04-05T15:25:58.001Z</time></trkpt><trkpt lat="45.344743054074286" lon="5.944628138540336"><ele>241.0</ele><time>2026-04-05T15:25:59.001Z</time></trkpt><trkpt lat="45.344515058812135" lon="5.944573573215103"><ele>240.0</ele><time>2026-04-05T15:26:00.001Z</time></trkpt><trkpt lat="45.34427886479368" lon="5.944502429337352"><ele>239.0</ele><time>2026-04-05T15:26:01.001Z</time></trkpt><trkpt lat="45.34404270039266" lon="5.944427468877226"><ele>238.5</ele><time>2026-04-05T15:26:02.001Z</time></trkpt><trkpt lat="45.34381289419142" lon="5.944365972008465"><ele>238.0</ele><time>2026-04-05T15:26:03.001Z</time></trkpt><trkpt lat="45.343596377161305" lon="5.944310310925761"><ele>238.0</ele><time>2026-04-05T15:26:04.001Z</time></trkpt><trkpt lat="45.34339156733366" lon="5.944252311995221"><ele>238.0</ele><time>2026-04-05T15:26:05.002Z</time></trkpt><trkpt lat="45.343203696597065" lon="5.944200802267079"><ele>238.0</ele><time>2026-04-05T15:26:06.002Z</time></trkpt><trkpt lat="45.343023291235724" lon="5.944144357245167"><ele>238.66666666666666</ele><time>2026-04-05T15:26:07.002Z</time></trkpt><trkpt lat="45.342851506701535" lon="5.944103881837973"><ele>239.33333333333331</ele><time>2026-04-05T15:26:08.002Z</time></trkpt><trkpt lat="45.34267998817094" lon="5.9440636706728585"><ele>240.0</ele><time>2026-04-05T15:26:09.002Z</time></trkpt><trkpt lat="45.342507362497955" lon="5.944017016222097"><ele>240.0</ele><time>2026-04-05T15:26:10.002Z</time></trkpt><trkpt lat="45.34233344354463" lon="5.943962687464698"><ele>240.0</ele><time>2026-04-05T15:26:11.002Z</time></trkpt><trkpt lat="45.34216250200978" lon="5.943903844200554"><ele>240.0</ele><time>2026-04-05T15:26:12.002Z</time></trkpt><trkpt lat="45.34199620748337" lon="5.943833926040034"><ele>239.0</ele><time>2026-04-05T15:26:13.002Z</time></trkpt><trkpt lat="45.3418432315559" lon="5.943755174477815"><ele>238.0</ele><time>2026-04-05T15:26:14.002Z</time></trkpt><trkpt lat="45.341691647410094" lon="5.943667805120366"><ele>237.0</ele><time>2026-04-05T15:26:15.002Z</time></trkpt><trkpt lat="45.34154189978906" lon="5.943583010115282"><ele>237.0</ele><time>2026-04-05T15:26:16.002Z</time></trkpt><trkpt lat="45.34139080243711" lon="5.943503108026124"><ele>237.0</ele><time>2026-04-05T15:26:17.002Z</time></trkpt><trkpt lat="45.34125310834679" lon="5.943409749383551"><ele>237.0</ele><time>2026-04-05T15:26:18.002Z</time></trkpt><trkpt lat="45.341104179453346" lon="5.9433338318808895"><ele>237.66666666666669</ele><time>2026-04-05T15:26:19.002Z</time></trkpt><trkpt lat="45.3409551501188" lon="5.943247192660008"><ele>238.33333333333334</ele><time>2026-04-05T15:26:20.002Z</time></trkpt><trkpt lat="45.34080848158015" lon="5.943172741931863"><ele>239.0</ele><time>2026-04-05T15:26:21.002Z</time></trkpt><trkpt lat="45.34066154894741" lon="5.943094431562539"><ele>239.0</ele><time>2026-04-05T15:26:22.002Z</time></trkpt><trkpt lat="45.340510007038226" lon="5.943017357442038"><ele>239.0</ele><time>2026-04-05T15:26:23.002Z</time></trkpt><trkpt lat="45.340363059798406" lon="5.942937568495479"><ele>239.0</ele><time>2026-04-05T15:26:24.002Z</time></trkpt><trkpt lat="45.34022057317608" lon="5.942860124969285"><ele>239.0</ele><time>2026-04-05T15:26:25.002Z</time></trkpt><trkpt lat="45.34007724354025" lon="5.942785133804161"><ele>239.0</ele><time>2026-04-05T15:26:26.002Z</time></trkpt><trkpt lat="45.33993658316477" lon="5.942706799836785"><ele>239.0</ele><time>2026-04-05T15:26:27.002Z</time></trkpt><trkpt lat="45.339799095601926" lon="5.942633956092678"><ele>239.25</ele><time>2026-04-05T15:26:28.002Z</time></trkpt><trkpt lat="45.33966693342141" lon="5.942566492556086"><ele>239.5</ele><time>2026-04-05T15:26:29.002Z</time></trkpt><trkpt lat="45.3395374912243" lon="5.942499660287597"><ele>239.75</ele><time>2026-04-05T15:26:30Z</time></trkpt><trkpt lat="45.33940484104946" lon="5.94243473285407"><ele>240.0</ele><time>2026-04-05T15:26:31Z</time></trkpt><trkpt lat="45.33926360461145" lon="5.9423714501448694"><ele>240.0</ele><time>2026-04-05T15:26:32Z</time></trkpt><trkpt lat="45.339122515657195" lon="5.9422988387535565"><ele>240.0</ele><time>2026-04-05T15:26:33Z</time></trkpt><trkpt lat="45.338981563702774" lon="5.942225900684444"><ele>240.0</ele><time>2026-04-05T15:26:34Z</time></trkpt><trkpt lat="45.33884257757844" lon="5.942148780031848"><ele>240.0</ele><time>2026-04-05T15:26:35Z</time></trkpt><trkpt lat="45.33870412927582" lon="5.94206463931503"><ele>240.0</ele><time>2026-04-05T15:26:36Z</time></trkpt><trkpt lat="45.338568961693305" lon="5.94198216547527"><ele>240.0</ele><time>2026-04-05T15:26:37Z</time></trkpt><trkpt lat="45.33842501428895" lon="5.9419080466146506"><ele>240.0</ele><time>2026-04-05T15:26:38Z</time></trkpt><trkpt lat="45.33827667766173" lon="5.941829598384547"><ele>240.0</ele><time>2026-04-05T15:26:39Z</time></trkpt><trkpt lat="45.33811965091511" lon="5.941749635784485"><ele>240.0</ele><time>2026-04-05T15:26:40Z</time></trkpt><trkpt lat="45.33796395944824" lon="5.941629916294173"><ele>240.0</ele><time>2026-04-05T15:26:41Z</time></trkpt><trkpt lat="45.33779657171487" lon="5.941539195033014"><ele>239.66666666666669</ele><time>2026-04-05T15:26:42Z</time></trkpt><trkpt lat="45.3376269051351" lon="5.941447238675451"><ele>239.33333333333334</ele><time>2026-04-05T15:26:43Z</time></trkpt><trkpt lat="45.337454154389526" lon="5.941353610754346"><ele>239.0</ele><time>2026-04-05T15:26:44Z</time></trkpt><trkpt lat="45.33728863393882" lon="5.941263928956615"><ele>238.66666666666669</ele><time>2026-04-05T15:26:45Z</time></trkpt><trkpt lat="45.337104541162695" lon="5.941165232589388"><ele>238.33333333333331</ele><time>2026-04-05T15:26:46Z</time></trkpt><trkpt lat="45.33689863614694" lon="5.941054842179435"><ele>238.0</ele><time>2026-04-05T15:26:47Z</time></trkpt><trkpt lat="45.33666097985818" lon="5.940926776282849"><ele>238.5</ele><time>2026-04-05T15:26:48Z</time></trkpt><trkpt lat="45.33641430624173" lon="5.94081911267381"><ele>239.0</ele><time>2026-04-05T15:26:49Z</time></trkpt><trkpt lat="45.33617819131389" lon="5.9406802899500315"><ele>239.0</ele><time>2026-04-05T15:26:50Z</time></trkpt><trkpt lat="45.33594823704409" lon="5.9405496230001855"><ele>239.0</ele><time>2026-04-05T15:26:51Z</time></trkpt><trkpt lat="45.33571545416146" lon="5.940426101678381"><ele>239.0</ele><time>2026-04-05T15:26:52Z</time></trkpt><trkpt lat="45.33548840329096" lon="5.940308877366009"><ele>239.0</ele><time>2026-04-05T15:26:53Z</time></trkpt><trkpt lat="45.335262016624405" lon="5.940191063332175"><ele>239.0</ele><time>2026-04-05T15:26:54Z</time></trkpt><trkpt lat="45.33503864529788" lon="5.940071434806758"><ele>239.0</ele><time>2026-04-05T15:26:55Z</time></trkpt><trkpt lat="45.33481583904866" lon="5.939946850974611"><ele>239.5</ele><time>2026-04-05T15:26:56Z</time></trkpt><trkpt lat="45.33459518437356" lon="5.939830649817215"><ele>240.0</ele><time>2026-04-05T15:26:57Z</time></trkpt><trkpt lat="45.33437434886894" lon="5.939728545362173"><ele>240.0</ele><time>2026-04-05T15:26:58Z</time></trkpt><trkpt lat="45.3341631031575" lon="5.939597602543129"><ele>240.0</ele><time>2026-04-05T15:26:59Z</time></trkpt><trkpt lat="45.33394262193855" lon="5.93949874462441"><ele>239.0</ele><time>2026-04-05T15:27:00Z</time></trkpt><trkpt lat="45.33372529437424" lon="5.93938252758023"><ele>238.0</ele><time>2026-04-05T15:27:01Z</time></trkpt><trkpt lat="45.3335066306885" lon="5.9392661107915625"><ele>238.5</ele><time>2026-04-05T15:27:02Z</time></trkpt><trkpt lat="45.33328886600632" lon="5.93913927032134"><ele>239.0</ele><time>2026-04-05T15:27:03Z</time></trkpt><trkpt lat="45.33307445697945" lon="5.93898408785267"><ele>238.0</ele><time>2026-04-05T15:27:04Z</time></trkpt><trkpt lat="45.33285720623257" lon="5.938811510282809"><ele>237.0</ele><time>2026-04-05T15:27:05Z</time></trkpt><trkpt lat="45.33261895314508" lon="5.938789963676078"><ele>237.0</ele><time>2026-04-05T15:27:06Z</time></trkpt><trkpt lat="45.33240247129083" lon="5.938655012135676"><ele>237.0</ele><time>2026-04-05T15:27:07Z</time></trkpt><trkpt lat="45.33217387883264" lon="5.93855052527616"><ele>236.0</ele><time>2026-04-05T15:27:08Z</time></trkpt><trkpt lat="45.33194267990021" lon="5.938396011267547"><ele>235.0</ele><time>2026-04-05T15:27:09Z</time></trkpt><trkpt lat="45.3317410066581" lon="5.938274334273242"><ele>235.0</ele><time>2026-04-05T15:27:10Z</time></trkpt><trkpt lat="45.33158820568884" lon="5.938238342744977"><ele>235.0</ele><time>2026-04-05T15:27:11.001Z</time></trkpt><trkpt lat="45.33139779608414" lon="5.938136529438804"><ele>235.0</ele><time>2026-04-05T15:27:12.001Z</time></trkpt><trkpt lat="45.33122687861011" lon="5.9380471303125155"><ele>235.33333333333331</ele><time>2026-04-05T15:27:13.001Z</time></trkpt><trkpt lat="45.331067703760375" lon="5.937960926165435"><ele>235.66666666666669</ele><time>2026-04-05T15:27:14.001Z</time></trkpt><trkpt lat="45.33091432414371" lon="5.937870741901858"><ele>236.0</ele><time>2026-04-05T15:27:15.001Z</time></trkpt><trkpt lat="45.33076776277441" lon="5.937792170506184"><ele>236.0</ele><time>2026-04-05T15:27:16.001Z</time></trkpt><trkpt lat="45.33063553592263" lon="5.9377165997800105"><ele>236.0</ele><time>2026-04-05T15:27:17.001Z</time></trkpt><trkpt lat="45.33050893455529" lon="5.9376715479052935"><ele>236.0</ele><time>2026-04-05T15:27:18.001Z</time></trkpt><trkpt lat="45.330384619419085" lon="5.937616514529802"><ele>236.0</ele><time>2026-04-05T15:27:19.001Z</time></trkpt><trkpt lat="45.3302548804402" lon="5.937558526969401"><ele>237.25</ele><time>2026-04-05T15:27:20.001Z</time></trkpt><trkpt lat="45.33013172778452" lon="5.9375020477864995"><ele>238.5</ele><time>2026-04-05T15:27:21.001Z</time></trkpt><trkpt lat="45.33000565844709" lon="5.937464373637854"><ele>239.75</ele><time>2026-04-05T15:27:22.001Z</time></trkpt><trkpt lat="45.32986504200465" lon="5.93743263712125"><ele>241.0</ele><time>2026-04-05T15:27:23.001Z</time></trkpt><trkpt lat="45.32970613238372" lon="5.937396987241208"><ele>241.0</ele><time>2026-04-05T15:27:24.001Z</time></trkpt><trkpt lat="45.32952956760927" lon="5.9373611177769"><ele>241.0</ele><time>2026-04-05T15:27:25.001Z</time></trkpt><trkpt lat="45.329341213147806" lon="5.937319249604238"><ele>241.0</ele><time>2026-04-05T15:27:26.001Z</time></trkpt><trkpt lat="45.3291419906087" lon="5.937277825083461"><ele>241.0</ele><time>2026-04-05T15:27:27.001Z</time></trkpt><trkpt lat="45.3289366020854" lon="5.937253273771576"><ele>241.0</ele><time>2026-04-05T15:27:28.001Z</time></trkpt><trkpt lat="45.32873754178075" lon="5.9372231071995705"><ele>241.0</ele><time>2026-04-05T15:27:29.001Z</time></trkpt><trkpt lat="45.32854312838195" lon="5.93719631765436"><ele>242.66666666666666</ele><time>2026-04-05T15:27:30.001Z</time></trkpt><trkpt lat="45.328340676442004" lon="5.937170236950269"><ele>244.33333333333331</ele><time>2026-04-05T15:27:31.001Z</time></trkpt><trkpt lat="45.328135934728245" lon="5.93713910809507"><ele>246.0</ele><time>2026-04-05T15:27:32.001Z</time></trkpt><trkpt lat="45.32792884664276" lon="5.937105773921461"><ele>247.33333333333331</ele><time>2026-04-05T15:27:33.001Z</time></trkpt><trkpt lat="45.32772209415833" lon="5.937061200247854"><ele>248.66666666666666</ele><time>2026-04-05T15:27:34.001Z</time></trkpt><trkpt lat="45.327508568785554" lon="5.936996849397577"><ele>250.0</ele><time>2026-04-05T15:27:35.001Z</time></trkpt><trkpt lat="45.32729820063256" lon="5.936926389071678"><ele>250.33333333333331</ele><time>2026-04-05T15:27:36.001Z</time></trkpt><trkpt lat="45.327085431437396" lon="5.93684709701007"><ele>250.66666666666669</ele><time>2026-04-05T15:27:37.001Z</time></trkpt><trkpt lat="45.326871224412024" lon="5.936751558812353"><ele>251.0</ele><time>2026-04-05T15:27:38.001Z</time></trkpt><trkpt lat="45.32665417288342" lon="5.936617429973762"><ele>251.5</ele><time>2026-04-05T15:27:39.001Z</time></trkpt><trkpt lat="45.32643699682903" lon="5.9364828616763345"><ele>252.0</ele><time>2026-04-05T15:27:40.001Z</time></trkpt><trkpt lat="45.32623691713211" lon="5.936332044900666"><ele>250.0</ele><time>2026-04-05T15:27:41.001Z</time></trkpt><trkpt lat="45.32604393102567" lon="5.936155282922021"><ele>248.0</ele><time>2026-04-05T15:27:42.001Z</time></trkpt><trkpt lat="45.325863282883375" lon="5.935966145777018"><ele>248.33333333333334</ele><time>2026-04-05T15:27:43.001Z</time></trkpt><trkpt lat="45.32569432350335" lon="5.935783715983225"><ele>248.66666666666669</ele><time>2026-04-05T15:27:44.001Z</time></trkpt><trkpt lat="45.32553748178044" lon="5.935609434842744"><ele>249.0</ele><time>2026-04-05T15:27:45.001Z</time></trkpt><trkpt lat="45.325387430636006" lon="5.935439736081745"><ele>249.0</ele><time>2026-04-05T15:27:46.001Z</time></trkpt><trkpt lat="45.32523373999976" lon="5.9352801060256315"><ele>249.0</ele><time>2026-04-05T15:27:47.001Z</time></trkpt><trkpt lat="45.32508184480186" lon="5.935107011989568"><ele>249.0</ele><time>2026-04-05T15:27:48.001Z</time></trkpt><trkpt lat="45.32492850109829" lon="5.934939885635647"><ele>249.33333333333331</ele><time>2026-04-05T15:27:49.001Z</time></trkpt><trkpt lat="45.32477130267661" lon="5.934766483634549"><ele>249.66666666666666</ele><time>2026-04-05T15:27:50.001Z</time></trkpt><trkpt lat="45.32461099870504" lon="5.934587373450231"><ele>250.0</ele><time>2026-04-05T15:27:51.001Z</time></trkpt><trkpt lat="45.324443139228535" lon="5.934408575635853"><ele>250.0</ele><time>2026-04-05T15:27:52.001Z</time></trkpt><trkpt lat="45.32427533274099" lon="5.934224038935055"><ele>250.0</ele><time>2026-04-05T15:27:53.001Z</time></trkpt><trkpt lat="45.324106461127585" lon="5.934040441336069"><ele>250.0</ele><time>2026-04-05T15:27:54.001Z</time></trkpt><trkpt lat="45.32394839178476" lon="5.933860003878137"><ele>249.66666666666666</ele><time>2026-04-05T15:27:55.001Z</time></trkpt><trkpt lat="45.32379910851306" lon="5.933692627431559"><ele>249.33333333333331</ele><time>2026-04-05T15:27:56.001Z</time></trkpt><trkpt lat="45.32364984522609" lon="5.933529927213546"><ele>249.0</ele><time>2026-04-05T15:27:57.001Z</time></trkpt><trkpt lat="45.32350227857549" lon="5.933356526405352"><ele>249.66666666666669</ele><time>2026-04-05T15:27:58.001Z</time></trkpt><trkpt lat="45.32335079620571" lon="5.93319468826764"><ele>250.33333333333334</ele><time>2026-04-05T15:27:59.001Z</time></trkpt><trkpt lat="45.32321549671071" lon="5.933036602990925"><ele>251.0</ele><time>2026-04-05T15:28:00.001Z</time></trkpt><trkpt lat="45.323088480986236" lon="5.932892415959304"><ele>250.66666666666669</ele><time>2026-04-05T15:28:01.001Z</time></trkpt><trkpt lat="45.322963325278565" lon="5.932769010981099"><ele>250.33333333333331</ele><time>2026-04-05T15:28:02.001Z</time></trkpt><trkpt lat="45.3228475462416" lon="5.932617546737972"><ele>250.0</ele><time>2026-04-05T15:28:03.001Z</time></trkpt><trkpt lat="45.32272145145447" lon="5.932469319732169"><ele>250.0</ele><time>2026-04-05T15:28:04.001Z</time></trkpt><trkpt lat="45.322591161764784" lon="5.93230800133975"><ele>250.0</ele><time>2026-04-05T15:28:05.001Z</time></trkpt><trkpt lat="45.32245574730976" lon="5.932143973046173"><ele>250.0</ele><time>2026-04-05T15:28:06.001Z</time></trkpt><trkpt lat="45.322314182498054" lon="5.931965703897924"><ele>248.33333333333331</ele><time>2026-04-05T15:28:07.001Z</time></trkpt><trkpt lat="45.32216381672401" lon="5.931773495576884"><ele>246.66666666666669</ele><time>2026-04-05T15:28:08.001Z</time></trkpt><trkpt lat="45.322010863968785" lon="5.931575035627437"><ele>245.0</ele><time>2026-04-05T15:28:09.001Z</time></trkpt><trkpt lat="45.32185807093216" lon="5.931372660659947"><ele>245.0</ele><time>2026-04-05T15:28:10.001Z</time></trkpt><trkpt lat="45.321705354678784" lon="5.93116750254481"><ele>245.0</ele><time>2026-04-05T15:28:11.001Z</time></trkpt><trkpt lat="45.32155908851911" lon="5.930962807427298"><ele>245.0</ele><time>2026-04-05T15:28:12.001Z</time></trkpt><trkpt lat="45.3214154496204" lon="5.930755587700262"><ele>243.0</ele><time>2026-04-05T15:28:13.001Z</time></trkpt><trkpt lat="45.32127143021101" lon="5.930547615792346"><ele>241.0</ele><time>2026-04-05T15:28:14.001Z</time></trkpt><trkpt lat="45.32112480848417" lon="5.930338713492686"><ele>239.0</ele><time>2026-04-05T15:28:15.001Z</time></trkpt><trkpt lat="45.32097799347545" lon="5.930128613373028"><ele>239.33333333333334</ele><time>2026-04-05T15:28:16.001Z</time></trkpt><trkpt lat="45.320834493693575" lon="5.929915387104053"><ele>239.66666666666669</ele><time>2026-04-05T15:28:17.002Z</time></trkpt><trkpt lat="45.320692002454024" lon="5.9296978912751275"><ele>240.0</ele><time>2026-04-05T15:28:18.002Z</time></trkpt><trkpt lat="45.320551618699774" lon="5.929485083462874"><ele>239.33333333333331</ele><time>2026-04-05T15:28:19.002Z</time></trkpt><trkpt lat="45.32041319837922" lon="5.9292757856997556"><ele>238.66666666666666</ele><time>2026-04-05T15:28:20.002Z</time></trkpt><trkpt lat="45.32027699878941" lon="5.929071258083604"><ele>238.0</ele><time>2026-04-05T15:28:21.002Z</time></trkpt><trkpt lat="45.32015687927163" lon="5.928900703475629"><ele>239.66666666666666</ele><time>2026-04-05T15:28:22.002Z</time></trkpt><trkpt lat="45.32001164440152" lon="5.928686949929515"><ele>241.33333333333331</ele><time>2026-04-05T15:28:23.002Z</time></trkpt><trkpt lat="45.31987941490163" lon="5.928494639292585"><ele>243.0</ele><time>2026-04-05T15:28:24.002Z</time></trkpt><trkpt lat="45.31975306283214" lon="5.9283056339032445"><ele>244.66666666666669</ele><time>2026-04-05T15:28:25.002Z</time></trkpt><trkpt lat="45.319629193746955" lon="5.928122789256224"><ele>246.33333333333334</ele><time>2026-04-05T15:28:26.002Z</time></trkpt><trkpt lat="45.319509283834606" lon="5.927960459298581"><ele>248.0</ele><time>2026-04-05T15:28:27.002Z</time></trkpt><trkpt lat="45.31939553599631" lon="5.927837582938222"><ele>248.0</ele><time>2026-04-05T15:28:28.002Z</time></trkpt><trkpt lat="45.319285479411455" lon="5.927614125687518"><ele>248.0</ele><time>2026-04-05T15:28:29.002Z</time></trkpt><trkpt lat="45.31917624735688" lon="5.927443605939466"><ele>248.0</ele><time>2026-04-05T15:28:30.002Z</time></trkpt><trkpt lat="45.31906524232582" lon="5.927276978502543"><ele>249.0</ele><time>2026-04-05T15:28:31.002Z</time></trkpt><trkpt lat="45.31895476651575" lon="5.927122290823547"><ele>250.0</ele><time>2026-04-05T15:28:32.002Z</time></trkpt><trkpt lat="45.31884658318249" lon="5.926957788313655"><ele>251.0</ele><time>2026-04-05T15:28:33.002Z</time></trkpt><trkpt lat="45.318737209396886" lon="5.926798788318824"><ele>252.25</ele><time>2026-04-05T15:28:34.002Z</time></trkpt><trkpt lat="45.31863169621081" lon="5.9266450462457385"><ele>253.5</ele><time>2026-04-05T15:28:35.002Z</time></trkpt><trkpt lat="45.318537001228236" lon="5.926499702982323"><ele>254.75</ele><time>2026-04-05T15:28:36Z</time></trkpt><trkpt lat="45.318441985478685" lon="5.926369815191479"><ele>256.0</ele><time>2026-04-05T15:28:37Z</time></trkpt><trkpt lat="45.31835024159616" lon="5.926244875060845"><ele>256.0</ele><time>2026-04-05T15:28:38Z</time></trkpt><trkpt lat="45.318259280250324" lon="5.9261249371352624"><ele>256.0</ele><time>2026-04-05T15:28:39Z</time></trkpt><trkpt lat="45.31816237559893" lon="5.926016497330963"><ele>256.0</ele><time>2026-04-05T15:28:40Z</time></trkpt><trkpt lat="45.31807333477602" lon="5.925907959355336"><ele>256.0</ele><time>2026-04-05T15:28:41Z</time></trkpt><trkpt lat="45.317984148670206" lon="5.925803609042013"><ele>256.75</ele><time>2026-04-05T15:28:42Z</time></trkpt><trkpt lat="45.31788785285056" lon="5.925713772740659"><ele>257.5</ele><time>2026-04-05T15:28:43Z</time></trkpt><trkpt lat="45.31779146557603" lon="5.925626719483114"><ele>258.25</ele><time>2026-04-05T15:28:44Z</time></trkpt><trkpt lat="45.317694962050595" lon="5.9255473537280094"><ele>259.0</ele><time>2026-04-05T15:28:45Z</time></trkpt><trkpt lat="45.31759681900857" lon="5.92546380046908"><ele>259.0</ele><time>2026-04-05T15:28:46Z</time></trkpt><trkpt lat="45.317496176976434" lon="5.925390338835528"><ele>259.0</ele><time>2026-04-05T15:28:47Z</time></trkpt><trkpt lat="45.31739627480822" lon="5.925316818950145"><ele>259.0</ele><time>2026-04-05T15:28:48Z</time></trkpt><trkpt lat="45.31729132187103" lon="5.9252511799418865"><ele>259.0</ele><time>2026-04-05T15:28:49Z</time></trkpt><trkpt lat="45.31717489156372" lon="5.925168327556032"><ele>258.75</ele><time>2026-04-05T15:28:50Z</time></trkpt><trkpt lat="45.317046738182924" lon="5.925080522477457"><ele>258.5</ele><time>2026-04-05T15:28:51Z</time></trkpt><trkpt lat="45.316912791202874" lon="5.9249803520764335"><ele>258.25</ele><time>2026-04-05T15:28:52Z</time></trkpt><trkpt lat="45.31677546914154" lon="5.924881519513834"><ele>258.0</ele><time>2026-04-05T15:28:53Z</time></trkpt><trkpt lat="45.316634018918" lon="5.924782972092695"><ele>258.75</ele><time>2026-04-05T15:28:54Z</time></trkpt><trkpt lat="45.316492199877125" lon="5.924699293608981"><ele>259.5</ele><time>2026-04-05T15:28:55Z</time></trkpt><trkpt lat="45.31635752200872" lon="5.924617947446173"><ele>260.25</ele><time>2026-04-05T15:28:56Z</time></trkpt><trkpt lat="45.31623408495409" lon="5.924541808405417"><ele>261.0</ele><time>2026-04-05T15:28:57Z</time></trkpt><trkpt lat="45.31612317091075" lon="5.924472369737272"><ele>261.0</ele><time>2026-04-05T15:28:58Z</time></trkpt><trkpt lat="45.31601718839608" lon="5.924396977895437"><ele>261.0</ele><time>2026-04-05T15:28:59Z</time></trkpt><trkpt lat="45.31590933014362" lon="5.924320935977792"><ele>261.0</ele><time>2026-04-05T15:29:00Z</time></trkpt><trkpt lat="45.31579798859343" lon="5.924244710200631"><ele>261.0</ele><time>2026-04-05T15:29:01Z</time></trkpt><trkpt lat="45.31568524231829" lon="5.924173586694847"><ele>261.2</ele><time>2026-04-05T15:29:02Z</time></trkpt><trkpt lat="45.315578804960616" lon="5.924114040098967"><ele>261.40000000000003</ele><time>2026-04-05T15:29:03Z</time></trkpt><trkpt lat="45.31548073244242" lon="5.924059691618829"><ele>261.6</ele><time>2026-04-05T15:29:04Z</time></trkpt><trkpt lat="45.31538615210462" lon="5.924004264985338"><ele>261.8</ele><time>2026-04-05T15:29:05Z</time></trkpt><trkpt lat="45.315291681437465" lon="5.923944647726762"><ele>262.0</ele><time>2026-04-05T15:29:06Z</time></trkpt><trkpt lat="45.31517898204589" lon="5.923875184354084"><ele>261.25</ele><time>2026-04-05T15:29:07Z</time></trkpt><trkpt lat="45.31505250712196" lon="5.923804813174007"><ele>260.5</ele><time>2026-04-05T15:29:08Z</time></trkpt><trkpt lat="45.31493608231784" lon="5.923727963470969"><ele>259.75</ele><time>2026-04-05T15:29:09Z</time></trkpt><trkpt lat="45.31481806284997" lon="5.9236531517397415"><ele>259.0</ele><time>2026-04-05T15:29:10Z</time></trkpt><trkpt lat="45.314698848572526" lon="5.923578172204227"><ele>258.75</ele><time>2026-04-05T15:29:11Z</time></trkpt><trkpt lat="45.31458359652199" lon="5.9235019321492315"><ele>258.5</ele><time>2026-04-05T15:29:12Z</time></trkpt><trkpt lat="45.31446832500845" lon="5.923431305640735"><ele>258.25</ele><time>2026-04-05T15:29:13Z</time></trkpt><trkpt lat="45.314354696840624" lon="5.923346255815086"><ele>258.0</ele><time>2026-04-05T15:29:14Z</time></trkpt><trkpt lat="45.314239565241664" lon="5.923242204254556"><ele>258.0</ele><time>2026-04-05T15:29:15Z</time></trkpt><trkpt lat="45.31411373535596" lon="5.923113704512835"><ele>258.0</ele><time>2026-04-05T15:29:16.001Z</time></trkpt><trkpt lat="45.3139885652234" lon="5.922991341729881"><ele>258.0</ele><time>2026-04-05T15:29:17.001Z</time></trkpt><trkpt lat="45.313864023417096" lon="5.922847064044426"><ele>258.0</ele><time>2026-04-05T15:29:18.001Z</time></trkpt><trkpt lat="45.31374114611012" lon="5.922683788520654"><ele>258.0</ele><time>2026-04-05T15:29:19.001Z</time></trkpt><trkpt lat="45.31361140488948" lon="5.922508585898033"><ele>258.0</ele><time>2026-04-05T15:29:20.001Z</time></trkpt><trkpt lat="45.31349406831039" lon="5.922306977337974"><ele>258.0</ele><time>2026-04-05T15:29:21.001Z</time></trkpt><trkpt lat="45.31339343498709" lon="5.922088766233873"><ele>258.0</ele><time>2026-04-05T15:29:22.001Z</time></trkpt><trkpt lat="45.3132875366263" lon="5.921867848637302"><ele>258.0</ele><time>2026-04-05T15:29:23.001Z</time></trkpt><trkpt lat="45.31317623087231" lon="5.921647967803891"><ele>257.6666666666667</ele><time>2026-04-05T15:29:24.001Z</time></trkpt><trkpt lat="45.31307071266789" lon="5.921426015787943"><ele>257.33333333333337</ele><time>2026-04-05T15:29:25.001Z</time></trkpt><trkpt lat="45.31296673036363" lon="5.921200845257825"><ele>257.0</ele><time>2026-04-05T15:29:26.001Z</time></trkpt><trkpt lat="45.312862427946214" lon="5.920991240747673"><ele>258.0</ele><time>2026-04-05T15:29:27.001Z</time></trkpt><trkpt lat="45.31275436772617" lon="5.920782813466293"><ele>259.0</ele><time>2026-04-05T15:29:28.001Z</time></trkpt><trkpt lat="45.31264623288428" lon="5.920571516404815"><ele>260.0</ele><time>2026-04-05T15:29:29.001Z</time></trkpt><trkpt lat="45.31254150570294" lon="5.92035615814037"><ele>260.0</ele><time>2026-04-05T15:29:30.001Z</time></trkpt><trkpt lat="45.31243963491838" lon="5.920141517896244"><ele>260.0</ele><time>2026-04-05T15:29:31.001Z</time></trkpt><trkpt lat="45.312345415526444" lon="5.919940469922543"><ele>260.0</ele><time>2026-04-05T15:29:32.001Z</time></trkpt><trkpt lat="45.31225289963759" lon="5.919753822715374"><ele>258.33333333333337</ele><time>2026-04-05T15:29:33.001Z</time></trkpt><trkpt lat="45.31215805112253" lon="5.919588171420937"><ele>256.6666666666667</ele><time>2026-04-05T15:29:34.001Z</time></trkpt><trkpt lat="45.312059748653404" lon="5.919430918009508"><ele>255.0</ele><time>2026-04-05T15:29:35.001Z</time></trkpt><trkpt lat="45.31195145578757" lon="5.91928038029734"><ele>255.5</ele><time>2026-04-05T15:29:36.001Z</time></trkpt><trkpt lat="45.31184229435476" lon="5.919133980314041"><ele>256.0</ele><time>2026-04-05T15:29:37.001Z</time></trkpt><trkpt lat="45.31173599305909" lon="5.918986755229165"><ele>256.5</ele><time>2026-04-05T15:29:38.001Z</time></trkpt><trkpt lat="45.311627174867404" lon="5.918839524253246"><ele>257.0</ele><time>2026-04-05T15:29:39.001Z</time></trkpt><trkpt lat="45.31152119463894" lon="5.918691733368093"><ele>257.0</ele><time>2026-04-05T15:29:40.001Z</time></trkpt><trkpt lat="45.311412530305255" lon="5.918543856011742"><ele>257.0</ele><time>2026-04-05T15:29:41.001Z</time></trkpt><trkpt lat="45.311306121899804" lon="5.918401801527556"><ele>257.0</ele><time>2026-04-05T15:29:42.001Z</time></trkpt><trkpt lat="45.31120265188801" lon="5.918273306898758"><ele>257.0</ele><time>2026-04-05T15:29:43.001Z</time></trkpt><trkpt lat="45.31110187755857" lon="5.918144309207592"><ele>256.0</ele><time>2026-04-05T15:29:44.001Z</time></trkpt><trkpt lat="45.31100941089219" lon="5.9180230201022646"><ele>255.0</ele><time>2026-04-05T15:29:45.001Z</time></trkpt><trkpt lat="45.31091612363668" lon="5.917904428507084"><ele>254.0</ele><time>2026-04-05T15:29:46.001Z</time></trkpt><trkpt lat="45.31082782240442" lon="5.917787756671194"><ele>253.0</ele><time>2026-04-05T15:29:47.001Z</time></trkpt><trkpt lat="45.31074426393843" lon="5.917672356394661"><ele>253.5</ele><time>2026-04-05T15:29:48.001Z</time></trkpt><trkpt lat="45.310661402820735" lon="5.917565399335006"><ele>254.0</ele><time>2026-04-05T15:29:49.001Z</time></trkpt><trkpt lat="45.31058399057245" lon="5.917460336267008"><ele>254.5</ele><time>2026-04-05T15:29:50.001Z</time></trkpt><trkpt lat="45.31050504858293" lon="5.917347756650769"><ele>255.0</ele><time>2026-04-05T15:29:51.001Z</time></trkpt><trkpt lat="45.31041144180887" lon="5.917230112199282"><ele>254.0</ele><time>2026-04-05T15:29:52.001Z</time></trkpt><trkpt lat="45.31030884951142" lon="5.917100362803489"><ele>253.0</ele><time>2026-04-05T15:29:53.001Z</time></trkpt><trkpt lat="45.31020365079246" lon="5.9169568477748795"><ele>252.0</ele><time>2026-04-05T15:29:54.001Z</time></trkpt><trkpt lat="45.310103838405" lon="5.9168223899788295"><ele>251.0</ele><time>2026-04-05T15:29:55.001Z</time></trkpt><trkpt lat="45.31001283136633" lon="5.9166946760585875"><ele>251.0</ele><time>2026-04-05T15:29:56.001Z</time></trkpt><trkpt lat="45.309918094315734" lon="5.916567677263896"><ele>251.0</ele><time>2026-04-05T15:29:57.001Z</time></trkpt><trkpt lat="45.30982580351477" lon="5.916445570153562"><ele>251.0</ele><time>2026-04-05T15:29:58.001Z</time></trkpt><trkpt lat="45.30973640258267" lon="5.916326332700167"><ele>251.0</ele><time>2026-04-05T15:29:59.001Z</time></trkpt><trkpt lat="45.309649632655265" lon="5.916214682902124"><ele>249.75</ele><time>2026-04-05T15:30:00.001Z</time></trkpt><trkpt lat="45.30956110313371" lon="5.9161024155253825"><ele>248.5</ele><time>2026-04-05T15:30:01.001Z</time></trkpt><trkpt lat="45.30947705831835" lon="5.915983971968482"><ele>247.25</ele><time>2026-04-05T15:30:02.001Z</time></trkpt><trkpt lat="45.309395035537" lon="5.9158761014354235"><ele>246.0</ele><time>2026-04-05T15:30:03.001Z</time></trkpt><trkpt lat="45.309314764358405" lon="5.915771331842479"><ele>246.0</ele><time>2026-04-05T15:30:04.001Z</time></trkpt><trkpt lat="45.309236937696035" lon="5.91566814034764"><ele>246.00000000000003</ele><time>2026-04-05T15:30:05.001Z</time></trkpt><trkpt lat="45.30916598299514" lon="5.915574455832846"><ele>246.00000000000003</ele><time>2026-04-05T15:30:06.001Z</time></trkpt><trkpt lat="45.30909369820266" lon="5.915480467141927"><ele>246.0</ele><time>2026-04-05T15:30:07.001Z</time></trkpt><trkpt lat="45.30902671674017" lon="5.915387325152132"><ele>246.0</ele><time>2026-04-05T15:30:08.001Z</time></trkpt><trkpt lat="45.30896050012139" lon="5.915298560020213"><ele>245.66666666666666</ele><time>2026-04-05T15:30:09.001Z</time></trkpt><trkpt lat="45.30889748713944" lon="5.915214495206417"><ele>245.33333333333331</ele><time>2026-04-05T15:30:10.001Z</time></trkpt><trkpt lat="45.30883432533629" lon="5.915136239081428"><ele>245.0</ele><time>2026-04-05T15:30:11.001Z</time></trkpt><trkpt lat="45.308774015649334" lon="5.915057630784514"><ele>244.66666666666666</ele><time>2026-04-05T15:30:12.001Z</time></trkpt><trkpt lat="45.30871604258278" lon="5.914976760582604"><ele>244.33333333333331</ele><time>2026-04-05T15:30:13.001Z</time></trkpt><trkpt lat="45.30865537667041" lon="5.914894832280479"><ele>244.0</ele><time>2026-04-05T15:30:14.001Z</time></trkpt><trkpt lat="45.30859414964363" lon="5.914804114854473"><ele>243.99999999999997</ele><time>2026-04-05T15:30:15.001Z</time></trkpt><trkpt lat="45.30853651503066" lon="5.914713971374819"><ele>244.0</ele><time>2026-04-05T15:30:16.001Z</time></trkpt><trkpt lat="45.308470654136" lon="5.9146224497234785"><ele>244.0</ele><time>2026-04-05T15:30:17.001Z</time></trkpt><trkpt lat="45.308407761595376" lon="5.914527347154997"><ele>244.0</ele><time>2026-04-05T15:30:18.001Z</time></trkpt><trkpt lat="45.30835071931019" lon="5.914433370399903"><ele>243.99999999999997</ele><time>2026-04-05T15:30:19.001Z</time></trkpt><trkpt lat="45.308293577642196" lon="5.914347744477005"><ele>244.0</ele><time>2026-04-05T15:30:20.001Z</time></trkpt><trkpt lat="45.30823572501001" lon="5.914267182046511"><ele>244.16666666666666</ele><time>2026-04-05T15:30:21.001Z</time></trkpt><trkpt lat="45.308180683149665" lon="5.914194463306015"><ele>244.33333333333331</ele><time>2026-04-05T15:30:22.001Z</time></trkpt><trkpt lat="45.308124787848676" lon="5.914125865922538"><ele>244.5</ele><time>2026-04-05T15:30:23.001Z</time></trkpt><trkpt lat="45.308072992290306" lon="5.9140576186354865"><ele>244.66666666666669</ele><time>2026-04-05T15:30:24.001Z</time></trkpt><trkpt lat="45.30802386404994" lon="5.913994254934808"><ele>244.83333333333334</ele><time>2026-04-05T15:30:25.001Z</time></trkpt><trkpt lat="45.307949484831134" lon="5.913897253972005"><ele>245.0</ele><time>2026-04-05T15:30:27.002Z</time></trkpt><trkpt lat="45.30789639779537" lon="5.913831984201427"><ele>244.50000000000003</ele><time>2026-04-05T15:30:30.002Z</time></trkpt><trkpt lat="45.30782490773528" lon="5.9137624371384705"><ele>244.0</ele><time>2026-04-05T15:30:35.002Z</time></trkpt><trkpt lat="45.3077688875912" lon="5.913688915805319"><ele>243.5</ele><time>2026-04-05T15:30:37.002Z</time></trkpt><trkpt lat="45.30769004623592" lon="5.913603654931015"><ele>243.0</ele><time>2026-04-05T15:30:39.002Z</time></trkpt><trkpt lat="45.307625444616185" lon="5.913530678983336"><ele>242.50000000000003</ele><time>2026-04-05T15:30:41.002Z</time></trkpt><trkpt lat="45.3075655089306" lon="5.913447927523663"><ele>242.0</ele><time>2026-04-05T15:30:43Z</time></trkpt><trkpt lat="45.30752004285935" lon="5.9133528114995455"><ele>242.00000000000003</ele><time>2026-04-05T15:30:45Z</time></trkpt><trkpt lat="45.30747356774841" lon="5.913284844200685"><ele>242.0</ele><time>2026-04-05T15:30:47Z</time></trkpt><trkpt lat="45.307397338794" lon="5.913190638433544"><ele>242.0</ele><time>2026-04-05T15:31:39.001Z</time></trkpt><trkpt lat="45.307342578419586" lon="5.913091141367901"><ele>242.0</ele><time>2026-04-05T15:31:41.001Z</time></trkpt><trkpt lat="45.30728478844934" lon="5.912995024558741"><ele>242.00000000000003</ele><time>2026-04-05T15:31:43.001Z</time></trkpt><trkpt lat="45.30723321126101" lon="5.912899339392156"><ele>242.0</ele><time>2026-04-05T15:31:45.001Z</time></trkpt><trkpt lat="45.30718925502424" lon="5.91281799372638"><ele>241.2</ele><time>2026-04-05T15:31:48.001Z</time></trkpt><trkpt lat="45.30713367340369" lon="5.912711969041738"><ele>240.39999999999998</ele><time>2026-04-05T15:32:48.001Z</time></trkpt><trkpt lat="45.307061291195254" lon="5.912587645348716"><ele>239.60000000000002</ele><time>2026-04-05T15:32:50.001Z</time></trkpt><trkpt lat="45.30697951282398" lon="5.912455094277376"><ele>238.8</ele><time>2026-04-05T15:32:52.001Z</time></trkpt><trkpt lat="45.30692139870218" lon="5.912373379741743"><ele>238.0</ele><time>2026-04-05T15:32:53.001Z</time></trkpt><trkpt lat="45.30685906490129" lon="5.912291507629746"><ele>237.99999999999997</ele><time>2026-04-05T15:32:54.001Z</time></trkpt><trkpt lat="45.30679708042724" lon="5.9122100936184445"><ele>238.0</ele><time>2026-04-05T15:32:55.001Z</time></trkpt><trkpt lat="45.30672916055802" lon="5.912117619140383"><ele>238.0</ele><time>2026-04-05T15:32:56.001Z</time></trkpt><trkpt lat="45.306667015570504" lon="5.91202795703017"><ele>238.0</ele><time>2026-04-05T15:32:57.001Z</time></trkpt><trkpt lat="45.30660485099657" lon="5.911936012898142"><ele>237.99999999999997</ele><time>2026-04-05T15:32:58.001Z</time></trkpt><trkpt lat="45.30655585430329" lon="5.911827969159886"><ele>238.0</ele><time>2026-04-05T15:32:59.001Z</time></trkpt><trkpt lat="45.3065149004651" lon="5.911712657347927"><ele>238.49999999999997</ele><time>2026-04-05T15:33:00Z</time></trkpt><trkpt lat="45.306472887183766" lon="5.911602701038464"><ele>239.0</ele><time>2026-04-05T15:33:01Z</time></trkpt><trkpt lat="45.306433279755595" lon="5.911495069853559"><ele>239.5</ele><time>2026-04-05T15:33:02Z</time></trkpt><trkpt lat="45.30639498498899" lon="5.911387558791598"><ele>240.0</ele><time>2026-04-05T15:33:03Z</time></trkpt><trkpt lat="45.30635705402177" lon="5.911280528481317"><ele>240.49999999999997</ele><time>2026-04-05T15:33:04Z</time></trkpt><trkpt lat="45.3063186825195" lon="5.9111713335424305"><ele>241.0</ele><time>2026-04-05T15:33:05Z</time></trkpt><trkpt lat="45.30627934918246" lon="5.911062540157375"><ele>240.33333333333331</ele><time>2026-04-05T15:33:06Z</time></trkpt><trkpt lat="45.306240671719124" lon="5.910959170868576"><ele>239.66666666666666</ele><time>2026-04-05T15:33:07Z</time></trkpt><trkpt lat="45.306186968028065" lon="5.910857160514047"><ele>239.0</ele><time>2026-04-05T15:33:08Z</time></trkpt><trkpt lat="45.30614839176269" lon="5.910742102894832"><ele>238.33333333333331</ele><time>2026-04-05T15:33:09Z</time></trkpt><trkpt lat="45.306112200637514" lon="5.91062735427705"><ele>237.66666666666666</ele><time>2026-04-05T15:33:10Z</time></trkpt><trkpt lat="45.306058395589" lon="5.91051871198658"><ele>237.0</ele><time>2026-04-05T15:33:11Z</time></trkpt><trkpt lat="45.306001383156655" lon="5.910414225220192"><ele>237.0</ele><time>2026-04-05T15:33:12Z</time></trkpt><trkpt lat="45.305950532283774" lon="5.910293955666248"><ele>237.0</ele><time>2026-04-05T15:33:13.001Z</time></trkpt><trkpt lat="45.305891691125126" lon="5.910185124648932"><ele>237.0</ele><time>2026-04-05T15:33:14.001Z</time></trkpt><trkpt lat="45.30584044750044" lon="5.910090349555342"><ele>237.0</ele><time>2026-04-05T15:33:15.001Z</time></trkpt><trkpt lat="45.3056289915857" lon="5.910298890584437"><ele>235.66666666666669</ele><time>2026-04-05T15:33:16.001Z</time></trkpt><trkpt lat="45.30544866248099" lon="5.91020735539574"><ele>234.33333333333334</ele><time>2026-04-05T15:33:17.001Z</time></trkpt><trkpt lat="45.30533637768223" lon="5.910089785164612"><ele>233.0</ele><time>2026-04-05T15:33:18.001Z</time></trkpt><trkpt lat="45.305264980251714" lon="5.910247690875855"><ele>233.0</ele><time>2026-04-05T15:33:19.001Z</time></trkpt><trkpt lat="45.30516083459201" lon="5.910376294896496"><ele>233.0</ele><time>2026-04-05T15:33:20.001Z</time></trkpt><trkpt lat="45.30484623326616" lon="5.910184993470777"><ele>232.5</ele><time>2026-04-05T15:33:21.001Z</time></trkpt><trkpt lat="45.3046457774411" lon="5.910217030941846"><ele>232.0</ele><time>2026-04-05T15:33:22.001Z</time></trkpt><trkpt lat="45.305219723340734" lon="5.909018577069563"><ele>233.0</ele><time>2026-04-05T15:33:23.001Z</time></trkpt><trkpt lat="45.30512246839374" lon="5.9088429575047625"><ele>234.0</ele><time>2026-04-05T15:33:24.001Z</time></trkpt><trkpt lat="45.30503450725168" lon="5.908673920183667"><ele>235.0</ele><time>2026-04-05T15:33:25.001Z</time></trkpt><trkpt lat="45.30495597119539" lon="5.908521029390026"><ele>236.0</ele><time>2026-04-05T15:33:26.001Z</time></trkpt><trkpt lat="45.30486944404602" lon="5.908363953010676"><ele>235.25</ele><time>2026-04-05T15:33:27.001Z</time></trkpt><trkpt lat="45.304786075945344" lon="5.908204427248426"><ele>234.5</ele><time>2026-04-05T15:33:28.001Z</time></trkpt><trkpt lat="45.30470139826465" lon="5.90804027284335"><ele>233.75</ele><time>2026-04-05T15:33:29.001Z</time></trkpt><trkpt lat="45.30461751694031" lon="5.907870854565406"><ele>233.0</ele><time>2026-04-05T15:33:30.001Z</time></trkpt><trkpt lat="45.30453701133409" lon="5.907716892483533"><ele>233.0</ele><time>2026-04-05T15:33:31.001Z</time></trkpt><trkpt lat="45.30446563138325" lon="5.907580182765568"><ele>233.0</ele><time>2026-04-05T15:33:32.001Z</time></trkpt><trkpt lat="45.30439148088372" lon="5.907456676527363"><ele>233.0</ele><time>2026-04-05T15:33:33.001Z</time></trkpt><trkpt lat="45.30432264533647" lon="5.907331188420297"><ele>233.0</ele><time>2026-04-05T15:33:34.001Z</time></trkpt><trkpt lat="45.304254883480446" lon="5.907208037624693"><ele>233.5</ele><time>2026-04-05T15:33:35.001Z</time></trkpt><trkpt lat="45.304179143701525" lon="5.907077606567916"><ele>234.0</ele><time>2026-04-05T15:33:36.001Z</time></trkpt><trkpt lat="45.304103039250386" lon="5.9069288198180905"><ele>234.5</ele><time>2026-04-05T15:33:37.001Z</time></trkpt><trkpt lat="45.30402379078196" lon="5.906777753254173"><ele>235.0</ele><time>2026-04-05T15:33:38.001Z</time></trkpt><trkpt lat="45.3039386648295" lon="5.906616826214922"><ele>234.75</ele><time>2026-04-05T15:33:39.001Z</time></trkpt><trkpt lat="45.30386979686483" lon="5.906463911139217"><ele>234.5</ele><time>2026-04-05T15:33:40.001Z</time></trkpt><trkpt lat="45.303806621568064" lon="5.906320829435114"><ele>234.25</ele><time>2026-04-05T15:33:41.001Z</time></trkpt><trkpt lat="45.3037351924533" lon="5.906184919026816"><ele>234.0</ele><time>2026-04-05T15:33:42.001Z</time></trkpt><trkpt lat="45.30366663519549" lon="5.906061092409946"><ele>234.0</ele><time>2026-04-05T15:33:43.001Z</time></trkpt><trkpt lat="45.30360451334358" lon="5.905941383865549"><ele>233.99999999999997</ele><time>2026-04-05T15:33:44.001Z</time></trkpt><trkpt lat="45.303554488355715" lon="5.9058075085916535"><ele>233.99999999999997</ele><time>2026-04-05T15:33:45.001Z</time></trkpt><trkpt lat="45.303518739038275" lon="5.905675828112636"><ele>234.0</ele><time>2026-04-05T15:33:46.001Z</time></trkpt><trkpt lat="45.303466375761076" lon="5.905594488938954"><ele>234.0</ele><time>2026-04-05T15:33:47.001Z</time></trkpt><trkpt lat="45.30329989578409" lon="5.905466156252645"><ele>233.66666666666669</ele><time>2026-04-05T15:33:48.001Z</time></trkpt><trkpt lat="45.30319723553575" lon="5.905311275633453"><ele>233.33333333333334</ele><time>2026-04-05T15:33:49.001Z</time></trkpt><trkpt lat="45.303097867844954" lon="5.9051541173724615"><ele>233.0</ele><time>2026-04-05T15:33:50.001Z</time></trkpt><trkpt lat="45.30298444024193" lon="5.904995591379594"><ele>233.0</ele><time>2026-04-05T15:33:51.001Z</time></trkpt><trkpt lat="45.302839350264954" lon="5.904811036112799"><ele>233.0</ele><time>2026-04-05T15:33:52.001Z</time></trkpt><trkpt lat="45.302657715014945" lon="5.904592685675506"><ele>233.0</ele><time>2026-04-05T15:33:53.001Z</time></trkpt><trkpt lat="45.3024593288362" lon="5.904329154266056"><ele>234.5</ele><time>2026-04-05T15:33:54.001Z</time></trkpt><trkpt lat="45.302267681599" lon="5.904053165074325"><ele>236.0</ele><time>2026-04-05T15:33:55.001Z</time></trkpt><trkpt lat="45.30208344762726" lon="5.903801466720044"><ele>236.0</ele><time>2026-04-05T15:33:56.001Z</time></trkpt><trkpt lat="45.30190222058668" lon="5.903562649298081"><ele>236.0</ele><time>2026-04-05T15:33:57.001Z</time></trkpt><trkpt lat="45.30172349689269" lon="5.903332918175561"><ele>237.5</ele><time>2026-04-05T15:33:58.001Z</time></trkpt><trkpt lat="45.301546836607216" lon="5.903102762192021"><ele>239.0</ele><time>2026-04-05T15:33:59.001Z</time></trkpt><trkpt lat="45.30136571390961" lon="5.9028708250180815"><ele>239.0</ele><time>2026-04-05T15:34:00.001Z</time></trkpt><trkpt lat="45.30118643939739" lon="5.902640462998569"><ele>239.0</ele><time>2026-04-05T15:34:01.001Z</time></trkpt><trkpt lat="45.3010139610457" lon="5.902411626899692"><ele>241.0</ele><time>2026-04-05T15:34:02.001Z</time></trkpt><trkpt lat="45.30083547980545" lon="5.902173387455286"><ele>243.0</ele><time>2026-04-05T15:34:03.001Z</time></trkpt><trkpt lat="45.300656497826196" lon="5.901937475236118"><ele>245.0</ele><time>2026-04-05T15:34:04.001Z</time></trkpt><trkpt lat="45.30047730548011" lon="5.901702475554199"><ele>247.0</ele><time>2026-04-05T15:34:05.001Z</time></trkpt><trkpt lat="45.30029767218697" lon="5.901466444085508"><ele>247.0</ele><time>2026-04-05T15:34:06.001Z</time></trkpt><trkpt lat="45.30011517317783" lon="5.901233851366825"><ele>247.0</ele><time>2026-04-05T15:34:07.001Z</time></trkpt><trkpt lat="45.29993942639102" lon="5.901010955337324"><ele>246.66666666666666</ele><time>2026-04-05T15:34:08.001Z</time></trkpt><trkpt lat="45.29977653051995" lon="5.900794871216713"><ele>246.33333333333331</ele><time>2026-04-05T15:34:09.001Z</time></trkpt><trkpt lat="45.29961789218183" lon="5.900593695108944"><ele>246.0</ele><time>2026-04-05T15:34:10.001Z</time></trkpt><trkpt lat="45.29946456129028" lon="5.900405570698393"><ele>246.0</ele><time>2026-04-05T15:34:11.001Z</time></trkpt><trkpt lat="45.29932608113848" lon="5.900221363430462"><ele>246.0</ele><time>2026-04-05T15:34:12.001Z</time></trkpt><trkpt lat="45.2991914760961" lon="5.900039411272068"><ele>246.0</ele><time>2026-04-05T15:34:13.001Z</time></trkpt><trkpt lat="45.29906259474141" lon="5.899869565513922"><ele>246.0</ele><time>2026-04-05T15:34:14.001Z</time></trkpt><trkpt lat="45.298962669536884" lon="5.8997081014262855"><ele>246.0</ele><time>2026-04-05T15:34:15.001Z</time></trkpt><trkpt lat="45.29884726712172" lon="5.899542997683714"><ele>246.0</ele><time>2026-04-05T15:34:16.001Z</time></trkpt><trkpt lat="45.29869662557716" lon="5.899391038950198"><ele>246.0</ele><time>2026-04-05T15:34:17.001Z</time></trkpt><trkpt lat="45.29857096592399" lon="5.899246278635443"><ele>246.0</ele><time>2026-04-05T15:34:18.001Z</time></trkpt><trkpt lat="45.298442595017384" lon="5.899099367292696"><ele>246.0</ele><time>2026-04-05T15:34:19.001Z</time></trkpt><trkpt lat="45.298311340370496" lon="5.898964437845435"><ele>246.0</ele><time>2026-04-05T15:34:20.001Z</time></trkpt><trkpt lat="45.29817106751489" lon="5.898843125240691"><ele>246.0</ele><time>2026-04-05T15:34:21.001Z</time></trkpt><trkpt lat="45.2980264774195" lon="5.898724906937965"><ele>246.0</ele><time>2026-04-05T15:34:22.001Z</time></trkpt><trkpt lat="45.29787272604273" lon="5.898618150397978"><ele>245.66666666666669</ele><time>2026-04-05T15:34:23.001Z</time></trkpt><trkpt lat="45.29773316205718" lon="5.898471148388111"><ele>245.33333333333334</ele><time>2026-04-05T15:34:24.001Z</time></trkpt><trkpt lat="45.29757199783738" lon="5.8983501366350835"><ele>245.0</ele><time>2026-04-05T15:34:25.001Z</time></trkpt><trkpt lat="45.29741657533136" lon="5.8982123035295"><ele>244.33333333333334</ele><time>2026-04-05T15:34:26.001Z</time></trkpt><trkpt lat="45.29725908357806" lon="5.898075896231813"><ele>243.66666666666669</ele><time>2026-04-05T15:34:27.001Z</time></trkpt><trkpt lat="45.29710208489087" lon="5.897941718979581"><ele>243.0</ele><time>2026-04-05T15:34:28.001Z</time></trkpt><trkpt lat="45.29694935049716" lon="5.897806983418916"><ele>242.66666666666669</ele><time>2026-04-05T15:34:29.001Z</time></trkpt><trkpt lat="45.296810715573486" lon="5.89768179561424"><ele>242.33333333333334</ele><time>2026-04-05T15:34:30.001Z</time></trkpt><trkpt lat="45.29668084869619" lon="5.897557138226087"><ele>242.0</ele><time>2026-04-05T15:34:31.001Z</time></trkpt><trkpt lat="45.29656362044677" lon="5.8974279521353274"><ele>242.0</ele><time>2026-04-05T15:34:32.001Z</time></trkpt><trkpt lat="45.29645330446006" lon="5.897329523411671"><ele>242.0</ele><time>2026-04-05T15:34:33.001Z</time></trkpt><trkpt lat="45.296344950830644" lon="5.897236578459939"><ele>242.0</ele><time>2026-04-05T15:34:34.001Z</time></trkpt><trkpt lat="45.29625409027888" lon="5.897147355589803"><ele>242.0</ele><time>2026-04-05T15:34:35.001Z</time></trkpt><trkpt lat="45.29618890454658" lon="5.897028074418627"><ele>241.2</ele><time>2026-04-05T15:34:36.001Z</time></trkpt><trkpt lat="45.296150218331036" lon="5.8968941120904095"><ele>240.39999999999998</ele><time>2026-04-05T15:34:37.001Z</time></trkpt><trkpt lat="45.29608561690744" lon="5.896806761970225"><ele>239.60000000000002</ele><time>2026-04-05T15:34:38.002Z</time></trkpt><trkpt lat="45.29600486708355" lon="5.896802359360277"><ele>238.8</ele><time>2026-04-05T15:34:39.002Z</time></trkpt><trkpt lat="45.29588836219191" lon="5.896760959871109"><ele>238.0</ele><time>2026-04-05T15:34:40.002Z</time></trkpt><trkpt lat="45.29577596375019" lon="5.896677808737537"><ele>238.5</ele><time>2026-04-05T15:34:41.002Z</time></trkpt><trkpt lat="45.295664488289354" lon="5.896617897364553"><ele>239.0</ele><time>2026-04-05T15:34:42.002Z</time></trkpt><trkpt lat="45.29555094657041" lon="5.896515259828024"><ele>239.5</ele><time>2026-04-05T15:34:43.002Z</time></trkpt><trkpt lat="45.295422835001844" lon="5.896419827000317"><ele>240.0</ele><time>2026-04-05T15:34:44.002Z</time></trkpt><trkpt lat="45.29529211273132" lon="5.896314847261015"><ele>240.0</ele><time>2026-04-05T15:34:45.002Z</time></trkpt><trkpt lat="45.295143900271995" lon="5.896197743576936"><ele>240.0</ele><time>2026-04-05T15:34:46.002Z</time></trkpt><trkpt lat="45.294978399743215" lon="5.896070852211091"><ele>240.0</ele><time>2026-04-05T15:34:47.002Z</time></trkpt><trkpt lat="45.294779771483185" lon="5.895916898839457"><ele>241.5</ele><time>2026-04-05T15:34:48.002Z</time></trkpt><trkpt lat="45.29457765158519" lon="5.89574879143612"><ele>243.0</ele><time>2026-04-05T15:34:49.002Z</time></trkpt><trkpt lat="45.29437343949338" lon="5.89556042338163"><ele>243.0</ele><time>2026-04-05T15:34:50.002Z</time></trkpt><trkpt lat="45.294161935903546" lon="5.89535264204195"><ele>243.0</ele><time>2026-04-05T15:34:51.002Z</time></trkpt><trkpt lat="45.29396001513206" lon="5.895151206703664"><ele>245.0</ele><time>2026-04-05T15:34:52.002Z</time></trkpt><trkpt lat="45.29378143810407" lon="5.894972947962218"><ele>247.0</ele><time>2026-04-05T15:34:53.002Z</time></trkpt><trkpt lat="45.29360870589336" lon="5.894805572246891"><ele>249.0</ele><time>2026-04-05T15:34:54Z</time></trkpt><trkpt lat="45.29344301472509" lon="5.894631191105231"><ele>249.0</ele><time>2026-04-05T15:34:55Z</time></trkpt><trkpt lat="45.293277115268545" lon="5.894454497351842"><ele>249.0</ele><time>2026-04-05T15:34:56Z</time></trkpt><trkpt lat="45.29312162016789" lon="5.8942698670295215"><ele>249.0</ele><time>2026-04-05T15:34:57Z</time></trkpt><trkpt lat="45.2929674244025" lon="5.894083126719289"><ele>247.0</ele><time>2026-04-05T15:34:58Z</time></trkpt><trkpt lat="45.29280757269268" lon="5.893903189947557"><ele>245.0</ele><time>2026-04-05T15:34:59Z</time></trkpt><trkpt lat="45.29264098915992" lon="5.893717993722754"><ele>243.0</ele><time>2026-04-05T15:35:00Z</time></trkpt><trkpt lat="45.292472950640956" lon="5.893521130362369"><ele>242.33333333333331</ele><time>2026-04-05T15:35:01Z</time></trkpt><trkpt lat="45.29230781483553" lon="5.89330710673487"><ele>241.66666666666666</ele><time>2026-04-05T15:35:02Z</time></trkpt><trkpt lat="45.29214586161993" lon="5.893084710735631"><ele>241.0</ele><time>2026-04-05T15:35:03Z</time></trkpt><trkpt lat="45.29197728715816" lon="5.892869132446523"><ele>241.0</ele><time>2026-04-05T15:35:04Z</time></trkpt><trkpt lat="45.29181598824202" lon="5.892663068859354"><ele>241.0</ele><time>2026-04-05T15:35:05Z</time></trkpt><trkpt lat="45.29168250531638" lon="5.8924512415532915"><ele>241.0</ele><time>2026-04-05T15:35:06Z</time></trkpt><trkpt lat="45.29153895419625" lon="5.892277819389329"><ele>241.33333333333331</ele><time>2026-04-05T15:35:07Z</time></trkpt><trkpt lat="45.29141374586522" lon="5.892094174295659"><ele>241.66666666666669</ele><time>2026-04-05T15:35:08Z</time></trkpt><trkpt lat="45.29128765132993" lon="5.891922942915232"><ele>242.0</ele><time>2026-04-05T15:35:09Z</time></trkpt><trkpt lat="45.29116381007575" lon="5.891755696060618"><ele>242.0</ele><time>2026-04-05T15:35:10Z</time></trkpt><trkpt lat="45.291040731519836" lon="5.8915958073428625"><ele>242.0</ele><time>2026-04-05T15:35:11Z</time></trkpt><trkpt lat="45.29091819592112" lon="5.891444060707569"><ele>242.0</ele><time>2026-04-05T15:35:12Z</time></trkpt><trkpt lat="45.290801739597605" lon="5.891293389180535"><ele>242.0</ele><time>2026-04-05T15:35:13Z</time></trkpt><trkpt lat="45.29069227119322" lon="5.89115019022795"><ele>242.0</ele><time>2026-04-05T15:35:14Z</time></trkpt><trkpt lat="45.290587567965694" lon="5.89102406672007"><ele>242.0</ele><time>2026-04-05T15:35:15Z</time></trkpt><trkpt lat="45.290484277279425" lon="5.890910991412816"><ele>242.0</ele><time>2026-04-05T15:35:16Z</time></trkpt><trkpt lat="45.29039057721202" lon="5.8907931400637725"><ele>240.75</ele><time>2026-04-05T15:35:17Z</time></trkpt><trkpt lat="45.29030131905075" lon="5.890670591621051"><ele>239.5</ele><time>2026-04-05T15:35:18Z</time></trkpt><trkpt lat="45.290220097978185" lon="5.890560719403199"><ele>238.25</ele><time>2026-04-05T15:35:19Z</time></trkpt><trkpt lat="45.29013050503996" lon="5.890434333286577"><ele>237.0</ele><time>2026-04-05T15:35:20Z</time></trkpt><trkpt lat="45.2900683105315" lon="5.89034484807802"><ele>237.0</ele><time>2026-04-05T15:35:21Z</time></trkpt><trkpt lat="45.29000901177393" lon="5.890253146644547"><ele>237.0</ele><time>2026-04-05T15:35:22Z</time></trkpt><trkpt lat="45.28995878529249" lon="5.890160485645305"><ele>237.0</ele><time>2026-04-05T15:35:23Z</time></trkpt><trkpt lat="45.28990902301306" lon="5.8900774303270795"><ele>237.0</ele><time>2026-04-05T15:35:24Z</time></trkpt><trkpt lat="45.28985889069109" lon="5.890005313911092"><ele>237.0</ele><time>2026-04-05T15:35:25Z</time></trkpt><trkpt lat="45.28979992068143" lon="5.889950958673781"><ele>237.0</ele><time>2026-04-05T15:35:26Z</time></trkpt><trkpt lat="45.289728923006855" lon="5.88990095800588"><ele>237.33333333333334</ele><time>2026-04-05T15:35:27Z</time></trkpt><trkpt lat="45.28966040391064" lon="5.889848502169167"><ele>237.66666666666669</ele><time>2026-04-05T15:35:28Z</time></trkpt><trkpt lat="45.28959683645351" lon="5.889805497343263"><ele>238.0</ele><time>2026-04-05T15:35:29Z</time></trkpt><trkpt lat="45.28953873103468" lon="5.8897692727504865"><ele>238.33333333333334</ele><time>2026-04-05T15:35:30Z</time></trkpt><trkpt lat="45.28945498240076" lon="5.889685004378682"><ele>238.66666666666669</ele><time>2026-04-05T15:35:32Z</time></trkpt><trkpt lat="45.289387263850514" lon="5.88960763798915"><ele>239.0</ele><time>2026-04-05T15:35:34Z</time></trkpt><trkpt lat="45.28931905170299" lon="5.889536181398045"><ele>239.0</ele><time>2026-04-05T15:35:37Z</time></trkpt><trkpt lat="45.28927599545019" lon="5.889451388083656"><ele>238.99999999999997</ele><time>2026-04-05T15:35:41Z</time></trkpt><trkpt lat="45.28919833027756" lon="5.889379993452192"><ele>238.99999999999997</ele><time>2026-04-05T15:35:44Z</time></trkpt><trkpt lat="45.28913521740181" lon="5.889270442937246"><ele>239.0</ele><time>2026-04-05T15:35:46.001Z</time></trkpt><trkpt lat="45.28906210208424" lon="5.889175175044238"><ele>239.0</ele><time>2026-04-05T15:35:48.001Z</time></trkpt><trkpt lat="45.28897906769742" lon="5.88909461353832"><ele>239.16666666666669</ele><time>2026-04-05T15:35:50.001Z</time></trkpt><trkpt lat="45.28890527174326" lon="5.88899422734305"><ele>239.33333333333334</ele><time>2026-04-05T15:35:52.001Z</time></trkpt><trkpt lat="45.288862873399445" lon="5.88892545482168"><ele>239.5</ele><time>2026-04-05T15:35:54.001Z</time></trkpt><trkpt lat="45.28879996690925" lon="5.888839493581987"><ele>239.66666666666669</ele><time>2026-04-05T15:35:57.001Z</time></trkpt><trkpt lat="45.28871245763023" lon="5.888730893595613"><ele>239.83333333333334</ele><time>2026-04-05T15:35:59.001Z</time></trkpt><trkpt lat="45.288653548006955" lon="5.888657290995505"><ele>240.0</ele><time>2026-04-05T15:36:00.001Z</time></trkpt><trkpt lat="45.28859493358962" lon="5.888589051840593"><ele>240.0</ele><time>2026-04-05T15:36:01.001Z</time></trkpt><trkpt lat="45.288523454311154" lon="5.888508963097953"><ele>240.0</ele><time>2026-04-05T15:36:02.001Z</time></trkpt><trkpt lat="45.288469448790785" lon="5.888432085981182"><ele>240.0</ele><time>2026-04-05T15:36:03.001Z</time></trkpt><trkpt lat="45.28839713211178" lon="5.8883400232722165"><ele>240.0</ele><time>2026-04-05T15:36:04.001Z</time></trkpt><trkpt lat="45.288319416266596" lon="5.888242197274835"><ele>240.0</ele><time>2026-04-05T15:36:05.001Z</time></trkpt><trkpt lat="45.28825290073539" lon="5.888093885821744"><ele>240.25</ele><time>2026-04-05T15:36:06.001Z</time></trkpt><trkpt lat="45.28818601845514" lon="5.887945288217766"><ele>240.5</ele><time>2026-04-05T15:36:07.001Z</time></trkpt><trkpt lat="45.2880998830365" lon="5.887802590643654"><ele>240.75</ele><time>2026-04-05T15:36:08.001Z</time></trkpt><trkpt lat="45.28799300511377" lon="5.88766577851002"><ele>241.0</ele><time>2026-04-05T15:36:09.001Z</time></trkpt><trkpt lat="45.28794123531086" lon="5.887743022998707"><ele>241.0</ele><time>2026-04-05T15:36:10.001Z</time></trkpt><trkpt lat="45.28785807535774" lon="5.887652817822588"><ele>241.00000000000003</ele><time>2026-04-05T15:36:11.001Z</time></trkpt><trkpt lat="45.28778482224031" lon="5.8875431498378346"><ele>241.00000000000003</ele><time>2026-04-05T15:36:12.001Z</time></trkpt><trkpt lat="45.287707058659436" lon="5.887446775953663"><ele>241.0</ele><time>2026-04-05T15:36:13.001Z</time></trkpt><trkpt lat="45.28763593504668" lon="5.887351189106053"><ele>241.0</ele><time>2026-04-05T15:36:14.001Z</time></trkpt><trkpt lat="45.28759102460105" lon="5.887287066404965"><ele>241.8</ele><time>2026-04-05T15:36:15.001Z</time></trkpt><trkpt lat="45.287507437332465" lon="5.887187841623468"><ele>242.60000000000002</ele><time>2026-04-05T15:36:16.001Z</time></trkpt><trkpt lat="45.287441694795184" lon="5.887091900630607"><ele>243.4</ele><time>2026-04-05T15:36:17.001Z</time></trkpt><trkpt lat="45.287369657763584" lon="5.887006724863222"><ele>244.2</ele><time>2026-04-05T15:36:18.001Z</time></trkpt><trkpt lat="45.287296226326916" lon="5.886916771215008"><ele>245.0</ele><time>2026-04-05T15:36:19.001Z</time></trkpt><trkpt lat="45.2872290831065" lon="5.886839348718612"><ele>246.00000000000003</ele><time>2026-04-05T15:36:20.001Z</time></trkpt><trkpt lat="45.28716707812096" lon="5.886760839019885"><ele>247.0</ele><time>2026-04-05T15:36:21.001Z</time></trkpt><trkpt lat="45.287110391719956" lon="5.886689146628553"><ele>248.0</ele><time>2026-04-05T15:36:22.001Z</time></trkpt><trkpt lat="45.287065770155905" lon="5.886602685088777"><ele>249.0</ele><time>2026-04-05T15:36:23.001Z</time></trkpt><trkpt lat="45.28700025330095" lon="5.886533031934556"><ele>250.00000000000003</ele><time>2026-04-05T15:36:24.001Z</time></trkpt><trkpt lat="45.28694497392547" lon="5.886450384289961"><ele>251.0</ele><time>2026-04-05T15:36:25.001Z</time></trkpt><trkpt lat="45.286886865209304" lon="5.886373358757427"><ele>251.00000000000003</ele><time>2026-04-05T15:36:26.001Z</time></trkpt><trkpt lat="45.28683133300833" lon="5.886296035868284"><ele>251.0</ele><time>2026-04-05T15:36:27.001Z</time></trkpt><trkpt lat="45.28676628846813" lon="5.8862339886258646"><ele>251.0</ele><time>2026-04-05T15:36:28.001Z</time></trkpt><trkpt lat="45.28670643233593" lon="5.886151349151755"><ele>251.0</ele><time>2026-04-05T15:36:29.001Z</time></trkpt><trkpt lat="45.286644279897885" lon="5.88608484740236"><ele>251.00000000000003</ele><time>2026-04-05T15:36:30.001Z</time></trkpt><trkpt lat="45.2865785630384" lon="5.8860161252835175"><ele>251.0</ele><time>2026-04-05T15:36:31.001Z</time></trkpt><trkpt lat="45.286516482147974" lon="5.885945298939248"><ele>251.16666666666669</ele><time>2026-04-05T15:36:32.001Z</time></trkpt><trkpt lat="45.28645612425603" lon="5.88587678670216"><ele>251.33333333333334</ele><time>2026-04-05T15:36:33.001Z</time></trkpt><trkpt lat="45.286399173683314" lon="5.885811331461373"><ele>251.5</ele><time>2026-04-05T15:36:34.001Z</time></trkpt><trkpt lat="45.286340030758474" lon="5.88574326364016"><ele>251.66666666666669</ele><time>2026-04-05T15:36:35.001Z</time></trkpt><trkpt lat="45.28628210879732" lon="5.88567807820053"><ele>251.83333333333334</ele><time>2026-04-05T15:36:36.001Z</time></trkpt><trkpt lat="45.28622701078902" lon="5.88562046615992"><ele>252.0</ele><time>2026-04-05T15:36:37.001Z</time></trkpt><trkpt lat="45.28612315659052" lon="5.885519517085552"><ele>252.0</ele><time>2026-04-05T15:36:39.001Z</time></trkpt><trkpt lat="45.2860165732136" lon="5.88541875179322"><ele>252.0</ele><time>2026-04-05T15:36:41.001Z</time></trkpt><trkpt lat="45.28595737739683" lon="5.8853641524517215"><ele>252.0</ele><time>2026-04-05T15:36:42.001Z</time></trkpt><trkpt lat="45.28589128449631" lon="5.885329881142116"><ele>252.0</ele><time>2026-04-05T15:36:43.001Z</time></trkpt><trkpt lat="45.28582967447527" lon="5.885272579724863"><ele>252.0</ele><time>2026-04-05T15:36:44.001Z</time></trkpt><trkpt lat="45.28578036817658" lon="5.885201957507035"><ele>252.0</ele><time>2026-04-05T15:36:45.001Z</time></trkpt><trkpt lat="45.28571462295992" lon="5.885156215863926"><ele>252.0</ele><time>2026-04-05T15:36:46.001Z</time></trkpt><trkpt lat="45.28563963342639" lon="5.885127294238175"><ele>252.0</ele><time>2026-04-05T15:36:47.001Z</time></trkpt><trkpt lat="45.28557237654814" lon="5.88505082838979"><ele>252.0</ele><time>2026-04-05T15:36:48.001Z</time></trkpt><trkpt lat="45.285505959579766" lon="5.884991185768516"><ele>252.0</ele><time>2026-04-05T15:36:49.001Z</time></trkpt><trkpt lat="45.2854363795782" lon="5.884919802677514"><ele>252.0</ele><time>2026-04-05T15:36:50.001Z</time></trkpt><trkpt lat="45.28534144385074" lon="5.884797633883348"><ele>252.33333333333334</ele><time>2026-04-05T15:36:52.001Z</time></trkpt><trkpt lat="45.28528314212125" lon="5.884743360085958"><ele>252.66666666666669</ele><time>2026-04-05T15:36:53.001Z</time></trkpt><trkpt lat="45.28520523649878" lon="5.884628072525237"><ele>253.0</ele><time>2026-04-05T15:36:55.001Z</time></trkpt><trkpt lat="45.285139539782264" lon="5.884496679791225"><ele>253.33333333333334</ele><time>2026-04-05T15:36:57.001Z</time></trkpt><trkpt lat="45.285082370335424" lon="5.884443935782004"><ele>253.66666666666669</ele><time>2026-04-05T15:36:58.001Z</time></trkpt><trkpt lat="45.285035421550894" lon="5.884367807546456"><ele>254.0</ele><time>2026-04-05T15:36:59.002Z</time></trkpt><trkpt lat="45.284994458756024" lon="5.8842727004133915"><ele>254.00000000000003</ele><time>2026-04-05T15:37:00Z</time></trkpt><trkpt lat="45.284939361729016" lon="5.884187298647393"><ele>254.0</ele><time>2026-04-05T15:37:01Z</time></trkpt><trkpt lat="45.28488225120638" lon="5.88410047154019"><ele>254.0</ele><time>2026-04-05T15:37:02Z</time></trkpt><trkpt lat="45.284828140409644" lon="5.884018827568366"><ele>254.0</ele><time>2026-04-05T15:37:03Z</time></trkpt><trkpt lat="45.284772240618466" lon="5.883934484324266"><ele>254.00000000000003</ele><time>2026-04-05T15:37:04Z</time></trkpt><trkpt lat="45.284709800080236" lon="5.8838645969716605"><ele>254.0</ele><time>2026-04-05T15:37:05Z</time></trkpt><trkpt lat="45.28466503399535" lon="5.883790557918402"><ele>253.6</ele><time>2026-04-05T15:37:06Z</time></trkpt><trkpt lat="45.28458210920076" lon="5.883667674144068"><ele>253.2</ele><time>2026-04-05T15:37:08Z</time></trkpt><trkpt lat="45.28453061575953" lon="5.883595620619922"><ele>252.79999999999998</ele><time>2026-04-05T15:37:09Z</time></trkpt><trkpt lat="45.284474027510605" lon="5.883500647254921"><ele>252.39999999999998</ele><time>2026-04-05T15:37:10Z</time></trkpt><trkpt lat="45.28441712374144" lon="5.883413828701845"><ele>252.0</ele><time>2026-04-05T15:37:11Z</time></trkpt><trkpt lat="45.28435633253258" lon="5.883316914304889"><ele>252.8</ele><time>2026-04-05T15:37:12Z</time></trkpt><trkpt lat="45.28429680081455" lon="5.883205492503297"><ele>253.6</ele><time>2026-04-05T15:37:13Z</time></trkpt><trkpt lat="45.284233031740364" lon="5.883108947436218"><ele>254.40000000000003</ele><time>2026-04-05T15:37:14Z</time></trkpt><trkpt lat="45.28417083058576" lon="5.883008901852563"><ele>255.20000000000002</ele><time>2026-04-05T15:37:15Z</time></trkpt><trkpt lat="45.28410939649085" lon="5.882913179789988"><ele>256.0</ele><time>2026-04-05T15:37:16Z</time></trkpt><trkpt lat="45.28405041755924" lon="5.8828119415366675"><ele>255.99999999999997</ele><time>2026-04-05T15:37:17Z</time></trkpt><trkpt lat="45.2839945265968" lon="5.8827182799665865"><ele>256.0</ele><time>2026-04-05T15:37:18Z</time></trkpt><trkpt lat="45.28393764706946" lon="5.8826281181781725"><ele>256.0</ele><time>2026-04-05T15:37:19Z</time></trkpt><trkpt lat="45.28388011827096" lon="5.882545927318059"><ele>256.0</ele><time>2026-04-05T15:37:20Z</time></trkpt><trkpt lat="45.283827075037934" lon="5.882466611472434"><ele>255.99999999999997</ele><time>2026-04-05T15:37:21Z</time></trkpt><trkpt lat="45.283773812137404" lon="5.8823877992680575"><ele>256.0</ele><time>2026-04-05T15:37:22Z</time></trkpt><trkpt lat="45.28372866355462" lon="5.882309464943958"><ele>255.83333333333331</ele><time>2026-04-05T15:37:23Z</time></trkpt><trkpt lat="45.28368415402864" lon="5.8822359818501155"><ele>255.66666666666666</ele><time>2026-04-05T15:37:24Z</time></trkpt><trkpt lat="45.28363915387431" lon="5.882164549921127"><ele>255.5</ele><time>2026-04-05T15:37:25Z</time></trkpt><trkpt lat="45.283596945626385" lon="5.882095405815265"><ele>255.33333333333331</ele><time>2026-04-05T15:37:26Z</time></trkpt><trkpt lat="45.2835116227057" lon="5.881973604632108"><ele>255.16666666666666</ele><time>2026-04-05T15:37:28Z</time></trkpt><trkpt lat="45.28343957960087" lon="5.8818499285239625"><ele>255.0</ele><time>2026-04-05T15:37:30Z</time></trkpt><trkpt lat="45.283400194037824" lon="5.881778144629537"><ele>255.5</ele><time>2026-04-05T15:37:31Z</time></trkpt><trkpt lat="45.28336168619091" lon="5.8816946138634005"><ele>256.0</ele><time>2026-04-05T15:37:32Z</time></trkpt><trkpt lat="45.283331131364925" lon="5.881598395646671"><ele>256.5</ele><time>2026-04-05T15:37:33Z</time></trkpt><trkpt lat="45.283304451596244" lon="5.881486719312679"><ele>257.0</ele><time>2026-04-05T15:37:34Z</time></trkpt><trkpt lat="45.283268880529135" lon="5.881386508679855"><ele>257.5</ele><time>2026-04-05T15:37:35Z</time></trkpt><trkpt lat="45.28321455539414" lon="5.881308639847578"><ele>258.0</ele><time>2026-04-05T15:37:36Z</time></trkpt><trkpt lat="45.28313195905889" lon="5.88125173694985"><ele>258.0</ele><time>2026-04-05T15:37:37Z</time></trkpt><trkpt lat="45.283035610770725" lon="5.881202104173538"><ele>258.0</ele><time>2026-04-05T15:37:38Z</time></trkpt><trkpt lat="45.28294541879174" lon="5.881117949529758"><ele>258.0</ele><time>2026-04-05T15:37:39Z</time></trkpt><trkpt lat="45.28287238036618" lon="5.881003392617627"><ele>258.0</ele><time>2026-04-05T15:37:40Z</time></trkpt><trkpt lat="45.28280811227051" lon="5.88088913368839"><ele>258.0</ele><time>2026-04-05T15:37:41Z</time></trkpt><trkpt lat="45.282738176988005" lon="5.880776530502119"><ele>258.0</ele><time>2026-04-05T15:37:42Z</time></trkpt><trkpt lat="45.28266992436266" lon="5.880661205347321"><ele>258.0</ele><time>2026-04-05T15:37:43Z</time></trkpt><trkpt lat="45.28259202285547" lon="5.880552431298841"><ele>258.0</ele><time>2026-04-05T15:37:44Z</time></trkpt><trkpt lat="45.28252275093431" lon="5.880436588332414"><ele>258.0</ele><time>2026-04-05T15:37:45Z</time></trkpt><trkpt lat="45.28245507965675" lon="5.88033111480465"><ele>258.0</ele><time>2026-04-05T15:37:46Z</time></trkpt><trkpt lat="45.28239450121641" lon="5.880234774787277"><ele>258.0</ele><time>2026-04-05T15:37:47Z</time></trkpt><trkpt lat="45.28233693150969" lon="5.880144187683307"><ele>258.0</ele><time>2026-04-05T15:37:48Z</time></trkpt><trkpt lat="45.28228358598686" lon="5.8800547121239655"><ele>258.0</ele><time>2026-04-05T15:37:49Z</time></trkpt><trkpt lat="45.282219577682206" lon="5.879960411311376"><ele>258.0</ele><time>2026-04-05T15:37:50Z</time></trkpt><trkpt lat="45.28215207721474" lon="5.879860652232724"><ele>258.0</ele><time>2026-04-05T15:37:51Z</time></trkpt><trkpt lat="45.282091031866614" lon="5.879760343779341"><ele>257.4</ele><time>2026-04-05T15:37:52Z</time></trkpt><trkpt lat="45.28203004503937" lon="5.879663639834763"><ele>256.8</ele><time>2026-04-05T15:37:53Z</time></trkpt><trkpt lat="45.281965086801534" lon="5.879563773460098"><ele>256.2</ele><time>2026-04-05T15:37:54Z</time></trkpt><trkpt lat="45.28190042963544" lon="5.879465364464718"><ele>255.6</ele><time>2026-04-05T15:37:55Z</time></trkpt><trkpt lat="45.28183887682517" lon="5.8793654281104155"><ele>255.0</ele><time>2026-04-05T15:37:56Z</time></trkpt><trkpt lat="45.281780350448" lon="5.879270879963642"><ele>255.2857142857143</ele><time>2026-04-05T15:37:57Z</time></trkpt><trkpt lat="45.281726472630396" lon="5.879183304265793"><ele>255.5714285714286</ele><time>2026-04-05T15:37:58.001Z</time></trkpt><trkpt lat="45.28167801286832" lon="5.879103714782017"><ele>255.85714285714286</ele><time>2026-04-05T15:37:59.001Z</time></trkpt><trkpt lat="45.28164120075137" lon="5.879019476353169"><ele>256.14285714285717</ele><time>2026-04-05T15:38:00.001Z</time></trkpt><trkpt lat="45.2815873123858" lon="5.87896456389834"><ele>256.42857142857144</ele><time>2026-04-05T15:38:01.001Z</time></trkpt><trkpt lat="45.28154430264671" lon="5.878896012490656"><ele>256.7142857142857</ele><time>2026-04-05T15:38:02.001Z</time></trkpt><trkpt lat="45.281505526438075" lon="5.8788245902154"><ele>257.0</ele><time>2026-04-05T15:38:03.001Z</time></trkpt><trkpt lat="45.28141965049853" lon="5.878697118017705"><ele>256.33333333333337</ele><time>2026-04-05T15:38:05.001Z</time></trkpt><trkpt lat="45.28137093468826" lon="5.878601328629626"><ele>255.66666666666669</ele><time>2026-04-05T15:38:07.001Z</time></trkpt><trkpt lat="45.28130857202608" lon="5.878501814453816"><ele>255.0</ele><time>2026-04-05T15:38:09.001Z</time></trkpt><trkpt lat="45.2812673072733" lon="5.878433971645216"><ele>254.33333333333331</ele><time>2026-04-05T15:38:10.001Z</time></trkpt><trkpt lat="45.28121728305788" lon="5.878360032073812"><ele>253.66666666666666</ele><time>2026-04-05T15:38:11.001Z</time></trkpt><trkpt lat="45.281164793225976" lon="5.878277943182751"><ele>253.0</ele><time>2026-04-05T15:38:12.001Z</time></trkpt><trkpt lat="45.28111273632541" lon="5.878192779737511"><ele>253.0</ele><time>2026-04-05T15:38:13.001Z</time></trkpt><trkpt lat="45.28105344194196" lon="5.878105625007906"><ele>253.0</ele><time>2026-04-05T15:38:14.001Z</time></trkpt><trkpt lat="45.28093523299062" lon="5.877921981128831"><ele>253.0</ele><time>2026-04-05T15:38:16.001Z</time></trkpt><trkpt lat="45.28086948232012" lon="5.8778189907708525"><ele>253.0</ele><time>2026-04-05T15:38:17.001Z</time></trkpt><trkpt lat="45.28080185567847" lon="5.8777164875512575"><ele>253.0</ele><time>2026-04-05T15:38:18.001Z</time></trkpt><trkpt lat="45.2807330327351" lon="5.877615479657636"><ele>253.0</ele><time>2026-04-05T15:38:19.001Z</time></trkpt><trkpt lat="45.2806611552256" lon="5.877472094403354"><ele>253.0</ele><time>2026-04-05T15:38:20.001Z</time></trkpt><trkpt lat="45.28057586352411" lon="5.877338865355142"><ele>253.0</ele><time>2026-04-05T15:38:21.001Z</time></trkpt><trkpt lat="45.28047949055349" lon="5.877210800379731"><ele>253.2</ele><time>2026-04-05T15:38:22.001Z</time></trkpt><trkpt lat="45.280403634800244" lon="5.877084523182871"><ele>253.4</ele><time>2026-04-05T15:38:23.001Z</time></trkpt><trkpt lat="45.28033321112017" lon="5.87696729317994"><ele>253.59999999999997</ele><time>2026-04-05T15:38:24.001Z</time></trkpt><trkpt lat="45.28025836891789" lon="5.8768533723450425"><ele>253.79999999999998</ele><time>2026-04-05T15:38:25.001Z</time></trkpt><trkpt lat="45.28018344286402" lon="5.876740510611321"><ele>254.0</ele><time>2026-04-05T15:38:26.001Z</time></trkpt><trkpt lat="45.28010987358654" lon="5.876628468897501"><ele>254.0</ele><time>2026-04-05T15:38:27.001Z</time></trkpt><trkpt lat="45.280036970875905" lon="5.87651363852103"><ele>253.99999999999997</ele><time>2026-04-05T15:38:28.001Z</time></trkpt><trkpt lat="45.279961479355485" lon="5.876411141946912"><ele>253.99999999999997</ele><time>2026-04-05T15:38:29.001Z</time></trkpt><trkpt lat="45.2798842314143" lon="5.876284040312098"><ele>254.0</ele><time>2026-04-05T15:38:30.001Z</time></trkpt><trkpt lat="45.27980482022763" lon="5.876163616855607"><ele>254.0</ele><time>2026-04-05T15:38:31.001Z</time></trkpt><trkpt lat="45.27972705660057" lon="5.876048367362562"><ele>253.6</ele><time>2026-04-05T15:38:32.001Z</time></trkpt><trkpt lat="45.27965116091627" lon="5.875941386972605"><ele>253.2</ele><time>2026-04-05T15:38:33.001Z</time></trkpt><trkpt lat="45.27957444347567" lon="5.875837241988334"><ele>252.79999999999998</ele><time>2026-04-05T15:38:34.001Z</time></trkpt><trkpt lat="45.27949464046949" lon="5.8757354833818285"><ele>252.39999999999998</ele><time>2026-04-05T15:38:35.001Z</time></trkpt><trkpt lat="45.27941866736344" lon="5.8756326225440825"><ele>252.0</ele><time>2026-04-05T15:38:36.001Z</time></trkpt><trkpt lat="45.279331431471" lon="5.875540688426938"><ele>253.0</ele><time>2026-04-05T15:38:37.001Z</time></trkpt><trkpt lat="45.2792472348461" lon="5.8754365997039395"><ele>254.0</ele><time>2026-04-05T15:38:38.001Z</time></trkpt><trkpt lat="45.27916413643969" lon="5.87533158431612"><ele>255.0</ele><time>2026-04-05T15:38:39.001Z</time></trkpt><trkpt lat="45.27899940052014" lon="5.875121187522708"><ele>256.0</ele><time>2026-04-05T15:38:41.001Z</time></trkpt><trkpt lat="45.27891215319478" lon="5.875023767609828"><ele>256.0</ele><time>2026-04-05T15:38:42.001Z</time></trkpt><trkpt lat="45.27883626290356" lon="5.874936293579977"><ele>256.0</ele><time>2026-04-05T15:38:43.001Z</time></trkpt><trkpt lat="45.27875520438007" lon="5.874838008502746"><ele>256.0</ele><time>2026-04-05T15:38:44.001Z</time></trkpt><trkpt lat="45.27868616555314" lon="5.874753617067307"><ele>256.0</ele><time>2026-04-05T15:38:45.001Z</time></trkpt><trkpt lat="45.278624297598626" lon="5.874672427776399"><ele>256.0</ele><time>2026-04-05T15:38:46.001Z</time></trkpt><trkpt lat="45.278563352839654" lon="5.87458678633151"><ele>256.0</ele><time>2026-04-05T15:38:47.001Z</time></trkpt><trkpt lat="45.278499365312584" lon="5.874502692396717"><ele>256.0</ele><time>2026-04-05T15:38:48.001Z</time></trkpt><trkpt lat="45.27843080042142" lon="5.874417843363199"><ele>256.0</ele><time>2026-04-05T15:38:49.001Z</time></trkpt><trkpt lat="45.278354952479575" lon="5.8743340019878385"><ele>256.0</ele><time>2026-04-05T15:38:50.001Z</time></trkpt><trkpt lat="45.27827290348857" lon="5.87425092415361"><ele>256.0</ele><time>2026-04-05T15:38:51.001Z</time></trkpt><trkpt lat="45.27818585445621" lon="5.874158777658482"><ele>257.2</ele><time>2026-04-05T15:38:52.001Z</time></trkpt><trkpt lat="45.27809972184241" lon="5.874065635845983"><ele>258.40000000000003</ele><time>2026-04-05T15:38:53.001Z</time></trkpt><trkpt lat="45.2780176150669" lon="5.873965131374568"><ele>259.6</ele><time>2026-04-05T15:38:54.001Z</time></trkpt><trkpt lat="45.27793693813044" lon="5.873868957172731"><ele>260.8</ele><time>2026-04-05T15:38:55.001Z</time></trkpt><trkpt lat="45.277852775696054" lon="5.873772367069401"><ele>262.0</ele><time>2026-04-05T15:38:56.001Z</time></trkpt><trkpt lat="45.27777155728952" lon="5.873671252716289"><ele>262.0</ele><time>2026-04-05T15:38:57.001Z</time></trkpt><trkpt lat="45.27768978611762" lon="5.87357782621445"><ele>262.0</ele><time>2026-04-05T15:38:58.001Z</time></trkpt><trkpt lat="45.277608582521054" lon="5.873490913365701"><ele>262.0</ele><time>2026-04-05T15:38:59.001Z</time></trkpt><trkpt lat="45.27752593615696" lon="5.8734064235216925"><ele>262.0</ele><time>2026-04-05T15:39:00.001Z</time></trkpt><trkpt lat="45.277446325170935" lon="5.8733205739456675"><ele>262.0</ele><time>2026-04-05T15:39:01.001Z</time></trkpt><trkpt lat="45.277367690495026" lon="5.8732383501902214"><ele>262.0</ele><time>2026-04-05T15:39:02.001Z</time></trkpt><trkpt lat="45.27729669684957" lon="5.873155168978308"><ele>262.0</ele><time>2026-04-05T15:39:03.001Z</time></trkpt><trkpt lat="45.277230289030065" lon="5.87307391845939"><ele>262.0</ele><time>2026-04-05T15:39:04.001Z</time></trkpt><trkpt lat="45.277171066970034" lon="5.872997711234423"><ele>262.0</ele><time>2026-04-05T15:39:05.001Z</time></trkpt><trkpt lat="45.27711186559404" lon="5.872924843625703"><ele>262.0</ele><time>2026-04-05T15:39:06Z</time></trkpt><trkpt lat="45.277053344048866" lon="5.872855924975219"><ele>262.0</ele><time>2026-04-05T15:39:07Z</time></trkpt><trkpt lat="45.27700260979899" lon="5.872793800923671"><ele>262.3333333333333</ele><time>2026-04-05T15:39:08Z</time></trkpt><trkpt lat="45.276954351448886" lon="5.872732832810392"><ele>262.66666666666663</ele><time>2026-04-05T15:39:09Z</time></trkpt><trkpt lat="45.27690920983585" lon="5.8726483486213175"><ele>263.0</ele><time>2026-04-05T15:39:10Z</time></trkpt><trkpt lat="45.27687065489911" lon="5.8725597461007135"><ele>263.3333333333333</ele><time>2026-04-05T15:39:11Z</time></trkpt><trkpt lat="45.27682015961174" lon="5.872497229291361"><ele>263.6666666666667</ele><time>2026-04-05T15:39:12Z</time></trkpt><trkpt lat="45.27670298676622" lon="5.872499345562318"><ele>264.0</ele><time>2026-04-05T15:39:14Z</time></trkpt><trkpt lat="45.2766618866766" lon="5.872582656644933"><ele>264.0</ele><time>2026-04-05T15:39:15Z</time></trkpt><trkpt lat="45.27663774415519" lon="5.8726698483708715"><ele>264.0</ele><time>2026-04-05T15:39:16Z</time></trkpt><trkpt lat="45.27663434755503" lon="5.872772760605583"><ele>264.0</ele><time>2026-04-05T15:39:17Z</time></trkpt><trkpt lat="45.27663910746335" lon="5.872874023009528"><ele>264.0</ele><time>2026-04-05T15:39:18Z</time></trkpt><trkpt lat="45.276629103413" lon="5.872973820809275"><ele>264.0</ele><time>2026-04-05T15:39:19Z</time></trkpt><trkpt lat="45.27660779126673" lon="5.873081098542382"><ele>264.0</ele><time>2026-04-05T15:39:20Z</time></trkpt><trkpt lat="45.27657834242056" lon="5.8731973727501146"><ele>264.0</ele><time>2026-04-05T15:39:21Z</time></trkpt><trkpt lat="45.276541050534455" lon="5.873317828219747"><ele>264.0</ele><time>2026-04-05T15:39:22Z</time></trkpt><trkpt lat="45.276503058804416" lon="5.873436214102489"><ele>264.0</ele><time>2026-04-05T15:39:23Z</time></trkpt><trkpt lat="45.276463068680194" lon="5.873551377849594"><ele>264.0</ele><time>2026-04-05T15:39:24Z</time></trkpt><trkpt lat="45.27642080036867" lon="5.873663054429459"><ele>264.0</ele><time>2026-04-05T15:39:25Z</time></trkpt><trkpt lat="45.27638224671254" lon="5.87376996948491"><ele>264.0</ele><time>2026-04-05T15:39:26Z</time></trkpt><trkpt lat="45.27634714346923" lon="5.87388379495007"><ele>264.0</ele><time>2026-04-05T15:39:27Z</time></trkpt><trkpt lat="45.27630901514" lon="5.873998476156436"><ele>263.7142857142857</ele><time>2026-04-05T15:39:28Z</time></trkpt><trkpt lat="45.276276613379906" lon="5.874108199592182"><ele>263.42857142857144</ele><time>2026-04-05T15:39:29Z</time></trkpt><trkpt lat="45.27624984301025" lon="5.874211942798265"><ele>263.14285714285717</ele><time>2026-04-05T15:39:30Z</time></trkpt><trkpt lat="45.276221002342375" lon="5.874312159191985"><ele>262.8571428571429</ele><time>2026-04-05T15:39:31Z</time></trkpt><trkpt lat="45.27618854368658" lon="5.874402015683783"><ele>262.5714285714286</ele><time>2026-04-05T15:39:32Z</time></trkpt><trkpt lat="45.276151718849206" lon="5.874483868880264"><ele>262.2857142857143</ele><time>2026-04-05T15:39:33Z</time></trkpt><trkpt lat="45.27612394696018" lon="5.8745679654316065"><ele>262.0</ele><time>2026-04-05T15:39:34Z</time></trkpt><trkpt lat="45.27609959006108" lon="5.8746512750069995"><ele>261.66666666666663</ele><time>2026-04-05T15:39:35Z</time></trkpt><trkpt lat="45.2760730204747" lon="5.874741087617137"><ele>261.3333333333333</ele><time>2026-04-05T15:39:36Z</time></trkpt><trkpt lat="45.2760420736763" lon="5.874834253315938"><ele>261.0</ele><time>2026-04-05T15:39:37Z</time></trkpt><trkpt lat="45.27600721891879" lon="5.874934646401859"><ele>260.6666666666667</ele><time>2026-04-05T15:39:38Z</time></trkpt><trkpt lat="45.275971516322585" lon="5.875038127828379"><ele>260.33333333333337</ele><time>2026-04-05T15:39:39Z</time></trkpt><trkpt lat="45.275935007107705" lon="5.875147847768445"><ele>260.0</ele><time>2026-04-05T15:39:40Z</time></trkpt><trkpt lat="45.27590057699839" lon="5.875266935642642"><ele>259.2</ele><time>2026-04-05T15:39:41Z</time></trkpt><trkpt lat="45.27587013438572" lon="5.875391608455167"><ele>258.4</ele><time>2026-04-05T15:39:42Z</time></trkpt><trkpt lat="45.275832076888946" lon="5.875513759513312"><ele>257.6</ele><time>2026-04-05T15:39:43Z</time></trkpt><trkpt lat="45.27579437160408" lon="5.875636083276517"><ele>256.8</ele><time>2026-04-05T15:39:44Z</time></trkpt><trkpt lat="45.27576376814278" lon="5.8757675572958545"><ele>256.0</ele><time>2026-04-05T15:39:45Z</time></trkpt><trkpt lat="45.27573369557803" lon="5.875908237507439"><ele>255.60000000000002</ele><time>2026-04-05T15:39:46Z</time></trkpt><trkpt lat="45.275694297922016" lon="5.8760541442849386"><ele>255.20000000000002</ele><time>2026-04-05T15:39:47Z</time></trkpt><trkpt lat="45.275657898095396" lon="5.876201903908673"><ele>254.79999999999998</ele><time>2026-04-05T15:39:48Z</time></trkpt><trkpt lat="45.275626725776206" lon="5.876350176244688"><ele>254.39999999999998</ele><time>2026-04-05T15:39:49Z</time></trkpt><trkpt lat="45.27559538313057" lon="5.876505629264206"><ele>254.0</ele><time>2026-04-05T15:39:50Z</time></trkpt><trkpt lat="45.275566090577186" lon="5.876663875870296"><ele>253.0</ele><time>2026-04-05T15:39:51Z</time></trkpt><trkpt lat="45.27554200104188" lon="5.876825102710411"><ele>252.0</ele><time>2026-04-05T15:39:52Z</time></trkpt><trkpt lat="45.2755185209944" lon="5.876988977879997"><ele>251.0</ele><time>2026-04-05T15:39:53Z</time></trkpt><trkpt lat="45.27549697180238" lon="5.877147171556349"><ele>250.0</ele><time>2026-04-05T15:39:54Z</time></trkpt><trkpt lat="45.27547847775133" lon="5.877303279163366"><ele>250.0</ele><time>2026-04-05T15:39:55Z</time></trkpt><trkpt lat="45.275462037121315" lon="5.877450946870698"><ele>250.0</ele><time>2026-04-05T15:39:56Z</time></trkpt><trkpt lat="45.275436483212" lon="5.877596521160143"><ele>250.0</ele><time>2026-04-05T15:39:57Z</time></trkpt><trkpt lat="45.275429607797854" lon="5.877731544966639"><ele>250.0</ele><time>2026-04-05T15:39:58Z</time></trkpt><trkpt lat="45.27541858839039" lon="5.877842074534748"><ele>250.0</ele><time>2026-04-05T15:39:59Z</time></trkpt><trkpt lat="45.275403802950706" lon="5.877950366808698"><ele>250.0</ele><time>2026-04-05T15:40:00Z</time></trkpt><trkpt lat="45.27538958707319" lon="5.878052700524717"><ele>250.0</ele><time>2026-04-05T15:40:01Z</time></trkpt><trkpt lat="45.27537298255449" lon="5.878152383281468"><ele>250.0</ele><time>2026-04-05T15:40:02Z</time></trkpt><trkpt lat="45.27535630252586" lon="5.87825643099173"><ele>250.0</ele><time>2026-04-05T15:40:03.001Z</time></trkpt><trkpt lat="45.27534313840777" lon="5.878357895087441"><ele>250.0</ele><time>2026-04-05T15:40:04.001Z</time></trkpt><trkpt lat="45.27532636191247" lon="5.878460079995318"><ele>250.0</ele><time>2026-04-05T15:40:05.001Z</time></trkpt><trkpt lat="45.275313342379086" lon="5.878560060099963"><ele>250.0</ele><time>2026-04-05T15:40:06.001Z</time></trkpt><trkpt lat="45.275300766716114" lon="5.878675067441286"><ele>249.33333333333331</ele><time>2026-04-05T15:40:07.001Z</time></trkpt><trkpt lat="45.27528762546211" lon="5.878787184227674"><ele>248.66666666666666</ele><time>2026-04-05T15:40:08.001Z</time></trkpt><trkpt lat="45.27527756862657" lon="5.87887790829938"><ele>248.0</ele><time>2026-04-05T15:40:09.001Z</time></trkpt><trkpt lat="45.27525669848998" lon="5.8790268962796"><ele>247.33333333333331</ele><time>2026-04-05T15:40:11.001Z</time></trkpt><trkpt lat="45.275238150434014" lon="5.8791815924451765"><ele>246.66666666666666</ele><time>2026-04-05T15:40:13.001Z</time></trkpt><trkpt lat="45.27522652249939" lon="5.879273313676664"><ele>246.0</ele><time>2026-04-05T15:40:14.001Z</time></trkpt><trkpt lat="45.275210459531294" lon="5.87937439856867"><ele>245.5</ele><time>2026-04-05T15:40:15.001Z</time></trkpt><trkpt lat="45.27518514244576" lon="5.879475575566246"><ele>245.0</ele><time>2026-04-05T15:40:16.001Z</time></trkpt><trkpt lat="45.275147672392485" lon="5.879585699869843"><ele>244.5</ele><time>2026-04-05T15:40:17.001Z</time></trkpt><trkpt lat="45.275120498178126" lon="5.879684835955389"><ele>244.0</ele><time>2026-04-05T15:40:18.001Z</time></trkpt><trkpt lat="45.27509554524242" lon="5.879782874562136"><ele>243.5</ele><time>2026-04-05T15:40:19.001Z</time></trkpt><trkpt lat="45.27507401480978" lon="5.879880877328512"><ele>243.0</ele><time>2026-04-05T15:40:20.001Z</time></trkpt><trkpt lat="45.27506029881303" lon="5.879980365507423"><ele>243.0</ele><time>2026-04-05T15:40:21.001Z</time></trkpt><trkpt lat="45.275044089316964" lon="5.880079220051759"><ele>243.0</ele><time>2026-04-05T15:40:22.001Z</time></trkpt><trkpt lat="45.275024697791245" lon="5.880179218792381"><ele>243.0</ele><time>2026-04-05T15:40:23.001Z</time></trkpt><trkpt lat="45.2750039249813" lon="5.880288086923985"><ele>243.0</ele><time>2026-04-05T15:40:24.001Z</time></trkpt><trkpt lat="45.274980183893184" lon="5.88039825511585"><ele>243.0</ele><time>2026-04-05T15:40:25.001Z</time></trkpt><trkpt lat="45.27495934984971" lon="5.880501074835125"><ele>243.0</ele><time>2026-04-05T15:40:26.001Z</time></trkpt><trkpt lat="45.27493947285348" lon="5.8806005677784885"><ele>242.85714285714283</ele><time>2026-04-05T15:40:27.001Z</time></trkpt><trkpt lat="45.27491773648609" lon="5.880698199207267"><ele>242.71428571428572</ele><time>2026-04-05T15:40:28.001Z</time></trkpt><trkpt lat="45.274896028040814" lon="5.8807906697200325"><ele>242.57142857142856</ele><time>2026-04-05T15:40:29.001Z</time></trkpt><trkpt lat="45.274867240264655" lon="5.880880220634921"><ele>242.42857142857142</ele><time>2026-04-05T15:40:30.001Z</time></trkpt><trkpt lat="45.274836594194895" lon="5.880968056076552"><ele>242.28571428571428</ele><time>2026-04-05T15:40:31.001Z</time></trkpt><trkpt lat="45.27478375485905" lon="5.881043638597867"><ele>242.14285714285714</ele><time>2026-04-05T15:40:32.001Z</time></trkpt><trkpt lat="45.274748670004314" lon="5.881139576081232"><ele>242.0</ele><time>2026-04-05T15:40:33.001Z</time></trkpt><trkpt lat="45.274757468875585" lon="5.881267894642992"><ele>241.8</ele><time>2026-04-05T15:40:34.001Z</time></trkpt><trkpt lat="45.2747765539599" lon="5.881384522073191"><ele>241.6</ele><time>2026-04-05T15:40:35.001Z</time></trkpt><trkpt lat="45.274731453522485" lon="5.881489768112684"><ele>241.40000000000003</ele><time>2026-04-05T15:40:36.001Z</time></trkpt><trkpt lat="45.27469127820685" lon="5.881612409596072"><ele>241.20000000000002</ele><time>2026-04-05T15:40:37.001Z</time></trkpt><trkpt lat="45.274661590858685" lon="5.88175116936321"><ele>241.0</ele><time>2026-04-05T15:40:38.001Z</time></trkpt><trkpt lat="45.27460989638173" lon="5.8818906633659624"><ele>240.8</ele><time>2026-04-05T15:40:39.001Z</time></trkpt><trkpt lat="45.274554638679504" lon="5.882033327144005"><ele>240.60000000000002</ele><time>2026-04-05T15:40:40.001Z</time></trkpt><trkpt lat="45.274495391271124" lon="5.882172002500531"><ele>240.4</ele><time>2026-04-05T15:40:41.001Z</time></trkpt><trkpt lat="45.27443580869086" lon="5.8823041000785246"><ele>240.2</ele><time>2026-04-05T15:40:42.001Z</time></trkpt><trkpt lat="45.27437939660514" lon="5.882426355826565"><ele>240.0</ele><time>2026-04-05T15:40:43.001Z</time></trkpt><trkpt lat="45.274321670502715" lon="5.882540975779046"><ele>239.4</ele><time>2026-04-05T15:40:44.001Z</time></trkpt><trkpt lat="45.2742670026458" lon="5.882654897132475"><ele>238.8</ele><time>2026-04-05T15:40:45.001Z</time></trkpt><trkpt lat="45.274206942895944" lon="5.882768168482541"><ele>238.2</ele><time>2026-04-05T15:40:46.001Z</time></trkpt><trkpt lat="45.27413726066482" lon="5.882891458070146"><ele>237.6</ele><time>2026-04-05T15:40:47.001Z</time></trkpt><trkpt lat="45.274068280714495" lon="5.883023413335045"><ele>237.0</ele><time>2026-04-05T15:40:48.001Z</time></trkpt><trkpt lat="45.27399079796007" lon="5.883161462429603"><ele>236.5</ele><time>2026-04-05T15:40:49.001Z</time></trkpt><trkpt lat="45.273913128421675" lon="5.883307616024068"><ele>236.0</ele><time>2026-04-05T15:40:50.001Z</time></trkpt><trkpt lat="45.27384237968778" lon="5.883463464913604"><ele>235.5</ele><time>2026-04-05T15:40:51.001Z</time></trkpt><trkpt lat="45.273767723200486" lon="5.883618779372735"><ele>235.0</ele><time>2026-04-05T15:40:52.001Z</time></trkpt><trkpt lat="45.27369695892003" lon="5.8837701645548774"><ele>235.0</ele><time>2026-04-05T15:40:53.001Z</time></trkpt><trkpt lat="45.27362709940929" lon="5.883910736962711"><ele>235.0</ele><time>2026-04-05T15:40:54.001Z</time></trkpt><trkpt lat="45.27355203207076" lon="5.884031891421413"><ele>235.0</ele><time>2026-04-05T15:40:55.001Z</time></trkpt><trkpt lat="45.27348398315704" lon="5.884169824995191"><ele>235.0</ele><time>2026-04-05T15:40:56.001Z</time></trkpt><trkpt lat="45.27342841710846" lon="5.884302205727476"><ele>235.0</ele><time>2026-04-05T15:40:57.001Z</time></trkpt><trkpt lat="45.27337519408371" lon="5.884429004337916"><ele>235.0</ele><time>2026-04-05T15:40:58.001Z</time></trkpt><trkpt lat="45.27330755439334" lon="5.8845758958699195"><ele>235.0</ele><time>2026-04-05T15:40:59.001Z</time></trkpt><trkpt lat="45.273220756016535" lon="5.884666016295034"><ele>235.0</ele><time>2026-04-05T15:41:00.001Z</time></trkpt><trkpt lat="45.273115040529014" lon="5.88468299713115"><ele>235.0</ele><time>2026-04-05T15:41:01.001Z</time></trkpt><trkpt lat="45.272972940962624" lon="5.8847709353386595"><ele>234.4</ele><time>2026-04-05T15:41:03.001Z</time></trkpt><trkpt lat="45.272967203754106" lon="5.88494315366939"><ele>233.8</ele><time>2026-04-05T15:41:06.002Z</time></trkpt><trkpt lat="45.27297210684219" lon="5.885065877542479"><ele>233.2</ele><time>2026-04-05T15:41:07.002Z</time></trkpt><trkpt lat="45.272997742572215" lon="5.885191038901186"><ele>232.6</ele><time>2026-04-05T15:41:08.002Z</time></trkpt><trkpt lat="45.27299713410649" lon="5.885335572026852"><ele>232.0</ele><time>2026-04-05T15:41:09.002Z</time></trkpt><trkpt lat="45.27295901263006" lon="5.885494257830076"><ele>231.5</ele><time>2026-04-05T15:41:10.002Z</time></trkpt><trkpt lat="45.27287901375707" lon="5.885649160362423"><ele>231.0</ele><time>2026-04-05T15:41:11.002Z</time></trkpt><trkpt lat="45.27281466724374" lon="5.885844287434237"><ele>230.5</ele><time>2026-04-05T15:41:11.999Z</time></trkpt><trkpt lat="45.272734499120986" lon="5.886041560927988"><ele>230.0</ele><time>2026-04-05T15:41:12.999Z</time></trkpt><trkpt lat="45.27264911113764" lon="5.886241581834199"><ele>230.0</ele><time>2026-04-05T15:41:13.999Z</time></trkpt><trkpt lat="45.2725647621385" lon="5.8864314537260265"><ele>230.0</ele><time>2026-04-05T15:41:14.999Z</time></trkpt><trkpt lat="45.27248644656852" lon="5.886616536633487"><ele>230.0</ele><time>2026-04-05T15:41:15.999Z</time></trkpt><trkpt lat="45.272412106720374" lon="5.886798212762527"><ele>230.0</ele><time>2026-04-05T15:41:16.999Z</time></trkpt><trkpt lat="45.2723525172575" lon="5.886963034355599"><ele>230.0</ele><time>2026-04-05T15:41:17.999Z</time></trkpt><trkpt lat="45.272288561916795" lon="5.887113077586682"><ele>230.0</ele><time>2026-04-05T15:41:18.999Z</time></trkpt><trkpt lat="45.272226378856026" lon="5.887247969582976"><ele>230.0</ele><time>2026-04-05T15:41:20Z</time></trkpt><trkpt lat="45.27216820303044" lon="5.887387593457423"><ele>230.0</ele><time>2026-04-05T15:41:21Z</time></trkpt><trkpt lat="45.272113210659015" lon="5.887526966207"><ele>230.0</ele><time>2026-04-05T15:41:21.999Z</time></trkpt><trkpt lat="45.27205911943901" lon="5.887649141957791"><ele>230.0</ele><time>2026-04-05T15:41:23Z</time></trkpt><trkpt lat="45.27199559587742" lon="5.887750778105308"><ele>230.0</ele><time>2026-04-05T15:41:24Z</time></trkpt><trkpt lat="45.271949527034494" lon="5.887861397730304"><ele>230.0</ele><time>2026-04-05T15:41:25Z</time></trkpt><trkpt lat="45.27190719880892" lon="5.887947742860626"><ele>230.00000000000003</ele><time>2026-04-05T15:41:26Z</time></trkpt><trkpt lat="45.2718643851462" lon="5.888017128703131"><ele>230.0</ele><time>2026-04-05T15:41:27Z</time></trkpt><trkpt lat="45.27176883044531" lon="5.888070585358874"><ele>230.0</ele><time>2026-04-05T15:41:29Z</time></trkpt><trkpt lat="45.27173933212391" lon="5.888181749694714"><ele>230.0</ele><time>2026-04-05T15:41:30Z</time></trkpt><trkpt lat="45.271724908225245" lon="5.8883106886973104"><ele>230.00000000000003</ele><time>2026-04-05T15:41:31Z</time></trkpt><trkpt lat="45.271709443250785" lon="5.88845577289343"><ele>230.0</ele><time>2026-04-05T15:41:32Z</time></trkpt><trkpt lat="45.27165034863025" lon="5.88861402053296"><ele>230.0</ele><time>2026-04-05T15:41:33Z</time></trkpt><trkpt lat="45.27156976530511" lon="5.888783687158165"><ele>230.0</ele><time>2026-04-05T15:41:34Z</time></trkpt><trkpt lat="45.271482067644314" lon="5.8889791926382316"><ele>230.0</ele><time>2026-04-05T15:41:35Z</time></trkpt><trkpt lat="45.27139572867612" lon="5.889187795630102"><ele>230.0</ele><time>2026-04-05T15:41:36Z</time></trkpt><trkpt lat="45.27131257724899" lon="5.889377287946986"><ele>230.0</ele><time>2026-04-05T15:41:37Z</time></trkpt><trkpt lat="45.27122676320287" lon="5.889563961927665"><ele>230.0</ele><time>2026-04-05T15:41:38Z</time></trkpt><trkpt lat="45.27114101595964" lon="5.889752641977751"><ele>230.0</ele><time>2026-04-05T15:41:39Z</time></trkpt><trkpt lat="45.27106343764503" lon="5.889939895956137"><ele>230.0</ele><time>2026-04-05T15:41:40Z</time></trkpt><trkpt lat="45.27098901898679" lon="5.890123148210871"><ele>230.0</ele><time>2026-04-05T15:41:41Z</time></trkpt><trkpt lat="45.27091624771209" lon="5.890297387588736"><ele>230.0</ele><time>2026-04-05T15:41:42Z</time></trkpt><trkpt lat="45.270845812989755" lon="5.890456501454696"><ele>230.0</ele><time>2026-04-05T15:41:43Z</time></trkpt><trkpt lat="45.27079280324501" lon="5.890604069448407"><ele>230.0</ele><time>2026-04-05T15:41:44Z</time></trkpt><trkpt lat="45.27073882909582" lon="5.890748460982163"><ele>230.0</ele><time>2026-04-05T15:41:45Z</time></trkpt><trkpt lat="45.27067616217092" lon="5.890886395533814"><ele>230.0</ele><time>2026-04-05T15:41:46Z</time></trkpt><trkpt lat="45.2706283387703" lon="5.891003671430792"><ele>230.0</ele><time>2026-04-05T15:41:47Z</time></trkpt><trkpt lat="45.27058334028951" lon="5.891116913907958"><ele>230.00000000000003</ele><time>2026-04-05T15:41:48Z</time></trkpt><trkpt lat="45.270540288112" lon="5.89121684602708"><ele>230.0</ele><time>2026-04-05T15:41:49Z</time></trkpt><trkpt lat="45.27050702541386" lon="5.891304520953605"><ele>230.0</ele><time>2026-04-05T15:41:50Z</time></trkpt><trkpt lat="45.27045569204949" lon="5.89136000718481"><ele>230.0</ele><time>2026-04-05T15:41:51Z</time></trkpt><trkpt lat="45.27041941789144" lon="5.8914466018494"><ele>230.00000000000003</ele><time>2026-04-05T15:41:52Z</time></trkpt><trkpt lat="45.270349458447384" lon="5.891508121087128"><ele>230.0</ele><time>2026-04-05T15:41:53Z</time></trkpt><trkpt lat="45.27026534607617" lon="5.891560824115061"><ele>230.0</ele><time>2026-04-05T15:41:54Z</time></trkpt><trkpt lat="45.270194905326534" lon="5.891641573931003"><ele>230.0</ele><time>2026-04-05T15:41:55Z</time></trkpt><trkpt lat="45.2701530321427" lon="5.891773197803182"><ele>230.0</ele><time>2026-04-05T15:41:56Z</time></trkpt><trkpt lat="45.27014412491061" lon="5.8919226347005935"><ele>230.0</ele><time>2026-04-05T15:41:57Z</time></trkpt><trkpt lat="45.27013408463453" lon="5.892055808410199"><ele>230.0</ele><time>2026-04-05T15:41:58Z</time></trkpt><trkpt lat="45.270090631832694" lon="5.892165611912936"><ele>230.0</ele><time>2026-04-05T15:41:59Z</time></trkpt><trkpt lat="45.2700357572988" lon="5.892257935026088"><ele>230.0</ele><time>2026-04-05T15:42:00Z</time></trkpt><trkpt lat="45.26997383406346" lon="5.8923565504867526"><ele>230.0</ele><time>2026-04-05T15:42:01Z</time></trkpt><trkpt lat="45.269900549240965" lon="5.892471090554022"><ele>230.0</ele><time>2026-04-05T15:42:02Z</time></trkpt><trkpt lat="45.26982288989043" lon="5.892586892515789"><ele>230.0</ele><time>2026-04-05T15:42:03Z</time></trkpt><trkpt lat="45.26974845043413" lon="5.892705015609555"><ele>229.5</ele><time>2026-04-05T15:42:04Z</time></trkpt><trkpt lat="45.2696711185304" lon="5.89283026393519"><ele>229.0</ele><time>2026-04-05T15:42:05Z</time></trkpt><trkpt lat="45.269582750158634" lon="5.89297279666735"><ele>228.5</ele><time>2026-04-05T15:42:06Z</time></trkpt><trkpt lat="45.26948855831911" lon="5.893134100759627"><ele>228.0</ele><time>2026-04-05T15:42:07Z</time></trkpt><trkpt lat="45.26938455278056" lon="5.893308839308731"><ele>228.33333333333331</ele><time>2026-04-05T15:42:08Z</time></trkpt><trkpt lat="45.26926363209306" lon="5.893510822111769"><ele>228.66666666666666</ele><time>2026-04-05T15:42:09Z</time></trkpt><trkpt lat="45.269122778993896" lon="5.893734265629844"><ele>229.0</ele><time>2026-04-05T15:42:10.001Z</time></trkpt><trkpt lat="45.26897209943693" lon="5.893971233152448"><ele>229.0</ele><time>2026-04-05T15:42:11.001Z</time></trkpt><trkpt lat="45.268816573491215" lon="5.894212951286046"><ele>229.0</ele><time>2026-04-05T15:42:12.001Z</time></trkpt><trkpt lat="45.26867186332759" lon="5.89442669781009"><ele>229.0</ele><time>2026-04-05T15:42:13.001Z</time></trkpt><trkpt lat="45.26853828051925" lon="5.894606832672088"><ele>230.0</ele><time>2026-04-05T15:42:14.001Z</time></trkpt><trkpt lat="45.26841302842217" lon="5.894763978137834"><ele>231.0</ele><time>2026-04-05T15:42:15.001Z</time></trkpt><trkpt lat="45.26829261715043" lon="5.894907905763008"><ele>232.0</ele><time>2026-04-05T15:42:16.001Z</time></trkpt><trkpt lat="45.26820504320857" lon="5.895052166628229"><ele>232.0</ele><time>2026-04-05T15:42:17.001Z</time></trkpt><trkpt lat="45.26811408652997" lon="5.895183695565864"><ele>232.0</ele><time>2026-04-05T15:42:18.001Z</time></trkpt><trkpt lat="45.268060882501864" lon="5.895277824357751"><ele>232.0</ele><time>2026-04-05T15:42:19.001Z</time></trkpt><trkpt lat="45.267941973635104" lon="5.895356075737493"><ele>232.0</ele><time>2026-04-05T15:42:20.001Z</time></trkpt><trkpt lat="45.267829404147484" lon="5.8953957795027225"><ele>232.0</ele><time>2026-04-05T15:42:21.001Z</time></trkpt><trkpt lat="45.26774202099543" lon="5.895406073732065"><ele>232.0</ele><time>2026-04-05T15:42:22.001Z</time></trkpt><trkpt lat="45.2676747899652" lon="5.895394498879913"><ele>232.0</ele><time>2026-04-05T15:42:23.001Z</time></trkpt><trkpt lat="45.26754432201215" lon="5.895347433934918"><ele>232.0</ele><time>2026-04-05T15:42:25.001Z</time></trkpt><trkpt lat="45.26745881942783" lon="5.895286279460314"><ele>232.0</ele><time>2026-04-05T15:42:26.001Z</time></trkpt><trkpt lat="45.267354703942864" lon="5.895204622734937"><ele>231.66666666666666</ele><time>2026-04-05T15:42:27.001Z</time></trkpt><trkpt lat="45.26723108527909" lon="5.895110094244787"><ele>231.33333333333331</ele><time>2026-04-05T15:42:28.001Z</time></trkpt><trkpt lat="45.26707108852547" lon="5.894988785294345"><ele>231.0</ele><time>2026-04-05T15:42:29.001Z</time></trkpt><trkpt lat="45.26686775074026" lon="5.894839292428662"><ele>230.33333333333331</ele><time>2026-04-05T15:42:30.001Z</time></trkpt><trkpt lat="45.266682001554884" lon="5.89469729986818"><ele>229.66666666666666</ele><time>2026-04-05T15:42:31.001Z</time></trkpt><trkpt lat="45.26652155487949" lon="5.894571491862374"><ele>229.0</ele><time>2026-04-05T15:42:32.001Z</time></trkpt><trkpt lat="45.266367054207585" lon="5.894450039414561"><ele>229.0</ele><time>2026-04-05T15:42:33.001Z</time></trkpt><trkpt lat="45.266209648395176" lon="5.894317911368733"><ele>229.0</ele><time>2026-04-05T15:42:34.001Z</time></trkpt><trkpt lat="45.26604982087355" lon="5.894172824703286"><ele>229.0</ele><time>2026-04-05T15:42:35.001Z</time></trkpt><trkpt lat="45.265892990866824" lon="5.894026685279051"><ele>229.0</ele><time>2026-04-05T15:42:36.001Z</time></trkpt><trkpt lat="45.26573776326046" lon="5.893868056750782"><ele>229.0</ele><time>2026-04-05T15:42:37.001Z</time></trkpt><trkpt lat="45.26558168560409" lon="5.893712948681682"><ele>229.0</ele><time>2026-04-05T15:42:38.001Z</time></trkpt><trkpt lat="45.265425093647885" lon="5.893556598726707"><ele>228.66666666666666</ele><time>2026-04-05T15:42:39.001Z</time></trkpt><trkpt lat="45.26527296824089" lon="5.893395182277269"><ele>228.33333333333331</ele><time>2026-04-05T15:42:40.001Z</time></trkpt><trkpt lat="45.26512008290418" lon="5.893239359085257"><ele>228.0</ele><time>2026-04-05T15:42:41.001Z</time></trkpt><trkpt lat="45.26496607376799" lon="5.893083926268071"><ele>228.0</ele><time>2026-04-05T15:42:42.001Z</time></trkpt><trkpt lat="45.26481110469143" lon="5.892924976773497"><ele>228.0</ele><time>2026-04-05T15:42:43.001Z</time></trkpt><trkpt lat="45.26465186752714" lon="5.8927638628233785"><ele>228.0</ele><time>2026-04-05T15:42:44.001Z</time></trkpt><trkpt lat="45.26448857729715" lon="5.892600158644637"><ele>228.66666666666669</ele><time>2026-04-05T15:42:45.001Z</time></trkpt><trkpt lat="45.26431645091408" lon="5.892420372718812"><ele>229.33333333333334</ele><time>2026-04-05T15:42:46.001Z</time></trkpt><trkpt lat="45.264143657391024" lon="5.892234641389531"><ele>230.0</ele><time>2026-04-05T15:42:47.001Z</time></trkpt><trkpt lat="45.263972618057075" lon="5.892059347297626"><ele>230.0</ele><time>2026-04-05T15:42:48.001Z</time></trkpt><trkpt lat="45.26380347979978" lon="5.891878464330158"><ele>230.0</ele><time>2026-04-05T15:42:49.001Z</time></trkpt><trkpt lat="45.263636714596885" lon="5.891693197494341"><ele>230.0</ele><time>2026-04-05T15:42:50.001Z</time></trkpt><trkpt lat="45.2634657266308" lon="5.891498393155075"><ele>230.0</ele><time>2026-04-05T15:42:51.001Z</time></trkpt><trkpt lat="45.26327174146173" lon="5.89130168843231"><ele>230.0</ele><time>2026-04-05T15:42:52.001Z</time></trkpt><trkpt lat="45.263064708966226" lon="5.891080438741643"><ele>230.5</ele><time>2026-04-05T15:42:53.001Z</time></trkpt><trkpt lat="45.26286238036441" lon="5.890856632661312"><ele>231.0</ele><time>2026-04-05T15:42:54.001Z</time></trkpt><trkpt lat="45.26266148940749" lon="5.890625810385077"><ele>231.0</ele><time>2026-04-05T15:42:55.001Z</time></trkpt><trkpt lat="45.26247509755236" lon="5.890402087865175"><ele>231.0</ele><time>2026-04-05T15:42:56.001Z</time></trkpt><trkpt lat="45.26228613359113" lon="5.890198853255614"><ele>231.5</ele><time>2026-04-05T15:42:57.001Z</time></trkpt><trkpt lat="45.262061959814" lon="5.889962653590657"><ele>232.0</ele><time>2026-04-05T15:42:58.001Z</time></trkpt><trkpt lat="45.261801784278305" lon="5.889677037741725"><ele>232.0</ele><time>2026-04-05T15:42:59.001Z</time></trkpt><trkpt lat="45.26152944796019" lon="5.88935109790202"><ele>232.0</ele><time>2026-04-05T15:43:00.001Z</time></trkpt><trkpt lat="45.261260569153656" lon="5.889029117841797"><ele>231.5</ele><time>2026-04-05T15:43:01.001Z</time></trkpt><trkpt lat="45.26099863926391" lon="5.888724588586728"><ele>231.0</ele><time>2026-04-05T15:43:02.001Z</time></trkpt><trkpt lat="45.26074264171733" lon="5.888424401154954"><ele>229.5</ele><time>2026-04-05T15:43:03.001Z</time></trkpt><trkpt lat="45.260489029461795" lon="5.888125716312485"><ele>228.0</ele><time>2026-04-05T15:43:04.001Z</time></trkpt><trkpt lat="45.260235773022856" lon="5.887827678013077"><ele>229.0</ele><time>2026-04-05T15:43:05.001Z</time></trkpt><trkpt lat="45.259983298652685" lon="5.887527744719519"><ele>230.0</ele><time>2026-04-05T15:43:06.001Z</time></trkpt><trkpt lat="45.259732803010685" lon="5.887223770224465"><ele>230.0</ele><time>2026-04-05T15:43:07.001Z</time></trkpt><trkpt lat="45.25948450315422" lon="5.886912204316595"><ele>230.0</ele><time>2026-04-05T15:43:08.002Z</time></trkpt><trkpt lat="45.25922835366781" lon="5.886597766685175"><ele>230.5</ele><time>2026-04-05T15:43:09.002Z</time></trkpt><trkpt lat="45.258975145115755" lon="5.886286648789967"><ele>231.0</ele><time>2026-04-05T15:43:10.002Z</time></trkpt><trkpt lat="45.25871529872411" lon="5.8859760932890435"><ele>231.0</ele><time>2026-04-05T15:43:11.002Z</time></trkpt><trkpt lat="45.25845462624203" lon="5.885662106952581"><ele>231.0</ele><time>2026-04-05T15:43:12.002Z</time></trkpt><trkpt lat="45.25819188841981" lon="5.885336774562505"><ele>230.5</ele><time>2026-04-05T15:43:13.002Z</time></trkpt><trkpt lat="45.25792750384275" lon="5.885014088633024"><ele>230.0</ele><time>2026-04-05T15:43:14.002Z</time></trkpt><trkpt lat="45.25766582218551" lon="5.884682781240998"><ele>230.0</ele><time>2026-04-05T15:43:15.002Z</time></trkpt><trkpt lat="45.25740563934557" lon="5.884359306927352"><ele>230.0</ele><time>2026-04-05T15:43:16.002Z</time></trkpt><trkpt lat="45.25714627546478" lon="5.884030626359973"><ele>229.0</ele><time>2026-04-05T15:43:17.002Z</time></trkpt><trkpt lat="45.2568823992834" lon="5.883717651309808"><ele>228.0</ele><time>2026-04-05T15:43:17.999Z</time></trkpt><trkpt lat="45.25662280353207" lon="5.883372578847257"><ele>228.0</ele><time>2026-04-05T15:43:18.999Z</time></trkpt><trkpt lat="45.25637070113777" lon="5.883035295142298"><ele>228.0</ele><time>2026-04-05T15:43:19.999Z</time></trkpt><trkpt lat="45.256120734465576" lon="5.882693420248109"><ele>227.0</ele><time>2026-04-05T15:43:20.999Z</time></trkpt><trkpt lat="45.255871414514004" lon="5.882338752406106"><ele>226.0</ele><time>2026-04-05T15:43:21.999Z</time></trkpt><trkpt lat="45.255616309447106" lon="5.88199479795032"><ele>226.0</ele><time>2026-04-05T15:43:22.999Z</time></trkpt><trkpt lat="45.25536220321671" lon="5.881665102400956"><ele>226.0</ele><time>2026-04-05T15:43:23.999Z</time></trkpt><trkpt lat="45.255105280208625" lon="5.881334457265646"><ele>226.0</ele><time>2026-04-05T15:43:24.999Z</time></trkpt><trkpt lat="45.25485217809904" lon="5.881002464813302"><ele>226.0</ele><time>2026-04-05T15:43:25.999Z</time></trkpt><trkpt lat="45.25460302253543" lon="5.880670153364616"><ele>226.5</ele><time>2026-04-05T15:43:26.999Z</time></trkpt><trkpt lat="45.25434982543224" lon="5.880334832336804"><ele>227.0</ele><time>2026-04-05T15:43:27.999Z</time></trkpt><trkpt lat="45.25409886353796" lon="5.880002173003162"><ele>226.5</ele><time>2026-04-05T15:43:28.999Z</time></trkpt><trkpt lat="45.25384892561567" lon="5.8796552289360635"><ele>226.0</ele><time>2026-04-05T15:43:29.999Z</time></trkpt><trkpt lat="45.253598550063685" lon="5.879309707994798"><ele>226.0</ele><time>2026-04-05T15:43:30.999Z</time></trkpt><trkpt lat="45.25335694312422" lon="5.878967165518904"><ele>226.0</ele><time>2026-04-05T15:43:31.999Z</time></trkpt><trkpt lat="45.253120590057165" lon="5.878628231646039"><ele>226.5</ele><time>2026-04-05T15:43:32.999Z</time></trkpt><trkpt lat="45.25288747443965" lon="5.878289297980616"><ele>227.0</ele><time>2026-04-05T15:43:33.999Z</time></trkpt><trkpt lat="45.25265431564661" lon="5.877951116719686"><ele>227.0</ele><time>2026-04-05T15:43:34.999Z</time></trkpt><trkpt lat="45.25242109208696" lon="5.87760512176494"><ele>227.0</ele><time>2026-04-05T15:43:35.999Z</time></trkpt><trkpt lat="45.252190504854006" lon="5.877253561161176"><ele>227.5</ele><time>2026-04-05T15:43:36.999Z</time></trkpt><trkpt lat="45.25196714055671" lon="5.876901847700561"><ele>228.0</ele><time>2026-04-05T15:43:38Z</time></trkpt><trkpt lat="45.251740001004684" lon="5.876547822847607"><ele>228.5</ele><time>2026-04-05T15:43:39Z</time></trkpt><trkpt lat="45.251512167375644" lon="5.876194021851993"><ele>229.0</ele><time>2026-04-05T15:43:40Z</time></trkpt><trkpt lat="45.25128258346617" lon="5.875836853711114"><ele>227.5</ele><time>2026-04-05T15:43:41Z</time></trkpt><trkpt lat="45.25105906932425" lon="5.875484332977673"><ele>226.0</ele><time>2026-04-05T15:43:42Z</time></trkpt><trkpt lat="45.25084077357857" lon="5.875140484649185"><ele>226.5</ele><time>2026-04-05T15:43:43Z</time></trkpt><trkpt lat="45.25062762311788" lon="5.8747913627753245"><ele>227.0</ele><time>2026-04-05T15:43:44Z</time></trkpt><trkpt lat="45.25041580583178" lon="5.8744423981399825"><ele>226.5</ele><time>2026-04-05T15:43:45Z</time></trkpt><trkpt lat="45.25020061645469" lon="5.874081602705833"><ele>226.0</ele><time>2026-04-05T15:43:46Z</time></trkpt><trkpt lat="45.249988536345334" lon="5.873707360557873"><ele>226.0</ele><time>2026-04-05T15:43:47Z</time></trkpt><trkpt lat="45.249769182338646" lon="5.873336988707253"><ele>226.0</ele><time>2026-04-05T15:43:48Z</time></trkpt><trkpt lat="45.249557648032564" lon="5.87296095550876"><ele>226.0</ele><time>2026-04-05T15:43:49Z</time></trkpt><trkpt lat="45.24934602776086" lon="5.872587910413289"><ele>226.0</ele><time>2026-04-05T15:43:50Z</time></trkpt><trkpt lat="45.24913736039952" lon="5.872210734969853"><ele>225.5</ele><time>2026-04-05T15:43:51Z</time></trkpt><trkpt lat="45.248932094895494" lon="5.871840138669107"><ele>225.0</ele><time>2026-04-05T15:43:52Z</time></trkpt><trkpt lat="45.2487319650099" lon="5.871468749677631"><ele>225.0</ele><time>2026-04-05T15:43:53Z</time></trkpt><trkpt lat="45.24853429238364" lon="5.871089798884325"><ele>225.0</ele><time>2026-04-05T15:43:54Z</time></trkpt><trkpt lat="45.24833824595258" lon="5.870703488300007"><ele>224.5</ele><time>2026-04-05T15:43:55Z</time></trkpt><trkpt lat="45.248140959066426" lon="5.870310199296344"><ele>224.0</ele><time>2026-04-05T15:43:56Z</time></trkpt><trkpt lat="45.24794421544638" lon="5.869913852708087"><ele>224.0</ele><time>2026-04-05T15:43:57Z</time></trkpt><trkpt lat="45.24775004134282" lon="5.869513719162444"><ele>224.0</ele><time>2026-04-05T15:43:58Z</time></trkpt><trkpt lat="45.247557005994224" lon="5.869111491577873"><ele>223.5</ele><time>2026-04-05T15:43:59Z</time></trkpt><trkpt lat="45.24736310665668" lon="5.868710176465916"><ele>223.0</ele><time>2026-04-05T15:44:00Z</time></trkpt><trkpt lat="45.24717111754988" lon="5.868310145920873"><ele>223.0</ele><time>2026-04-05T15:44:01Z</time></trkpt><trkpt lat="45.24698199342323" lon="5.867908858625542"><ele>223.0</ele><time>2026-04-05T15:44:02Z</time></trkpt><trkpt lat="45.24679656679073" lon="5.867499520367213"><ele>223.0</ele><time>2026-04-05T15:44:03Z</time></trkpt><trkpt lat="45.24661269706591" lon="5.8670881060742754"><ele>223.0</ele><time>2026-04-05T15:44:04Z</time></trkpt><trkpt lat="45.24643081773232" lon="5.866669498549365"><ele>223.0</ele><time>2026-04-05T15:44:05Z</time></trkpt><trkpt lat="45.246249130440695" lon="5.866248221750267"><ele>223.0</ele><time>2026-04-05T15:44:06Z</time></trkpt><trkpt lat="45.24606726172038" lon="5.8658290769272545"><ele>222.5</ele><time>2026-04-05T15:44:07Z</time></trkpt><trkpt lat="45.245889265932924" lon="5.865412924155657"><ele>222.0</ele><time>2026-04-05T15:44:08Z</time></trkpt><trkpt lat="45.24571519834258" lon="5.864993611312967"><ele>222.5</ele><time>2026-04-05T15:44:09Z</time></trkpt><trkpt lat="45.24554630385191" lon="5.864568436114596"><ele>223.0</ele><time>2026-04-05T15:44:10Z</time></trkpt><trkpt lat="45.24537574867901" lon="5.864144500871976"><ele>223.0</ele><time>2026-04-05T15:44:11Z</time></trkpt><trkpt lat="45.245210485131" lon="5.86371481669526"><ele>223.0</ele><time>2026-04-05T15:44:12Z</time></trkpt><trkpt lat="45.245044441198324" lon="5.863278479764445"><ele>223.5</ele><time>2026-04-05T15:44:13Z</time></trkpt><trkpt lat="45.24487805580725" lon="5.862842004671361"><ele>224.0</ele><time>2026-04-05T15:44:14Z</time></trkpt><trkpt lat="45.244720206407735" lon="5.862397504438546"><ele>224.0</ele><time>2026-04-05T15:44:15Z</time></trkpt><trkpt lat="45.24457142455949" lon="5.861938717933683"><ele>224.0</ele><time>2026-04-05T15:44:16Z</time></trkpt><trkpt lat="45.244443261071105" lon="5.8614526838450836"><ele>224.5</ele><time>2026-04-05T15:44:17Z</time></trkpt><trkpt lat="45.24431732799257" lon="5.8609175334271635"><ele>225.0</ele><time>2026-04-05T15:44:18.001Z</time></trkpt><trkpt lat="45.24420909440421" lon="5.860375988811966"><ele>225.5</ele><time>2026-04-05T15:44:19.001Z</time></trkpt><trkpt lat="45.24413813711159" lon="5.859840336930407"><ele>226.0</ele><time>2026-04-05T15:44:20.001Z</time></trkpt><trkpt lat="45.24377636575024" lon="5.8597121652147495"><ele>226.0</ele><time>2026-04-05T15:44:21.001Z</time></trkpt><trkpt lat="45.24363591131512" lon="5.859275414113974"><ele>226.0</ele><time>2026-04-05T15:44:22.001Z</time></trkpt><trkpt lat="45.243497428055036" lon="5.858835397322809"><ele>225.0</ele><time>2026-04-05T15:44:23.001Z</time></trkpt><trkpt lat="45.24336299919851" lon="5.858389004390765"><ele>224.0</ele><time>2026-04-05T15:44:24.001Z</time></trkpt><trkpt lat="45.24323399110596" lon="5.857934599255974"><ele>223.0</ele><time>2026-04-05T15:44:25.001Z</time></trkpt><trkpt lat="45.243098122111576" lon="5.857477703563022"><ele>222.0</ele><time>2026-04-05T15:44:26.001Z</time></trkpt><trkpt lat="45.242970189013164" lon="5.857023236097807"><ele>222.5</ele><time>2026-04-05T15:44:27.001Z</time></trkpt><trkpt lat="45.24283794398287" lon="5.856566962405256"><ele>223.0</ele><time>2026-04-05T15:44:28.001Z</time></trkpt><trkpt lat="45.242704390650594" lon="5.856100234658768"><ele>224.5</ele><time>2026-04-05T15:44:29.001Z</time></trkpt><trkpt lat="45.242566062899165" lon="5.855637643802732"><ele>226.0</ele><time>2026-04-05T15:44:30.001Z</time></trkpt><trkpt lat="45.24243108731215" lon="5.855167033894337"><ele>226.5</ele><time>2026-04-05T15:44:31.001Z</time></trkpt><trkpt lat="45.24230398036698" lon="5.854697309716458"><ele>227.0</ele><time>2026-04-05T15:44:32.001Z</time></trkpt><trkpt lat="45.24216949642391" lon="5.854225583624251"><ele>228.0</ele><time>2026-04-05T15:44:33.001Z</time></trkpt><trkpt lat="45.24204212614751" lon="5.853753685675757"><ele>229.0</ele><time>2026-04-05T15:44:34.001Z</time></trkpt><trkpt lat="45.24191428902995" lon="5.8532838444708375"><ele>230.0</ele><time>2026-04-05T15:44:35.001Z</time></trkpt><trkpt lat="45.24178262724326" lon="5.852818229257631"><ele>231.0</ele><time>2026-04-05T15:44:36.001Z</time></trkpt><trkpt lat="45.2416513773668" lon="5.852355167529512"><ele>231.0</ele><time>2026-04-05T15:44:37.001Z</time></trkpt><trkpt lat="45.24152497365715" lon="5.851896172943557"><ele>231.0</ele><time>2026-04-05T15:44:38.001Z</time></trkpt><trkpt lat="45.241392039218" lon="5.85143383099683"><ele>234.0</ele><time>2026-04-05T15:44:39.001Z</time></trkpt><trkpt lat="45.241262604335525" lon="5.850962765242356"><ele>237.0</ele><time>2026-04-05T15:44:40.001Z</time></trkpt><trkpt lat="45.241127328248794" lon="5.850494961742767"><ele>240.5</ele><time>2026-04-05T15:44:41.001Z</time></trkpt><trkpt lat="45.2409932179735" lon="5.850036648974174"><ele>244.0</ele><time>2026-04-05T15:44:42.001Z</time></trkpt><trkpt lat="45.240857958637385" lon="5.849573091443864"><ele>243.5</ele><time>2026-04-05T15:44:43.001Z</time></trkpt><trkpt lat="45.24071701847107" lon="5.849108775523984"><ele>243.0</ele><time>2026-04-05T15:44:44.001Z</time></trkpt><trkpt lat="45.24056853631589" lon="5.848637275080294"><ele>242.5</ele><time>2026-04-05T15:44:45.001Z</time></trkpt><trkpt lat="45.24042571561221" lon="5.848166358698741"><ele>242.0</ele><time>2026-04-05T15:44:46.001Z</time></trkpt><trkpt lat="45.240268871746395" lon="5.84770856456105"><ele>243.0</ele><time>2026-04-05T15:44:47.001Z</time></trkpt><trkpt lat="45.24011050355999" lon="5.847258630390107"><ele>244.0</ele><time>2026-04-05T15:44:48.001Z</time></trkpt><trkpt lat="45.23994898249386" lon="5.84681030431491"><ele>242.5</ele><time>2026-04-05T15:44:49.001Z</time></trkpt><trkpt lat="45.23979196906387" lon="5.84636706771692"><ele>241.0</ele><time>2026-04-05T15:44:50.001Z</time></trkpt><trkpt lat="45.239624085285165" lon="5.8459166670487335"><ele>240.5</ele><time>2026-04-05T15:44:51.001Z</time></trkpt><trkpt lat="45.23945044185231" lon="5.845463919904859"><ele>240.0</ele><time>2026-04-05T15:44:52.001Z</time></trkpt><trkpt lat="45.2392770645212" lon="5.8450229144433745"><ele>240.0</ele><time>2026-04-05T15:44:53.001Z</time></trkpt><trkpt lat="45.23910887188263" lon="5.844589938934352"><ele>240.0</ele><time>2026-04-05T15:44:54.001Z</time></trkpt><trkpt lat="45.238936592876705" lon="5.844169727869071"><ele>241.0</ele><time>2026-04-05T15:44:55.001Z</time></trkpt><trkpt lat="45.23876416914845" lon="5.843756780491921"><ele>242.0</ele><time>2026-04-05T15:44:56.001Z</time></trkpt><trkpt lat="45.23858612902374" lon="5.8433372021201055"><ele>242.0</ele><time>2026-04-05T15:44:57.001Z</time></trkpt><trkpt lat="45.238421609247006" lon="5.8429142499701525"><ele>242.0</ele><time>2026-04-05T15:44:58.001Z</time></trkpt><trkpt lat="45.238215092912256" lon="5.8425165464293265"><ele>239.0</ele><time>2026-04-05T15:44:59.001Z</time></trkpt><trkpt lat="45.23802292703668" lon="5.842109053268664"><ele>236.0</ele><time>2026-04-05T15:45:00.001Z</time></trkpt><trkpt lat="45.23783213186079" lon="5.8416986946471"><ele>236.0</ele><time>2026-04-05T15:45:01.001Z</time></trkpt><trkpt lat="45.2376351007042" lon="5.841287138697759"><ele>236.0</ele><time>2026-04-05T15:45:02.001Z</time></trkpt><trkpt lat="45.237432355394766" lon="5.840867788025708"><ele>235.0</ele><time>2026-04-05T15:45:03.001Z</time></trkpt><trkpt lat="45.23722661332566" lon="5.840449999436888"><ele>234.0</ele><time>2026-04-05T15:45:04.001Z</time></trkpt><trkpt lat="45.237013768997194" lon="5.840038161618293"><ele>234.0</ele><time>2026-04-05T15:45:05.001Z</time></trkpt><trkpt lat="45.236797260661554" lon="5.839630102799161"><ele>234.0</ele><time>2026-04-05T15:45:06.001Z</time></trkpt><trkpt lat="45.2365786788382" lon="5.839234898980077"><ele>233.5</ele><time>2026-04-05T15:45:07.001Z</time></trkpt><trkpt lat="45.23636314437143" lon="5.838833753039532"><ele>233.0</ele><time>2026-04-05T15:45:08.001Z</time></trkpt><trkpt lat="45.236141794120265" lon="5.838453439570162"><ele>234.5</ele><time>2026-04-05T15:45:09.002Z</time></trkpt><trkpt lat="45.23593287207642" lon="5.838076156877934"><ele>236.0</ele><time>2026-04-05T15:45:10.002Z</time></trkpt><trkpt lat="45.23571844457924" lon="5.837716410255476"><ele>236.0</ele><time>2026-04-05T15:45:11.002Z</time></trkpt><trkpt lat="45.23550564079286" lon="5.83736176776566"><ele>236.0</ele><time>2026-04-05T15:45:12.002Z</time></trkpt><trkpt lat="45.23529217196165" lon="5.83700366056808"><ele>236.0</ele><time>2026-04-05T15:45:13.002Z</time></trkpt><trkpt lat="45.235073868759734" lon="5.836644897417211"><ele>236.0</ele><time>2026-04-05T15:45:14.002Z</time></trkpt><trkpt lat="45.234855376406095" lon="5.8362858782965255"><ele>233.0</ele><time>2026-04-05T15:45:15.002Z</time></trkpt><trkpt lat="45.23463409870822" lon="5.835936278366785"><ele>230.0</ele><time>2026-04-05T15:45:16.002Z</time></trkpt><trkpt lat="45.23442400767694" lon="5.835613337082783"><ele>230.0</ele><time>2026-04-05T15:45:17.002Z</time></trkpt><trkpt lat="45.2342232348909" lon="5.835307883841009"><ele>230.0</ele><time>2026-04-05T15:45:18.002Z</time></trkpt><trkpt lat="45.2340336201425" lon="5.835022031592401"><ele>229.0</ele><time>2026-04-05T15:45:19.002Z</time></trkpt><trkpt lat="45.233842687520166" lon="5.8347443929736045"><ele>228.0</ele><time>2026-04-05T15:45:20.002Z</time></trkpt><trkpt lat="45.233642688334584" lon="5.834446452133315"><ele>231.5</ele><time>2026-04-05T15:45:21.002Z</time></trkpt><trkpt lat="45.233429776785364" lon="5.834135279149741"><ele>235.0</ele><time>2026-04-05T15:45:22.002Z</time></trkpt><trkpt lat="45.23321131901582" lon="5.833814850209964"><ele>231.0</ele><time>2026-04-05T15:45:23.002Z</time></trkpt><trkpt lat="45.232991510044215" lon="5.833488903165207"><ele>227.0</ele><time>2026-04-05T15:45:24Z</time></trkpt><trkpt lat="45.23276595734182" lon="5.833164391997963"><ele>227.0</ele><time>2026-04-05T15:45:25Z</time></trkpt><trkpt lat="45.23253559877384" lon="5.8328441665371535"><ele>227.0</ele><time>2026-04-05T15:45:26Z</time></trkpt><trkpt lat="45.23230454531487" lon="5.832527302703503"><ele>227.5</ele><time>2026-04-05T15:45:27Z</time></trkpt><trkpt lat="45.232065563230094" lon="5.832223094711448"><ele>228.0</ele><time>2026-04-05T15:45:28Z</time></trkpt><trkpt lat="45.23183255128858" lon="5.831898533244998"><ele>229.5</ele><time>2026-04-05T15:45:29Z</time></trkpt><trkpt lat="45.23159475165598" lon="5.831578564192218"><ele>231.0</ele><time>2026-04-05T15:45:30Z</time></trkpt><trkpt lat="45.23135304493871" lon="5.831252270200885"><ele>229.0</ele><time>2026-04-05T15:45:31Z</time></trkpt><trkpt lat="45.23111148006815" lon="5.830923344227734"><ele>227.0</ele><time>2026-04-05T15:45:32Z</time></trkpt><trkpt lat="45.230863776736385" lon="5.830600004108632"><ele>227.0</ele><time>2026-04-05T15:45:33Z</time></trkpt><trkpt lat="45.23061219281971" lon="5.83027907207982"><ele>227.0</ele><time>2026-04-05T15:45:34Z</time></trkpt><trkpt lat="45.230355775415084" lon="5.829959781037915"><ele>227.0</ele><time>2026-04-05T15:45:35Z</time></trkpt><trkpt lat="45.230098334038004" lon="5.829641697242713"><ele>227.0</ele><time>2026-04-05T15:45:36Z</time></trkpt><trkpt lat="45.22984085751661" lon="5.82932291858398"><ele>225.5</ele><time>2026-04-05T15:45:37Z</time></trkpt><trkpt lat="45.229583963345995" lon="5.8290047700229985"><ele>224.0</ele><time>2026-04-05T15:45:38Z</time></trkpt><trkpt lat="45.22932439475386" lon="5.8286908686001455"><ele>224.0</ele><time>2026-04-05T15:45:39Z</time></trkpt><trkpt lat="45.22906525193094" lon="5.828378572848843"><ele>224.0</ele><time>2026-04-05T15:45:40Z</time></trkpt><trkpt lat="45.22880625535767" lon="5.828062561902906"><ele>225.5</ele><time>2026-04-05T15:45:41Z</time></trkpt><trkpt lat="45.22854621194117" lon="5.827737072166942"><ele>227.0</ele><time>2026-04-05T15:45:42Z</time></trkpt><trkpt lat="45.22828140057771" lon="5.827424695667237"><ele>224.5</ele><time>2026-04-05T15:45:43Z</time></trkpt><trkpt lat="45.22801552157177" lon="5.827108239587633"><ele>222.0</ele><time>2026-04-05T15:45:44Z</time></trkpt><trkpt lat="45.22774548933228" lon="5.8268056733220295"><ele>222.0</ele><time>2026-04-05T15:45:45Z</time></trkpt><trkpt lat="45.22747275462856" lon="5.8264967480786085"><ele>222.0</ele><time>2026-04-05T15:45:46Z</time></trkpt><trkpt lat="45.22719696354398" lon="5.826190712110446"><ele>223.0</ele><time>2026-04-05T15:45:47Z</time></trkpt><trkpt lat="45.226917862366015" lon="5.825881705443092"><ele>224.0</ele><time>2026-04-05T15:45:48Z</time></trkpt><trkpt lat="45.22663456967556" lon="5.825585007088639"><ele>223.0</ele><time>2026-04-05T15:45:49Z</time></trkpt><trkpt lat="45.22635310247309" lon="5.825299409122122"><ele>222.0</ele><time>2026-04-05T15:45:50Z</time></trkpt><trkpt lat="45.22607667512657" lon="5.8249671781473245"><ele>221.0</ele><time>2026-04-05T15:45:51Z</time></trkpt><trkpt lat="45.225787902442335" lon="5.824705928236366"><ele>220.0</ele><time>2026-04-05T15:45:52Z</time></trkpt><trkpt lat="45.22551739097328" lon="5.824457078144569"><ele>220.5</ele><time>2026-04-05T15:45:53Z</time></trkpt><trkpt lat="45.22525506917999" lon="5.824165550938542"><ele>221.0</ele><time>2026-04-05T15:45:54Z</time></trkpt><trkpt lat="45.22499505438482" lon="5.82389352867934"><ele>221.5</ele><time>2026-04-05T15:45:55Z</time></trkpt><trkpt lat="45.22473337910869" lon="5.823633553081055"><ele>222.0</ele><time>2026-04-05T15:45:56Z</time></trkpt><trkpt lat="45.22447419687835" lon="5.823378611053672"><ele>222.0</ele><time>2026-04-05T15:45:57Z</time></trkpt><trkpt lat="45.22421968899215" lon="5.823116202443046"><ele>222.0</ele><time>2026-04-05T15:45:58Z</time></trkpt><trkpt lat="45.223947863284394" lon="5.82283808422266"><ele>222.5</ele><time>2026-04-05T15:45:59Z</time></trkpt><trkpt lat="45.22369561097774" lon="5.822583543289606"><ele>223.0</ele><time>2026-04-05T15:46:00Z</time></trkpt><trkpt lat="45.22343179474485" lon="5.822318287919287"><ele>223.0</ele><time>2026-04-05T15:46:01Z</time></trkpt><trkpt lat="45.223164852898" lon="5.822055481824832"><ele>223.0</ele><time>2026-04-05T15:46:02Z</time></trkpt><trkpt lat="45.22289618209653" lon="5.8217915147390755"><ele>222.0</ele><time>2026-04-05T15:46:03Z</time></trkpt><trkpt lat="45.222629141608664" lon="5.821539132984006"><ele>221.0</ele><time>2026-04-05T15:46:04Z</time></trkpt><trkpt lat="45.222367550334724" lon="5.82127937372821"><ele>220.5</ele><time>2026-04-05T15:46:05Z</time></trkpt><trkpt lat="45.22210252410016" lon="5.821034768893865"><ele>220.0</ele><time>2026-04-05T15:46:06Z</time></trkpt><trkpt lat="45.221837926210505" lon="5.820775630827827"><ele>220.0</ele><time>2026-04-05T15:46:07.001Z</time></trkpt><trkpt lat="45.22156857836163" lon="5.820522319170401"><ele>220.0</ele><time>2026-04-05T15:46:08.001Z</time></trkpt><trkpt lat="45.221297241821695" lon="5.820265283385568"><ele>220.0</ele><time>2026-04-05T15:46:09.001Z</time></trkpt><trkpt lat="45.221027046356156" lon="5.820016156686619"><ele>220.0</ele><time>2026-04-05T15:46:10.001Z</time></trkpt><trkpt lat="45.22075689689168" lon="5.819750876273256"><ele>220.5</ele><time>2026-04-05T15:46:11.001Z</time></trkpt><trkpt lat="45.22049003314227" lon="5.819493474513021"><ele>221.0</ele><time>2026-04-05T15:46:12.001Z</time></trkpt><trkpt lat="45.220221505804695" lon="5.819245677062875"><ele>221.0</ele><time>2026-04-05T15:46:13.001Z</time></trkpt><trkpt lat="45.21995571284556" lon="5.818998938817481"><ele>221.0</ele><time>2026-04-05T15:46:14.001Z</time></trkpt><trkpt lat="45.21969129672687" lon="5.818748571117062"><ele>221.0</ele><time>2026-04-05T15:46:15.001Z</time></trkpt><trkpt lat="45.21944611321438" lon="5.8185317326067"><ele>221.0</ele><time>2026-04-05T15:46:16.001Z</time></trkpt><trkpt lat="45.21917264546811" lon="5.8182726103030245"><ele>221.0</ele><time>2026-04-05T15:46:17.001Z</time></trkpt><trkpt lat="45.21891308647354" lon="5.818016732219704"><ele>221.0</ele><time>2026-04-05T15:46:18.001Z</time></trkpt><trkpt lat="45.218397767387444" lon="5.817517173691807"><ele>220.5</ele><time>2026-04-05T15:46:20.001Z</time></trkpt><trkpt lat="45.2181402442067" lon="5.817257696595955"><ele>220.0</ele><time>2026-04-05T15:46:21.001Z</time></trkpt><trkpt lat="45.217872553713526" lon="5.817003908044373"><ele>220.5</ele><time>2026-04-05T15:46:22.001Z</time></trkpt><trkpt lat="45.21761209198335" lon="5.816738071723572"><ele>221.0</ele><time>2026-04-05T15:46:23.001Z</time></trkpt><trkpt lat="45.21734781279286" lon="5.816477154017887"><ele>220.0</ele><time>2026-04-05T15:46:24.001Z</time></trkpt><trkpt lat="45.217087474284405" lon="5.816192424615199"><ele>219.0</ele><time>2026-04-05T15:46:25.001Z</time></trkpt><trkpt lat="45.216829088554725" lon="5.8159076768692"><ele>219.0</ele><time>2026-04-05T15:46:26.001Z</time></trkpt><trkpt lat="45.21657291259943" lon="5.815630711161722"><ele>219.0</ele><time>2026-04-05T15:46:27.001Z</time></trkpt><trkpt lat="45.21631828443878" lon="5.815346237540594"><ele>217.0</ele><time>2026-04-05T15:46:28.001Z</time></trkpt><trkpt lat="45.216063657062776" lon="5.815057818525033"><ele>215.0</ele><time>2026-04-05T15:46:29.001Z</time></trkpt><trkpt lat="45.21581120433264" lon="5.814769448727365"><ele>215.5</ele><time>2026-04-05T15:46:30.001Z</time></trkpt><trkpt lat="45.21556571411084" lon="5.814474980218599"><ele>216.0</ele><time>2026-04-05T15:46:31.001Z</time></trkpt><trkpt lat="45.21533172918167" lon="5.814189850250983"><ele>216.0</ele><time>2026-04-05T15:46:32.001Z</time></trkpt><trkpt lat="45.21510430354574" lon="5.813906021850524"><ele>216.0</ele><time>2026-04-05T15:46:33.001Z</time></trkpt><trkpt lat="45.214882173491084" lon="5.813619813208682"><ele>217.5</ele><time>2026-04-05T15:46:34.001Z</time></trkpt><trkpt lat="45.21465770968108" lon="5.813331239376985"><ele>219.0</ele><time>2026-04-05T15:46:35.001Z</time></trkpt><trkpt lat="45.214435824979596" lon="5.813037880403945"><ele>219.0</ele><time>2026-04-05T15:46:36.001Z</time></trkpt><trkpt lat="45.2142147520158" lon="5.812738054085537"><ele>219.0</ele><time>2026-04-05T15:46:37.001Z</time></trkpt><trkpt lat="45.213996081583005" lon="5.812444891957084"><ele>219.5</ele><time>2026-04-05T15:46:38.001Z</time></trkpt><trkpt lat="45.213783242142824" lon="5.812135122471712"><ele>220.0</ele><time>2026-04-05T15:46:39.001Z</time></trkpt><trkpt lat="45.21357259451838" lon="5.81182619180863"><ele>219.0</ele><time>2026-04-05T15:46:40.001Z</time></trkpt><trkpt lat="45.21336374936215" lon="5.811510232887626"><ele>218.0</ele><time>2026-04-05T15:46:41.001Z</time></trkpt><trkpt lat="45.213154874683745" lon="5.81119377500618"><ele>217.0</ele><time>2026-04-05T15:46:42.001Z</time></trkpt><trkpt lat="45.21294873674765" lon="5.81087895208059"><ele>216.0</ele><time>2026-04-05T15:46:43.001Z</time></trkpt><trkpt lat="45.212746432379916" lon="5.810556544315648"><ele>216.0</ele><time>2026-04-05T15:46:44.001Z</time></trkpt><trkpt lat="45.21254725880608" lon="5.810228966411528"><ele>216.0</ele><time>2026-04-05T15:46:45.001Z</time></trkpt><trkpt lat="45.21235054600152" lon="5.8099113325313985"><ele>217.5</ele><time>2026-04-05T15:46:46.001Z</time></trkpt><trkpt lat="45.21216016067716" lon="5.8095804214910896"><ele>219.0</ele><time>2026-04-05T15:46:47.001Z</time></trkpt><trkpt lat="45.211965785517336" lon="5.809247597692372"><ele>220.0</ele><time>2026-04-05T15:46:48.001Z</time></trkpt><trkpt lat="45.211773525605444" lon="5.808904516940823"><ele>221.0</ele><time>2026-04-05T15:46:49.001Z</time></trkpt><trkpt lat="45.21158423296658" lon="5.80856066429118"><ele>219.0</ele><time>2026-04-05T15:46:50.001Z</time></trkpt><trkpt lat="45.211398617670866" lon="5.808217700872117"><ele>217.0</ele><time>2026-04-05T15:46:51.001Z</time></trkpt><trkpt lat="45.211211826117406" lon="5.807874905906865"><ele>217.5</ele><time>2026-04-05T15:46:52.001Z</time></trkpt><trkpt lat="45.21102514392516" lon="5.807531731114426"><ele>218.0</ele><time>2026-04-05T15:46:53.001Z</time></trkpt><trkpt lat="45.210843739880715" lon="5.807187903502834"><ele>218.0</ele><time>2026-04-05T15:46:54.001Z</time></trkpt><trkpt lat="45.21066443445407" lon="5.80684144208695"><ele>218.0</ele><time>2026-04-05T15:46:55.002Z</time></trkpt><trkpt lat="45.21050808868868" lon="5.806464817150466"><ele>218.0</ele><time>2026-04-05T15:46:56.002Z</time></trkpt><trkpt lat="45.21034528737853" lon="5.806095229906722"><ele>218.0</ele><time>2026-04-05T15:46:57.002Z</time></trkpt><trkpt lat="45.21018407350818" lon="5.8057296898836785"><ele>217.0</ele><time>2026-04-05T15:46:58.002Z</time></trkpt><trkpt lat="45.21002556830818" lon="5.805352955824665"><ele>216.0</ele><time>2026-04-05T15:46:59.002Z</time></trkpt><trkpt lat="45.20986754348213" lon="5.804969778958102"><ele>216.0</ele><time>2026-04-05T15:47:00.002Z</time></trkpt><trkpt lat="45.209713992859754" lon="5.80458575884503"><ele>216.0</ele><time>2026-04-05T15:47:01.002Z</time></trkpt><trkpt lat="45.2095629359272" lon="5.804210118059855"><ele>216.0</ele><time>2026-04-05T15:47:02.002Z</time></trkpt><trkpt lat="45.209413985904284" lon="5.803834006429871"><ele>216.0</ele><time>2026-04-05T15:47:03.002Z</time></trkpt><trkpt lat="45.2092675687928" lon="5.803465682192934"><ele>216.5</ele><time>2026-04-05T15:47:04.002Z</time></trkpt><trkpt lat="45.20913125196931" lon="5.803088796283538"><ele>217.0</ele><time>2026-04-05T15:47:05.002Z</time></trkpt><trkpt lat="45.20899586849968" lon="5.8027058300912335"><ele>217.0</ele><time>2026-04-05T15:47:06.002Z</time></trkpt><trkpt lat="45.20886647501371" lon="5.802322486069493"><ele>217.0</ele><time>2026-04-05T15:47:07.002Z</time></trkpt><trkpt lat="45.20873753909187" lon="5.801943287017482"><ele>218.0</ele><time>2026-04-05T15:47:08.002Z</time></trkpt><trkpt lat="45.20860984562108" lon="5.801562547045677"><ele>219.0</ele><time>2026-04-05T15:47:09.002Z</time></trkpt><trkpt lat="45.20848427432391" lon="5.8011870156295195"><ele>219.0</ele><time>2026-04-05T15:47:10.002Z</time></trkpt><trkpt lat="45.208362453565485" lon="5.8008105814173705"><ele>219.0</ele><time>2026-04-05T15:47:11.002Z</time></trkpt><trkpt lat="45.20824355100629" lon="5.800431447820578"><ele>219.5</ele><time>2026-04-05T15:47:12.002Z</time></trkpt><trkpt lat="45.20812704283515" lon="5.800053493078717"><ele>220.0</ele><time>2026-04-05T15:47:13.002Z</time></trkpt><trkpt lat="45.20801173767005" lon="5.7996768047223854"><ele>219.0</ele><time>2026-04-05T15:47:14.002Z</time></trkpt><trkpt lat="45.20789820081297" lon="5.799299746134714"><ele>218.0</ele><time>2026-04-05T15:47:15.002Z</time></trkpt><trkpt lat="45.20778578131866" lon="5.798918861069847"><ele>218.0</ele><time>2026-04-05T15:47:16.002Z</time></trkpt><trkpt lat="45.20767961199104" lon="5.798535548830635"><ele>218.0</ele><time>2026-04-05T15:47:17.002Z</time></trkpt><trkpt lat="45.20757575445006" lon="5.798150753014022"><ele>219.5</ele><time>2026-04-05T15:47:18.002Z</time></trkpt><trkpt lat="45.20747560767547" lon="5.797766692808032"><ele>221.0</ele><time>2026-04-05T15:47:19.002Z</time></trkpt><trkpt lat="45.20737925187994" lon="5.797385053617477"><ele>219.5</ele><time>2026-04-05T15:47:20.002Z</time></trkpt><trkpt lat="45.207286113369655" lon="5.7970101552714555"><ele>218.0</ele><time>2026-04-05T15:47:21.002Z</time></trkpt><trkpt lat="45.207197385810424" lon="5.796652897451758"><ele>216.5</ele><time>2026-04-05T15:47:22.002Z</time></trkpt><trkpt lat="45.207105034623936" lon="5.796304674043091"><ele>215.0</ele><time>2026-04-05T15:47:23.002Z</time></trkpt><trkpt lat="45.20701396969171" lon="5.795957527723854"><ele>215.0</ele><time>2026-04-05T15:47:24.002Z</time></trkpt><trkpt lat="45.206930788219175" lon="5.795629538544421"><ele>215.0</ele><time>2026-04-05T15:47:25.002Z</time></trkpt><trkpt lat="45.20685312591732" lon="5.795299770832008"><ele>216.0</ele><time>2026-04-05T15:47:26.002Z</time></trkpt><trkpt lat="45.2067781081586" lon="5.794979839046313"><ele>217.0</ele><time>2026-04-05T15:47:27.002Z</time></trkpt><trkpt lat="45.206705599227206" lon="5.79465909718423"><ele>217.0</ele><time>2026-04-05T15:47:28.002Z</time></trkpt><trkpt lat="45.20663271404425" lon="5.794341536499231"><ele>217.0</ele><time>2026-04-05T15:47:29.002Z</time></trkpt><trkpt lat="45.206563649563876" lon="5.794022904358626"><ele>218.5</ele><time>2026-04-05T15:47:30Z</time></trkpt><trkpt lat="45.206514685946566" lon="5.7936947727888235"><ele>220.0</ele><time>2026-04-05T15:47:31Z</time></trkpt><trkpt lat="45.20643842572214" lon="5.793384198051521"><ele>220.5</ele><time>2026-04-05T15:47:32Z</time></trkpt><trkpt lat="45.20636000673997" lon="5.793073826782857"><ele>221.0</ele><time>2026-04-05T15:47:33Z</time></trkpt><trkpt lat="45.20628940090791" lon="5.792776460335728"><ele>220.0</ele><time>2026-04-05T15:47:34Z</time></trkpt><trkpt lat="45.2062187157756" lon="5.792477942770245"><ele>219.0</ele><time>2026-04-05T15:47:35Z</time></trkpt><trkpt lat="45.20614287592884" lon="5.792178808806896"><ele>218.0</ele><time>2026-04-05T15:47:36Z</time></trkpt><trkpt lat="45.20608415565986" lon="5.791885785324464"><ele>217.66666666666669</ele><time>2026-04-05T15:47:37Z</time></trkpt><trkpt lat="45.206028628052856" lon="5.791595572292217"><ele>217.33333333333331</ele><time>2026-04-05T15:47:38Z</time></trkpt><trkpt lat="45.205978362193946" lon="5.791295943981692"><ele>217.0</ele><time>2026-04-05T15:47:39Z</time></trkpt><trkpt lat="45.20592749568613" lon="5.790996424177421"><ele>217.0</ele><time>2026-04-05T15:47:40Z</time></trkpt><trkpt lat="45.20587288202814" lon="5.790688100965405"><ele>217.0</ele><time>2026-04-05T15:47:41Z</time></trkpt><trkpt lat="45.20582378535596" lon="5.790379146573528"><ele>217.0</ele><time>2026-04-05T15:47:42Z</time></trkpt><trkpt lat="45.205774659311146" lon="5.790077363947687"><ele>217.0</ele><time>2026-04-05T15:47:43Z</time></trkpt><trkpt lat="45.2057234073374" lon="5.789773133091801"><ele>217.0</ele><time>2026-04-05T15:47:44Z</time></trkpt><trkpt lat="45.20567345368137" lon="5.789464692434426"><ele>217.0</ele><time>2026-04-05T15:47:45Z</time></trkpt><trkpt lat="45.20562545953032" lon="5.789158466588503"><ele>217.0</ele><time>2026-04-05T15:47:46Z</time></trkpt><trkpt lat="45.205571050447226" lon="5.788841544218349"><ele>217.0</ele><time>2026-04-05T15:47:47Z</time></trkpt><trkpt lat="45.2055218410069" lon="5.788532424936081"><ele>217.33333333333331</ele><time>2026-04-05T15:47:48Z</time></trkpt><trkpt lat="45.20546368911953" lon="5.788230766812"><ele>217.66666666666669</ele><time>2026-04-05T15:47:49Z</time></trkpt><trkpt lat="45.20541769710555" lon="5.787944975095668"><ele>218.0</ele><time>2026-04-05T15:47:50Z</time></trkpt><trkpt lat="45.20537603505385" lon="5.787681723329901"><ele>217.66666666666669</ele><time>2026-04-05T15:47:51Z</time></trkpt><trkpt lat="45.205347376296395" lon="5.787411806101852"><ele>217.33333333333331</ele><time>2026-04-05T15:47:52Z</time></trkpt><trkpt lat="45.20535232974244" lon="5.787114432670836"><ele>217.0</ele><time>2026-04-05T15:47:53Z</time></trkpt><trkpt lat="45.20539250026929" lon="5.786822590320795"><ele>217.0</ele><time>2026-04-05T15:47:54Z</time></trkpt><trkpt lat="45.205494845168545" lon="5.786541720196044"><ele>217.0</ele><time>2026-04-05T15:47:55Z</time></trkpt><trkpt lat="45.205571763645814" lon="5.786278840574176"><ele>217.0</ele><time>2026-04-05T15:47:56Z</time></trkpt><trkpt lat="45.20563319181411" lon="5.786039117901338"><ele>216.66666666666666</ele><time>2026-04-05T15:47:57Z</time></trkpt><trkpt lat="45.20571047406383" lon="5.7857834786842295"><ele>216.33333333333331</ele><time>2026-04-05T15:47:58.001Z</time></trkpt><trkpt lat="45.205770482829664" lon="5.785539355585623"><ele>216.0</ele><time>2026-04-05T15:47:59.001Z</time></trkpt><trkpt lat="45.20581583033691" lon="5.785300744499243"><ele>216.66666666666669</ele><time>2026-04-05T15:48:00.001Z</time></trkpt><trkpt lat="45.20583890982756" lon="5.785070832442389"><ele>217.33333333333334</ele><time>2026-04-05T15:48:01.001Z</time></trkpt><trkpt lat="45.205838367097805" lon="5.7848241455916405"><ele>218.0</ele><time>2026-04-05T15:48:02.001Z</time></trkpt><trkpt lat="45.20580550817867" lon="5.78457973919616"><ele>218.0</ele><time>2026-04-05T15:48:03.001Z</time></trkpt><trkpt lat="45.20575751338731" lon="5.78435796722014"><ele>218.0</ele><time>2026-04-05T15:48:04.001Z</time></trkpt><trkpt lat="45.205683290154326" lon="5.784160237503721"><ele>218.0</ele><time>2026-04-05T15:48:05.001Z</time></trkpt><trkpt lat="45.20558714781913" lon="5.78397026617069"><ele>217.33333333333334</ele><time>2026-04-05T15:48:06.001Z</time></trkpt><trkpt lat="45.2054576607487" lon="5.783795848258139"><ele>216.66666666666669</ele><time>2026-04-05T15:48:07.001Z</time></trkpt><trkpt lat="45.2053083957336" lon="5.783642982800786"><ele>216.0</ele><time>2026-04-05T15:48:08.001Z</time></trkpt><trkpt lat="45.20515182770812" lon="5.7835175604399245"><ele>216.0</ele><time>2026-04-05T15:48:09.001Z</time></trkpt><trkpt lat="45.20497969893715" lon="5.78340976810034"><ele>216.0</ele><time>2026-04-05T15:48:10.001Z</time></trkpt><trkpt lat="45.20479815010099" lon="5.783310288750378"><ele>216.0</ele><time>2026-04-05T15:48:11.001Z</time></trkpt><trkpt lat="45.2046122405525" lon="5.7832196523808665"><ele>216.33333333333331</ele><time>2026-04-05T15:48:12.001Z</time></trkpt><trkpt lat="45.20441213494745" lon="5.7831311217154395"><ele>216.66666666666666</ele><time>2026-04-05T15:48:13.001Z</time></trkpt><trkpt lat="45.204221325617276" lon="5.783020144097141"><ele>217.0</ele><time>2026-04-05T15:48:14.001Z</time></trkpt><trkpt lat="45.20403124174676" lon="5.78290570925984"><ele>216.5</ele><time>2026-04-05T15:48:15.001Z</time></trkpt><trkpt lat="45.203836238456155" lon="5.782774812303687"><ele>216.0</ele><time>2026-04-05T15:48:16.001Z</time></trkpt><trkpt lat="45.20361187580191" lon="5.782671613192331"><ele>216.0</ele><time>2026-04-05T15:48:17.001Z</time></trkpt><trkpt lat="45.20337827679505" lon="5.782538113686848"><ele>216.0</ele><time>2026-04-05T15:48:18.001Z</time></trkpt><trkpt lat="45.20315350013431" lon="5.78241703984641"><ele>214.5</ele><time>2026-04-05T15:48:19.001Z</time></trkpt><trkpt lat="45.202934957266535" lon="5.78229287339942"><ele>213.0</ele><time>2026-04-05T15:48:20.001Z</time></trkpt><trkpt lat="45.2027170832706" lon="5.782173953446559"><ele>213.0</ele><time>2026-04-05T15:48:21.001Z</time></trkpt><trkpt lat="45.20249356863922" lon="5.782051995003924"><ele>213.0</ele><time>2026-04-05T15:48:22.001Z</time></trkpt><trkpt lat="45.202264942925154" lon="5.781919841766842"><ele>212.0</ele><time>2026-04-05T15:48:23.001Z</time></trkpt><trkpt lat="45.20203579805013" lon="5.781779337922075"><ele>211.0</ele><time>2026-04-05T15:48:24.001Z</time></trkpt><trkpt lat="45.20181224495613" lon="5.781646839287764"><ele>211.0</ele><time>2026-04-05T15:48:25.001Z</time></trkpt><trkpt lat="45.20158791385552" lon="5.781521981061472"><ele>211.0</ele><time>2026-04-05T15:48:26.001Z</time></trkpt><trkpt lat="45.20136603855679" lon="5.781397329239867"><ele>212.0</ele><time>2026-04-05T15:48:27.001Z</time></trkpt><trkpt lat="45.201149292325795" lon="5.78127263825847"><ele>213.0</ele><time>2026-04-05T15:48:28.001Z</time></trkpt><trkpt lat="45.20093771214566" lon="5.781152124044055"><ele>213.0</ele><time>2026-04-05T15:48:29.001Z</time></trkpt><trkpt lat="45.200724228139855" lon="5.781030293884302"><ele>213.0</ele><time>2026-04-05T15:48:30.001Z</time></trkpt><trkpt lat="45.200514038625705" lon="5.780907793013655"><ele>213.5</ele><time>2026-04-05T15:48:31.001Z</time></trkpt><trkpt lat="45.20030399054808" lon="5.7807911038428035"><ele>214.0</ele><time>2026-04-05T15:48:32.001Z</time></trkpt><trkpt lat="45.200087381539134" lon="5.78069959939607"><ele>214.0</ele><time>2026-04-05T15:48:33.001Z</time></trkpt><trkpt lat="45.199870291453365" lon="5.780619743882"><ele>214.0</ele><time>2026-04-05T15:48:34.001Z</time></trkpt><trkpt lat="45.19965467700141" lon="5.780564300533103"><ele>214.0</ele><time>2026-04-05T15:48:35.001Z</time></trkpt><trkpt lat="45.199444772190446" lon="5.780532448744462"><ele>213.66666666666666</ele><time>2026-04-05T15:48:36.001Z</time></trkpt><trkpt lat="45.19923505877361" lon="5.780517430303522"><ele>213.33333333333331</ele><time>2026-04-05T15:48:37.001Z</time></trkpt><trkpt lat="45.19902182975553" lon="5.780515278213332"><ele>213.0</ele><time>2026-04-05T15:48:38.001Z</time></trkpt><trkpt lat="45.19881431128676" lon="5.780532578785689"><ele>212.66666666666669</ele><time>2026-04-05T15:48:39.001Z</time></trkpt><trkpt lat="45.19859500096285" lon="5.78057086571192"><ele>212.33333333333334</ele><time>2026-04-05T15:48:40.001Z</time></trkpt><trkpt lat="45.19837065035209" lon="5.780596251349379"><ele>212.0</ele><time>2026-04-05T15:48:41.001Z</time></trkpt><trkpt lat="45.198148411697346" lon="5.78072099503658"><ele>212.0</ele><time>2026-04-05T15:48:42.001Z</time></trkpt><trkpt lat="45.19791004070804" lon="5.780833370841658"><ele>212.0</ele><time>2026-04-05T15:48:43.001Z</time></trkpt><trkpt lat="45.19767016794536" lon="5.780954011320368"><ele>212.0</ele><time>2026-04-05T15:48:44.001Z</time></trkpt><trkpt lat="45.197428510738284" lon="5.781064494222877"><ele>212.0</ele><time>2026-04-05T15:48:45.001Z</time></trkpt><trkpt lat="45.19718695768779" lon="5.781174737307182"><ele>213.0</ele><time>2026-04-05T15:48:46.001Z</time></trkpt><trkpt lat="45.196946500345085" lon="5.78128295646427"><ele>214.0</ele><time>2026-04-05T15:48:47.001Z</time></trkpt><trkpt lat="45.19670825581992" lon="5.781387039337917"><ele>213.5</ele><time>2026-04-05T15:48:48.001Z</time></trkpt><trkpt lat="45.196457209439025" lon="5.781491667178775"><ele>213.0</ele><time>2026-04-05T15:48:49.001Z</time></trkpt><trkpt lat="45.19620705919231" lon="5.78159085747909"><ele>213.0</ele><time>2026-04-05T15:48:50.001Z</time></trkpt><trkpt lat="45.195955114012335" lon="5.781679420757854"><ele>213.0</ele><time>2026-04-05T15:48:51.001Z</time></trkpt><trkpt lat="45.19570025843254" lon="5.7817673660905715"><ele>213.5</ele><time>2026-04-05T15:48:52.002Z</time></trkpt><trkpt lat="45.19544377548489" lon="5.781849212492619"><ele>214.0</ele><time>2026-04-05T15:48:53.002Z</time></trkpt><trkpt lat="45.19518682728024" lon="5.78190736662709"><ele>214.0</ele><time>2026-04-05T15:48:54.002Z</time></trkpt><trkpt lat="45.194918117896655" lon="5.7819569293194295"><ele>214.0</ele><time>2026-04-05T15:48:55.002Z</time></trkpt><trkpt lat="45.1946476850878" lon="5.78199840762972"><ele>213.5</ele><time>2026-04-05T15:48:56.002Z</time></trkpt><trkpt lat="45.19437396187503" lon="5.78202502113795"><ele>213.0</ele><time>2026-04-05T15:48:57.002Z</time></trkpt><trkpt lat="45.19409703114216" lon="5.7820445574551975"><ele>214.0</ele><time>2026-04-05T15:48:58.002Z</time></trkpt><trkpt lat="45.193822185752936" lon="5.782058368448677"><ele>215.0</ele><time>2026-04-05T15:48:59.002Z</time></trkpt><trkpt lat="45.19355048894168" lon="5.78206594813124"><ele>215.0</ele><time>2026-04-05T15:49:00.002Z</time></trkpt><trkpt lat="45.193285658630934" lon="5.782063776258853"><ele>215.0</ele><time>2026-04-05T15:49:01.002Z</time></trkpt><trkpt lat="45.19301898835334" lon="5.782055779444678"><ele>214.5</ele><time>2026-04-05T15:49:02.002Z</time></trkpt><trkpt lat="45.19274814212713" lon="5.782049325267277"><ele>214.0</ele><time>2026-04-05T15:49:03.002Z</time></trkpt><trkpt lat="45.192475339548054" lon="5.782043410847103"><ele>213.5</ele><time>2026-04-05T15:49:04.002Z</time></trkpt><trkpt lat="45.19219967456481" lon="5.782027050790199"><ele>213.0</ele><time>2026-04-05T15:49:05.002Z</time></trkpt><trkpt lat="45.19192772161889" lon="5.782012835634928"><ele>213.0</ele><time>2026-04-05T15:49:06.002Z</time></trkpt><trkpt lat="45.191658197157004" lon="5.7820007200688"><ele>213.0</ele><time>2026-04-05T15:49:07.002Z</time></trkpt><trkpt lat="45.19139226227581" lon="5.781994862478322"><ele>215.5</ele><time>2026-04-05T15:49:08.002Z</time></trkpt><trkpt lat="45.191128516132714" lon="5.781988937569395"><ele>218.0</ele><time>2026-04-05T15:49:09.002Z</time></trkpt><trkpt lat="45.19086830686685" lon="5.781980045135176"><ele>217.5</ele><time>2026-04-05T15:49:10.002Z</time></trkpt><trkpt lat="45.19060558984086" lon="5.781971503562787"><ele>217.0</ele><time>2026-04-05T15:49:11.002Z</time></trkpt><trkpt lat="45.190344690395705" lon="5.781960614337196"><ele>217.0</ele><time>2026-04-05T15:49:12.002Z</time></trkpt><trkpt lat="45.19008902864095" lon="5.781946112471628"><ele>217.0</ele><time>2026-04-05T15:49:13.002Z</time></trkpt><trkpt lat="45.189831870067614" lon="5.781938026839276"><ele>217.0</ele><time>2026-04-05T15:49:14.002Z</time></trkpt><trkpt lat="45.189574054391095" lon="5.781926179941403"><ele>217.0</ele><time>2026-04-05T15:49:15.002Z</time></trkpt><trkpt lat="45.1893121138428" lon="5.781910553019943"><ele>217.0</ele><time>2026-04-05T15:49:16.002Z</time></trkpt><trkpt lat="45.189050131603636" lon="5.781887798722009"><ele>217.0</ele><time>2026-04-05T15:49:17.002Z</time></trkpt><trkpt lat="45.18878445646846" lon="5.78186358429429"><ele>217.0</ele><time>2026-04-05T15:49:18.002Z</time></trkpt><trkpt lat="45.18852006353268" lon="5.781825656664287"><ele>217.0</ele><time>2026-04-05T15:49:19.002Z</time></trkpt><trkpt lat="45.18825796974539" lon="5.781786443982396"><ele>216.5</ele><time>2026-04-05T15:49:20.002Z</time></trkpt><trkpt lat="45.18799960353099" lon="5.78175130888339"><ele>216.0</ele><time>2026-04-05T15:49:21.002Z</time></trkpt><trkpt lat="45.187743115121464" lon="5.781714679434135"><ele>216.0</ele><time>2026-04-05T15:49:22.002Z</time></trkpt><trkpt lat="45.187490207012495" lon="5.781664480591707"><ele>216.0</ele><time>2026-04-05T15:49:23.002Z</time></trkpt><trkpt lat="45.187237576350604" lon="5.781610391045515"><ele>217.5</ele><time>2026-04-05T15:49:24.002Z</time></trkpt><trkpt lat="45.18698731795757" lon="5.781543795151149"><ele>219.0</ele><time>2026-04-05T15:49:25.002Z</time></trkpt><trkpt lat="45.18673760552633" lon="5.781472471794405"><ele>218.0</ele><time>2026-04-05T15:49:26.002Z</time></trkpt><trkpt lat="45.18648717841605" lon="5.781403854406773"><ele>217.0</ele><time>2026-04-05T15:49:27.002Z</time></trkpt><trkpt lat="45.18624400274718" lon="5.781318143423528"><ele>217.0</ele><time>2026-04-05T15:49:28.002Z</time></trkpt><trkpt lat="45.18599959827879" lon="5.781228215209769"><ele>217.0</ele><time>2026-04-05T15:49:29.002Z</time></trkpt><trkpt lat="45.185759071877236" lon="5.781135223608254"><ele>216.5</ele><time>2026-04-05T15:49:30.002Z</time></trkpt><trkpt lat="45.18551625770351" lon="5.781032424841595"><ele>216.0</ele><time>2026-04-05T15:49:31.002Z</time></trkpt><trkpt lat="45.185273883576315" lon="5.780925785258979"><ele>215.5</ele><time>2026-04-05T15:49:32.002Z</time></trkpt><trkpt lat="45.18503357815554" lon="5.780837702589916"><ele>215.0</ele><time>2026-04-05T15:49:33.002Z</time></trkpt><trkpt lat="45.1847996355204" lon="5.780711323802678"><ele>216.0</ele><time>2026-04-05T15:49:34.002Z</time></trkpt><trkpt lat="45.184571702677026" lon="5.780588486784125"><ele>217.0</ele><time>2026-04-05T15:49:35.002Z</time></trkpt><trkpt lat="45.18434591902123" lon="5.78045992895644"><ele>217.0</ele><time>2026-04-05T15:49:36.001Z</time></trkpt><trkpt lat="45.184122605515036" lon="5.780324766005147"><ele>217.0</ele><time>2026-04-05T15:49:37.001Z</time></trkpt><trkpt lat="45.18390101929854" lon="5.780178384288237"><ele>218.0</ele><time>2026-04-05T15:49:38.001Z</time></trkpt><trkpt lat="45.18368228726262" lon="5.780035466582269"><ele>219.0</ele><time>2026-04-05T15:49:39.001Z</time></trkpt><trkpt lat="45.18346228456737" lon="5.779881597659117"><ele>219.0</ele><time>2026-04-05T15:49:40.001Z</time></trkpt><trkpt lat="45.183242504872815" lon="5.779727750709546"><ele>219.0</ele><time>2026-04-05T15:49:41.001Z</time></trkpt><trkpt lat="45.1830295793862" lon="5.779562073552249"><ele>219.5</ele><time>2026-04-05T15:49:42.001Z</time></trkpt><trkpt lat="45.182816782895515" lon="5.779393424223562"><ele>220.0</ele><time>2026-04-05T15:49:43.001Z</time></trkpt><trkpt lat="45.18260843653948" lon="5.779212642034576"><ele>220.0</ele><time>2026-04-05T15:49:44.001Z</time></trkpt><trkpt lat="45.18239852878553" lon="5.779025061673924"><ele>220.0</ele><time>2026-04-05T15:49:45.001Z</time></trkpt><trkpt lat="45.18219266351361" lon="5.778832776468151"><ele>220.5</ele><time>2026-04-05T15:49:46.001Z</time></trkpt><trkpt lat="45.181989310312986" lon="5.77863884809345"><ele>221.0</ele><time>2026-04-05T15:49:47.001Z</time></trkpt><trkpt lat="45.181789876625785" lon="5.778448967173547"><ele>221.5</ele><time>2026-04-05T15:49:48Z</time></trkpt><trkpt lat="45.181594021796336" lon="5.7782507269273164"><ele>222.0</ele><time>2026-04-05T15:49:49Z</time></trkpt><trkpt lat="45.181397459666115" lon="5.778048754071814"><ele>221.5</ele><time>2026-04-05T15:49:50Z</time></trkpt><trkpt lat="45.181201280813845" lon="5.777835712110015"><ele>221.0</ele><time>2026-04-05T15:49:51Z</time></trkpt><trkpt lat="45.181004319603296" lon="5.777623466593025"><ele>221.0</ele><time>2026-04-05T15:49:52Z</time></trkpt><trkpt lat="45.18080971507725" lon="5.777392297804873"><ele>221.0</ele><time>2026-04-05T15:49:53Z</time></trkpt><trkpt lat="45.18061702530663" lon="5.777153883552972"><ele>219.0</ele><time>2026-04-05T15:49:54.001Z</time></trkpt><trkpt lat="45.18042646202161" lon="5.776909348814512"><ele>217.0</ele><time>2026-04-05T15:49:55.001Z</time></trkpt><trkpt lat="45.18024702035824" lon="5.776655423712836"><ele>217.0</ele><time>2026-04-05T15:49:56.001Z</time></trkpt><trkpt lat="45.18006389770093" lon="5.776405085455365"><ele>217.0</ele><time>2026-04-05T15:49:57.001Z</time></trkpt><trkpt lat="45.179887492111256" lon="5.776150147922832"><ele>217.0</ele><time>2026-04-05T15:49:58.001Z</time></trkpt><trkpt lat="45.17971117420847" lon="5.775886290970748"><ele>217.0</ele><time>2026-04-05T15:49:59.001Z</time></trkpt><trkpt lat="45.17954090293733" lon="5.775619002355583"><ele>217.0</ele><time>2026-04-05T15:50:00.001Z</time></trkpt><trkpt lat="45.17937587540728" lon="5.77534011503281"><ele>217.0</ele><time>2026-04-05T15:50:01.001Z</time></trkpt><trkpt lat="45.179213947016855" lon="5.775066315191066"><ele>216.5</ele><time>2026-04-05T15:50:02.001Z</time></trkpt><trkpt lat="45.179056737816" lon="5.774791386552475"><ele>216.0</ele><time>2026-04-05T15:50:03.001Z</time></trkpt><trkpt lat="45.178907116838516" lon="5.774519034149754"><ele>215.5</ele><time>2026-04-05T15:50:04.001Z</time></trkpt><trkpt lat="45.178758573598806" lon="5.774240449357836"><ele>215.0</ele><time>2026-04-05T15:50:05.001Z</time></trkpt><trkpt lat="45.178609659352475" lon="5.773954319622757"><ele>215.0</ele><time>2026-04-05T15:50:06.001Z</time></trkpt><trkpt lat="45.17845195274079" lon="5.7736343913975405"><ele>215.0</ele><time>2026-04-05T15:50:07.001Z</time></trkpt><trkpt lat="45.1783180940019" lon="5.77337616646673"><ele>216.0</ele><time>2026-04-05T15:50:08.001Z</time></trkpt><trkpt lat="45.178174230733134" lon="5.773098947467369"><ele>217.0</ele><time>2026-04-05T15:50:09.001Z</time></trkpt><trkpt lat="45.17803223824736" lon="5.772815691526957"><ele>216.0</ele><time>2026-04-05T15:50:10.001Z</time></trkpt><trkpt lat="45.177891938491896" lon="5.772534666275872"><ele>215.0</ele><time>2026-04-05T15:50:11.001Z</time></trkpt><trkpt lat="45.17775448988679" lon="5.772247815533976"><ele>215.0</ele><time>2026-04-05T15:50:12.001Z</time></trkpt><trkpt lat="45.17761706781497" lon="5.771959741398149"><ele>215.0</ele><time>2026-04-05T15:50:13.001Z</time></trkpt><trkpt lat="45.17747652646923" lon="5.771676553460813"><ele>215.0</ele><time>2026-04-05T15:50:14.001Z</time></trkpt><trkpt lat="45.17733538003628" lon="5.771401743938954"><ele>215.0</ele><time>2026-04-05T15:50:15.001Z</time></trkpt><trkpt lat="45.17719778024488" lon="5.771122429008327"><ele>215.0</ele><time>2026-04-05T15:50:16.001Z</time></trkpt><trkpt lat="45.17706084404446" lon="5.770833358805917"><ele>215.0</ele><time>2026-04-05T15:50:17.001Z</time></trkpt><trkpt lat="45.17691666108434" lon="5.770546699817649"><ele>215.0</ele><time>2026-04-05T15:50:18.001Z</time></trkpt><trkpt lat="45.17677243144154" lon="5.770266084234468"><ele>215.0</ele><time>2026-04-05T15:50:19.001Z</time></trkpt><trkpt lat="45.17662721369475" lon="5.769981734172521"><ele>214.5</ele><time>2026-04-05T15:50:20.001Z</time></trkpt><trkpt lat="45.1764767132917" lon="5.769701548644834"><ele>214.0</ele><time>2026-04-05T15:50:21.001Z</time></trkpt><trkpt lat="45.17632590870918" lon="5.769416889207414"><ele>215.5</ele><time>2026-04-05T15:50:22.001Z</time></trkpt><trkpt lat="45.17617413785233" lon="5.769130943941368"><ele>217.0</ele><time>2026-04-05T15:50:23.001Z</time></trkpt><trkpt lat="45.176018634407384" lon="5.768847630361943"><ele>217.0</ele><time>2026-04-05T15:50:24.001Z</time></trkpt><trkpt lat="45.17585930219138" lon="5.768567582070075"><ele>217.0</ele><time>2026-04-05T15:50:25.001Z</time></trkpt><trkpt lat="45.17570599339222" lon="5.768288957271454"><ele>217.0</ele><time>2026-04-05T15:50:26.001Z</time></trkpt><trkpt lat="45.17555211215242" lon="5.76801574865076"><ele>217.0</ele><time>2026-04-05T15:50:27.001Z</time></trkpt><trkpt lat="45.1753901353948" lon="5.767752661861863"><ele>216.5</ele><time>2026-04-05T15:50:28.001Z</time></trkpt><trkpt lat="45.175236210133555" lon="5.767496282752835"><ele>216.0</ele><time>2026-04-05T15:50:29.001Z</time></trkpt><trkpt lat="45.17507553057067" lon="5.767241352115936"><ele>216.0</ele><time>2026-04-05T15:50:30.001Z</time></trkpt><trkpt lat="45.174914615857624" lon="5.7669861999386915"><ele>216.0</ele><time>2026-04-05T15:50:31.001Z</time></trkpt><trkpt lat="45.174751750417855" lon="5.766738894924788"><ele>216.5</ele><time>2026-04-05T15:50:32.001Z</time></trkpt><trkpt lat="45.17458860868557" lon="5.766493784364133"><ele>217.0</ele><time>2026-04-05T15:50:33.001Z</time></trkpt><trkpt lat="45.17442129403564" lon="5.766244483067422"><ele>216.0</ele><time>2026-04-05T15:50:34.001Z</time></trkpt><trkpt lat="45.17425028931988" lon="5.765993828584931"><ele>215.0</ele><time>2026-04-05T15:50:35.001Z</time></trkpt><trkpt lat="45.17407686712896" lon="5.765742232501046"><ele>215.5</ele><time>2026-04-05T15:50:36.001Z</time></trkpt><trkpt lat="45.17389978853092" lon="5.765489906128727"><ele>216.0</ele><time>2026-04-05T15:50:37.001Z</time></trkpt><trkpt lat="45.17371938409014" lon="5.7652379887375735"><ele>215.5</ele><time>2026-04-05T15:50:38.001Z</time></trkpt><trkpt lat="45.17353615245618" lon="5.764989597932719"><ele>215.0</ele><time>2026-04-05T15:50:39.001Z</time></trkpt><trkpt lat="45.17334858175361" lon="5.764743573874919"><ele>215.5</ele><time>2026-04-05T15:50:40.001Z</time></trkpt><trkpt lat="45.17315973387155" lon="5.7644995835286466"><ele>216.0</ele><time>2026-04-05T15:50:41.001Z</time></trkpt><trkpt lat="45.17296451579576" lon="5.764269072392533"><ele>216.0</ele><time>2026-04-05T15:50:42.001Z</time></trkpt><trkpt lat="45.17276975710776" lon="5.7640382473248355"><ele>216.0</ele><time>2026-04-05T15:50:43.001Z</time></trkpt><trkpt lat="45.17257559927326" lon="5.763804296870715"><ele>216.0</ele><time>2026-04-05T15:50:44.001Z</time></trkpt><trkpt lat="45.17237803437817" lon="5.7635838596300975"><ele>216.0</ele><time>2026-04-05T15:50:45.001Z</time></trkpt><trkpt lat="45.17218427434269" lon="5.763358608714287"><ele>216.0</ele><time>2026-04-05T15:50:46.001Z</time></trkpt><trkpt lat="45.1719873918482" lon="5.763133535303905"><ele>216.0</ele><time>2026-04-05T15:50:47.001Z</time></trkpt><trkpt lat="45.17179018961415" lon="5.762910674517681"><ele>215.5</ele><time>2026-04-05T15:50:48.001Z</time></trkpt><trkpt lat="45.17159471873344" lon="5.762691171283238"><ele>215.0</ele><time>2026-04-05T15:50:49.001Z</time></trkpt><trkpt lat="45.171397127327" lon="5.7624820861591015"><ele>215.0</ele><time>2026-04-05T15:50:50.001Z</time></trkpt><trkpt lat="45.17119607438561" lon="5.762279323322509"><ele>215.0</ele><time>2026-04-05T15:50:51.001Z</time></trkpt><trkpt lat="45.17099708059541" lon="5.76207910702149"><ele>215.0</ele><time>2026-04-05T15:50:52.001Z</time></trkpt><trkpt lat="45.17079953959679" lon="5.761875569715792"><ele>215.0</ele><time>2026-04-05T15:50:53.001Z</time></trkpt><trkpt lat="45.170596428765634" lon="5.761675298398126"><ele>214.5</ele><time>2026-04-05T15:50:54.001Z</time></trkpt><trkpt lat="45.170389755375695" lon="5.76149024298724"><ele>214.0</ele><time>2026-04-05T15:50:55.001Z</time></trkpt><trkpt lat="45.170185028330685" lon="5.761303825442101"><ele>214.0</ele><time>2026-04-05T15:50:56.001Z</time></trkpt><trkpt lat="45.16997913658249" lon="5.761114529052855"><ele>214.0</ele><time>2026-04-05T15:50:57.001Z</time></trkpt><trkpt lat="45.169775394765274" lon="5.760918118023288"><ele>215.5</ele><time>2026-04-05T15:50:58.001Z</time></trkpt><trkpt lat="45.16957063063306" lon="5.76072006271983"><ele>217.0</ele><time>2026-04-05T15:50:59.001Z</time></trkpt><trkpt lat="45.169363540682546" lon="5.760520138265917"><ele>217.0</ele><time>2026-04-05T15:51:00.002Z</time></trkpt><trkpt lat="45.16915118577536" lon="5.760332346495719"><ele>217.0</ele><time>2026-04-05T15:51:01.002Z</time></trkpt><trkpt lat="45.168946505128815" lon="5.760139427452122"><ele>218.0</ele><time>2026-04-05T15:51:02.002Z</time></trkpt><trkpt lat="45.16873335686504" lon="5.759967554234703"><ele>219.0</ele><time>2026-04-05T15:51:03.002Z</time></trkpt><trkpt lat="45.16852029816597" lon="5.759791617642553"><ele>219.0</ele><time>2026-04-05T15:51:04.002Z</time></trkpt><trkpt lat="45.16831067712517" lon="5.759606253790421"><ele>219.0</ele><time>2026-04-05T15:51:05.002Z</time></trkpt><trkpt lat="45.16810488731724" lon="5.759417171884515"><ele>217.5</ele><time>2026-04-05T15:51:06.002Z</time></trkpt><trkpt lat="45.16789694112043" lon="5.759240266217552"><ele>216.0</ele><time>2026-04-05T15:51:07.002Z</time></trkpt><trkpt lat="45.16768662186684" lon="5.759072923319582"><ele>216.0</ele><time>2026-04-05T15:51:08.002Z</time></trkpt><trkpt lat="45.167479560070504" lon="5.758909966323045"><ele>216.0</ele><time>2026-04-05T15:51:09.002Z</time></trkpt><trkpt lat="45.16727997105506" lon="5.758738450962047"><ele>217.0</ele><time>2026-04-05T15:51:10.002Z</time></trkpt><trkpt lat="45.167089131269805" lon="5.758521508067851"><ele>218.0</ele><time>2026-04-05T15:51:11.002Z</time></trkpt><trkpt lat="45.16691161544961" lon="5.758218534611287"><ele>218.0</ele><time>2026-04-05T15:51:12.002Z</time></trkpt><trkpt lat="45.166708532224895" lon="5.757834881133465"><ele>218.0</ele><time>2026-04-05T15:51:13.002Z</time></trkpt><trkpt lat="45.16647925986256" lon="5.758038403891834"><ele>217.0</ele><time>2026-04-05T15:51:14.002Z</time></trkpt><trkpt lat="45.16628167611677" lon="5.75785461398111"><ele>216.0</ele><time>2026-04-05T15:51:15.002Z</time></trkpt><trkpt lat="45.16609444624755" lon="5.757672879496058"><ele>214.0</ele><time>2026-04-05T15:51:16.002Z</time></trkpt><trkpt lat="45.16589526239988" lon="5.757492138248006"><ele>212.0</ele><time>2026-04-05T15:51:17.002Z</time></trkpt><trkpt lat="45.16569911076959" lon="5.757303345818624"><ele>215.0</ele><time>2026-04-05T15:51:18.002Z</time></trkpt><trkpt lat="45.16550358207113" lon="5.757120524228974"><ele>218.0</ele><time>2026-04-05T15:51:19.002Z</time></trkpt><trkpt lat="45.165313745430694" lon="5.756922573226012"><ele>218.0</ele><time>2026-04-05T15:51:20.002Z</time></trkpt><trkpt lat="45.16511935590322" lon="5.7567292952822795"><ele>218.0</ele><time>2026-04-05T15:51:21.002Z</time></trkpt><trkpt lat="45.16493048952895" lon="5.756519668541439"><ele>217.0</ele><time>2026-04-05T15:51:22.002Z</time></trkpt><trkpt lat="45.164733157726836" lon="5.756321068220277"><ele>216.0</ele><time>2026-04-05T15:51:23.002Z</time></trkpt><trkpt lat="45.16453784428136" lon="5.756115113999566"><ele>216.5</ele><time>2026-04-05T15:51:24.002Z</time></trkpt><trkpt lat="45.164345936787356" lon="5.75590651319739"><ele>217.0</ele><time>2026-04-05T15:51:25.002Z</time></trkpt><trkpt lat="45.16415576065221" lon="5.7557048518521725"><ele>217.0</ele><time>2026-04-05T15:51:26.002Z</time></trkpt><trkpt lat="45.16396528409425" lon="5.7554992188342755"><ele>217.0</ele><time>2026-04-05T15:51:27.002Z</time></trkpt><trkpt lat="45.16377305337194" lon="5.755294442876583"><ele>217.0</ele><time>2026-04-05T15:51:28.002Z</time></trkpt><trkpt lat="45.16358246586637" lon="5.7550850895645524"><ele>217.0</ele><time>2026-04-05T15:51:29.002Z</time></trkpt><trkpt lat="45.16339309808071" lon="5.754880908333757"><ele>217.0</ele><time>2026-04-05T15:51:30.002Z</time></trkpt><trkpt lat="45.16320038848917" lon="5.754670841393868"><ele>217.0</ele><time>2026-04-05T15:51:31.002Z</time></trkpt><trkpt lat="45.16299636247323" lon="5.7544603513421375"><ele>216.5</ele><time>2026-04-05T15:51:32.002Z</time></trkpt><trkpt lat="45.16280369449988" lon="5.754250046554157"><ele>216.0</ele><time>2026-04-05T15:51:33.002Z</time></trkpt><trkpt lat="45.16262012019947" lon="5.754044885495404"><ele>216.0</ele><time>2026-04-05T15:51:34.002Z</time></trkpt><trkpt lat="45.162429865638245" lon="5.753840437248617"><ele>216.0</ele><time>2026-04-05T15:51:35.002Z</time></trkpt><trkpt lat="45.16223967071866" lon="5.753638103172966"><ele>216.5</ele><time>2026-04-05T15:51:36.002Z</time></trkpt><trkpt lat="45.16205546100695" lon="5.753428330712535"><ele>217.0</ele><time>2026-04-05T15:51:37.002Z</time></trkpt><trkpt lat="45.161846885138516" lon="5.753232089497288"><ele>217.0</ele><time>2026-04-05T15:51:38.002Z</time></trkpt><trkpt lat="45.161673965777595" lon="5.753016155913575"><ele>217.0</ele><time>2026-04-05T15:51:39.002Z</time></trkpt><trkpt lat="45.16148944231884" lon="5.752787776267883"><ele>218.0</ele><time>2026-04-05T15:51:40.002Z</time></trkpt><trkpt lat="45.16130803174209" lon="5.752597992382133"><ele>219.0</ele><time>2026-04-05T15:51:41.002Z</time></trkpt><trkpt lat="45.160941469945364" lon="5.7522322265231765"><ele>219.0</ele><time>2026-04-05T15:51:43.001Z</time></trkpt><trkpt lat="45.160758391676325" lon="5.7520431581840405"><ele>219.0</ele><time>2026-04-05T15:51:44.001Z</time></trkpt><trkpt lat="45.1605779288594" lon="5.75183654751732"><ele>219.0</ele><time>2026-04-05T15:51:45.001Z</time></trkpt><trkpt lat="45.160393877385225" lon="5.751628610325425"><ele>219.0</ele><time>2026-04-05T15:51:46.001Z</time></trkpt><trkpt lat="45.1602061585155" lon="5.75144165772737"><ele>219.0</ele><time>2026-04-05T15:51:47.001Z</time></trkpt><trkpt lat="45.16004679184592" lon="5.751257294426918"><ele>219.0</ele><time>2026-04-05T15:51:48.001Z</time></trkpt><trkpt lat="45.15985894256478" lon="5.751084325512012"><ele>219.0</ele><time>2026-04-05T15:51:49.001Z</time></trkpt><trkpt lat="45.159643451379274" lon="5.750839831530729"><ele>218.0</ele><time>2026-04-05T15:51:50.001Z</time></trkpt><trkpt lat="45.15945664119193" lon="5.750623302335578"><ele>217.0</ele><time>2026-04-05T15:51:51.001Z</time></trkpt><trkpt lat="45.159238446949516" lon="5.750390646788903"><ele>217.5</ele><time>2026-04-05T15:51:52.001Z</time></trkpt><trkpt lat="45.159053365652134" lon="5.750104744163552"><ele>218.0</ele><time>2026-04-05T15:51:53.001Z</time></trkpt><trkpt lat="45.15885036356898" lon="5.749809874059789"><ele>218.33333333333334</ele><time>2026-04-05T15:51:54.001Z</time></trkpt><trkpt lat="45.15874866155008" lon="5.749824522962694"><ele>218.66666666666669</ele><time>2026-04-05T15:51:55Z</time></trkpt><trkpt lat="45.15855987139725" lon="5.749624809339649"><ele>219.0</ele><time>2026-04-05T15:51:56Z</time></trkpt><trkpt lat="45.15837542939668" lon="5.749426962662405"><ele>219.0</ele><time>2026-04-05T15:51:57Z</time></trkpt><trkpt lat="45.158204184396055" lon="5.749228927675081"><ele>219.0</ele><time>2026-04-05T15:51:58Z</time></trkpt><trkpt lat="45.158018385155" lon="5.749026126100126"><ele>218.0</ele><time>2026-04-05T15:51:59Z</time></trkpt><trkpt lat="45.15783554825952" lon="5.748830705751319"><ele>217.0</ele><time>2026-04-05T15:52:00Z</time></trkpt><trkpt lat="45.15765588301472" lon="5.74862731531813"><ele>217.5</ele><time>2026-04-05T15:52:01Z</time></trkpt><trkpt lat="45.157471637387395" lon="5.7484398715803895"><ele>218.0</ele><time>2026-04-05T15:52:02.001Z</time></trkpt><trkpt lat="45.15729158858917" lon="5.748241212059079"><ele>219.0</ele><time>2026-04-05T15:52:03.001Z</time></trkpt><trkpt lat="45.157110411815125" lon="5.7480371712129354"><ele>220.0</ele><time>2026-04-05T15:52:04.001Z</time></trkpt><trkpt lat="45.15692865782609" lon="5.7478315064779615"><ele>221.0</ele><time>2026-04-05T15:52:05.001Z</time></trkpt><trkpt lat="45.15675337770973" lon="5.747627412373703"><ele>222.0</ele><time>2026-04-05T15:52:06.001Z</time></trkpt><trkpt lat="45.156582343317346" lon="5.747416957324437"><ele>223.0</ele><time>2026-04-05T15:52:07.001Z</time></trkpt><trkpt lat="45.15641088170045" lon="5.74720742003492"><ele>224.0</ele><time>2026-04-05T15:52:08.001Z</time></trkpt><trkpt lat="45.156083496218606" lon="5.746805904531476"><ele>225.0</ele><time>2026-04-05T15:52:10.001Z</time></trkpt><trkpt lat="45.155901103167224" lon="5.746513839810377"><ele>226.0</ele><time>2026-04-05T15:52:11.001Z</time></trkpt><trkpt lat="45.15572688069681" lon="5.746311278759736"><ele>224.5</ele><time>2026-04-05T15:52:12.001Z</time></trkpt><trkpt lat="45.15556244653426" lon="5.746075308365015"><ele>223.0</ele><time>2026-04-05T15:52:13.001Z</time></trkpt><trkpt lat="45.155400007166335" lon="5.745849198541322"><ele>222.33333333333331</ele><time>2026-04-05T15:52:14.001Z</time></trkpt><trkpt lat="45.155237962684495" lon="5.745618055814825"><ele>221.66666666666669</ele><time>2026-04-05T15:52:15.001Z</time></trkpt><trkpt lat="45.15510600541004" lon="5.745407628977934"><ele>221.0</ele><time>2026-04-05T15:52:16.001Z</time></trkpt><trkpt lat="45.15492662132158" lon="5.74513565476843"><ele>222.0</ele><time>2026-04-05T15:52:17.001Z</time></trkpt><trkpt lat="45.154775013580576" lon="5.744884526051219"><ele>223.0</ele><time>2026-04-05T15:52:18.001Z</time></trkpt><trkpt lat="45.154632006145526" lon="5.744624105595803"><ele>223.0</ele><time>2026-04-05T15:52:19.001Z</time></trkpt><trkpt lat="45.15448325812309" lon="5.744389768490989"><ele>223.0</ele><time>2026-04-05T15:52:20.001Z</time></trkpt><trkpt lat="45.15433996497196" lon="5.744143291169268"><ele>223.0</ele><time>2026-04-05T15:52:21.001Z</time></trkpt><trkpt lat="45.15419883709052" lon="5.7438967456580015"><ele>224.0</ele><time>2026-04-05T15:52:22.001Z</time></trkpt><trkpt lat="45.15405988890387" lon="5.743639983381518"><ele>225.0</ele><time>2026-04-05T15:52:23.001Z</time></trkpt><trkpt lat="45.153916371429936" lon="5.743369322143887"><ele>223.0</ele><time>2026-04-05T15:52:24.001Z</time></trkpt><trkpt lat="45.15377169151807" lon="5.743082914436832"><ele>221.0</ele><time>2026-04-05T15:52:25.001Z</time></trkpt><trkpt lat="45.153625086318726" lon="5.742795573126484"><ele>221.0</ele><time>2026-04-05T15:52:26.001Z</time></trkpt><trkpt lat="45.15348599814054" lon="5.742503928303842"><ele>221.0</ele><time>2026-04-05T15:52:27.001Z</time></trkpt><trkpt lat="45.153345449016214" lon="5.742209172404814"><ele>221.0</ele><time>2026-04-05T15:52:28.001Z</time></trkpt><trkpt lat="45.153210043949976" lon="5.7419103591498315"><ele>221.0</ele><time>2026-04-05T15:52:29.001Z</time></trkpt><trkpt lat="45.15308341720873" lon="5.741606978932739"><ele>221.0</ele><time>2026-04-05T15:52:30.001Z</time></trkpt><trkpt lat="45.15296314220112" lon="5.741294830211787"><ele>221.0</ele><time>2026-04-05T15:52:31.001Z</time></trkpt><trkpt lat="45.15281504170072" lon="5.740972682559943"><ele>221.0</ele><time>2026-04-05T15:52:32.001Z</time></trkpt><trkpt lat="45.15269601553413" lon="5.740678318485761"><ele>221.0</ele><time>2026-04-05T15:52:33.001Z</time></trkpt><trkpt lat="45.152586098867154" lon="5.740361535032725"><ele>221.5</ele><time>2026-04-05T15:52:34.001Z</time></trkpt><trkpt lat="45.152472709429055" lon="5.740046070049382"><ele>222.0</ele><time>2026-04-05T15:52:35.001Z</time></trkpt><trkpt lat="45.15235905638995" lon="5.739726428499791"><ele>222.5</ele><time>2026-04-05T15:52:36.001Z</time></trkpt><trkpt lat="45.15224668329859" lon="5.739400523823691"><ele>223.0</ele><time>2026-04-05T15:52:37.001Z</time></trkpt><trkpt lat="45.152141639779565" lon="5.739077003933877"><ele>223.0</ele><time>2026-04-05T15:52:38.001Z</time></trkpt><trkpt lat="45.15203974338396" lon="5.738760412579879"><ele>223.0</ele><time>2026-04-05T15:52:39.001Z</time></trkpt><trkpt lat="45.15194625998697" lon="5.738453387644911"><ele>222.66666666666666</ele><time>2026-04-05T15:52:40.001Z</time></trkpt><trkpt lat="45.15185759601046" lon="5.738159959917414"><ele>222.33333333333331</ele><time>2026-04-05T15:52:41.001Z</time></trkpt><trkpt lat="45.151772590169905" lon="5.737871987899622"><ele>222.0</ele><time>2026-04-05T15:52:42.001Z</time></trkpt><trkpt lat="45.15169300890927" lon="5.73758373061098"><ele>222.0</ele><time>2026-04-05T15:52:43.001Z</time></trkpt><trkpt lat="45.15160930572545" lon="5.737285206669038"><ele>222.0</ele><time>2026-04-05T15:52:44.001Z</time></trkpt><trkpt lat="45.1515262131047" lon="5.736979045380203"><ele>222.5</ele><time>2026-04-05T15:52:45.001Z</time></trkpt><trkpt lat="45.1514491968087" lon="5.736673720014965"><ele>223.0</ele><time>2026-04-05T15:52:46.001Z</time></trkpt><trkpt lat="45.15137474869345" lon="5.736365436077313"><ele>222.0</ele><time>2026-04-05T15:52:47.001Z</time></trkpt><trkpt lat="45.15130197743986" lon="5.736047375657091"><ele>221.0</ele><time>2026-04-05T15:52:48.001Z</time></trkpt><trkpt lat="45.15123745193628" lon="5.735730390360047"><ele>221.0</ele><time>2026-04-05T15:52:49.001Z</time></trkpt><trkpt lat="45.15117925078081" lon="5.735412387963111"><ele>221.0</ele><time>2026-04-05T15:52:50.001Z</time></trkpt><trkpt lat="45.15115574269395" lon="5.735111591495451"><ele>221.0</ele><time>2026-04-05T15:52:51.001Z</time></trkpt><trkpt lat="45.151081562803874" lon="5.734806140151442"><ele>223.0</ele><time>2026-04-05T15:52:52.001Z</time></trkpt><trkpt lat="45.151037305855695" lon="5.7345025110067605"><ele>225.0</ele><time>2026-04-05T15:52:53.001Z</time></trkpt><trkpt lat="45.150994655118616" lon="5.734215317388389"><ele>227.0</ele><time>2026-04-05T15:52:54.001Z</time></trkpt><trkpt lat="45.15094890189168" lon="5.733908726563362"><ele>227.0</ele><time>2026-04-05T15:52:55.001Z</time></trkpt><trkpt lat="45.15090763905151" lon="5.733597270610422"><ele>227.0</ele><time>2026-04-05T15:52:56.001Z</time></trkpt><trkpt lat="45.15086929338266" lon="5.733280685413015"><ele>227.0</ele><time>2026-04-05T15:52:57.001Z</time></trkpt><trkpt lat="45.150824470767475" lon="5.732973382033673"><ele>227.0</ele><time>2026-04-05T15:52:58.001Z</time></trkpt><trkpt lat="45.1507979967942" lon="5.7326493964442085"><ele>225.0</ele><time>2026-04-05T15:52:59.001Z</time></trkpt><trkpt lat="45.150776010842975" lon="5.732326108074609"><ele>223.0</ele><time>2026-04-05T15:53:00.001Z</time></trkpt><trkpt lat="45.150731240587824" lon="5.731995187399455"><ele>222.5</ele><time>2026-04-05T15:53:01.001Z</time></trkpt><trkpt lat="45.15072727528157" lon="5.731673022848785"><ele>222.0</ele><time>2026-04-05T15:53:02.001Z</time></trkpt><trkpt lat="45.15071011397227" lon="5.731348098727568"><ele>225.0</ele><time>2026-04-05T15:53:03.001Z</time></trkpt><trkpt lat="45.150685284924904" lon="5.731010381770895"><ele>228.0</ele><time>2026-04-05T15:53:04.001Z</time></trkpt><trkpt lat="45.15067846909576" lon="5.730703882845725"><ele>228.0</ele><time>2026-04-05T15:53:05.001Z</time></trkpt><trkpt lat="45.150671448052066" lon="5.730384371921114"><ele>228.0</ele><time>2026-04-05T15:53:06.001Z</time></trkpt><trkpt lat="45.15066647638389" lon="5.730067102252452"><ele>228.0</ele><time>2026-04-05T15:53:07.001Z</time></trkpt><trkpt lat="45.15066719447146" lon="5.729747115220203"><ele>227.5</ele><time>2026-04-05T15:53:08.001Z</time></trkpt><trkpt lat="45.15066992038992" lon="5.7294120515599625"><ele>227.0</ele><time>2026-04-05T15:53:09.001Z</time></trkpt><trkpt lat="45.150675251278265" lon="5.729071694164332"><ele>227.0</ele><time>2026-04-05T15:53:10.001Z</time></trkpt><trkpt lat="45.15067767513011" lon="5.7287716478128115"><ele>227.0</ele><time>2026-04-05T15:53:11.001Z</time></trkpt><trkpt lat="45.15069750511671" lon="5.728378782593853"><ele>226.5</ele><time>2026-04-05T15:53:12.001Z</time></trkpt><trkpt lat="45.15071206066698" lon="5.728038546529123"><ele>226.0</ele><time>2026-04-05T15:53:13.002Z</time></trkpt><trkpt lat="45.15072862784182" lon="5.727702278872673"><ele>225.5</ele><time>2026-04-05T15:53:14.002Z</time></trkpt><trkpt lat="45.15076132510855" lon="5.72735116535209"><ele>225.0</ele><time>2026-04-05T15:53:15.002Z</time></trkpt><trkpt lat="45.15077804740109" lon="5.727002514240658"><ele>224.5</ele><time>2026-04-05T15:53:16.002Z</time></trkpt><trkpt lat="45.1508078726172" lon="5.726645002842383"><ele>224.0</ele><time>2026-04-05T15:53:17.002Z</time></trkpt><trkpt lat="45.15084788922749" lon="5.726279182297636"><ele>223.5</ele><time>2026-04-05T15:53:18.002Z</time></trkpt><trkpt lat="45.150888973351556" lon="5.725907576973616"><ele>223.0</ele><time>2026-04-05T15:53:19.002Z</time></trkpt><trkpt lat="45.15092837810711" lon="5.725550717637803"><ele>224.0</ele><time>2026-04-05T15:53:20.002Z</time></trkpt><trkpt lat="45.15096885947046" lon="5.725214785378884"><ele>225.0</ele><time>2026-04-05T15:53:21.002Z</time></trkpt><trkpt lat="45.15101834384032" lon="5.724891405935541"><ele>225.0</ele><time>2026-04-05T15:53:22.002Z</time></trkpt><trkpt lat="45.15106282916152" lon="5.72457982162959"><ele>225.0</ele><time>2026-04-05T15:53:23.002Z</time></trkpt><trkpt lat="45.151120029372706" lon="5.7242596162256705"><ele>226.0</ele><time>2026-04-05T15:53:24.002Z</time></trkpt><trkpt lat="45.15117564009301" lon="5.723950929574024"><ele>227.0</ele><time>2026-04-05T15:53:25.002Z</time></trkpt><trkpt lat="45.151229483326965" lon="5.723652147888839"><ele>228.0</ele><time>2026-04-05T15:53:26.002Z</time></trkpt><trkpt lat="45.151291324719544" lon="5.72335611013996"><ele>228.0</ele><time>2026-04-05T15:53:27.002Z</time></trkpt><trkpt lat="45.15135368167073" lon="5.72306262883194"><ele>228.0</ele><time>2026-04-05T15:53:28.002Z</time></trkpt><trkpt lat="45.151419674073324" lon="5.722760089082758"><ele>228.0</ele><time>2026-04-05T15:53:29.002Z</time></trkpt><trkpt lat="45.15149367741654" lon="5.722449449474739"><ele>227.66666666666669</ele><time>2026-04-05T15:53:30.002Z</time></trkpt><trkpt lat="45.151564572258934" lon="5.722144465503616"><ele>227.33333333333334</ele><time>2026-04-05T15:53:31.002Z</time></trkpt><trkpt lat="45.15163273214442" lon="5.721846175615779"><ele>227.0</ele><time>2026-04-05T15:53:32.002Z</time></trkpt><trkpt lat="45.151700699255066" lon="5.721543821052686"><ele>227.0</ele><time>2026-04-05T15:53:33.002Z</time></trkpt><trkpt lat="45.15176432619471" lon="5.721242570773779"><ele>227.0</ele><time>2026-04-05T15:53:34.002Z</time></trkpt><trkpt lat="45.15180995573798" lon="5.720963336884295"><ele>227.0</ele><time>2026-04-05T15:53:35.002Z</time></trkpt><trkpt lat="45.15186277892613" lon="5.720677635984852"><ele>227.0</ele><time>2026-04-05T15:53:36.002Z</time></trkpt><trkpt lat="45.15191096093974" lon="5.720390870582241"><ele>227.0</ele><time>2026-04-05T15:53:37.002Z</time></trkpt><trkpt lat="45.151959008266566" lon="5.720098896207523"><ele>227.0</ele><time>2026-04-05T15:53:38.002Z</time></trkpt><trkpt lat="45.15200759386073" lon="5.719792445666752"><ele>227.0</ele><time>2026-04-05T15:53:39.002Z</time></trkpt><trkpt lat="45.15204983585981" lon="5.719503607676465"><ele>227.0</ele><time>2026-04-05T15:53:40.002Z</time></trkpt><trkpt lat="45.15209701581813" lon="5.719216326088346"><ele>227.0</ele><time>2026-04-05T15:53:41.002Z</time></trkpt><trkpt lat="45.15214203840369" lon="5.718929291909021"><ele>226.66666666666669</ele><time>2026-04-05T15:53:42.002Z</time></trkpt><trkpt lat="45.15219170512792" lon="5.718657434470831"><ele>226.33333333333331</ele><time>2026-04-05T15:53:43.002Z</time></trkpt><trkpt lat="45.152255103689" lon="5.7183997315115755"><ele>226.0</ele><time>2026-04-05T15:53:44.002Z</time></trkpt><trkpt lat="45.15231940330412" lon="5.718182204165846"><ele>227.0</ele><time>2026-04-05T15:53:45.002Z</time></trkpt><trkpt lat="45.15241547094738" lon="5.717901420992889"><ele>228.0</ele><time>2026-04-05T15:53:46.002Z</time></trkpt><trkpt lat="45.15249575455586" lon="5.71766834288936"><ele>229.0</ele><time>2026-04-05T15:53:47.002Z</time></trkpt><trkpt lat="45.152607789583364" lon="5.717408581992323"><ele>229.0</ele><time>2026-04-05T15:53:48Z</time></trkpt><trkpt lat="45.15272023423922" lon="5.71719411760829"><ele>229.0</ele><time>2026-04-05T15:53:49Z</time></trkpt><trkpt lat="45.1528444621741" lon="5.716973912287478"><ele>229.0</ele><time>2026-04-05T15:53:50Z</time></trkpt><trkpt lat="45.15297676224554" lon="5.716759426083162"><ele>228.66666666666666</ele><time>2026-04-05T15:53:51Z</time></trkpt><trkpt lat="45.15311918649712" lon="5.716552204018278"><ele>228.33333333333331</ele><time>2026-04-05T15:53:52Z</time></trkpt><trkpt lat="45.1532737573963" lon="5.7163472918131175"><ele>228.0</ele><time>2026-04-05T15:53:53Z</time></trkpt><trkpt lat="45.15343265896753" lon="5.7161544517474985"><ele>228.33333333333331</ele><time>2026-04-05T15:53:54Z</time></trkpt><trkpt lat="45.153595026663666" lon="5.715974751399349"><ele>228.66666666666666</ele><time>2026-04-05T15:53:55Z</time></trkpt><trkpt lat="45.15375610475915" lon="5.715800092857412"><ele>229.0</ele><time>2026-04-05T15:53:56Z</time></trkpt><trkpt lat="45.15391844770115" lon="5.7156213752866085"><ele>228.66666666666666</ele><time>2026-04-05T15:53:57Z</time></trkpt><trkpt lat="45.15407686643122" lon="5.71544300175748"><ele>228.33333333333331</ele><time>2026-04-05T15:53:58Z</time></trkpt><trkpt lat="45.15423605163348" lon="5.715263784167118"><ele>228.0</ele><time>2026-04-05T15:53:59Z</time></trkpt><trkpt lat="45.154395817852524" lon="5.715090320907531"><ele>228.0</ele><time>2026-04-05T15:54:00Z</time></trkpt><trkpt lat="45.15455461758344" lon="5.714914677574531"><ele>228.0</ele><time>2026-04-05T15:54:01Z</time></trkpt><trkpt lat="45.15471527342015" lon="5.71473400522364"><ele>228.0</ele><time>2026-04-05T15:54:02Z</time></trkpt><trkpt lat="45.15488019416008" lon="5.7145393930421555"><ele>228.33333333333331</ele><time>2026-04-05T15:54:03Z</time></trkpt><trkpt lat="45.15504523078645" lon="5.714359723137689"><ele>228.66666666666666</ele><time>2026-04-05T15:54:04Z</time></trkpt><trkpt lat="45.15521969594049" lon="5.714187891753897"><ele>229.0</ele><time>2026-04-05T15:54:05Z</time></trkpt><trkpt lat="45.15539765618052" lon="5.71401323557555"><ele>229.0</ele><time>2026-04-05T15:54:06Z</time></trkpt><trkpt lat="45.15557403602656" lon="5.7138524513142634"><ele>229.0</ele><time>2026-04-05T15:54:07Z</time></trkpt><trkpt lat="45.15575121189886" lon="5.713693540406417"><ele>229.0</ele><time>2026-04-05T15:54:08Z</time></trkpt><trkpt lat="45.15595220273057" lon="5.713537912492117"><ele>227.0</ele><time>2026-04-05T15:54:09Z</time></trkpt><trkpt lat="45.156163885755674" lon="5.713378145144002"><ele>225.0</ele><time>2026-04-05T15:54:10Z</time></trkpt><trkpt lat="45.15637347334672" lon="5.713216744549895"><ele>225.0</ele><time>2026-04-05T15:54:11Z</time></trkpt><trkpt lat="45.15658184225661" lon="5.7130111574713185"><ele>225.0</ele><time>2026-04-05T15:54:12Z</time></trkpt><trkpt lat="45.156776177284115" lon="5.712805645949573"><ele>225.66666666666669</ele><time>2026-04-05T15:54:13Z</time></trkpt><trkpt lat="45.15697131546104" lon="5.712622006123769"><ele>226.33333333333334</ele><time>2026-04-05T15:54:14Z</time></trkpt><trkpt lat="45.15714970921409" lon="5.712454032236632"><ele>227.0</ele><time>2026-04-05T15:54:15Z</time></trkpt><trkpt lat="45.157316676872796" lon="5.712231963908605"><ele>226.33333333333334</ele><time>2026-04-05T15:54:16Z</time></trkpt><trkpt lat="45.15747143888212" lon="5.712019633017935"><ele>225.66666666666669</ele><time>2026-04-05T15:54:17Z</time></trkpt><trkpt lat="45.15761580535172" lon="5.711799870016573"><ele>225.0</ele><time>2026-04-05T15:54:18Z</time></trkpt><trkpt lat="45.15775054441332" lon="5.711568616668643"><ele>225.0</ele><time>2026-04-05T15:54:19Z</time></trkpt><trkpt lat="45.157876720647195" lon="5.711335535807638"><ele>225.0</ele><time>2026-04-05T15:54:20Z</time></trkpt><trkpt lat="45.15799420002136" lon="5.711093076284684"><ele>225.0</ele><time>2026-04-05T15:54:21Z</time></trkpt><trkpt lat="45.1580958778176" lon="5.71085905977114"><ele>224.66666666666669</ele><time>2026-04-05T15:54:22Z</time></trkpt><trkpt lat="45.158194136894686" lon="5.710613478431146"><ele>224.33333333333334</ele><time>2026-04-05T15:54:23.001Z</time></trkpt><trkpt lat="45.15828748981417" lon="5.71034081869941"><ele>224.0</ele><time>2026-04-05T15:54:24.001Z</time></trkpt><trkpt lat="45.158349475073756" lon="5.710044943779299"><ele>223.5</ele><time>2026-04-05T15:54:25.001Z</time></trkpt><trkpt lat="45.1584034606755" lon="5.709696004036265"><ele>223.0</ele><time>2026-04-05T15:54:26.001Z</time></trkpt><trkpt lat="45.15848267505829" lon="5.709400656402349"><ele>223.0</ele><time>2026-04-05T15:54:27.001Z</time></trkpt><trkpt lat="45.15853469749977" lon="5.709082535304994"><ele>223.0</ele><time>2026-04-05T15:54:28.001Z</time></trkpt><trkpt lat="45.15864299506169" lon="5.708825706921557"><ele>223.0</ele><time>2026-04-05T15:54:29.001Z</time></trkpt><trkpt lat="45.158694127719144" lon="5.708503519760898"><ele>225.0</ele><time>2026-04-05T15:54:30.001Z</time></trkpt><trkpt lat="45.15871905442975" lon="5.708170933489607"><ele>227.0</ele><time>2026-04-05T15:54:31.001Z</time></trkpt><trkpt lat="45.15873802434774" lon="5.707853589706378"><ele>227.33333333333334</ele><time>2026-04-05T15:54:32.001Z</time></trkpt><trkpt lat="45.15874800358283" lon="5.707548504475776"><ele>227.66666666666669</ele><time>2026-04-05T15:54:33.001Z</time></trkpt><trkpt lat="45.15875083000706" lon="5.707246638457794"><ele>228.0</ele><time>2026-04-05T15:54:34.001Z</time></trkpt><trkpt lat="45.15874858102776" lon="5.706937965119552"><ele>227.66666666666669</ele><time>2026-04-05T15:54:35.001Z</time></trkpt><trkpt lat="45.15873557215173" lon="5.706634876002724"><ele>227.33333333333334</ele><time>2026-04-05T15:54:36.001Z</time></trkpt><trkpt lat="45.158725268245135" lon="5.706328311902485"><ele>227.0</ele><time>2026-04-05T15:54:37.001Z</time></trkpt><trkpt lat="45.158714413487424" lon="5.706017760461972"><ele>227.0</ele><time>2026-04-05T15:54:38.016Z</time></trkpt><trkpt lat="45.15870368720065" lon="5.705712146864252"><ele>227.0</ele><time>2026-04-05T15:54:39.014Z</time></trkpt><trkpt lat="45.158693869033456" lon="5.705406530087097"><ele>227.0</ele><time>2026-04-05T15:54:40.017Z</time></trkpt><trkpt lat="45.15868266881327" lon="5.705098947586733"><ele>227.0</ele><time>2026-04-05T15:54:41.018Z</time></trkpt><trkpt lat="45.1586723526393" lon="5.704792475345572"><ele>227.0</ele><time>2026-04-05T15:54:42.021Z</time></trkpt><trkpt lat="45.15868261120795" lon="5.704490053539702"><ele>227.0</ele><time>2026-04-05T15:54:43.019Z</time></trkpt><trkpt lat="45.158808129138954" lon="5.703178207323045"><ele>227.0</ele><time>2026-04-05T15:54:47.001Z</time></trkpt><trkpt lat="45.15887498546993" lon="5.702921396445439"><ele>227.0</ele><time>2026-04-05T15:54:48.001Z</time></trkpt><trkpt lat="45.15877875271958" lon="5.702945600316323"><ele>227.0</ele><time>2026-04-05T15:54:49.001Z</time></trkpt><trkpt lat="45.15881539236025" lon="5.702804958608881"><ele>227.0</ele><time>2026-04-05T15:54:50.001Z</time></trkpt><trkpt lat="45.15891367415302" lon="5.702662626358119"><ele>227.0</ele><time>2026-04-05T15:54:51.001Z</time></trkpt><trkpt lat="45.15898315189462" lon="5.702487210443882"><ele>227.0</ele><time>2026-04-05T15:54:52.001Z</time></trkpt><trkpt lat="45.15907554578443" lon="5.702317924311108"><ele>227.0</ele><time>2026-04-05T15:54:53.001Z</time></trkpt><trkpt lat="45.159163774381305" lon="5.702164924592923"><ele>227.0</ele><time>2026-04-05T15:54:54.001Z</time></trkpt><trkpt lat="45.1592594354349" lon="5.7020193000088755"><ele>228.0</ele><time>2026-04-05T15:54:55.001Z</time></trkpt><trkpt lat="45.15933278137195" lon="5.701866371312719"><ele>229.0</ele><time>2026-04-05T15:54:56.001Z</time></trkpt><trkpt lat="45.15940712383713" lon="5.7017125498688115"><ele>230.0</ele><time>2026-04-05T15:54:57.001Z</time></trkpt><trkpt lat="45.159477621505204" lon="5.70158048929003"><ele>231.0</ele><time>2026-04-05T15:54:58.001Z</time></trkpt><trkpt lat="45.15953878873439" lon="5.701458225497574"><ele>231.0</ele><time>2026-04-05T15:54:59.001Z</time></trkpt><trkpt lat="45.159587221150126" lon="5.701317298705253"><ele>231.0</ele><time>2026-04-05T15:55:00.001Z</time></trkpt><trkpt lat="45.15962513390208" lon="5.7011691886295734"><ele>231.0</ele><time>2026-04-05T15:55:01.001Z</time></trkpt><trkpt lat="45.159638094798694" lon="5.701010510267866"><ele>231.0</ele><time>2026-04-05T15:55:02.001Z</time></trkpt><trkpt lat="45.15962785465052" lon="5.7008439838308265"><ele>230.0</ele><time>2026-04-05T15:55:03.001Z</time></trkpt><trkpt lat="45.15959677485105" lon="5.700684273422623"><ele>229.0</ele><time>2026-04-05T15:55:04.001Z</time></trkpt><trkpt lat="45.159530818689184" lon="5.700540089287934"><ele>228.0</ele><time>2026-04-05T15:55:05.001Z</time></trkpt><trkpt lat="45.15942769836678" lon="5.700439279109678"><ele>227.0</ele><time>2026-04-05T15:55:06.001Z</time></trkpt><trkpt lat="45.159313721817924" lon="5.700315961289817"><ele>226.5</ele><time>2026-04-05T15:55:07.001Z</time></trkpt><trkpt lat="45.159193526163655" lon="5.70023292849156"><ele>226.0</ele><time>2026-04-05T15:55:08.001Z</time></trkpt><trkpt lat="45.1590637518925" lon="5.700181097849233"><ele>225.5</ele><time>2026-04-05T15:55:09.001Z</time></trkpt><trkpt lat="45.158933349968095" lon="5.7001432164807415"><ele>225.0</ele><time>2026-04-05T15:55:10.001Z</time></trkpt><trkpt lat="45.15881151233054" lon="5.700097667603969"><ele>225.0</ele><time>2026-04-05T15:55:11.001Z</time></trkpt><trkpt lat="45.15869518970399" lon="5.700046218651229"><ele>225.0</ele><time>2026-04-05T15:55:12.001Z</time></trkpt><trkpt lat="45.15856074476062" lon="5.700038233259175"><ele>225.0</ele><time>2026-04-05T15:55:13.001Z</time></trkpt><trkpt lat="45.158428559475844" lon="5.700075420018002"><ele>225.0</ele><time>2026-04-05T15:55:14.001Z</time></trkpt><trkpt lat="45.15831078888563" lon="5.700150506919537"><ele>225.0</ele><time>2026-04-05T15:55:15.001Z</time></trkpt><trkpt lat="45.158205809146416" lon="5.700242926873332"><ele>225.0</ele><time>2026-04-05T15:55:16.001Z</time></trkpt><trkpt lat="45.15810928521558" lon="5.700348299717745"><ele>225.0</ele><time>2026-04-05T15:55:17.001Z</time></trkpt><trkpt lat="45.157999790524556" lon="5.700413797243452"><ele>225.0</ele><time>2026-04-05T15:55:18.001Z</time></trkpt><trkpt lat="45.15788133085216" lon="5.700450164471936"><ele>225.25</ele><time>2026-04-05T15:55:19.001Z</time></trkpt><trkpt lat="45.15775578194129" lon="5.700442898751933"><ele>225.5</ele><time>2026-04-05T15:55:20.001Z</time></trkpt><trkpt lat="45.15762408356243" lon="5.7003785825491144"><ele>225.75</ele><time>2026-04-05T15:55:21.001Z</time></trkpt><trkpt lat="45.15749202296676" lon="5.700286422178838"><ele>226.0</ele><time>2026-04-05T15:55:22.001Z</time></trkpt><trkpt lat="45.15733684941378" lon="5.700149426741937"><ele>226.33333333333331</ele><time>2026-04-05T15:55:23.001Z</time></trkpt><trkpt lat="45.15716187107707" lon="5.700044597112792"><ele>226.66666666666669</ele><time>2026-04-05T15:55:24.001Z</time></trkpt><trkpt lat="45.15695367866167" lon="5.699900851309374"><ele>227.0</ele><time>2026-04-05T15:55:25.001Z</time></trkpt><trkpt lat="45.15674695181212" lon="5.69974815469445"><ele>227.0</ele><time>2026-04-05T15:55:26.001Z</time></trkpt><trkpt lat="45.15655181343907" lon="5.6996055743809455"><ele>227.0</ele><time>2026-04-05T15:55:27.001Z</time></trkpt><trkpt lat="45.156365300439894" lon="5.6995115089713755"><ele>227.0</ele><time>2026-04-05T15:55:28.001Z</time></trkpt><trkpt lat="45.15619140848373" lon="5.699408233789745"><ele>226.66666666666669</ele><time>2026-04-05T15:55:29.001Z</time></trkpt><trkpt lat="45.1560172416552" lon="5.699315257997369"><ele>226.33333333333331</ele><time>2026-04-05T15:55:30.002Z</time></trkpt><trkpt lat="45.15584041001623" lon="5.699226057102517"><ele>226.0</ele><time>2026-04-05T15:55:31.002Z</time></trkpt><trkpt lat="45.15565311651184" lon="5.699139523253426"><ele>226.0</ele><time>2026-04-05T15:55:32.002Z</time></trkpt><trkpt lat="45.15545584204439" lon="5.699045266639612"><ele>226.0</ele><time>2026-04-05T15:55:33.002Z</time></trkpt><trkpt lat="45.15524625845276" lon="5.698975914842868"><ele>226.0</ele><time>2026-04-05T15:55:34.002Z</time></trkpt><trkpt lat="45.15505575112649" lon="5.698864430283726"><ele>226.0</ele><time>2026-04-05T15:55:35.002Z</time></trkpt><trkpt lat="45.15488109147434" lon="5.698738409784559"><ele>226.0</ele><time>2026-04-05T15:55:36.002Z</time></trkpt><trkpt lat="45.154693771516186" lon="5.698645272654452"><ele>226.0</ele><time>2026-04-05T15:55:37.002Z</time></trkpt><trkpt lat="45.154473690818975" lon="5.6985560080419635"><ele>227.5</ele><time>2026-04-05T15:55:38.002Z</time></trkpt><trkpt lat="45.15426520219042" lon="5.698454024311707"><ele>229.0</ele><time>2026-04-05T15:55:39.002Z</time></trkpt><trkpt lat="45.15403968037339" lon="5.698361338348466"><ele>229.0</ele><time>2026-04-05T15:55:40.002Z</time></trkpt><trkpt lat="45.153801097431284" lon="5.6982569103146234"><ele>229.0</ele><time>2026-04-05T15:55:41.002Z</time></trkpt><trkpt lat="45.15356354231875" lon="5.698151937098351"><ele>229.0</ele><time>2026-04-05T15:55:42.002Z</time></trkpt><trkpt lat="45.15333357834017" lon="5.698045228788809"><ele>229.0</ele><time>2026-04-05T15:55:43.002Z</time></trkpt><trkpt lat="45.15311014151473" lon="5.6979394791452505"><ele>229.0</ele><time>2026-04-05T15:55:44.002Z</time></trkpt><trkpt lat="45.152897371315746" lon="5.697841486366245"><ele>229.0</ele><time>2026-04-05T15:55:45.002Z</time></trkpt><trkpt lat="45.15270268087137" lon="5.697752475454235"><ele>229.0</ele><time>2026-04-05T15:55:46.002Z</time></trkpt><trkpt lat="45.152508713527055" lon="5.6976821139336415"><ele>228.66666666666666</ele><time>2026-04-05T15:55:47.002Z</time></trkpt><trkpt lat="45.15232089677676" lon="5.69758703942939"><ele>228.33333333333331</ele><time>2026-04-05T15:55:48.002Z</time></trkpt><trkpt lat="45.1521396119049" lon="5.697486289372737"><ele>228.0</ele><time>2026-04-05T15:55:49.002Z</time></trkpt><trkpt lat="45.15196527840472" lon="5.697399679047094"><ele>228.0</ele><time>2026-04-05T15:55:50.002Z</time></trkpt><trkpt lat="45.151803009300686" lon="5.69731622617921"><ele>228.0</ele><time>2026-04-05T15:55:51.002Z</time></trkpt><trkpt lat="45.15164791613481" lon="5.697238097451157"><ele>228.0</ele><time>2026-04-05T15:55:52.002Z</time></trkpt><trkpt lat="45.151503678558555" lon="5.697171718629013"><ele>228.25</ele><time>2026-04-05T15:55:53.002Z</time></trkpt><trkpt lat="45.15140721907697" lon="5.697063484036697"><ele>228.5</ele><time>2026-04-05T15:55:54Z</time></trkpt><trkpt lat="45.15132854340745" lon="5.696929077654329"><ele>228.75</ele><time>2026-04-05T15:55:55Z</time></trkpt><trkpt lat="45.15118941539857" lon="5.69673845185804"><ele>229.0</ele><time>2026-04-05T15:55:56Z</time></trkpt><trkpt lat="45.15110495047595" lon="5.696493471076867"><ele>228.66666666666666</ele><time>2026-04-05T15:55:57Z</time></trkpt><trkpt lat="45.15101832106283" lon="5.696230400486402"><ele>228.33333333333331</ele><time>2026-04-05T15:55:58Z</time></trkpt><trkpt lat="45.15094887603801" lon="5.696020581681305"><ele>228.0</ele><time>2026-04-05T15:55:59Z</time></trkpt><trkpt lat="45.150901715904006" lon="5.69575380913065"><ele>228.0</ele><time>2026-04-05T15:56:00Z</time></trkpt><trkpt lat="45.150856655936074" lon="5.695593287673396"><ele>228.0</ele><time>2026-04-05T15:56:01Z</time></trkpt><trkpt lat="45.1506895079592" lon="5.695543369310623"><ele>228.0</ele><time>2026-04-05T15:56:02Z</time></trkpt><trkpt lat="45.15057411386492" lon="5.695522102467358"><ele>228.0</ele><time>2026-04-05T15:56:03Z</time></trkpt><trkpt lat="45.15049555136093" lon="5.69546629737712"><ele>228.16666666666666</ele><time>2026-04-05T15:56:04Z</time></trkpt><trkpt lat="45.15044986521138" lon="5.695362155349369"><ele>228.33333333333331</ele><time>2026-04-05T15:56:05Z</time></trkpt><trkpt lat="45.15043331937184" lon="5.695214448562009"><ele>228.5</ele><time>2026-04-05T15:56:06Z</time></trkpt><trkpt lat="45.15036500353086" lon="5.695153632073884"><ele>228.66666666666666</ele><time>2026-04-05T15:56:07Z</time></trkpt><trkpt lat="45.15028264671895" lon="5.695159163614506"><ele>228.83333333333331</ele><time>2026-04-05T15:56:08Z</time></trkpt><trkpt lat="45.15021554648249" lon="5.695244169427217"><ele>229.0</ele><time>2026-04-05T15:56:09Z</time></trkpt><trkpt lat="45.15016089582989" lon="5.695326576611241"><ele>229.0</ele><time>2026-04-05T15:56:10Z</time></trkpt><trkpt lat="45.15021055691963" lon="5.6954949188711606"><ele>228.99999999999997</ele><time>2026-04-05T15:56:11Z</time></trkpt><trkpt lat="45.15023493982846" lon="5.695591261845072"><ele>228.99999999999997</ele><time>2026-04-05T15:56:12Z</time></trkpt><trkpt lat="45.15024997965878" lon="5.695732967824284"><ele>229.0</ele><time>2026-04-05T15:56:13Z</time></trkpt><trkpt lat="45.15022145867192" lon="5.695882419014056"><ele>229.0</ele><time>2026-04-05T15:56:14Z</time></trkpt><trkpt lat="45.150183892776454" lon="5.696029017140446"><ele>228.79999999999998</ele><time>2026-04-05T15:56:15Z</time></trkpt><trkpt lat="45.150131673668675" lon="5.696180716434096"><ele>228.59999999999997</ele><time>2026-04-05T15:56:16Z</time></trkpt><trkpt lat="45.15009635392859" lon="5.6963263691124855"><ele>228.4</ele><time>2026-04-05T15:56:17Z</time></trkpt><trkpt lat="45.15006593091642" lon="5.696473656789641"><ele>228.2</ele><time>2026-04-05T15:56:18Z</time></trkpt><trkpt lat="45.150023110343284" lon="5.696608473106569"><ele>228.0</ele><time>2026-04-05T15:56:19Z</time></trkpt><trkpt lat="45.14998624407288" lon="5.696752634464908"><ele>228.0</ele><time>2026-04-05T15:56:20Z</time></trkpt><trkpt lat="45.14995491679995" lon="5.696899143053677"><ele>228.0</ele><time>2026-04-05T15:56:21Z</time></trkpt><trkpt lat="45.14993214604246" lon="5.697017891932656"><ele>228.0</ele><time>2026-04-05T15:56:22Z</time></trkpt><trkpt lat="45.149933135233695" lon="5.6971233024225745"><ele>228.0</ele><time>2026-04-05T15:56:23Z</time></trkpt><trkpt lat="45.149924680493726" lon="5.697212456919871"><ele>228.0</ele><time>2026-04-05T15:56:24Z</time></trkpt><trkpt lat="45.14990043767514" lon="5.697298392184183"><ele>228.0</ele><time>2026-04-05T15:56:25Z</time></trkpt><trkpt lat="45.14984081774675" lon="5.697374581431804"><ele>228.4</ele><time>2026-04-05T15:56:26Z</time></trkpt><trkpt lat="45.14976679600384" lon="5.6974320527640385"><ele>228.8</ele><time>2026-04-05T15:56:27Z</time></trkpt><trkpt lat="45.149724534883816" lon="5.697534954643204"><ele>229.2</ele><time>2026-04-05T15:56:28Z</time></trkpt><trkpt lat="45.149728207006476" lon="5.697700552186065"><ele>229.6</ele><time>2026-04-05T15:56:29Z</time></trkpt><trkpt lat="45.14980056524898" lon="5.697834395903843"><ele>230.0</ele><time>2026-04-05T15:56:30Z</time></trkpt><trkpt lat="45.14985580256749" lon="5.697941144873942"><ele>230.5</ele><time>2026-04-05T15:56:31Z</time></trkpt><trkpt lat="45.149772508587475" lon="5.698131236727781"><ele>231.0</ele><time>2026-04-05T15:56:32Z</time></trkpt><trkpt lat="45.14973028992635" lon="5.698282248860931"><ele>231.5</ele><time>2026-04-05T15:56:33.001Z</time></trkpt><trkpt lat="45.14971016580986" lon="5.6984412432543134"><ele>232.0</ele><time>2026-04-05T15:56:34.001Z</time></trkpt><trkpt lat="45.14969786826323" lon="5.69859188288952"><ele>232.2</ele><time>2026-04-05T15:56:35.001Z</time></trkpt><trkpt lat="45.14968165321229" lon="5.698738173444042"><ele>232.39999999999998</ele><time>2026-04-05T15:56:36.001Z</time></trkpt><trkpt lat="45.14965872182076" lon="5.698881808636167"><ele>232.60000000000002</ele><time>2026-04-05T15:56:37.001Z</time></trkpt><trkpt lat="45.14966137842502" lon="5.699039846954214"><ele>232.8</ele><time>2026-04-05T15:56:38.001Z</time></trkpt><trkpt lat="45.14965442000946" lon="5.699222783572945"><ele>233.0</ele><time>2026-04-05T15:56:39.001Z</time></trkpt><trkpt lat="45.149640027804054" lon="5.699374564330682"><ele>232.60000000000002</ele><time>2026-04-05T15:56:40.001Z</time></trkpt><trkpt lat="45.14962349073406" lon="5.699539148014196"><ele>232.20000000000002</ele><time>2026-04-05T15:56:41.001Z</time></trkpt><trkpt lat="45.14960301947173" lon="5.699689232564344"><ele>231.8</ele><time>2026-04-05T15:56:42.001Z</time></trkpt><trkpt lat="45.14957979603756" lon="5.699820268244282"><ele>231.4</ele><time>2026-04-05T15:56:43.001Z</time></trkpt><trkpt lat="45.14953928335765" lon="5.699929602561726"><ele>231.0</ele><time>2026-04-05T15:56:44.001Z</time></trkpt><trkpt lat="45.149524611359396" lon="5.700044420350059"><ele>231.0</ele><time>2026-04-05T15:56:45.001Z</time></trkpt><trkpt lat="45.14949446066186" lon="5.700141887268284"><ele>231.0</ele><time>2026-04-05T15:56:46.001Z</time></trkpt><trkpt lat="45.149459825898695" lon="5.7002381056315805"><ele>231.0</ele><time>2026-04-05T15:56:47.001Z</time></trkpt><trkpt lat="45.14943119610981" lon="5.700337161700607"><ele>231.0</ele><time>2026-04-05T15:56:48.001Z</time></trkpt><trkpt lat="45.14940257047306" lon="5.700437355613178"><ele>231.0</ele><time>2026-04-05T15:56:49.001Z</time></trkpt><trkpt lat="45.14937696063964" lon="5.700530721830901"><ele>231.0</ele><time>2026-04-05T15:56:50.001Z</time></trkpt><trkpt lat="45.14932463923957" lon="5.700705471136507"><ele>231.0</ele><time>2026-04-05T15:56:52.001Z</time></trkpt><trkpt lat="45.149267194466205" lon="5.7008559394925165"><ele>231.00000000000003</ele><time>2026-04-05T15:56:54.001Z</time></trkpt><trkpt lat="45.1492560425897" lon="5.70094696621616"><ele>231.00000000000003</ele><time>2026-04-05T15:56:55.001Z</time></trkpt><trkpt lat="45.14920086585226" lon="5.701102472787403"><ele>231.0</ele><time>2026-04-05T15:56:57.001Z</time></trkpt><trkpt lat="45.14918799998637" lon="5.701221361003914"><ele>231.0</ele><time>2026-04-05T15:56:59.001Z</time></trkpt><trkpt lat="45.14916184138855" lon="5.701310238686519"><ele>231.0</ele><time>2026-04-05T15:57:15.001Z</time></trkpt><trkpt lat="45.149152992218966" lon="5.701416141564769"><ele>231.0</ele><time>2026-04-05T15:57:18.001Z</time></trkpt><trkpt lat="45.149129858020274" lon="5.701529807311504"><ele>231.0</ele><time>2026-04-05T15:57:20.001Z</time></trkpt><trkpt lat="45.149109723775595" lon="5.701666583321277"><ele>231.0</ele><time>2026-04-05T15:57:22.001Z</time></trkpt><trkpt lat="45.14903824961857" lon="5.701753512454757"><ele>231.0</ele><time>2026-04-05T15:57:24.001Z</time></trkpt><trkpt lat="45.14894873612352" lon="5.701754994308069"><ele>231.0</ele><time>2026-04-05T15:57:25.001Z</time></trkpt><trkpt lat="45.148873846977196" lon="5.701739955052973"><ele>231.16666666666666</ele><time>2026-04-05T15:57:26.001Z</time></trkpt><trkpt lat="45.14879588605241" lon="5.701719728704652"><ele>231.33333333333331</ele><time>2026-04-05T15:57:27.001Z</time></trkpt><trkpt lat="45.14871606297821" lon="5.701694156009806"><ele>231.5</ele><time>2026-04-05T15:57:28.001Z</time></trkpt><trkpt lat="45.14862801607083" lon="5.70167341970604"><ele>231.66666666666666</ele><time>2026-04-05T15:57:29.001Z</time></trkpt><trkpt lat="45.14853877550543" lon="5.70165910538432"><ele>231.83333333333331</ele><time>2026-04-05T15:57:30.001Z</time></trkpt><trkpt lat="45.14844029949772" lon="5.70164978223336"><ele>232.0</ele><time>2026-04-05T15:57:31.001Z</time></trkpt><trkpt lat="45.14834368819751" lon="5.7016246256951915"><ele>232.0</ele><time>2026-04-05T15:57:32.001Z</time></trkpt><trkpt lat="45.14823812092628" lon="5.701618723255599"><ele>232.0</ele><time>2026-04-05T15:57:33.001Z</time></trkpt><trkpt lat="45.148117547655964" lon="5.701590440873659"><ele>232.0</ele><time>2026-04-05T15:57:34.001Z</time></trkpt><trkpt lat="45.14799938857189" lon="5.701564669333842"><ele>232.0</ele><time>2026-04-05T15:57:35.001Z</time></trkpt><trkpt lat="45.147872957079436" lon="5.70153737340308"><ele>232.75</ele><time>2026-04-05T15:57:36.001Z</time></trkpt><trkpt lat="45.147750865914006" lon="5.70151101450603"><ele>233.5</ele><time>2026-04-05T15:57:37.001Z</time></trkpt><trkpt lat="45.1476271182843" lon="5.701483752957259"><ele>234.25</ele><time>2026-04-05T15:57:38.001Z</time></trkpt><trkpt lat="45.147503473041034" lon="5.701456582331922"><ele>235.0</ele><time>2026-04-05T15:57:39.001Z</time></trkpt><trkpt lat="45.14737926362374" lon="5.701450484202064"><ele>235.0</ele><time>2026-04-05T15:57:40.001Z</time></trkpt><trkpt lat="45.147247327328536" lon="5.7014002951462155"><ele>235.0</ele><time>2026-04-05T15:57:41.002Z</time></trkpt><trkpt lat="45.14713910023708" lon="5.701388139586743"><ele>235.0</ele><time>2026-04-05T15:57:42.002Z</time></trkpt><trkpt lat="45.14703739391943" lon="5.701370313361212"><ele>235.0</ele><time>2026-04-05T15:57:43.002Z</time></trkpt><trkpt lat="45.14694174407837" lon="5.701328370306407"><ele>235.0</ele><time>2026-04-05T15:57:44.002Z</time></trkpt><trkpt lat="45.14685618291499" lon="5.70130727686319"><ele>234.99999999999997</ele><time>2026-04-05T15:57:45.002Z</time></trkpt><trkpt lat="45.14677109647298" lon="5.70128575072079"><ele>235.0</ele><time>2026-04-05T15:57:46.002Z</time></trkpt><trkpt lat="45.14669712281591" lon="5.7012830736104485"><ele>235.0</ele><time>2026-04-05T15:57:47.002Z</time></trkpt><trkpt lat="45.146619021176136" lon="5.701254266649214"><ele>235.0</ele><time>2026-04-05T15:57:49.002Z</time></trkpt><trkpt lat="45.146517275599734" lon="5.701222043625851"><ele>234.99999999999997</ele><time>2026-04-05T15:57:54.002Z</time></trkpt><trkpt lat="45.14642030428712" lon="5.701196407589123"><ele>235.0</ele><time>2026-04-05T15:57:55.002Z</time></trkpt><trkpt lat="45.14630832684032" lon="5.701157398983216"><ele>235.0</ele><time>2026-04-05T15:57:56.002Z</time></trkpt><trkpt lat="45.14620545335217" lon="5.701133452529256"><ele>235.0</ele><time>2026-04-05T15:57:57.002Z</time></trkpt><trkpt lat="45.14609849451857" lon="5.701107647400183"><ele>235.0</ele><time>2026-04-05T15:57:58.002Z</time></trkpt><trkpt lat="45.14594979087573" lon="5.701066867895908"><ele>235.0</ele><time>2026-04-05T15:57:59.002Z</time></trkpt><trkpt lat="45.14580787820245" lon="5.701021966202206"><ele>235.0</ele><time>2026-04-05T15:58:00Z</time></trkpt><trkpt lat="45.145689188206845" lon="5.70099320661096"><ele>235.0</ele><time>2026-04-05T15:58:01Z</time></trkpt><trkpt lat="45.145586918685716" lon="5.700963660432158"><ele>235.0</ele><time>2026-04-05T15:58:02Z</time></trkpt><trkpt lat="45.1454968842464" lon="5.700938495442651"><ele>235.0</ele><time>2026-04-05T15:58:03Z</time></trkpt><trkpt lat="45.14542748765528" lon="5.70093017961307"><ele>235.0</ele><time>2026-04-05T15:58:04Z</time></trkpt><trkpt lat="45.14532384896389" lon="5.700895635011394"><ele>235.0</ele><time>2026-04-05T15:58:06Z</time></trkpt><trkpt lat="45.145201760402415" lon="5.7008512436086525"><ele>235.0</ele><time>2026-04-05T15:58:08Z</time></trkpt><trkpt lat="45.145122902431005" lon="5.7008322270629925"><ele>235.0</ele><time>2026-04-05T15:58:09Z</time></trkpt><trkpt lat="45.1450377075247" lon="5.700806825523147"><ele>235.0</ele><time>2026-04-05T15:58:10Z</time></trkpt><trkpt lat="45.14493786382372" lon="5.700779246277571"><ele>235.0</ele><time>2026-04-05T15:58:11Z</time></trkpt><trkpt lat="45.14482782490226" lon="5.700745347593382"><ele>235.0</ele><time>2026-04-05T15:58:12Z</time></trkpt><trkpt lat="45.14472219046314" lon="5.700718930567983"><ele>235.0</ele><time>2026-04-05T15:58:13Z</time></trkpt><trkpt lat="45.14461418825056" lon="5.700707846045313"><ele>235.0</ele><time>2026-04-05T15:58:14Z</time></trkpt><trkpt lat="45.14451746273261" lon="5.700658293053483"><ele>235.0</ele><time>2026-04-05T15:58:15Z</time></trkpt><trkpt lat="45.14441589792121" lon="5.700646176535282"><ele>235.0</ele><time>2026-04-05T15:58:16Z</time></trkpt><trkpt lat="45.144314553503435" lon="5.700609704900221"><ele>235.0</ele><time>2026-04-05T15:58:17Z</time></trkpt><trkpt lat="45.14420540386062" lon="5.700574121449682"><ele>235.0</ele><time>2026-04-05T15:58:18Z</time></trkpt><trkpt lat="45.14409091242651" lon="5.700530533155748"><ele>235.0</ele><time>2026-04-05T15:58:19Z</time></trkpt><trkpt lat="45.1439534368809" lon="5.700459282026427"><ele>235.0</ele><time>2026-04-05T15:58:20Z</time></trkpt><trkpt lat="45.14378165951391" lon="5.7003844565925"><ele>234.75</ele><time>2026-04-05T15:58:21Z</time></trkpt><trkpt lat="45.143617295439505" lon="5.70032804963041"><ele>234.5</ele><time>2026-04-05T15:58:22Z</time></trkpt><trkpt lat="45.14349606736924" lon="5.700270152757602"><ele>234.25</ele><time>2026-04-05T15:58:23Z</time></trkpt><trkpt lat="45.14341457155578" lon="5.700226450695758"><ele>234.0</ele><time>2026-04-05T15:58:24Z</time></trkpt><trkpt lat="45.143348633784406" lon="5.700184725410927"><ele>234.0</ele><time>2026-04-05T15:58:25Z</time></trkpt><trkpt lat="45.143264561625976" lon="5.70015537919156"><ele>233.99999999999997</ele><time>2026-04-05T15:58:27Z</time></trkpt><trkpt lat="45.143204951188146" lon="5.700264372442725"><ele>233.99999999999997</ele><time>2026-04-05T15:59:15.001Z</time></trkpt><trkpt lat="45.14316952961348" lon="5.700383949525041"><ele>234.0</ele><time>2026-04-05T15:59:20.001Z</time></trkpt><trkpt lat="45.143141802149366" lon="5.700465649859784"><ele>234.0</ele><time>2026-04-05T15:59:21.001Z</time></trkpt><trkpt lat="45.14312910518626" lon="5.7006223913123"><ele>233.5</ele><time>2026-04-05T15:59:22.001Z</time></trkpt><trkpt lat="45.14310021564658" lon="5.700746563701154"><ele>233.0</ele><time>2026-04-05T15:59:24.001Z</time></trkpt><trkpt lat="45.14308865211616" lon="5.700850203070087"><ele>232.5</ele><time>2026-04-05T15:59:26.001Z</time></trkpt><trkpt lat="45.14312494869995" lon="5.700949742936125"><ele>232.0</ele><time>2026-04-05T16:02:12.001Z</time></trkpt><trkpt lat="45.143050489285024" lon="5.700975486629346"><ele>231.5</ele><time>2026-04-05T16:02:16.001Z</time></trkpt><trkpt lat="45.14310731032031" lon="5.7009314607592385"><ele>231.0</ele><time>2026-04-05T16:02:34Z</time></trkpt><trkpt lat="45.14310967230832" lon="5.700833738257371"><ele>231.0</ele><time>2026-04-05T16:04:24Z</time></trkpt><trkpt lat="45.143201473014685" lon="5.7008004855728265"><ele>231.0</ele><time>2026-04-05T16:04:36Z</time></trkpt><trkpt lat="45.143265318947705" lon="5.700783966246997"><ele>231.0</ele><time>2026-04-05T16:04:42Z</time></trkpt><trkpt lat="45.14333984682592" lon="5.700749830679979"><ele>231.0</ele><time>2026-04-05T16:04:46Z</time></trkpt><trkpt lat="45.14338792394987" lon="5.700810422178133"><ele>231.0</ele><time>2026-04-05T16:04:52.001Z</time></trkpt><trkpt lat="45.14345447729095" lon="5.70082913142166"><ele>231.0</ele><time>2026-04-05T16:04:58.001Z</time></trkpt><trkpt lat="45.14351508855852" lon="5.700857372231075"><ele>231.0</ele><time>2026-04-05T16:05:05.001Z</time></trkpt><trkpt lat="45.143589164039966" lon="5.700857110708031"><ele>231.28571428571428</ele><time>2026-04-05T16:05:10.001Z</time></trkpt><trkpt lat="45.14364845377333" lon="5.700902659820908"><ele>231.57142857142856</ele><time>2026-04-05T16:05:16.001Z</time></trkpt><trkpt lat="45.14372908517778" lon="5.700900103782879"><ele>231.85714285714286</ele><time>2026-04-05T16:05:21.001Z</time></trkpt><trkpt lat="45.143792332076764" lon="5.700920611464948"><ele>232.14285714285714</ele><time>2026-04-05T16:05:30.001Z</time></trkpt><trkpt lat="45.14386794029651" lon="5.700886399969764"><ele>232.42857142857142</ele><time>2026-04-05T16:05:33.001Z</time></trkpt><trkpt lat="45.14393839353034" lon="5.700925748852666"><ele>232.71428571428572</ele><time>2026-04-05T16:05:39.001Z</time></trkpt><trkpt lat="45.144007952625" lon="5.700923858805509"><ele>233.0</ele><time>2026-04-05T16:05:50.001Z</time></trkpt><trkpt lat="45.144067150690724" lon="5.700963789430589"><ele>233.00000000000003</ele><time>2026-04-05T16:05:58.001Z</time></trkpt><trkpt lat="45.144027384286" lon="5.701055347269995"><ele>233.0</ele><time>2026-04-05T16:06:06.001Z</time></trkpt><trkpt lat="45.144006962237064" lon="5.701154649064109"><ele>233.0</ele><time>2026-04-05T16:06:13.001Z</time></trkpt><trkpt lat="45.14399151666713" lon="5.701248469297258"><ele>233.0</ele><time>2026-04-05T16:06:19.001Z</time></trkpt><trkpt lat="45.14389488004199" lon="5.701200741586844"><ele>233.00000000000003</ele><time>2026-04-05T16:06:21.001Z</time></trkpt><trkpt lat="45.143972245912614" lon="5.7011762270572115"><ele>233.0</ele><time>2026-04-05T16:07:19.956Z</time></trkpt><trkpt lat="45.14394005794568" lon="5.701084859195588"><ele>233.00000000000003</ele><time>2026-04-05T16:07:26.793Z</time></trkpt><trkpt lat="45.1439981870025" lon="5.701206700545086"><ele>233.0</ele><time>2026-04-05T16:11:18.021Z</time></trkpt><trkpt lat="45.144029573859825" lon="5.7012913422935645"><ele>233.0</ele><time>2026-04-05T16:11:21.019Z</time></trkpt><trkpt lat="45.143958376484264" lon="5.701187258878291"><ele>233.0</ele><time>2026-04-05T16:11:26.021Z</time></trkpt><trkpt lat="45.143900489097504" lon="5.701137307242779"><ele>233.00000000000003</ele><time>2026-04-05T16:11:30Z</time></trkpt><trkpt lat="45.14399519448981" lon="5.7011555323264895"><ele>233.0</ele><time>2026-04-05T16:14:09Z</time></trkpt><trkpt lat="45.14401756625365" lon="5.701242832443996"><ele>233.00000000000003</ele><time>2026-04-05T16:14:37Z</time></trkpt><trkpt lat="45.144108797806126" lon="5.701225473569758"><ele>233.0</ele><time>2026-04-05T16:16:39Z</time></trkpt><trkpt lat="45.14407457570631" lon="5.701148624833627"><ele>233.0</ele><time>2026-04-05T16:16:55Z</time></trkpt><trkpt lat="45.144021421069986" lon="5.701087419410226"><ele>233.0</ele><time>2026-04-05T16:17:26Z</time></trkpt><trkpt lat="45.14392864384894" lon="5.700992666731043"><ele>233.00000000000003</ele><time>2026-04-05T16:17:31Z</time></trkpt><trkpt lat="45.14399434760336" lon="5.701109062717516"><ele>233.0</ele><time>2026-04-05T16:17:58Z</time></trkpt><trkpt lat="45.14398663625313" lon="5.701208626227572"><ele>233.0</ele><time>2026-04-05T16:25:04.001Z</time></trkpt><trkpt lat="45.143919438316324" lon="5.70119597720108"><ele>233.0</ele><time>2026-04-05T16:25:20.001Z</time></trkpt><trkpt lat="45.14399688531217" lon="5.70109094552918"><ele>233.0</ele><time>2026-04-05T16:31:37Z</time></trkpt><trkpt lat="45.14394025767003" lon="5.701139916978199"><ele>233.0</ele><time>2026-04-05T16:33:10Z</time></trkpt></trkseg></trk></gpx>